<?xml version="1.0" encoding="UTF-8" standalone="no" ?>
<gpx xmlns="http://www.topografix.com/GPX/1/1" xmlns:xsi="http://www.w3.org/2001/XMLSchema-instance" xsi:schemaLocation="http://www.topografix.com/GPX/1/1 http://www.topografix.com/GPX/1/1/gpx.xsd" version="1.1" creator="VisuGPX - https://www.visugpx.com">
  <metadata>
    <name>Col du Tourmalet - Pyrenees</name>
    <desc><![CDATA[CH home trainer]]></desc>
  </metadata>
  <trk>
    <name><![CDATA[Kinomap - 🙌 Téléthon 2020 - Col du Tourmalet - Pyrenees]]></name>
    <trkseg>
      <trkpt lat="42.87326" lon="-0.00285">
        <ele>716.6</ele>
        <time>2020-12-05T15:16:58Z</time>
      </trkpt>
      <trkpt lat="42.87326" lon="-0.00285">
        <ele>716.6</ele>
        <time>2020-12-05T15:16:59.067Z</time>
      </trkpt>
      <trkpt lat="42.87326" lon="-0.00285">
        <ele>716.6</ele>
        <time>2020-12-05T15:17:00.069Z</time>
      </trkpt>
      <trkpt lat="42.87326" lon="-0.00291">
        <ele>716.6</ele>
        <time>2020-12-05T15:17:01.068Z</time>
      </trkpt>
      <trkpt lat="42.87326" lon="-0.00291">
        <ele>716.6</ele>
        <time>2020-12-05T15:17:02.069Z</time>
      </trkpt>
      <trkpt lat="42.87326" lon="-0.00291">
        <ele>716.6</ele>
        <time>2020-12-05T15:17:03.069Z</time>
      </trkpt>
      <trkpt lat="42.87326" lon="-0.00291">
        <ele>716.6</ele>
        <time>2020-12-05T15:17:04.069Z</time>
      </trkpt>
      <trkpt lat="42.87326" lon="-0.00291">
        <ele>716.6</ele>
        <time>2020-12-05T15:17:05.07Z</time>
      </trkpt>
      <trkpt lat="42.87321" lon="-0.00311">
        <ele>716.4</ele>
        <time>2020-12-05T15:17:06.069Z</time>
      </trkpt>
      <trkpt lat="42.87315" lon="-0.00314">
        <ele>716</ele>
        <time>2020-12-05T15:17:07.068Z</time>
      </trkpt>
      <trkpt lat="42.87312" lon="-0.00313">
        <ele>715.8</ele>
        <time>2020-12-05T15:17:08.068Z</time>
      </trkpt>
      <trkpt lat="42.87312" lon="-0.00313">
        <ele>715.8</ele>
        <time>2020-12-05T15:17:09.068Z</time>
      </trkpt>
      <trkpt lat="42.87312" lon="-0.00313">
        <ele>715.8</ele>
        <time>2020-12-05T15:17:10.07Z</time>
      </trkpt>
      <trkpt lat="42.87312" lon="-0.00313">
        <ele>715.8</ele>
        <time>2020-12-05T15:17:11.068Z</time>
      </trkpt>
      <trkpt lat="42.87301" lon="-0.00301">
        <ele>715.8</ele>
        <time>2020-12-05T15:17:12.068Z</time>
      </trkpt>
      <trkpt lat="42.87297" lon="-0.00296">
        <ele>715.6</ele>
        <time>2020-12-05T15:17:13.069Z</time>
      </trkpt>
      <trkpt lat="42.87297" lon="-0.00296">
        <ele>715.6</ele>
        <time>2020-12-05T15:17:14.068Z</time>
      </trkpt>
      <trkpt lat="42.87297" lon="-0.00296">
        <ele>715.6</ele>
        <time>2020-12-05T15:17:15.068Z</time>
      </trkpt>
      <trkpt lat="42.87297" lon="-0.00296">
        <ele>715.6</ele>
        <time>2020-12-05T15:17:16.069Z</time>
      </trkpt>
      <trkpt lat="42.87297" lon="-0.00296">
        <ele>715.6</ele>
        <time>2020-12-05T15:17:17.067Z</time>
      </trkpt>
      <trkpt lat="42.87281" lon="-0.0027">
        <ele>715.6</ele>
        <time>2020-12-05T15:17:18.069Z</time>
      </trkpt>
      <trkpt lat="42.87281" lon="-0.0027">
        <ele>715.6</ele>
        <time>2020-12-05T15:17:19.068Z</time>
      </trkpt>
      <trkpt lat="42.87281" lon="-0.0027">
        <ele>715.6</ele>
        <time>2020-12-05T15:17:20.067Z</time>
      </trkpt>
      <trkpt lat="42.87281" lon="-0.0027">
        <ele>715.6</ele>
        <time>2020-12-05T15:17:21.068Z</time>
      </trkpt>
      <trkpt lat="42.87281" lon="-0.0027">
        <ele>715.6</ele>
        <time>2020-12-05T15:17:22.067Z</time>
      </trkpt>
      <trkpt lat="42.87281" lon="-0.0027">
        <ele>715.6</ele>
        <time>2020-12-05T15:17:23.067Z</time>
      </trkpt>
      <trkpt lat="42.87265" lon="-0.00243">
        <ele>716.8</ele>
        <time>2020-12-05T15:17:24.068Z</time>
      </trkpt>
      <trkpt lat="42.87263" lon="-0.00238">
        <ele>717.2</ele>
        <time>2020-12-05T15:17:25.068Z</time>
      </trkpt>
      <trkpt lat="42.87263" lon="-0.00238">
        <ele>717.2</ele>
        <time>2020-12-05T15:17:26.068Z</time>
      </trkpt>
      <trkpt lat="42.87258" lon="-0.0023">
        <ele>717.8</ele>
        <time>2020-12-05T15:17:27.068Z</time>
      </trkpt>
      <trkpt lat="42.87258" lon="-0.0023">
        <ele>717.8</ele>
        <time>2020-12-05T15:17:28.068Z</time>
      </trkpt>
      <trkpt lat="42.87258" lon="-0.0023">
        <ele>717.8</ele>
        <time>2020-12-05T15:17:29.068Z</time>
      </trkpt>
      <trkpt lat="42.87254" lon="-0.00222">
        <ele>718.8</ele>
        <time>2020-12-05T15:17:30.068Z</time>
      </trkpt>
      <trkpt lat="42.87254" lon="-0.00222">
        <ele>718.8</ele>
        <time>2020-12-05T15:17:31.067Z</time>
      </trkpt>
      <trkpt lat="42.87254" lon="-0.00222">
        <ele>718.8</ele>
        <time>2020-12-05T15:17:32.068Z</time>
      </trkpt>
      <trkpt lat="42.87254" lon="-0.00222">
        <ele>718.8</ele>
        <time>2020-12-05T15:17:33.068Z</time>
      </trkpt>
      <trkpt lat="42.87254" lon="-0.00222">
        <ele>718.8</ele>
        <time>2020-12-05T15:17:34.067Z</time>
      </trkpt>
      <trkpt lat="42.87254" lon="-0.00222">
        <ele>718.8</ele>
        <time>2020-12-05T15:17:35.067Z</time>
      </trkpt>
      <trkpt lat="42.87246" lon="-0.00212">
        <ele>720</ele>
        <time>2020-12-05T15:17:36.069Z</time>
      </trkpt>
      <trkpt lat="42.87246" lon="-0.00212">
        <ele>720</ele>
        <time>2020-12-05T15:17:37.069Z</time>
      </trkpt>
      <trkpt lat="42.87244" lon="-0.00208">
        <ele>720.4</ele>
        <time>2020-12-05T15:17:38.069Z</time>
      </trkpt>
      <trkpt lat="42.87244" lon="-0.00208">
        <ele>720.4</ele>
        <time>2020-12-05T15:17:39.068Z</time>
      </trkpt>
      <trkpt lat="42.87244" lon="-0.00208">
        <ele>720.4</ele>
        <time>2020-12-05T15:17:40.068Z</time>
      </trkpt>
      <trkpt lat="42.8724" lon="-0.00201">
        <ele>721</ele>
        <time>2020-12-05T15:17:41.069Z</time>
      </trkpt>
      <trkpt lat="42.8724" lon="-0.00201">
        <ele>721</ele>
        <time>2020-12-05T15:17:42.068Z</time>
      </trkpt>
      <trkpt lat="42.8724" lon="-0.00201">
        <ele>721</ele>
        <time>2020-12-05T15:17:43.067Z</time>
      </trkpt>
      <trkpt lat="42.8724" lon="-0.00201">
        <ele>721</ele>
        <time>2020-12-05T15:17:44.069Z</time>
      </trkpt>
      <trkpt lat="42.8724" lon="-0.00201">
        <ele>721</ele>
        <time>2020-12-05T15:17:45.067Z</time>
      </trkpt>
      <trkpt lat="42.8724" lon="-0.00201">
        <ele>721</ele>
        <time>2020-12-05T15:17:46.067Z</time>
      </trkpt>
      <trkpt lat="42.8723" lon="-0.00191">
        <ele>722.4</ele>
        <time>2020-12-05T15:17:47.067Z</time>
      </trkpt>
      <trkpt lat="42.8723" lon="-0.00191">
        <ele>722.4</ele>
        <time>2020-12-05T15:17:48.067Z</time>
      </trkpt>
      <trkpt lat="42.8723" lon="-0.00191">
        <ele>722.4</ele>
        <time>2020-12-05T15:17:49.067Z</time>
      </trkpt>
      <trkpt lat="42.8723" lon="-0.00191">
        <ele>722.4</ele>
        <time>2020-12-05T15:17:50.068Z</time>
      </trkpt>
      <trkpt lat="42.8723" lon="-0.00191">
        <ele>722.4</ele>
        <time>2020-12-05T15:17:51.067Z</time>
      </trkpt>
      <trkpt lat="42.87227" lon="-0.00179">
        <ele>723.4</ele>
        <time>2020-12-05T15:17:52.068Z</time>
      </trkpt>
      <trkpt lat="42.87227" lon="-0.00179">
        <ele>723.4</ele>
        <time>2020-12-05T15:17:53.068Z</time>
      </trkpt>
      <trkpt lat="42.87227" lon="-0.00173">
        <ele>723.6</ele>
        <time>2020-12-05T15:17:54.067Z</time>
      </trkpt>
      <trkpt lat="42.87227" lon="-0.00173">
        <ele>723.6</ele>
        <time>2020-12-05T15:17:55.068Z</time>
      </trkpt>
      <trkpt lat="42.87227" lon="-0.00173">
        <ele>723.6</ele>
        <time>2020-12-05T15:17:56.069Z</time>
      </trkpt>
      <trkpt lat="42.87227" lon="-0.00173">
        <ele>723.6</ele>
        <time>2020-12-05T15:17:57.07Z</time>
      </trkpt>
      <trkpt lat="42.87227" lon="-0.00173">
        <ele>723.6</ele>
        <time>2020-12-05T15:17:58.068Z</time>
      </trkpt>
      <trkpt lat="42.87227" lon="-0.00173">
        <ele>723.6</ele>
        <time>2020-12-05T15:17:59.069Z</time>
      </trkpt>
      <trkpt lat="42.87231" lon="-0.00155">
        <ele>724.4</ele>
        <time>2020-12-05T15:18:00.068Z</time>
      </trkpt>
      <trkpt lat="42.87231" lon="-0.00155">
        <ele>724.4</ele>
        <time>2020-12-05T15:18:01.068Z</time>
      </trkpt>
      <trkpt lat="42.87231" lon="-0.00155">
        <ele>724.4</ele>
        <time>2020-12-05T15:18:02.067Z</time>
      </trkpt>
      <trkpt lat="42.87233" lon="-0.00149">
        <ele>724.8</ele>
        <time>2020-12-05T15:18:03.069Z</time>
      </trkpt>
      <trkpt lat="42.87233" lon="-0.00149">
        <ele>724.8</ele>
        <time>2020-12-05T15:18:04.068Z</time>
      </trkpt>
      <trkpt lat="42.87233" lon="-0.00149">
        <ele>724.8</ele>
        <time>2020-12-05T15:18:05.067Z</time>
      </trkpt>
      <trkpt lat="42.87233" lon="-0.00149">
        <ele>724.8</ele>
        <time>2020-12-05T15:18:06.067Z</time>
      </trkpt>
      <trkpt lat="42.87233" lon="-0.00149">
        <ele>724.8</ele>
        <time>2020-12-05T15:18:07.067Z</time>
      </trkpt>
      <trkpt lat="42.87233" lon="-0.00149">
        <ele>724.8</ele>
        <time>2020-12-05T15:18:08.068Z</time>
      </trkpt>
      <trkpt lat="42.87233" lon="-0.00149">
        <ele>724.8</ele>
        <time>2020-12-05T15:18:09.07Z</time>
      </trkpt>
      <trkpt lat="42.87237" lon="-0.0013">
        <ele>725.8</ele>
        <time>2020-12-05T15:18:10.068Z</time>
      </trkpt>
      <trkpt lat="42.87237" lon="-0.0013">
        <ele>725.8</ele>
        <time>2020-12-05T15:18:11.068Z</time>
      </trkpt>
      <trkpt lat="42.87237" lon="-0.0013">
        <ele>725.8</ele>
        <time>2020-12-05T15:18:12.068Z</time>
      </trkpt>
      <trkpt lat="42.87237" lon="-0.0013">
        <ele>725.8</ele>
        <time>2020-12-05T15:18:13.068Z</time>
      </trkpt>
      <trkpt lat="42.87237" lon="-0.0013">
        <ele>725.8</ele>
        <time>2020-12-05T15:18:14.068Z</time>
      </trkpt>
      <trkpt lat="42.87241" lon="-0.00113">
        <ele>726.2</ele>
        <time>2020-12-05T15:18:15.068Z</time>
      </trkpt>
      <trkpt lat="42.87241" lon="-0.00113">
        <ele>726.2</ele>
        <time>2020-12-05T15:18:16.068Z</time>
      </trkpt>
      <trkpt lat="42.87241" lon="-0.00113">
        <ele>726.2</ele>
        <time>2020-12-05T15:18:17.069Z</time>
      </trkpt>
      <trkpt lat="42.87241" lon="-0.00113">
        <ele>726.2</ele>
        <time>2020-12-05T15:18:18.069Z</time>
      </trkpt>
      <trkpt lat="42.87241" lon="-0.00113">
        <ele>726.2</ele>
        <time>2020-12-05T15:18:19.068Z</time>
      </trkpt>
      <trkpt lat="42.87241" lon="-0.00113">
        <ele>726.2</ele>
        <time>2020-12-05T15:18:20.068Z</time>
      </trkpt>
      <trkpt lat="42.87241" lon="-0.00113">
        <ele>726.2</ele>
        <time>2020-12-05T15:18:21.069Z</time>
      </trkpt>
      <trkpt lat="42.87249" lon="-0.00084">
        <ele>727</ele>
        <time>2020-12-05T15:18:22.068Z</time>
      </trkpt>
      <trkpt lat="42.87249" lon="-0.00084">
        <ele>727</ele>
        <time>2020-12-05T15:18:23.07Z</time>
      </trkpt>
      <trkpt lat="42.87249" lon="-0.00084">
        <ele>727</ele>
        <time>2020-12-05T15:18:24.067Z</time>
      </trkpt>
      <trkpt lat="42.87249" lon="-0.00084">
        <ele>727</ele>
        <time>2020-12-05T15:18:25.067Z</time>
      </trkpt>
      <trkpt lat="42.87249" lon="-0.00084">
        <ele>727</ele>
        <time>2020-12-05T15:18:26.067Z</time>
      </trkpt>
      <trkpt lat="42.87249" lon="-0.00084">
        <ele>727</ele>
        <time>2020-12-05T15:18:27.068Z</time>
      </trkpt>
      <trkpt lat="42.87249" lon="-0.00084">
        <ele>727</ele>
        <time>2020-12-05T15:18:28.067Z</time>
      </trkpt>
      <trkpt lat="42.87249" lon="-0.00084">
        <ele>727</ele>
        <time>2020-12-05T15:18:29.069Z</time>
      </trkpt>
      <trkpt lat="42.87249" lon="-0.00084">
        <ele>727</ele>
        <time>2020-12-05T15:18:30.07Z</time>
      </trkpt>
      <trkpt lat="42.87249" lon="-0.00084">
        <ele>727</ele>
        <time>2020-12-05T15:18:31.07Z</time>
      </trkpt>
      <trkpt lat="42.87249" lon="-0.00084">
        <ele>727</ele>
        <time>2020-12-05T15:18:32.067Z</time>
      </trkpt>
      <trkpt lat="42.87262" lon="-0.00043">
        <ele>727.8</ele>
        <time>2020-12-05T15:18:33.068Z</time>
      </trkpt>
      <trkpt lat="42.87262" lon="-0.00043">
        <ele>727.8</ele>
        <time>2020-12-05T15:18:34.068Z</time>
      </trkpt>
      <trkpt lat="42.87264" lon="-0.00037">
        <ele>728</ele>
        <time>2020-12-05T15:18:35.069Z</time>
      </trkpt>
      <trkpt lat="42.87264" lon="-0.00037">
        <ele>728</ele>
        <time>2020-12-05T15:18:36.068Z</time>
      </trkpt>
      <trkpt lat="42.87264" lon="-0.00037">
        <ele>728</ele>
        <time>2020-12-05T15:18:37.068Z</time>
      </trkpt>
      <trkpt lat="42.87264" lon="-0.00037">
        <ele>728</ele>
        <time>2020-12-05T15:18:38.067Z</time>
      </trkpt>
      <trkpt lat="42.87264" lon="-0.00037">
        <ele>728</ele>
        <time>2020-12-05T15:18:39.068Z</time>
      </trkpt>
      <trkpt lat="42.87269" lon="-0.0002">
        <ele>729.2</ele>
        <time>2020-12-05T15:18:40.067Z</time>
      </trkpt>
      <trkpt lat="42.87269" lon="-0.0002">
        <ele>729.2</ele>
        <time>2020-12-05T15:18:41.068Z</time>
      </trkpt>
      <trkpt lat="42.87272" lon="-9.0E-5">
        <ele>729.8</ele>
        <time>2020-12-05T15:18:42.067Z</time>
      </trkpt>
      <trkpt lat="42.87272" lon="-9.0E-5">
        <ele>729.8</ele>
        <time>2020-12-05T15:18:43.067Z</time>
      </trkpt>
      <trkpt lat="42.87274" lon="-4.0E-5">
        <ele>730.2</ele>
        <time>2020-12-05T15:18:44.069Z</time>
      </trkpt>
      <trkpt lat="42.87274" lon="-4.0E-5">
        <ele>730.2</ele>
        <time>2020-12-05T15:18:45.067Z</time>
      </trkpt>
      <trkpt lat="42.87276" lon="7.0E-5">
        <ele>730.8</ele>
        <time>2020-12-05T15:18:46.07Z</time>
      </trkpt>
      <trkpt lat="42.87276" lon="7.0E-5">
        <ele>730.8</ele>
        <time>2020-12-05T15:18:47.068Z</time>
      </trkpt>
      <trkpt lat="42.87278" lon="0.00012">
        <ele>731</ele>
        <time>2020-12-05T15:18:48.07Z</time>
      </trkpt>
      <trkpt lat="42.87278" lon="0.00012">
        <ele>731</ele>
        <time>2020-12-05T15:18:49.068Z</time>
      </trkpt>
      <trkpt lat="42.87278" lon="0.00012">
        <ele>731</ele>
        <time>2020-12-05T15:18:50.067Z</time>
      </trkpt>
      <trkpt lat="42.87281" lon="0.00024">
        <ele>731.2</ele>
        <time>2020-12-05T15:18:51.068Z</time>
      </trkpt>
      <trkpt lat="42.87284" lon="0.0003">
        <ele>731.2</ele>
        <time>2020-12-05T15:18:52.068Z</time>
      </trkpt>
      <trkpt lat="42.87284" lon="0.0003">
        <ele>731.2</ele>
        <time>2020-12-05T15:18:53.067Z</time>
      </trkpt>
      <trkpt lat="42.87284" lon="0.0003">
        <ele>731.2</ele>
        <time>2020-12-05T15:18:54.069Z</time>
      </trkpt>
      <trkpt lat="42.87284" lon="0.0003">
        <ele>731.2</ele>
        <time>2020-12-05T15:18:55.069Z</time>
      </trkpt>
      <trkpt lat="42.87286" lon="0.00042">
        <ele>732.2</ele>
        <time>2020-12-05T15:18:56.068Z</time>
      </trkpt>
      <trkpt lat="42.87288" lon="0.00047">
        <ele>732.4</ele>
        <time>2020-12-05T15:18:57.068Z</time>
      </trkpt>
      <trkpt lat="42.87288" lon="0.00047">
        <ele>732.4</ele>
        <time>2020-12-05T15:18:58.067Z</time>
      </trkpt>
      <trkpt lat="42.8729" lon="0.00053">
        <ele>732.8</ele>
        <time>2020-12-05T15:18:59.07Z</time>
      </trkpt>
      <trkpt lat="42.8729" lon="0.00053">
        <ele>732.8</ele>
        <time>2020-12-05T15:19:00.067Z</time>
      </trkpt>
      <trkpt lat="42.8729" lon="0.00053">
        <ele>732.8</ele>
        <time>2020-12-05T15:19:01.069Z</time>
      </trkpt>
      <trkpt lat="42.8729" lon="0.00053">
        <ele>732.8</ele>
        <time>2020-12-05T15:19:02.067Z</time>
      </trkpt>
      <trkpt lat="42.87294" lon="0.00071">
        <ele>733.6</ele>
        <time>2020-12-05T15:19:03.068Z</time>
      </trkpt>
      <trkpt lat="42.87294" lon="0.00071">
        <ele>733.6</ele>
        <time>2020-12-05T15:19:04.069Z</time>
      </trkpt>
      <trkpt lat="42.87295" lon="0.00077">
        <ele>733.8</ele>
        <time>2020-12-05T15:19:05.067Z</time>
      </trkpt>
      <trkpt lat="42.87297" lon="0.00083">
        <ele>734</ele>
        <time>2020-12-05T15:19:06.069Z</time>
      </trkpt>
      <trkpt lat="42.87297" lon="0.00083">
        <ele>734</ele>
        <time>2020-12-05T15:19:07.067Z</time>
      </trkpt>
      <trkpt lat="42.87299" lon="0.0009">
        <ele>734.2</ele>
        <time>2020-12-05T15:19:08.068Z</time>
      </trkpt>
      <trkpt lat="42.87299" lon="0.0009">
        <ele>734.2</ele>
        <time>2020-12-05T15:19:09.067Z</time>
      </trkpt>
      <trkpt lat="42.87299" lon="0.0009">
        <ele>734.2</ele>
        <time>2020-12-05T15:19:10.067Z</time>
      </trkpt>
      <trkpt lat="42.87299" lon="0.0009">
        <ele>734.2</ele>
        <time>2020-12-05T15:19:11.069Z</time>
      </trkpt>
      <trkpt lat="42.87299" lon="0.0009">
        <ele>734.2</ele>
        <time>2020-12-05T15:19:12.07Z</time>
      </trkpt>
      <trkpt lat="42.87299" lon="0.0009">
        <ele>734.2</ele>
        <time>2020-12-05T15:19:13.07Z</time>
      </trkpt>
      <trkpt lat="42.87306" lon="0.00117">
        <ele>734.6</ele>
        <time>2020-12-05T15:19:14.069Z</time>
      </trkpt>
      <trkpt lat="42.87306" lon="0.00117">
        <ele>734.6</ele>
        <time>2020-12-05T15:19:15.068Z</time>
      </trkpt>
      <trkpt lat="42.87306" lon="0.00117">
        <ele>734.6</ele>
        <time>2020-12-05T15:19:16.068Z</time>
      </trkpt>
      <trkpt lat="42.87306" lon="0.00117">
        <ele>734.6</ele>
        <time>2020-12-05T15:19:17.067Z</time>
      </trkpt>
      <trkpt lat="42.87312" lon="0.00139">
        <ele>734.8</ele>
        <time>2020-12-05T15:19:18.07Z</time>
      </trkpt>
      <trkpt lat="42.87312" lon="0.00139">
        <ele>734.8</ele>
        <time>2020-12-05T15:19:19.068Z</time>
      </trkpt>
      <trkpt lat="42.87312" lon="0.00139">
        <ele>734.8</ele>
        <time>2020-12-05T15:19:20.068Z</time>
      </trkpt>
      <trkpt lat="42.87312" lon="0.00139">
        <ele>734.8</ele>
        <time>2020-12-05T15:19:21.07Z</time>
      </trkpt>
      <trkpt lat="42.87317" lon="0.00164">
        <ele>734.8</ele>
        <time>2020-12-05T15:19:22.068Z</time>
      </trkpt>
      <trkpt lat="42.87317" lon="0.00164">
        <ele>734.8</ele>
        <time>2020-12-05T15:19:23.068Z</time>
      </trkpt>
      <trkpt lat="42.87317" lon="0.00164">
        <ele>734.8</ele>
        <time>2020-12-05T15:19:24.068Z</time>
      </trkpt>
      <trkpt lat="42.87317" lon="0.00164">
        <ele>734.8</ele>
        <time>2020-12-05T15:19:25.07Z</time>
      </trkpt>
      <trkpt lat="42.87317" lon="0.00164">
        <ele>734.8</ele>
        <time>2020-12-05T15:19:26.069Z</time>
      </trkpt>
      <trkpt lat="42.87317" lon="0.00164">
        <ele>734.8</ele>
        <time>2020-12-05T15:19:27.069Z</time>
      </trkpt>
      <trkpt lat="42.87328" lon="0.00208">
        <ele>734.8</ele>
        <time>2020-12-05T15:19:28.068Z</time>
      </trkpt>
      <trkpt lat="42.87328" lon="0.00208">
        <ele>734.8</ele>
        <time>2020-12-05T15:19:29.068Z</time>
      </trkpt>
      <trkpt lat="42.87332" lon="0.00226">
        <ele>734.8</ele>
        <time>2020-12-05T15:19:30.07Z</time>
      </trkpt>
      <trkpt lat="42.87332" lon="0.00226">
        <ele>734.8</ele>
        <time>2020-12-05T15:19:31.067Z</time>
      </trkpt>
      <trkpt lat="42.87332" lon="0.00226">
        <ele>734.8</ele>
        <time>2020-12-05T15:19:32.067Z</time>
      </trkpt>
      <trkpt lat="42.87337" lon="0.00243">
        <ele>734.6</ele>
        <time>2020-12-05T15:19:33.069Z</time>
      </trkpt>
      <trkpt lat="42.8734" lon="0.00252">
        <ele>734.4</ele>
        <time>2020-12-05T15:19:34.068Z</time>
      </trkpt>
      <trkpt lat="42.8734" lon="0.00252">
        <ele>734.4</ele>
        <time>2020-12-05T15:19:35.07Z</time>
      </trkpt>
      <trkpt lat="42.8734" lon="0.00252">
        <ele>734.4</ele>
        <time>2020-12-05T15:19:36.067Z</time>
      </trkpt>
      <trkpt lat="42.8734" lon="0.00252">
        <ele>734.4</ele>
        <time>2020-12-05T15:19:37.068Z</time>
      </trkpt>
      <trkpt lat="42.8734" lon="0.00252">
        <ele>734.4</ele>
        <time>2020-12-05T15:19:38.069Z</time>
      </trkpt>
      <trkpt lat="42.87351" lon="0.00293">
        <ele>734.4</ele>
        <time>2020-12-05T15:19:39.07Z</time>
      </trkpt>
      <trkpt lat="42.87351" lon="0.00293">
        <ele>734.4</ele>
        <time>2020-12-05T15:19:40.068Z</time>
      </trkpt>
      <trkpt lat="42.87351" lon="0.00293">
        <ele>734.4</ele>
        <time>2020-12-05T15:19:41.068Z</time>
      </trkpt>
      <trkpt lat="42.87351" lon="0.00293">
        <ele>734.4</ele>
        <time>2020-12-05T15:19:42.067Z</time>
      </trkpt>
      <trkpt lat="42.87351" lon="0.00293">
        <ele>734.4</ele>
        <time>2020-12-05T15:19:43.067Z</time>
      </trkpt>
      <trkpt lat="42.87351" lon="0.00293">
        <ele>734.4</ele>
        <time>2020-12-05T15:19:44.067Z</time>
      </trkpt>
      <trkpt lat="42.87351" lon="0.00293">
        <ele>734.4</ele>
        <time>2020-12-05T15:19:45.068Z</time>
      </trkpt>
      <trkpt lat="42.87351" lon="0.00293">
        <ele>734.4</ele>
        <time>2020-12-05T15:19:46.069Z</time>
      </trkpt>
      <trkpt lat="42.87366" lon="0.00352">
        <ele>735.8</ele>
        <time>2020-12-05T15:19:47.07Z</time>
      </trkpt>
      <trkpt lat="42.87366" lon="0.00352">
        <ele>735.8</ele>
        <time>2020-12-05T15:19:48.069Z</time>
      </trkpt>
      <trkpt lat="42.87366" lon="0.00352">
        <ele>735.8</ele>
        <time>2020-12-05T15:19:49.068Z</time>
      </trkpt>
      <trkpt lat="42.87371" lon="0.00377">
        <ele>737</ele>
        <time>2020-12-05T15:19:50.069Z</time>
      </trkpt>
      <trkpt lat="42.87371" lon="0.00377">
        <ele>737</ele>
        <time>2020-12-05T15:19:51.068Z</time>
      </trkpt>
      <trkpt lat="42.87371" lon="0.00377">
        <ele>737</ele>
        <time>2020-12-05T15:19:52.068Z</time>
      </trkpt>
      <trkpt lat="42.87375" lon="0.00389">
        <ele>737.6</ele>
        <time>2020-12-05T15:19:53.067Z</time>
      </trkpt>
      <trkpt lat="42.87375" lon="0.00389">
        <ele>737.6</ele>
        <time>2020-12-05T15:19:54.07Z</time>
      </trkpt>
      <trkpt lat="42.87379" lon="0.00402">
        <ele>738.4</ele>
        <time>2020-12-05T15:19:55.069Z</time>
      </trkpt>
      <trkpt lat="42.87379" lon="0.00402">
        <ele>738.4</ele>
        <time>2020-12-05T15:19:56.07Z</time>
      </trkpt>
      <trkpt lat="42.87379" lon="0.00402">
        <ele>738.4</ele>
        <time>2020-12-05T15:19:57.068Z</time>
      </trkpt>
      <trkpt lat="42.87379" lon="0.00402">
        <ele>738.4</ele>
        <time>2020-12-05T15:19:58.067Z</time>
      </trkpt>
      <trkpt lat="42.87379" lon="0.00402">
        <ele>738.4</ele>
        <time>2020-12-05T15:19:59.069Z</time>
      </trkpt>
      <trkpt lat="42.87384" lon="0.00419">
        <ele>739.4</ele>
        <time>2020-12-05T15:20:00.068Z</time>
      </trkpt>
      <trkpt lat="42.87384" lon="0.00419">
        <ele>739.4</ele>
        <time>2020-12-05T15:20:01.067Z</time>
      </trkpt>
      <trkpt lat="42.87384" lon="0.00419">
        <ele>739.4</ele>
        <time>2020-12-05T15:20:02.068Z</time>
      </trkpt>
      <trkpt lat="42.87388" lon="0.0043">
        <ele>740</ele>
        <time>2020-12-05T15:20:03.07Z</time>
      </trkpt>
      <trkpt lat="42.87388" lon="0.0043">
        <ele>740</ele>
        <time>2020-12-05T15:20:04.069Z</time>
      </trkpt>
      <trkpt lat="42.87388" lon="0.0043">
        <ele>740</ele>
        <time>2020-12-05T15:20:05.069Z</time>
      </trkpt>
      <trkpt lat="42.87388" lon="0.0043">
        <ele>740</ele>
        <time>2020-12-05T15:20:06.067Z</time>
      </trkpt>
      <trkpt lat="42.8739" lon="0.00441">
        <ele>740.8</ele>
        <time>2020-12-05T15:20:07.069Z</time>
      </trkpt>
      <trkpt lat="42.8739" lon="0.00441">
        <ele>740.8</ele>
        <time>2020-12-05T15:20:08.067Z</time>
      </trkpt>
      <trkpt lat="42.8739" lon="0.00441">
        <ele>740.8</ele>
        <time>2020-12-05T15:20:09.068Z</time>
      </trkpt>
      <trkpt lat="42.87393" lon="0.00452">
        <ele>742</ele>
        <time>2020-12-05T15:20:10.068Z</time>
      </trkpt>
      <trkpt lat="42.87393" lon="0.00452">
        <ele>742</ele>
        <time>2020-12-05T15:20:11.068Z</time>
      </trkpt>
      <trkpt lat="42.87393" lon="0.00452">
        <ele>742</ele>
        <time>2020-12-05T15:20:12.069Z</time>
      </trkpt>
      <trkpt lat="42.87393" lon="0.00452">
        <ele>742</ele>
        <time>2020-12-05T15:20:13.068Z</time>
      </trkpt>
      <trkpt lat="42.87393" lon="0.00452">
        <ele>742</ele>
        <time>2020-12-05T15:20:14.067Z</time>
      </trkpt>
      <trkpt lat="42.87398" lon="0.00469">
        <ele>743</ele>
        <time>2020-12-05T15:20:15.067Z</time>
      </trkpt>
      <trkpt lat="42.87398" lon="0.00469">
        <ele>743</ele>
        <time>2020-12-05T15:20:16.069Z</time>
      </trkpt>
      <trkpt lat="42.87398" lon="0.00469">
        <ele>743</ele>
        <time>2020-12-05T15:20:17.068Z</time>
      </trkpt>
      <trkpt lat="42.87398" lon="0.00469">
        <ele>743</ele>
        <time>2020-12-05T15:20:18.069Z</time>
      </trkpt>
      <trkpt lat="42.87398" lon="0.00469">
        <ele>743</ele>
        <time>2020-12-05T15:20:19.068Z</time>
      </trkpt>
      <trkpt lat="42.87398" lon="0.00469">
        <ele>743</ele>
        <time>2020-12-05T15:20:20.069Z</time>
      </trkpt>
      <trkpt lat="42.87398" lon="0.00469">
        <ele>743</ele>
        <time>2020-12-05T15:20:21.068Z</time>
      </trkpt>
      <trkpt lat="42.87406" lon="0.00497">
        <ele>744.2</ele>
        <time>2020-12-05T15:20:22.069Z</time>
      </trkpt>
      <trkpt lat="42.87406" lon="0.00497">
        <ele>744.2</ele>
        <time>2020-12-05T15:20:23.068Z</time>
      </trkpt>
      <trkpt lat="42.87408" lon="0.00502">
        <ele>744.8</ele>
        <time>2020-12-05T15:20:24.069Z</time>
      </trkpt>
      <trkpt lat="42.87408" lon="0.00502">
        <ele>744.8</ele>
        <time>2020-12-05T15:20:25.068Z</time>
      </trkpt>
      <trkpt lat="42.87408" lon="0.00502">
        <ele>744.8</ele>
        <time>2020-12-05T15:20:26.069Z</time>
      </trkpt>
      <trkpt lat="42.87408" lon="0.00502">
        <ele>744.8</ele>
        <time>2020-12-05T15:20:27.068Z</time>
      </trkpt>
      <trkpt lat="42.87408" lon="0.00502">
        <ele>744.8</ele>
        <time>2020-12-05T15:20:28.067Z</time>
      </trkpt>
      <trkpt lat="42.87416" lon="0.00518">
        <ele>745.6</ele>
        <time>2020-12-05T15:20:29.068Z</time>
      </trkpt>
      <trkpt lat="42.87416" lon="0.00518">
        <ele>745.6</ele>
        <time>2020-12-05T15:20:30.07Z</time>
      </trkpt>
      <trkpt lat="42.87416" lon="0.00518">
        <ele>745.6</ele>
        <time>2020-12-05T15:20:31.067Z</time>
      </trkpt>
      <trkpt lat="42.87416" lon="0.00518">
        <ele>745.6</ele>
        <time>2020-12-05T15:20:32.068Z</time>
      </trkpt>
      <trkpt lat="42.87424" lon="0.00532">
        <ele>746.2</ele>
        <time>2020-12-05T15:20:33.069Z</time>
      </trkpt>
      <trkpt lat="42.87427" lon="0.00537">
        <ele>746.4</ele>
        <time>2020-12-05T15:20:34.068Z</time>
      </trkpt>
      <trkpt lat="42.87427" lon="0.00537">
        <ele>746.4</ele>
        <time>2020-12-05T15:20:35.067Z</time>
      </trkpt>
      <trkpt lat="42.87427" lon="0.00537">
        <ele>746.4</ele>
        <time>2020-12-05T15:20:36.068Z</time>
      </trkpt>
      <trkpt lat="42.87427" lon="0.00537">
        <ele>746.4</ele>
        <time>2020-12-05T15:20:37.067Z</time>
      </trkpt>
      <trkpt lat="42.87427" lon="0.00537">
        <ele>746.4</ele>
        <time>2020-12-05T15:20:38.068Z</time>
      </trkpt>
      <trkpt lat="42.87427" lon="0.00537">
        <ele>746.4</ele>
        <time>2020-12-05T15:20:39.07Z</time>
      </trkpt>
      <trkpt lat="42.87427" lon="0.00537">
        <ele>746.4</ele>
        <time>2020-12-05T15:20:40.068Z</time>
      </trkpt>
      <trkpt lat="42.87427" lon="0.00537">
        <ele>746.4</ele>
        <time>2020-12-05T15:20:41.068Z</time>
      </trkpt>
      <trkpt lat="42.87444" lon="0.00562">
        <ele>747.6</ele>
        <time>2020-12-05T15:20:42.068Z</time>
      </trkpt>
      <trkpt lat="42.87444" lon="0.00562">
        <ele>747.6</ele>
        <time>2020-12-05T15:20:43.068Z</time>
      </trkpt>
      <trkpt lat="42.87444" lon="0.00562">
        <ele>747.6</ele>
        <time>2020-12-05T15:20:44.068Z</time>
      </trkpt>
      <trkpt lat="42.87444" lon="0.00562">
        <ele>747.6</ele>
        <time>2020-12-05T15:20:45.068Z</time>
      </trkpt>
      <trkpt lat="42.87444" lon="0.00562">
        <ele>747.6</ele>
        <time>2020-12-05T15:20:46.068Z</time>
      </trkpt>
      <trkpt lat="42.87444" lon="0.00562">
        <ele>747.6</ele>
        <time>2020-12-05T15:20:47.068Z</time>
      </trkpt>
      <trkpt lat="42.87444" lon="0.00562">
        <ele>747.6</ele>
        <time>2020-12-05T15:20:48.069Z</time>
      </trkpt>
      <trkpt lat="42.87444" lon="0.00562">
        <ele>747.6</ele>
        <time>2020-12-05T15:20:49.068Z</time>
      </trkpt>
      <trkpt lat="42.87459" lon="0.00586">
        <ele>748.6</ele>
        <time>2020-12-05T15:20:50.068Z</time>
      </trkpt>
      <trkpt lat="42.87462" lon="0.0059">
        <ele>748.8</ele>
        <time>2020-12-05T15:20:51.068Z</time>
      </trkpt>
      <trkpt lat="42.87462" lon="0.0059">
        <ele>748.8</ele>
        <time>2020-12-05T15:20:52.069Z</time>
      </trkpt>
      <trkpt lat="42.87464" lon="0.00594">
        <ele>749.2</ele>
        <time>2020-12-05T15:20:53.068Z</time>
      </trkpt>
      <trkpt lat="42.87464" lon="0.00594">
        <ele>749.2</ele>
        <time>2020-12-05T15:20:54.068Z</time>
      </trkpt>
      <trkpt lat="42.87469" lon="0.00603">
        <ele>749.6</ele>
        <time>2020-12-05T15:20:55.068Z</time>
      </trkpt>
      <trkpt lat="42.87469" lon="0.00603">
        <ele>749.6</ele>
        <time>2020-12-05T15:20:56.069Z</time>
      </trkpt>
      <trkpt lat="42.87469" lon="0.00603">
        <ele>749.6</ele>
        <time>2020-12-05T15:20:57.068Z</time>
      </trkpt>
      <trkpt lat="42.87469" lon="0.00603">
        <ele>749.6</ele>
        <time>2020-12-05T15:20:58.068Z</time>
      </trkpt>
      <trkpt lat="42.87469" lon="0.00603">
        <ele>749.6</ele>
        <time>2020-12-05T15:20:59.068Z</time>
      </trkpt>
      <trkpt lat="42.87469" lon="0.00603">
        <ele>749.6</ele>
        <time>2020-12-05T15:21:00.068Z</time>
      </trkpt>
      <trkpt lat="42.87469" lon="0.00603">
        <ele>749.6</ele>
        <time>2020-12-05T15:21:01.068Z</time>
      </trkpt>
      <trkpt lat="42.87479" lon="0.00621">
        <ele>750.4</ele>
        <time>2020-12-05T15:21:02.068Z</time>
      </trkpt>
      <trkpt lat="42.87479" lon="0.00621">
        <ele>750.4</ele>
        <time>2020-12-05T15:21:03.069Z</time>
      </trkpt>
      <trkpt lat="42.87479" lon="0.00621">
        <ele>750.4</ele>
        <time>2020-12-05T15:21:04.069Z</time>
      </trkpt>
      <trkpt lat="42.87485" lon="0.0063">
        <ele>750.8</ele>
        <time>2020-12-05T15:21:05.067Z</time>
      </trkpt>
      <trkpt lat="42.87485" lon="0.0063">
        <ele>750.8</ele>
        <time>2020-12-05T15:21:06.068Z</time>
      </trkpt>
      <trkpt lat="42.87485" lon="0.0063">
        <ele>750.8</ele>
        <time>2020-12-05T15:21:07.068Z</time>
      </trkpt>
      <trkpt lat="42.87485" lon="0.0063">
        <ele>750.8</ele>
        <time>2020-12-05T15:21:08.068Z</time>
      </trkpt>
      <trkpt lat="42.87492" lon="0.00639">
        <ele>751</ele>
        <time>2020-12-05T15:21:09.068Z</time>
      </trkpt>
      <trkpt lat="42.87495" lon="0.00643">
        <ele>751.2</ele>
        <time>2020-12-05T15:21:10.069Z</time>
      </trkpt>
      <trkpt lat="42.87495" lon="0.00643">
        <ele>751.2</ele>
        <time>2020-12-05T15:21:11.069Z</time>
      </trkpt>
      <trkpt lat="42.87495" lon="0.00643">
        <ele>751.2</ele>
        <time>2020-12-05T15:21:12.068Z</time>
      </trkpt>
      <trkpt lat="42.87502" lon="0.00652">
        <ele>751.6</ele>
        <time>2020-12-05T15:21:13.068Z</time>
      </trkpt>
      <trkpt lat="42.87502" lon="0.00652">
        <ele>751.6</ele>
        <time>2020-12-05T15:21:14.067Z</time>
      </trkpt>
      <trkpt lat="42.87505" lon="0.00657">
        <ele>752</ele>
        <time>2020-12-05T15:21:15.068Z</time>
      </trkpt>
      <trkpt lat="42.87505" lon="0.00657">
        <ele>752</ele>
        <time>2020-12-05T15:21:16.07Z</time>
      </trkpt>
      <trkpt lat="42.87505" lon="0.00657">
        <ele>752</ele>
        <time>2020-12-05T15:21:17.068Z</time>
      </trkpt>
      <trkpt lat="42.87505" lon="0.00657">
        <ele>752</ele>
        <time>2020-12-05T15:21:18.069Z</time>
      </trkpt>
      <trkpt lat="42.87505" lon="0.00657">
        <ele>752</ele>
        <time>2020-12-05T15:21:19.067Z</time>
      </trkpt>
      <trkpt lat="42.87505" lon="0.00657">
        <ele>752</ele>
        <time>2020-12-05T15:21:20.068Z</time>
      </trkpt>
      <trkpt lat="42.87505" lon="0.00657">
        <ele>752</ele>
        <time>2020-12-05T15:21:21.068Z</time>
      </trkpt>
      <trkpt lat="42.87521" lon="0.00678">
        <ele>753</ele>
        <time>2020-12-05T15:21:22.069Z</time>
      </trkpt>
      <trkpt lat="42.87521" lon="0.00678">
        <ele>753</ele>
        <time>2020-12-05T15:21:23.068Z</time>
      </trkpt>
      <trkpt lat="42.87521" lon="0.00678">
        <ele>753</ele>
        <time>2020-12-05T15:21:24.068Z</time>
      </trkpt>
      <trkpt lat="42.87521" lon="0.00678">
        <ele>753</ele>
        <time>2020-12-05T15:21:25.07Z</time>
      </trkpt>
      <trkpt lat="42.87521" lon="0.00678">
        <ele>753</ele>
        <time>2020-12-05T15:21:26.069Z</time>
      </trkpt>
      <trkpt lat="42.87521" lon="0.00678">
        <ele>753</ele>
        <time>2020-12-05T15:21:27.068Z</time>
      </trkpt>
      <trkpt lat="42.87532" lon="0.00695">
        <ele>754.2</ele>
        <time>2020-12-05T15:21:28.069Z</time>
      </trkpt>
      <trkpt lat="42.87532" lon="0.00695">
        <ele>754.2</ele>
        <time>2020-12-05T15:21:29.068Z</time>
      </trkpt>
      <trkpt lat="42.87532" lon="0.00695">
        <ele>754.2</ele>
        <time>2020-12-05T15:21:30.068Z</time>
      </trkpt>
      <trkpt lat="42.87532" lon="0.00695">
        <ele>754.2</ele>
        <time>2020-12-05T15:21:31.069Z</time>
      </trkpt>
      <trkpt lat="42.8754" lon="0.00708">
        <ele>755.2</ele>
        <time>2020-12-05T15:21:32.068Z</time>
      </trkpt>
      <trkpt lat="42.8754" lon="0.00708">
        <ele>755.2</ele>
        <time>2020-12-05T15:21:33.07Z</time>
      </trkpt>
      <trkpt lat="42.87543" lon="0.00712">
        <ele>755.6</ele>
        <time>2020-12-05T15:21:34.067Z</time>
      </trkpt>
      <trkpt lat="42.87545" lon="0.00715">
        <ele>755.8</ele>
        <time>2020-12-05T15:21:35.068Z</time>
      </trkpt>
      <trkpt lat="42.87549" lon="0.00719">
        <ele>756.6</ele>
        <time>2020-12-05T15:21:36.068Z</time>
      </trkpt>
      <trkpt lat="42.87549" lon="0.00719">
        <ele>756.6</ele>
        <time>2020-12-05T15:21:37.068Z</time>
      </trkpt>
      <trkpt lat="42.87549" lon="0.00719">
        <ele>756.6</ele>
        <time>2020-12-05T15:21:38.068Z</time>
      </trkpt>
      <trkpt lat="42.87549" lon="0.00719">
        <ele>756.6</ele>
        <time>2020-12-05T15:21:39.069Z</time>
      </trkpt>
      <trkpt lat="42.87549" lon="0.00719">
        <ele>756.6</ele>
        <time>2020-12-05T15:21:40.067Z</time>
      </trkpt>
      <trkpt lat="42.87558" lon="0.00731">
        <ele>757.4</ele>
        <time>2020-12-05T15:21:41.068Z</time>
      </trkpt>
      <trkpt lat="42.87558" lon="0.00731">
        <ele>757.4</ele>
        <time>2020-12-05T15:21:42.069Z</time>
      </trkpt>
      <trkpt lat="42.87558" lon="0.00731">
        <ele>757.4</ele>
        <time>2020-12-05T15:21:43.069Z</time>
      </trkpt>
      <trkpt lat="42.87564" lon="0.00739">
        <ele>758</ele>
        <time>2020-12-05T15:21:44.067Z</time>
      </trkpt>
      <trkpt lat="42.87564" lon="0.00739">
        <ele>758</ele>
        <time>2020-12-05T15:21:45.069Z</time>
      </trkpt>
      <trkpt lat="42.87564" lon="0.00739">
        <ele>758</ele>
        <time>2020-12-05T15:21:46.07Z</time>
      </trkpt>
      <trkpt lat="42.87564" lon="0.00739">
        <ele>758</ele>
        <time>2020-12-05T15:21:47.067Z</time>
      </trkpt>
      <trkpt lat="42.87564" lon="0.00739">
        <ele>758</ele>
        <time>2020-12-05T15:21:48.068Z</time>
      </trkpt>
      <trkpt lat="42.87564" lon="0.00739">
        <ele>758</ele>
        <time>2020-12-05T15:21:49.067Z</time>
      </trkpt>
      <trkpt lat="42.87577" lon="0.00756">
        <ele>759</ele>
        <time>2020-12-05T15:21:50.068Z</time>
      </trkpt>
      <trkpt lat="42.87577" lon="0.00756">
        <ele>759</ele>
        <time>2020-12-05T15:21:51.068Z</time>
      </trkpt>
      <trkpt lat="42.8758" lon="0.00761">
        <ele>759.2</ele>
        <time>2020-12-05T15:21:52.068Z</time>
      </trkpt>
      <trkpt lat="42.8758" lon="0.00761">
        <ele>759.2</ele>
        <time>2020-12-05T15:21:53.068Z</time>
      </trkpt>
      <trkpt lat="42.87585" lon="0.0077">
        <ele>759.6</ele>
        <time>2020-12-05T15:21:54.068Z</time>
      </trkpt>
      <trkpt lat="42.87585" lon="0.0077">
        <ele>759.6</ele>
        <time>2020-12-05T15:21:55.069Z</time>
      </trkpt>
      <trkpt lat="42.87585" lon="0.0077">
        <ele>759.6</ele>
        <time>2020-12-05T15:21:56.069Z</time>
      </trkpt>
      <trkpt lat="42.87591" lon="0.00778">
        <ele>760</ele>
        <time>2020-12-05T15:21:57.068Z</time>
      </trkpt>
      <trkpt lat="42.87591" lon="0.00778">
        <ele>760</ele>
        <time>2020-12-05T15:21:58.068Z</time>
      </trkpt>
      <trkpt lat="42.87594" lon="0.00783">
        <ele>760.2</ele>
        <time>2020-12-05T15:21:59.068Z</time>
      </trkpt>
      <trkpt lat="42.87597" lon="0.00788">
        <ele>760.4</ele>
        <time>2020-12-05T15:22:00.068Z</time>
      </trkpt>
      <trkpt lat="42.87597" lon="0.00788">
        <ele>760.4</ele>
        <time>2020-12-05T15:22:01.067Z</time>
      </trkpt>
      <trkpt lat="42.87597" lon="0.00788">
        <ele>760.4</ele>
        <time>2020-12-05T15:22:02.068Z</time>
      </trkpt>
      <trkpt lat="42.87597" lon="0.00788">
        <ele>760.4</ele>
        <time>2020-12-05T15:22:03.07Z</time>
      </trkpt>
      <trkpt lat="42.87597" lon="0.00788">
        <ele>760.4</ele>
        <time>2020-12-05T15:22:04.07Z</time>
      </trkpt>
      <trkpt lat="42.87607" lon="0.00802">
        <ele>761.2</ele>
        <time>2020-12-05T15:22:05.068Z</time>
      </trkpt>
      <trkpt lat="42.87609" lon="0.00806">
        <ele>761.4</ele>
        <time>2020-12-05T15:22:06.069Z</time>
      </trkpt>
      <trkpt lat="42.87609" lon="0.00806">
        <ele>761.4</ele>
        <time>2020-12-05T15:22:07.068Z</time>
      </trkpt>
      <trkpt lat="42.87609" lon="0.00806">
        <ele>761.4</ele>
        <time>2020-12-05T15:22:08.068Z</time>
      </trkpt>
      <trkpt lat="42.87609" lon="0.00806">
        <ele>761.4</ele>
        <time>2020-12-05T15:22:09.067Z</time>
      </trkpt>
      <trkpt lat="42.87609" lon="0.00806">
        <ele>761.4</ele>
        <time>2020-12-05T15:22:10.067Z</time>
      </trkpt>
      <trkpt lat="42.87609" lon="0.00806">
        <ele>761.4</ele>
        <time>2020-12-05T15:22:11.069Z</time>
      </trkpt>
      <trkpt lat="42.87609" lon="0.00806">
        <ele>761.4</ele>
        <time>2020-12-05T15:22:12.067Z</time>
      </trkpt>
      <trkpt lat="42.87623" lon="0.00826">
        <ele>762.4</ele>
        <time>2020-12-05T15:22:13.068Z</time>
      </trkpt>
      <trkpt lat="42.87623" lon="0.00826">
        <ele>762.4</ele>
        <time>2020-12-05T15:22:14.068Z</time>
      </trkpt>
      <trkpt lat="42.87623" lon="0.00826">
        <ele>762.4</ele>
        <time>2020-12-05T15:22:15.067Z</time>
      </trkpt>
      <trkpt lat="42.8763" lon="0.00835">
        <ele>762.8</ele>
        <time>2020-12-05T15:22:16.068Z</time>
      </trkpt>
      <trkpt lat="42.8763" lon="0.00835">
        <ele>762.8</ele>
        <time>2020-12-05T15:22:17.069Z</time>
      </trkpt>
      <trkpt lat="42.8763" lon="0.00835">
        <ele>762.8</ele>
        <time>2020-12-05T15:22:18.069Z</time>
      </trkpt>
      <trkpt lat="42.87637" lon="0.00844">
        <ele>763</ele>
        <time>2020-12-05T15:22:19.068Z</time>
      </trkpt>
      <trkpt lat="42.87637" lon="0.00844">
        <ele>763</ele>
        <time>2020-12-05T15:22:20.068Z</time>
      </trkpt>
      <trkpt lat="42.8764" lon="0.00849">
        <ele>763.4</ele>
        <time>2020-12-05T15:22:21.068Z</time>
      </trkpt>
      <trkpt lat="42.8764" lon="0.00849">
        <ele>763.4</ele>
        <time>2020-12-05T15:22:22.067Z</time>
      </trkpt>
      <trkpt lat="42.87646" lon="0.00858">
        <ele>764</ele>
        <time>2020-12-05T15:22:23.068Z</time>
      </trkpt>
      <trkpt lat="42.87646" lon="0.00858">
        <ele>764</ele>
        <time>2020-12-05T15:22:24.067Z</time>
      </trkpt>
      <trkpt lat="42.87646" lon="0.00858">
        <ele>764</ele>
        <time>2020-12-05T15:22:25.07Z</time>
      </trkpt>
      <trkpt lat="42.87646" lon="0.00858">
        <ele>764</ele>
        <time>2020-12-05T15:22:26.069Z</time>
      </trkpt>
      <trkpt lat="42.87652" lon="0.00868">
        <ele>764.4</ele>
        <time>2020-12-05T15:22:27.068Z</time>
      </trkpt>
      <trkpt lat="42.87652" lon="0.00868">
        <ele>764.4</ele>
        <time>2020-12-05T15:22:28.069Z</time>
      </trkpt>
      <trkpt lat="42.87652" lon="0.00868">
        <ele>764.4</ele>
        <time>2020-12-05T15:22:29.068Z</time>
      </trkpt>
      <trkpt lat="42.87652" lon="0.00868">
        <ele>764.4</ele>
        <time>2020-12-05T15:22:30.069Z</time>
      </trkpt>
      <trkpt lat="42.87652" lon="0.00868">
        <ele>764.4</ele>
        <time>2020-12-05T15:22:31.067Z</time>
      </trkpt>
      <trkpt lat="42.87652" lon="0.00868">
        <ele>764.4</ele>
        <time>2020-12-05T15:22:32.068Z</time>
      </trkpt>
      <trkpt lat="42.87665" lon="0.00893">
        <ele>765.2</ele>
        <time>2020-12-05T15:22:33.068Z</time>
      </trkpt>
      <trkpt lat="42.87665" lon="0.00893">
        <ele>765.2</ele>
        <time>2020-12-05T15:22:34.068Z</time>
      </trkpt>
      <trkpt lat="42.87667" lon="0.00898">
        <ele>765.4</ele>
        <time>2020-12-05T15:22:35.068Z</time>
      </trkpt>
      <trkpt lat="42.87667" lon="0.00898">
        <ele>765.4</ele>
        <time>2020-12-05T15:22:36.067Z</time>
      </trkpt>
      <trkpt lat="42.8767" lon="0.00908">
        <ele>765.8</ele>
        <time>2020-12-05T15:22:37.067Z</time>
      </trkpt>
      <trkpt lat="42.8767" lon="0.00908">
        <ele>765.8</ele>
        <time>2020-12-05T15:22:38.068Z</time>
      </trkpt>
      <trkpt lat="42.8767" lon="0.00908">
        <ele>765.8</ele>
        <time>2020-12-05T15:22:39.067Z</time>
      </trkpt>
      <trkpt lat="42.8767" lon="0.00908">
        <ele>765.8</ele>
        <time>2020-12-05T15:22:40.069Z</time>
      </trkpt>
      <trkpt lat="42.8767" lon="0.00908">
        <ele>765.8</ele>
        <time>2020-12-05T15:22:41.069Z</time>
      </trkpt>
      <trkpt lat="42.87674" lon="0.00925">
        <ele>766.4</ele>
        <time>2020-12-05T15:22:42.068Z</time>
      </trkpt>
      <trkpt lat="42.87675" lon="0.00931">
        <ele>766.6</ele>
        <time>2020-12-05T15:22:43.069Z</time>
      </trkpt>
      <trkpt lat="42.87675" lon="0.00931">
        <ele>766.6</ele>
        <time>2020-12-05T15:22:44.067Z</time>
      </trkpt>
      <trkpt lat="42.87675" lon="0.00931">
        <ele>766.6</ele>
        <time>2020-12-05T15:22:45.069Z</time>
      </trkpt>
      <trkpt lat="42.87675" lon="0.00931">
        <ele>766.6</ele>
        <time>2020-12-05T15:22:46.068Z</time>
      </trkpt>
      <trkpt lat="42.87675" lon="0.00931">
        <ele>766.6</ele>
        <time>2020-12-05T15:22:47.069Z</time>
      </trkpt>
      <trkpt lat="42.87675" lon="0.00931">
        <ele>766.6</ele>
        <time>2020-12-05T15:22:48.067Z</time>
      </trkpt>
      <trkpt lat="42.87681" lon="0.00957">
        <ele>767.4</ele>
        <time>2020-12-05T15:22:49.068Z</time>
      </trkpt>
      <trkpt lat="42.87681" lon="0.00957">
        <ele>767.4</ele>
        <time>2020-12-05T15:22:50.068Z</time>
      </trkpt>
      <trkpt lat="42.87681" lon="0.00957">
        <ele>767.4</ele>
        <time>2020-12-05T15:22:51.069Z</time>
      </trkpt>
      <trkpt lat="42.87681" lon="0.00957">
        <ele>767.4</ele>
        <time>2020-12-05T15:22:52.068Z</time>
      </trkpt>
      <trkpt lat="42.87681" lon="0.00957">
        <ele>767.4</ele>
        <time>2020-12-05T15:22:53.068Z</time>
      </trkpt>
      <trkpt lat="42.87687" lon="0.00975">
        <ele>768.6</ele>
        <time>2020-12-05T15:22:54.07Z</time>
      </trkpt>
      <trkpt lat="42.87687" lon="0.00975">
        <ele>768.6</ele>
        <time>2020-12-05T15:22:55.068Z</time>
      </trkpt>
      <trkpt lat="42.87689" lon="0.00985">
        <ele>769.4</ele>
        <time>2020-12-05T15:22:56.067Z</time>
      </trkpt>
      <trkpt lat="42.87689" lon="0.00985">
        <ele>769.4</ele>
        <time>2020-12-05T15:22:57.067Z</time>
      </trkpt>
      <trkpt lat="42.87689" lon="0.00985">
        <ele>769.4</ele>
        <time>2020-12-05T15:22:58.069Z</time>
      </trkpt>
      <trkpt lat="42.87692" lon="0.00994">
        <ele>769.8</ele>
        <time>2020-12-05T15:22:59.068Z</time>
      </trkpt>
      <trkpt lat="42.87692" lon="0.00994">
        <ele>769.8</ele>
        <time>2020-12-05T15:23:00.069Z</time>
      </trkpt>
      <trkpt lat="42.87692" lon="0.00994">
        <ele>769.8</ele>
        <time>2020-12-05T15:23:01.067Z</time>
      </trkpt>
      <trkpt lat="42.87692" lon="0.00994">
        <ele>769.8</ele>
        <time>2020-12-05T15:23:02.069Z</time>
      </trkpt>
      <trkpt lat="42.87698" lon="0.01009">
        <ele>770.8</ele>
        <time>2020-12-05T15:23:03.069Z</time>
      </trkpt>
      <trkpt lat="42.87699" lon="0.01013">
        <ele>771.2</ele>
        <time>2020-12-05T15:23:04.069Z</time>
      </trkpt>
      <trkpt lat="42.87699" lon="0.01013">
        <ele>771.2</ele>
        <time>2020-12-05T15:23:05.068Z</time>
      </trkpt>
      <trkpt lat="42.87703" lon="0.01023">
        <ele>771.8</ele>
        <time>2020-12-05T15:23:06.068Z</time>
      </trkpt>
      <trkpt lat="42.87705" lon="0.01027">
        <ele>772</ele>
        <time>2020-12-05T15:23:07.068Z</time>
      </trkpt>
      <trkpt lat="42.87705" lon="0.01027">
        <ele>772</ele>
        <time>2020-12-05T15:23:08.068Z</time>
      </trkpt>
      <trkpt lat="42.87705" lon="0.01027">
        <ele>772</ele>
        <time>2020-12-05T15:23:09.069Z</time>
      </trkpt>
      <trkpt lat="42.87705" lon="0.01027">
        <ele>772</ele>
        <time>2020-12-05T15:23:10.068Z</time>
      </trkpt>
      <trkpt lat="42.8771" lon="0.01041">
        <ele>772.8</ele>
        <time>2020-12-05T15:23:11.069Z</time>
      </trkpt>
      <trkpt lat="42.8771" lon="0.01041">
        <ele>772.8</ele>
        <time>2020-12-05T15:23:12.068Z</time>
      </trkpt>
      <trkpt lat="42.87713" lon="0.0105">
        <ele>773.2</ele>
        <time>2020-12-05T15:23:13.069Z</time>
      </trkpt>
      <trkpt lat="42.87713" lon="0.0105">
        <ele>773.2</ele>
        <time>2020-12-05T15:23:14.068Z</time>
      </trkpt>
      <trkpt lat="42.87713" lon="0.0105">
        <ele>773.2</ele>
        <time>2020-12-05T15:23:15.069Z</time>
      </trkpt>
      <trkpt lat="42.87713" lon="0.0105">
        <ele>773.2</ele>
        <time>2020-12-05T15:23:16.067Z</time>
      </trkpt>
      <trkpt lat="42.87713" lon="0.0105">
        <ele>773.2</ele>
        <time>2020-12-05T15:23:17.069Z</time>
      </trkpt>
      <trkpt lat="42.87713" lon="0.0105">
        <ele>773.2</ele>
        <time>2020-12-05T15:23:18.068Z</time>
      </trkpt>
      <trkpt lat="42.87721" lon="0.01073">
        <ele>774.2</ele>
        <time>2020-12-05T15:23:19.069Z</time>
      </trkpt>
      <trkpt lat="42.87723" lon="0.01077">
        <ele>774.6</ele>
        <time>2020-12-05T15:23:20.068Z</time>
      </trkpt>
      <trkpt lat="42.87723" lon="0.01077">
        <ele>774.6</ele>
        <time>2020-12-05T15:23:21.07Z</time>
      </trkpt>
      <trkpt lat="42.87723" lon="0.01077">
        <ele>774.6</ele>
        <time>2020-12-05T15:23:22.069Z</time>
      </trkpt>
      <trkpt lat="42.87723" lon="0.01077">
        <ele>774.6</ele>
        <time>2020-12-05T15:23:23.068Z</time>
      </trkpt>
      <trkpt lat="42.87723" lon="0.01077">
        <ele>774.6</ele>
        <time>2020-12-05T15:23:24.07Z</time>
      </trkpt>
      <trkpt lat="42.87729" lon="0.0109">
        <ele>775.6</ele>
        <time>2020-12-05T15:23:25.068Z</time>
      </trkpt>
      <trkpt lat="42.87729" lon="0.0109">
        <ele>775.6</ele>
        <time>2020-12-05T15:23:26.068Z</time>
      </trkpt>
      <trkpt lat="42.87729" lon="0.0109">
        <ele>775.6</ele>
        <time>2020-12-05T15:23:27.068Z</time>
      </trkpt>
      <trkpt lat="42.87729" lon="0.0109">
        <ele>775.6</ele>
        <time>2020-12-05T15:23:28.069Z</time>
      </trkpt>
      <trkpt lat="42.87734" lon="0.01102">
        <ele>776.6</ele>
        <time>2020-12-05T15:23:29.067Z</time>
      </trkpt>
      <trkpt lat="42.87734" lon="0.01102">
        <ele>776.6</ele>
        <time>2020-12-05T15:23:30.067Z</time>
      </trkpt>
      <trkpt lat="42.87734" lon="0.01102">
        <ele>776.6</ele>
        <time>2020-12-05T15:23:31.067Z</time>
      </trkpt>
      <trkpt lat="42.87734" lon="0.01102">
        <ele>776.6</ele>
        <time>2020-12-05T15:23:32.067Z</time>
      </trkpt>
      <trkpt lat="42.87734" lon="0.01102">
        <ele>776.6</ele>
        <time>2020-12-05T15:23:33.068Z</time>
      </trkpt>
      <trkpt lat="42.87734" lon="0.01102">
        <ele>776.6</ele>
        <time>2020-12-05T15:23:34.07Z</time>
      </trkpt>
      <trkpt lat="42.87734" lon="0.01102">
        <ele>776.6</ele>
        <time>2020-12-05T15:23:35.068Z</time>
      </trkpt>
      <trkpt lat="42.87741" lon="0.01121">
        <ele>777.8</ele>
        <time>2020-12-05T15:23:36.068Z</time>
      </trkpt>
      <trkpt lat="42.87741" lon="0.01121">
        <ele>777.8</ele>
        <time>2020-12-05T15:23:37.07Z</time>
      </trkpt>
      <trkpt lat="42.87741" lon="0.01121">
        <ele>777.8</ele>
        <time>2020-12-05T15:23:38.069Z</time>
      </trkpt>
      <trkpt lat="42.87745" lon="0.01129">
        <ele>778.4</ele>
        <time>2020-12-05T15:23:39.067Z</time>
      </trkpt>
      <trkpt lat="42.87745" lon="0.01129">
        <ele>778.4</ele>
        <time>2020-12-05T15:23:40.069Z</time>
      </trkpt>
      <trkpt lat="42.87746" lon="0.01133">
        <ele>779</ele>
        <time>2020-12-05T15:23:41.067Z</time>
      </trkpt>
      <trkpt lat="42.87746" lon="0.01133">
        <ele>779</ele>
        <time>2020-12-05T15:23:42.068Z</time>
      </trkpt>
      <trkpt lat="42.87746" lon="0.01133">
        <ele>779</ele>
        <time>2020-12-05T15:23:43.069Z</time>
      </trkpt>
      <trkpt lat="42.87746" lon="0.01133">
        <ele>779</ele>
        <time>2020-12-05T15:23:44.069Z</time>
      </trkpt>
      <trkpt lat="42.87746" lon="0.01133">
        <ele>779</ele>
        <time>2020-12-05T15:23:45.069Z</time>
      </trkpt>
      <trkpt lat="42.87751" lon="0.01146">
        <ele>780</ele>
        <time>2020-12-05T15:23:46.068Z</time>
      </trkpt>
      <trkpt lat="42.87753" lon="0.01151">
        <ele>780.2</ele>
        <time>2020-12-05T15:23:47.069Z</time>
      </trkpt>
      <trkpt lat="42.87753" lon="0.01151">
        <ele>780.2</ele>
        <time>2020-12-05T15:23:48.067Z</time>
      </trkpt>
      <trkpt lat="42.87753" lon="0.01151">
        <ele>780.2</ele>
        <time>2020-12-05T15:23:49.068Z</time>
      </trkpt>
      <trkpt lat="42.87753" lon="0.01151">
        <ele>780.2</ele>
        <time>2020-12-05T15:23:50.068Z</time>
      </trkpt>
      <trkpt lat="42.87753" lon="0.01151">
        <ele>780.2</ele>
        <time>2020-12-05T15:23:51.068Z</time>
      </trkpt>
      <trkpt lat="42.87753" lon="0.01151">
        <ele>780.2</ele>
        <time>2020-12-05T15:23:52.067Z</time>
      </trkpt>
      <trkpt lat="42.87757" lon="0.01166">
        <ele>781.2</ele>
        <time>2020-12-05T15:23:53.069Z</time>
      </trkpt>
      <trkpt lat="42.87757" lon="0.01166">
        <ele>781.2</ele>
        <time>2020-12-05T15:23:54.068Z</time>
      </trkpt>
      <trkpt lat="42.87757" lon="0.01166">
        <ele>781.2</ele>
        <time>2020-12-05T15:23:55.067Z</time>
      </trkpt>
      <trkpt lat="42.87757" lon="0.01166">
        <ele>781.2</ele>
        <time>2020-12-05T15:23:56.068Z</time>
      </trkpt>
      <trkpt lat="42.87757" lon="0.01166">
        <ele>781.2</ele>
        <time>2020-12-05T15:23:57.068Z</time>
      </trkpt>
      <trkpt lat="42.87762" lon="0.0118">
        <ele>782.2</ele>
        <time>2020-12-05T15:23:58.069Z</time>
      </trkpt>
      <trkpt lat="42.87762" lon="0.0118">
        <ele>782.2</ele>
        <time>2020-12-05T15:23:59.068Z</time>
      </trkpt>
      <trkpt lat="42.87762" lon="0.0118">
        <ele>782.2</ele>
        <time>2020-12-05T15:24:00.068Z</time>
      </trkpt>
      <trkpt lat="42.87762" lon="0.0118">
        <ele>782.2</ele>
        <time>2020-12-05T15:24:01.068Z</time>
      </trkpt>
      <trkpt lat="42.87762" lon="0.0118">
        <ele>782.2</ele>
        <time>2020-12-05T15:24:02.068Z</time>
      </trkpt>
      <trkpt lat="42.87762" lon="0.0118">
        <ele>782.2</ele>
        <time>2020-12-05T15:24:03.068Z</time>
      </trkpt>
      <trkpt lat="42.87762" lon="0.0118">
        <ele>782.2</ele>
        <time>2020-12-05T15:24:04.069Z</time>
      </trkpt>
      <trkpt lat="42.87768" lon="0.01197">
        <ele>783.6</ele>
        <time>2020-12-05T15:24:05.067Z</time>
      </trkpt>
      <trkpt lat="42.87768" lon="0.01197">
        <ele>783.6</ele>
        <time>2020-12-05T15:24:06.067Z</time>
      </trkpt>
      <trkpt lat="42.87768" lon="0.01197">
        <ele>783.6</ele>
        <time>2020-12-05T15:24:07.07Z</time>
      </trkpt>
      <trkpt lat="42.87771" lon="0.01206">
        <ele>784.2</ele>
        <time>2020-12-05T15:24:08.07Z</time>
      </trkpt>
      <trkpt lat="42.87771" lon="0.01206">
        <ele>784.2</ele>
        <time>2020-12-05T15:24:09.069Z</time>
      </trkpt>
      <trkpt lat="42.87773" lon="0.01211">
        <ele>784.6</ele>
        <time>2020-12-05T15:24:10.068Z</time>
      </trkpt>
      <trkpt lat="42.87773" lon="0.01211">
        <ele>784.6</ele>
        <time>2020-12-05T15:24:11.067Z</time>
      </trkpt>
      <trkpt lat="42.87773" lon="0.01211">
        <ele>784.6</ele>
        <time>2020-12-05T15:24:12.069Z</time>
      </trkpt>
      <trkpt lat="42.87773" lon="0.01211">
        <ele>784.6</ele>
        <time>2020-12-05T15:24:13.068Z</time>
      </trkpt>
      <trkpt lat="42.87773" lon="0.01211">
        <ele>784.6</ele>
        <time>2020-12-05T15:24:14.068Z</time>
      </trkpt>
      <trkpt lat="42.87773" lon="0.01211">
        <ele>784.6</ele>
        <time>2020-12-05T15:24:15.07Z</time>
      </trkpt>
      <trkpt lat="42.87773" lon="0.01211">
        <ele>784.6</ele>
        <time>2020-12-05T15:24:16.07Z</time>
      </trkpt>
      <trkpt lat="42.87781" lon="0.01232">
        <ele>785.8</ele>
        <time>2020-12-05T15:24:17.068Z</time>
      </trkpt>
      <trkpt lat="42.87781" lon="0.01232">
        <ele>785.8</ele>
        <time>2020-12-05T15:24:18.067Z</time>
      </trkpt>
      <trkpt lat="42.87781" lon="0.01232">
        <ele>785.8</ele>
        <time>2020-12-05T15:24:19.069Z</time>
      </trkpt>
      <trkpt lat="42.87784" lon="0.0124">
        <ele>786.4</ele>
        <time>2020-12-05T15:24:20.07Z</time>
      </trkpt>
      <trkpt lat="42.87784" lon="0.0124">
        <ele>786.4</ele>
        <time>2020-12-05T15:24:21.069Z</time>
      </trkpt>
      <trkpt lat="42.87784" lon="0.0124">
        <ele>786.4</ele>
        <time>2020-12-05T15:24:22.067Z</time>
      </trkpt>
      <trkpt lat="42.87786" lon="0.01249">
        <ele>787</ele>
        <time>2020-12-05T15:24:23.067Z</time>
      </trkpt>
      <trkpt lat="42.87786" lon="0.01249">
        <ele>787</ele>
        <time>2020-12-05T15:24:24.07Z</time>
      </trkpt>
      <trkpt lat="42.87786" lon="0.01249">
        <ele>787</ele>
        <time>2020-12-05T15:24:25.07Z</time>
      </trkpt>
      <trkpt lat="42.87786" lon="0.01249">
        <ele>787</ele>
        <time>2020-12-05T15:24:26.067Z</time>
      </trkpt>
      <trkpt lat="42.87786" lon="0.01249">
        <ele>787</ele>
        <time>2020-12-05T15:24:27.068Z</time>
      </trkpt>
      <trkpt lat="42.87786" lon="0.01249">
        <ele>787</ele>
        <time>2020-12-05T15:24:28.068Z</time>
      </trkpt>
      <trkpt lat="42.87786" lon="0.01249">
        <ele>787</ele>
        <time>2020-12-05T15:24:29.068Z</time>
      </trkpt>
      <trkpt lat="42.87793" lon="0.01267">
        <ele>788</ele>
        <time>2020-12-05T15:24:30.068Z</time>
      </trkpt>
      <trkpt lat="42.87795" lon="0.01271">
        <ele>788</ele>
        <time>2020-12-05T15:24:31.068Z</time>
      </trkpt>
      <trkpt lat="42.87795" lon="0.01271">
        <ele>788</ele>
        <time>2020-12-05T15:24:32.067Z</time>
      </trkpt>
      <trkpt lat="42.87795" lon="0.01271">
        <ele>788</ele>
        <time>2020-12-05T15:24:33.068Z</time>
      </trkpt>
      <trkpt lat="42.87795" lon="0.01271">
        <ele>788</ele>
        <time>2020-12-05T15:24:34.067Z</time>
      </trkpt>
      <trkpt lat="42.87795" lon="0.01271">
        <ele>788</ele>
        <time>2020-12-05T15:24:35.067Z</time>
      </trkpt>
      <trkpt lat="42.87795" lon="0.01271">
        <ele>788</ele>
        <time>2020-12-05T15:24:36.068Z</time>
      </trkpt>
      <trkpt lat="42.87801" lon="0.01287">
        <ele>789</ele>
        <time>2020-12-05T15:24:37.068Z</time>
      </trkpt>
      <trkpt lat="42.87801" lon="0.01287">
        <ele>789</ele>
        <time>2020-12-05T15:24:38.067Z</time>
      </trkpt>
      <trkpt lat="42.87801" lon="0.01287">
        <ele>789</ele>
        <time>2020-12-05T15:24:39.068Z</time>
      </trkpt>
      <trkpt lat="42.87801" lon="0.01287">
        <ele>789</ele>
        <time>2020-12-05T15:24:40.068Z</time>
      </trkpt>
      <trkpt lat="42.87801" lon="0.01287">
        <ele>789</ele>
        <time>2020-12-05T15:24:41.069Z</time>
      </trkpt>
      <trkpt lat="42.87804" lon="0.01301">
        <ele>790</ele>
        <time>2020-12-05T15:24:42.068Z</time>
      </trkpt>
      <trkpt lat="42.87804" lon="0.01301">
        <ele>790</ele>
        <time>2020-12-05T15:24:43.068Z</time>
      </trkpt>
      <trkpt lat="42.87805" lon="0.01306">
        <ele>790.4</ele>
        <time>2020-12-05T15:24:44.067Z</time>
      </trkpt>
      <trkpt lat="42.87805" lon="0.01306">
        <ele>790.4</ele>
        <time>2020-12-05T15:24:45.068Z</time>
      </trkpt>
      <trkpt lat="42.87805" lon="0.01306">
        <ele>790.4</ele>
        <time>2020-12-05T15:24:46.068Z</time>
      </trkpt>
      <trkpt lat="42.87805" lon="0.01306">
        <ele>790.4</ele>
        <time>2020-12-05T15:24:47.068Z</time>
      </trkpt>
      <trkpt lat="42.87805" lon="0.01306">
        <ele>790.4</ele>
        <time>2020-12-05T15:24:48.068Z</time>
      </trkpt>
      <trkpt lat="42.87808" lon="0.01324">
        <ele>791.4</ele>
        <time>2020-12-05T15:24:49.068Z</time>
      </trkpt>
      <trkpt lat="42.87808" lon="0.01324">
        <ele>791.4</ele>
        <time>2020-12-05T15:24:50.068Z</time>
      </trkpt>
      <trkpt lat="42.87808" lon="0.01324">
        <ele>791.4</ele>
        <time>2020-12-05T15:24:51.068Z</time>
      </trkpt>
      <trkpt lat="42.87808" lon="0.01324">
        <ele>791.4</ele>
        <time>2020-12-05T15:24:52.068Z</time>
      </trkpt>
      <trkpt lat="42.87808" lon="0.01324">
        <ele>791.4</ele>
        <time>2020-12-05T15:24:53.067Z</time>
      </trkpt>
      <trkpt lat="42.87808" lon="0.01324">
        <ele>791.4</ele>
        <time>2020-12-05T15:24:54.068Z</time>
      </trkpt>
      <trkpt lat="42.8781" lon="0.01343">
        <ele>792.4</ele>
        <time>2020-12-05T15:24:55.069Z</time>
      </trkpt>
      <trkpt lat="42.8781" lon="0.01343">
        <ele>792.4</ele>
        <time>2020-12-05T15:24:56.068Z</time>
      </trkpt>
      <trkpt lat="42.8781" lon="0.01343">
        <ele>792.4</ele>
        <time>2020-12-05T15:24:57.068Z</time>
      </trkpt>
      <trkpt lat="42.8781" lon="0.01352">
        <ele>793</ele>
        <time>2020-12-05T15:24:58.069Z</time>
      </trkpt>
      <trkpt lat="42.8781" lon="0.01352">
        <ele>793</ele>
        <time>2020-12-05T15:24:59.068Z</time>
      </trkpt>
      <trkpt lat="42.8781" lon="0.01352">
        <ele>793</ele>
        <time>2020-12-05T15:25:00.067Z</time>
      </trkpt>
      <trkpt lat="42.87811" lon="0.01361">
        <ele>793.4</ele>
        <time>2020-12-05T15:25:01.068Z</time>
      </trkpt>
      <trkpt lat="42.87811" lon="0.01361">
        <ele>793.4</ele>
        <time>2020-12-05T15:25:02.068Z</time>
      </trkpt>
      <trkpt lat="42.87811" lon="0.01361">
        <ele>793.4</ele>
        <time>2020-12-05T15:25:03.068Z</time>
      </trkpt>
      <trkpt lat="42.87811" lon="0.01361">
        <ele>793.4</ele>
        <time>2020-12-05T15:25:04.067Z</time>
      </trkpt>
      <trkpt lat="42.87811" lon="0.01361">
        <ele>793.4</ele>
        <time>2020-12-05T15:25:05.069Z</time>
      </trkpt>
      <trkpt lat="42.87811" lon="0.01361">
        <ele>793.4</ele>
        <time>2020-12-05T15:25:06.069Z</time>
      </trkpt>
      <trkpt lat="42.87811" lon="0.0138">
        <ele>794.2</ele>
        <time>2020-12-05T15:25:07.068Z</time>
      </trkpt>
      <trkpt lat="42.87811" lon="0.0138">
        <ele>794.2</ele>
        <time>2020-12-05T15:25:08.068Z</time>
      </trkpt>
      <trkpt lat="42.87811" lon="0.01385">
        <ele>794.6</ele>
        <time>2020-12-05T15:25:09.067Z</time>
      </trkpt>
      <trkpt lat="42.87811" lon="0.01385">
        <ele>794.6</ele>
        <time>2020-12-05T15:25:10.067Z</time>
      </trkpt>
      <trkpt lat="42.87811" lon="0.01385">
        <ele>794.6</ele>
        <time>2020-12-05T15:25:11.068Z</time>
      </trkpt>
      <trkpt lat="42.87811" lon="0.01385">
        <ele>794.6</ele>
        <time>2020-12-05T15:25:12.068Z</time>
      </trkpt>
      <trkpt lat="42.87811" lon="0.01385">
        <ele>794.6</ele>
        <time>2020-12-05T15:25:13.068Z</time>
      </trkpt>
      <trkpt lat="42.87811" lon="0.014">
        <ele>795.8</ele>
        <time>2020-12-05T15:25:14.068Z</time>
      </trkpt>
      <trkpt lat="42.87811" lon="0.014">
        <ele>795.8</ele>
        <time>2020-12-05T15:25:15.067Z</time>
      </trkpt>
      <trkpt lat="42.87811" lon="0.014">
        <ele>795.8</ele>
        <time>2020-12-05T15:25:16.068Z</time>
      </trkpt>
      <trkpt lat="42.87811" lon="0.014">
        <ele>795.8</ele>
        <time>2020-12-05T15:25:17.068Z</time>
      </trkpt>
      <trkpt lat="42.87811" lon="0.01414">
        <ele>796.4</ele>
        <time>2020-12-05T15:25:18.068Z</time>
      </trkpt>
      <trkpt lat="42.87811" lon="0.01414">
        <ele>796.4</ele>
        <time>2020-12-05T15:25:19.068Z</time>
      </trkpt>
      <trkpt lat="42.87811" lon="0.01414">
        <ele>796.4</ele>
        <time>2020-12-05T15:25:20.068Z</time>
      </trkpt>
      <trkpt lat="42.87811" lon="0.01424">
        <ele>797</ele>
        <time>2020-12-05T15:25:21.067Z</time>
      </trkpt>
      <trkpt lat="42.87811" lon="0.01424">
        <ele>797</ele>
        <time>2020-12-05T15:25:22.068Z</time>
      </trkpt>
      <trkpt lat="42.87811" lon="0.01424">
        <ele>797</ele>
        <time>2020-12-05T15:25:23.068Z</time>
      </trkpt>
      <trkpt lat="42.87811" lon="0.01424">
        <ele>797</ele>
        <time>2020-12-05T15:25:24.067Z</time>
      </trkpt>
      <trkpt lat="42.87811" lon="0.01424">
        <ele>797</ele>
        <time>2020-12-05T15:25:25.069Z</time>
      </trkpt>
      <trkpt lat="42.87811" lon="0.01424">
        <ele>797</ele>
        <time>2020-12-05T15:25:26.067Z</time>
      </trkpt>
      <trkpt lat="42.87811" lon="0.01424">
        <ele>797</ele>
        <time>2020-12-05T15:25:27.069Z</time>
      </trkpt>
      <trkpt lat="42.87811" lon="0.01444">
        <ele>798.2</ele>
        <time>2020-12-05T15:25:28.068Z</time>
      </trkpt>
      <trkpt lat="42.87811" lon="0.01449">
        <ele>798.6</ele>
        <time>2020-12-05T15:25:29.068Z</time>
      </trkpt>
      <trkpt lat="42.87811" lon="0.01449">
        <ele>798.6</ele>
        <time>2020-12-05T15:25:30.067Z</time>
      </trkpt>
      <trkpt lat="42.87811" lon="0.01449">
        <ele>798.6</ele>
        <time>2020-12-05T15:25:31.068Z</time>
      </trkpt>
      <trkpt lat="42.87811" lon="0.01449">
        <ele>798.6</ele>
        <time>2020-12-05T15:25:32.067Z</time>
      </trkpt>
      <trkpt lat="42.8781" lon="0.01458">
        <ele>799.2</ele>
        <time>2020-12-05T15:25:33.068Z</time>
      </trkpt>
      <trkpt lat="42.8781" lon="0.01458">
        <ele>799.2</ele>
        <time>2020-12-05T15:25:34.067Z</time>
      </trkpt>
      <trkpt lat="42.8781" lon="0.01458">
        <ele>799.2</ele>
        <time>2020-12-05T15:25:35.069Z</time>
      </trkpt>
      <trkpt lat="42.8781" lon="0.01458">
        <ele>799.2</ele>
        <time>2020-12-05T15:25:36.069Z</time>
      </trkpt>
      <trkpt lat="42.8781" lon="0.01458">
        <ele>799.2</ele>
        <time>2020-12-05T15:25:37.068Z</time>
      </trkpt>
      <trkpt lat="42.8781" lon="0.01458">
        <ele>799.2</ele>
        <time>2020-12-05T15:25:38.068Z</time>
      </trkpt>
      <trkpt lat="42.87811" lon="0.01478">
        <ele>800.2</ele>
        <time>2020-12-05T15:25:39.068Z</time>
      </trkpt>
      <trkpt lat="42.87811" lon="0.01478">
        <ele>800.2</ele>
        <time>2020-12-05T15:25:40.069Z</time>
      </trkpt>
      <trkpt lat="42.87811" lon="0.01478">
        <ele>800.2</ele>
        <time>2020-12-05T15:25:41.069Z</time>
      </trkpt>
      <trkpt lat="42.87811" lon="0.01478">
        <ele>800.2</ele>
        <time>2020-12-05T15:25:42.069Z</time>
      </trkpt>
      <trkpt lat="42.87811" lon="0.01478">
        <ele>800.2</ele>
        <time>2020-12-05T15:25:43.067Z</time>
      </trkpt>
      <trkpt lat="42.87811" lon="0.01478">
        <ele>800.2</ele>
        <time>2020-12-05T15:25:44.069Z</time>
      </trkpt>
      <trkpt lat="42.87812" lon="0.01497">
        <ele>801.4</ele>
        <time>2020-12-05T15:25:45.07Z</time>
      </trkpt>
      <trkpt lat="42.87812" lon="0.01497">
        <ele>801.4</ele>
        <time>2020-12-05T15:25:46.07Z</time>
      </trkpt>
      <trkpt lat="42.87812" lon="0.01497">
        <ele>801.4</ele>
        <time>2020-12-05T15:25:47.068Z</time>
      </trkpt>
      <trkpt lat="42.87812" lon="0.01507">
        <ele>801.8</ele>
        <time>2020-12-05T15:25:48.067Z</time>
      </trkpt>
      <trkpt lat="42.87812" lon="0.01507">
        <ele>801.8</ele>
        <time>2020-12-05T15:25:49.068Z</time>
      </trkpt>
      <trkpt lat="42.87812" lon="0.01507">
        <ele>801.8</ele>
        <time>2020-12-05T15:25:50.068Z</time>
      </trkpt>
      <trkpt lat="42.87812" lon="0.01507">
        <ele>801.8</ele>
        <time>2020-12-05T15:25:51.068Z</time>
      </trkpt>
      <trkpt lat="42.87812" lon="0.01517">
        <ele>802.4</ele>
        <time>2020-12-05T15:25:52.067Z</time>
      </trkpt>
      <trkpt lat="42.87812" lon="0.01517">
        <ele>802.4</ele>
        <time>2020-12-05T15:25:53.069Z</time>
      </trkpt>
      <trkpt lat="42.87812" lon="0.01517">
        <ele>802.4</ele>
        <time>2020-12-05T15:25:54.068Z</time>
      </trkpt>
      <trkpt lat="42.87812" lon="0.01517">
        <ele>802.4</ele>
        <time>2020-12-05T15:25:55.069Z</time>
      </trkpt>
      <trkpt lat="42.87812" lon="0.01517">
        <ele>802.4</ele>
        <time>2020-12-05T15:25:56.067Z</time>
      </trkpt>
      <trkpt lat="42.87813" lon="0.01532">
        <ele>803.6</ele>
        <time>2020-12-05T15:25:57.069Z</time>
      </trkpt>
      <trkpt lat="42.87813" lon="0.01532">
        <ele>803.6</ele>
        <time>2020-12-05T15:25:58.067Z</time>
      </trkpt>
      <trkpt lat="42.87813" lon="0.01537">
        <ele>803.8</ele>
        <time>2020-12-05T15:25:59.068Z</time>
      </trkpt>
      <trkpt lat="42.87813" lon="0.01537">
        <ele>803.8</ele>
        <time>2020-12-05T15:26:00.068Z</time>
      </trkpt>
      <trkpt lat="42.87813" lon="0.01537">
        <ele>803.8</ele>
        <time>2020-12-05T15:26:01.069Z</time>
      </trkpt>
      <trkpt lat="42.87813" lon="0.01537">
        <ele>803.8</ele>
        <time>2020-12-05T15:26:02.069Z</time>
      </trkpt>
      <trkpt lat="42.87813" lon="0.01537">
        <ele>803.8</ele>
        <time>2020-12-05T15:26:03.071Z</time>
      </trkpt>
      <trkpt lat="42.87813" lon="0.01537">
        <ele>803.8</ele>
        <time>2020-12-05T15:26:04.068Z</time>
      </trkpt>
      <trkpt lat="42.87813" lon="0.01537">
        <ele>803.8</ele>
        <time>2020-12-05T15:26:05.069Z</time>
      </trkpt>
      <trkpt lat="42.87813" lon="0.01537">
        <ele>803.8</ele>
        <time>2020-12-05T15:26:06.068Z</time>
      </trkpt>
      <trkpt lat="42.87813" lon="0.01537">
        <ele>803.8</ele>
        <time>2020-12-05T15:26:07.068Z</time>
      </trkpt>
      <trkpt lat="42.87815" lon="0.01562">
        <ele>804.4</ele>
        <time>2020-12-05T15:26:08.068Z</time>
      </trkpt>
      <trkpt lat="42.87815" lon="0.01562">
        <ele>804.4</ele>
        <time>2020-12-05T15:26:09.069Z</time>
      </trkpt>
      <trkpt lat="42.87815" lon="0.01562">
        <ele>804.4</ele>
        <time>2020-12-05T15:26:10.068Z</time>
      </trkpt>
      <trkpt lat="42.87815" lon="0.01562">
        <ele>804.4</ele>
        <time>2020-12-05T15:26:11.069Z</time>
      </trkpt>
      <trkpt lat="42.87815" lon="0.01562">
        <ele>804.4</ele>
        <time>2020-12-05T15:26:12.069Z</time>
      </trkpt>
      <trkpt lat="42.87817" lon="0.01576">
        <ele>805.2</ele>
        <time>2020-12-05T15:26:13.067Z</time>
      </trkpt>
      <trkpt lat="42.87817" lon="0.01576">
        <ele>805.2</ele>
        <time>2020-12-05T15:26:14.067Z</time>
      </trkpt>
      <trkpt lat="42.87817" lon="0.0158">
        <ele>805.4</ele>
        <time>2020-12-05T15:26:15.07Z</time>
      </trkpt>
      <trkpt lat="42.87817" lon="0.0158">
        <ele>805.4</ele>
        <time>2020-12-05T15:26:16.068Z</time>
      </trkpt>
      <trkpt lat="42.87817" lon="0.0158">
        <ele>805.4</ele>
        <time>2020-12-05T15:26:17.068Z</time>
      </trkpt>
      <trkpt lat="42.87817" lon="0.0158">
        <ele>805.4</ele>
        <time>2020-12-05T15:26:18.069Z</time>
      </trkpt>
      <trkpt lat="42.87817" lon="0.0158">
        <ele>805.4</ele>
        <time>2020-12-05T15:26:19.067Z</time>
      </trkpt>
      <trkpt lat="42.87817" lon="0.0158">
        <ele>805.4</ele>
        <time>2020-12-05T15:26:20.068Z</time>
      </trkpt>
      <trkpt lat="42.87817" lon="0.0158">
        <ele>805.4</ele>
        <time>2020-12-05T15:26:21.068Z</time>
      </trkpt>
      <trkpt lat="42.87817" lon="0.0158">
        <ele>805.4</ele>
        <time>2020-12-05T15:26:22.067Z</time>
      </trkpt>
      <trkpt lat="42.87819" lon="0.01603">
        <ele>806.6</ele>
        <time>2020-12-05T15:26:23.07Z</time>
      </trkpt>
      <trkpt lat="42.87819" lon="0.01603">
        <ele>806.6</ele>
        <time>2020-12-05T15:26:24.067Z</time>
      </trkpt>
      <trkpt lat="42.87819" lon="0.01603">
        <ele>806.6</ele>
        <time>2020-12-05T15:26:25.068Z</time>
      </trkpt>
      <trkpt lat="42.87819" lon="0.01603">
        <ele>806.6</ele>
        <time>2020-12-05T15:26:26.067Z</time>
      </trkpt>
      <trkpt lat="42.87819" lon="0.01603">
        <ele>806.6</ele>
        <time>2020-12-05T15:26:27.067Z</time>
      </trkpt>
      <trkpt lat="42.87819" lon="0.01603">
        <ele>806.6</ele>
        <time>2020-12-05T15:26:28.069Z</time>
      </trkpt>
      <trkpt lat="42.87819" lon="0.01603">
        <ele>806.6</ele>
        <time>2020-12-05T15:26:29.067Z</time>
      </trkpt>
      <trkpt lat="42.8782" lon="0.01621">
        <ele>808</ele>
        <time>2020-12-05T15:26:30.068Z</time>
      </trkpt>
      <trkpt lat="42.8782" lon="0.01621">
        <ele>808</ele>
        <time>2020-12-05T15:26:31.069Z</time>
      </trkpt>
      <trkpt lat="42.8782" lon="0.01621">
        <ele>808</ele>
        <time>2020-12-05T15:26:32.069Z</time>
      </trkpt>
      <trkpt lat="42.8782" lon="0.01621">
        <ele>808</ele>
        <time>2020-12-05T15:26:33.07Z</time>
      </trkpt>
      <trkpt lat="42.8782" lon="0.01621">
        <ele>808</ele>
        <time>2020-12-05T15:26:34.068Z</time>
      </trkpt>
      <trkpt lat="42.87821" lon="0.01636">
        <ele>809.2</ele>
        <time>2020-12-05T15:26:35.069Z</time>
      </trkpt>
      <trkpt lat="42.87821" lon="0.01636">
        <ele>809.2</ele>
        <time>2020-12-05T15:26:36.069Z</time>
      </trkpt>
      <trkpt lat="42.87821" lon="0.01636">
        <ele>809.2</ele>
        <time>2020-12-05T15:26:37.07Z</time>
      </trkpt>
      <trkpt lat="42.87821" lon="0.01636">
        <ele>809.2</ele>
        <time>2020-12-05T15:26:38.067Z</time>
      </trkpt>
      <trkpt lat="42.87821" lon="0.01636">
        <ele>809.2</ele>
        <time>2020-12-05T15:26:39.068Z</time>
      </trkpt>
      <trkpt lat="42.87821" lon="0.01636">
        <ele>809.2</ele>
        <time>2020-12-05T15:26:40.069Z</time>
      </trkpt>
      <trkpt lat="42.87821" lon="0.01636">
        <ele>809.2</ele>
        <time>2020-12-05T15:26:41.068Z</time>
      </trkpt>
      <trkpt lat="42.87821" lon="0.01636">
        <ele>809.2</ele>
        <time>2020-12-05T15:26:42.068Z</time>
      </trkpt>
      <trkpt lat="42.87821" lon="0.01636">
        <ele>809.2</ele>
        <time>2020-12-05T15:26:43.068Z</time>
      </trkpt>
      <trkpt lat="42.87821" lon="0.01636">
        <ele>809.2</ele>
        <time>2020-12-05T15:26:44.069Z</time>
      </trkpt>
      <trkpt lat="42.87821" lon="0.01636">
        <ele>809.2</ele>
        <time>2020-12-05T15:26:45.067Z</time>
      </trkpt>
      <trkpt lat="42.87821" lon="0.01636">
        <ele>809.2</ele>
        <time>2020-12-05T15:26:46.068Z</time>
      </trkpt>
      <trkpt lat="42.87824" lon="0.01667">
        <ele>810.2</ele>
        <time>2020-12-05T15:26:47.067Z</time>
      </trkpt>
      <trkpt lat="42.87824" lon="0.01667">
        <ele>810.2</ele>
        <time>2020-12-05T15:26:48.069Z</time>
      </trkpt>
      <trkpt lat="42.87824" lon="0.01667">
        <ele>810.2</ele>
        <time>2020-12-05T15:26:49.067Z</time>
      </trkpt>
      <trkpt lat="42.87825" lon="0.01677">
        <ele>810.8</ele>
        <time>2020-12-05T15:26:50.07Z</time>
      </trkpt>
      <trkpt lat="42.87825" lon="0.01677">
        <ele>810.8</ele>
        <time>2020-12-05T15:26:51.067Z</time>
      </trkpt>
      <trkpt lat="42.87825" lon="0.01677">
        <ele>810.8</ele>
        <time>2020-12-05T15:26:52.067Z</time>
      </trkpt>
      <trkpt lat="42.87825" lon="0.01677">
        <ele>810.8</ele>
        <time>2020-12-05T15:26:53.068Z</time>
      </trkpt>
      <trkpt lat="42.87826" lon="0.01686">
        <ele>811.6</ele>
        <time>2020-12-05T15:26:54.068Z</time>
      </trkpt>
      <trkpt lat="42.87826" lon="0.01686">
        <ele>811.6</ele>
        <time>2020-12-05T15:26:55.067Z</time>
      </trkpt>
      <trkpt lat="42.87826" lon="0.01686">
        <ele>811.6</ele>
        <time>2020-12-05T15:26:56.068Z</time>
      </trkpt>
      <trkpt lat="42.87826" lon="0.01686">
        <ele>811.6</ele>
        <time>2020-12-05T15:26:57.067Z</time>
      </trkpt>
      <trkpt lat="42.87826" lon="0.01686">
        <ele>811.6</ele>
        <time>2020-12-05T15:26:58.069Z</time>
      </trkpt>
      <trkpt lat="42.87826" lon="0.01686">
        <ele>811.6</ele>
        <time>2020-12-05T15:26:59.067Z</time>
      </trkpt>
      <trkpt lat="42.87828" lon="0.01705">
        <ele>813</ele>
        <time>2020-12-05T15:27:00.068Z</time>
      </trkpt>
      <trkpt lat="42.87828" lon="0.01705">
        <ele>813</ele>
        <time>2020-12-05T15:27:01.068Z</time>
      </trkpt>
      <trkpt lat="42.87828" lon="0.01705">
        <ele>813</ele>
        <time>2020-12-05T15:27:02.067Z</time>
      </trkpt>
      <trkpt lat="42.87828" lon="0.01705">
        <ele>813</ele>
        <time>2020-12-05T15:27:03.069Z</time>
      </trkpt>
      <trkpt lat="42.87829" lon="0.01714">
        <ele>813.6</ele>
        <time>2020-12-05T15:27:04.067Z</time>
      </trkpt>
      <trkpt lat="42.87829" lon="0.01714">
        <ele>813.6</ele>
        <time>2020-12-05T15:27:05.067Z</time>
      </trkpt>
      <trkpt lat="42.87829" lon="0.01714">
        <ele>813.6</ele>
        <time>2020-12-05T15:27:06.067Z</time>
      </trkpt>
      <trkpt lat="42.8783" lon="0.01724">
        <ele>814.2</ele>
        <time>2020-12-05T15:27:07.068Z</time>
      </trkpt>
      <trkpt lat="42.8783" lon="0.01724">
        <ele>814.2</ele>
        <time>2020-12-05T15:27:08.067Z</time>
      </trkpt>
      <trkpt lat="42.8783" lon="0.01724">
        <ele>814.2</ele>
        <time>2020-12-05T15:27:09.067Z</time>
      </trkpt>
      <trkpt lat="42.8783" lon="0.01724">
        <ele>814.2</ele>
        <time>2020-12-05T15:27:10.068Z</time>
      </trkpt>
      <trkpt lat="42.8783" lon="0.01724">
        <ele>814.2</ele>
        <time>2020-12-05T15:27:11.067Z</time>
      </trkpt>
      <trkpt lat="42.8783" lon="0.01724">
        <ele>814.2</ele>
        <time>2020-12-05T15:27:12.067Z</time>
      </trkpt>
      <trkpt lat="42.8783" lon="0.01724">
        <ele>814.2</ele>
        <time>2020-12-05T15:27:13.068Z</time>
      </trkpt>
      <trkpt lat="42.8783" lon="0.01724">
        <ele>814.2</ele>
        <time>2020-12-05T15:27:14.068Z</time>
      </trkpt>
      <trkpt lat="42.87832" lon="0.01746">
        <ele>815.2</ele>
        <time>2020-12-05T15:27:15.068Z</time>
      </trkpt>
      <trkpt lat="42.87832" lon="0.01746">
        <ele>815.2</ele>
        <time>2020-12-05T15:27:16.069Z</time>
      </trkpt>
      <trkpt lat="42.87832" lon="0.01746">
        <ele>815.2</ele>
        <time>2020-12-05T15:27:17.067Z</time>
      </trkpt>
      <trkpt lat="42.87832" lon="0.01746">
        <ele>815.2</ele>
        <time>2020-12-05T15:27:18.068Z</time>
      </trkpt>
      <trkpt lat="42.87832" lon="0.01746">
        <ele>815.2</ele>
        <time>2020-12-05T15:27:19.068Z</time>
      </trkpt>
      <trkpt lat="42.87832" lon="0.01746">
        <ele>815.2</ele>
        <time>2020-12-05T15:27:20.068Z</time>
      </trkpt>
      <trkpt lat="42.87833" lon="0.01765">
        <ele>816.4</ele>
        <time>2020-12-05T15:27:21.068Z</time>
      </trkpt>
      <trkpt lat="42.87833" lon="0.01765">
        <ele>816.4</ele>
        <time>2020-12-05T15:27:22.069Z</time>
      </trkpt>
      <trkpt lat="42.87833" lon="0.01765">
        <ele>816.4</ele>
        <time>2020-12-05T15:27:23.07Z</time>
      </trkpt>
      <trkpt lat="42.87833" lon="0.01765">
        <ele>816.4</ele>
        <time>2020-12-05T15:27:24.07Z</time>
      </trkpt>
      <trkpt lat="42.87833" lon="0.01765">
        <ele>816.4</ele>
        <time>2020-12-05T15:27:25.069Z</time>
      </trkpt>
      <trkpt lat="42.87833" lon="0.01765">
        <ele>816.4</ele>
        <time>2020-12-05T15:27:26.068Z</time>
      </trkpt>
      <trkpt lat="42.87834" lon="0.01779">
        <ele>817.2</ele>
        <time>2020-12-05T15:27:27.067Z</time>
      </trkpt>
      <trkpt lat="42.87834" lon="0.01784">
        <ele>817.6</ele>
        <time>2020-12-05T15:27:28.068Z</time>
      </trkpt>
      <trkpt lat="42.87834" lon="0.01784">
        <ele>817.6</ele>
        <time>2020-12-05T15:27:29.067Z</time>
      </trkpt>
      <trkpt lat="42.87834" lon="0.01784">
        <ele>817.6</ele>
        <time>2020-12-05T15:27:30.068Z</time>
      </trkpt>
      <trkpt lat="42.87834" lon="0.01784">
        <ele>817.6</ele>
        <time>2020-12-05T15:27:31.069Z</time>
      </trkpt>
      <trkpt lat="42.87834" lon="0.01784">
        <ele>817.6</ele>
        <time>2020-12-05T15:27:32.067Z</time>
      </trkpt>
      <trkpt lat="42.87834" lon="0.01784">
        <ele>817.6</ele>
        <time>2020-12-05T15:27:33.068Z</time>
      </trkpt>
      <trkpt lat="42.87834" lon="0.01784">
        <ele>817.6</ele>
        <time>2020-12-05T15:27:34.067Z</time>
      </trkpt>
      <trkpt lat="42.87834" lon="0.01784">
        <ele>817.6</ele>
        <time>2020-12-05T15:27:35.069Z</time>
      </trkpt>
      <trkpt lat="42.87835" lon="0.01804">
        <ele>818.8</ele>
        <time>2020-12-05T15:27:36.068Z</time>
      </trkpt>
      <trkpt lat="42.87835" lon="0.01804">
        <ele>818.8</ele>
        <time>2020-12-05T15:27:37.07Z</time>
      </trkpt>
      <trkpt lat="42.87835" lon="0.01804">
        <ele>818.8</ele>
        <time>2020-12-05T15:27:38.068Z</time>
      </trkpt>
      <trkpt lat="42.87835" lon="0.01813">
        <ele>819.4</ele>
        <time>2020-12-05T15:27:39.068Z</time>
      </trkpt>
      <trkpt lat="42.87835" lon="0.01813">
        <ele>819.4</ele>
        <time>2020-12-05T15:27:40.07Z</time>
      </trkpt>
      <trkpt lat="42.87835" lon="0.01813">
        <ele>819.4</ele>
        <time>2020-12-05T15:27:41.069Z</time>
      </trkpt>
      <trkpt lat="42.87836" lon="0.01822">
        <ele>820</ele>
        <time>2020-12-05T15:27:42.067Z</time>
      </trkpt>
      <trkpt lat="42.87836" lon="0.01822">
        <ele>820</ele>
        <time>2020-12-05T15:27:43.068Z</time>
      </trkpt>
      <trkpt lat="42.87836" lon="0.01822">
        <ele>820</ele>
        <time>2020-12-05T15:27:44.068Z</time>
      </trkpt>
      <trkpt lat="42.87836" lon="0.01822">
        <ele>820</ele>
        <time>2020-12-05T15:27:45.068Z</time>
      </trkpt>
      <trkpt lat="42.87836" lon="0.01822">
        <ele>820</ele>
        <time>2020-12-05T15:27:46.069Z</time>
      </trkpt>
      <trkpt lat="42.87836" lon="0.01822">
        <ele>820</ele>
        <time>2020-12-05T15:27:47.068Z</time>
      </trkpt>
      <trkpt lat="42.87836" lon="0.01822">
        <ele>820</ele>
        <time>2020-12-05T15:27:48.069Z</time>
      </trkpt>
      <trkpt lat="42.87837" lon="0.01841">
        <ele>821.2</ele>
        <time>2020-12-05T15:27:49.067Z</time>
      </trkpt>
      <trkpt lat="42.87837" lon="0.01846">
        <ele>821.6</ele>
        <time>2020-12-05T15:27:50.068Z</time>
      </trkpt>
      <trkpt lat="42.87837" lon="0.01846">
        <ele>821.6</ele>
        <time>2020-12-05T15:27:51.068Z</time>
      </trkpt>
      <trkpt lat="42.87837" lon="0.01846">
        <ele>821.6</ele>
        <time>2020-12-05T15:27:52.069Z</time>
      </trkpt>
      <trkpt lat="42.87837" lon="0.01846">
        <ele>821.6</ele>
        <time>2020-12-05T15:27:53.068Z</time>
      </trkpt>
      <trkpt lat="42.87837" lon="0.01846">
        <ele>821.6</ele>
        <time>2020-12-05T15:27:54.067Z</time>
      </trkpt>
      <trkpt lat="42.87837" lon="0.01846">
        <ele>821.6</ele>
        <time>2020-12-05T15:27:55.068Z</time>
      </trkpt>
      <trkpt lat="42.87837" lon="0.0186">
        <ele>822.6</ele>
        <time>2020-12-05T15:27:56.068Z</time>
      </trkpt>
      <trkpt lat="42.87837" lon="0.0186">
        <ele>822.6</ele>
        <time>2020-12-05T15:27:57.07Z</time>
      </trkpt>
      <trkpt lat="42.87837" lon="0.0186">
        <ele>822.6</ele>
        <time>2020-12-05T15:27:58.068Z</time>
      </trkpt>
      <trkpt lat="42.87837" lon="0.0186">
        <ele>822.6</ele>
        <time>2020-12-05T15:27:59.067Z</time>
      </trkpt>
      <trkpt lat="42.87837" lon="0.0186">
        <ele>822.6</ele>
        <time>2020-12-05T15:28:00.067Z</time>
      </trkpt>
      <trkpt lat="42.87838" lon="0.01875">
        <ele>823.2</ele>
        <time>2020-12-05T15:28:01.068Z</time>
      </trkpt>
      <trkpt lat="42.87838" lon="0.01875">
        <ele>823.2</ele>
        <time>2020-12-05T15:28:02.07Z</time>
      </trkpt>
      <trkpt lat="42.87838" lon="0.01875">
        <ele>823.2</ele>
        <time>2020-12-05T15:28:03.068Z</time>
      </trkpt>
      <trkpt lat="42.87838" lon="0.01875">
        <ele>823.2</ele>
        <time>2020-12-05T15:28:04.067Z</time>
      </trkpt>
      <trkpt lat="42.87839" lon="0.01886">
        <ele>823.6</ele>
        <time>2020-12-05T15:28:05.069Z</time>
      </trkpt>
      <trkpt lat="42.87839" lon="0.01886">
        <ele>823.6</ele>
        <time>2020-12-05T15:28:06.068Z</time>
      </trkpt>
      <trkpt lat="42.87839" lon="0.01886">
        <ele>823.6</ele>
        <time>2020-12-05T15:28:07.067Z</time>
      </trkpt>
      <trkpt lat="42.87839" lon="0.01886">
        <ele>823.6</ele>
        <time>2020-12-05T15:28:08.068Z</time>
      </trkpt>
      <trkpt lat="42.87839" lon="0.01886">
        <ele>823.6</ele>
        <time>2020-12-05T15:28:09.069Z</time>
      </trkpt>
      <trkpt lat="42.87839" lon="0.01886">
        <ele>823.6</ele>
        <time>2020-12-05T15:28:10.068Z</time>
      </trkpt>
      <trkpt lat="42.87838" lon="0.01905">
        <ele>824.6</ele>
        <time>2020-12-05T15:28:11.069Z</time>
      </trkpt>
      <trkpt lat="42.87838" lon="0.01905">
        <ele>824.6</ele>
        <time>2020-12-05T15:28:12.068Z</time>
      </trkpt>
      <trkpt lat="42.87838" lon="0.0191">
        <ele>825</ele>
        <time>2020-12-05T15:28:13.068Z</time>
      </trkpt>
      <trkpt lat="42.87838" lon="0.0191">
        <ele>825</ele>
        <time>2020-12-05T15:28:14.069Z</time>
      </trkpt>
      <trkpt lat="42.87838" lon="0.0191">
        <ele>825</ele>
        <time>2020-12-05T15:28:15.068Z</time>
      </trkpt>
      <trkpt lat="42.87839" lon="0.0192">
        <ele>825.8</ele>
        <time>2020-12-05T15:28:16.069Z</time>
      </trkpt>
      <trkpt lat="42.87839" lon="0.0192">
        <ele>825.8</ele>
        <time>2020-12-05T15:28:17.069Z</time>
      </trkpt>
      <trkpt lat="42.87839" lon="0.0192">
        <ele>825.8</ele>
        <time>2020-12-05T15:28:18.069Z</time>
      </trkpt>
      <trkpt lat="42.87839" lon="0.0192">
        <ele>825.8</ele>
        <time>2020-12-05T15:28:19.068Z</time>
      </trkpt>
      <trkpt lat="42.87839" lon="0.0192">
        <ele>825.8</ele>
        <time>2020-12-05T15:28:20.068Z</time>
      </trkpt>
      <trkpt lat="42.87839" lon="0.0192">
        <ele>825.8</ele>
        <time>2020-12-05T15:28:21.069Z</time>
      </trkpt>
      <trkpt lat="42.87841" lon="0.0194">
        <ele>827</ele>
        <time>2020-12-05T15:28:22.069Z</time>
      </trkpt>
      <trkpt lat="42.87841" lon="0.0194">
        <ele>827</ele>
        <time>2020-12-05T15:28:23.069Z</time>
      </trkpt>
      <trkpt lat="42.87841" lon="0.01944">
        <ele>827.4</ele>
        <time>2020-12-05T15:28:24.067Z</time>
      </trkpt>
      <trkpt lat="42.87841" lon="0.01944">
        <ele>827.4</ele>
        <time>2020-12-05T15:28:25.068Z</time>
      </trkpt>
      <trkpt lat="42.87841" lon="0.01944">
        <ele>827.4</ele>
        <time>2020-12-05T15:28:26.069Z</time>
      </trkpt>
      <trkpt lat="42.87841" lon="0.01944">
        <ele>827.4</ele>
        <time>2020-12-05T15:28:27.07Z</time>
      </trkpt>
      <trkpt lat="42.87841" lon="0.01944">
        <ele>827.4</ele>
        <time>2020-12-05T15:28:28.068Z</time>
      </trkpt>
      <trkpt lat="42.87842" lon="0.01959">
        <ele>828.2</ele>
        <time>2020-12-05T15:28:29.068Z</time>
      </trkpt>
      <trkpt lat="42.87842" lon="0.01959">
        <ele>828.2</ele>
        <time>2020-12-05T15:28:30.068Z</time>
      </trkpt>
      <trkpt lat="42.87842" lon="0.01959">
        <ele>828.2</ele>
        <time>2020-12-05T15:28:31.069Z</time>
      </trkpt>
      <trkpt lat="42.87842" lon="0.01959">
        <ele>828.2</ele>
        <time>2020-12-05T15:28:32.068Z</time>
      </trkpt>
      <trkpt lat="42.87842" lon="0.01959">
        <ele>828.2</ele>
        <time>2020-12-05T15:28:33.068Z</time>
      </trkpt>
      <trkpt lat="42.87842" lon="0.01973">
        <ele>829.2</ele>
        <time>2020-12-05T15:28:34.07Z</time>
      </trkpt>
      <trkpt lat="42.87842" lon="0.01978">
        <ele>829.6</ele>
        <time>2020-12-05T15:28:35.067Z</time>
      </trkpt>
      <trkpt lat="42.87842" lon="0.01978">
        <ele>829.6</ele>
        <time>2020-12-05T15:28:36.07Z</time>
      </trkpt>
      <trkpt lat="42.87842" lon="0.01978">
        <ele>829.6</ele>
        <time>2020-12-05T15:28:37.068Z</time>
      </trkpt>
      <trkpt lat="42.87842" lon="0.01978">
        <ele>829.6</ele>
        <time>2020-12-05T15:28:38.068Z</time>
      </trkpt>
      <trkpt lat="42.87842" lon="0.01978">
        <ele>829.6</ele>
        <time>2020-12-05T15:28:39.067Z</time>
      </trkpt>
      <trkpt lat="42.87842" lon="0.01978">
        <ele>829.6</ele>
        <time>2020-12-05T15:28:40.069Z</time>
      </trkpt>
      <trkpt lat="42.87842" lon="0.01978">
        <ele>829.6</ele>
        <time>2020-12-05T15:28:41.068Z</time>
      </trkpt>
      <trkpt lat="42.87842" lon="0.02002">
        <ele>830.4</ele>
        <time>2020-12-05T15:28:42.067Z</time>
      </trkpt>
      <trkpt lat="42.87842" lon="0.02002">
        <ele>830.4</ele>
        <time>2020-12-05T15:28:43.069Z</time>
      </trkpt>
      <trkpt lat="42.87842" lon="0.02002">
        <ele>830.4</ele>
        <time>2020-12-05T15:28:44.069Z</time>
      </trkpt>
      <trkpt lat="42.87842" lon="0.02012">
        <ele>830.8</ele>
        <time>2020-12-05T15:28:45.068Z</time>
      </trkpt>
      <trkpt lat="42.87842" lon="0.02012">
        <ele>830.8</ele>
        <time>2020-12-05T15:28:46.068Z</time>
      </trkpt>
      <trkpt lat="42.87842" lon="0.02012">
        <ele>830.8</ele>
        <time>2020-12-05T15:28:47.068Z</time>
      </trkpt>
      <trkpt lat="42.87842" lon="0.02012">
        <ele>830.8</ele>
        <time>2020-12-05T15:28:48.067Z</time>
      </trkpt>
      <trkpt lat="42.87842" lon="0.02012">
        <ele>830.8</ele>
        <time>2020-12-05T15:28:49.068Z</time>
      </trkpt>
      <trkpt lat="42.87842" lon="0.02012">
        <ele>830.8</ele>
        <time>2020-12-05T15:28:50.068Z</time>
      </trkpt>
      <trkpt lat="42.87843" lon="0.02029">
        <ele>831.4</ele>
        <time>2020-12-05T15:28:51.067Z</time>
      </trkpt>
      <trkpt lat="42.87843" lon="0.02029">
        <ele>831.4</ele>
        <time>2020-12-05T15:28:52.069Z</time>
      </trkpt>
      <trkpt lat="42.87843" lon="0.02029">
        <ele>831.4</ele>
        <time>2020-12-05T15:28:53.07Z</time>
      </trkpt>
      <trkpt lat="42.87843" lon="0.02029">
        <ele>831.4</ele>
        <time>2020-12-05T15:28:54.068Z</time>
      </trkpt>
      <trkpt lat="42.87843" lon="0.02029">
        <ele>831.4</ele>
        <time>2020-12-05T15:28:55.068Z</time>
      </trkpt>
      <trkpt lat="42.87843" lon="0.02029">
        <ele>831.4</ele>
        <time>2020-12-05T15:28:56.068Z</time>
      </trkpt>
      <trkpt lat="42.87842" lon="0.02049">
        <ele>832.6</ele>
        <time>2020-12-05T15:28:57.067Z</time>
      </trkpt>
      <trkpt lat="42.87842" lon="0.02049">
        <ele>832.6</ele>
        <time>2020-12-05T15:28:58.068Z</time>
      </trkpt>
      <trkpt lat="42.87842" lon="0.02049">
        <ele>832.6</ele>
        <time>2020-12-05T15:28:59.067Z</time>
      </trkpt>
      <trkpt lat="42.87842" lon="0.02049">
        <ele>832.6</ele>
        <time>2020-12-05T15:29:00.067Z</time>
      </trkpt>
      <trkpt lat="42.87842" lon="0.02049">
        <ele>832.6</ele>
        <time>2020-12-05T15:29:01.067Z</time>
      </trkpt>
      <trkpt lat="42.87842" lon="0.02065">
        <ele>833.4</ele>
        <time>2020-12-05T15:29:02.067Z</time>
      </trkpt>
      <trkpt lat="42.87842" lon="0.0207">
        <ele>833.6</ele>
        <time>2020-12-05T15:29:03.068Z</time>
      </trkpt>
      <trkpt lat="42.87842" lon="0.0207">
        <ele>833.6</ele>
        <time>2020-12-05T15:29:04.067Z</time>
      </trkpt>
      <trkpt lat="42.87842" lon="0.0207">
        <ele>833.6</ele>
        <time>2020-12-05T15:29:05.069Z</time>
      </trkpt>
      <trkpt lat="42.87842" lon="0.0207">
        <ele>833.6</ele>
        <time>2020-12-05T15:29:06.07Z</time>
      </trkpt>
      <trkpt lat="42.87842" lon="0.0207">
        <ele>833.6</ele>
        <time>2020-12-05T15:29:07.068Z</time>
      </trkpt>
      <trkpt lat="42.87842" lon="0.0207">
        <ele>833.6</ele>
        <time>2020-12-05T15:29:08.069Z</time>
      </trkpt>
      <trkpt lat="42.87843" lon="0.02091">
        <ele>834.6</ele>
        <time>2020-12-05T15:29:09.068Z</time>
      </trkpt>
      <trkpt lat="42.87843" lon="0.02091">
        <ele>834.6</ele>
        <time>2020-12-05T15:29:10.069Z</time>
      </trkpt>
      <trkpt lat="42.87843" lon="0.02096">
        <ele>835</ele>
        <time>2020-12-05T15:29:11.069Z</time>
      </trkpt>
      <trkpt lat="42.87843" lon="0.02096">
        <ele>835</ele>
        <time>2020-12-05T15:29:12.068Z</time>
      </trkpt>
      <trkpt lat="42.87843" lon="0.02096">
        <ele>835</ele>
        <time>2020-12-05T15:29:13.068Z</time>
      </trkpt>
      <trkpt lat="42.87843" lon="0.02096">
        <ele>835</ele>
        <time>2020-12-05T15:29:14.07Z</time>
      </trkpt>
      <trkpt lat="42.87843" lon="0.02111">
        <ele>836</ele>
        <time>2020-12-05T15:29:15.067Z</time>
      </trkpt>
      <trkpt lat="42.87843" lon="0.02111">
        <ele>836</ele>
        <time>2020-12-05T15:29:16.067Z</time>
      </trkpt>
      <trkpt lat="42.87843" lon="0.02111">
        <ele>836</ele>
        <time>2020-12-05T15:29:17.067Z</time>
      </trkpt>
      <trkpt lat="42.87843" lon="0.02111">
        <ele>836</ele>
        <time>2020-12-05T15:29:18.067Z</time>
      </trkpt>
      <trkpt lat="42.87843" lon="0.02111">
        <ele>836</ele>
        <time>2020-12-05T15:29:19.068Z</time>
      </trkpt>
      <trkpt lat="42.87844" lon="0.02127">
        <ele>837</ele>
        <time>2020-12-05T15:29:20.067Z</time>
      </trkpt>
      <trkpt lat="42.87844" lon="0.02132">
        <ele>837.2</ele>
        <time>2020-12-05T15:29:21.068Z</time>
      </trkpt>
      <trkpt lat="42.87844" lon="0.02132">
        <ele>837.2</ele>
        <time>2020-12-05T15:29:22.069Z</time>
      </trkpt>
      <trkpt lat="42.87844" lon="0.02132">
        <ele>837.2</ele>
        <time>2020-12-05T15:29:23.069Z</time>
      </trkpt>
      <trkpt lat="42.87844" lon="0.02132">
        <ele>837.2</ele>
        <time>2020-12-05T15:29:24.068Z</time>
      </trkpt>
      <trkpt lat="42.87844" lon="0.02132">
        <ele>837.2</ele>
        <time>2020-12-05T15:29:25.068Z</time>
      </trkpt>
      <trkpt lat="42.87844" lon="0.02132">
        <ele>837.2</ele>
        <time>2020-12-05T15:29:26.069Z</time>
      </trkpt>
      <trkpt lat="42.87845" lon="0.02152">
        <ele>838.4</ele>
        <time>2020-12-05T15:29:27.069Z</time>
      </trkpt>
      <trkpt lat="42.87845" lon="0.02152">
        <ele>838.4</ele>
        <time>2020-12-05T15:29:28.069Z</time>
      </trkpt>
      <trkpt lat="42.87845" lon="0.02152">
        <ele>838.4</ele>
        <time>2020-12-05T15:29:29.069Z</time>
      </trkpt>
      <trkpt lat="42.87845" lon="0.02152">
        <ele>838.4</ele>
        <time>2020-12-05T15:29:30.067Z</time>
      </trkpt>
      <trkpt lat="42.87846" lon="0.02166">
        <ele>839</ele>
        <time>2020-12-05T15:29:31.067Z</time>
      </trkpt>
      <trkpt lat="42.87846" lon="0.02166">
        <ele>839</ele>
        <time>2020-12-05T15:29:32.07Z</time>
      </trkpt>
      <trkpt lat="42.87845" lon="0.02171">
        <ele>839.4</ele>
        <time>2020-12-05T15:29:33.067Z</time>
      </trkpt>
      <trkpt lat="42.87845" lon="0.02171">
        <ele>839.4</ele>
        <time>2020-12-05T15:29:34.069Z</time>
      </trkpt>
      <trkpt lat="42.87845" lon="0.02171">
        <ele>839.4</ele>
        <time>2020-12-05T15:29:35.07Z</time>
      </trkpt>
      <trkpt lat="42.87845" lon="0.02171">
        <ele>839.4</ele>
        <time>2020-12-05T15:29:36.068Z</time>
      </trkpt>
      <trkpt lat="42.87845" lon="0.02171">
        <ele>839.4</ele>
        <time>2020-12-05T15:29:37.067Z</time>
      </trkpt>
      <trkpt lat="42.87845" lon="0.02171">
        <ele>839.4</ele>
        <time>2020-12-05T15:29:38.069Z</time>
      </trkpt>
      <trkpt lat="42.87846" lon="0.0219">
        <ele>840.6</ele>
        <time>2020-12-05T15:29:39.069Z</time>
      </trkpt>
      <trkpt lat="42.87846" lon="0.0219">
        <ele>840.6</ele>
        <time>2020-12-05T15:29:40.068Z</time>
      </trkpt>
      <trkpt lat="42.87846" lon="0.0219">
        <ele>840.6</ele>
        <time>2020-12-05T15:29:41.069Z</time>
      </trkpt>
      <trkpt lat="42.87846" lon="0.02201">
        <ele>841</ele>
        <time>2020-12-05T15:29:42.068Z</time>
      </trkpt>
      <trkpt lat="42.87846" lon="0.02201">
        <ele>841</ele>
        <time>2020-12-05T15:29:43.067Z</time>
      </trkpt>
      <trkpt lat="42.87846" lon="0.02201">
        <ele>841</ele>
        <time>2020-12-05T15:29:44.068Z</time>
      </trkpt>
      <trkpt lat="42.87846" lon="0.02211">
        <ele>841.6</ele>
        <time>2020-12-05T15:29:45.069Z</time>
      </trkpt>
      <trkpt lat="42.87846" lon="0.02211">
        <ele>841.6</ele>
        <time>2020-12-05T15:29:46.068Z</time>
      </trkpt>
      <trkpt lat="42.87846" lon="0.02211">
        <ele>841.6</ele>
        <time>2020-12-05T15:29:47.067Z</time>
      </trkpt>
      <trkpt lat="42.87846" lon="0.02211">
        <ele>841.6</ele>
        <time>2020-12-05T15:29:48.067Z</time>
      </trkpt>
      <trkpt lat="42.87846" lon="0.02211">
        <ele>841.6</ele>
        <time>2020-12-05T15:29:49.068Z</time>
      </trkpt>
      <trkpt lat="42.87846" lon="0.02211">
        <ele>841.6</ele>
        <time>2020-12-05T15:29:50.067Z</time>
      </trkpt>
      <trkpt lat="42.87846" lon="0.02211">
        <ele>841.6</ele>
        <time>2020-12-05T15:29:51.067Z</time>
      </trkpt>
      <trkpt lat="42.87846" lon="0.02211">
        <ele>841.6</ele>
        <time>2020-12-05T15:29:52.067Z</time>
      </trkpt>
      <trkpt lat="42.87847" lon="0.02237">
        <ele>842.4</ele>
        <time>2020-12-05T15:29:53.068Z</time>
      </trkpt>
      <trkpt lat="42.87847" lon="0.02237">
        <ele>842.4</ele>
        <time>2020-12-05T15:29:54.067Z</time>
      </trkpt>
      <trkpt lat="42.87848" lon="0.02243">
        <ele>842.6</ele>
        <time>2020-12-05T15:29:55.067Z</time>
      </trkpt>
      <trkpt lat="42.87848" lon="0.02243">
        <ele>842.6</ele>
        <time>2020-12-05T15:29:56.069Z</time>
      </trkpt>
      <trkpt lat="42.87848" lon="0.02243">
        <ele>842.6</ele>
        <time>2020-12-05T15:29:57.068Z</time>
      </trkpt>
      <trkpt lat="42.87848" lon="0.02243">
        <ele>842.6</ele>
        <time>2020-12-05T15:29:58.068Z</time>
      </trkpt>
      <trkpt lat="42.87848" lon="0.02243">
        <ele>842.6</ele>
        <time>2020-12-05T15:29:59.067Z</time>
      </trkpt>
      <trkpt lat="42.87848" lon="0.02243">
        <ele>842.6</ele>
        <time>2020-12-05T15:30:00.068Z</time>
      </trkpt>
      <trkpt lat="42.8785" lon="0.02263">
        <ele>844</ele>
        <time>2020-12-05T15:30:01.067Z</time>
      </trkpt>
      <trkpt lat="42.8785" lon="0.02263">
        <ele>844</ele>
        <time>2020-12-05T15:30:02.07Z</time>
      </trkpt>
      <trkpt lat="42.8785" lon="0.02263">
        <ele>844</ele>
        <time>2020-12-05T15:30:03.068Z</time>
      </trkpt>
      <trkpt lat="42.87851" lon="0.02273">
        <ele>844.8</ele>
        <time>2020-12-05T15:30:04.067Z</time>
      </trkpt>
      <trkpt lat="42.87851" lon="0.02273">
        <ele>844.8</ele>
        <time>2020-12-05T15:30:05.068Z</time>
      </trkpt>
      <trkpt lat="42.87852" lon="0.02277">
        <ele>845.2</ele>
        <time>2020-12-05T15:30:06.068Z</time>
      </trkpt>
      <trkpt lat="42.87852" lon="0.02277">
        <ele>845.2</ele>
        <time>2020-12-05T15:30:07.067Z</time>
      </trkpt>
      <trkpt lat="42.87852" lon="0.02277">
        <ele>845.2</ele>
        <time>2020-12-05T15:30:08.068Z</time>
      </trkpt>
      <trkpt lat="42.87852" lon="0.02277">
        <ele>845.2</ele>
        <time>2020-12-05T15:30:09.068Z</time>
      </trkpt>
      <trkpt lat="42.87852" lon="0.02277">
        <ele>845.2</ele>
        <time>2020-12-05T15:30:10.068Z</time>
      </trkpt>
      <trkpt lat="42.87852" lon="0.02277">
        <ele>845.2</ele>
        <time>2020-12-05T15:30:11.068Z</time>
      </trkpt>
      <trkpt lat="42.87852" lon="0.02277">
        <ele>845.2</ele>
        <time>2020-12-05T15:30:12.067Z</time>
      </trkpt>
      <trkpt lat="42.87852" lon="0.02277">
        <ele>845.2</ele>
        <time>2020-12-05T15:30:13.069Z</time>
      </trkpt>
      <trkpt lat="42.87858" lon="0.02301">
        <ele>846</ele>
        <time>2020-12-05T15:30:14.069Z</time>
      </trkpt>
      <trkpt lat="42.87858" lon="0.02301">
        <ele>846</ele>
        <time>2020-12-05T15:30:15.068Z</time>
      </trkpt>
      <trkpt lat="42.87859" lon="0.02306">
        <ele>846.2</ele>
        <time>2020-12-05T15:30:16.067Z</time>
      </trkpt>
      <trkpt lat="42.87859" lon="0.02306">
        <ele>846.2</ele>
        <time>2020-12-05T15:30:17.067Z</time>
      </trkpt>
      <trkpt lat="42.87859" lon="0.02306">
        <ele>846.2</ele>
        <time>2020-12-05T15:30:18.068Z</time>
      </trkpt>
      <trkpt lat="42.87859" lon="0.02306">
        <ele>846.2</ele>
        <time>2020-12-05T15:30:19.068Z</time>
      </trkpt>
      <trkpt lat="42.87859" lon="0.02306">
        <ele>846.2</ele>
        <time>2020-12-05T15:30:20.067Z</time>
      </trkpt>
      <trkpt lat="42.87863" lon="0.02321">
        <ele>847.2</ele>
        <time>2020-12-05T15:30:21.068Z</time>
      </trkpt>
      <trkpt lat="42.87863" lon="0.02321">
        <ele>847.2</ele>
        <time>2020-12-05T15:30:22.067Z</time>
      </trkpt>
      <trkpt lat="42.87863" lon="0.02321">
        <ele>847.2</ele>
        <time>2020-12-05T15:30:23.067Z</time>
      </trkpt>
      <trkpt lat="42.87863" lon="0.02321">
        <ele>847.2</ele>
        <time>2020-12-05T15:30:24.067Z</time>
      </trkpt>
      <trkpt lat="42.87863" lon="0.02321">
        <ele>847.2</ele>
        <time>2020-12-05T15:30:25.067Z</time>
      </trkpt>
      <trkpt lat="42.87866" lon="0.02335">
        <ele>848</ele>
        <time>2020-12-05T15:30:26.068Z</time>
      </trkpt>
      <trkpt lat="42.87866" lon="0.02335">
        <ele>848</ele>
        <time>2020-12-05T15:30:27.068Z</time>
      </trkpt>
      <trkpt lat="42.87866" lon="0.02335">
        <ele>848</ele>
        <time>2020-12-05T15:30:28.067Z</time>
      </trkpt>
      <trkpt lat="42.87867" lon="0.02346">
        <ele>848.2</ele>
        <time>2020-12-05T15:30:29.068Z</time>
      </trkpt>
      <trkpt lat="42.87867" lon="0.02346">
        <ele>848.2</ele>
        <time>2020-12-05T15:30:30.069Z</time>
      </trkpt>
      <trkpt lat="42.87867" lon="0.02346">
        <ele>848.2</ele>
        <time>2020-12-05T15:30:31.07Z</time>
      </trkpt>
      <trkpt lat="42.87867" lon="0.02346">
        <ele>848.2</ele>
        <time>2020-12-05T15:30:32.068Z</time>
      </trkpt>
      <trkpt lat="42.87867" lon="0.02346">
        <ele>848.2</ele>
        <time>2020-12-05T15:30:33.067Z</time>
      </trkpt>
      <trkpt lat="42.87867" lon="0.02346">
        <ele>848.2</ele>
        <time>2020-12-05T15:30:34.068Z</time>
      </trkpt>
      <trkpt lat="42.87867" lon="0.02346">
        <ele>848.2</ele>
        <time>2020-12-05T15:30:35.068Z</time>
      </trkpt>
      <trkpt lat="42.87867" lon="0.02346">
        <ele>848.2</ele>
        <time>2020-12-05T15:30:36.069Z</time>
      </trkpt>
      <trkpt lat="42.87869" lon="0.02368">
        <ele>849.2</ele>
        <time>2020-12-05T15:30:37.068Z</time>
      </trkpt>
      <trkpt lat="42.87869" lon="0.02368">
        <ele>849.2</ele>
        <time>2020-12-05T15:30:38.068Z</time>
      </trkpt>
      <trkpt lat="42.87869" lon="0.02368">
        <ele>849.2</ele>
        <time>2020-12-05T15:30:39.068Z</time>
      </trkpt>
      <trkpt lat="42.87869" lon="0.02368">
        <ele>849.2</ele>
        <time>2020-12-05T15:30:40.068Z</time>
      </trkpt>
      <trkpt lat="42.87869" lon="0.02368">
        <ele>849.2</ele>
        <time>2020-12-05T15:30:41.067Z</time>
      </trkpt>
      <trkpt lat="42.87869" lon="0.02368">
        <ele>849.2</ele>
        <time>2020-12-05T15:30:42.068Z</time>
      </trkpt>
      <trkpt lat="42.87869" lon="0.02368">
        <ele>849.2</ele>
        <time>2020-12-05T15:30:43.069Z</time>
      </trkpt>
      <trkpt lat="42.87873" lon="0.02387">
        <ele>850.4</ele>
        <time>2020-12-05T15:30:44.07Z</time>
      </trkpt>
      <trkpt lat="42.87873" lon="0.02387">
        <ele>850.4</ele>
        <time>2020-12-05T15:30:45.068Z</time>
      </trkpt>
      <trkpt lat="42.87873" lon="0.02387">
        <ele>850.4</ele>
        <time>2020-12-05T15:30:46.067Z</time>
      </trkpt>
      <trkpt lat="42.87875" lon="0.02397">
        <ele>851</ele>
        <time>2020-12-05T15:30:47.069Z</time>
      </trkpt>
      <trkpt lat="42.87875" lon="0.02397">
        <ele>851</ele>
        <time>2020-12-05T15:30:48.068Z</time>
      </trkpt>
      <trkpt lat="42.87875" lon="0.02397">
        <ele>851</ele>
        <time>2020-12-05T15:30:49.067Z</time>
      </trkpt>
      <trkpt lat="42.87875" lon="0.02397">
        <ele>851</ele>
        <time>2020-12-05T15:30:50.068Z</time>
      </trkpt>
      <trkpt lat="42.87878" lon="0.02407">
        <ele>851.8</ele>
        <time>2020-12-05T15:30:51.069Z</time>
      </trkpt>
      <trkpt lat="42.87878" lon="0.02407">
        <ele>851.8</ele>
        <time>2020-12-05T15:30:52.068Z</time>
      </trkpt>
      <trkpt lat="42.87878" lon="0.02407">
        <ele>851.8</ele>
        <time>2020-12-05T15:30:53.068Z</time>
      </trkpt>
      <trkpt lat="42.87878" lon="0.02407">
        <ele>851.8</ele>
        <time>2020-12-05T15:30:54.069Z</time>
      </trkpt>
      <trkpt lat="42.87878" lon="0.02407">
        <ele>851.8</ele>
        <time>2020-12-05T15:30:55.069Z</time>
      </trkpt>
      <trkpt lat="42.87878" lon="0.02407">
        <ele>851.8</ele>
        <time>2020-12-05T15:30:56.067Z</time>
      </trkpt>
      <trkpt lat="42.87883" lon="0.02426">
        <ele>853.2</ele>
        <time>2020-12-05T15:30:57.067Z</time>
      </trkpt>
      <trkpt lat="42.87883" lon="0.02426">
        <ele>853.2</ele>
        <time>2020-12-05T15:30:58.068Z</time>
      </trkpt>
      <trkpt lat="42.87883" lon="0.02426">
        <ele>853.2</ele>
        <time>2020-12-05T15:30:59.068Z</time>
      </trkpt>
      <trkpt lat="42.87883" lon="0.02426">
        <ele>853.2</ele>
        <time>2020-12-05T15:31:00.067Z</time>
      </trkpt>
      <trkpt lat="42.87883" lon="0.02426">
        <ele>853.2</ele>
        <time>2020-12-05T15:31:01.07Z</time>
      </trkpt>
      <trkpt lat="42.87883" lon="0.02426">
        <ele>853.2</ele>
        <time>2020-12-05T15:31:02.069Z</time>
      </trkpt>
      <trkpt lat="42.87886" lon="0.02443">
        <ele>854.4</ele>
        <time>2020-12-05T15:31:03.067Z</time>
      </trkpt>
      <trkpt lat="42.87886" lon="0.02443">
        <ele>854.4</ele>
        <time>2020-12-05T15:31:04.068Z</time>
      </trkpt>
      <trkpt lat="42.87886" lon="0.02443">
        <ele>854.4</ele>
        <time>2020-12-05T15:31:05.068Z</time>
      </trkpt>
      <trkpt lat="42.87886" lon="0.02443">
        <ele>854.4</ele>
        <time>2020-12-05T15:31:06.068Z</time>
      </trkpt>
      <trkpt lat="42.87888" lon="0.02453">
        <ele>855</ele>
        <time>2020-12-05T15:31:07.068Z</time>
      </trkpt>
      <trkpt lat="42.87888" lon="0.02453">
        <ele>855</ele>
        <time>2020-12-05T15:31:08.069Z</time>
      </trkpt>
      <trkpt lat="42.87888" lon="0.02453">
        <ele>855</ele>
        <time>2020-12-05T15:31:09.068Z</time>
      </trkpt>
      <trkpt lat="42.87888" lon="0.02453">
        <ele>855</ele>
        <time>2020-12-05T15:31:10.069Z</time>
      </trkpt>
      <trkpt lat="42.87888" lon="0.02453">
        <ele>855</ele>
        <time>2020-12-05T15:31:11.068Z</time>
      </trkpt>
      <trkpt lat="42.87894" lon="0.02467">
        <ele>855.2</ele>
        <time>2020-12-05T15:31:12.069Z</time>
      </trkpt>
      <trkpt lat="42.87894" lon="0.02467">
        <ele>855.2</ele>
        <time>2020-12-05T15:31:13.068Z</time>
      </trkpt>
      <trkpt lat="42.87894" lon="0.02467">
        <ele>855.2</ele>
        <time>2020-12-05T15:31:14.07Z</time>
      </trkpt>
      <trkpt lat="42.87894" lon="0.02467">
        <ele>855.2</ele>
        <time>2020-12-05T15:31:15.067Z</time>
      </trkpt>
      <trkpt lat="42.87894" lon="0.02467">
        <ele>855.2</ele>
        <time>2020-12-05T15:31:16.068Z</time>
      </trkpt>
      <trkpt lat="42.87894" lon="0.02467">
        <ele>855.2</ele>
        <time>2020-12-05T15:31:17.068Z</time>
      </trkpt>
      <trkpt lat="42.87894" lon="0.02467">
        <ele>855.2</ele>
        <time>2020-12-05T15:31:18.067Z</time>
      </trkpt>
      <trkpt lat="42.87901" lon="0.02485">
        <ele>856.2</ele>
        <time>2020-12-05T15:31:19.067Z</time>
      </trkpt>
      <trkpt lat="42.87901" lon="0.02485">
        <ele>856.2</ele>
        <time>2020-12-05T15:31:20.067Z</time>
      </trkpt>
      <trkpt lat="42.87901" lon="0.02485">
        <ele>856.2</ele>
        <time>2020-12-05T15:31:21.068Z</time>
      </trkpt>
      <trkpt lat="42.87901" lon="0.02485">
        <ele>856.2</ele>
        <time>2020-12-05T15:31:22.068Z</time>
      </trkpt>
      <trkpt lat="42.87901" lon="0.02485">
        <ele>856.2</ele>
        <time>2020-12-05T15:31:23.067Z</time>
      </trkpt>
      <trkpt lat="42.87901" lon="0.02485">
        <ele>856.2</ele>
        <time>2020-12-05T15:31:24.067Z</time>
      </trkpt>
      <trkpt lat="42.87901" lon="0.02485">
        <ele>856.2</ele>
        <time>2020-12-05T15:31:25.069Z</time>
      </trkpt>
      <trkpt lat="42.87906" lon="0.02505">
        <ele>857.4</ele>
        <time>2020-12-05T15:31:26.068Z</time>
      </trkpt>
      <trkpt lat="42.87906" lon="0.02505">
        <ele>857.4</ele>
        <time>2020-12-05T15:31:27.068Z</time>
      </trkpt>
      <trkpt lat="42.87906" lon="0.02505">
        <ele>857.4</ele>
        <time>2020-12-05T15:31:28.067Z</time>
      </trkpt>
      <trkpt lat="42.87906" lon="0.02505">
        <ele>857.4</ele>
        <time>2020-12-05T15:31:29.07Z</time>
      </trkpt>
      <trkpt lat="42.87906" lon="0.02505">
        <ele>857.4</ele>
        <time>2020-12-05T15:31:30.068Z</time>
      </trkpt>
      <trkpt lat="42.87906" lon="0.02505">
        <ele>857.4</ele>
        <time>2020-12-05T15:31:31.067Z</time>
      </trkpt>
      <trkpt lat="42.8791" lon="0.02523">
        <ele>858.6</ele>
        <time>2020-12-05T15:31:32.068Z</time>
      </trkpt>
      <trkpt lat="42.8791" lon="0.02523">
        <ele>858.6</ele>
        <time>2020-12-05T15:31:33.067Z</time>
      </trkpt>
      <trkpt lat="42.8791" lon="0.02523">
        <ele>858.6</ele>
        <time>2020-12-05T15:31:34.068Z</time>
      </trkpt>
      <trkpt lat="42.8791" lon="0.02523">
        <ele>858.6</ele>
        <time>2020-12-05T15:31:35.07Z</time>
      </trkpt>
      <trkpt lat="42.8791" lon="0.02523">
        <ele>858.6</ele>
        <time>2020-12-05T15:31:36.069Z</time>
      </trkpt>
      <trkpt lat="42.8791" lon="0.02523">
        <ele>858.6</ele>
        <time>2020-12-05T15:31:37.067Z</time>
      </trkpt>
      <trkpt lat="42.87915" lon="0.02541">
        <ele>859.8</ele>
        <time>2020-12-05T15:31:38.069Z</time>
      </trkpt>
      <trkpt lat="42.87915" lon="0.02541">
        <ele>859.8</ele>
        <time>2020-12-05T15:31:39.068Z</time>
      </trkpt>
      <trkpt lat="42.87915" lon="0.02541">
        <ele>859.8</ele>
        <time>2020-12-05T15:31:40.067Z</time>
      </trkpt>
      <trkpt lat="42.87915" lon="0.02541">
        <ele>859.8</ele>
        <time>2020-12-05T15:31:41.068Z</time>
      </trkpt>
      <trkpt lat="42.87915" lon="0.02541">
        <ele>859.8</ele>
        <time>2020-12-05T15:31:42.069Z</time>
      </trkpt>
      <trkpt lat="42.87919" lon="0.02555">
        <ele>860.6</ele>
        <time>2020-12-05T15:31:43.068Z</time>
      </trkpt>
      <trkpt lat="42.87919" lon="0.02555">
        <ele>860.6</ele>
        <time>2020-12-05T15:31:44.068Z</time>
      </trkpt>
      <trkpt lat="42.8792" lon="0.02559">
        <ele>860.8</ele>
        <time>2020-12-05T15:31:45.068Z</time>
      </trkpt>
      <trkpt lat="42.8792" lon="0.02559">
        <ele>860.8</ele>
        <time>2020-12-05T15:31:46.069Z</time>
      </trkpt>
      <trkpt lat="42.8792" lon="0.02559">
        <ele>860.8</ele>
        <time>2020-12-05T15:31:47.069Z</time>
      </trkpt>
      <trkpt lat="42.8792" lon="0.02559">
        <ele>860.8</ele>
        <time>2020-12-05T15:31:48.068Z</time>
      </trkpt>
      <trkpt lat="42.8792" lon="0.02559">
        <ele>860.8</ele>
        <time>2020-12-05T15:31:49.069Z</time>
      </trkpt>
      <trkpt lat="42.8792" lon="0.02559">
        <ele>860.8</ele>
        <time>2020-12-05T15:31:50.067Z</time>
      </trkpt>
      <trkpt lat="42.87924" lon="0.02578">
        <ele>862.2</ele>
        <time>2020-12-05T15:31:51.067Z</time>
      </trkpt>
      <trkpt lat="42.87924" lon="0.02578">
        <ele>862.2</ele>
        <time>2020-12-05T15:31:52.07Z</time>
      </trkpt>
      <trkpt lat="42.87925" lon="0.02583">
        <ele>862.6</ele>
        <time>2020-12-05T15:31:53.069Z</time>
      </trkpt>
      <trkpt lat="42.87925" lon="0.02583">
        <ele>862.6</ele>
        <time>2020-12-05T15:31:54.068Z</time>
      </trkpt>
      <trkpt lat="42.87925" lon="0.02583">
        <ele>862.6</ele>
        <time>2020-12-05T15:31:55.069Z</time>
      </trkpt>
      <trkpt lat="42.87928" lon="0.02592">
        <ele>863.4</ele>
        <time>2020-12-05T15:31:56.067Z</time>
      </trkpt>
      <trkpt lat="42.87928" lon="0.02592">
        <ele>863.4</ele>
        <time>2020-12-05T15:31:57.068Z</time>
      </trkpt>
      <trkpt lat="42.87928" lon="0.02592">
        <ele>863.4</ele>
        <time>2020-12-05T15:31:58.07Z</time>
      </trkpt>
      <trkpt lat="42.87928" lon="0.02592">
        <ele>863.4</ele>
        <time>2020-12-05T15:31:59.068Z</time>
      </trkpt>
      <trkpt lat="42.87928" lon="0.02592">
        <ele>863.4</ele>
        <time>2020-12-05T15:32:00.069Z</time>
      </trkpt>
      <trkpt lat="42.87928" lon="0.02592">
        <ele>863.4</ele>
        <time>2020-12-05T15:32:01.068Z</time>
      </trkpt>
      <trkpt lat="42.87928" lon="0.02592">
        <ele>863.4</ele>
        <time>2020-12-05T15:32:02.068Z</time>
      </trkpt>
      <trkpt lat="42.87934" lon="0.0261">
        <ele>864.6</ele>
        <time>2020-12-05T15:32:03.067Z</time>
      </trkpt>
      <trkpt lat="42.87934" lon="0.0261">
        <ele>864.6</ele>
        <time>2020-12-05T15:32:04.069Z</time>
      </trkpt>
      <trkpt lat="42.87934" lon="0.0261">
        <ele>864.6</ele>
        <time>2020-12-05T15:32:05.07Z</time>
      </trkpt>
      <trkpt lat="42.87938" lon="0.02618">
        <ele>865.4</ele>
        <time>2020-12-05T15:32:06.069Z</time>
      </trkpt>
      <trkpt lat="42.8794" lon="0.02621">
        <ele>865.8</ele>
        <time>2020-12-05T15:32:07.069Z</time>
      </trkpt>
      <trkpt lat="42.8794" lon="0.02621">
        <ele>865.8</ele>
        <time>2020-12-05T15:32:08.068Z</time>
      </trkpt>
      <trkpt lat="42.8794" lon="0.02621">
        <ele>865.8</ele>
        <time>2020-12-05T15:32:09.067Z</time>
      </trkpt>
      <trkpt lat="42.8794" lon="0.02621">
        <ele>865.8</ele>
        <time>2020-12-05T15:32:10.069Z</time>
      </trkpt>
      <trkpt lat="42.8794" lon="0.02621">
        <ele>865.8</ele>
        <time>2020-12-05T15:32:11.068Z</time>
      </trkpt>
      <trkpt lat="42.8794" lon="0.02621">
        <ele>865.8</ele>
        <time>2020-12-05T15:32:12.069Z</time>
      </trkpt>
      <trkpt lat="42.8794" lon="0.02621">
        <ele>865.8</ele>
        <time>2020-12-05T15:32:13.067Z</time>
      </trkpt>
      <trkpt lat="42.87949" lon="0.02637">
        <ele>866.8</ele>
        <time>2020-12-05T15:32:14.067Z</time>
      </trkpt>
      <trkpt lat="42.87952" lon="0.0264">
        <ele>866.8</ele>
        <time>2020-12-05T15:32:15.067Z</time>
      </trkpt>
      <trkpt lat="42.87952" lon="0.0264">
        <ele>866.8</ele>
        <time>2020-12-05T15:32:16.068Z</time>
      </trkpt>
      <trkpt lat="42.87952" lon="0.0264">
        <ele>866.8</ele>
        <time>2020-12-05T15:32:17.07Z</time>
      </trkpt>
      <trkpt lat="42.87957" lon="0.02648">
        <ele>867.4</ele>
        <time>2020-12-05T15:32:18.068Z</time>
      </trkpt>
      <trkpt lat="42.87957" lon="0.02648">
        <ele>867.4</ele>
        <time>2020-12-05T15:32:19.068Z</time>
      </trkpt>
      <trkpt lat="42.87959" lon="0.02651">
        <ele>867.6</ele>
        <time>2020-12-05T15:32:20.069Z</time>
      </trkpt>
      <trkpt lat="42.87959" lon="0.02651">
        <ele>867.6</ele>
        <time>2020-12-05T15:32:21.069Z</time>
      </trkpt>
      <trkpt lat="42.87959" lon="0.02651">
        <ele>867.6</ele>
        <time>2020-12-05T15:32:22.068Z</time>
      </trkpt>
      <trkpt lat="42.87959" lon="0.02651">
        <ele>867.6</ele>
        <time>2020-12-05T15:32:23.069Z</time>
      </trkpt>
      <trkpt lat="42.87959" lon="0.02651">
        <ele>867.6</ele>
        <time>2020-12-05T15:32:24.068Z</time>
      </trkpt>
      <trkpt lat="42.87959" lon="0.02651">
        <ele>867.6</ele>
        <time>2020-12-05T15:32:25.068Z</time>
      </trkpt>
      <trkpt lat="42.87959" lon="0.02651">
        <ele>867.6</ele>
        <time>2020-12-05T15:32:26.068Z</time>
      </trkpt>
      <trkpt lat="42.8797" lon="0.02666">
        <ele>869.2</ele>
        <time>2020-12-05T15:32:27.07Z</time>
      </trkpt>
      <trkpt lat="42.8797" lon="0.02666">
        <ele>869.2</ele>
        <time>2020-12-05T15:32:28.067Z</time>
      </trkpt>
      <trkpt lat="42.8797" lon="0.02666">
        <ele>869.2</ele>
        <time>2020-12-05T15:32:29.069Z</time>
      </trkpt>
      <trkpt lat="42.8797" lon="0.02666">
        <ele>869.2</ele>
        <time>2020-12-05T15:32:30.068Z</time>
      </trkpt>
      <trkpt lat="42.8797" lon="0.02666">
        <ele>869.2</ele>
        <time>2020-12-05T15:32:31.068Z</time>
      </trkpt>
      <trkpt lat="42.8797" lon="0.02666">
        <ele>869.2</ele>
        <time>2020-12-05T15:32:32.067Z</time>
      </trkpt>
      <trkpt lat="42.8797" lon="0.02666">
        <ele>869.2</ele>
        <time>2020-12-05T15:32:33.067Z</time>
      </trkpt>
      <trkpt lat="42.87981" lon="0.02681">
        <ele>870.4</ele>
        <time>2020-12-05T15:32:34.068Z</time>
      </trkpt>
      <trkpt lat="42.87981" lon="0.02681">
        <ele>870.4</ele>
        <time>2020-12-05T15:32:35.068Z</time>
      </trkpt>
      <trkpt lat="42.87984" lon="0.02685">
        <ele>870.6</ele>
        <time>2020-12-05T15:32:36.07Z</time>
      </trkpt>
      <trkpt lat="42.87984" lon="0.02685">
        <ele>870.6</ele>
        <time>2020-12-05T15:32:37.068Z</time>
      </trkpt>
      <trkpt lat="42.87984" lon="0.02685">
        <ele>870.6</ele>
        <time>2020-12-05T15:32:38.069Z</time>
      </trkpt>
      <trkpt lat="42.87984" lon="0.02685">
        <ele>870.6</ele>
        <time>2020-12-05T15:32:39.068Z</time>
      </trkpt>
      <trkpt lat="42.87984" lon="0.02685">
        <ele>870.6</ele>
        <time>2020-12-05T15:32:40.067Z</time>
      </trkpt>
      <trkpt lat="42.87984" lon="0.02685">
        <ele>870.6</ele>
        <time>2020-12-05T15:32:41.068Z</time>
      </trkpt>
      <trkpt lat="42.87984" lon="0.02685">
        <ele>870.6</ele>
        <time>2020-12-05T15:32:42.068Z</time>
      </trkpt>
      <trkpt lat="42.87996" lon="0.027">
        <ele>871.4</ele>
        <time>2020-12-05T15:32:43.069Z</time>
      </trkpt>
      <trkpt lat="42.87996" lon="0.027">
        <ele>871.4</ele>
        <time>2020-12-05T15:32:44.069Z</time>
      </trkpt>
      <trkpt lat="42.87996" lon="0.027">
        <ele>871.4</ele>
        <time>2020-12-05T15:32:45.067Z</time>
      </trkpt>
      <trkpt lat="42.88001" lon="0.02706">
        <ele>871.8</ele>
        <time>2020-12-05T15:32:46.068Z</time>
      </trkpt>
      <trkpt lat="42.88001" lon="0.02706">
        <ele>871.8</ele>
        <time>2020-12-05T15:32:47.067Z</time>
      </trkpt>
      <trkpt lat="42.88001" lon="0.02706">
        <ele>871.8</ele>
        <time>2020-12-05T15:32:48.067Z</time>
      </trkpt>
      <trkpt lat="42.88001" lon="0.02706">
        <ele>871.8</ele>
        <time>2020-12-05T15:32:49.069Z</time>
      </trkpt>
      <trkpt lat="42.88001" lon="0.02706">
        <ele>871.8</ele>
        <time>2020-12-05T15:32:50.069Z</time>
      </trkpt>
      <trkpt lat="42.8801" lon="0.02716">
        <ele>872.4</ele>
        <time>2020-12-05T15:32:51.067Z</time>
      </trkpt>
      <trkpt lat="42.8801" lon="0.02716">
        <ele>872.4</ele>
        <time>2020-12-05T15:32:52.068Z</time>
      </trkpt>
      <trkpt lat="42.8801" lon="0.02716">
        <ele>872.4</ele>
        <time>2020-12-05T15:32:53.069Z</time>
      </trkpt>
      <trkpt lat="42.8801" lon="0.02716">
        <ele>872.4</ele>
        <time>2020-12-05T15:32:54.069Z</time>
      </trkpt>
      <trkpt lat="42.8801" lon="0.02716">
        <ele>872.4</ele>
        <time>2020-12-05T15:32:55.068Z</time>
      </trkpt>
      <trkpt lat="42.88019" lon="0.02725">
        <ele>872.8</ele>
        <time>2020-12-05T15:32:56.068Z</time>
      </trkpt>
      <trkpt lat="42.88019" lon="0.02725">
        <ele>872.8</ele>
        <time>2020-12-05T15:32:57.068Z</time>
      </trkpt>
      <trkpt lat="42.88019" lon="0.02725">
        <ele>872.8</ele>
        <time>2020-12-05T15:32:58.068Z</time>
      </trkpt>
      <trkpt lat="42.88019" lon="0.02725">
        <ele>872.8</ele>
        <time>2020-12-05T15:32:59.067Z</time>
      </trkpt>
      <trkpt lat="42.88025" lon="0.02732">
        <ele>873.4</ele>
        <time>2020-12-05T15:33:00.069Z</time>
      </trkpt>
      <trkpt lat="42.88025" lon="0.02732">
        <ele>873.4</ele>
        <time>2020-12-05T15:33:01.068Z</time>
      </trkpt>
      <trkpt lat="42.88025" lon="0.02732">
        <ele>873.4</ele>
        <time>2020-12-05T15:33:02.067Z</time>
      </trkpt>
      <trkpt lat="42.88025" lon="0.02732">
        <ele>873.4</ele>
        <time>2020-12-05T15:33:03.067Z</time>
      </trkpt>
      <trkpt lat="42.88025" lon="0.02732">
        <ele>873.4</ele>
        <time>2020-12-05T15:33:04.068Z</time>
      </trkpt>
      <trkpt lat="42.88025" lon="0.02732">
        <ele>873.4</ele>
        <time>2020-12-05T15:33:05.068Z</time>
      </trkpt>
      <trkpt lat="42.88036" lon="0.02746">
        <ele>874.4</ele>
        <time>2020-12-05T15:33:06.067Z</time>
      </trkpt>
      <trkpt lat="42.88036" lon="0.02746">
        <ele>874.4</ele>
        <time>2020-12-05T15:33:07.067Z</time>
      </trkpt>
      <trkpt lat="42.88039" lon="0.02749">
        <ele>874.8</ele>
        <time>2020-12-05T15:33:08.069Z</time>
      </trkpt>
      <trkpt lat="42.88039" lon="0.02749">
        <ele>874.8</ele>
        <time>2020-12-05T15:33:09.07Z</time>
      </trkpt>
      <trkpt lat="42.88039" lon="0.02749">
        <ele>874.8</ele>
        <time>2020-12-05T15:33:10.068Z</time>
      </trkpt>
      <trkpt lat="42.88045" lon="0.02755">
        <ele>875.4</ele>
        <time>2020-12-05T15:33:11.067Z</time>
      </trkpt>
      <trkpt lat="42.88045" lon="0.02755">
        <ele>875.4</ele>
        <time>2020-12-05T15:33:12.069Z</time>
      </trkpt>
      <trkpt lat="42.88045" lon="0.02755">
        <ele>875.4</ele>
        <time>2020-12-05T15:33:13.068Z</time>
      </trkpt>
      <trkpt lat="42.88045" lon="0.02755">
        <ele>875.4</ele>
        <time>2020-12-05T15:33:14.067Z</time>
      </trkpt>
      <trkpt lat="42.88045" lon="0.02755">
        <ele>875.4</ele>
        <time>2020-12-05T15:33:15.069Z</time>
      </trkpt>
      <trkpt lat="42.88054" lon="0.02765">
        <ele>877</ele>
        <time>2020-12-05T15:33:16.067Z</time>
      </trkpt>
      <trkpt lat="42.88054" lon="0.02765">
        <ele>877</ele>
        <time>2020-12-05T15:33:17.069Z</time>
      </trkpt>
      <trkpt lat="42.88054" lon="0.02765">
        <ele>877</ele>
        <time>2020-12-05T15:33:18.068Z</time>
      </trkpt>
      <trkpt lat="42.88054" lon="0.02765">
        <ele>877</ele>
        <time>2020-12-05T15:33:19.067Z</time>
      </trkpt>
      <trkpt lat="42.8806" lon="0.02772">
        <ele>877.4</ele>
        <time>2020-12-05T15:33:20.067Z</time>
      </trkpt>
      <trkpt lat="42.8806" lon="0.02772">
        <ele>877.4</ele>
        <time>2020-12-05T15:33:21.068Z</time>
      </trkpt>
      <trkpt lat="42.8806" lon="0.02772">
        <ele>877.4</ele>
        <time>2020-12-05T15:33:22.068Z</time>
      </trkpt>
      <trkpt lat="42.8806" lon="0.02772">
        <ele>877.4</ele>
        <time>2020-12-05T15:33:23.068Z</time>
      </trkpt>
      <trkpt lat="42.8806" lon="0.02772">
        <ele>877.4</ele>
        <time>2020-12-05T15:33:24.069Z</time>
      </trkpt>
      <trkpt lat="42.88069" lon="0.02781">
        <ele>878.2</ele>
        <time>2020-12-05T15:33:25.069Z</time>
      </trkpt>
      <trkpt lat="42.88069" lon="0.02781">
        <ele>878.2</ele>
        <time>2020-12-05T15:33:26.069Z</time>
      </trkpt>
      <trkpt lat="42.88069" lon="0.02781">
        <ele>878.2</ele>
        <time>2020-12-05T15:33:27.068Z</time>
      </trkpt>
      <trkpt lat="42.88069" lon="0.02781">
        <ele>878.2</ele>
        <time>2020-12-05T15:33:28.068Z</time>
      </trkpt>
      <trkpt lat="42.88069" lon="0.02781">
        <ele>878.2</ele>
        <time>2020-12-05T15:33:29.069Z</time>
      </trkpt>
      <trkpt lat="42.88077" lon="0.0279">
        <ele>879.2</ele>
        <time>2020-12-05T15:33:30.067Z</time>
      </trkpt>
      <trkpt lat="42.88077" lon="0.0279">
        <ele>879.2</ele>
        <time>2020-12-05T15:33:31.068Z</time>
      </trkpt>
      <trkpt lat="42.88077" lon="0.0279">
        <ele>879.2</ele>
        <time>2020-12-05T15:33:32.068Z</time>
      </trkpt>
      <trkpt lat="42.88077" lon="0.0279">
        <ele>879.2</ele>
        <time>2020-12-05T15:33:33.067Z</time>
      </trkpt>
      <trkpt lat="42.88077" lon="0.0279">
        <ele>879.2</ele>
        <time>2020-12-05T15:33:34.067Z</time>
      </trkpt>
      <trkpt lat="42.88077" lon="0.0279">
        <ele>879.2</ele>
        <time>2020-12-05T15:33:35.069Z</time>
      </trkpt>
      <trkpt lat="42.88077" lon="0.0279">
        <ele>879.2</ele>
        <time>2020-12-05T15:33:36.068Z</time>
      </trkpt>
      <trkpt lat="42.88077" lon="0.0279">
        <ele>879.2</ele>
        <time>2020-12-05T15:33:37.068Z</time>
      </trkpt>
      <trkpt lat="42.88091" lon="0.02804">
        <ele>880.4</ele>
        <time>2020-12-05T15:33:38.067Z</time>
      </trkpt>
      <trkpt lat="42.88091" lon="0.02804">
        <ele>880.4</ele>
        <time>2020-12-05T15:33:39.07Z</time>
      </trkpt>
      <trkpt lat="42.88091" lon="0.02804">
        <ele>880.4</ele>
        <time>2020-12-05T15:33:40.067Z</time>
      </trkpt>
      <trkpt lat="42.88097" lon="0.0281">
        <ele>881</ele>
        <time>2020-12-05T15:33:41.067Z</time>
      </trkpt>
      <trkpt lat="42.88097" lon="0.0281">
        <ele>881</ele>
        <time>2020-12-05T15:33:42.068Z</time>
      </trkpt>
      <trkpt lat="42.88097" lon="0.0281">
        <ele>881</ele>
        <time>2020-12-05T15:33:43.068Z</time>
      </trkpt>
      <trkpt lat="42.88097" lon="0.0281">
        <ele>881</ele>
        <time>2020-12-05T15:33:44.067Z</time>
      </trkpt>
      <trkpt lat="42.88102" lon="0.02817">
        <ele>881.6</ele>
        <time>2020-12-05T15:33:45.067Z</time>
      </trkpt>
      <trkpt lat="42.88102" lon="0.02817">
        <ele>881.6</ele>
        <time>2020-12-05T15:33:46.069Z</time>
      </trkpt>
      <trkpt lat="42.88102" lon="0.02817">
        <ele>881.6</ele>
        <time>2020-12-05T15:33:47.067Z</time>
      </trkpt>
      <trkpt lat="42.88102" lon="0.02817">
        <ele>881.6</ele>
        <time>2020-12-05T15:33:48.069Z</time>
      </trkpt>
      <trkpt lat="42.88102" lon="0.02817">
        <ele>881.6</ele>
        <time>2020-12-05T15:33:49.067Z</time>
      </trkpt>
      <trkpt lat="42.88102" lon="0.02817">
        <ele>881.6</ele>
        <time>2020-12-05T15:33:50.069Z</time>
      </trkpt>
      <trkpt lat="42.88113" lon="0.0283">
        <ele>882.6</ele>
        <time>2020-12-05T15:33:51.069Z</time>
      </trkpt>
      <trkpt lat="42.88113" lon="0.0283">
        <ele>882.6</ele>
        <time>2020-12-05T15:33:52.069Z</time>
      </trkpt>
      <trkpt lat="42.88113" lon="0.0283">
        <ele>882.6</ele>
        <time>2020-12-05T15:33:53.067Z</time>
      </trkpt>
      <trkpt lat="42.88119" lon="0.02836">
        <ele>883</ele>
        <time>2020-12-05T15:33:54.068Z</time>
      </trkpt>
      <trkpt lat="42.88119" lon="0.02836">
        <ele>883</ele>
        <time>2020-12-05T15:33:55.069Z</time>
      </trkpt>
      <trkpt lat="42.88119" lon="0.02836">
        <ele>883</ele>
        <time>2020-12-05T15:33:56.068Z</time>
      </trkpt>
      <trkpt lat="42.88119" lon="0.02836">
        <ele>883</ele>
        <time>2020-12-05T15:33:57.069Z</time>
      </trkpt>
      <trkpt lat="42.88119" lon="0.02836">
        <ele>883</ele>
        <time>2020-12-05T15:33:58.067Z</time>
      </trkpt>
      <trkpt lat="42.88128" lon="0.02845">
        <ele>883.4</ele>
        <time>2020-12-05T15:33:59.067Z</time>
      </trkpt>
      <trkpt lat="42.88128" lon="0.02845">
        <ele>883.4</ele>
        <time>2020-12-05T15:34:00.068Z</time>
      </trkpt>
      <trkpt lat="42.88128" lon="0.02845">
        <ele>883.4</ele>
        <time>2020-12-05T15:34:01.067Z</time>
      </trkpt>
      <trkpt lat="42.88133" lon="0.02851">
        <ele>884</ele>
        <time>2020-12-05T15:34:02.067Z</time>
      </trkpt>
      <trkpt lat="42.88133" lon="0.02851">
        <ele>884</ele>
        <time>2020-12-05T15:34:03.068Z</time>
      </trkpt>
      <trkpt lat="42.88133" lon="0.02851">
        <ele>884</ele>
        <time>2020-12-05T15:34:04.067Z</time>
      </trkpt>
      <trkpt lat="42.88138" lon="0.02857">
        <ele>884.8</ele>
        <time>2020-12-05T15:34:05.068Z</time>
      </trkpt>
      <trkpt lat="42.88138" lon="0.02857">
        <ele>884.8</ele>
        <time>2020-12-05T15:34:06.068Z</time>
      </trkpt>
      <trkpt lat="42.88138" lon="0.02857">
        <ele>884.8</ele>
        <time>2020-12-05T15:34:07.068Z</time>
      </trkpt>
      <trkpt lat="42.88138" lon="0.02857">
        <ele>884.8</ele>
        <time>2020-12-05T15:34:08.067Z</time>
      </trkpt>
      <trkpt lat="42.88138" lon="0.02857">
        <ele>884.8</ele>
        <time>2020-12-05T15:34:09.07Z</time>
      </trkpt>
      <trkpt lat="42.88138" lon="0.02857">
        <ele>884.8</ele>
        <time>2020-12-05T15:34:10.068Z</time>
      </trkpt>
      <trkpt lat="42.8815" lon="0.0287">
        <ele>886</ele>
        <time>2020-12-05T15:34:11.068Z</time>
      </trkpt>
      <trkpt lat="42.8815" lon="0.0287">
        <ele>886</ele>
        <time>2020-12-05T15:34:12.068Z</time>
      </trkpt>
      <trkpt lat="42.8815" lon="0.0287">
        <ele>886</ele>
        <time>2020-12-05T15:34:13.067Z</time>
      </trkpt>
      <trkpt lat="42.8815" lon="0.0287">
        <ele>886</ele>
        <time>2020-12-05T15:34:14.069Z</time>
      </trkpt>
      <trkpt lat="42.8815" lon="0.0287">
        <ele>886</ele>
        <time>2020-12-05T15:34:15.068Z</time>
      </trkpt>
      <trkpt lat="42.8815" lon="0.0287">
        <ele>886</ele>
        <time>2020-12-05T15:34:16.068Z</time>
      </trkpt>
      <trkpt lat="42.8815" lon="0.0287">
        <ele>886</ele>
        <time>2020-12-05T15:34:17.07Z</time>
      </trkpt>
      <trkpt lat="42.88163" lon="0.02884">
        <ele>887</ele>
        <time>2020-12-05T15:34:18.068Z</time>
      </trkpt>
      <trkpt lat="42.88163" lon="0.02884">
        <ele>887</ele>
        <time>2020-12-05T15:34:19.067Z</time>
      </trkpt>
      <trkpt lat="42.88163" lon="0.02884">
        <ele>887</ele>
        <time>2020-12-05T15:34:20.067Z</time>
      </trkpt>
      <trkpt lat="42.88163" lon="0.02884">
        <ele>887</ele>
        <time>2020-12-05T15:34:21.067Z</time>
      </trkpt>
      <trkpt lat="42.88163" lon="0.02884">
        <ele>887</ele>
        <time>2020-12-05T15:34:22.068Z</time>
      </trkpt>
      <trkpt lat="42.88163" lon="0.02884">
        <ele>887</ele>
        <time>2020-12-05T15:34:23.067Z</time>
      </trkpt>
      <trkpt lat="42.88163" lon="0.02884">
        <ele>887</ele>
        <time>2020-12-05T15:34:24.069Z</time>
      </trkpt>
      <trkpt lat="42.88163" lon="0.02884">
        <ele>887</ele>
        <time>2020-12-05T15:34:25.067Z</time>
      </trkpt>
      <trkpt lat="42.88177" lon="0.02901">
        <ele>888</ele>
        <time>2020-12-05T15:34:26.07Z</time>
      </trkpt>
      <trkpt lat="42.88177" lon="0.02901">
        <ele>888</ele>
        <time>2020-12-05T15:34:27.067Z</time>
      </trkpt>
      <trkpt lat="42.88177" lon="0.02901">
        <ele>888</ele>
        <time>2020-12-05T15:34:28.067Z</time>
      </trkpt>
      <trkpt lat="42.88177" lon="0.02901">
        <ele>888</ele>
        <time>2020-12-05T15:34:29.068Z</time>
      </trkpt>
      <trkpt lat="42.88177" lon="0.02901">
        <ele>888</ele>
        <time>2020-12-05T15:34:30.069Z</time>
      </trkpt>
      <trkpt lat="42.88186" lon="0.02911">
        <ele>888.6</ele>
        <time>2020-12-05T15:34:31.069Z</time>
      </trkpt>
      <trkpt lat="42.88189" lon="0.02914">
        <ele>889</ele>
        <time>2020-12-05T15:34:32.068Z</time>
      </trkpt>
      <trkpt lat="42.88189" lon="0.02914">
        <ele>889</ele>
        <time>2020-12-05T15:34:33.069Z</time>
      </trkpt>
      <trkpt lat="42.88189" lon="0.02914">
        <ele>889</ele>
        <time>2020-12-05T15:34:34.07Z</time>
      </trkpt>
      <trkpt lat="42.88189" lon="0.02914">
        <ele>889</ele>
        <time>2020-12-05T15:34:35.067Z</time>
      </trkpt>
      <trkpt lat="42.88195" lon="0.02921">
        <ele>889.4</ele>
        <time>2020-12-05T15:34:36.068Z</time>
      </trkpt>
      <trkpt lat="42.88195" lon="0.02921">
        <ele>889.4</ele>
        <time>2020-12-05T15:34:37.069Z</time>
      </trkpt>
      <trkpt lat="42.88195" lon="0.02921">
        <ele>889.4</ele>
        <time>2020-12-05T15:34:38.068Z</time>
      </trkpt>
      <trkpt lat="42.88195" lon="0.02921">
        <ele>889.4</ele>
        <time>2020-12-05T15:34:39.068Z</time>
      </trkpt>
      <trkpt lat="42.88203" lon="0.0293">
        <ele>890.2</ele>
        <time>2020-12-05T15:34:40.067Z</time>
      </trkpt>
      <trkpt lat="42.88203" lon="0.0293">
        <ele>890.2</ele>
        <time>2020-12-05T15:34:41.068Z</time>
      </trkpt>
      <trkpt lat="42.88203" lon="0.0293">
        <ele>890.2</ele>
        <time>2020-12-05T15:34:42.068Z</time>
      </trkpt>
      <trkpt lat="42.88207" lon="0.02937">
        <ele>890.8</ele>
        <time>2020-12-05T15:34:43.068Z</time>
      </trkpt>
      <trkpt lat="42.88207" lon="0.02937">
        <ele>890.8</ele>
        <time>2020-12-05T15:34:44.067Z</time>
      </trkpt>
      <trkpt lat="42.88207" lon="0.02937">
        <ele>890.8</ele>
        <time>2020-12-05T15:34:45.069Z</time>
      </trkpt>
      <trkpt lat="42.88213" lon="0.02944">
        <ele>891.4</ele>
        <time>2020-12-05T15:34:46.067Z</time>
      </trkpt>
      <trkpt lat="42.88213" lon="0.02944">
        <ele>891.4</ele>
        <time>2020-12-05T15:34:47.07Z</time>
      </trkpt>
      <trkpt lat="42.88213" lon="0.02944">
        <ele>891.4</ele>
        <time>2020-12-05T15:34:48.069Z</time>
      </trkpt>
      <trkpt lat="42.88213" lon="0.02944">
        <ele>891.4</ele>
        <time>2020-12-05T15:34:49.067Z</time>
      </trkpt>
      <trkpt lat="42.88213" lon="0.02944">
        <ele>891.4</ele>
        <time>2020-12-05T15:34:50.068Z</time>
      </trkpt>
      <trkpt lat="42.88213" lon="0.02944">
        <ele>891.4</ele>
        <time>2020-12-05T15:34:51.069Z</time>
      </trkpt>
      <trkpt lat="42.88224" lon="0.02957">
        <ele>892.4</ele>
        <time>2020-12-05T15:34:52.068Z</time>
      </trkpt>
      <trkpt lat="42.88227" lon="0.02959">
        <ele>892.8</ele>
        <time>2020-12-05T15:34:53.067Z</time>
      </trkpt>
      <trkpt lat="42.88227" lon="0.02959">
        <ele>892.8</ele>
        <time>2020-12-05T15:34:54.069Z</time>
      </trkpt>
      <trkpt lat="42.88227" lon="0.02959">
        <ele>892.8</ele>
        <time>2020-12-05T15:34:55.068Z</time>
      </trkpt>
      <trkpt lat="42.88227" lon="0.02959">
        <ele>892.8</ele>
        <time>2020-12-05T15:34:56.069Z</time>
      </trkpt>
      <trkpt lat="42.88227" lon="0.02959">
        <ele>892.8</ele>
        <time>2020-12-05T15:34:57.068Z</time>
      </trkpt>
      <trkpt lat="42.88227" lon="0.02959">
        <ele>892.8</ele>
        <time>2020-12-05T15:34:58.068Z</time>
      </trkpt>
      <trkpt lat="42.88238" lon="0.0297">
        <ele>893.6</ele>
        <time>2020-12-05T15:34:59.067Z</time>
      </trkpt>
      <trkpt lat="42.88238" lon="0.0297">
        <ele>893.6</ele>
        <time>2020-12-05T15:35:00.068Z</time>
      </trkpt>
      <trkpt lat="42.88238" lon="0.0297">
        <ele>893.6</ele>
        <time>2020-12-05T15:35:01.068Z</time>
      </trkpt>
      <trkpt lat="42.88238" lon="0.0297">
        <ele>893.6</ele>
        <time>2020-12-05T15:35:02.069Z</time>
      </trkpt>
      <trkpt lat="42.88246" lon="0.02979">
        <ele>894.6</ele>
        <time>2020-12-05T15:35:03.068Z</time>
      </trkpt>
      <trkpt lat="42.88246" lon="0.02979">
        <ele>894.6</ele>
        <time>2020-12-05T15:35:04.068Z</time>
      </trkpt>
      <trkpt lat="42.88246" lon="0.02979">
        <ele>894.6</ele>
        <time>2020-12-05T15:35:05.067Z</time>
      </trkpt>
      <trkpt lat="42.88246" lon="0.02979">
        <ele>894.6</ele>
        <time>2020-12-05T15:35:06.069Z</time>
      </trkpt>
      <trkpt lat="42.88246" lon="0.02979">
        <ele>894.6</ele>
        <time>2020-12-05T15:35:07.067Z</time>
      </trkpt>
      <trkpt lat="42.88246" lon="0.02979">
        <ele>894.6</ele>
        <time>2020-12-05T15:35:08.069Z</time>
      </trkpt>
      <trkpt lat="42.88246" lon="0.02979">
        <ele>894.6</ele>
        <time>2020-12-05T15:35:09.068Z</time>
      </trkpt>
      <trkpt lat="42.88256" lon="0.02992">
        <ele>896</ele>
        <time>2020-12-05T15:35:10.068Z</time>
      </trkpt>
      <trkpt lat="42.88256" lon="0.02992">
        <ele>896</ele>
        <time>2020-12-05T15:35:11.068Z</time>
      </trkpt>
      <trkpt lat="42.88256" lon="0.02992">
        <ele>896</ele>
        <time>2020-12-05T15:35:12.068Z</time>
      </trkpt>
      <trkpt lat="42.88256" lon="0.02992">
        <ele>896</ele>
        <time>2020-12-05T15:35:13.068Z</time>
      </trkpt>
      <trkpt lat="42.88262" lon="0.02998">
        <ele>896.8</ele>
        <time>2020-12-05T15:35:14.067Z</time>
      </trkpt>
      <trkpt lat="42.88262" lon="0.02998">
        <ele>896.8</ele>
        <time>2020-12-05T15:35:15.068Z</time>
      </trkpt>
      <trkpt lat="42.88265" lon="0.03001">
        <ele>897.2</ele>
        <time>2020-12-05T15:35:16.068Z</time>
      </trkpt>
      <trkpt lat="42.88265" lon="0.03001">
        <ele>897.2</ele>
        <time>2020-12-05T15:35:17.067Z</time>
      </trkpt>
      <trkpt lat="42.88265" lon="0.03001">
        <ele>897.2</ele>
        <time>2020-12-05T15:35:18.068Z</time>
      </trkpt>
      <trkpt lat="42.88265" lon="0.03001">
        <ele>897.2</ele>
        <time>2020-12-05T15:35:19.067Z</time>
      </trkpt>
      <trkpt lat="42.88265" lon="0.03001">
        <ele>897.2</ele>
        <time>2020-12-05T15:35:20.067Z</time>
      </trkpt>
      <trkpt lat="42.88265" lon="0.03001">
        <ele>897.2</ele>
        <time>2020-12-05T15:35:21.069Z</time>
      </trkpt>
      <trkpt lat="42.88265" lon="0.03001">
        <ele>897.2</ele>
        <time>2020-12-05T15:35:22.069Z</time>
      </trkpt>
      <trkpt lat="42.88265" lon="0.03001">
        <ele>897.2</ele>
        <time>2020-12-05T15:35:23.067Z</time>
      </trkpt>
      <trkpt lat="42.88265" lon="0.03001">
        <ele>897.2</ele>
        <time>2020-12-05T15:35:24.068Z</time>
      </trkpt>
      <trkpt lat="42.88279" lon="0.03016">
        <ele>898.6</ele>
        <time>2020-12-05T15:35:25.068Z</time>
      </trkpt>
      <trkpt lat="42.88279" lon="0.03016">
        <ele>898.6</ele>
        <time>2020-12-05T15:35:26.068Z</time>
      </trkpt>
      <trkpt lat="42.88279" lon="0.03016">
        <ele>898.6</ele>
        <time>2020-12-05T15:35:27.067Z</time>
      </trkpt>
      <trkpt lat="42.88279" lon="0.03016">
        <ele>898.6</ele>
        <time>2020-12-05T15:35:28.067Z</time>
      </trkpt>
      <trkpt lat="42.88279" lon="0.03016">
        <ele>898.6</ele>
        <time>2020-12-05T15:35:29.068Z</time>
      </trkpt>
      <trkpt lat="42.88279" lon="0.03016">
        <ele>898.6</ele>
        <time>2020-12-05T15:35:30.068Z</time>
      </trkpt>
      <trkpt lat="42.88279" lon="0.03016">
        <ele>898.6</ele>
        <time>2020-12-05T15:35:31.067Z</time>
      </trkpt>
      <trkpt lat="42.88289" lon="0.03028">
        <ele>899.6</ele>
        <time>2020-12-05T15:35:32.068Z</time>
      </trkpt>
      <trkpt lat="42.88289" lon="0.03028">
        <ele>899.6</ele>
        <time>2020-12-05T15:35:33.069Z</time>
      </trkpt>
      <trkpt lat="42.88289" lon="0.03028">
        <ele>899.6</ele>
        <time>2020-12-05T15:35:34.067Z</time>
      </trkpt>
      <trkpt lat="42.88294" lon="0.03034">
        <ele>900.2</ele>
        <time>2020-12-05T15:35:35.069Z</time>
      </trkpt>
      <trkpt lat="42.88296" lon="0.03036">
        <ele>901</ele>
        <time>2020-12-05T15:35:36.068Z</time>
      </trkpt>
      <trkpt lat="42.88296" lon="0.03036">
        <ele>901</ele>
        <time>2020-12-05T15:35:37.067Z</time>
      </trkpt>
      <trkpt lat="42.88296" lon="0.03036">
        <ele>901</ele>
        <time>2020-12-05T15:35:38.067Z</time>
      </trkpt>
      <trkpt lat="42.88296" lon="0.03036">
        <ele>901</ele>
        <time>2020-12-05T15:35:39.069Z</time>
      </trkpt>
      <trkpt lat="42.88296" lon="0.03036">
        <ele>901</ele>
        <time>2020-12-05T15:35:40.068Z</time>
      </trkpt>
      <trkpt lat="42.88296" lon="0.03036">
        <ele>901</ele>
        <time>2020-12-05T15:35:41.069Z</time>
      </trkpt>
      <trkpt lat="42.88296" lon="0.03036">
        <ele>901</ele>
        <time>2020-12-05T15:35:42.069Z</time>
      </trkpt>
      <trkpt lat="42.88305" lon="0.03048">
        <ele>902</ele>
        <time>2020-12-05T15:35:43.07Z</time>
      </trkpt>
      <trkpt lat="42.88305" lon="0.03048">
        <ele>902</ele>
        <time>2020-12-05T15:35:44.067Z</time>
      </trkpt>
      <trkpt lat="42.88305" lon="0.03048">
        <ele>902</ele>
        <time>2020-12-05T15:35:45.068Z</time>
      </trkpt>
      <trkpt lat="42.88309" lon="0.03055">
        <ele>902.6</ele>
        <time>2020-12-05T15:35:46.068Z</time>
      </trkpt>
      <trkpt lat="42.88309" lon="0.03055">
        <ele>902.6</ele>
        <time>2020-12-05T15:35:47.07Z</time>
      </trkpt>
      <trkpt lat="42.88309" lon="0.03055">
        <ele>902.6</ele>
        <time>2020-12-05T15:35:48.067Z</time>
      </trkpt>
      <trkpt lat="42.88313" lon="0.03062">
        <ele>903.2</ele>
        <time>2020-12-05T15:35:49.067Z</time>
      </trkpt>
      <trkpt lat="42.88313" lon="0.03062">
        <ele>903.2</ele>
        <time>2020-12-05T15:35:50.067Z</time>
      </trkpt>
      <trkpt lat="42.88313" lon="0.03062">
        <ele>903.2</ele>
        <time>2020-12-05T15:35:51.067Z</time>
      </trkpt>
      <trkpt lat="42.88313" lon="0.03062">
        <ele>903.2</ele>
        <time>2020-12-05T15:35:52.069Z</time>
      </trkpt>
      <trkpt lat="42.88313" lon="0.03062">
        <ele>903.2</ele>
        <time>2020-12-05T15:35:53.067Z</time>
      </trkpt>
      <trkpt lat="42.88313" lon="0.03062">
        <ele>903.2</ele>
        <time>2020-12-05T15:35:54.067Z</time>
      </trkpt>
      <trkpt lat="42.88313" lon="0.03062">
        <ele>903.2</ele>
        <time>2020-12-05T15:35:55.067Z</time>
      </trkpt>
      <trkpt lat="42.8832" lon="0.03077">
        <ele>904.4</ele>
        <time>2020-12-05T15:35:56.069Z</time>
      </trkpt>
      <trkpt lat="42.88321" lon="0.03082">
        <ele>904.8</ele>
        <time>2020-12-05T15:35:57.067Z</time>
      </trkpt>
      <trkpt lat="42.88321" lon="0.03082">
        <ele>904.8</ele>
        <time>2020-12-05T15:35:58.068Z</time>
      </trkpt>
      <trkpt lat="42.88321" lon="0.03082">
        <ele>904.8</ele>
        <time>2020-12-05T15:35:59.068Z</time>
      </trkpt>
      <trkpt lat="42.88324" lon="0.0309">
        <ele>905.6</ele>
        <time>2020-12-05T15:36:00.069Z</time>
      </trkpt>
      <trkpt lat="42.88324" lon="0.0309">
        <ele>905.6</ele>
        <time>2020-12-05T15:36:01.069Z</time>
      </trkpt>
      <trkpt lat="42.88324" lon="0.0309">
        <ele>905.6</ele>
        <time>2020-12-05T15:36:02.068Z</time>
      </trkpt>
      <trkpt lat="42.88324" lon="0.0309">
        <ele>905.6</ele>
        <time>2020-12-05T15:36:03.069Z</time>
      </trkpt>
      <trkpt lat="42.88324" lon="0.0309">
        <ele>905.6</ele>
        <time>2020-12-05T15:36:04.069Z</time>
      </trkpt>
      <trkpt lat="42.88324" lon="0.0309">
        <ele>905.6</ele>
        <time>2020-12-05T15:36:05.068Z</time>
      </trkpt>
      <trkpt lat="42.88324" lon="0.0309">
        <ele>905.6</ele>
        <time>2020-12-05T15:36:06.069Z</time>
      </trkpt>
      <trkpt lat="42.88329" lon="0.03107">
        <ele>906.4</ele>
        <time>2020-12-05T15:36:07.069Z</time>
      </trkpt>
      <trkpt lat="42.88329" lon="0.03107">
        <ele>906.4</ele>
        <time>2020-12-05T15:36:08.068Z</time>
      </trkpt>
      <trkpt lat="42.8833" lon="0.03111">
        <ele>906.8</ele>
        <time>2020-12-05T15:36:09.069Z</time>
      </trkpt>
      <trkpt lat="42.8833" lon="0.03111">
        <ele>906.8</ele>
        <time>2020-12-05T15:36:10.067Z</time>
      </trkpt>
      <trkpt lat="42.8833" lon="0.03111">
        <ele>906.8</ele>
        <time>2020-12-05T15:36:11.069Z</time>
      </trkpt>
      <trkpt lat="42.8833" lon="0.03111">
        <ele>906.8</ele>
        <time>2020-12-05T15:36:12.068Z</time>
      </trkpt>
      <trkpt lat="42.88332" lon="0.03124">
        <ele>907.8</ele>
        <time>2020-12-05T15:36:13.068Z</time>
      </trkpt>
      <trkpt lat="42.88332" lon="0.03124">
        <ele>907.8</ele>
        <time>2020-12-05T15:36:14.068Z</time>
      </trkpt>
      <trkpt lat="42.88332" lon="0.03128">
        <ele>908.2</ele>
        <time>2020-12-05T15:36:15.068Z</time>
      </trkpt>
      <trkpt lat="42.88332" lon="0.03128">
        <ele>908.2</ele>
        <time>2020-12-05T15:36:16.067Z</time>
      </trkpt>
      <trkpt lat="42.88332" lon="0.03128">
        <ele>908.2</ele>
        <time>2020-12-05T15:36:17.07Z</time>
      </trkpt>
      <trkpt lat="42.88332" lon="0.03128">
        <ele>908.2</ele>
        <time>2020-12-05T15:36:18.068Z</time>
      </trkpt>
      <trkpt lat="42.88332" lon="0.03128">
        <ele>908.2</ele>
        <time>2020-12-05T15:36:19.068Z</time>
      </trkpt>
      <trkpt lat="42.88332" lon="0.03142">
        <ele>909</ele>
        <time>2020-12-05T15:36:20.068Z</time>
      </trkpt>
      <trkpt lat="42.88332" lon="0.03142">
        <ele>909</ele>
        <time>2020-12-05T15:36:21.068Z</time>
      </trkpt>
      <trkpt lat="42.88332" lon="0.03142">
        <ele>909</ele>
        <time>2020-12-05T15:36:22.068Z</time>
      </trkpt>
      <trkpt lat="42.88332" lon="0.03142">
        <ele>909</ele>
        <time>2020-12-05T15:36:23.069Z</time>
      </trkpt>
      <trkpt lat="42.88332" lon="0.03142">
        <ele>909</ele>
        <time>2020-12-05T15:36:24.068Z</time>
      </trkpt>
      <trkpt lat="42.8833" lon="0.03154">
        <ele>910.2</ele>
        <time>2020-12-05T15:36:25.067Z</time>
      </trkpt>
      <trkpt lat="42.8833" lon="0.03154">
        <ele>910.2</ele>
        <time>2020-12-05T15:36:26.068Z</time>
      </trkpt>
      <trkpt lat="42.8833" lon="0.03154">
        <ele>910.2</ele>
        <time>2020-12-05T15:36:27.067Z</time>
      </trkpt>
      <trkpt lat="42.8833" lon="0.03154">
        <ele>910.2</ele>
        <time>2020-12-05T15:36:28.067Z</time>
      </trkpt>
      <trkpt lat="42.8833" lon="0.03154">
        <ele>910.2</ele>
        <time>2020-12-05T15:36:29.068Z</time>
      </trkpt>
      <trkpt lat="42.8833" lon="0.03154">
        <ele>910.2</ele>
        <time>2020-12-05T15:36:30.068Z</time>
      </trkpt>
      <trkpt lat="42.8833" lon="0.03154">
        <ele>910.2</ele>
        <time>2020-12-05T15:36:31.067Z</time>
      </trkpt>
      <trkpt lat="42.88326" lon="0.03171">
        <ele>911.4</ele>
        <time>2020-12-05T15:36:32.068Z</time>
      </trkpt>
      <trkpt lat="42.88325" lon="0.03175">
        <ele>911.6</ele>
        <time>2020-12-05T15:36:33.067Z</time>
      </trkpt>
      <trkpt lat="42.88325" lon="0.03175">
        <ele>911.6</ele>
        <time>2020-12-05T15:36:34.07Z</time>
      </trkpt>
      <trkpt lat="42.88325" lon="0.03175">
        <ele>911.6</ele>
        <time>2020-12-05T15:36:35.068Z</time>
      </trkpt>
      <trkpt lat="42.88322" lon="0.03183">
        <ele>912.4</ele>
        <time>2020-12-05T15:36:36.068Z</time>
      </trkpt>
      <trkpt lat="42.88322" lon="0.03183">
        <ele>912.4</ele>
        <time>2020-12-05T15:36:37.067Z</time>
      </trkpt>
      <trkpt lat="42.88322" lon="0.03183">
        <ele>912.4</ele>
        <time>2020-12-05T15:36:38.068Z</time>
      </trkpt>
      <trkpt lat="42.88322" lon="0.03183">
        <ele>912.4</ele>
        <time>2020-12-05T15:36:39.069Z</time>
      </trkpt>
      <trkpt lat="42.88322" lon="0.03183">
        <ele>912.4</ele>
        <time>2020-12-05T15:36:40.068Z</time>
      </trkpt>
      <trkpt lat="42.88322" lon="0.03183">
        <ele>912.4</ele>
        <time>2020-12-05T15:36:41.069Z</time>
      </trkpt>
      <trkpt lat="42.88316" lon="0.03194">
        <ele>913.4</ele>
        <time>2020-12-05T15:36:42.069Z</time>
      </trkpt>
      <trkpt lat="42.88316" lon="0.03194">
        <ele>913.4</ele>
        <time>2020-12-05T15:36:43.069Z</time>
      </trkpt>
      <trkpt lat="42.88316" lon="0.03194">
        <ele>913.4</ele>
        <time>2020-12-05T15:36:44.067Z</time>
      </trkpt>
      <trkpt lat="42.88316" lon="0.03194">
        <ele>913.4</ele>
        <time>2020-12-05T15:36:45.069Z</time>
      </trkpt>
      <trkpt lat="42.88316" lon="0.03194">
        <ele>913.4</ele>
        <time>2020-12-05T15:36:46.069Z</time>
      </trkpt>
      <trkpt lat="42.88311" lon="0.03207">
        <ele>914.4</ele>
        <time>2020-12-05T15:36:47.069Z</time>
      </trkpt>
      <trkpt lat="42.88311" lon="0.03207">
        <ele>914.4</ele>
        <time>2020-12-05T15:36:48.067Z</time>
      </trkpt>
      <trkpt lat="42.88309" lon="0.0321">
        <ele>914.6</ele>
        <time>2020-12-05T15:36:49.068Z</time>
      </trkpt>
      <trkpt lat="42.88309" lon="0.0321">
        <ele>914.6</ele>
        <time>2020-12-05T15:36:50.068Z</time>
      </trkpt>
      <trkpt lat="42.88309" lon="0.0321">
        <ele>914.6</ele>
        <time>2020-12-05T15:36:51.068Z</time>
      </trkpt>
      <trkpt lat="42.88309" lon="0.0321">
        <ele>914.6</ele>
        <time>2020-12-05T15:36:52.068Z</time>
      </trkpt>
      <trkpt lat="42.88309" lon="0.0321">
        <ele>914.6</ele>
        <time>2020-12-05T15:36:53.069Z</time>
      </trkpt>
      <trkpt lat="42.88309" lon="0.0321">
        <ele>914.6</ele>
        <time>2020-12-05T15:36:54.067Z</time>
      </trkpt>
      <trkpt lat="42.88309" lon="0.0321">
        <ele>914.6</ele>
        <time>2020-12-05T15:36:55.068Z</time>
      </trkpt>
      <trkpt lat="42.88301" lon="0.03225">
        <ele>915.8</ele>
        <time>2020-12-05T15:36:56.067Z</time>
      </trkpt>
      <trkpt lat="42.88301" lon="0.03225">
        <ele>915.8</ele>
        <time>2020-12-05T15:36:57.068Z</time>
      </trkpt>
      <trkpt lat="42.883" lon="0.0323">
        <ele>916.2</ele>
        <time>2020-12-05T15:36:58.067Z</time>
      </trkpt>
      <trkpt lat="42.883" lon="0.0323">
        <ele>916.2</ele>
        <time>2020-12-05T15:36:59.068Z</time>
      </trkpt>
      <trkpt lat="42.883" lon="0.0323">
        <ele>916.2</ele>
        <time>2020-12-05T15:37:00.067Z</time>
      </trkpt>
      <trkpt lat="42.883" lon="0.0323">
        <ele>916.2</ele>
        <time>2020-12-05T15:37:01.067Z</time>
      </trkpt>
      <trkpt lat="42.883" lon="0.0323">
        <ele>916.2</ele>
        <time>2020-12-05T15:37:02.068Z</time>
      </trkpt>
      <trkpt lat="42.88298" lon="0.03243">
        <ele>917</ele>
        <time>2020-12-05T15:37:03.068Z</time>
      </trkpt>
      <trkpt lat="42.88298" lon="0.03243">
        <ele>917</ele>
        <time>2020-12-05T15:37:04.068Z</time>
      </trkpt>
      <trkpt lat="42.88298" lon="0.03243">
        <ele>917</ele>
        <time>2020-12-05T15:37:05.067Z</time>
      </trkpt>
      <trkpt lat="42.88298" lon="0.03243">
        <ele>917</ele>
        <time>2020-12-05T15:37:06.067Z</time>
      </trkpt>
      <trkpt lat="42.88298" lon="0.03243">
        <ele>917</ele>
        <time>2020-12-05T15:37:07.067Z</time>
      </trkpt>
      <trkpt lat="42.88296" lon="0.03257">
        <ele>918.2</ele>
        <time>2020-12-05T15:37:08.068Z</time>
      </trkpt>
      <trkpt lat="42.88296" lon="0.03257">
        <ele>918.2</ele>
        <time>2020-12-05T15:37:09.067Z</time>
      </trkpt>
      <trkpt lat="42.88296" lon="0.03257">
        <ele>918.2</ele>
        <time>2020-12-05T15:37:10.068Z</time>
      </trkpt>
      <trkpt lat="42.88296" lon="0.03257">
        <ele>918.2</ele>
        <time>2020-12-05T15:37:11.068Z</time>
      </trkpt>
      <trkpt lat="42.88296" lon="0.03257">
        <ele>918.2</ele>
        <time>2020-12-05T15:37:12.068Z</time>
      </trkpt>
      <trkpt lat="42.88296" lon="0.03257">
        <ele>918.2</ele>
        <time>2020-12-05T15:37:13.069Z</time>
      </trkpt>
      <trkpt lat="42.88293" lon="0.0327">
        <ele>919.2</ele>
        <time>2020-12-05T15:37:14.068Z</time>
      </trkpt>
      <trkpt lat="42.88293" lon="0.0327">
        <ele>919.2</ele>
        <time>2020-12-05T15:37:15.067Z</time>
      </trkpt>
      <trkpt lat="42.88293" lon="0.0327">
        <ele>919.2</ele>
        <time>2020-12-05T15:37:16.07Z</time>
      </trkpt>
      <trkpt lat="42.88293" lon="0.0327">
        <ele>919.2</ele>
        <time>2020-12-05T15:37:17.069Z</time>
      </trkpt>
      <trkpt lat="42.88293" lon="0.0327">
        <ele>919.2</ele>
        <time>2020-12-05T15:37:18.067Z</time>
      </trkpt>
      <trkpt lat="42.88291" lon="0.03283">
        <ele>920.4</ele>
        <time>2020-12-05T15:37:19.068Z</time>
      </trkpt>
      <trkpt lat="42.88291" lon="0.03283">
        <ele>920.4</ele>
        <time>2020-12-05T15:37:20.067Z</time>
      </trkpt>
      <trkpt lat="42.88291" lon="0.03283">
        <ele>920.4</ele>
        <time>2020-12-05T15:37:21.069Z</time>
      </trkpt>
      <trkpt lat="42.88291" lon="0.03283">
        <ele>920.4</ele>
        <time>2020-12-05T15:37:22.067Z</time>
      </trkpt>
      <trkpt lat="42.88291" lon="0.03283">
        <ele>920.4</ele>
        <time>2020-12-05T15:37:23.067Z</time>
      </trkpt>
      <trkpt lat="42.88291" lon="0.03283">
        <ele>920.4</ele>
        <time>2020-12-05T15:37:24.068Z</time>
      </trkpt>
      <trkpt lat="42.88289" lon="0.03299">
        <ele>921.4</ele>
        <time>2020-12-05T15:37:25.068Z</time>
      </trkpt>
      <trkpt lat="42.88289" lon="0.03299">
        <ele>921.4</ele>
        <time>2020-12-05T15:37:26.069Z</time>
      </trkpt>
      <trkpt lat="42.88289" lon="0.03304">
        <ele>922</ele>
        <time>2020-12-05T15:37:27.068Z</time>
      </trkpt>
      <trkpt lat="42.88289" lon="0.03304">
        <ele>922</ele>
        <time>2020-12-05T15:37:28.068Z</time>
      </trkpt>
      <trkpt lat="42.88289" lon="0.03304">
        <ele>922</ele>
        <time>2020-12-05T15:37:29.069Z</time>
      </trkpt>
      <trkpt lat="42.88289" lon="0.03313">
        <ele>922.6</ele>
        <time>2020-12-05T15:37:30.069Z</time>
      </trkpt>
      <trkpt lat="42.88289" lon="0.03313">
        <ele>922.6</ele>
        <time>2020-12-05T15:37:31.068Z</time>
      </trkpt>
      <trkpt lat="42.88289" lon="0.03313">
        <ele>922.6</ele>
        <time>2020-12-05T15:37:32.067Z</time>
      </trkpt>
      <trkpt lat="42.88289" lon="0.03313">
        <ele>922.6</ele>
        <time>2020-12-05T15:37:33.069Z</time>
      </trkpt>
      <trkpt lat="42.88289" lon="0.03313">
        <ele>922.6</ele>
        <time>2020-12-05T15:37:34.069Z</time>
      </trkpt>
      <trkpt lat="42.88289" lon="0.03313">
        <ele>922.6</ele>
        <time>2020-12-05T15:37:35.067Z</time>
      </trkpt>
      <trkpt lat="42.88289" lon="0.03313">
        <ele>922.6</ele>
        <time>2020-12-05T15:37:36.067Z</time>
      </trkpt>
      <trkpt lat="42.88289" lon="0.03313">
        <ele>922.6</ele>
        <time>2020-12-05T15:37:37.069Z</time>
      </trkpt>
      <trkpt lat="42.88288" lon="0.03332">
        <ele>923.4</ele>
        <time>2020-12-05T15:37:38.068Z</time>
      </trkpt>
      <trkpt lat="42.88289" lon="0.03336">
        <ele>923.6</ele>
        <time>2020-12-05T15:37:39.068Z</time>
      </trkpt>
      <trkpt lat="42.88289" lon="0.03336">
        <ele>923.6</ele>
        <time>2020-12-05T15:37:40.067Z</time>
      </trkpt>
      <trkpt lat="42.88289" lon="0.03336">
        <ele>923.6</ele>
        <time>2020-12-05T15:37:41.068Z</time>
      </trkpt>
      <trkpt lat="42.88289" lon="0.03336">
        <ele>923.6</ele>
        <time>2020-12-05T15:37:42.07Z</time>
      </trkpt>
      <trkpt lat="42.88289" lon="0.03336">
        <ele>923.6</ele>
        <time>2020-12-05T15:37:43.069Z</time>
      </trkpt>
      <trkpt lat="42.88289" lon="0.03336">
        <ele>923.6</ele>
        <time>2020-12-05T15:37:44.069Z</time>
      </trkpt>
      <trkpt lat="42.88289" lon="0.03336">
        <ele>923.6</ele>
        <time>2020-12-05T15:37:45.069Z</time>
      </trkpt>
      <trkpt lat="42.88288" lon="0.03353">
        <ele>924.6</ele>
        <time>2020-12-05T15:37:46.069Z</time>
      </trkpt>
      <trkpt lat="42.88288" lon="0.03353">
        <ele>924.6</ele>
        <time>2020-12-05T15:37:47.07Z</time>
      </trkpt>
      <trkpt lat="42.88288" lon="0.03353">
        <ele>924.6</ele>
        <time>2020-12-05T15:37:48.068Z</time>
      </trkpt>
      <trkpt lat="42.88288" lon="0.03353">
        <ele>924.6</ele>
        <time>2020-12-05T15:37:49.067Z</time>
      </trkpt>
      <trkpt lat="42.88288" lon="0.03353">
        <ele>924.6</ele>
        <time>2020-12-05T15:37:50.068Z</time>
      </trkpt>
      <trkpt lat="42.88288" lon="0.03353">
        <ele>924.6</ele>
        <time>2020-12-05T15:37:51.067Z</time>
      </trkpt>
      <trkpt lat="42.88288" lon="0.03353">
        <ele>924.6</ele>
        <time>2020-12-05T15:37:52.067Z</time>
      </trkpt>
      <trkpt lat="42.88287" lon="0.03372">
        <ele>925.6</ele>
        <time>2020-12-05T15:37:53.07Z</time>
      </trkpt>
      <trkpt lat="42.88287" lon="0.03372">
        <ele>925.6</ele>
        <time>2020-12-05T15:37:54.068Z</time>
      </trkpt>
      <trkpt lat="42.88287" lon="0.03372">
        <ele>925.6</ele>
        <time>2020-12-05T15:37:55.067Z</time>
      </trkpt>
      <trkpt lat="42.88288" lon="0.03381">
        <ele>926.4</ele>
        <time>2020-12-05T15:37:56.067Z</time>
      </trkpt>
      <trkpt lat="42.88288" lon="0.03381">
        <ele>926.4</ele>
        <time>2020-12-05T15:37:57.069Z</time>
      </trkpt>
      <trkpt lat="42.88289" lon="0.03385">
        <ele>926.8</ele>
        <time>2020-12-05T15:37:58.069Z</time>
      </trkpt>
      <trkpt lat="42.88289" lon="0.03385">
        <ele>926.8</ele>
        <time>2020-12-05T15:37:59.068Z</time>
      </trkpt>
      <trkpt lat="42.88289" lon="0.03385">
        <ele>926.8</ele>
        <time>2020-12-05T15:38:00.069Z</time>
      </trkpt>
      <trkpt lat="42.88289" lon="0.03385">
        <ele>926.8</ele>
        <time>2020-12-05T15:38:01.068Z</time>
      </trkpt>
      <trkpt lat="42.88289" lon="0.03385">
        <ele>926.8</ele>
        <time>2020-12-05T15:38:02.067Z</time>
      </trkpt>
      <trkpt lat="42.88289" lon="0.03385">
        <ele>926.8</ele>
        <time>2020-12-05T15:38:03.068Z</time>
      </trkpt>
      <trkpt lat="42.88289" lon="0.034">
        <ele>928</ele>
        <time>2020-12-05T15:38:04.07Z</time>
      </trkpt>
      <trkpt lat="42.88289" lon="0.034">
        <ele>928</ele>
        <time>2020-12-05T15:38:05.068Z</time>
      </trkpt>
      <trkpt lat="42.88289" lon="0.034">
        <ele>928</ele>
        <time>2020-12-05T15:38:06.067Z</time>
      </trkpt>
      <trkpt lat="42.88288" lon="0.0341">
        <ele>928.8</ele>
        <time>2020-12-05T15:38:07.067Z</time>
      </trkpt>
      <trkpt lat="42.88288" lon="0.0341">
        <ele>928.8</ele>
        <time>2020-12-05T15:38:08.068Z</time>
      </trkpt>
      <trkpt lat="42.88288" lon="0.03414">
        <ele>929</ele>
        <time>2020-12-05T15:38:09.068Z</time>
      </trkpt>
      <trkpt lat="42.88288" lon="0.03414">
        <ele>929</ele>
        <time>2020-12-05T15:38:10.067Z</time>
      </trkpt>
      <trkpt lat="42.88288" lon="0.03414">
        <ele>929</ele>
        <time>2020-12-05T15:38:11.067Z</time>
      </trkpt>
      <trkpt lat="42.88288" lon="0.03414">
        <ele>929</ele>
        <time>2020-12-05T15:38:12.068Z</time>
      </trkpt>
      <trkpt lat="42.88288" lon="0.03414">
        <ele>929</ele>
        <time>2020-12-05T15:38:13.067Z</time>
      </trkpt>
      <trkpt lat="42.88288" lon="0.03427">
        <ele>930</ele>
        <time>2020-12-05T15:38:14.068Z</time>
      </trkpt>
      <trkpt lat="42.88288" lon="0.03427">
        <ele>930</ele>
        <time>2020-12-05T15:38:15.067Z</time>
      </trkpt>
      <trkpt lat="42.88288" lon="0.03427">
        <ele>930</ele>
        <time>2020-12-05T15:38:16.068Z</time>
      </trkpt>
      <trkpt lat="42.88288" lon="0.03427">
        <ele>930</ele>
        <time>2020-12-05T15:38:17.069Z</time>
      </trkpt>
      <trkpt lat="42.88288" lon="0.03427">
        <ele>930</ele>
        <time>2020-12-05T15:38:18.068Z</time>
      </trkpt>
      <trkpt lat="42.88287" lon="0.03439">
        <ele>931</ele>
        <time>2020-12-05T15:38:19.07Z</time>
      </trkpt>
      <trkpt lat="42.88287" lon="0.03444">
        <ele>931.4</ele>
        <time>2020-12-05T15:38:20.068Z</time>
      </trkpt>
      <trkpt lat="42.88287" lon="0.03444">
        <ele>931.4</ele>
        <time>2020-12-05T15:38:21.069Z</time>
      </trkpt>
      <trkpt lat="42.88287" lon="0.03444">
        <ele>931.4</ele>
        <time>2020-12-05T15:38:22.068Z</time>
      </trkpt>
      <trkpt lat="42.88287" lon="0.03444">
        <ele>931.4</ele>
        <time>2020-12-05T15:38:23.067Z</time>
      </trkpt>
      <trkpt lat="42.88287" lon="0.03444">
        <ele>931.4</ele>
        <time>2020-12-05T15:38:24.068Z</time>
      </trkpt>
      <trkpt lat="42.88287" lon="0.03444">
        <ele>931.4</ele>
        <time>2020-12-05T15:38:25.068Z</time>
      </trkpt>
      <trkpt lat="42.88287" lon="0.03444">
        <ele>931.4</ele>
        <time>2020-12-05T15:38:26.069Z</time>
      </trkpt>
      <trkpt lat="42.88285" lon="0.0346">
        <ele>932.4</ele>
        <time>2020-12-05T15:38:27.067Z</time>
      </trkpt>
      <trkpt lat="42.88285" lon="0.0346">
        <ele>932.4</ele>
        <time>2020-12-05T15:38:28.069Z</time>
      </trkpt>
      <trkpt lat="42.88285" lon="0.0346">
        <ele>932.4</ele>
        <time>2020-12-05T15:38:29.07Z</time>
      </trkpt>
      <trkpt lat="42.88282" lon="0.03469">
        <ele>932.8</ele>
        <time>2020-12-05T15:38:30.068Z</time>
      </trkpt>
      <trkpt lat="42.88282" lon="0.03469">
        <ele>932.8</ele>
        <time>2020-12-05T15:38:31.068Z</time>
      </trkpt>
      <trkpt lat="42.88282" lon="0.03469">
        <ele>932.8</ele>
        <time>2020-12-05T15:38:32.068Z</time>
      </trkpt>
      <trkpt lat="42.88282" lon="0.03469">
        <ele>932.8</ele>
        <time>2020-12-05T15:38:33.068Z</time>
      </trkpt>
      <trkpt lat="42.88282" lon="0.03469">
        <ele>932.8</ele>
        <time>2020-12-05T15:38:34.068Z</time>
      </trkpt>
      <trkpt lat="42.88279" lon="0.03481">
        <ele>933.6</ele>
        <time>2020-12-05T15:38:35.069Z</time>
      </trkpt>
      <trkpt lat="42.88279" lon="0.03481">
        <ele>933.6</ele>
        <time>2020-12-05T15:38:36.069Z</time>
      </trkpt>
      <trkpt lat="42.88279" lon="0.03481">
        <ele>933.6</ele>
        <time>2020-12-05T15:38:37.067Z</time>
      </trkpt>
      <trkpt lat="42.88279" lon="0.03481">
        <ele>933.6</ele>
        <time>2020-12-05T15:38:38.07Z</time>
      </trkpt>
      <trkpt lat="42.88279" lon="0.03481">
        <ele>933.6</ele>
        <time>2020-12-05T15:38:39.068Z</time>
      </trkpt>
      <trkpt lat="42.88276" lon="0.03494">
        <ele>934.4</ele>
        <time>2020-12-05T15:38:40.068Z</time>
      </trkpt>
      <trkpt lat="42.88276" lon="0.03494">
        <ele>934.4</ele>
        <time>2020-12-05T15:38:41.069Z</time>
      </trkpt>
      <trkpt lat="42.88274" lon="0.03498">
        <ele>934.8</ele>
        <time>2020-12-05T15:38:42.068Z</time>
      </trkpt>
      <trkpt lat="42.88274" lon="0.03498">
        <ele>934.8</ele>
        <time>2020-12-05T15:38:43.068Z</time>
      </trkpt>
      <trkpt lat="42.88274" lon="0.03498">
        <ele>934.8</ele>
        <time>2020-12-05T15:38:44.068Z</time>
      </trkpt>
      <trkpt lat="42.88274" lon="0.03498">
        <ele>934.8</ele>
        <time>2020-12-05T15:38:45.069Z</time>
      </trkpt>
      <trkpt lat="42.88274" lon="0.03498">
        <ele>934.8</ele>
        <time>2020-12-05T15:38:46.067Z</time>
      </trkpt>
      <trkpt lat="42.8827" lon="0.03511">
        <ele>935.8</ele>
        <time>2020-12-05T15:38:47.068Z</time>
      </trkpt>
      <trkpt lat="42.8827" lon="0.03511">
        <ele>935.8</ele>
        <time>2020-12-05T15:38:48.067Z</time>
      </trkpt>
      <trkpt lat="42.8827" lon="0.03511">
        <ele>935.8</ele>
        <time>2020-12-05T15:38:49.069Z</time>
      </trkpt>
      <trkpt lat="42.8827" lon="0.03511">
        <ele>935.8</ele>
        <time>2020-12-05T15:38:50.069Z</time>
      </trkpt>
      <trkpt lat="42.8827" lon="0.03511">
        <ele>935.8</ele>
        <time>2020-12-05T15:38:51.068Z</time>
      </trkpt>
      <trkpt lat="42.88267" lon="0.03525">
        <ele>936.8</ele>
        <time>2020-12-05T15:38:52.068Z</time>
      </trkpt>
      <trkpt lat="42.88267" lon="0.03525">
        <ele>936.8</ele>
        <time>2020-12-05T15:38:53.067Z</time>
      </trkpt>
      <trkpt lat="42.88267" lon="0.03529">
        <ele>937</ele>
        <time>2020-12-05T15:38:54.067Z</time>
      </trkpt>
      <trkpt lat="42.88267" lon="0.03529">
        <ele>937</ele>
        <time>2020-12-05T15:38:55.07Z</time>
      </trkpt>
      <trkpt lat="42.88267" lon="0.03529">
        <ele>937</ele>
        <time>2020-12-05T15:38:56.068Z</time>
      </trkpt>
      <trkpt lat="42.88267" lon="0.03529">
        <ele>937</ele>
        <time>2020-12-05T15:38:57.068Z</time>
      </trkpt>
      <trkpt lat="42.88267" lon="0.03529">
        <ele>937</ele>
        <time>2020-12-05T15:38:58.069Z</time>
      </trkpt>
      <trkpt lat="42.88266" lon="0.03542">
        <ele>938</ele>
        <time>2020-12-05T15:38:59.07Z</time>
      </trkpt>
      <trkpt lat="42.88266" lon="0.03542">
        <ele>938</ele>
        <time>2020-12-05T15:39:00.067Z</time>
      </trkpt>
      <trkpt lat="42.88266" lon="0.03542">
        <ele>938</ele>
        <time>2020-12-05T15:39:01.068Z</time>
      </trkpt>
      <trkpt lat="42.88266" lon="0.03542">
        <ele>938</ele>
        <time>2020-12-05T15:39:02.069Z</time>
      </trkpt>
      <trkpt lat="42.88266" lon="0.03542">
        <ele>938</ele>
        <time>2020-12-05T15:39:03.067Z</time>
      </trkpt>
      <trkpt lat="42.88265" lon="0.03555">
        <ele>939</ele>
        <time>2020-12-05T15:39:04.068Z</time>
      </trkpt>
      <trkpt lat="42.88265" lon="0.03555">
        <ele>939</ele>
        <time>2020-12-05T15:39:05.069Z</time>
      </trkpt>
      <trkpt lat="42.88265" lon="0.03555">
        <ele>939</ele>
        <time>2020-12-05T15:39:06.069Z</time>
      </trkpt>
      <trkpt lat="42.88265" lon="0.03555">
        <ele>939</ele>
        <time>2020-12-05T15:39:07.069Z</time>
      </trkpt>
      <trkpt lat="42.88265" lon="0.03555">
        <ele>939</ele>
        <time>2020-12-05T15:39:08.068Z</time>
      </trkpt>
      <trkpt lat="42.88265" lon="0.03555">
        <ele>939</ele>
        <time>2020-12-05T15:39:09.067Z</time>
      </trkpt>
      <trkpt lat="42.88265" lon="0.03555">
        <ele>939</ele>
        <time>2020-12-05T15:39:10.068Z</time>
      </trkpt>
      <trkpt lat="42.88264" lon="0.03573">
        <ele>940</ele>
        <time>2020-12-05T15:39:11.067Z</time>
      </trkpt>
      <trkpt lat="42.88264" lon="0.03573">
        <ele>940</ele>
        <time>2020-12-05T15:39:12.07Z</time>
      </trkpt>
      <trkpt lat="42.88264" lon="0.03573">
        <ele>940</ele>
        <time>2020-12-05T15:39:13.067Z</time>
      </trkpt>
      <trkpt lat="42.88264" lon="0.03573">
        <ele>940</ele>
        <time>2020-12-05T15:39:14.068Z</time>
      </trkpt>
      <trkpt lat="42.88264" lon="0.03573">
        <ele>940</ele>
        <time>2020-12-05T15:39:15.068Z</time>
      </trkpt>
      <trkpt lat="42.88264" lon="0.03587">
        <ele>941.2</ele>
        <time>2020-12-05T15:39:16.07Z</time>
      </trkpt>
      <trkpt lat="42.88264" lon="0.03587">
        <ele>941.2</ele>
        <time>2020-12-05T15:39:17.068Z</time>
      </trkpt>
      <trkpt lat="42.88264" lon="0.03587">
        <ele>941.2</ele>
        <time>2020-12-05T15:39:18.069Z</time>
      </trkpt>
      <trkpt lat="42.88264" lon="0.03587">
        <ele>941.2</ele>
        <time>2020-12-05T15:39:19.069Z</time>
      </trkpt>
      <trkpt lat="42.88264" lon="0.03587">
        <ele>941.2</ele>
        <time>2020-12-05T15:39:20.07Z</time>
      </trkpt>
      <trkpt lat="42.88264" lon="0.03587">
        <ele>941.2</ele>
        <time>2020-12-05T15:39:21.068Z</time>
      </trkpt>
      <trkpt lat="42.88264" lon="0.03587">
        <ele>941.2</ele>
        <time>2020-12-05T15:39:22.068Z</time>
      </trkpt>
      <trkpt lat="42.88265" lon="0.03605">
        <ele>942.4</ele>
        <time>2020-12-05T15:39:23.068Z</time>
      </trkpt>
      <trkpt lat="42.88265" lon="0.03605">
        <ele>942.4</ele>
        <time>2020-12-05T15:39:24.067Z</time>
      </trkpt>
      <trkpt lat="42.88265" lon="0.03605">
        <ele>942.4</ele>
        <time>2020-12-05T15:39:25.067Z</time>
      </trkpt>
      <trkpt lat="42.88265" lon="0.03605">
        <ele>942.4</ele>
        <time>2020-12-05T15:39:26.068Z</time>
      </trkpt>
      <trkpt lat="42.88265" lon="0.03605">
        <ele>942.4</ele>
        <time>2020-12-05T15:39:27.068Z</time>
      </trkpt>
      <trkpt lat="42.88265" lon="0.03605">
        <ele>942.4</ele>
        <time>2020-12-05T15:39:28.069Z</time>
      </trkpt>
      <trkpt lat="42.88264" lon="0.03622">
        <ele>943.4</ele>
        <time>2020-12-05T15:39:29.067Z</time>
      </trkpt>
      <trkpt lat="42.88264" lon="0.03622">
        <ele>943.4</ele>
        <time>2020-12-05T15:39:30.068Z</time>
      </trkpt>
      <trkpt lat="42.88264" lon="0.03622">
        <ele>943.4</ele>
        <time>2020-12-05T15:39:31.069Z</time>
      </trkpt>
      <trkpt lat="42.88264" lon="0.03622">
        <ele>943.4</ele>
        <time>2020-12-05T15:39:32.067Z</time>
      </trkpt>
      <trkpt lat="42.88264" lon="0.03622">
        <ele>943.4</ele>
        <time>2020-12-05T15:39:33.068Z</time>
      </trkpt>
      <trkpt lat="42.88264" lon="0.03622">
        <ele>943.4</ele>
        <time>2020-12-05T15:39:34.07Z</time>
      </trkpt>
      <trkpt lat="42.88264" lon="0.03622">
        <ele>943.4</ele>
        <time>2020-12-05T15:39:35.07Z</time>
      </trkpt>
      <trkpt lat="42.88265" lon="0.03639">
        <ele>944.6</ele>
        <time>2020-12-05T15:39:36.069Z</time>
      </trkpt>
      <trkpt lat="42.88265" lon="0.03639">
        <ele>944.6</ele>
        <time>2020-12-05T15:39:37.07Z</time>
      </trkpt>
      <trkpt lat="42.88265" lon="0.03639">
        <ele>944.6</ele>
        <time>2020-12-05T15:39:38.069Z</time>
      </trkpt>
      <trkpt lat="42.88265" lon="0.03639">
        <ele>944.6</ele>
        <time>2020-12-05T15:39:39.067Z</time>
      </trkpt>
      <trkpt lat="42.88265" lon="0.03652">
        <ele>945.8</ele>
        <time>2020-12-05T15:39:40.07Z</time>
      </trkpt>
      <trkpt lat="42.88265" lon="0.03652">
        <ele>945.8</ele>
        <time>2020-12-05T15:39:41.069Z</time>
      </trkpt>
      <trkpt lat="42.88265" lon="0.03652">
        <ele>945.8</ele>
        <time>2020-12-05T15:39:42.067Z</time>
      </trkpt>
      <trkpt lat="42.88265" lon="0.03661">
        <ele>947</ele>
        <time>2020-12-05T15:39:43.068Z</time>
      </trkpt>
      <trkpt lat="42.88265" lon="0.03661">
        <ele>947</ele>
        <time>2020-12-05T15:39:44.069Z</time>
      </trkpt>
      <trkpt lat="42.88265" lon="0.03661">
        <ele>947</ele>
        <time>2020-12-05T15:39:45.067Z</time>
      </trkpt>
      <trkpt lat="42.88265" lon="0.03661">
        <ele>947</ele>
        <time>2020-12-05T15:39:46.067Z</time>
      </trkpt>
      <trkpt lat="42.88265" lon="0.03661">
        <ele>947</ele>
        <time>2020-12-05T15:39:47.069Z</time>
      </trkpt>
      <trkpt lat="42.88265" lon="0.03661">
        <ele>947</ele>
        <time>2020-12-05T15:39:48.069Z</time>
      </trkpt>
      <trkpt lat="42.88265" lon="0.03661">
        <ele>947</ele>
        <time>2020-12-05T15:39:49.07Z</time>
      </trkpt>
      <trkpt lat="42.88265" lon="0.03661">
        <ele>947</ele>
        <time>2020-12-05T15:39:50.068Z</time>
      </trkpt>
      <trkpt lat="42.88265" lon="0.03661">
        <ele>947</ele>
        <time>2020-12-05T15:39:51.069Z</time>
      </trkpt>
      <trkpt lat="42.88266" lon="0.03684">
        <ele>948.2</ele>
        <time>2020-12-05T15:39:52.067Z</time>
      </trkpt>
      <trkpt lat="42.88266" lon="0.03688">
        <ele>948.6</ele>
        <time>2020-12-05T15:39:53.068Z</time>
      </trkpt>
      <trkpt lat="42.88266" lon="0.03688">
        <ele>948.6</ele>
        <time>2020-12-05T15:39:54.07Z</time>
      </trkpt>
      <trkpt lat="42.88266" lon="0.03688">
        <ele>948.6</ele>
        <time>2020-12-05T15:39:55.069Z</time>
      </trkpt>
      <trkpt lat="42.88266" lon="0.03688">
        <ele>948.6</ele>
        <time>2020-12-05T15:39:56.068Z</time>
      </trkpt>
      <trkpt lat="42.88267" lon="0.03697">
        <ele>949.4</ele>
        <time>2020-12-05T15:39:57.069Z</time>
      </trkpt>
      <trkpt lat="42.88267" lon="0.03697">
        <ele>949.4</ele>
        <time>2020-12-05T15:39:58.068Z</time>
      </trkpt>
      <trkpt lat="42.88267" lon="0.03697">
        <ele>949.4</ele>
        <time>2020-12-05T15:39:59.068Z</time>
      </trkpt>
      <trkpt lat="42.88267" lon="0.03697">
        <ele>949.4</ele>
        <time>2020-12-05T15:40:00.068Z</time>
      </trkpt>
      <trkpt lat="42.88267" lon="0.03697">
        <ele>949.4</ele>
        <time>2020-12-05T15:40:01.069Z</time>
      </trkpt>
      <trkpt lat="42.88267" lon="0.0371">
        <ele>950.4</ele>
        <time>2020-12-05T15:40:02.068Z</time>
      </trkpt>
      <trkpt lat="42.88267" lon="0.0371">
        <ele>950.4</ele>
        <time>2020-12-05T15:40:03.068Z</time>
      </trkpt>
      <trkpt lat="42.88267" lon="0.0371">
        <ele>950.4</ele>
        <time>2020-12-05T15:40:04.068Z</time>
      </trkpt>
      <trkpt lat="42.88267" lon="0.0371">
        <ele>950.4</ele>
        <time>2020-12-05T15:40:05.069Z</time>
      </trkpt>
      <trkpt lat="42.88267" lon="0.0371">
        <ele>950.4</ele>
        <time>2020-12-05T15:40:06.069Z</time>
      </trkpt>
      <trkpt lat="42.88267" lon="0.0371">
        <ele>950.4</ele>
        <time>2020-12-05T15:40:07.068Z</time>
      </trkpt>
      <trkpt lat="42.88267" lon="0.0371">
        <ele>950.4</ele>
        <time>2020-12-05T15:40:08.068Z</time>
      </trkpt>
      <trkpt lat="42.8827" lon="0.03728">
        <ele>951.6</ele>
        <time>2020-12-05T15:40:09.068Z</time>
      </trkpt>
      <trkpt lat="42.8827" lon="0.03728">
        <ele>951.6</ele>
        <time>2020-12-05T15:40:10.068Z</time>
      </trkpt>
      <trkpt lat="42.88271" lon="0.03733">
        <ele>951.8</ele>
        <time>2020-12-05T15:40:11.068Z</time>
      </trkpt>
      <trkpt lat="42.88271" lon="0.03733">
        <ele>951.8</ele>
        <time>2020-12-05T15:40:12.068Z</time>
      </trkpt>
      <trkpt lat="42.88271" lon="0.03733">
        <ele>951.8</ele>
        <time>2020-12-05T15:40:13.067Z</time>
      </trkpt>
      <trkpt lat="42.88271" lon="0.03733">
        <ele>951.8</ele>
        <time>2020-12-05T15:40:14.07Z</time>
      </trkpt>
      <trkpt lat="42.88271" lon="0.03733">
        <ele>951.8</ele>
        <time>2020-12-05T15:40:15.069Z</time>
      </trkpt>
      <trkpt lat="42.88271" lon="0.03733">
        <ele>951.8</ele>
        <time>2020-12-05T15:40:16.067Z</time>
      </trkpt>
      <trkpt lat="42.88273" lon="0.03746">
        <ele>952.6</ele>
        <time>2020-12-05T15:40:17.068Z</time>
      </trkpt>
      <trkpt lat="42.88273" lon="0.03746">
        <ele>952.6</ele>
        <time>2020-12-05T15:40:18.068Z</time>
      </trkpt>
      <trkpt lat="42.88273" lon="0.03746">
        <ele>952.6</ele>
        <time>2020-12-05T15:40:19.069Z</time>
      </trkpt>
      <trkpt lat="42.88273" lon="0.03746">
        <ele>952.6</ele>
        <time>2020-12-05T15:40:20.07Z</time>
      </trkpt>
      <trkpt lat="42.88273" lon="0.03746">
        <ele>952.6</ele>
        <time>2020-12-05T15:40:21.067Z</time>
      </trkpt>
      <trkpt lat="42.88273" lon="0.03746">
        <ele>952.6</ele>
        <time>2020-12-05T15:40:22.069Z</time>
      </trkpt>
      <trkpt lat="42.88276" lon="0.03759">
        <ele>953.6</ele>
        <time>2020-12-05T15:40:23.069Z</time>
      </trkpt>
      <trkpt lat="42.88277" lon="0.03764">
        <ele>954.2</ele>
        <time>2020-12-05T15:40:24.067Z</time>
      </trkpt>
      <trkpt lat="42.88277" lon="0.03764">
        <ele>954.2</ele>
        <time>2020-12-05T15:40:25.07Z</time>
      </trkpt>
      <trkpt lat="42.88277" lon="0.03764">
        <ele>954.2</ele>
        <time>2020-12-05T15:40:26.068Z</time>
      </trkpt>
      <trkpt lat="42.88277" lon="0.03764">
        <ele>954.2</ele>
        <time>2020-12-05T15:40:27.067Z</time>
      </trkpt>
      <trkpt lat="42.88279" lon="0.03772">
        <ele>954.6</ele>
        <time>2020-12-05T15:40:28.068Z</time>
      </trkpt>
      <trkpt lat="42.88279" lon="0.03772">
        <ele>954.6</ele>
        <time>2020-12-05T15:40:29.068Z</time>
      </trkpt>
      <trkpt lat="42.88279" lon="0.03772">
        <ele>954.6</ele>
        <time>2020-12-05T15:40:30.067Z</time>
      </trkpt>
      <trkpt lat="42.88279" lon="0.03772">
        <ele>954.6</ele>
        <time>2020-12-05T15:40:31.069Z</time>
      </trkpt>
      <trkpt lat="42.88279" lon="0.03772">
        <ele>954.6</ele>
        <time>2020-12-05T15:40:32.067Z</time>
      </trkpt>
      <trkpt lat="42.88279" lon="0.03772">
        <ele>954.6</ele>
        <time>2020-12-05T15:40:33.069Z</time>
      </trkpt>
      <trkpt lat="42.88279" lon="0.03772">
        <ele>954.6</ele>
        <time>2020-12-05T15:40:34.067Z</time>
      </trkpt>
      <trkpt lat="42.88279" lon="0.03772">
        <ele>954.6</ele>
        <time>2020-12-05T15:40:35.068Z</time>
      </trkpt>
      <trkpt lat="42.88284" lon="0.03789">
        <ele>956</ele>
        <time>2020-12-05T15:40:36.069Z</time>
      </trkpt>
      <trkpt lat="42.88284" lon="0.03789">
        <ele>956</ele>
        <time>2020-12-05T15:40:37.068Z</time>
      </trkpt>
      <trkpt lat="42.88284" lon="0.03789">
        <ele>956</ele>
        <time>2020-12-05T15:40:38.067Z</time>
      </trkpt>
      <trkpt lat="42.88284" lon="0.03789">
        <ele>956</ele>
        <time>2020-12-05T15:40:39.068Z</time>
      </trkpt>
      <trkpt lat="42.88284" lon="0.03789">
        <ele>956</ele>
        <time>2020-12-05T15:40:40.069Z</time>
      </trkpt>
      <trkpt lat="42.88284" lon="0.03789">
        <ele>956</ele>
        <time>2020-12-05T15:40:41.067Z</time>
      </trkpt>
      <trkpt lat="42.88284" lon="0.03789">
        <ele>956</ele>
        <time>2020-12-05T15:40:42.069Z</time>
      </trkpt>
      <trkpt lat="42.88289" lon="0.03806">
        <ele>957</ele>
        <time>2020-12-05T15:40:43.068Z</time>
      </trkpt>
      <trkpt lat="42.88289" lon="0.03806">
        <ele>957</ele>
        <time>2020-12-05T15:40:44.069Z</time>
      </trkpt>
      <trkpt lat="42.88289" lon="0.03806">
        <ele>957</ele>
        <time>2020-12-05T15:40:45.068Z</time>
      </trkpt>
      <trkpt lat="42.88289" lon="0.03806">
        <ele>957</ele>
        <time>2020-12-05T15:40:46.07Z</time>
      </trkpt>
      <trkpt lat="42.88289" lon="0.03806">
        <ele>957</ele>
        <time>2020-12-05T15:40:47.068Z</time>
      </trkpt>
      <trkpt lat="42.88289" lon="0.03806">
        <ele>957</ele>
        <time>2020-12-05T15:40:48.067Z</time>
      </trkpt>
      <trkpt lat="42.88294" lon="0.03819">
        <ele>958</ele>
        <time>2020-12-05T15:40:49.067Z</time>
      </trkpt>
      <trkpt lat="42.88294" lon="0.03819">
        <ele>958</ele>
        <time>2020-12-05T15:40:50.07Z</time>
      </trkpt>
      <trkpt lat="42.88294" lon="0.03819">
        <ele>958</ele>
        <time>2020-12-05T15:40:51.068Z</time>
      </trkpt>
      <trkpt lat="42.88294" lon="0.03819">
        <ele>958</ele>
        <time>2020-12-05T15:40:52.067Z</time>
      </trkpt>
      <trkpt lat="42.88294" lon="0.03819">
        <ele>958</ele>
        <time>2020-12-05T15:40:53.069Z</time>
      </trkpt>
      <trkpt lat="42.88294" lon="0.03819">
        <ele>958</ele>
        <time>2020-12-05T15:40:54.068Z</time>
      </trkpt>
      <trkpt lat="42.88294" lon="0.03819">
        <ele>958</ele>
        <time>2020-12-05T15:40:55.067Z</time>
      </trkpt>
      <trkpt lat="42.883" lon="0.03835">
        <ele>959</ele>
        <time>2020-12-05T15:40:56.069Z</time>
      </trkpt>
      <trkpt lat="42.883" lon="0.03835">
        <ele>959</ele>
        <time>2020-12-05T15:40:57.069Z</time>
      </trkpt>
      <trkpt lat="42.883" lon="0.03835">
        <ele>959</ele>
        <time>2020-12-05T15:40:58.068Z</time>
      </trkpt>
      <trkpt lat="42.883" lon="0.03835">
        <ele>959</ele>
        <time>2020-12-05T15:40:59.069Z</time>
      </trkpt>
      <trkpt lat="42.883" lon="0.03835">
        <ele>959</ele>
        <time>2020-12-05T15:41:00.068Z</time>
      </trkpt>
      <trkpt lat="42.883" lon="0.03835">
        <ele>959</ele>
        <time>2020-12-05T15:41:01.069Z</time>
      </trkpt>
      <trkpt lat="42.88305" lon="0.03848">
        <ele>959.8</ele>
        <time>2020-12-05T15:41:02.068Z</time>
      </trkpt>
      <trkpt lat="42.88305" lon="0.03848">
        <ele>959.8</ele>
        <time>2020-12-05T15:41:03.067Z</time>
      </trkpt>
      <trkpt lat="42.88307" lon="0.03852">
        <ele>960</ele>
        <time>2020-12-05T15:41:04.068Z</time>
      </trkpt>
      <trkpt lat="42.88307" lon="0.03852">
        <ele>960</ele>
        <time>2020-12-05T15:41:05.068Z</time>
      </trkpt>
      <trkpt lat="42.88307" lon="0.03852">
        <ele>960</ele>
        <time>2020-12-05T15:41:06.068Z</time>
      </trkpt>
      <trkpt lat="42.88307" lon="0.03852">
        <ele>960</ele>
        <time>2020-12-05T15:41:07.07Z</time>
      </trkpt>
      <trkpt lat="42.88307" lon="0.03852">
        <ele>960</ele>
        <time>2020-12-05T15:41:08.067Z</time>
      </trkpt>
      <trkpt lat="42.88307" lon="0.03852">
        <ele>960</ele>
        <time>2020-12-05T15:41:09.067Z</time>
      </trkpt>
      <trkpt lat="42.88307" lon="0.03852">
        <ele>960</ele>
        <time>2020-12-05T15:41:10.068Z</time>
      </trkpt>
      <trkpt lat="42.88307" lon="0.03852">
        <ele>960</ele>
        <time>2020-12-05T15:41:11.068Z</time>
      </trkpt>
      <trkpt lat="42.88313" lon="0.0387">
        <ele>961.4</ele>
        <time>2020-12-05T15:41:12.068Z</time>
      </trkpt>
      <trkpt lat="42.88313" lon="0.0387">
        <ele>961.4</ele>
        <time>2020-12-05T15:41:13.068Z</time>
      </trkpt>
      <trkpt lat="42.88313" lon="0.0387">
        <ele>961.4</ele>
        <time>2020-12-05T15:41:14.069Z</time>
      </trkpt>
      <trkpt lat="42.88313" lon="0.0387">
        <ele>961.4</ele>
        <time>2020-12-05T15:41:15.068Z</time>
      </trkpt>
      <trkpt lat="42.88317" lon="0.03878">
        <ele>962.2</ele>
        <time>2020-12-05T15:41:16.069Z</time>
      </trkpt>
      <trkpt lat="42.88317" lon="0.03878">
        <ele>962.2</ele>
        <time>2020-12-05T15:41:17.067Z</time>
      </trkpt>
      <trkpt lat="42.88319" lon="0.03883">
        <ele>962.6</ele>
        <time>2020-12-05T15:41:18.069Z</time>
      </trkpt>
      <trkpt lat="42.88319" lon="0.03883">
        <ele>962.6</ele>
        <time>2020-12-05T15:41:19.069Z</time>
      </trkpt>
      <trkpt lat="42.88319" lon="0.03883">
        <ele>962.6</ele>
        <time>2020-12-05T15:41:20.069Z</time>
      </trkpt>
      <trkpt lat="42.88319" lon="0.03883">
        <ele>962.6</ele>
        <time>2020-12-05T15:41:21.067Z</time>
      </trkpt>
      <trkpt lat="42.88319" lon="0.03883">
        <ele>962.6</ele>
        <time>2020-12-05T15:41:22.068Z</time>
      </trkpt>
      <trkpt lat="42.88319" lon="0.03883">
        <ele>962.6</ele>
        <time>2020-12-05T15:41:23.068Z</time>
      </trkpt>
      <trkpt lat="42.88324" lon="0.03896">
        <ele>963.6</ele>
        <time>2020-12-05T15:41:24.067Z</time>
      </trkpt>
      <trkpt lat="42.88324" lon="0.03896">
        <ele>963.6</ele>
        <time>2020-12-05T15:41:25.067Z</time>
      </trkpt>
      <trkpt lat="42.88324" lon="0.03896">
        <ele>963.6</ele>
        <time>2020-12-05T15:41:26.068Z</time>
      </trkpt>
      <trkpt lat="42.88324" lon="0.03896">
        <ele>963.6</ele>
        <time>2020-12-05T15:41:27.069Z</time>
      </trkpt>
      <trkpt lat="42.88324" lon="0.03896">
        <ele>963.6</ele>
        <time>2020-12-05T15:41:28.067Z</time>
      </trkpt>
      <trkpt lat="42.88329" lon="0.03908">
        <ele>964.6</ele>
        <time>2020-12-05T15:41:29.068Z</time>
      </trkpt>
      <trkpt lat="42.88329" lon="0.03908">
        <ele>964.6</ele>
        <time>2020-12-05T15:41:30.067Z</time>
      </trkpt>
      <trkpt lat="42.8833" lon="0.03911">
        <ele>964.4</ele>
        <time>2020-12-05T15:41:31.067Z</time>
      </trkpt>
      <trkpt lat="42.8833" lon="0.03911">
        <ele>964.4</ele>
        <time>2020-12-05T15:41:32.069Z</time>
      </trkpt>
      <trkpt lat="42.8833" lon="0.03911">
        <ele>964.4</ele>
        <time>2020-12-05T15:41:33.068Z</time>
      </trkpt>
      <trkpt lat="42.8833" lon="0.03911">
        <ele>964.4</ele>
        <time>2020-12-05T15:41:34.067Z</time>
      </trkpt>
      <trkpt lat="42.8833" lon="0.03911">
        <ele>964.4</ele>
        <time>2020-12-05T15:41:35.069Z</time>
      </trkpt>
      <trkpt lat="42.8833" lon="0.03911">
        <ele>964.4</ele>
        <time>2020-12-05T15:41:36.067Z</time>
      </trkpt>
      <trkpt lat="42.8833" lon="0.03911">
        <ele>964.4</ele>
        <time>2020-12-05T15:41:37.067Z</time>
      </trkpt>
      <trkpt lat="42.8833" lon="0.03911">
        <ele>964.4</ele>
        <time>2020-12-05T15:41:38.068Z</time>
      </trkpt>
      <trkpt lat="42.88337" lon="0.03927">
        <ele>965.8</ele>
        <time>2020-12-05T15:41:39.067Z</time>
      </trkpt>
      <trkpt lat="42.88337" lon="0.03927">
        <ele>965.8</ele>
        <time>2020-12-05T15:41:40.068Z</time>
      </trkpt>
      <trkpt lat="42.88337" lon="0.03927">
        <ele>965.8</ele>
        <time>2020-12-05T15:41:41.068Z</time>
      </trkpt>
      <trkpt lat="42.88337" lon="0.03927">
        <ele>965.8</ele>
        <time>2020-12-05T15:41:42.067Z</time>
      </trkpt>
      <trkpt lat="42.88337" lon="0.03927">
        <ele>965.8</ele>
        <time>2020-12-05T15:41:43.069Z</time>
      </trkpt>
      <trkpt lat="42.88341" lon="0.03939">
        <ele>967.4</ele>
        <time>2020-12-05T15:41:44.068Z</time>
      </trkpt>
      <trkpt lat="42.88341" lon="0.03939">
        <ele>967.4</ele>
        <time>2020-12-05T15:41:45.067Z</time>
      </trkpt>
      <trkpt lat="42.88341" lon="0.03939">
        <ele>967.4</ele>
        <time>2020-12-05T15:41:46.069Z</time>
      </trkpt>
      <trkpt lat="42.88341" lon="0.03939">
        <ele>967.4</ele>
        <time>2020-12-05T15:41:47.067Z</time>
      </trkpt>
      <trkpt lat="42.88341" lon="0.03939">
        <ele>967.4</ele>
        <time>2020-12-05T15:41:48.068Z</time>
      </trkpt>
      <trkpt lat="42.88341" lon="0.03939">
        <ele>967.4</ele>
        <time>2020-12-05T15:41:49.068Z</time>
      </trkpt>
      <trkpt lat="42.88346" lon="0.03952">
        <ele>968</ele>
        <time>2020-12-05T15:41:50.068Z</time>
      </trkpt>
      <trkpt lat="42.88346" lon="0.03952">
        <ele>968</ele>
        <time>2020-12-05T15:41:51.067Z</time>
      </trkpt>
      <trkpt lat="42.88348" lon="0.03956">
        <ele>968.2</ele>
        <time>2020-12-05T15:41:52.069Z</time>
      </trkpt>
      <trkpt lat="42.88348" lon="0.03956">
        <ele>968.2</ele>
        <time>2020-12-05T15:41:53.069Z</time>
      </trkpt>
      <trkpt lat="42.88348" lon="0.03956">
        <ele>968.2</ele>
        <time>2020-12-05T15:41:54.067Z</time>
      </trkpt>
      <trkpt lat="42.88348" lon="0.03956">
        <ele>968.2</ele>
        <time>2020-12-05T15:41:55.068Z</time>
      </trkpt>
      <trkpt lat="42.88348" lon="0.03956">
        <ele>968.2</ele>
        <time>2020-12-05T15:41:56.068Z</time>
      </trkpt>
      <trkpt lat="42.88348" lon="0.03956">
        <ele>968.2</ele>
        <time>2020-12-05T15:41:57.069Z</time>
      </trkpt>
      <trkpt lat="42.88348" lon="0.03956">
        <ele>968.2</ele>
        <time>2020-12-05T15:41:58.069Z</time>
      </trkpt>
      <trkpt lat="42.88354" lon="0.03971">
        <ele>969.4</ele>
        <time>2020-12-05T15:41:59.068Z</time>
      </trkpt>
      <trkpt lat="42.88356" lon="0.03976">
        <ele>969.6</ele>
        <time>2020-12-05T15:42:00.068Z</time>
      </trkpt>
      <trkpt lat="42.88356" lon="0.03976">
        <ele>969.6</ele>
        <time>2020-12-05T15:42:01.068Z</time>
      </trkpt>
      <trkpt lat="42.88356" lon="0.03976">
        <ele>969.6</ele>
        <time>2020-12-05T15:42:02.068Z</time>
      </trkpt>
      <trkpt lat="42.88356" lon="0.03976">
        <ele>969.6</ele>
        <time>2020-12-05T15:42:03.069Z</time>
      </trkpt>
      <trkpt lat="42.88356" lon="0.03976">
        <ele>969.6</ele>
        <time>2020-12-05T15:42:04.067Z</time>
      </trkpt>
      <trkpt lat="42.88356" lon="0.03976">
        <ele>969.6</ele>
        <time>2020-12-05T15:42:05.067Z</time>
      </trkpt>
      <trkpt lat="42.88361" lon="0.03987">
        <ele>970.8</ele>
        <time>2020-12-05T15:42:06.067Z</time>
      </trkpt>
      <trkpt lat="42.88361" lon="0.03987">
        <ele>970.8</ele>
        <time>2020-12-05T15:42:07.068Z</time>
      </trkpt>
      <trkpt lat="42.88361" lon="0.03987">
        <ele>970.8</ele>
        <time>2020-12-05T15:42:08.067Z</time>
      </trkpt>
      <trkpt lat="42.88364" lon="0.03995">
        <ele>971.4</ele>
        <time>2020-12-05T15:42:09.067Z</time>
      </trkpt>
      <trkpt lat="42.88364" lon="0.03995">
        <ele>971.4</ele>
        <time>2020-12-05T15:42:10.067Z</time>
      </trkpt>
      <trkpt lat="42.88364" lon="0.03995">
        <ele>971.4</ele>
        <time>2020-12-05T15:42:11.07Z</time>
      </trkpt>
      <trkpt lat="42.88364" lon="0.03995">
        <ele>971.4</ele>
        <time>2020-12-05T15:42:12.068Z</time>
      </trkpt>
      <trkpt lat="42.88367" lon="0.04005">
        <ele>971.6</ele>
        <time>2020-12-05T15:42:13.067Z</time>
      </trkpt>
      <trkpt lat="42.88367" lon="0.04005">
        <ele>971.6</ele>
        <time>2020-12-05T15:42:14.069Z</time>
      </trkpt>
      <trkpt lat="42.88367" lon="0.04005">
        <ele>971.6</ele>
        <time>2020-12-05T15:42:15.068Z</time>
      </trkpt>
      <trkpt lat="42.88367" lon="0.04005">
        <ele>971.6</ele>
        <time>2020-12-05T15:42:16.068Z</time>
      </trkpt>
      <trkpt lat="42.88367" lon="0.04005">
        <ele>971.6</ele>
        <time>2020-12-05T15:42:17.069Z</time>
      </trkpt>
      <trkpt lat="42.88367" lon="0.04005">
        <ele>971.6</ele>
        <time>2020-12-05T15:42:18.068Z</time>
      </trkpt>
      <trkpt lat="42.88367" lon="0.04005">
        <ele>971.6</ele>
        <time>2020-12-05T15:42:19.067Z</time>
      </trkpt>
      <trkpt lat="42.88368" lon="0.0402">
        <ele>972.6</ele>
        <time>2020-12-05T15:42:20.069Z</time>
      </trkpt>
      <trkpt lat="42.88368" lon="0.0402">
        <ele>972.6</ele>
        <time>2020-12-05T15:42:21.068Z</time>
      </trkpt>
      <trkpt lat="42.88368" lon="0.0402">
        <ele>972.6</ele>
        <time>2020-12-05T15:42:22.068Z</time>
      </trkpt>
      <trkpt lat="42.88368" lon="0.0402">
        <ele>972.6</ele>
        <time>2020-12-05T15:42:23.068Z</time>
      </trkpt>
      <trkpt lat="42.88368" lon="0.0402">
        <ele>972.6</ele>
        <time>2020-12-05T15:42:24.07Z</time>
      </trkpt>
      <trkpt lat="42.88363" lon="0.04032">
        <ele>973.8</ele>
        <time>2020-12-05T15:42:25.068Z</time>
      </trkpt>
      <trkpt lat="42.88363" lon="0.04032">
        <ele>973.8</ele>
        <time>2020-12-05T15:42:26.067Z</time>
      </trkpt>
      <trkpt lat="42.8836" lon="0.04034">
        <ele>974.2</ele>
        <time>2020-12-05T15:42:27.068Z</time>
      </trkpt>
      <trkpt lat="42.8836" lon="0.04034">
        <ele>974.2</ele>
        <time>2020-12-05T15:42:28.067Z</time>
      </trkpt>
      <trkpt lat="42.8836" lon="0.04034">
        <ele>974.2</ele>
        <time>2020-12-05T15:42:29.068Z</time>
      </trkpt>
      <trkpt lat="42.8836" lon="0.04034">
        <ele>974.2</ele>
        <time>2020-12-05T15:42:30.068Z</time>
      </trkpt>
      <trkpt lat="42.8836" lon="0.04034">
        <ele>974.2</ele>
        <time>2020-12-05T15:42:31.067Z</time>
      </trkpt>
      <trkpt lat="42.8836" lon="0.04034">
        <ele>974.2</ele>
        <time>2020-12-05T15:42:32.07Z</time>
      </trkpt>
      <trkpt lat="42.8836" lon="0.04034">
        <ele>974.2</ele>
        <time>2020-12-05T15:42:33.068Z</time>
      </trkpt>
      <trkpt lat="42.88344" lon="0.04031">
        <ele>975</ele>
        <time>2020-12-05T15:42:34.067Z</time>
      </trkpt>
      <trkpt lat="42.88344" lon="0.04031">
        <ele>975</ele>
        <time>2020-12-05T15:42:35.077Z</time>
      </trkpt>
      <trkpt lat="42.88344" lon="0.04031">
        <ele>975</ele>
        <time>2020-12-05T15:42:36.068Z</time>
      </trkpt>
      <trkpt lat="42.88344" lon="0.04031">
        <ele>975</ele>
        <time>2020-12-05T15:42:37.067Z</time>
      </trkpt>
      <trkpt lat="42.88344" lon="0.04031">
        <ele>975</ele>
        <time>2020-12-05T15:42:38.068Z</time>
      </trkpt>
      <trkpt lat="42.88344" lon="0.04031">
        <ele>975</ele>
        <time>2020-12-05T15:42:39.068Z</time>
      </trkpt>
      <trkpt lat="42.88344" lon="0.04031">
        <ele>975</ele>
        <time>2020-12-05T15:42:40.067Z</time>
      </trkpt>
      <trkpt lat="42.88333" lon="0.04015">
        <ele>975.6</ele>
        <time>2020-12-05T15:42:41.07Z</time>
      </trkpt>
      <trkpt lat="42.88333" lon="0.04015">
        <ele>975.6</ele>
        <time>2020-12-05T15:42:42.068Z</time>
      </trkpt>
      <trkpt lat="42.8833" lon="0.04011">
        <ele>976</ele>
        <time>2020-12-05T15:42:43.068Z</time>
      </trkpt>
      <trkpt lat="42.8833" lon="0.04011">
        <ele>976</ele>
        <time>2020-12-05T15:42:44.068Z</time>
      </trkpt>
      <trkpt lat="42.8833" lon="0.04011">
        <ele>976</ele>
        <time>2020-12-05T15:42:45.069Z</time>
      </trkpt>
      <trkpt lat="42.8833" lon="0.04011">
        <ele>976</ele>
        <time>2020-12-05T15:42:46.067Z</time>
      </trkpt>
      <trkpt lat="42.8833" lon="0.04011">
        <ele>976</ele>
        <time>2020-12-05T15:42:47.067Z</time>
      </trkpt>
      <trkpt lat="42.8833" lon="0.04011">
        <ele>976</ele>
        <time>2020-12-05T15:42:48.067Z</time>
      </trkpt>
      <trkpt lat="42.8833" lon="0.04011">
        <ele>976</ele>
        <time>2020-12-05T15:42:49.069Z</time>
      </trkpt>
      <trkpt lat="42.8833" lon="0.04011">
        <ele>976</ele>
        <time>2020-12-05T15:42:50.068Z</time>
      </trkpt>
      <trkpt lat="42.8833" lon="0.04011">
        <ele>976</ele>
        <time>2020-12-05T15:42:51.068Z</time>
      </trkpt>
      <trkpt lat="42.8833" lon="0.04011">
        <ele>976</ele>
        <time>2020-12-05T15:42:52.067Z</time>
      </trkpt>
      <trkpt lat="42.88319" lon="0.03989">
        <ele>977.2</ele>
        <time>2020-12-05T15:42:53.067Z</time>
      </trkpt>
      <trkpt lat="42.88319" lon="0.03989">
        <ele>977.2</ele>
        <time>2020-12-05T15:42:54.069Z</time>
      </trkpt>
      <trkpt lat="42.88319" lon="0.03989">
        <ele>977.2</ele>
        <time>2020-12-05T15:42:55.068Z</time>
      </trkpt>
      <trkpt lat="42.88319" lon="0.03989">
        <ele>977.2</ele>
        <time>2020-12-05T15:42:56.069Z</time>
      </trkpt>
      <trkpt lat="42.88319" lon="0.03989">
        <ele>977.2</ele>
        <time>2020-12-05T15:42:57.069Z</time>
      </trkpt>
      <trkpt lat="42.88319" lon="0.03989">
        <ele>977.2</ele>
        <time>2020-12-05T15:42:58.068Z</time>
      </trkpt>
      <trkpt lat="42.88319" lon="0.03989">
        <ele>977.2</ele>
        <time>2020-12-05T15:42:59.067Z</time>
      </trkpt>
      <trkpt lat="42.88319" lon="0.03989">
        <ele>977.2</ele>
        <time>2020-12-05T15:43:00.068Z</time>
      </trkpt>
      <trkpt lat="42.88319" lon="0.03989">
        <ele>977.2</ele>
        <time>2020-12-05T15:43:01.068Z</time>
      </trkpt>
      <trkpt lat="42.88304" lon="0.03972">
        <ele>978</ele>
        <time>2020-12-05T15:43:02.07Z</time>
      </trkpt>
      <trkpt lat="42.88304" lon="0.03972">
        <ele>978</ele>
        <time>2020-12-05T15:43:03.07Z</time>
      </trkpt>
      <trkpt lat="42.88304" lon="0.03972">
        <ele>978</ele>
        <time>2020-12-05T15:43:04.068Z</time>
      </trkpt>
      <trkpt lat="42.88304" lon="0.03972">
        <ele>978</ele>
        <time>2020-12-05T15:43:05.069Z</time>
      </trkpt>
      <trkpt lat="42.88298" lon="0.03966">
        <ele>978.4</ele>
        <time>2020-12-05T15:43:06.067Z</time>
      </trkpt>
      <trkpt lat="42.88298" lon="0.03966">
        <ele>978.4</ele>
        <time>2020-12-05T15:43:07.069Z</time>
      </trkpt>
      <trkpt lat="42.88298" lon="0.03966">
        <ele>978.4</ele>
        <time>2020-12-05T15:43:08.068Z</time>
      </trkpt>
      <trkpt lat="42.88298" lon="0.03966">
        <ele>978.4</ele>
        <time>2020-12-05T15:43:09.069Z</time>
      </trkpt>
      <trkpt lat="42.88291" lon="0.0396">
        <ele>979.2</ele>
        <time>2020-12-05T15:43:10.067Z</time>
      </trkpt>
      <trkpt lat="42.88291" lon="0.0396">
        <ele>979.2</ele>
        <time>2020-12-05T15:43:11.068Z</time>
      </trkpt>
      <trkpt lat="42.88291" lon="0.0396">
        <ele>979.2</ele>
        <time>2020-12-05T15:43:12.067Z</time>
      </trkpt>
      <trkpt lat="42.88291" lon="0.0396">
        <ele>979.2</ele>
        <time>2020-12-05T15:43:13.068Z</time>
      </trkpt>
      <trkpt lat="42.88291" lon="0.0396">
        <ele>979.2</ele>
        <time>2020-12-05T15:43:14.069Z</time>
      </trkpt>
      <trkpt lat="42.88291" lon="0.0396">
        <ele>979.2</ele>
        <time>2020-12-05T15:43:15.069Z</time>
      </trkpt>
      <trkpt lat="42.88291" lon="0.0396">
        <ele>979.2</ele>
        <time>2020-12-05T15:43:16.067Z</time>
      </trkpt>
      <trkpt lat="42.88277" lon="0.03949">
        <ele>980</ele>
        <time>2020-12-05T15:43:17.069Z</time>
      </trkpt>
      <trkpt lat="42.88277" lon="0.03949">
        <ele>980</ele>
        <time>2020-12-05T15:43:18.068Z</time>
      </trkpt>
      <trkpt lat="42.88274" lon="0.03947">
        <ele>980.4</ele>
        <time>2020-12-05T15:43:19.068Z</time>
      </trkpt>
      <trkpt lat="42.88274" lon="0.03947">
        <ele>980.4</ele>
        <time>2020-12-05T15:43:20.068Z</time>
      </trkpt>
      <trkpt lat="42.88274" lon="0.03947">
        <ele>980.4</ele>
        <time>2020-12-05T15:43:21.067Z</time>
      </trkpt>
      <trkpt lat="42.88274" lon="0.03947">
        <ele>980.4</ele>
        <time>2020-12-05T15:43:22.069Z</time>
      </trkpt>
      <trkpt lat="42.88274" lon="0.03947">
        <ele>980.4</ele>
        <time>2020-12-05T15:43:23.068Z</time>
      </trkpt>
      <trkpt lat="42.88263" lon="0.03945">
        <ele>981.4</ele>
        <time>2020-12-05T15:43:24.069Z</time>
      </trkpt>
      <trkpt lat="42.8826" lon="0.03947">
        <ele>981.6</ele>
        <time>2020-12-05T15:43:25.067Z</time>
      </trkpt>
      <trkpt lat="42.8826" lon="0.03947">
        <ele>981.6</ele>
        <time>2020-12-05T15:43:26.069Z</time>
      </trkpt>
      <trkpt lat="42.8826" lon="0.03947">
        <ele>981.6</ele>
        <time>2020-12-05T15:43:27.067Z</time>
      </trkpt>
      <trkpt lat="42.8826" lon="0.03947">
        <ele>981.6</ele>
        <time>2020-12-05T15:43:28.069Z</time>
      </trkpt>
      <trkpt lat="42.8826" lon="0.03947">
        <ele>981.6</ele>
        <time>2020-12-05T15:43:29.067Z</time>
      </trkpt>
      <trkpt lat="42.88253" lon="0.03959">
        <ele>982.2</ele>
        <time>2020-12-05T15:43:30.067Z</time>
      </trkpt>
      <trkpt lat="42.88253" lon="0.03959">
        <ele>982.2</ele>
        <time>2020-12-05T15:43:31.068Z</time>
      </trkpt>
      <trkpt lat="42.88253" lon="0.03959">
        <ele>982.2</ele>
        <time>2020-12-05T15:43:32.068Z</time>
      </trkpt>
      <trkpt lat="42.88253" lon="0.03959">
        <ele>982.2</ele>
        <time>2020-12-05T15:43:33.068Z</time>
      </trkpt>
      <trkpt lat="42.88253" lon="0.03959">
        <ele>982.2</ele>
        <time>2020-12-05T15:43:34.067Z</time>
      </trkpt>
      <trkpt lat="42.88253" lon="0.03959">
        <ele>982.2</ele>
        <time>2020-12-05T15:43:35.068Z</time>
      </trkpt>
      <trkpt lat="42.88253" lon="0.03978">
        <ele>982.8</ele>
        <time>2020-12-05T15:43:36.068Z</time>
      </trkpt>
      <trkpt lat="42.88253" lon="0.03978">
        <ele>982.8</ele>
        <time>2020-12-05T15:43:37.068Z</time>
      </trkpt>
      <trkpt lat="42.88256" lon="0.03982">
        <ele>983</ele>
        <time>2020-12-05T15:43:38.069Z</time>
      </trkpt>
      <trkpt lat="42.88256" lon="0.03982">
        <ele>983</ele>
        <time>2020-12-05T15:43:39.068Z</time>
      </trkpt>
      <trkpt lat="42.88256" lon="0.03982">
        <ele>983</ele>
        <time>2020-12-05T15:43:40.067Z</time>
      </trkpt>
      <trkpt lat="42.88256" lon="0.03982">
        <ele>983</ele>
        <time>2020-12-05T15:43:41.068Z</time>
      </trkpt>
      <trkpt lat="42.88256" lon="0.03982">
        <ele>983</ele>
        <time>2020-12-05T15:43:42.068Z</time>
      </trkpt>
      <trkpt lat="42.88263" lon="0.03988">
        <ele>983.8</ele>
        <time>2020-12-05T15:43:43.069Z</time>
      </trkpt>
      <trkpt lat="42.88263" lon="0.03988">
        <ele>983.8</ele>
        <time>2020-12-05T15:43:44.068Z</time>
      </trkpt>
      <trkpt lat="42.88267" lon="0.03989">
        <ele>984</ele>
        <time>2020-12-05T15:43:45.068Z</time>
      </trkpt>
      <trkpt lat="42.88267" lon="0.03989">
        <ele>984</ele>
        <time>2020-12-05T15:43:46.068Z</time>
      </trkpt>
      <trkpt lat="42.88271" lon="0.03991">
        <ele>984.2</ele>
        <time>2020-12-05T15:43:47.068Z</time>
      </trkpt>
      <trkpt lat="42.88271" lon="0.03991">
        <ele>984.2</ele>
        <time>2020-12-05T15:43:48.068Z</time>
      </trkpt>
      <trkpt lat="42.88271" lon="0.03991">
        <ele>984.2</ele>
        <time>2020-12-05T15:43:49.068Z</time>
      </trkpt>
      <trkpt lat="42.88271" lon="0.03991">
        <ele>984.2</ele>
        <time>2020-12-05T15:43:50.068Z</time>
      </trkpt>
      <trkpt lat="42.88271" lon="0.03991">
        <ele>984.2</ele>
        <time>2020-12-05T15:43:51.069Z</time>
      </trkpt>
      <trkpt lat="42.88271" lon="0.03991">
        <ele>984.2</ele>
        <time>2020-12-05T15:43:52.067Z</time>
      </trkpt>
      <trkpt lat="42.88283" lon="0.03994">
        <ele>985</ele>
        <time>2020-12-05T15:43:53.069Z</time>
      </trkpt>
      <trkpt lat="42.88283" lon="0.03994">
        <ele>985</ele>
        <time>2020-12-05T15:43:54.068Z</time>
      </trkpt>
      <trkpt lat="42.88283" lon="0.03994">
        <ele>985</ele>
        <time>2020-12-05T15:43:55.067Z</time>
      </trkpt>
      <trkpt lat="42.88283" lon="0.03994">
        <ele>985</ele>
        <time>2020-12-05T15:43:56.068Z</time>
      </trkpt>
      <trkpt lat="42.88291" lon="0.03997">
        <ele>985.8</ele>
        <time>2020-12-05T15:43:57.069Z</time>
      </trkpt>
      <trkpt lat="42.88291" lon="0.03997">
        <ele>985.8</ele>
        <time>2020-12-05T15:43:58.067Z</time>
      </trkpt>
      <trkpt lat="42.88295" lon="0.03999">
        <ele>986</ele>
        <time>2020-12-05T15:43:59.067Z</time>
      </trkpt>
      <trkpt lat="42.88295" lon="0.03999">
        <ele>986</ele>
        <time>2020-12-05T15:44:00.068Z</time>
      </trkpt>
      <trkpt lat="42.88295" lon="0.03999">
        <ele>986</ele>
        <time>2020-12-05T15:44:01.069Z</time>
      </trkpt>
      <trkpt lat="42.88295" lon="0.03999">
        <ele>986</ele>
        <time>2020-12-05T15:44:02.07Z</time>
      </trkpt>
      <trkpt lat="42.88295" lon="0.03999">
        <ele>986</ele>
        <time>2020-12-05T15:44:03.067Z</time>
      </trkpt>
      <trkpt lat="42.88295" lon="0.03999">
        <ele>986</ele>
        <time>2020-12-05T15:44:04.067Z</time>
      </trkpt>
      <trkpt lat="42.88295" lon="0.03999">
        <ele>986</ele>
        <time>2020-12-05T15:44:05.067Z</time>
      </trkpt>
      <trkpt lat="42.88295" lon="0.03999">
        <ele>986</ele>
        <time>2020-12-05T15:44:06.07Z</time>
      </trkpt>
      <trkpt lat="42.88295" lon="0.03999">
        <ele>986</ele>
        <time>2020-12-05T15:44:07.068Z</time>
      </trkpt>
      <trkpt lat="42.88308" lon="0.04011">
        <ele>986.8</ele>
        <time>2020-12-05T15:44:08.068Z</time>
      </trkpt>
      <trkpt lat="42.88308" lon="0.04011">
        <ele>986.8</ele>
        <time>2020-12-05T15:44:09.067Z</time>
      </trkpt>
      <trkpt lat="42.88308" lon="0.04011">
        <ele>986.8</ele>
        <time>2020-12-05T15:44:10.067Z</time>
      </trkpt>
      <trkpt lat="42.88308" lon="0.04011">
        <ele>986.8</ele>
        <time>2020-12-05T15:44:11.068Z</time>
      </trkpt>
      <trkpt lat="42.88313" lon="0.04018">
        <ele>987.4</ele>
        <time>2020-12-05T15:44:12.067Z</time>
      </trkpt>
      <trkpt lat="42.88313" lon="0.04018">
        <ele>987.4</ele>
        <time>2020-12-05T15:44:13.068Z</time>
      </trkpt>
      <trkpt lat="42.88313" lon="0.04018">
        <ele>987.4</ele>
        <time>2020-12-05T15:44:14.068Z</time>
      </trkpt>
      <trkpt lat="42.88313" lon="0.04018">
        <ele>987.4</ele>
        <time>2020-12-05T15:44:15.07Z</time>
      </trkpt>
      <trkpt lat="42.88313" lon="0.04018">
        <ele>987.4</ele>
        <time>2020-12-05T15:44:16.067Z</time>
      </trkpt>
      <trkpt lat="42.88321" lon="0.04029">
        <ele>988.2</ele>
        <time>2020-12-05T15:44:17.068Z</time>
      </trkpt>
      <trkpt lat="42.88321" lon="0.04029">
        <ele>988.2</ele>
        <time>2020-12-05T15:44:18.069Z</time>
      </trkpt>
      <trkpt lat="42.88323" lon="0.04032">
        <ele>988.8</ele>
        <time>2020-12-05T15:44:19.069Z</time>
      </trkpt>
      <trkpt lat="42.88323" lon="0.04032">
        <ele>988.8</ele>
        <time>2020-12-05T15:44:20.067Z</time>
      </trkpt>
      <trkpt lat="42.88323" lon="0.04032">
        <ele>988.8</ele>
        <time>2020-12-05T15:44:21.068Z</time>
      </trkpt>
      <trkpt lat="42.88323" lon="0.04032">
        <ele>988.8</ele>
        <time>2020-12-05T15:44:22.068Z</time>
      </trkpt>
      <trkpt lat="42.88323" lon="0.04032">
        <ele>988.8</ele>
        <time>2020-12-05T15:44:23.067Z</time>
      </trkpt>
      <trkpt lat="42.8833" lon="0.04043">
        <ele>989.8</ele>
        <time>2020-12-05T15:44:24.067Z</time>
      </trkpt>
      <trkpt lat="42.8833" lon="0.04043">
        <ele>989.8</ele>
        <time>2020-12-05T15:44:25.069Z</time>
      </trkpt>
      <trkpt lat="42.8833" lon="0.04043">
        <ele>989.8</ele>
        <time>2020-12-05T15:44:26.069Z</time>
      </trkpt>
      <trkpt lat="42.8833" lon="0.04043">
        <ele>989.8</ele>
        <time>2020-12-05T15:44:27.068Z</time>
      </trkpt>
      <trkpt lat="42.88335" lon="0.04051">
        <ele>990.2</ele>
        <time>2020-12-05T15:44:28.069Z</time>
      </trkpt>
      <trkpt lat="42.88335" lon="0.04051">
        <ele>990.2</ele>
        <time>2020-12-05T15:44:29.067Z</time>
      </trkpt>
      <trkpt lat="42.88335" lon="0.04051">
        <ele>990.2</ele>
        <time>2020-12-05T15:44:30.068Z</time>
      </trkpt>
      <trkpt lat="42.88335" lon="0.04051">
        <ele>990.2</ele>
        <time>2020-12-05T15:44:31.068Z</time>
      </trkpt>
      <trkpt lat="42.88335" lon="0.04051">
        <ele>990.2</ele>
        <time>2020-12-05T15:44:32.07Z</time>
      </trkpt>
      <trkpt lat="42.88342" lon="0.04062">
        <ele>991</ele>
        <time>2020-12-05T15:44:33.068Z</time>
      </trkpt>
      <trkpt lat="42.88342" lon="0.04062">
        <ele>991</ele>
        <time>2020-12-05T15:44:34.068Z</time>
      </trkpt>
      <trkpt lat="42.88342" lon="0.04062">
        <ele>991</ele>
        <time>2020-12-05T15:44:35.068Z</time>
      </trkpt>
      <trkpt lat="42.88342" lon="0.04062">
        <ele>991</ele>
        <time>2020-12-05T15:44:36.07Z</time>
      </trkpt>
      <trkpt lat="42.88342" lon="0.04062">
        <ele>991</ele>
        <time>2020-12-05T15:44:37.067Z</time>
      </trkpt>
      <trkpt lat="42.88349" lon="0.04073">
        <ele>992</ele>
        <time>2020-12-05T15:44:38.069Z</time>
      </trkpt>
      <trkpt lat="42.88349" lon="0.04073">
        <ele>992</ele>
        <time>2020-12-05T15:44:39.069Z</time>
      </trkpt>
      <trkpt lat="42.88351" lon="0.04077">
        <ele>992.2</ele>
        <time>2020-12-05T15:44:40.067Z</time>
      </trkpt>
      <trkpt lat="42.88351" lon="0.04077">
        <ele>992.2</ele>
        <time>2020-12-05T15:44:41.067Z</time>
      </trkpt>
      <trkpt lat="42.88351" lon="0.04077">
        <ele>992.2</ele>
        <time>2020-12-05T15:44:42.067Z</time>
      </trkpt>
      <trkpt lat="42.88351" lon="0.04077">
        <ele>992.2</ele>
        <time>2020-12-05T15:44:43.068Z</time>
      </trkpt>
      <trkpt lat="42.88351" lon="0.04077">
        <ele>992.2</ele>
        <time>2020-12-05T15:44:44.067Z</time>
      </trkpt>
      <trkpt lat="42.88351" lon="0.04077">
        <ele>992.2</ele>
        <time>2020-12-05T15:44:45.068Z</time>
      </trkpt>
      <trkpt lat="42.88351" lon="0.04077">
        <ele>992.2</ele>
        <time>2020-12-05T15:44:46.069Z</time>
      </trkpt>
      <trkpt lat="42.88351" lon="0.04077">
        <ele>992.2</ele>
        <time>2020-12-05T15:44:47.067Z</time>
      </trkpt>
      <trkpt lat="42.88359" lon="0.0409">
        <ele>993.4</ele>
        <time>2020-12-05T15:44:48.068Z</time>
      </trkpt>
      <trkpt lat="42.88359" lon="0.0409">
        <ele>993.4</ele>
        <time>2020-12-05T15:44:49.07Z</time>
      </trkpt>
      <trkpt lat="42.88362" lon="0.04094">
        <ele>993.6</ele>
        <time>2020-12-05T15:44:50.068Z</time>
      </trkpt>
      <trkpt lat="42.88362" lon="0.04094">
        <ele>993.6</ele>
        <time>2020-12-05T15:44:51.067Z</time>
      </trkpt>
      <trkpt lat="42.88362" lon="0.04094">
        <ele>993.6</ele>
        <time>2020-12-05T15:44:52.067Z</time>
      </trkpt>
      <trkpt lat="42.88362" lon="0.04094">
        <ele>993.6</ele>
        <time>2020-12-05T15:44:53.068Z</time>
      </trkpt>
      <trkpt lat="42.88362" lon="0.04094">
        <ele>993.6</ele>
        <time>2020-12-05T15:44:54.067Z</time>
      </trkpt>
      <trkpt lat="42.88362" lon="0.04094">
        <ele>993.6</ele>
        <time>2020-12-05T15:44:55.069Z</time>
      </trkpt>
      <trkpt lat="42.8837" lon="0.04106">
        <ele>994.4</ele>
        <time>2020-12-05T15:44:56.068Z</time>
      </trkpt>
      <trkpt lat="42.8837" lon="0.04106">
        <ele>994.4</ele>
        <time>2020-12-05T15:44:57.067Z</time>
      </trkpt>
      <trkpt lat="42.8837" lon="0.04106">
        <ele>994.4</ele>
        <time>2020-12-05T15:44:58.067Z</time>
      </trkpt>
      <trkpt lat="42.8837" lon="0.04106">
        <ele>994.4</ele>
        <time>2020-12-05T15:44:59.068Z</time>
      </trkpt>
      <trkpt lat="42.88375" lon="0.04114">
        <ele>994.8</ele>
        <time>2020-12-05T15:45:00.399Z</time>
      </trkpt>
      <trkpt lat="42.88375" lon="0.04114">
        <ele>994.8</ele>
        <time>2020-12-05T15:45:01.069Z</time>
      </trkpt>
      <trkpt lat="42.88375" lon="0.04114">
        <ele>994.8</ele>
        <time>2020-12-05T15:45:02.068Z</time>
      </trkpt>
      <trkpt lat="42.88375" lon="0.04114">
        <ele>994.8</ele>
        <time>2020-12-05T15:45:03.068Z</time>
      </trkpt>
      <trkpt lat="42.8838" lon="0.0412">
        <ele>995.4</ele>
        <time>2020-12-05T15:45:04.068Z</time>
      </trkpt>
      <trkpt lat="42.8838" lon="0.0412">
        <ele>995.4</ele>
        <time>2020-12-05T15:45:05.07Z</time>
      </trkpt>
      <trkpt lat="42.8838" lon="0.0412">
        <ele>995.4</ele>
        <time>2020-12-05T15:45:06.07Z</time>
      </trkpt>
      <trkpt lat="42.8838" lon="0.0412">
        <ele>995.4</ele>
        <time>2020-12-05T15:45:07.068Z</time>
      </trkpt>
      <trkpt lat="42.8838" lon="0.0412">
        <ele>995.4</ele>
        <time>2020-12-05T15:45:08.067Z</time>
      </trkpt>
      <trkpt lat="42.8838" lon="0.0412">
        <ele>995.4</ele>
        <time>2020-12-05T15:45:09.068Z</time>
      </trkpt>
      <trkpt lat="42.8838" lon="0.0412">
        <ele>995.4</ele>
        <time>2020-12-05T15:45:10.068Z</time>
      </trkpt>
      <trkpt lat="42.88391" lon="0.04134">
        <ele>996.4</ele>
        <time>2020-12-05T15:45:11.068Z</time>
      </trkpt>
      <trkpt lat="42.88391" lon="0.04134">
        <ele>996.4</ele>
        <time>2020-12-05T15:45:12.067Z</time>
      </trkpt>
      <trkpt lat="42.88391" lon="0.04134">
        <ele>996.4</ele>
        <time>2020-12-05T15:45:13.068Z</time>
      </trkpt>
      <trkpt lat="42.88391" lon="0.04134">
        <ele>996.4</ele>
        <time>2020-12-05T15:45:14.069Z</time>
      </trkpt>
      <trkpt lat="42.88391" lon="0.04134">
        <ele>996.4</ele>
        <time>2020-12-05T15:45:15.068Z</time>
      </trkpt>
      <trkpt lat="42.88391" lon="0.04134">
        <ele>996.4</ele>
        <time>2020-12-05T15:45:16.068Z</time>
      </trkpt>
      <trkpt lat="42.88399" lon="0.04143">
        <ele>997.6</ele>
        <time>2020-12-05T15:45:17.069Z</time>
      </trkpt>
      <trkpt lat="42.88399" lon="0.04143">
        <ele>997.6</ele>
        <time>2020-12-05T15:45:18.069Z</time>
      </trkpt>
      <trkpt lat="42.88399" lon="0.04143">
        <ele>997.6</ele>
        <time>2020-12-05T15:45:19.07Z</time>
      </trkpt>
      <trkpt lat="42.88399" lon="0.04143">
        <ele>997.6</ele>
        <time>2020-12-05T15:45:20.067Z</time>
      </trkpt>
      <trkpt lat="42.88406" lon="0.04154">
        <ele>998.4</ele>
        <time>2020-12-05T15:45:21.069Z</time>
      </trkpt>
      <trkpt lat="42.88406" lon="0.04154">
        <ele>998.4</ele>
        <time>2020-12-05T15:45:22.07Z</time>
      </trkpt>
      <trkpt lat="42.88406" lon="0.04154">
        <ele>998.4</ele>
        <time>2020-12-05T15:45:23.07Z</time>
      </trkpt>
      <trkpt lat="42.88406" lon="0.04154">
        <ele>998.4</ele>
        <time>2020-12-05T15:45:24.068Z</time>
      </trkpt>
      <trkpt lat="42.88411" lon="0.04162">
        <ele>998.8</ele>
        <time>2020-12-05T15:45:25.068Z</time>
      </trkpt>
      <trkpt lat="42.88411" lon="0.04162">
        <ele>998.8</ele>
        <time>2020-12-05T15:45:26.069Z</time>
      </trkpt>
      <trkpt lat="42.88411" lon="0.04162">
        <ele>998.8</ele>
        <time>2020-12-05T15:45:27.07Z</time>
      </trkpt>
      <trkpt lat="42.88411" lon="0.04162">
        <ele>998.8</ele>
        <time>2020-12-05T15:45:28.067Z</time>
      </trkpt>
      <trkpt lat="42.88417" lon="0.04169">
        <ele>999.4</ele>
        <time>2020-12-05T15:45:29.069Z</time>
      </trkpt>
      <trkpt lat="42.88417" lon="0.04169">
        <ele>999.4</ele>
        <time>2020-12-05T15:45:30.068Z</time>
      </trkpt>
      <trkpt lat="42.88417" lon="0.04169">
        <ele>999.4</ele>
        <time>2020-12-05T15:45:31.068Z</time>
      </trkpt>
      <trkpt lat="42.88422" lon="0.04176">
        <ele>999.8</ele>
        <time>2020-12-05T15:45:32.068Z</time>
      </trkpt>
      <trkpt lat="42.88422" lon="0.04176">
        <ele>999.8</ele>
        <time>2020-12-05T15:45:33.068Z</time>
      </trkpt>
      <trkpt lat="42.88422" lon="0.04176">
        <ele>999.8</ele>
        <time>2020-12-05T15:45:34.068Z</time>
      </trkpt>
      <trkpt lat="42.88422" lon="0.04176">
        <ele>999.8</ele>
        <time>2020-12-05T15:45:35.067Z</time>
      </trkpt>
      <trkpt lat="42.88422" lon="0.04176">
        <ele>999.8</ele>
        <time>2020-12-05T15:45:36.068Z</time>
      </trkpt>
      <trkpt lat="42.88422" lon="0.04176">
        <ele>999.8</ele>
        <time>2020-12-05T15:45:37.067Z</time>
      </trkpt>
      <trkpt lat="42.88422" lon="0.04176">
        <ele>999.8</ele>
        <time>2020-12-05T15:45:38.067Z</time>
      </trkpt>
      <trkpt lat="42.88422" lon="0.04176">
        <ele>999.8</ele>
        <time>2020-12-05T15:45:39.067Z</time>
      </trkpt>
      <trkpt lat="42.88436" lon="0.04193">
        <ele>1001</ele>
        <time>2020-12-05T15:45:40.067Z</time>
      </trkpt>
      <trkpt lat="42.88436" lon="0.04193">
        <ele>1001</ele>
        <time>2020-12-05T15:45:41.069Z</time>
      </trkpt>
      <trkpt lat="42.88436" lon="0.04193">
        <ele>1001</ele>
        <time>2020-12-05T15:45:42.067Z</time>
      </trkpt>
      <trkpt lat="42.88436" lon="0.04193">
        <ele>1001</ele>
        <time>2020-12-05T15:45:43.068Z</time>
      </trkpt>
      <trkpt lat="42.88436" lon="0.04193">
        <ele>1001</ele>
        <time>2020-12-05T15:45:44.069Z</time>
      </trkpt>
      <trkpt lat="42.88436" lon="0.04193">
        <ele>1001</ele>
        <time>2020-12-05T15:45:45.067Z</time>
      </trkpt>
      <trkpt lat="42.88445" lon="0.04208">
        <ele>1002.2</ele>
        <time>2020-12-05T15:45:46.069Z</time>
      </trkpt>
      <trkpt lat="42.88445" lon="0.04208">
        <ele>1002.2</ele>
        <time>2020-12-05T15:45:47.068Z</time>
      </trkpt>
      <trkpt lat="42.88445" lon="0.04208">
        <ele>1002.2</ele>
        <time>2020-12-05T15:45:48.069Z</time>
      </trkpt>
      <trkpt lat="42.8845" lon="0.04215">
        <ele>1002.8</ele>
        <time>2020-12-05T15:45:49.069Z</time>
      </trkpt>
      <trkpt lat="42.8845" lon="0.04215">
        <ele>1002.8</ele>
        <time>2020-12-05T15:45:50.067Z</time>
      </trkpt>
      <trkpt lat="42.8845" lon="0.04215">
        <ele>1002.8</ele>
        <time>2020-12-05T15:45:51.07Z</time>
      </trkpt>
      <trkpt lat="42.88455" lon="0.04222">
        <ele>1003.4</ele>
        <time>2020-12-05T15:45:52.07Z</time>
      </trkpt>
      <trkpt lat="42.88455" lon="0.04222">
        <ele>1003.4</ele>
        <time>2020-12-05T15:45:53.07Z</time>
      </trkpt>
      <trkpt lat="42.88455" lon="0.04222">
        <ele>1003.4</ele>
        <time>2020-12-05T15:45:54.069Z</time>
      </trkpt>
      <trkpt lat="42.88455" lon="0.04222">
        <ele>1003.4</ele>
        <time>2020-12-05T15:45:55.07Z</time>
      </trkpt>
      <trkpt lat="42.88455" lon="0.04222">
        <ele>1003.4</ele>
        <time>2020-12-05T15:45:56.07Z</time>
      </trkpt>
      <trkpt lat="42.88455" lon="0.04222">
        <ele>1003.4</ele>
        <time>2020-12-05T15:45:57.069Z</time>
      </trkpt>
      <trkpt lat="42.88455" lon="0.04222">
        <ele>1003.4</ele>
        <time>2020-12-05T15:45:58.068Z</time>
      </trkpt>
      <trkpt lat="42.88466" lon="0.04235">
        <ele>1004.4</ele>
        <time>2020-12-05T15:45:59.068Z</time>
      </trkpt>
      <trkpt lat="42.88466" lon="0.04235">
        <ele>1004.4</ele>
        <time>2020-12-05T15:46:00.067Z</time>
      </trkpt>
      <trkpt lat="42.88466" lon="0.04235">
        <ele>1004.4</ele>
        <time>2020-12-05T15:46:01.07Z</time>
      </trkpt>
      <trkpt lat="42.88466" lon="0.04235">
        <ele>1004.4</ele>
        <time>2020-12-05T15:46:02.067Z</time>
      </trkpt>
      <trkpt lat="42.88466" lon="0.04235">
        <ele>1004.4</ele>
        <time>2020-12-05T15:46:03.067Z</time>
      </trkpt>
      <trkpt lat="42.88475" lon="0.04245">
        <ele>1005.4</ele>
        <time>2020-12-05T15:46:04.068Z</time>
      </trkpt>
      <trkpt lat="42.88475" lon="0.04245">
        <ele>1005.4</ele>
        <time>2020-12-05T15:46:05.067Z</time>
      </trkpt>
      <trkpt lat="42.88475" lon="0.04245">
        <ele>1005.4</ele>
        <time>2020-12-05T15:46:06.069Z</time>
      </trkpt>
      <trkpt lat="42.88481" lon="0.0425">
        <ele>1006.2</ele>
        <time>2020-12-05T15:46:07.067Z</time>
      </trkpt>
      <trkpt lat="42.88481" lon="0.0425">
        <ele>1006.2</ele>
        <time>2020-12-05T15:46:08.068Z</time>
      </trkpt>
      <trkpt lat="42.88481" lon="0.0425">
        <ele>1006.2</ele>
        <time>2020-12-05T15:46:09.07Z</time>
      </trkpt>
      <trkpt lat="42.88481" lon="0.0425">
        <ele>1006.2</ele>
        <time>2020-12-05T15:46:10.073Z</time>
      </trkpt>
      <trkpt lat="42.88487" lon="0.04257">
        <ele>1006.6</ele>
        <time>2020-12-05T15:46:11.067Z</time>
      </trkpt>
      <trkpt lat="42.88487" lon="0.04257">
        <ele>1006.6</ele>
        <time>2020-12-05T15:46:12.068Z</time>
      </trkpt>
      <trkpt lat="42.88487" lon="0.04257">
        <ele>1006.6</ele>
        <time>2020-12-05T15:46:13.068Z</time>
      </trkpt>
      <trkpt lat="42.88487" lon="0.04257">
        <ele>1006.6</ele>
        <time>2020-12-05T15:46:14.067Z</time>
      </trkpt>
      <trkpt lat="42.88487" lon="0.04257">
        <ele>1006.6</ele>
        <time>2020-12-05T15:46:15.069Z</time>
      </trkpt>
      <trkpt lat="42.88487" lon="0.04257">
        <ele>1006.6</ele>
        <time>2020-12-05T15:46:16.067Z</time>
      </trkpt>
      <trkpt lat="42.88487" lon="0.04257">
        <ele>1006.6</ele>
        <time>2020-12-05T15:46:17.069Z</time>
      </trkpt>
      <trkpt lat="42.88499" lon="0.0427">
        <ele>1007.6</ele>
        <time>2020-12-05T15:46:18.07Z</time>
      </trkpt>
      <trkpt lat="42.88499" lon="0.0427">
        <ele>1007.6</ele>
        <time>2020-12-05T15:46:19.068Z</time>
      </trkpt>
      <trkpt lat="42.88499" lon="0.0427">
        <ele>1007.6</ele>
        <time>2020-12-05T15:46:20.067Z</time>
      </trkpt>
      <trkpt lat="42.88499" lon="0.0427">
        <ele>1007.6</ele>
        <time>2020-12-05T15:46:21.068Z</time>
      </trkpt>
      <trkpt lat="42.88499" lon="0.0427">
        <ele>1007.6</ele>
        <time>2020-12-05T15:46:22.067Z</time>
      </trkpt>
      <trkpt lat="42.88499" lon="0.0427">
        <ele>1007.6</ele>
        <time>2020-12-05T15:46:23.067Z</time>
      </trkpt>
      <trkpt lat="42.88499" lon="0.0427">
        <ele>1007.6</ele>
        <time>2020-12-05T15:46:24.067Z</time>
      </trkpt>
      <trkpt lat="42.88499" lon="0.0427">
        <ele>1007.6</ele>
        <time>2020-12-05T15:46:25.069Z</time>
      </trkpt>
      <trkpt lat="42.88499" lon="0.0427">
        <ele>1007.6</ele>
        <time>2020-12-05T15:46:26.07Z</time>
      </trkpt>
      <trkpt lat="42.88499" lon="0.0427">
        <ele>1007.6</ele>
        <time>2020-12-05T15:46:27.068Z</time>
      </trkpt>
      <trkpt lat="42.88516" lon="0.04288">
        <ele>1008.4</ele>
        <time>2020-12-05T15:46:28.067Z</time>
      </trkpt>
      <trkpt lat="42.88516" lon="0.04288">
        <ele>1008.4</ele>
        <time>2020-12-05T15:46:29.07Z</time>
      </trkpt>
      <trkpt lat="42.88519" lon="0.04291">
        <ele>1008.8</ele>
        <time>2020-12-05T15:46:30.067Z</time>
      </trkpt>
      <trkpt lat="42.88519" lon="0.04291">
        <ele>1008.8</ele>
        <time>2020-12-05T15:46:31.068Z</time>
      </trkpt>
      <trkpt lat="42.88519" lon="0.04291">
        <ele>1008.8</ele>
        <time>2020-12-05T15:46:32.067Z</time>
      </trkpt>
      <trkpt lat="42.88519" lon="0.04291">
        <ele>1008.8</ele>
        <time>2020-12-05T15:46:33.068Z</time>
      </trkpt>
      <trkpt lat="42.88519" lon="0.04291">
        <ele>1008.8</ele>
        <time>2020-12-05T15:46:34.068Z</time>
      </trkpt>
      <trkpt lat="42.88519" lon="0.04291">
        <ele>1008.8</ele>
        <time>2020-12-05T15:46:35.07Z</time>
      </trkpt>
      <trkpt lat="42.88519" lon="0.04291">
        <ele>1008.8</ele>
        <time>2020-12-05T15:46:36.068Z</time>
      </trkpt>
      <trkpt lat="42.88527" lon="0.04304">
        <ele>1010</ele>
        <time>2020-12-05T15:46:37.067Z</time>
      </trkpt>
      <trkpt lat="42.88527" lon="0.04304">
        <ele>1010</ele>
        <time>2020-12-05T15:46:38.067Z</time>
      </trkpt>
      <trkpt lat="42.88529" lon="0.04308">
        <ele>1010.2</ele>
        <time>2020-12-05T15:46:39.068Z</time>
      </trkpt>
      <trkpt lat="42.88529" lon="0.04308">
        <ele>1010.2</ele>
        <time>2020-12-05T15:46:40.069Z</time>
      </trkpt>
      <trkpt lat="42.88529" lon="0.04308">
        <ele>1010.2</ele>
        <time>2020-12-05T15:46:41.067Z</time>
      </trkpt>
      <trkpt lat="42.88529" lon="0.04308">
        <ele>1010.2</ele>
        <time>2020-12-05T15:46:42.07Z</time>
      </trkpt>
      <trkpt lat="42.88529" lon="0.04308">
        <ele>1010.2</ele>
        <time>2020-12-05T15:46:43.068Z</time>
      </trkpt>
      <trkpt lat="42.88534" lon="0.04318">
        <ele>1011</ele>
        <time>2020-12-05T15:46:44.07Z</time>
      </trkpt>
      <trkpt lat="42.88534" lon="0.04318">
        <ele>1011</ele>
        <time>2020-12-05T15:46:45.068Z</time>
      </trkpt>
      <trkpt lat="42.88534" lon="0.04318">
        <ele>1011</ele>
        <time>2020-12-05T15:46:46.068Z</time>
      </trkpt>
      <trkpt lat="42.88534" lon="0.04318">
        <ele>1011</ele>
        <time>2020-12-05T15:46:47.067Z</time>
      </trkpt>
      <trkpt lat="42.88534" lon="0.04318">
        <ele>1011</ele>
        <time>2020-12-05T15:46:48.067Z</time>
      </trkpt>
      <trkpt lat="42.88534" lon="0.04318">
        <ele>1011</ele>
        <time>2020-12-05T15:46:49.067Z</time>
      </trkpt>
      <trkpt lat="42.8854" lon="0.04331">
        <ele>1011.8</ele>
        <time>2020-12-05T15:46:50.067Z</time>
      </trkpt>
      <trkpt lat="42.8854" lon="0.04331">
        <ele>1011.8</ele>
        <time>2020-12-05T15:46:51.067Z</time>
      </trkpt>
      <trkpt lat="42.88542" lon="0.04335">
        <ele>1012.2</ele>
        <time>2020-12-05T15:46:52.069Z</time>
      </trkpt>
      <trkpt lat="42.88542" lon="0.04335">
        <ele>1012.2</ele>
        <time>2020-12-05T15:46:53.068Z</time>
      </trkpt>
      <trkpt lat="42.88542" lon="0.04335">
        <ele>1012.2</ele>
        <time>2020-12-05T15:46:54.068Z</time>
      </trkpt>
      <trkpt lat="42.88542" lon="0.04335">
        <ele>1012.2</ele>
        <time>2020-12-05T15:46:55.068Z</time>
      </trkpt>
      <trkpt lat="42.88542" lon="0.04335">
        <ele>1012.2</ele>
        <time>2020-12-05T15:46:56.07Z</time>
      </trkpt>
      <trkpt lat="42.88542" lon="0.04335">
        <ele>1012.2</ele>
        <time>2020-12-05T15:46:57.067Z</time>
      </trkpt>
      <trkpt lat="42.88542" lon="0.04335">
        <ele>1012.2</ele>
        <time>2020-12-05T15:46:58.067Z</time>
      </trkpt>
      <trkpt lat="42.88549" lon="0.04345">
        <ele>1013.2</ele>
        <time>2020-12-05T15:46:59.069Z</time>
      </trkpt>
      <trkpt lat="42.88549" lon="0.04345">
        <ele>1013.2</ele>
        <time>2020-12-05T15:47:00.068Z</time>
      </trkpt>
      <trkpt lat="42.88549" lon="0.04345">
        <ele>1013.2</ele>
        <time>2020-12-05T15:47:01.07Z</time>
      </trkpt>
      <trkpt lat="42.88549" lon="0.04345">
        <ele>1013.2</ele>
        <time>2020-12-05T15:47:02.068Z</time>
      </trkpt>
      <trkpt lat="42.88549" lon="0.04345">
        <ele>1013.2</ele>
        <time>2020-12-05T15:47:03.068Z</time>
      </trkpt>
      <trkpt lat="42.88554" lon="0.04352">
        <ele>1013.8</ele>
        <time>2020-12-05T15:47:04.068Z</time>
      </trkpt>
      <trkpt lat="42.88554" lon="0.04352">
        <ele>1013.8</ele>
        <time>2020-12-05T15:47:05.07Z</time>
      </trkpt>
      <trkpt lat="42.88554" lon="0.04352">
        <ele>1013.8</ele>
        <time>2020-12-05T15:47:06.07Z</time>
      </trkpt>
      <trkpt lat="42.88554" lon="0.04352">
        <ele>1013.8</ele>
        <time>2020-12-05T15:47:07.068Z</time>
      </trkpt>
      <trkpt lat="42.88558" lon="0.0436">
        <ele>1014.6</ele>
        <time>2020-12-05T15:47:08.069Z</time>
      </trkpt>
      <trkpt lat="42.88558" lon="0.0436">
        <ele>1014.6</ele>
        <time>2020-12-05T15:47:09.069Z</time>
      </trkpt>
      <trkpt lat="42.88558" lon="0.0436">
        <ele>1014.6</ele>
        <time>2020-12-05T15:47:10.068Z</time>
      </trkpt>
      <trkpt lat="42.88558" lon="0.0436">
        <ele>1014.6</ele>
        <time>2020-12-05T15:47:11.068Z</time>
      </trkpt>
      <trkpt lat="42.88558" lon="0.0436">
        <ele>1014.6</ele>
        <time>2020-12-05T15:47:12.069Z</time>
      </trkpt>
      <trkpt lat="42.88558" lon="0.0436">
        <ele>1014.6</ele>
        <time>2020-12-05T15:47:13.068Z</time>
      </trkpt>
      <trkpt lat="42.88564" lon="0.04371">
        <ele>1015.8</ele>
        <time>2020-12-05T15:47:14.07Z</time>
      </trkpt>
      <trkpt lat="42.88564" lon="0.04371">
        <ele>1015.8</ele>
        <time>2020-12-05T15:47:15.069Z</time>
      </trkpt>
      <trkpt lat="42.88564" lon="0.04371">
        <ele>1015.8</ele>
        <time>2020-12-05T15:47:16.068Z</time>
      </trkpt>
      <trkpt lat="42.88569" lon="0.04378">
        <ele>1016.4</ele>
        <time>2020-12-05T15:47:17.069Z</time>
      </trkpt>
      <trkpt lat="42.88569" lon="0.04378">
        <ele>1016.4</ele>
        <time>2020-12-05T15:47:18.07Z</time>
      </trkpt>
      <trkpt lat="42.88569" lon="0.04378">
        <ele>1016.4</ele>
        <time>2020-12-05T15:47:19.07Z</time>
      </trkpt>
      <trkpt lat="42.88569" lon="0.04378">
        <ele>1016.4</ele>
        <time>2020-12-05T15:47:20.068Z</time>
      </trkpt>
      <trkpt lat="42.88573" lon="0.04386">
        <ele>1017</ele>
        <time>2020-12-05T15:47:21.069Z</time>
      </trkpt>
      <trkpt lat="42.88573" lon="0.04386">
        <ele>1017</ele>
        <time>2020-12-05T15:47:22.069Z</time>
      </trkpt>
      <trkpt lat="42.88573" lon="0.04386">
        <ele>1017</ele>
        <time>2020-12-05T15:47:23.068Z</time>
      </trkpt>
      <trkpt lat="42.88573" lon="0.04386">
        <ele>1017</ele>
        <time>2020-12-05T15:47:24.068Z</time>
      </trkpt>
      <trkpt lat="42.88573" lon="0.04386">
        <ele>1017</ele>
        <time>2020-12-05T15:47:25.069Z</time>
      </trkpt>
      <trkpt lat="42.88573" lon="0.04386">
        <ele>1017</ele>
        <time>2020-12-05T15:47:26.068Z</time>
      </trkpt>
      <trkpt lat="42.88573" lon="0.04386">
        <ele>1017</ele>
        <time>2020-12-05T15:47:27.067Z</time>
      </trkpt>
      <trkpt lat="42.88581" lon="0.04396">
        <ele>1018</ele>
        <time>2020-12-05T15:47:28.067Z</time>
      </trkpt>
      <trkpt lat="42.88581" lon="0.04396">
        <ele>1018</ele>
        <time>2020-12-05T15:47:29.069Z</time>
      </trkpt>
      <trkpt lat="42.88583" lon="0.04399">
        <ele>1018.4</ele>
        <time>2020-12-05T15:47:30.068Z</time>
      </trkpt>
      <trkpt lat="42.88583" lon="0.04399">
        <ele>1018.4</ele>
        <time>2020-12-05T15:47:31.069Z</time>
      </trkpt>
      <trkpt lat="42.88583" lon="0.04399">
        <ele>1018.4</ele>
        <time>2020-12-05T15:47:32.068Z</time>
      </trkpt>
      <trkpt lat="42.88583" lon="0.04399">
        <ele>1018.4</ele>
        <time>2020-12-05T15:47:33.067Z</time>
      </trkpt>
      <trkpt lat="42.88583" lon="0.04399">
        <ele>1018.4</ele>
        <time>2020-12-05T15:47:34.069Z</time>
      </trkpt>
      <trkpt lat="42.88583" lon="0.04399">
        <ele>1018.4</ele>
        <time>2020-12-05T15:47:35.07Z</time>
      </trkpt>
      <trkpt lat="42.88583" lon="0.04399">
        <ele>1018.4</ele>
        <time>2020-12-05T15:47:36.07Z</time>
      </trkpt>
      <trkpt lat="42.88593" lon="0.04412">
        <ele>1019.4</ele>
        <time>2020-12-05T15:47:37.067Z</time>
      </trkpt>
      <trkpt lat="42.88593" lon="0.04412">
        <ele>1019.4</ele>
        <time>2020-12-05T15:47:38.067Z</time>
      </trkpt>
      <trkpt lat="42.88595" lon="0.04414">
        <ele>1019.6</ele>
        <time>2020-12-05T15:47:39.069Z</time>
      </trkpt>
      <trkpt lat="42.88595" lon="0.04414">
        <ele>1019.6</ele>
        <time>2020-12-05T15:47:40.07Z</time>
      </trkpt>
      <trkpt lat="42.88595" lon="0.04414">
        <ele>1019.6</ele>
        <time>2020-12-05T15:47:41.067Z</time>
      </trkpt>
      <trkpt lat="42.88595" lon="0.04414">
        <ele>1019.6</ele>
        <time>2020-12-05T15:47:42.069Z</time>
      </trkpt>
      <trkpt lat="42.88595" lon="0.04414">
        <ele>1019.6</ele>
        <time>2020-12-05T15:47:43.067Z</time>
      </trkpt>
      <trkpt lat="42.88595" lon="0.04414">
        <ele>1019.6</ele>
        <time>2020-12-05T15:47:44.068Z</time>
      </trkpt>
      <trkpt lat="42.88595" lon="0.04414">
        <ele>1019.6</ele>
        <time>2020-12-05T15:47:45.067Z</time>
      </trkpt>
      <trkpt lat="42.88603" lon="0.04424">
        <ele>1020.6</ele>
        <time>2020-12-05T15:47:46.069Z</time>
      </trkpt>
      <trkpt lat="42.88603" lon="0.04424">
        <ele>1020.6</ele>
        <time>2020-12-05T15:47:47.068Z</time>
      </trkpt>
      <trkpt lat="42.88603" lon="0.04424">
        <ele>1020.6</ele>
        <time>2020-12-05T15:47:48.069Z</time>
      </trkpt>
      <trkpt lat="42.88607" lon="0.0443">
        <ele>1021.2</ele>
        <time>2020-12-05T15:47:49.069Z</time>
      </trkpt>
      <trkpt lat="42.88607" lon="0.0443">
        <ele>1021.2</ele>
        <time>2020-12-05T15:47:50.07Z</time>
      </trkpt>
      <trkpt lat="42.88607" lon="0.0443">
        <ele>1021.2</ele>
        <time>2020-12-05T15:47:51.067Z</time>
      </trkpt>
      <trkpt lat="42.88607" lon="0.0443">
        <ele>1021.2</ele>
        <time>2020-12-05T15:47:52.07Z</time>
      </trkpt>
      <trkpt lat="42.88612" lon="0.04436">
        <ele>1022</ele>
        <time>2020-12-05T15:47:53.069Z</time>
      </trkpt>
      <trkpt lat="42.88612" lon="0.04436">
        <ele>1022</ele>
        <time>2020-12-05T15:47:54.067Z</time>
      </trkpt>
      <trkpt lat="42.88612" lon="0.04436">
        <ele>1022</ele>
        <time>2020-12-05T15:47:55.067Z</time>
      </trkpt>
      <trkpt lat="42.88612" lon="0.04436">
        <ele>1022</ele>
        <time>2020-12-05T15:47:56.069Z</time>
      </trkpt>
      <trkpt lat="42.88612" lon="0.04436">
        <ele>1022</ele>
        <time>2020-12-05T15:47:57.07Z</time>
      </trkpt>
      <trkpt lat="42.88612" lon="0.04436">
        <ele>1022</ele>
        <time>2020-12-05T15:47:58.068Z</time>
      </trkpt>
      <trkpt lat="42.88619" lon="0.04447">
        <ele>1022.8</ele>
        <time>2020-12-05T15:47:59.068Z</time>
      </trkpt>
      <trkpt lat="42.88619" lon="0.04447">
        <ele>1022.8</ele>
        <time>2020-12-05T15:48:00.07Z</time>
      </trkpt>
      <trkpt lat="42.88619" lon="0.04447">
        <ele>1022.8</ele>
        <time>2020-12-05T15:48:01.07Z</time>
      </trkpt>
      <trkpt lat="42.88619" lon="0.04447">
        <ele>1022.8</ele>
        <time>2020-12-05T15:48:02.069Z</time>
      </trkpt>
      <trkpt lat="42.88623" lon="0.04454">
        <ele>1023.4</ele>
        <time>2020-12-05T15:48:03.07Z</time>
      </trkpt>
      <trkpt lat="42.88623" lon="0.04454">
        <ele>1023.4</ele>
        <time>2020-12-05T15:48:04.068Z</time>
      </trkpt>
      <trkpt lat="42.88623" lon="0.04454">
        <ele>1023.4</ele>
        <time>2020-12-05T15:48:05.07Z</time>
      </trkpt>
      <trkpt lat="42.88627" lon="0.04459">
        <ele>1023.8</ele>
        <time>2020-12-05T15:48:06.068Z</time>
      </trkpt>
      <trkpt lat="42.88627" lon="0.04459">
        <ele>1023.8</ele>
        <time>2020-12-05T15:48:07.068Z</time>
      </trkpt>
      <trkpt lat="42.88627" lon="0.04459">
        <ele>1023.8</ele>
        <time>2020-12-05T15:48:08.07Z</time>
      </trkpt>
      <trkpt lat="42.88627" lon="0.04459">
        <ele>1023.8</ele>
        <time>2020-12-05T15:48:09.069Z</time>
      </trkpt>
      <trkpt lat="42.88627" lon="0.04459">
        <ele>1023.8</ele>
        <time>2020-12-05T15:48:10.067Z</time>
      </trkpt>
      <trkpt lat="42.88627" lon="0.04459">
        <ele>1023.8</ele>
        <time>2020-12-05T15:48:11.068Z</time>
      </trkpt>
      <trkpt lat="42.88627" lon="0.04459">
        <ele>1023.8</ele>
        <time>2020-12-05T15:48:12.068Z</time>
      </trkpt>
      <trkpt lat="42.88627" lon="0.04459">
        <ele>1023.8</ele>
        <time>2020-12-05T15:48:13.067Z</time>
      </trkpt>
      <trkpt lat="42.88627" lon="0.04459">
        <ele>1023.8</ele>
        <time>2020-12-05T15:48:14.068Z</time>
      </trkpt>
      <trkpt lat="42.88636" lon="0.04467">
        <ele>1024.8</ele>
        <time>2020-12-05T15:48:15.068Z</time>
      </trkpt>
      <trkpt lat="42.88636" lon="0.04467">
        <ele>1024.8</ele>
        <time>2020-12-05T15:48:16.068Z</time>
      </trkpt>
      <trkpt lat="42.88639" lon="0.0447">
        <ele>1025</ele>
        <time>2020-12-05T15:48:17.069Z</time>
      </trkpt>
      <trkpt lat="42.88639" lon="0.0447">
        <ele>1025</ele>
        <time>2020-12-05T15:48:18.067Z</time>
      </trkpt>
      <trkpt lat="42.88639" lon="0.0447">
        <ele>1025</ele>
        <time>2020-12-05T15:48:19.069Z</time>
      </trkpt>
      <trkpt lat="42.88639" lon="0.0447">
        <ele>1025</ele>
        <time>2020-12-05T15:48:20.068Z</time>
      </trkpt>
      <trkpt lat="42.88639" lon="0.0447">
        <ele>1025</ele>
        <time>2020-12-05T15:48:21.068Z</time>
      </trkpt>
      <trkpt lat="42.88639" lon="0.0447">
        <ele>1025</ele>
        <time>2020-12-05T15:48:22.068Z</time>
      </trkpt>
      <trkpt lat="42.88639" lon="0.0447">
        <ele>1025</ele>
        <time>2020-12-05T15:48:23.067Z</time>
      </trkpt>
      <trkpt lat="42.88651" lon="0.04481">
        <ele>1026.2</ele>
        <time>2020-12-05T15:48:24.069Z</time>
      </trkpt>
      <trkpt lat="42.88651" lon="0.04481">
        <ele>1026.2</ele>
        <time>2020-12-05T15:48:25.069Z</time>
      </trkpt>
      <trkpt lat="42.88651" lon="0.04481">
        <ele>1026.2</ele>
        <time>2020-12-05T15:48:26.068Z</time>
      </trkpt>
      <trkpt lat="42.88651" lon="0.04481">
        <ele>1026.2</ele>
        <time>2020-12-05T15:48:27.067Z</time>
      </trkpt>
      <trkpt lat="42.88651" lon="0.04481">
        <ele>1026.2</ele>
        <time>2020-12-05T15:48:28.069Z</time>
      </trkpt>
      <trkpt lat="42.88651" lon="0.04481">
        <ele>1026.2</ele>
        <time>2020-12-05T15:48:29.069Z</time>
      </trkpt>
      <trkpt lat="42.88651" lon="0.04481">
        <ele>1026.2</ele>
        <time>2020-12-05T15:48:30.067Z</time>
      </trkpt>
      <trkpt lat="42.88651" lon="0.04481">
        <ele>1026.2</ele>
        <time>2020-12-05T15:48:31.068Z</time>
      </trkpt>
      <trkpt lat="42.88651" lon="0.04481">
        <ele>1026.2</ele>
        <time>2020-12-05T15:48:32.068Z</time>
      </trkpt>
      <trkpt lat="42.88664" lon="0.04491">
        <ele>1027.2</ele>
        <time>2020-12-05T15:48:33.068Z</time>
      </trkpt>
      <trkpt lat="42.88664" lon="0.04491">
        <ele>1027.2</ele>
        <time>2020-12-05T15:48:34.068Z</time>
      </trkpt>
      <trkpt lat="42.88667" lon="0.04493">
        <ele>1027.6</ele>
        <time>2020-12-05T15:48:35.068Z</time>
      </trkpt>
      <trkpt lat="42.88667" lon="0.04493">
        <ele>1027.6</ele>
        <time>2020-12-05T15:48:36.069Z</time>
      </trkpt>
      <trkpt lat="42.88667" lon="0.04493">
        <ele>1027.6</ele>
        <time>2020-12-05T15:48:37.068Z</time>
      </trkpt>
      <trkpt lat="42.88667" lon="0.04493">
        <ele>1027.6</ele>
        <time>2020-12-05T15:48:38.067Z</time>
      </trkpt>
      <trkpt lat="42.88667" lon="0.04493">
        <ele>1027.6</ele>
        <time>2020-12-05T15:48:39.067Z</time>
      </trkpt>
      <trkpt lat="42.88667" lon="0.04493">
        <ele>1027.6</ele>
        <time>2020-12-05T15:48:40.068Z</time>
      </trkpt>
      <trkpt lat="42.88676" lon="0.04501">
        <ele>1028</ele>
        <time>2020-12-05T15:48:41.067Z</time>
      </trkpt>
      <trkpt lat="42.88676" lon="0.04501">
        <ele>1028</ele>
        <time>2020-12-05T15:48:42.07Z</time>
      </trkpt>
      <trkpt lat="42.88676" lon="0.04501">
        <ele>1028</ele>
        <time>2020-12-05T15:48:43.069Z</time>
      </trkpt>
      <trkpt lat="42.88676" lon="0.04501">
        <ele>1028</ele>
        <time>2020-12-05T15:48:44.068Z</time>
      </trkpt>
      <trkpt lat="42.88676" lon="0.04501">
        <ele>1028</ele>
        <time>2020-12-05T15:48:45.067Z</time>
      </trkpt>
      <trkpt lat="42.88684" lon="0.04507">
        <ele>1028.8</ele>
        <time>2020-12-05T15:48:46.067Z</time>
      </trkpt>
      <trkpt lat="42.88684" lon="0.04507">
        <ele>1028.8</ele>
        <time>2020-12-05T15:48:47.07Z</time>
      </trkpt>
      <trkpt lat="42.88687" lon="0.04509">
        <ele>1029.2</ele>
        <time>2020-12-05T15:48:48.067Z</time>
      </trkpt>
      <trkpt lat="42.88687" lon="0.04509">
        <ele>1029.2</ele>
        <time>2020-12-05T15:48:49.068Z</time>
      </trkpt>
      <trkpt lat="42.88687" lon="0.04509">
        <ele>1029.2</ele>
        <time>2020-12-05T15:48:50.067Z</time>
      </trkpt>
      <trkpt lat="42.88687" lon="0.04509">
        <ele>1029.2</ele>
        <time>2020-12-05T15:48:51.068Z</time>
      </trkpt>
      <trkpt lat="42.88687" lon="0.04509">
        <ele>1029.2</ele>
        <time>2020-12-05T15:48:52.068Z</time>
      </trkpt>
      <trkpt lat="42.88696" lon="0.04516">
        <ele>1030.4</ele>
        <time>2020-12-05T15:48:53.069Z</time>
      </trkpt>
      <trkpt lat="42.88696" lon="0.04516">
        <ele>1030.4</ele>
        <time>2020-12-05T15:48:54.067Z</time>
      </trkpt>
      <trkpt lat="42.88696" lon="0.04516">
        <ele>1030.4</ele>
        <time>2020-12-05T15:48:55.068Z</time>
      </trkpt>
      <trkpt lat="42.88696" lon="0.04516">
        <ele>1030.4</ele>
        <time>2020-12-05T15:48:56.067Z</time>
      </trkpt>
      <trkpt lat="42.88696" lon="0.04516">
        <ele>1030.4</ele>
        <time>2020-12-05T15:48:57.068Z</time>
      </trkpt>
      <trkpt lat="42.88696" lon="0.04516">
        <ele>1030.4</ele>
        <time>2020-12-05T15:48:58.068Z</time>
      </trkpt>
      <trkpt lat="42.88705" lon="0.04523">
        <ele>1031.4</ele>
        <time>2020-12-05T15:48:59.069Z</time>
      </trkpt>
      <trkpt lat="42.88705" lon="0.04523">
        <ele>1031.4</ele>
        <time>2020-12-05T15:49:00.068Z</time>
      </trkpt>
      <trkpt lat="42.88705" lon="0.04523">
        <ele>1031.4</ele>
        <time>2020-12-05T15:49:01.067Z</time>
      </trkpt>
      <trkpt lat="42.88705" lon="0.04523">
        <ele>1031.4</ele>
        <time>2020-12-05T15:49:02.068Z</time>
      </trkpt>
      <trkpt lat="42.88705" lon="0.04523">
        <ele>1031.4</ele>
        <time>2020-12-05T15:49:03.068Z</time>
      </trkpt>
      <trkpt lat="42.88705" lon="0.04523">
        <ele>1031.4</ele>
        <time>2020-12-05T15:49:04.069Z</time>
      </trkpt>
      <trkpt lat="42.88705" lon="0.04523">
        <ele>1031.4</ele>
        <time>2020-12-05T15:49:05.067Z</time>
      </trkpt>
      <trkpt lat="42.88705" lon="0.04523">
        <ele>1031.4</ele>
        <time>2020-12-05T15:49:06.068Z</time>
      </trkpt>
      <trkpt lat="42.88705" lon="0.04523">
        <ele>1031.4</ele>
        <time>2020-12-05T15:49:07.067Z</time>
      </trkpt>
      <trkpt lat="42.88718" lon="0.04532">
        <ele>1032.6</ele>
        <time>2020-12-05T15:49:08.068Z</time>
      </trkpt>
      <trkpt lat="42.88718" lon="0.04532">
        <ele>1032.6</ele>
        <time>2020-12-05T15:49:09.067Z</time>
      </trkpt>
      <trkpt lat="42.88718" lon="0.04532">
        <ele>1032.6</ele>
        <time>2020-12-05T15:49:10.067Z</time>
      </trkpt>
      <trkpt lat="42.88721" lon="0.04534">
        <ele>1033</ele>
        <time>2020-12-05T15:49:11.067Z</time>
      </trkpt>
      <trkpt lat="42.88721" lon="0.04534">
        <ele>1033</ele>
        <time>2020-12-05T15:49:12.067Z</time>
      </trkpt>
      <trkpt lat="42.88721" lon="0.04534">
        <ele>1033</ele>
        <time>2020-12-05T15:49:13.067Z</time>
      </trkpt>
      <trkpt lat="42.88721" lon="0.04534">
        <ele>1033</ele>
        <time>2020-12-05T15:49:14.069Z</time>
      </trkpt>
      <trkpt lat="42.88721" lon="0.04534">
        <ele>1033</ele>
        <time>2020-12-05T15:49:15.069Z</time>
      </trkpt>
      <trkpt lat="42.88731" lon="0.04542">
        <ele>1033.8</ele>
        <time>2020-12-05T15:49:16.069Z</time>
      </trkpt>
      <trkpt lat="42.88731" lon="0.04542">
        <ele>1033.8</ele>
        <time>2020-12-05T15:49:17.07Z</time>
      </trkpt>
      <trkpt lat="42.88731" lon="0.04542">
        <ele>1033.8</ele>
        <time>2020-12-05T15:49:18.067Z</time>
      </trkpt>
      <trkpt lat="42.88731" lon="0.04542">
        <ele>1033.8</ele>
        <time>2020-12-05T15:49:19.07Z</time>
      </trkpt>
      <trkpt lat="42.88731" lon="0.04542">
        <ele>1033.8</ele>
        <time>2020-12-05T15:49:20.067Z</time>
      </trkpt>
      <trkpt lat="42.88738" lon="0.04547">
        <ele>1034.4</ele>
        <time>2020-12-05T15:49:21.069Z</time>
      </trkpt>
      <trkpt lat="42.88738" lon="0.04547">
        <ele>1034.4</ele>
        <time>2020-12-05T15:49:22.068Z</time>
      </trkpt>
      <trkpt lat="42.88741" lon="0.04551">
        <ele>1034.6</ele>
        <time>2020-12-05T15:49:23.068Z</time>
      </trkpt>
      <trkpt lat="42.88741" lon="0.04551">
        <ele>1034.6</ele>
        <time>2020-12-05T15:49:24.068Z</time>
      </trkpt>
      <trkpt lat="42.88741" lon="0.04551">
        <ele>1034.6</ele>
        <time>2020-12-05T15:49:25.068Z</time>
      </trkpt>
      <trkpt lat="42.88741" lon="0.04551">
        <ele>1034.6</ele>
        <time>2020-12-05T15:49:26.068Z</time>
      </trkpt>
      <trkpt lat="42.88747" lon="0.04557">
        <ele>1035</ele>
        <time>2020-12-05T15:49:27.069Z</time>
      </trkpt>
      <trkpt lat="42.88747" lon="0.04557">
        <ele>1035</ele>
        <time>2020-12-05T15:49:28.068Z</time>
      </trkpt>
      <trkpt lat="42.88747" lon="0.04557">
        <ele>1035</ele>
        <time>2020-12-05T15:49:29.067Z</time>
      </trkpt>
      <trkpt lat="42.88747" lon="0.04557">
        <ele>1035</ele>
        <time>2020-12-05T15:49:30.068Z</time>
      </trkpt>
      <trkpt lat="42.88747" lon="0.04557">
        <ele>1035</ele>
        <time>2020-12-05T15:49:31.067Z</time>
      </trkpt>
      <trkpt lat="42.88747" lon="0.04557">
        <ele>1035</ele>
        <time>2020-12-05T15:49:32.067Z</time>
      </trkpt>
      <trkpt lat="42.88756" lon="0.04566">
        <ele>1035.8</ele>
        <time>2020-12-05T15:49:33.069Z</time>
      </trkpt>
      <trkpt lat="42.88756" lon="0.04566">
        <ele>1035.8</ele>
        <time>2020-12-05T15:49:34.069Z</time>
      </trkpt>
      <trkpt lat="42.88759" lon="0.04569">
        <ele>1036</ele>
        <time>2020-12-05T15:49:35.067Z</time>
      </trkpt>
      <trkpt lat="42.88759" lon="0.04569">
        <ele>1036</ele>
        <time>2020-12-05T15:49:36.067Z</time>
      </trkpt>
      <trkpt lat="42.88759" lon="0.04569">
        <ele>1036</ele>
        <time>2020-12-05T15:49:37.067Z</time>
      </trkpt>
      <trkpt lat="42.88759" lon="0.04569">
        <ele>1036</ele>
        <time>2020-12-05T15:49:38.069Z</time>
      </trkpt>
      <trkpt lat="42.88759" lon="0.04569">
        <ele>1036</ele>
        <time>2020-12-05T15:49:39.067Z</time>
      </trkpt>
      <trkpt lat="42.88759" lon="0.04569">
        <ele>1036</ele>
        <time>2020-12-05T15:49:40.067Z</time>
      </trkpt>
      <trkpt lat="42.88759" lon="0.04569">
        <ele>1036</ele>
        <time>2020-12-05T15:49:41.067Z</time>
      </trkpt>
      <trkpt lat="42.88759" lon="0.04569">
        <ele>1036</ele>
        <time>2020-12-05T15:49:42.069Z</time>
      </trkpt>
      <trkpt lat="42.88771" lon="0.04581">
        <ele>1036.8</ele>
        <time>2020-12-05T15:49:43.067Z</time>
      </trkpt>
      <trkpt lat="42.88771" lon="0.04581">
        <ele>1036.8</ele>
        <time>2020-12-05T15:49:44.067Z</time>
      </trkpt>
      <trkpt lat="42.88774" lon="0.04584">
        <ele>1037.2</ele>
        <time>2020-12-05T15:49:45.067Z</time>
      </trkpt>
      <trkpt lat="42.88774" lon="0.04584">
        <ele>1037.2</ele>
        <time>2020-12-05T15:49:46.068Z</time>
      </trkpt>
      <trkpt lat="42.88774" lon="0.04584">
        <ele>1037.2</ele>
        <time>2020-12-05T15:49:47.067Z</time>
      </trkpt>
      <trkpt lat="42.88774" lon="0.04584">
        <ele>1037.2</ele>
        <time>2020-12-05T15:49:48.067Z</time>
      </trkpt>
      <trkpt lat="42.88774" lon="0.04584">
        <ele>1037.2</ele>
        <time>2020-12-05T15:49:49.067Z</time>
      </trkpt>
      <trkpt lat="42.88774" lon="0.04584">
        <ele>1037.2</ele>
        <time>2020-12-05T15:49:50.07Z</time>
      </trkpt>
      <trkpt lat="42.88774" lon="0.04584">
        <ele>1037.2</ele>
        <time>2020-12-05T15:49:51.068Z</time>
      </trkpt>
      <trkpt lat="42.88774" lon="0.04584">
        <ele>1037.2</ele>
        <time>2020-12-05T15:49:52.067Z</time>
      </trkpt>
      <trkpt lat="42.88774" lon="0.04584">
        <ele>1037.2</ele>
        <time>2020-12-05T15:49:53.067Z</time>
      </trkpt>
      <trkpt lat="42.88786" lon="0.04596">
        <ele>1038.8</ele>
        <time>2020-12-05T15:49:54.068Z</time>
      </trkpt>
      <trkpt lat="42.88786" lon="0.04596">
        <ele>1038.8</ele>
        <time>2020-12-05T15:49:55.069Z</time>
      </trkpt>
      <trkpt lat="42.88786" lon="0.04596">
        <ele>1038.8</ele>
        <time>2020-12-05T15:49:56.067Z</time>
      </trkpt>
      <trkpt lat="42.88786" lon="0.04596">
        <ele>1038.8</ele>
        <time>2020-12-05T15:49:57.067Z</time>
      </trkpt>
      <trkpt lat="42.88786" lon="0.04596">
        <ele>1038.8</ele>
        <time>2020-12-05T15:49:58.067Z</time>
      </trkpt>
      <trkpt lat="42.88786" lon="0.04596">
        <ele>1038.8</ele>
        <time>2020-12-05T15:49:59.069Z</time>
      </trkpt>
      <trkpt lat="42.88786" lon="0.04596">
        <ele>1038.8</ele>
        <time>2020-12-05T15:50:00.067Z</time>
      </trkpt>
      <trkpt lat="42.88786" lon="0.04596">
        <ele>1038.8</ele>
        <time>2020-12-05T15:50:01.068Z</time>
      </trkpt>
      <trkpt lat="42.88786" lon="0.04596">
        <ele>1038.8</ele>
        <time>2020-12-05T15:50:02.068Z</time>
      </trkpt>
      <trkpt lat="42.88786" lon="0.04596">
        <ele>1038.8</ele>
        <time>2020-12-05T15:50:03.068Z</time>
      </trkpt>
      <trkpt lat="42.88802" lon="0.04611">
        <ele>1040</ele>
        <time>2020-12-05T15:50:04.067Z</time>
      </trkpt>
      <trkpt lat="42.88802" lon="0.04611">
        <ele>1040</ele>
        <time>2020-12-05T15:50:05.068Z</time>
      </trkpt>
      <trkpt lat="42.88802" lon="0.04611">
        <ele>1040</ele>
        <time>2020-12-05T15:50:06.067Z</time>
      </trkpt>
      <trkpt lat="42.88802" lon="0.04611">
        <ele>1040</ele>
        <time>2020-12-05T15:50:07.068Z</time>
      </trkpt>
      <trkpt lat="42.88809" lon="0.04616">
        <ele>1040.6</ele>
        <time>2020-12-05T15:50:08.068Z</time>
      </trkpt>
      <trkpt lat="42.88809" lon="0.04616">
        <ele>1040.6</ele>
        <time>2020-12-05T15:50:09.068Z</time>
      </trkpt>
      <trkpt lat="42.88809" lon="0.04616">
        <ele>1040.6</ele>
        <time>2020-12-05T15:50:10.067Z</time>
      </trkpt>
      <trkpt lat="42.88809" lon="0.04616">
        <ele>1040.6</ele>
        <time>2020-12-05T15:50:11.067Z</time>
      </trkpt>
      <trkpt lat="42.88815" lon="0.0462">
        <ele>1041.2</ele>
        <time>2020-12-05T15:50:12.07Z</time>
      </trkpt>
      <trkpt lat="42.88815" lon="0.0462">
        <ele>1041.2</ele>
        <time>2020-12-05T15:50:13.068Z</time>
      </trkpt>
      <trkpt lat="42.88815" lon="0.0462">
        <ele>1041.2</ele>
        <time>2020-12-05T15:50:14.069Z</time>
      </trkpt>
      <trkpt lat="42.88815" lon="0.0462">
        <ele>1041.2</ele>
        <time>2020-12-05T15:50:15.068Z</time>
      </trkpt>
      <trkpt lat="42.88815" lon="0.0462">
        <ele>1041.2</ele>
        <time>2020-12-05T15:50:16.07Z</time>
      </trkpt>
      <trkpt lat="42.88815" lon="0.0462">
        <ele>1041.2</ele>
        <time>2020-12-05T15:50:17.067Z</time>
      </trkpt>
      <trkpt lat="42.88815" lon="0.0462">
        <ele>1041.2</ele>
        <time>2020-12-05T15:50:18.068Z</time>
      </trkpt>
      <trkpt lat="42.88815" lon="0.0462">
        <ele>1041.2</ele>
        <time>2020-12-05T15:50:19.069Z</time>
      </trkpt>
      <trkpt lat="42.88829" lon="0.04628">
        <ele>1042.2</ele>
        <time>2020-12-05T15:50:20.068Z</time>
      </trkpt>
      <trkpt lat="42.88829" lon="0.04628">
        <ele>1042.2</ele>
        <time>2020-12-05T15:50:21.069Z</time>
      </trkpt>
      <trkpt lat="42.88832" lon="0.0463">
        <ele>1042.4</ele>
        <time>2020-12-05T15:50:22.067Z</time>
      </trkpt>
      <trkpt lat="42.88832" lon="0.0463">
        <ele>1042.4</ele>
        <time>2020-12-05T15:50:23.067Z</time>
      </trkpt>
      <trkpt lat="42.88832" lon="0.0463">
        <ele>1042.4</ele>
        <time>2020-12-05T15:50:24.068Z</time>
      </trkpt>
      <trkpt lat="42.88832" lon="0.0463">
        <ele>1042.4</ele>
        <time>2020-12-05T15:50:25.069Z</time>
      </trkpt>
      <trkpt lat="42.88832" lon="0.0463">
        <ele>1042.4</ele>
        <time>2020-12-05T15:50:26.068Z</time>
      </trkpt>
      <trkpt lat="42.88832" lon="0.0463">
        <ele>1042.4</ele>
        <time>2020-12-05T15:50:27.069Z</time>
      </trkpt>
      <trkpt lat="42.88832" lon="0.0463">
        <ele>1042.4</ele>
        <time>2020-12-05T15:50:28.068Z</time>
      </trkpt>
      <trkpt lat="42.88832" lon="0.0463">
        <ele>1042.4</ele>
        <time>2020-12-05T15:50:29.07Z</time>
      </trkpt>
      <trkpt lat="42.88847" lon="0.04636">
        <ele>1043.4</ele>
        <time>2020-12-05T15:50:30.068Z</time>
      </trkpt>
      <trkpt lat="42.88847" lon="0.04636">
        <ele>1043.4</ele>
        <time>2020-12-05T15:50:31.067Z</time>
      </trkpt>
      <trkpt lat="42.88851" lon="0.04637">
        <ele>1043.6</ele>
        <time>2020-12-05T15:50:32.068Z</time>
      </trkpt>
      <trkpt lat="42.88851" lon="0.04637">
        <ele>1043.6</ele>
        <time>2020-12-05T15:50:33.07Z</time>
      </trkpt>
      <trkpt lat="42.88851" lon="0.04637">
        <ele>1043.6</ele>
        <time>2020-12-05T15:50:34.067Z</time>
      </trkpt>
      <trkpt lat="42.88851" lon="0.04637">
        <ele>1043.6</ele>
        <time>2020-12-05T15:50:35.068Z</time>
      </trkpt>
      <trkpt lat="42.88851" lon="0.04637">
        <ele>1043.6</ele>
        <time>2020-12-05T15:50:36.068Z</time>
      </trkpt>
      <trkpt lat="42.88861" lon="0.04642">
        <ele>1044.6</ele>
        <time>2020-12-05T15:50:37.067Z</time>
      </trkpt>
      <trkpt lat="42.88861" lon="0.04642">
        <ele>1044.6</ele>
        <time>2020-12-05T15:50:38.067Z</time>
      </trkpt>
      <trkpt lat="42.88861" lon="0.04642">
        <ele>1044.6</ele>
        <time>2020-12-05T15:50:39.068Z</time>
      </trkpt>
      <trkpt lat="42.88867" lon="0.04646">
        <ele>1045.2</ele>
        <time>2020-12-05T15:50:40.067Z</time>
      </trkpt>
      <trkpt lat="42.88867" lon="0.04646">
        <ele>1045.2</ele>
        <time>2020-12-05T15:50:41.067Z</time>
      </trkpt>
      <trkpt lat="42.88867" lon="0.04646">
        <ele>1045.2</ele>
        <time>2020-12-05T15:50:42.07Z</time>
      </trkpt>
      <trkpt lat="42.88867" lon="0.04646">
        <ele>1045.2</ele>
        <time>2020-12-05T15:50:43.067Z</time>
      </trkpt>
      <trkpt lat="42.88867" lon="0.04646">
        <ele>1045.2</ele>
        <time>2020-12-05T15:50:44.068Z</time>
      </trkpt>
      <trkpt lat="42.88867" lon="0.04646">
        <ele>1045.2</ele>
        <time>2020-12-05T15:50:45.068Z</time>
      </trkpt>
      <trkpt lat="42.88867" lon="0.04646">
        <ele>1045.2</ele>
        <time>2020-12-05T15:50:46.067Z</time>
      </trkpt>
      <trkpt lat="42.8888" lon="0.04652">
        <ele>1045.8</ele>
        <time>2020-12-05T15:50:47.068Z</time>
      </trkpt>
      <trkpt lat="42.8888" lon="0.04652">
        <ele>1045.8</ele>
        <time>2020-12-05T15:50:48.068Z</time>
      </trkpt>
      <trkpt lat="42.8888" lon="0.04652">
        <ele>1045.8</ele>
        <time>2020-12-05T15:50:49.07Z</time>
      </trkpt>
      <trkpt lat="42.8888" lon="0.04652">
        <ele>1045.8</ele>
        <time>2020-12-05T15:50:50.069Z</time>
      </trkpt>
      <trkpt lat="42.8888" lon="0.04652">
        <ele>1045.8</ele>
        <time>2020-12-05T15:50:51.068Z</time>
      </trkpt>
      <trkpt lat="42.8888" lon="0.04652">
        <ele>1045.8</ele>
        <time>2020-12-05T15:50:52.067Z</time>
      </trkpt>
      <trkpt lat="42.8889" lon="0.04656">
        <ele>1047</ele>
        <time>2020-12-05T15:50:53.067Z</time>
      </trkpt>
      <trkpt lat="42.8889" lon="0.04656">
        <ele>1047</ele>
        <time>2020-12-05T15:50:54.067Z</time>
      </trkpt>
      <trkpt lat="42.8889" lon="0.04656">
        <ele>1047</ele>
        <time>2020-12-05T15:50:55.069Z</time>
      </trkpt>
      <trkpt lat="42.8889" lon="0.04656">
        <ele>1047</ele>
        <time>2020-12-05T15:50:56.068Z</time>
      </trkpt>
      <trkpt lat="42.8889" lon="0.04656">
        <ele>1047</ele>
        <time>2020-12-05T15:50:57.068Z</time>
      </trkpt>
      <trkpt lat="42.8889" lon="0.04656">
        <ele>1047</ele>
        <time>2020-12-05T15:50:58.067Z</time>
      </trkpt>
      <trkpt lat="42.8889" lon="0.04656">
        <ele>1047</ele>
        <time>2020-12-05T15:50:59.068Z</time>
      </trkpt>
      <trkpt lat="42.8889" lon="0.04656">
        <ele>1047</ele>
        <time>2020-12-05T15:51:00.067Z</time>
      </trkpt>
      <trkpt lat="42.8889" lon="0.04656">
        <ele>1047</ele>
        <time>2020-12-05T15:51:01.067Z</time>
      </trkpt>
      <trkpt lat="42.8889" lon="0.04656">
        <ele>1047</ele>
        <time>2020-12-05T15:51:02.068Z</time>
      </trkpt>
      <trkpt lat="42.88903" lon="0.04664">
        <ele>1048.2</ele>
        <time>2020-12-05T15:51:03.068Z</time>
      </trkpt>
      <trkpt lat="42.88903" lon="0.04664">
        <ele>1048.2</ele>
        <time>2020-12-05T15:51:04.068Z</time>
      </trkpt>
      <trkpt lat="42.88903" lon="0.04664">
        <ele>1048.2</ele>
        <time>2020-12-05T15:51:05.068Z</time>
      </trkpt>
      <trkpt lat="42.88909" lon="0.04667">
        <ele>1049</ele>
        <time>2020-12-05T15:51:06.068Z</time>
      </trkpt>
      <trkpt lat="42.88909" lon="0.04667">
        <ele>1049</ele>
        <time>2020-12-05T15:51:07.067Z</time>
      </trkpt>
      <trkpt lat="42.88913" lon="0.04669">
        <ele>1049.4</ele>
        <time>2020-12-05T15:51:08.067Z</time>
      </trkpt>
      <trkpt lat="42.88913" lon="0.04669">
        <ele>1049.4</ele>
        <time>2020-12-05T15:51:09.067Z</time>
      </trkpt>
      <trkpt lat="42.88913" lon="0.04669">
        <ele>1049.4</ele>
        <time>2020-12-05T15:51:10.068Z</time>
      </trkpt>
      <trkpt lat="42.88913" lon="0.04669">
        <ele>1049.4</ele>
        <time>2020-12-05T15:51:11.068Z</time>
      </trkpt>
      <trkpt lat="42.88913" lon="0.04669">
        <ele>1049.4</ele>
        <time>2020-12-05T15:51:12.068Z</time>
      </trkpt>
      <trkpt lat="42.88913" lon="0.04669">
        <ele>1049.4</ele>
        <time>2020-12-05T15:51:13.068Z</time>
      </trkpt>
      <trkpt lat="42.88913" lon="0.04669">
        <ele>1049.4</ele>
        <time>2020-12-05T15:51:14.067Z</time>
      </trkpt>
      <trkpt lat="42.88913" lon="0.04669">
        <ele>1049.4</ele>
        <time>2020-12-05T15:51:15.069Z</time>
      </trkpt>
      <trkpt lat="42.88925" lon="0.04676">
        <ele>1050.8</ele>
        <time>2020-12-05T15:51:16.069Z</time>
      </trkpt>
      <trkpt lat="42.88925" lon="0.04676">
        <ele>1050.8</ele>
        <time>2020-12-05T15:51:17.068Z</time>
      </trkpt>
      <trkpt lat="42.88928" lon="0.04678">
        <ele>1051</ele>
        <time>2020-12-05T15:51:18.067Z</time>
      </trkpt>
      <trkpt lat="42.88928" lon="0.04678">
        <ele>1051</ele>
        <time>2020-12-05T15:51:19.068Z</time>
      </trkpt>
      <trkpt lat="42.88928" lon="0.04678">
        <ele>1051</ele>
        <time>2020-12-05T15:51:20.068Z</time>
      </trkpt>
      <trkpt lat="42.88928" lon="0.04678">
        <ele>1051</ele>
        <time>2020-12-05T15:51:21.068Z</time>
      </trkpt>
      <trkpt lat="42.88928" lon="0.04678">
        <ele>1051</ele>
        <time>2020-12-05T15:51:22.067Z</time>
      </trkpt>
      <trkpt lat="42.88938" lon="0.04683">
        <ele>1052</ele>
        <time>2020-12-05T15:51:23.069Z</time>
      </trkpt>
      <trkpt lat="42.88938" lon="0.04683">
        <ele>1052</ele>
        <time>2020-12-05T15:51:24.067Z</time>
      </trkpt>
      <trkpt lat="42.88938" lon="0.04683">
        <ele>1052</ele>
        <time>2020-12-05T15:51:25.069Z</time>
      </trkpt>
      <trkpt lat="42.88938" lon="0.04683">
        <ele>1052</ele>
        <time>2020-12-05T15:51:26.068Z</time>
      </trkpt>
      <trkpt lat="42.88938" lon="0.04683">
        <ele>1052</ele>
        <time>2020-12-05T15:51:27.068Z</time>
      </trkpt>
      <trkpt lat="42.88947" lon="0.04688">
        <ele>1053</ele>
        <time>2020-12-05T15:51:28.067Z</time>
      </trkpt>
      <trkpt lat="42.88947" lon="0.04688">
        <ele>1053</ele>
        <time>2020-12-05T15:51:29.07Z</time>
      </trkpt>
      <trkpt lat="42.8895" lon="0.04689">
        <ele>1053.2</ele>
        <time>2020-12-05T15:51:30.068Z</time>
      </trkpt>
      <trkpt lat="42.8895" lon="0.04689">
        <ele>1053.2</ele>
        <time>2020-12-05T15:51:31.068Z</time>
      </trkpt>
      <trkpt lat="42.8895" lon="0.04689">
        <ele>1053.2</ele>
        <time>2020-12-05T15:51:32.068Z</time>
      </trkpt>
      <trkpt lat="42.8895" lon="0.04689">
        <ele>1053.2</ele>
        <time>2020-12-05T15:51:33.07Z</time>
      </trkpt>
      <trkpt lat="42.88958" lon="0.04692">
        <ele>1054.2</ele>
        <time>2020-12-05T15:51:34.067Z</time>
      </trkpt>
      <trkpt lat="42.88958" lon="0.04692">
        <ele>1054.2</ele>
        <time>2020-12-05T15:51:35.068Z</time>
      </trkpt>
      <trkpt lat="42.88958" lon="0.04692">
        <ele>1054.2</ele>
        <time>2020-12-05T15:51:36.069Z</time>
      </trkpt>
      <trkpt lat="42.88958" lon="0.04692">
        <ele>1054.2</ele>
        <time>2020-12-05T15:51:37.069Z</time>
      </trkpt>
      <trkpt lat="42.88958" lon="0.04692">
        <ele>1054.2</ele>
        <time>2020-12-05T15:51:38.068Z</time>
      </trkpt>
      <trkpt lat="42.88966" lon="0.04696">
        <ele>1055.2</ele>
        <time>2020-12-05T15:51:39.069Z</time>
      </trkpt>
      <trkpt lat="42.88966" lon="0.04696">
        <ele>1055.2</ele>
        <time>2020-12-05T15:51:40.067Z</time>
      </trkpt>
      <trkpt lat="42.88966" lon="0.04696">
        <ele>1055.2</ele>
        <time>2020-12-05T15:51:41.069Z</time>
      </trkpt>
      <trkpt lat="42.88966" lon="0.04696">
        <ele>1055.2</ele>
        <time>2020-12-05T15:51:42.069Z</time>
      </trkpt>
      <trkpt lat="42.88966" lon="0.04696">
        <ele>1055.2</ele>
        <time>2020-12-05T15:51:43.067Z</time>
      </trkpt>
      <trkpt lat="42.88975" lon="0.04701">
        <ele>1056.4</ele>
        <time>2020-12-05T15:51:44.07Z</time>
      </trkpt>
      <trkpt lat="42.88978" lon="0.04703">
        <ele>1056.8</ele>
        <time>2020-12-05T15:51:45.068Z</time>
      </trkpt>
      <trkpt lat="42.88978" lon="0.04703">
        <ele>1056.8</ele>
        <time>2020-12-05T15:51:46.069Z</time>
      </trkpt>
      <trkpt lat="42.88978" lon="0.04703">
        <ele>1056.8</ele>
        <time>2020-12-05T15:51:47.067Z</time>
      </trkpt>
      <trkpt lat="42.88978" lon="0.04703">
        <ele>1056.8</ele>
        <time>2020-12-05T15:51:48.067Z</time>
      </trkpt>
      <trkpt lat="42.88983" lon="0.04705">
        <ele>1057.2</ele>
        <time>2020-12-05T15:51:49.067Z</time>
      </trkpt>
      <trkpt lat="42.88983" lon="0.04705">
        <ele>1057.2</ele>
        <time>2020-12-05T15:51:50.07Z</time>
      </trkpt>
      <trkpt lat="42.88986" lon="0.04707">
        <ele>1057.6</ele>
        <time>2020-12-05T15:51:51.069Z</time>
      </trkpt>
      <trkpt lat="42.88986" lon="0.04707">
        <ele>1057.6</ele>
        <time>2020-12-05T15:51:52.068Z</time>
      </trkpt>
      <trkpt lat="42.88986" lon="0.04707">
        <ele>1057.6</ele>
        <time>2020-12-05T15:51:53.068Z</time>
      </trkpt>
      <trkpt lat="42.88986" lon="0.04707">
        <ele>1057.6</ele>
        <time>2020-12-05T15:51:54.069Z</time>
      </trkpt>
      <trkpt lat="42.88986" lon="0.04707">
        <ele>1057.6</ele>
        <time>2020-12-05T15:51:55.068Z</time>
      </trkpt>
      <trkpt lat="42.88986" lon="0.04707">
        <ele>1057.6</ele>
        <time>2020-12-05T15:51:56.068Z</time>
      </trkpt>
      <trkpt lat="42.88998" lon="0.04713">
        <ele>1058.6</ele>
        <time>2020-12-05T15:51:57.069Z</time>
      </trkpt>
      <trkpt lat="42.88998" lon="0.04713">
        <ele>1058.6</ele>
        <time>2020-12-05T15:51:58.069Z</time>
      </trkpt>
      <trkpt lat="42.89001" lon="0.04714">
        <ele>1059</ele>
        <time>2020-12-05T15:51:59.068Z</time>
      </trkpt>
      <trkpt lat="42.89001" lon="0.04714">
        <ele>1059</ele>
        <time>2020-12-05T15:52:00.068Z</time>
      </trkpt>
      <trkpt lat="42.89001" lon="0.04714">
        <ele>1059</ele>
        <time>2020-12-05T15:52:01.068Z</time>
      </trkpt>
      <trkpt lat="42.89001" lon="0.04714">
        <ele>1059</ele>
        <time>2020-12-05T15:52:02.067Z</time>
      </trkpt>
      <trkpt lat="42.89001" lon="0.04714">
        <ele>1059</ele>
        <time>2020-12-05T15:52:03.069Z</time>
      </trkpt>
      <trkpt lat="42.8901" lon="0.04718">
        <ele>1060</ele>
        <time>2020-12-05T15:52:04.068Z</time>
      </trkpt>
      <trkpt lat="42.8901" lon="0.04718">
        <ele>1060</ele>
        <time>2020-12-05T15:52:05.068Z</time>
      </trkpt>
      <trkpt lat="42.8901" lon="0.04718">
        <ele>1060</ele>
        <time>2020-12-05T15:52:06.068Z</time>
      </trkpt>
      <trkpt lat="42.8901" lon="0.04718">
        <ele>1060</ele>
        <time>2020-12-05T15:52:07.068Z</time>
      </trkpt>
      <trkpt lat="42.8901" lon="0.04718">
        <ele>1060</ele>
        <time>2020-12-05T15:52:08.067Z</time>
      </trkpt>
      <trkpt lat="42.8901" lon="0.04718">
        <ele>1060</ele>
        <time>2020-12-05T15:52:09.069Z</time>
      </trkpt>
      <trkpt lat="42.89018" lon="0.04724">
        <ele>1061</ele>
        <time>2020-12-05T15:52:10.068Z</time>
      </trkpt>
      <trkpt lat="42.89018" lon="0.04724">
        <ele>1061</ele>
        <time>2020-12-05T15:52:11.067Z</time>
      </trkpt>
      <trkpt lat="42.89018" lon="0.04724">
        <ele>1061</ele>
        <time>2020-12-05T15:52:12.067Z</time>
      </trkpt>
      <trkpt lat="42.89018" lon="0.04724">
        <ele>1061</ele>
        <time>2020-12-05T15:52:13.068Z</time>
      </trkpt>
      <trkpt lat="42.89018" lon="0.04724">
        <ele>1061</ele>
        <time>2020-12-05T15:52:14.067Z</time>
      </trkpt>
      <trkpt lat="42.89018" lon="0.04724">
        <ele>1061</ele>
        <time>2020-12-05T15:52:15.069Z</time>
      </trkpt>
      <trkpt lat="42.89018" lon="0.04724">
        <ele>1061</ele>
        <time>2020-12-05T15:52:16.069Z</time>
      </trkpt>
      <trkpt lat="42.89018" lon="0.04724">
        <ele>1061</ele>
        <time>2020-12-05T15:52:17.068Z</time>
      </trkpt>
      <trkpt lat="42.89028" lon="0.04735">
        <ele>1062.2</ele>
        <time>2020-12-05T15:52:18.068Z</time>
      </trkpt>
      <trkpt lat="42.89028" lon="0.04735">
        <ele>1062.2</ele>
        <time>2020-12-05T15:52:19.067Z</time>
      </trkpt>
      <trkpt lat="42.89031" lon="0.04738">
        <ele>1062.6</ele>
        <time>2020-12-05T15:52:20.068Z</time>
      </trkpt>
      <trkpt lat="42.89031" lon="0.04738">
        <ele>1062.6</ele>
        <time>2020-12-05T15:52:21.068Z</time>
      </trkpt>
      <trkpt lat="42.89031" lon="0.04738">
        <ele>1062.6</ele>
        <time>2020-12-05T15:52:22.067Z</time>
      </trkpt>
      <trkpt lat="42.89031" lon="0.04738">
        <ele>1062.6</ele>
        <time>2020-12-05T15:52:23.068Z</time>
      </trkpt>
      <trkpt lat="42.89031" lon="0.04738">
        <ele>1062.6</ele>
        <time>2020-12-05T15:52:24.067Z</time>
      </trkpt>
      <trkpt lat="42.89037" lon="0.04747">
        <ele>1063.4</ele>
        <time>2020-12-05T15:52:25.068Z</time>
      </trkpt>
      <trkpt lat="42.89037" lon="0.04747">
        <ele>1063.4</ele>
        <time>2020-12-05T15:52:26.068Z</time>
      </trkpt>
      <trkpt lat="42.89037" lon="0.04747">
        <ele>1063.4</ele>
        <time>2020-12-05T15:52:27.068Z</time>
      </trkpt>
      <trkpt lat="42.89037" lon="0.04747">
        <ele>1063.4</ele>
        <time>2020-12-05T15:52:28.068Z</time>
      </trkpt>
      <trkpt lat="42.89037" lon="0.04747">
        <ele>1063.4</ele>
        <time>2020-12-05T15:52:29.067Z</time>
      </trkpt>
      <trkpt lat="42.89037" lon="0.04747">
        <ele>1063.4</ele>
        <time>2020-12-05T15:52:30.068Z</time>
      </trkpt>
      <trkpt lat="42.89044" lon="0.04759">
        <ele>1064.2</ele>
        <time>2020-12-05T15:52:31.068Z</time>
      </trkpt>
      <trkpt lat="42.89044" lon="0.04759">
        <ele>1064.2</ele>
        <time>2020-12-05T15:52:32.068Z</time>
      </trkpt>
      <trkpt lat="42.89046" lon="0.04762">
        <ele>1064.6</ele>
        <time>2020-12-05T15:52:33.068Z</time>
      </trkpt>
      <trkpt lat="42.89046" lon="0.04762">
        <ele>1064.6</ele>
        <time>2020-12-05T15:52:34.067Z</time>
      </trkpt>
      <trkpt lat="42.89046" lon="0.04762">
        <ele>1064.6</ele>
        <time>2020-12-05T15:52:35.068Z</time>
      </trkpt>
      <trkpt lat="42.89046" lon="0.04762">
        <ele>1064.6</ele>
        <time>2020-12-05T15:52:36.067Z</time>
      </trkpt>
      <trkpt lat="42.89046" lon="0.04762">
        <ele>1064.6</ele>
        <time>2020-12-05T15:52:37.067Z</time>
      </trkpt>
      <trkpt lat="42.89053" lon="0.04771">
        <ele>1065.8</ele>
        <time>2020-12-05T15:52:38.068Z</time>
      </trkpt>
      <trkpt lat="42.89053" lon="0.04771">
        <ele>1065.8</ele>
        <time>2020-12-05T15:52:39.067Z</time>
      </trkpt>
      <trkpt lat="42.89053" lon="0.04771">
        <ele>1065.8</ele>
        <time>2020-12-05T15:52:40.067Z</time>
      </trkpt>
      <trkpt lat="42.89053" lon="0.04771">
        <ele>1065.8</ele>
        <time>2020-12-05T15:52:41.068Z</time>
      </trkpt>
      <trkpt lat="42.89058" lon="0.04778">
        <ele>1066.4</ele>
        <time>2020-12-05T15:52:42.067Z</time>
      </trkpt>
      <trkpt lat="42.89058" lon="0.04778">
        <ele>1066.4</ele>
        <time>2020-12-05T15:52:43.067Z</time>
      </trkpt>
      <trkpt lat="42.89058" lon="0.04778">
        <ele>1066.4</ele>
        <time>2020-12-05T15:52:44.067Z</time>
      </trkpt>
      <trkpt lat="42.89062" lon="0.04785">
        <ele>1067</ele>
        <time>2020-12-05T15:52:45.068Z</time>
      </trkpt>
      <trkpt lat="42.89062" lon="0.04785">
        <ele>1067</ele>
        <time>2020-12-05T15:52:46.067Z</time>
      </trkpt>
      <trkpt lat="42.89062" lon="0.04785">
        <ele>1067</ele>
        <time>2020-12-05T15:52:47.067Z</time>
      </trkpt>
      <trkpt lat="42.89062" lon="0.04785">
        <ele>1067</ele>
        <time>2020-12-05T15:52:48.067Z</time>
      </trkpt>
      <trkpt lat="42.89062" lon="0.04785">
        <ele>1067</ele>
        <time>2020-12-05T15:52:49.067Z</time>
      </trkpt>
      <trkpt lat="42.89062" lon="0.04785">
        <ele>1067</ele>
        <time>2020-12-05T15:52:50.068Z</time>
      </trkpt>
      <trkpt lat="42.89062" lon="0.04785">
        <ele>1067</ele>
        <time>2020-12-05T15:52:51.067Z</time>
      </trkpt>
      <trkpt lat="42.89062" lon="0.04785">
        <ele>1067</ele>
        <time>2020-12-05T15:52:52.069Z</time>
      </trkpt>
      <trkpt lat="42.89072" lon="0.04798">
        <ele>1067.8</ele>
        <time>2020-12-05T15:52:53.068Z</time>
      </trkpt>
      <trkpt lat="42.89072" lon="0.04798">
        <ele>1067.8</ele>
        <time>2020-12-05T15:52:54.069Z</time>
      </trkpt>
      <trkpt lat="42.89075" lon="0.04802">
        <ele>1068</ele>
        <time>2020-12-05T15:52:56.128Z</time>
      </trkpt>
      <trkpt lat="42.89075" lon="0.04802">
        <ele>1068</ele>
        <time>2020-12-05T15:52:56.148Z</time>
      </trkpt>
      <trkpt lat="42.89075" lon="0.04802">
        <ele>1068</ele>
        <time>2020-12-05T15:52:58.067Z</time>
      </trkpt>
      <trkpt lat="42.89075" lon="0.04802">
        <ele>1068</ele>
        <time>2020-12-05T15:52:59.068Z</time>
      </trkpt>
      <trkpt lat="42.89075" lon="0.04802">
        <ele>1068</ele>
        <time>2020-12-05T15:53:00.067Z</time>
      </trkpt>
      <trkpt lat="42.89081" lon="0.04812">
        <ele>1069</ele>
        <time>2020-12-05T15:53:01.067Z</time>
      </trkpt>
      <trkpt lat="42.89081" lon="0.04812">
        <ele>1069</ele>
        <time>2020-12-05T15:53:02.069Z</time>
      </trkpt>
      <trkpt lat="42.89081" lon="0.04812">
        <ele>1069</ele>
        <time>2020-12-05T15:53:03.07Z</time>
      </trkpt>
      <trkpt lat="42.89081" lon="0.04812">
        <ele>1069</ele>
        <time>2020-12-05T15:53:04.067Z</time>
      </trkpt>
      <trkpt lat="42.89086" lon="0.04818">
        <ele>1069.6</ele>
        <time>2020-12-05T15:53:05.069Z</time>
      </trkpt>
      <trkpt lat="42.89086" lon="0.04818">
        <ele>1069.6</ele>
        <time>2020-12-05T15:53:06.068Z</time>
      </trkpt>
      <trkpt lat="42.89086" lon="0.04818">
        <ele>1069.6</ele>
        <time>2020-12-05T15:53:07.068Z</time>
      </trkpt>
      <trkpt lat="42.89086" lon="0.04818">
        <ele>1069.6</ele>
        <time>2020-12-05T15:53:08.069Z</time>
      </trkpt>
      <trkpt lat="42.8909" lon="0.04825">
        <ele>1070</ele>
        <time>2020-12-05T15:53:09.068Z</time>
      </trkpt>
      <trkpt lat="42.8909" lon="0.04825">
        <ele>1070</ele>
        <time>2020-12-05T15:53:10.069Z</time>
      </trkpt>
      <trkpt lat="42.8909" lon="0.04825">
        <ele>1070</ele>
        <time>2020-12-05T15:53:11.067Z</time>
      </trkpt>
      <trkpt lat="42.8909" lon="0.04825">
        <ele>1070</ele>
        <time>2020-12-05T15:53:12.068Z</time>
      </trkpt>
      <trkpt lat="42.8909" lon="0.04825">
        <ele>1070</ele>
        <time>2020-12-05T15:53:13.07Z</time>
      </trkpt>
      <trkpt lat="42.8909" lon="0.04825">
        <ele>1070</ele>
        <time>2020-12-05T15:53:14.07Z</time>
      </trkpt>
      <trkpt lat="42.89096" lon="0.04836">
        <ele>1070.8</ele>
        <time>2020-12-05T15:53:15.067Z</time>
      </trkpt>
      <trkpt lat="42.89098" lon="0.04839">
        <ele>1071</ele>
        <time>2020-12-05T15:53:16.068Z</time>
      </trkpt>
      <trkpt lat="42.89098" lon="0.04839">
        <ele>1071</ele>
        <time>2020-12-05T15:53:17.069Z</time>
      </trkpt>
      <trkpt lat="42.89098" lon="0.04839">
        <ele>1071</ele>
        <time>2020-12-05T15:53:18.067Z</time>
      </trkpt>
      <trkpt lat="42.89098" lon="0.04839">
        <ele>1071</ele>
        <time>2020-12-05T15:53:19.07Z</time>
      </trkpt>
      <trkpt lat="42.89098" lon="0.04839">
        <ele>1071</ele>
        <time>2020-12-05T15:53:20.067Z</time>
      </trkpt>
      <trkpt lat="42.89098" lon="0.04839">
        <ele>1071</ele>
        <time>2020-12-05T15:53:21.067Z</time>
      </trkpt>
      <trkpt lat="42.89098" lon="0.04839">
        <ele>1071</ele>
        <time>2020-12-05T15:53:22.068Z</time>
      </trkpt>
      <trkpt lat="42.89098" lon="0.04839">
        <ele>1071</ele>
        <time>2020-12-05T15:53:23.067Z</time>
      </trkpt>
      <trkpt lat="42.89098" lon="0.04839">
        <ele>1071</ele>
        <time>2020-12-05T15:53:24.068Z</time>
      </trkpt>
      <trkpt lat="42.89098" lon="0.04839">
        <ele>1071</ele>
        <time>2020-12-05T15:53:25.068Z</time>
      </trkpt>
      <trkpt lat="42.89098" lon="0.04839">
        <ele>1071</ele>
        <time>2020-12-05T15:53:26.068Z</time>
      </trkpt>
      <trkpt lat="42.89105" lon="0.04854">
        <ele>1072.2</ele>
        <time>2020-12-05T15:53:27.067Z</time>
      </trkpt>
      <trkpt lat="42.89106" lon="0.04858">
        <ele>1072.6</ele>
        <time>2020-12-05T15:53:28.068Z</time>
      </trkpt>
      <trkpt lat="42.89106" lon="0.04858">
        <ele>1072.6</ele>
        <time>2020-12-05T15:53:29.068Z</time>
      </trkpt>
      <trkpt lat="42.89106" lon="0.04858">
        <ele>1072.6</ele>
        <time>2020-12-05T15:53:30.067Z</time>
      </trkpt>
      <trkpt lat="42.89106" lon="0.04858">
        <ele>1072.6</ele>
        <time>2020-12-05T15:53:31.067Z</time>
      </trkpt>
      <trkpt lat="42.89106" lon="0.04858">
        <ele>1072.6</ele>
        <time>2020-12-05T15:53:32.067Z</time>
      </trkpt>
      <trkpt lat="42.89106" lon="0.04858">
        <ele>1072.6</ele>
        <time>2020-12-05T15:53:33.067Z</time>
      </trkpt>
      <trkpt lat="42.89106" lon="0.04858">
        <ele>1072.6</ele>
        <time>2020-12-05T15:53:34.068Z</time>
      </trkpt>
      <trkpt lat="42.89104" lon="0.04871">
        <ele>1073.6</ele>
        <time>2020-12-05T15:53:35.067Z</time>
      </trkpt>
      <trkpt lat="42.89104" lon="0.04871">
        <ele>1073.6</ele>
        <time>2020-12-05T15:53:36.068Z</time>
      </trkpt>
      <trkpt lat="42.89104" lon="0.04871">
        <ele>1073.6</ele>
        <time>2020-12-05T15:53:37.068Z</time>
      </trkpt>
      <trkpt lat="42.891" lon="0.04874">
        <ele>1074</ele>
        <time>2020-12-05T15:53:38.068Z</time>
      </trkpt>
      <trkpt lat="42.891" lon="0.04874">
        <ele>1074</ele>
        <time>2020-12-05T15:53:39.067Z</time>
      </trkpt>
      <trkpt lat="42.891" lon="0.04874">
        <ele>1074</ele>
        <time>2020-12-05T15:53:40.068Z</time>
      </trkpt>
      <trkpt lat="42.891" lon="0.04874">
        <ele>1074</ele>
        <time>2020-12-05T15:53:41.068Z</time>
      </trkpt>
      <trkpt lat="42.891" lon="0.04874">
        <ele>1074</ele>
        <time>2020-12-05T15:53:42.068Z</time>
      </trkpt>
      <trkpt lat="42.89089" lon="0.04877">
        <ele>1074.8</ele>
        <time>2020-12-05T15:53:43.067Z</time>
      </trkpt>
      <trkpt lat="42.89089" lon="0.04877">
        <ele>1074.8</ele>
        <time>2020-12-05T15:53:44.067Z</time>
      </trkpt>
      <trkpt lat="42.89085" lon="0.04876">
        <ele>1075</ele>
        <time>2020-12-05T15:53:44.701Z</time>
      </trkpt>
      <trkpt lat="42.89085" lon="0.04876">
        <ele>1075</ele>
        <time>2020-12-05T15:53:46.701Z</time>
      </trkpt>
      <trkpt lat="42.89085" lon="0.04876">
        <ele>1075</ele>
        <time>2020-12-05T15:53:47.701Z</time>
      </trkpt>
      <trkpt lat="42.89085" lon="0.04876">
        <ele>1075</ele>
        <time>2020-12-05T15:53:48.701Z</time>
      </trkpt>
      <trkpt lat="42.89085" lon="0.04876">
        <ele>1075</ele>
        <time>2020-12-05T15:53:49.701Z</time>
      </trkpt>
      <trkpt lat="42.89075" lon="0.04866">
        <ele>1075.4</ele>
        <time>2020-12-05T15:53:50.7Z</time>
      </trkpt>
      <trkpt lat="42.89075" lon="0.04866">
        <ele>1075.4</ele>
        <time>2020-12-05T15:53:51.7Z</time>
      </trkpt>
      <trkpt lat="42.89075" lon="0.04866">
        <ele>1075.4</ele>
        <time>2020-12-05T15:53:52.7Z</time>
      </trkpt>
      <trkpt lat="42.89069" lon="0.04859">
        <ele>1075.8</ele>
        <time>2020-12-05T15:53:53.7Z</time>
      </trkpt>
      <trkpt lat="42.89067" lon="0.04855">
        <ele>1075.8</ele>
        <time>2020-12-05T15:53:54.701Z</time>
      </trkpt>
      <trkpt lat="42.89067" lon="0.04855">
        <ele>1075.8</ele>
        <time>2020-12-05T15:53:55.701Z</time>
      </trkpt>
      <trkpt lat="42.89067" lon="0.04855">
        <ele>1075.8</ele>
        <time>2020-12-05T15:53:56.7Z</time>
      </trkpt>
      <trkpt lat="42.89067" lon="0.04855">
        <ele>1075.8</ele>
        <time>2020-12-05T15:53:57.702Z</time>
      </trkpt>
      <trkpt lat="42.89067" lon="0.04855">
        <ele>1075.8</ele>
        <time>2020-12-05T15:53:58.701Z</time>
      </trkpt>
      <trkpt lat="42.8906" lon="0.04843">
        <ele>1076.8</ele>
        <time>2020-12-05T15:53:59.7Z</time>
      </trkpt>
      <trkpt lat="42.8906" lon="0.04843">
        <ele>1076.8</ele>
        <time>2020-12-05T15:54:00.7Z</time>
      </trkpt>
      <trkpt lat="42.8906" lon="0.04843">
        <ele>1076.8</ele>
        <time>2020-12-05T15:54:01.701Z</time>
      </trkpt>
      <trkpt lat="42.8906" lon="0.04843">
        <ele>1076.8</ele>
        <time>2020-12-05T15:54:02.7Z</time>
      </trkpt>
      <trkpt lat="42.89054" lon="0.04829">
        <ele>1077.6</ele>
        <time>2020-12-05T15:54:03.7Z</time>
      </trkpt>
      <trkpt lat="42.89052" lon="0.04825">
        <ele>1077.8</ele>
        <time>2020-12-05T15:54:04.703Z</time>
      </trkpt>
      <trkpt lat="42.89052" lon="0.04825">
        <ele>1077.8</ele>
        <time>2020-12-05T15:54:05.701Z</time>
      </trkpt>
      <trkpt lat="42.89052" lon="0.04825">
        <ele>1077.8</ele>
        <time>2020-12-05T15:54:05.966Z</time>
      </trkpt>
      <trkpt lat="42.89052" lon="0.04825">
        <ele>1077.8</ele>
        <time>2020-12-05T15:54:07.965Z</time>
      </trkpt>
      <trkpt lat="42.89052" lon="0.04825">
        <ele>1077.8</ele>
        <time>2020-12-05T15:54:08.965Z</time>
      </trkpt>
      <trkpt lat="42.89052" lon="0.04825">
        <ele>1077.8</ele>
        <time>2020-12-05T15:54:09.968Z</time>
      </trkpt>
      <trkpt lat="42.89052" lon="0.04825">
        <ele>1077.8</ele>
        <time>2020-12-05T15:54:10.965Z</time>
      </trkpt>
      <trkpt lat="42.89052" lon="0.04825">
        <ele>1077.8</ele>
        <time>2020-12-05T15:54:11.968Z</time>
      </trkpt>
      <trkpt lat="42.89052" lon="0.04825">
        <ele>1077.8</ele>
        <time>2020-12-05T15:54:12.966Z</time>
      </trkpt>
      <trkpt lat="42.89052" lon="0.04825">
        <ele>1077.8</ele>
        <time>2020-12-05T15:54:13.967Z</time>
      </trkpt>
      <trkpt lat="42.89052" lon="0.04825">
        <ele>1077.8</ele>
        <time>2020-12-05T15:54:14.966Z</time>
      </trkpt>
      <trkpt lat="42.89052" lon="0.04825">
        <ele>1077.8</ele>
        <time>2020-12-05T15:54:15.965Z</time>
      </trkpt>
      <trkpt lat="42.89052" lon="0.04825">
        <ele>1077.8</ele>
        <time>2020-12-05T15:54:16.965Z</time>
      </trkpt>
      <trkpt lat="42.89052" lon="0.04825">
        <ele>1077.8</ele>
        <time>2020-12-05T15:54:17.966Z</time>
      </trkpt>
      <trkpt lat="42.89052" lon="0.04825">
        <ele>1077.8</ele>
        <time>2020-12-05T15:54:18.967Z</time>
      </trkpt>
      <trkpt lat="42.89052" lon="0.04825">
        <ele>1077.8</ele>
        <time>2020-12-05T15:54:19.967Z</time>
      </trkpt>
      <trkpt lat="42.89052" lon="0.04825">
        <ele>1077.8</ele>
        <time>2020-12-05T15:54:20.966Z</time>
      </trkpt>
      <trkpt lat="42.89052" lon="0.04825">
        <ele>1077.8</ele>
        <time>2020-12-05T15:54:21.966Z</time>
      </trkpt>
      <trkpt lat="42.89038" lon="0.04801">
        <ele>1079</ele>
        <time>2020-12-05T15:54:22.967Z</time>
      </trkpt>
      <trkpt lat="42.89038" lon="0.04801">
        <ele>1079</ele>
        <time>2020-12-05T15:54:23.966Z</time>
      </trkpt>
      <trkpt lat="42.89038" lon="0.04801">
        <ele>1079</ele>
        <time>2020-12-05T15:54:24.967Z</time>
      </trkpt>
      <trkpt lat="42.89038" lon="0.04801">
        <ele>1079</ele>
        <time>2020-12-05T15:54:25.967Z</time>
      </trkpt>
      <trkpt lat="42.89038" lon="0.04801">
        <ele>1079</ele>
        <time>2020-12-05T15:54:26.966Z</time>
      </trkpt>
      <trkpt lat="42.89038" lon="0.04801">
        <ele>1079</ele>
        <time>2020-12-05T15:54:27.968Z</time>
      </trkpt>
      <trkpt lat="42.89023" lon="0.04793">
        <ele>1079.8</ele>
        <time>2020-12-05T15:54:28.966Z</time>
      </trkpt>
      <trkpt lat="42.89019" lon="0.04795">
        <ele>1080</ele>
        <time>2020-12-05T15:54:29.967Z</time>
      </trkpt>
      <trkpt lat="42.89019" lon="0.04795">
        <ele>1080</ele>
        <time>2020-12-05T15:54:30.967Z</time>
      </trkpt>
      <trkpt lat="42.89019" lon="0.04795">
        <ele>1080</ele>
        <time>2020-12-05T15:54:31.967Z</time>
      </trkpt>
      <trkpt lat="42.89019" lon="0.04795">
        <ele>1080</ele>
        <time>2020-12-05T15:54:32.967Z</time>
      </trkpt>
      <trkpt lat="42.89014" lon="0.04804">
        <ele>1080.6</ele>
        <time>2020-12-05T15:54:33.965Z</time>
      </trkpt>
      <trkpt lat="42.89014" lon="0.04804">
        <ele>1080.6</ele>
        <time>2020-12-05T15:54:34.965Z</time>
      </trkpt>
      <trkpt lat="42.89014" lon="0.04804">
        <ele>1080.6</ele>
        <time>2020-12-05T15:54:35.966Z</time>
      </trkpt>
      <trkpt lat="42.89014" lon="0.04804">
        <ele>1080.6</ele>
        <time>2020-12-05T15:54:36.966Z</time>
      </trkpt>
      <trkpt lat="42.89012" lon="0.04818">
        <ele>1081</ele>
        <time>2020-12-05T15:54:37.965Z</time>
      </trkpt>
      <trkpt lat="42.89012" lon="0.04818">
        <ele>1081</ele>
        <time>2020-12-05T15:54:38.966Z</time>
      </trkpt>
      <trkpt lat="42.89012" lon="0.04825">
        <ele>1081.2</ele>
        <time>2020-12-05T15:54:39.966Z</time>
      </trkpt>
      <trkpt lat="42.89012" lon="0.04825">
        <ele>1081.2</ele>
        <time>2020-12-05T15:54:40.966Z</time>
      </trkpt>
      <trkpt lat="42.89012" lon="0.04825">
        <ele>1081.2</ele>
        <time>2020-12-05T15:54:41.967Z</time>
      </trkpt>
      <trkpt lat="42.89012" lon="0.04825">
        <ele>1081.2</ele>
        <time>2020-12-05T15:54:42.965Z</time>
      </trkpt>
      <trkpt lat="42.89012" lon="0.04825">
        <ele>1081.2</ele>
        <time>2020-12-05T15:54:43.965Z</time>
      </trkpt>
      <trkpt lat="42.89012" lon="0.04825">
        <ele>1081.2</ele>
        <time>2020-12-05T15:54:44.968Z</time>
      </trkpt>
      <trkpt lat="42.89012" lon="0.04825">
        <ele>1081.2</ele>
        <time>2020-12-05T15:54:45.967Z</time>
      </trkpt>
      <trkpt lat="42.89022" lon="0.04849">
        <ele>1081.6</ele>
        <time>2020-12-05T15:54:46.966Z</time>
      </trkpt>
      <trkpt lat="42.89022" lon="0.04849">
        <ele>1081.6</ele>
        <time>2020-12-05T15:54:47.966Z</time>
      </trkpt>
      <trkpt lat="42.89022" lon="0.04849">
        <ele>1081.6</ele>
        <time>2020-12-05T15:54:48.965Z</time>
      </trkpt>
      <trkpt lat="42.89026" lon="0.04854">
        <ele>1082</ele>
        <time>2020-12-05T15:54:49.966Z</time>
      </trkpt>
      <trkpt lat="42.8903" lon="0.04858">
        <ele>1082.2</ele>
        <time>2020-12-05T15:54:50.966Z</time>
      </trkpt>
      <trkpt lat="42.8903" lon="0.04858">
        <ele>1082.2</ele>
        <time>2020-12-05T15:54:51.965Z</time>
      </trkpt>
      <trkpt lat="42.8903" lon="0.04858">
        <ele>1082.2</ele>
        <time>2020-12-05T15:54:52.966Z</time>
      </trkpt>
      <trkpt lat="42.8903" lon="0.04858">
        <ele>1082.2</ele>
        <time>2020-12-05T15:54:53.966Z</time>
      </trkpt>
      <trkpt lat="42.8903" lon="0.04858">
        <ele>1082.2</ele>
        <time>2020-12-05T15:54:54.966Z</time>
      </trkpt>
      <trkpt lat="42.8903" lon="0.04858">
        <ele>1082.2</ele>
        <time>2020-12-05T15:54:55.967Z</time>
      </trkpt>
      <trkpt lat="42.8904" lon="0.04872">
        <ele>1083</ele>
        <time>2020-12-05T15:54:56.967Z</time>
      </trkpt>
      <trkpt lat="42.89043" lon="0.04876">
        <ele>1083.4</ele>
        <time>2020-12-05T15:54:57.966Z</time>
      </trkpt>
      <trkpt lat="42.89043" lon="0.04876">
        <ele>1083.4</ele>
        <time>2020-12-05T15:54:58.967Z</time>
      </trkpt>
      <trkpt lat="42.89043" lon="0.04876">
        <ele>1083.4</ele>
        <time>2020-12-05T15:54:59.965Z</time>
      </trkpt>
      <trkpt lat="42.89043" lon="0.04876">
        <ele>1083.4</ele>
        <time>2020-12-05T15:55:00.967Z</time>
      </trkpt>
      <trkpt lat="42.89048" lon="0.04886">
        <ele>1083.8</ele>
        <time>2020-12-05T15:55:01.967Z</time>
      </trkpt>
      <trkpt lat="42.89048" lon="0.04886">
        <ele>1083.8</ele>
        <time>2020-12-05T15:55:02.967Z</time>
      </trkpt>
      <trkpt lat="42.89048" lon="0.04886">
        <ele>1083.8</ele>
        <time>2020-12-05T15:55:03.967Z</time>
      </trkpt>
      <trkpt lat="42.89052" lon="0.04897">
        <ele>1084.2</ele>
        <time>2020-12-05T15:55:04.967Z</time>
      </trkpt>
      <trkpt lat="42.89052" lon="0.04897">
        <ele>1084.2</ele>
        <time>2020-12-05T15:55:05.966Z</time>
      </trkpt>
      <trkpt lat="42.89054" lon="0.04903">
        <ele>1084.4</ele>
        <time>2020-12-05T15:55:06.966Z</time>
      </trkpt>
      <trkpt lat="42.89055" lon="0.04908">
        <ele>1084.6</ele>
        <time>2020-12-05T15:55:07.966Z</time>
      </trkpt>
      <trkpt lat="42.89055" lon="0.04908">
        <ele>1084.6</ele>
        <time>2020-12-05T15:55:08.965Z</time>
      </trkpt>
      <trkpt lat="42.89055" lon="0.04908">
        <ele>1084.6</ele>
        <time>2020-12-05T15:55:09.966Z</time>
      </trkpt>
      <trkpt lat="42.89055" lon="0.04908">
        <ele>1084.6</ele>
        <time>2020-12-05T15:55:10.965Z</time>
      </trkpt>
      <trkpt lat="42.89055" lon="0.04908">
        <ele>1084.6</ele>
        <time>2020-12-05T15:55:11.965Z</time>
      </trkpt>
      <trkpt lat="42.89057" lon="0.04925">
        <ele>1085.2</ele>
        <time>2020-12-05T15:55:12.965Z</time>
      </trkpt>
      <trkpt lat="42.89057" lon="0.04931">
        <ele>1085.4</ele>
        <time>2020-12-05T15:55:13.967Z</time>
      </trkpt>
      <trkpt lat="42.89057" lon="0.04931">
        <ele>1085.4</ele>
        <time>2020-12-05T15:55:14.966Z</time>
      </trkpt>
      <trkpt lat="42.89057" lon="0.04931">
        <ele>1085.4</ele>
        <time>2020-12-05T15:55:15.967Z</time>
      </trkpt>
      <trkpt lat="42.89057" lon="0.04931">
        <ele>1085.4</ele>
        <time>2020-12-05T15:55:16.966Z</time>
      </trkpt>
      <trkpt lat="42.89057" lon="0.04931">
        <ele>1085.4</ele>
        <time>2020-12-05T15:55:17.967Z</time>
      </trkpt>
      <trkpt lat="42.89057" lon="0.04931">
        <ele>1085.4</ele>
        <time>2020-12-05T15:55:18.968Z</time>
      </trkpt>
      <trkpt lat="42.89057" lon="0.04931">
        <ele>1085.4</ele>
        <time>2020-12-05T15:55:19.966Z</time>
      </trkpt>
      <trkpt lat="42.89058" lon="0.04955">
        <ele>1086.8</ele>
        <time>2020-12-05T15:55:20.965Z</time>
      </trkpt>
      <trkpt lat="42.89058" lon="0.04955">
        <ele>1086.8</ele>
        <time>2020-12-05T15:55:21.965Z</time>
      </trkpt>
      <trkpt lat="42.89058" lon="0.0496">
        <ele>1087.2</ele>
        <time>2020-12-05T15:55:22.965Z</time>
      </trkpt>
      <trkpt lat="42.89058" lon="0.0496">
        <ele>1087.2</ele>
        <time>2020-12-05T15:55:23.968Z</time>
      </trkpt>
      <trkpt lat="42.89058" lon="0.0496">
        <ele>1087.2</ele>
        <time>2020-12-05T15:55:24.965Z</time>
      </trkpt>
      <trkpt lat="42.89058" lon="0.0496">
        <ele>1087.2</ele>
        <time>2020-12-05T15:55:25.967Z</time>
      </trkpt>
      <trkpt lat="42.8906" lon="0.04972">
        <ele>1088</ele>
        <time>2020-12-05T15:55:26.965Z</time>
      </trkpt>
      <trkpt lat="42.8906" lon="0.04972">
        <ele>1088</ele>
        <time>2020-12-05T15:55:27.966Z</time>
      </trkpt>
      <trkpt lat="42.8906" lon="0.04972">
        <ele>1088</ele>
        <time>2020-12-05T15:55:28.965Z</time>
      </trkpt>
      <trkpt lat="42.8906" lon="0.04972">
        <ele>1088</ele>
        <time>2020-12-05T15:55:29.966Z</time>
      </trkpt>
      <trkpt lat="42.89064" lon="0.04986">
        <ele>1089.2</ele>
        <time>2020-12-05T15:55:30.967Z</time>
      </trkpt>
      <trkpt lat="42.89064" lon="0.04986">
        <ele>1089.2</ele>
        <time>2020-12-05T15:55:31.968Z</time>
      </trkpt>
      <trkpt lat="42.89064" lon="0.04986">
        <ele>1089.2</ele>
        <time>2020-12-05T15:55:32.967Z</time>
      </trkpt>
      <trkpt lat="42.89064" lon="0.04986">
        <ele>1089.2</ele>
        <time>2020-12-05T15:55:33.967Z</time>
      </trkpt>
      <trkpt lat="42.89064" lon="0.04986">
        <ele>1089.2</ele>
        <time>2020-12-05T15:55:34.967Z</time>
      </trkpt>
      <trkpt lat="42.89064" lon="0.04986">
        <ele>1089.2</ele>
        <time>2020-12-05T15:55:35.966Z</time>
      </trkpt>
      <trkpt lat="42.89064" lon="0.04986">
        <ele>1089.2</ele>
        <time>2020-12-05T15:55:36.972Z</time>
      </trkpt>
      <trkpt lat="42.89072" lon="0.05002">
        <ele>1090.4</ele>
        <time>2020-12-05T15:55:37.966Z</time>
      </trkpt>
      <trkpt lat="42.89072" lon="0.05002">
        <ele>1090.4</ele>
        <time>2020-12-05T15:55:38.966Z</time>
      </trkpt>
      <trkpt lat="42.89074" lon="0.05006">
        <ele>1090.6</ele>
        <time>2020-12-05T15:55:39.966Z</time>
      </trkpt>
      <trkpt lat="42.89074" lon="0.05006">
        <ele>1090.6</ele>
        <time>2020-12-05T15:55:40.968Z</time>
      </trkpt>
      <trkpt lat="42.89074" lon="0.05006">
        <ele>1090.6</ele>
        <time>2020-12-05T15:55:41.966Z</time>
      </trkpt>
      <trkpt lat="42.89078" lon="0.05013">
        <ele>1091.4</ele>
        <time>2020-12-05T15:55:42.965Z</time>
      </trkpt>
      <trkpt lat="42.89078" lon="0.05013">
        <ele>1091.4</ele>
        <time>2020-12-05T15:55:43.965Z</time>
      </trkpt>
      <trkpt lat="42.89078" lon="0.05013">
        <ele>1091.4</ele>
        <time>2020-12-05T15:55:44.965Z</time>
      </trkpt>
      <trkpt lat="42.89078" lon="0.05013">
        <ele>1091.4</ele>
        <time>2020-12-05T15:55:45.966Z</time>
      </trkpt>
      <trkpt lat="42.89078" lon="0.05013">
        <ele>1091.4</ele>
        <time>2020-12-05T15:55:46.968Z</time>
      </trkpt>
      <trkpt lat="42.89084" lon="0.05023">
        <ele>1092.8</ele>
        <time>2020-12-05T15:55:47.967Z</time>
      </trkpt>
      <trkpt lat="42.89084" lon="0.05023">
        <ele>1092.8</ele>
        <time>2020-12-05T15:55:48.966Z</time>
      </trkpt>
      <trkpt lat="42.89084" lon="0.05023">
        <ele>1092.8</ele>
        <time>2020-12-05T15:55:49.967Z</time>
      </trkpt>
      <trkpt lat="42.89084" lon="0.05023">
        <ele>1092.8</ele>
        <time>2020-12-05T15:55:50.966Z</time>
      </trkpt>
      <trkpt lat="42.89089" lon="0.05029">
        <ele>1093.4</ele>
        <time>2020-12-05T15:55:51.967Z</time>
      </trkpt>
      <trkpt lat="42.89089" lon="0.05029">
        <ele>1093.4</ele>
        <time>2020-12-05T15:55:52.965Z</time>
      </trkpt>
      <trkpt lat="42.89089" lon="0.05029">
        <ele>1093.4</ele>
        <time>2020-12-05T15:55:53.965Z</time>
      </trkpt>
      <trkpt lat="42.89095" lon="0.05035">
        <ele>1093.6</ele>
        <time>2020-12-05T15:55:54.966Z</time>
      </trkpt>
      <trkpt lat="42.89095" lon="0.05035">
        <ele>1093.6</ele>
        <time>2020-12-05T15:55:55.967Z</time>
      </trkpt>
      <trkpt lat="42.89095" lon="0.05035">
        <ele>1093.6</ele>
        <time>2020-12-05T15:55:56.968Z</time>
      </trkpt>
      <trkpt lat="42.89095" lon="0.05035">
        <ele>1093.6</ele>
        <time>2020-12-05T15:55:57.968Z</time>
      </trkpt>
      <trkpt lat="42.89095" lon="0.05035">
        <ele>1093.6</ele>
        <time>2020-12-05T15:55:58.965Z</time>
      </trkpt>
      <trkpt lat="42.89102" lon="0.05045">
        <ele>1094.6</ele>
        <time>2020-12-05T15:55:59.966Z</time>
      </trkpt>
      <trkpt lat="42.89102" lon="0.05045">
        <ele>1094.6</ele>
        <time>2020-12-05T15:56:00.967Z</time>
      </trkpt>
      <trkpt lat="42.89105" lon="0.05048">
        <ele>1095</ele>
        <time>2020-12-05T15:56:01.968Z</time>
      </trkpt>
      <trkpt lat="42.89105" lon="0.05048">
        <ele>1095</ele>
        <time>2020-12-05T15:56:02.965Z</time>
      </trkpt>
      <trkpt lat="42.89105" lon="0.05048">
        <ele>1095</ele>
        <time>2020-12-05T15:56:03.965Z</time>
      </trkpt>
      <trkpt lat="42.89105" lon="0.05048">
        <ele>1095</ele>
        <time>2020-12-05T15:56:04.965Z</time>
      </trkpt>
      <trkpt lat="42.89105" lon="0.05048">
        <ele>1095</ele>
        <time>2020-12-05T15:56:05.966Z</time>
      </trkpt>
      <trkpt lat="42.89112" lon="0.05058">
        <ele>1096</ele>
        <time>2020-12-05T15:56:06.967Z</time>
      </trkpt>
      <trkpt lat="42.89112" lon="0.05058">
        <ele>1096</ele>
        <time>2020-12-05T15:56:07.967Z</time>
      </trkpt>
      <trkpt lat="42.89112" lon="0.05058">
        <ele>1096</ele>
        <time>2020-12-05T15:56:08.965Z</time>
      </trkpt>
      <trkpt lat="42.89112" lon="0.05058">
        <ele>1096</ele>
        <time>2020-12-05T15:56:09.965Z</time>
      </trkpt>
      <trkpt lat="42.89118" lon="0.05064">
        <ele>1096.6</ele>
        <time>2020-12-05T15:56:10.966Z</time>
      </trkpt>
      <trkpt lat="42.89118" lon="0.05064">
        <ele>1096.6</ele>
        <time>2020-12-05T15:56:11.966Z</time>
      </trkpt>
      <trkpt lat="42.89118" lon="0.05064">
        <ele>1096.6</ele>
        <time>2020-12-05T15:56:12.966Z</time>
      </trkpt>
      <trkpt lat="42.89123" lon="0.05069">
        <ele>1097</ele>
        <time>2020-12-05T15:56:13.966Z</time>
      </trkpt>
      <trkpt lat="42.89123" lon="0.05069">
        <ele>1097</ele>
        <time>2020-12-05T15:56:14.97Z</time>
      </trkpt>
      <trkpt lat="42.89123" lon="0.05069">
        <ele>1097</ele>
        <time>2020-12-05T15:56:15.966Z</time>
      </trkpt>
      <trkpt lat="42.89129" lon="0.05073">
        <ele>1098</ele>
        <time>2020-12-05T15:56:16.965Z</time>
      </trkpt>
      <trkpt lat="42.89129" lon="0.05073">
        <ele>1098</ele>
        <time>2020-12-05T15:56:17.965Z</time>
      </trkpt>
      <trkpt lat="42.89129" lon="0.05073">
        <ele>1098</ele>
        <time>2020-12-05T15:56:18.966Z</time>
      </trkpt>
      <trkpt lat="42.89135" lon="0.05076">
        <ele>1098.4</ele>
        <time>2020-12-05T15:56:19.967Z</time>
      </trkpt>
      <trkpt lat="42.89135" lon="0.05076">
        <ele>1098.4</ele>
        <time>2020-12-05T15:56:20.967Z</time>
      </trkpt>
      <trkpt lat="42.89135" lon="0.05076">
        <ele>1098.4</ele>
        <time>2020-12-05T15:56:21.965Z</time>
      </trkpt>
      <trkpt lat="42.89135" lon="0.05076">
        <ele>1098.4</ele>
        <time>2020-12-05T15:56:22.968Z</time>
      </trkpt>
      <trkpt lat="42.89141" lon="0.05079">
        <ele>1099</ele>
        <time>2020-12-05T15:56:23.966Z</time>
      </trkpt>
      <trkpt lat="42.89141" lon="0.05079">
        <ele>1099</ele>
        <time>2020-12-05T15:56:24.965Z</time>
      </trkpt>
      <trkpt lat="42.89141" lon="0.05079">
        <ele>1099</ele>
        <time>2020-12-05T15:56:25.965Z</time>
      </trkpt>
      <trkpt lat="42.89141" lon="0.05079">
        <ele>1099</ele>
        <time>2020-12-05T15:56:26.967Z</time>
      </trkpt>
      <trkpt lat="42.89141" lon="0.05079">
        <ele>1099</ele>
        <time>2020-12-05T15:56:27.966Z</time>
      </trkpt>
      <trkpt lat="42.89141" lon="0.05079">
        <ele>1099</ele>
        <time>2020-12-05T15:56:28.966Z</time>
      </trkpt>
      <trkpt lat="42.89141" lon="0.05079">
        <ele>1099</ele>
        <time>2020-12-05T15:56:29.965Z</time>
      </trkpt>
      <trkpt lat="42.89141" lon="0.05079">
        <ele>1099</ele>
        <time>2020-12-05T15:56:30.968Z</time>
      </trkpt>
      <trkpt lat="42.89141" lon="0.05079">
        <ele>1099</ele>
        <time>2020-12-05T15:56:31.968Z</time>
      </trkpt>
      <trkpt lat="42.89158" lon="0.05088">
        <ele>1100.2</ele>
        <time>2020-12-05T15:56:32.966Z</time>
      </trkpt>
      <trkpt lat="42.89158" lon="0.05088">
        <ele>1100.2</ele>
        <time>2020-12-05T15:56:33.966Z</time>
      </trkpt>
      <trkpt lat="42.89158" lon="0.05088">
        <ele>1100.2</ele>
        <time>2020-12-05T15:56:34.967Z</time>
      </trkpt>
      <trkpt lat="42.89161" lon="0.05089">
        <ele>1100.4</ele>
        <time>2020-12-05T15:56:35.967Z</time>
      </trkpt>
      <trkpt lat="42.89161" lon="0.05089">
        <ele>1100.4</ele>
        <time>2020-12-05T15:56:36.967Z</time>
      </trkpt>
      <trkpt lat="42.89161" lon="0.05089">
        <ele>1100.4</ele>
        <time>2020-12-05T15:56:37.967Z</time>
      </trkpt>
      <trkpt lat="42.89161" lon="0.05089">
        <ele>1100.4</ele>
        <time>2020-12-05T15:56:38.966Z</time>
      </trkpt>
      <trkpt lat="42.89168" lon="0.05092">
        <ele>1101.2</ele>
        <time>2020-12-05T15:56:39.968Z</time>
      </trkpt>
      <trkpt lat="42.89168" lon="0.05092">
        <ele>1101.2</ele>
        <time>2020-12-05T15:56:40.966Z</time>
      </trkpt>
      <trkpt lat="42.89168" lon="0.05092">
        <ele>1101.2</ele>
        <time>2020-12-05T15:56:41.966Z</time>
      </trkpt>
      <trkpt lat="42.89168" lon="0.05092">
        <ele>1101.2</ele>
        <time>2020-12-05T15:56:42.965Z</time>
      </trkpt>
      <trkpt lat="42.89168" lon="0.05092">
        <ele>1101.2</ele>
        <time>2020-12-05T15:56:43.966Z</time>
      </trkpt>
      <trkpt lat="42.89168" lon="0.05092">
        <ele>1101.2</ele>
        <time>2020-12-05T15:56:44.968Z</time>
      </trkpt>
      <trkpt lat="42.89178" lon="0.05097">
        <ele>1102.2</ele>
        <time>2020-12-05T15:56:45.966Z</time>
      </trkpt>
      <trkpt lat="42.89178" lon="0.05097">
        <ele>1102.2</ele>
        <time>2020-12-05T15:56:46.966Z</time>
      </trkpt>
      <trkpt lat="42.89181" lon="0.05098">
        <ele>1102.6</ele>
        <time>2020-12-05T15:56:47.967Z</time>
      </trkpt>
      <trkpt lat="42.89181" lon="0.05098">
        <ele>1102.6</ele>
        <time>2020-12-05T15:56:48.967Z</time>
      </trkpt>
      <trkpt lat="42.89181" lon="0.05098">
        <ele>1102.6</ele>
        <time>2020-12-05T15:56:49.967Z</time>
      </trkpt>
      <trkpt lat="42.89181" lon="0.05098">
        <ele>1102.6</ele>
        <time>2020-12-05T15:56:50.965Z</time>
      </trkpt>
      <trkpt lat="42.89181" lon="0.05098">
        <ele>1102.6</ele>
        <time>2020-12-05T15:56:51.966Z</time>
      </trkpt>
      <trkpt lat="42.89181" lon="0.05098">
        <ele>1102.6</ele>
        <time>2020-12-05T15:56:52.968Z</time>
      </trkpt>
      <trkpt lat="42.89191" lon="0.05104">
        <ele>1103.6</ele>
        <time>2020-12-05T15:56:53.967Z</time>
      </trkpt>
      <trkpt lat="42.89191" lon="0.05104">
        <ele>1103.6</ele>
        <time>2020-12-05T15:56:54.965Z</time>
      </trkpt>
      <trkpt lat="42.89191" lon="0.05104">
        <ele>1103.6</ele>
        <time>2020-12-05T15:56:55.965Z</time>
      </trkpt>
      <trkpt lat="42.89191" lon="0.05104">
        <ele>1103.6</ele>
        <time>2020-12-05T15:56:56.965Z</time>
      </trkpt>
      <trkpt lat="42.89198" lon="0.05109">
        <ele>1104.2</ele>
        <time>2020-12-05T15:56:57.966Z</time>
      </trkpt>
      <trkpt lat="42.89198" lon="0.05109">
        <ele>1104.2</ele>
        <time>2020-12-05T15:56:58.966Z</time>
      </trkpt>
      <trkpt lat="42.89198" lon="0.05109">
        <ele>1104.2</ele>
        <time>2020-12-05T15:56:59.966Z</time>
      </trkpt>
      <trkpt lat="42.89198" lon="0.05109">
        <ele>1104.2</ele>
        <time>2020-12-05T15:57:00.965Z</time>
      </trkpt>
      <trkpt lat="42.89204" lon="0.05114">
        <ele>1104.8</ele>
        <time>2020-12-05T15:57:01.967Z</time>
      </trkpt>
      <trkpt lat="42.89204" lon="0.05114">
        <ele>1104.8</ele>
        <time>2020-12-05T15:57:02.966Z</time>
      </trkpt>
      <trkpt lat="42.89204" lon="0.05114">
        <ele>1104.8</ele>
        <time>2020-12-05T15:57:03.966Z</time>
      </trkpt>
      <trkpt lat="42.89204" lon="0.05114">
        <ele>1104.8</ele>
        <time>2020-12-05T15:57:04.967Z</time>
      </trkpt>
      <trkpt lat="42.89204" lon="0.05114">
        <ele>1104.8</ele>
        <time>2020-12-05T15:57:05.966Z</time>
      </trkpt>
      <trkpt lat="42.89211" lon="0.05126">
        <ele>1105.8</ele>
        <time>2020-12-05T15:57:06.967Z</time>
      </trkpt>
      <trkpt lat="42.89211" lon="0.05126">
        <ele>1105.8</ele>
        <time>2020-12-05T15:57:07.966Z</time>
      </trkpt>
      <trkpt lat="42.89213" lon="0.0513">
        <ele>1106</ele>
        <time>2020-12-05T15:57:08.966Z</time>
      </trkpt>
      <trkpt lat="42.89213" lon="0.0513">
        <ele>1106</ele>
        <time>2020-12-05T15:57:09.966Z</time>
      </trkpt>
      <trkpt lat="42.89213" lon="0.0513">
        <ele>1106</ele>
        <time>2020-12-05T15:57:10.966Z</time>
      </trkpt>
      <trkpt lat="42.89213" lon="0.0513">
        <ele>1106</ele>
        <time>2020-12-05T15:57:11.967Z</time>
      </trkpt>
      <trkpt lat="42.89213" lon="0.0513">
        <ele>1106</ele>
        <time>2020-12-05T15:57:12.967Z</time>
      </trkpt>
      <trkpt lat="42.89213" lon="0.0513">
        <ele>1106</ele>
        <time>2020-12-05T15:57:13.967Z</time>
      </trkpt>
      <trkpt lat="42.89213" lon="0.0513">
        <ele>1106</ele>
        <time>2020-12-05T15:57:14.966Z</time>
      </trkpt>
      <trkpt lat="42.89219" lon="0.05143">
        <ele>1107</ele>
        <time>2020-12-05T15:57:15.965Z</time>
      </trkpt>
      <trkpt lat="42.89219" lon="0.05143">
        <ele>1107</ele>
        <time>2020-12-05T15:57:16.965Z</time>
      </trkpt>
      <trkpt lat="42.89221" lon="0.05147">
        <ele>1107.2</ele>
        <time>2020-12-05T15:57:17.965Z</time>
      </trkpt>
      <trkpt lat="42.89221" lon="0.05147">
        <ele>1107.2</ele>
        <time>2020-12-05T15:57:18.966Z</time>
      </trkpt>
      <trkpt lat="42.89221" lon="0.05147">
        <ele>1107.2</ele>
        <time>2020-12-05T15:57:19.966Z</time>
      </trkpt>
      <trkpt lat="42.89221" lon="0.05147">
        <ele>1107.2</ele>
        <time>2020-12-05T15:57:20.967Z</time>
      </trkpt>
      <trkpt lat="42.89221" lon="0.05147">
        <ele>1107.2</ele>
        <time>2020-12-05T15:57:21.967Z</time>
      </trkpt>
      <trkpt lat="42.89221" lon="0.05147">
        <ele>1107.2</ele>
        <time>2020-12-05T15:57:22.966Z</time>
      </trkpt>
      <trkpt lat="42.89221" lon="0.05147">
        <ele>1107.2</ele>
        <time>2020-12-05T15:57:23.966Z</time>
      </trkpt>
      <trkpt lat="42.89229" lon="0.05163">
        <ele>1108.2</ele>
        <time>2020-12-05T15:57:24.967Z</time>
      </trkpt>
      <trkpt lat="42.89229" lon="0.05163">
        <ele>1108.2</ele>
        <time>2020-12-05T15:57:25.966Z</time>
      </trkpt>
      <trkpt lat="42.89229" lon="0.05163">
        <ele>1108.2</ele>
        <time>2020-12-05T15:57:26.968Z</time>
      </trkpt>
      <trkpt lat="42.89229" lon="0.05163">
        <ele>1108.2</ele>
        <time>2020-12-05T15:57:27.965Z</time>
      </trkpt>
      <trkpt lat="42.89229" lon="0.05163">
        <ele>1108.2</ele>
        <time>2020-12-05T15:57:28.966Z</time>
      </trkpt>
      <trkpt lat="42.89233" lon="0.05172">
        <ele>1108.8</ele>
        <time>2020-12-05T15:57:29.967Z</time>
      </trkpt>
      <trkpt lat="42.89233" lon="0.05172">
        <ele>1108.8</ele>
        <time>2020-12-05T15:57:30.967Z</time>
      </trkpt>
      <trkpt lat="42.89233" lon="0.05172">
        <ele>1108.8</ele>
        <time>2020-12-05T15:57:31.968Z</time>
      </trkpt>
      <trkpt lat="42.89233" lon="0.05172">
        <ele>1108.8</ele>
        <time>2020-12-05T15:57:32.966Z</time>
      </trkpt>
      <trkpt lat="42.89233" lon="0.05172">
        <ele>1108.8</ele>
        <time>2020-12-05T15:57:33.966Z</time>
      </trkpt>
      <trkpt lat="42.89233" lon="0.05172">
        <ele>1108.8</ele>
        <time>2020-12-05T15:57:34.967Z</time>
      </trkpt>
      <trkpt lat="42.89238" lon="0.05185">
        <ele>1109.4</ele>
        <time>2020-12-05T15:57:35.968Z</time>
      </trkpt>
      <trkpt lat="42.89238" lon="0.05185">
        <ele>1109.4</ele>
        <time>2020-12-05T15:57:36.966Z</time>
      </trkpt>
      <trkpt lat="42.89238" lon="0.05185">
        <ele>1109.4</ele>
        <time>2020-12-05T15:57:37.967Z</time>
      </trkpt>
      <trkpt lat="42.89238" lon="0.05185">
        <ele>1109.4</ele>
        <time>2020-12-05T15:57:38.967Z</time>
      </trkpt>
      <trkpt lat="42.89238" lon="0.05185">
        <ele>1109.4</ele>
        <time>2020-12-05T15:57:39.966Z</time>
      </trkpt>
      <trkpt lat="42.89238" lon="0.05185">
        <ele>1109.4</ele>
        <time>2020-12-05T15:57:40.967Z</time>
      </trkpt>
      <trkpt lat="42.89245" lon="0.05198">
        <ele>1110.4</ele>
        <time>2020-12-05T15:57:41.966Z</time>
      </trkpt>
      <trkpt lat="42.89245" lon="0.05198">
        <ele>1110.4</ele>
        <time>2020-12-05T15:57:42.966Z</time>
      </trkpt>
      <trkpt lat="42.89247" lon="0.05202">
        <ele>1110.6</ele>
        <time>2020-12-05T15:57:43.966Z</time>
      </trkpt>
      <trkpt lat="42.89247" lon="0.05202">
        <ele>1110.6</ele>
        <time>2020-12-05T15:57:44.966Z</time>
      </trkpt>
      <trkpt lat="42.89247" lon="0.05202">
        <ele>1110.6</ele>
        <time>2020-12-05T15:57:45.965Z</time>
      </trkpt>
      <trkpt lat="42.89247" lon="0.05202">
        <ele>1110.6</ele>
        <time>2020-12-05T15:57:46.967Z</time>
      </trkpt>
      <trkpt lat="42.89247" lon="0.05202">
        <ele>1110.6</ele>
        <time>2020-12-05T15:57:47.966Z</time>
      </trkpt>
      <trkpt lat="42.89247" lon="0.05202">
        <ele>1110.6</ele>
        <time>2020-12-05T15:57:48.965Z</time>
      </trkpt>
      <trkpt lat="42.89247" lon="0.05202">
        <ele>1110.6</ele>
        <time>2020-12-05T15:57:49.967Z</time>
      </trkpt>
      <trkpt lat="42.89253" lon="0.0522">
        <ele>1111.6</ele>
        <time>2020-12-05T15:57:50.968Z</time>
      </trkpt>
      <trkpt lat="42.89253" lon="0.0522">
        <ele>1111.6</ele>
        <time>2020-12-05T15:57:51.967Z</time>
      </trkpt>
      <trkpt lat="42.89255" lon="0.05224">
        <ele>1111.8</ele>
        <time>2020-12-05T15:57:52.965Z</time>
      </trkpt>
      <trkpt lat="42.89255" lon="0.05224">
        <ele>1111.8</ele>
        <time>2020-12-05T15:57:53.966Z</time>
      </trkpt>
      <trkpt lat="42.89255" lon="0.05224">
        <ele>1111.8</ele>
        <time>2020-12-05T15:57:54.967Z</time>
      </trkpt>
      <trkpt lat="42.89255" lon="0.05224">
        <ele>1111.8</ele>
        <time>2020-12-05T15:57:55.967Z</time>
      </trkpt>
      <trkpt lat="42.89255" lon="0.05224">
        <ele>1111.8</ele>
        <time>2020-12-05T15:57:56.966Z</time>
      </trkpt>
      <trkpt lat="42.89255" lon="0.05224">
        <ele>1111.8</ele>
        <time>2020-12-05T15:57:57.966Z</time>
      </trkpt>
      <trkpt lat="42.89255" lon="0.05224">
        <ele>1111.8</ele>
        <time>2020-12-05T15:57:58.966Z</time>
      </trkpt>
      <trkpt lat="42.89255" lon="0.05224">
        <ele>1111.8</ele>
        <time>2020-12-05T15:57:59.966Z</time>
      </trkpt>
      <trkpt lat="42.89263" lon="0.0524">
        <ele>1112.6</ele>
        <time>2020-12-05T15:58:00.967Z</time>
      </trkpt>
      <trkpt lat="42.89263" lon="0.0524">
        <ele>1112.6</ele>
        <time>2020-12-05T15:58:01.967Z</time>
      </trkpt>
      <trkpt lat="42.89263" lon="0.0524">
        <ele>1112.6</ele>
        <time>2020-12-05T15:58:02.966Z</time>
      </trkpt>
      <trkpt lat="42.89266" lon="0.05248">
        <ele>1113.2</ele>
        <time>2020-12-05T15:58:03.967Z</time>
      </trkpt>
      <trkpt lat="42.89266" lon="0.05248">
        <ele>1113.2</ele>
        <time>2020-12-05T15:58:04.967Z</time>
      </trkpt>
      <trkpt lat="42.89266" lon="0.05248">
        <ele>1113.2</ele>
        <time>2020-12-05T15:58:05.966Z</time>
      </trkpt>
      <trkpt lat="42.89266" lon="0.05248">
        <ele>1113.2</ele>
        <time>2020-12-05T15:58:06.965Z</time>
      </trkpt>
      <trkpt lat="42.8927" lon="0.05256">
        <ele>1114.2</ele>
        <time>2020-12-05T15:58:07.966Z</time>
      </trkpt>
      <trkpt lat="42.8927" lon="0.05256">
        <ele>1114.2</ele>
        <time>2020-12-05T15:58:08.967Z</time>
      </trkpt>
      <trkpt lat="42.8927" lon="0.05256">
        <ele>1114.2</ele>
        <time>2020-12-05T15:58:09.966Z</time>
      </trkpt>
      <trkpt lat="42.8927" lon="0.05256">
        <ele>1114.2</ele>
        <time>2020-12-05T15:58:10.967Z</time>
      </trkpt>
      <trkpt lat="42.89274" lon="0.05268">
        <ele>1115.4</ele>
        <time>2020-12-05T15:58:11.967Z</time>
      </trkpt>
      <trkpt lat="42.89274" lon="0.05268">
        <ele>1115.4</ele>
        <time>2020-12-05T15:58:12.967Z</time>
      </trkpt>
      <trkpt lat="42.89276" lon="0.05271">
        <ele>1115.6</ele>
        <time>2020-12-05T15:58:13.966Z</time>
      </trkpt>
      <trkpt lat="42.89276" lon="0.05271">
        <ele>1115.6</ele>
        <time>2020-12-05T15:58:14.967Z</time>
      </trkpt>
      <trkpt lat="42.89276" lon="0.05271">
        <ele>1115.6</ele>
        <time>2020-12-05T15:58:15.965Z</time>
      </trkpt>
      <trkpt lat="42.89276" lon="0.05271">
        <ele>1115.6</ele>
        <time>2020-12-05T15:58:16.967Z</time>
      </trkpt>
      <trkpt lat="42.89276" lon="0.05271">
        <ele>1115.6</ele>
        <time>2020-12-05T15:58:17.965Z</time>
      </trkpt>
      <trkpt lat="42.89281" lon="0.05282">
        <ele>1116.4</ele>
        <time>2020-12-05T15:58:18.966Z</time>
      </trkpt>
      <trkpt lat="42.89281" lon="0.05282">
        <ele>1116.4</ele>
        <time>2020-12-05T15:58:19.965Z</time>
      </trkpt>
      <trkpt lat="42.89281" lon="0.05282">
        <ele>1116.4</ele>
        <time>2020-12-05T15:58:20.966Z</time>
      </trkpt>
      <trkpt lat="42.89281" lon="0.05282">
        <ele>1116.4</ele>
        <time>2020-12-05T15:58:21.967Z</time>
      </trkpt>
      <trkpt lat="42.89281" lon="0.05282">
        <ele>1116.4</ele>
        <time>2020-12-05T15:58:22.966Z</time>
      </trkpt>
      <trkpt lat="42.89281" lon="0.05282">
        <ele>1116.4</ele>
        <time>2020-12-05T15:58:23.966Z</time>
      </trkpt>
      <trkpt lat="42.89285" lon="0.05298">
        <ele>1117.4</ele>
        <time>2020-12-05T15:58:24.967Z</time>
      </trkpt>
      <trkpt lat="42.89285" lon="0.05298">
        <ele>1117.4</ele>
        <time>2020-12-05T15:58:25.967Z</time>
      </trkpt>
      <trkpt lat="42.89285" lon="0.05298">
        <ele>1117.4</ele>
        <time>2020-12-05T15:58:26.966Z</time>
      </trkpt>
      <trkpt lat="42.89285" lon="0.05298">
        <ele>1117.4</ele>
        <time>2020-12-05T15:58:27.965Z</time>
      </trkpt>
      <trkpt lat="42.89285" lon="0.05298">
        <ele>1117.4</ele>
        <time>2020-12-05T15:58:28.967Z</time>
      </trkpt>
      <trkpt lat="42.89285" lon="0.05298">
        <ele>1117.4</ele>
        <time>2020-12-05T15:58:29.966Z</time>
      </trkpt>
      <trkpt lat="42.89285" lon="0.05298">
        <ele>1117.4</ele>
        <time>2020-12-05T15:58:30.967Z</time>
      </trkpt>
      <trkpt lat="42.89285" lon="0.05298">
        <ele>1117.4</ele>
        <time>2020-12-05T15:58:31.965Z</time>
      </trkpt>
      <trkpt lat="42.89289" lon="0.05317">
        <ele>1118.4</ele>
        <time>2020-12-05T15:58:32.967Z</time>
      </trkpt>
      <trkpt lat="42.89289" lon="0.05317">
        <ele>1118.4</ele>
        <time>2020-12-05T15:58:33.966Z</time>
      </trkpt>
      <trkpt lat="42.89289" lon="0.05317">
        <ele>1118.4</ele>
        <time>2020-12-05T15:58:34.966Z</time>
      </trkpt>
      <trkpt lat="42.89289" lon="0.05317">
        <ele>1118.4</ele>
        <time>2020-12-05T15:58:35.966Z</time>
      </trkpt>
      <trkpt lat="42.8929" lon="0.05326">
        <ele>1119.4</ele>
        <time>2020-12-05T15:58:36.967Z</time>
      </trkpt>
      <trkpt lat="42.89291" lon="0.05332">
        <ele>1119.8</ele>
        <time>2020-12-05T15:58:37.965Z</time>
      </trkpt>
      <trkpt lat="42.89291" lon="0.05332">
        <ele>1119.8</ele>
        <time>2020-12-05T15:58:38.966Z</time>
      </trkpt>
      <trkpt lat="42.89291" lon="0.05332">
        <ele>1119.8</ele>
        <time>2020-12-05T15:58:39.966Z</time>
      </trkpt>
      <trkpt lat="42.89291" lon="0.05332">
        <ele>1119.8</ele>
        <time>2020-12-05T15:58:40.966Z</time>
      </trkpt>
      <trkpt lat="42.89291" lon="0.05332">
        <ele>1119.8</ele>
        <time>2020-12-05T15:58:41.966Z</time>
      </trkpt>
      <trkpt lat="42.89291" lon="0.05332">
        <ele>1119.8</ele>
        <time>2020-12-05T15:58:42.966Z</time>
      </trkpt>
      <trkpt lat="42.89292" lon="0.05345">
        <ele>1120.6</ele>
        <time>2020-12-05T15:58:43.968Z</time>
      </trkpt>
      <trkpt lat="42.89293" lon="0.0535">
        <ele>1120.8</ele>
        <time>2020-12-05T15:58:44.967Z</time>
      </trkpt>
      <trkpt lat="42.89293" lon="0.0535">
        <ele>1120.8</ele>
        <time>2020-12-05T15:58:45.967Z</time>
      </trkpt>
      <trkpt lat="42.89293" lon="0.0535">
        <ele>1120.8</ele>
        <time>2020-12-05T15:58:46.967Z</time>
      </trkpt>
      <trkpt lat="42.89293" lon="0.0535">
        <ele>1120.8</ele>
        <time>2020-12-05T15:58:47.968Z</time>
      </trkpt>
      <trkpt lat="42.89293" lon="0.0535">
        <ele>1120.8</ele>
        <time>2020-12-05T15:58:48.967Z</time>
      </trkpt>
      <trkpt lat="42.89293" lon="0.0535">
        <ele>1120.8</ele>
        <time>2020-12-05T15:58:49.968Z</time>
      </trkpt>
      <trkpt lat="42.89293" lon="0.0535">
        <ele>1120.8</ele>
        <time>2020-12-05T15:58:50.966Z</time>
      </trkpt>
      <trkpt lat="42.89293" lon="0.0535">
        <ele>1120.8</ele>
        <time>2020-12-05T15:58:51.967Z</time>
      </trkpt>
      <trkpt lat="42.89293" lon="0.0535">
        <ele>1120.8</ele>
        <time>2020-12-05T15:58:52.966Z</time>
      </trkpt>
      <trkpt lat="42.89293" lon="0.0535">
        <ele>1120.8</ele>
        <time>2020-12-05T15:58:53.965Z</time>
      </trkpt>
      <trkpt lat="42.89293" lon="0.0535">
        <ele>1120.8</ele>
        <time>2020-12-05T15:58:54.966Z</time>
      </trkpt>
      <trkpt lat="42.89297" lon="0.05374">
        <ele>1122</ele>
        <time>2020-12-05T15:58:55.966Z</time>
      </trkpt>
      <trkpt lat="42.89297" lon="0.05374">
        <ele>1122</ele>
        <time>2020-12-05T15:58:56.968Z</time>
      </trkpt>
      <trkpt lat="42.89297" lon="0.05374">
        <ele>1122</ele>
        <time>2020-12-05T15:58:57.965Z</time>
      </trkpt>
      <trkpt lat="42.89297" lon="0.05374">
        <ele>1122</ele>
        <time>2020-12-05T15:58:58.966Z</time>
      </trkpt>
      <trkpt lat="42.89297" lon="0.05374">
        <ele>1122</ele>
        <time>2020-12-05T15:58:59.965Z</time>
      </trkpt>
      <trkpt lat="42.89297" lon="0.05374">
        <ele>1122</ele>
        <time>2020-12-05T15:59:00.968Z</time>
      </trkpt>
      <trkpt lat="42.89302" lon="0.05389">
        <ele>1123</ele>
        <time>2020-12-05T15:59:01.967Z</time>
      </trkpt>
      <trkpt lat="42.89302" lon="0.05389">
        <ele>1123</ele>
        <time>2020-12-05T15:59:02.967Z</time>
      </trkpt>
      <trkpt lat="42.89302" lon="0.05389">
        <ele>1123</ele>
        <time>2020-12-05T15:59:03.967Z</time>
      </trkpt>
      <trkpt lat="42.89302" lon="0.05389">
        <ele>1123</ele>
        <time>2020-12-05T15:59:04.966Z</time>
      </trkpt>
      <trkpt lat="42.89302" lon="0.05389">
        <ele>1123</ele>
        <time>2020-12-05T15:59:05.966Z</time>
      </trkpt>
      <trkpt lat="42.89302" lon="0.05389">
        <ele>1123</ele>
        <time>2020-12-05T15:59:06.966Z</time>
      </trkpt>
      <trkpt lat="42.89302" lon="0.05389">
        <ele>1123</ele>
        <time>2020-12-05T15:59:07.967Z</time>
      </trkpt>
      <trkpt lat="42.89302" lon="0.05389">
        <ele>1123</ele>
        <time>2020-12-05T15:59:08.968Z</time>
      </trkpt>
      <trkpt lat="42.89308" lon="0.05408">
        <ele>1124</ele>
        <time>2020-12-05T15:59:09.968Z</time>
      </trkpt>
      <trkpt lat="42.89308" lon="0.05408">
        <ele>1124</ele>
        <time>2020-12-05T15:59:10.965Z</time>
      </trkpt>
      <trkpt lat="42.8931" lon="0.05413">
        <ele>1124.4</ele>
        <time>2020-12-05T15:59:11.967Z</time>
      </trkpt>
      <trkpt lat="42.8931" lon="0.05413">
        <ele>1124.4</ele>
        <time>2020-12-05T15:59:12.967Z</time>
      </trkpt>
      <trkpt lat="42.8931" lon="0.05413">
        <ele>1124.4</ele>
        <time>2020-12-05T15:59:13.967Z</time>
      </trkpt>
      <trkpt lat="42.8931" lon="0.05413">
        <ele>1124.4</ele>
        <time>2020-12-05T15:59:14.965Z</time>
      </trkpt>
      <trkpt lat="42.8931" lon="0.05413">
        <ele>1124.4</ele>
        <time>2020-12-05T15:59:15.966Z</time>
      </trkpt>
      <trkpt lat="42.8931" lon="0.05413">
        <ele>1124.4</ele>
        <time>2020-12-05T15:59:16.967Z</time>
      </trkpt>
      <trkpt lat="42.8931" lon="0.05413">
        <ele>1124.4</ele>
        <time>2020-12-05T15:59:17.966Z</time>
      </trkpt>
      <trkpt lat="42.89317" lon="0.0543">
        <ele>1125.2</ele>
        <time>2020-12-05T15:59:18.967Z</time>
      </trkpt>
      <trkpt lat="42.89317" lon="0.0543">
        <ele>1125.2</ele>
        <time>2020-12-05T15:59:19.967Z</time>
      </trkpt>
      <trkpt lat="42.89318" lon="0.05435">
        <ele>1125.6</ele>
        <time>2020-12-05T15:59:20.966Z</time>
      </trkpt>
      <trkpt lat="42.89318" lon="0.05435">
        <ele>1125.6</ele>
        <time>2020-12-05T15:59:21.966Z</time>
      </trkpt>
      <trkpt lat="42.89318" lon="0.05435">
        <ele>1125.6</ele>
        <time>2020-12-05T15:59:22.968Z</time>
      </trkpt>
      <trkpt lat="42.89318" lon="0.05435">
        <ele>1125.6</ele>
        <time>2020-12-05T15:59:23.966Z</time>
      </trkpt>
      <trkpt lat="42.89322" lon="0.05444">
        <ele>1126.2</ele>
        <time>2020-12-05T15:59:24.965Z</time>
      </trkpt>
      <trkpt lat="42.89322" lon="0.05444">
        <ele>1126.2</ele>
        <time>2020-12-05T15:59:25.966Z</time>
      </trkpt>
      <trkpt lat="42.89322" lon="0.05444">
        <ele>1126.2</ele>
        <time>2020-12-05T15:59:26.966Z</time>
      </trkpt>
      <trkpt lat="42.89322" lon="0.05444">
        <ele>1126.2</ele>
        <time>2020-12-05T15:59:27.965Z</time>
      </trkpt>
      <trkpt lat="42.89322" lon="0.05444">
        <ele>1126.2</ele>
        <time>2020-12-05T15:59:28.965Z</time>
      </trkpt>
      <trkpt lat="42.89322" lon="0.05444">
        <ele>1126.2</ele>
        <time>2020-12-05T15:59:29.968Z</time>
      </trkpt>
      <trkpt lat="42.89322" lon="0.05444">
        <ele>1126.2</ele>
        <time>2020-12-05T15:59:30.966Z</time>
      </trkpt>
      <trkpt lat="42.89322" lon="0.05444">
        <ele>1126.2</ele>
        <time>2020-12-05T15:59:31.967Z</time>
      </trkpt>
      <trkpt lat="42.8933" lon="0.05459">
        <ele>1127.4</ele>
        <time>2020-12-05T15:59:32.967Z</time>
      </trkpt>
      <trkpt lat="42.8933" lon="0.05459">
        <ele>1127.4</ele>
        <time>2020-12-05T15:59:33.967Z</time>
      </trkpt>
      <trkpt lat="42.8933" lon="0.05459">
        <ele>1127.4</ele>
        <time>2020-12-05T15:59:34.966Z</time>
      </trkpt>
      <trkpt lat="42.8933" lon="0.05459">
        <ele>1127.4</ele>
        <time>2020-12-05T15:59:35.967Z</time>
      </trkpt>
      <trkpt lat="42.8933" lon="0.05459">
        <ele>1127.4</ele>
        <time>2020-12-05T15:59:36.967Z</time>
      </trkpt>
      <trkpt lat="42.8933" lon="0.05459">
        <ele>1127.4</ele>
        <time>2020-12-05T15:59:37.966Z</time>
      </trkpt>
      <trkpt lat="42.8933" lon="0.05459">
        <ele>1127.4</ele>
        <time>2020-12-05T15:59:38.966Z</time>
      </trkpt>
      <trkpt lat="42.89337" lon="0.05474">
        <ele>1128.4</ele>
        <time>2020-12-05T15:59:39.967Z</time>
      </trkpt>
      <trkpt lat="42.89337" lon="0.05474">
        <ele>1128.4</ele>
        <time>2020-12-05T15:59:40.966Z</time>
      </trkpt>
      <trkpt lat="42.89337" lon="0.05474">
        <ele>1128.4</ele>
        <time>2020-12-05T15:59:41.966Z</time>
      </trkpt>
      <trkpt lat="42.89337" lon="0.05474">
        <ele>1128.4</ele>
        <time>2020-12-05T15:59:42.966Z</time>
      </trkpt>
      <trkpt lat="42.89341" lon="0.05481">
        <ele>1129</ele>
        <time>2020-12-05T15:59:43.966Z</time>
      </trkpt>
      <trkpt lat="42.89341" lon="0.05481">
        <ele>1129</ele>
        <time>2020-12-05T15:59:44.965Z</time>
      </trkpt>
      <trkpt lat="42.89341" lon="0.05481">
        <ele>1129</ele>
        <time>2020-12-05T15:59:45.967Z</time>
      </trkpt>
      <trkpt lat="42.89341" lon="0.05481">
        <ele>1129</ele>
        <time>2020-12-05T15:59:46.966Z</time>
      </trkpt>
      <trkpt lat="42.89344" lon="0.05489">
        <ele>1129.6</ele>
        <time>2020-12-05T15:59:47.967Z</time>
      </trkpt>
      <trkpt lat="42.89344" lon="0.05489">
        <ele>1129.6</ele>
        <time>2020-12-05T15:59:48.966Z</time>
      </trkpt>
      <trkpt lat="42.89344" lon="0.05489">
        <ele>1129.6</ele>
        <time>2020-12-05T15:59:49.967Z</time>
      </trkpt>
      <trkpt lat="42.89344" lon="0.05489">
        <ele>1129.6</ele>
        <time>2020-12-05T15:59:50.967Z</time>
      </trkpt>
      <trkpt lat="42.89344" lon="0.05489">
        <ele>1129.6</ele>
        <time>2020-12-05T15:59:51.966Z</time>
      </trkpt>
      <trkpt lat="42.89344" lon="0.05489">
        <ele>1129.6</ele>
        <time>2020-12-05T15:59:52.967Z</time>
      </trkpt>
      <trkpt lat="42.8935" lon="0.05499">
        <ele>1130.6</ele>
        <time>2020-12-05T15:59:53.966Z</time>
      </trkpt>
      <trkpt lat="42.8935" lon="0.05499">
        <ele>1130.6</ele>
        <time>2020-12-05T15:59:54.967Z</time>
      </trkpt>
      <trkpt lat="42.89351" lon="0.05502">
        <ele>1130.8</ele>
        <time>2020-12-05T15:59:55.966Z</time>
      </trkpt>
      <trkpt lat="42.89351" lon="0.05502">
        <ele>1130.8</ele>
        <time>2020-12-05T15:59:56.966Z</time>
      </trkpt>
      <trkpt lat="42.89351" lon="0.05502">
        <ele>1130.8</ele>
        <time>2020-12-05T15:59:57.967Z</time>
      </trkpt>
      <trkpt lat="42.89351" lon="0.05502">
        <ele>1130.8</ele>
        <time>2020-12-05T15:59:58.966Z</time>
      </trkpt>
      <trkpt lat="42.89354" lon="0.0551">
        <ele>1131.6</ele>
        <time>2020-12-05T15:59:59.966Z</time>
      </trkpt>
      <trkpt lat="42.89354" lon="0.0551">
        <ele>1131.6</ele>
        <time>2020-12-05T16:00:00.966Z</time>
      </trkpt>
      <trkpt lat="42.89354" lon="0.0551">
        <ele>1131.6</ele>
        <time>2020-12-05T16:00:01.967Z</time>
      </trkpt>
      <trkpt lat="42.89354" lon="0.0551">
        <ele>1131.6</ele>
        <time>2020-12-05T16:00:02.966Z</time>
      </trkpt>
      <trkpt lat="42.89354" lon="0.0551">
        <ele>1131.6</ele>
        <time>2020-12-05T16:00:03.967Z</time>
      </trkpt>
      <trkpt lat="42.89354" lon="0.0551">
        <ele>1131.6</ele>
        <time>2020-12-05T16:00:04.966Z</time>
      </trkpt>
      <trkpt lat="42.89354" lon="0.0551">
        <ele>1131.6</ele>
        <time>2020-12-05T16:00:05.967Z</time>
      </trkpt>
      <trkpt lat="42.89358" lon="0.05521">
        <ele>1132.8</ele>
        <time>2020-12-05T16:00:06.966Z</time>
      </trkpt>
      <trkpt lat="42.89358" lon="0.05521">
        <ele>1132.8</ele>
        <time>2020-12-05T16:00:07.967Z</time>
      </trkpt>
      <trkpt lat="42.89358" lon="0.05521">
        <ele>1132.8</ele>
        <time>2020-12-05T16:00:08.965Z</time>
      </trkpt>
      <trkpt lat="42.89358" lon="0.05521">
        <ele>1132.8</ele>
        <time>2020-12-05T16:00:09.965Z</time>
      </trkpt>
      <trkpt lat="42.89358" lon="0.05521">
        <ele>1132.8</ele>
        <time>2020-12-05T16:00:10.967Z</time>
      </trkpt>
      <trkpt lat="42.89362" lon="0.05528">
        <ele>1133.4</ele>
        <time>2020-12-05T16:00:11.968Z</time>
      </trkpt>
      <trkpt lat="42.89362" lon="0.05528">
        <ele>1133.4</ele>
        <time>2020-12-05T16:00:12.966Z</time>
      </trkpt>
      <trkpt lat="42.89364" lon="0.05532">
        <ele>1133.8</ele>
        <time>2020-12-05T16:00:13.968Z</time>
      </trkpt>
      <trkpt lat="42.89364" lon="0.05532">
        <ele>1133.8</ele>
        <time>2020-12-05T16:00:14.967Z</time>
      </trkpt>
      <trkpt lat="42.89364" lon="0.05532">
        <ele>1133.8</ele>
        <time>2020-12-05T16:00:15.965Z</time>
      </trkpt>
      <trkpt lat="42.89364" lon="0.05532">
        <ele>1133.8</ele>
        <time>2020-12-05T16:00:16.967Z</time>
      </trkpt>
      <trkpt lat="42.89364" lon="0.05532">
        <ele>1133.8</ele>
        <time>2020-12-05T16:00:17.967Z</time>
      </trkpt>
      <trkpt lat="42.89364" lon="0.05532">
        <ele>1133.8</ele>
        <time>2020-12-05T16:00:18.968Z</time>
      </trkpt>
      <trkpt lat="42.89364" lon="0.05532">
        <ele>1133.8</ele>
        <time>2020-12-05T16:00:19.966Z</time>
      </trkpt>
      <trkpt lat="42.89368" lon="0.05543">
        <ele>1135</ele>
        <time>2020-12-05T16:00:20.967Z</time>
      </trkpt>
      <trkpt lat="42.89368" lon="0.05543">
        <ele>1135</ele>
        <time>2020-12-05T16:00:21.966Z</time>
      </trkpt>
      <trkpt lat="42.89368" lon="0.05543">
        <ele>1135</ele>
        <time>2020-12-05T16:00:22.968Z</time>
      </trkpt>
      <trkpt lat="42.89368" lon="0.05543">
        <ele>1135</ele>
        <time>2020-12-05T16:00:23.966Z</time>
      </trkpt>
      <trkpt lat="42.8937" lon="0.0555">
        <ele>1136</ele>
        <time>2020-12-05T16:00:24.966Z</time>
      </trkpt>
      <trkpt lat="42.89372" lon="0.05554">
        <ele>1136.4</ele>
        <time>2020-12-05T16:00:25.966Z</time>
      </trkpt>
      <trkpt lat="42.89372" lon="0.05554">
        <ele>1136.4</ele>
        <time>2020-12-05T16:00:26.965Z</time>
      </trkpt>
      <trkpt lat="42.89372" lon="0.05554">
        <ele>1136.4</ele>
        <time>2020-12-05T16:00:27.966Z</time>
      </trkpt>
      <trkpt lat="42.89372" lon="0.05554">
        <ele>1136.4</ele>
        <time>2020-12-05T16:00:28.967Z</time>
      </trkpt>
      <trkpt lat="42.89372" lon="0.05554">
        <ele>1136.4</ele>
        <time>2020-12-05T16:00:29.966Z</time>
      </trkpt>
      <trkpt lat="42.89372" lon="0.05554">
        <ele>1136.4</ele>
        <time>2020-12-05T16:00:30.968Z</time>
      </trkpt>
      <trkpt lat="42.89372" lon="0.05554">
        <ele>1136.4</ele>
        <time>2020-12-05T16:00:31.965Z</time>
      </trkpt>
      <trkpt lat="42.89377" lon="0.05567">
        <ele>1137.2</ele>
        <time>2020-12-05T16:00:32.967Z</time>
      </trkpt>
      <trkpt lat="42.89377" lon="0.05567">
        <ele>1137.2</ele>
        <time>2020-12-05T16:00:33.967Z</time>
      </trkpt>
      <trkpt lat="42.89377" lon="0.05567">
        <ele>1137.2</ele>
        <time>2020-12-05T16:00:34.966Z</time>
      </trkpt>
      <trkpt lat="42.89379" lon="0.05572">
        <ele>1137.8</ele>
        <time>2020-12-05T16:00:35.966Z</time>
      </trkpt>
      <trkpt lat="42.89379" lon="0.05572">
        <ele>1137.8</ele>
        <time>2020-12-05T16:00:36.968Z</time>
      </trkpt>
      <trkpt lat="42.89381" lon="0.05576">
        <ele>1138.2</ele>
        <time>2020-12-05T16:00:37.965Z</time>
      </trkpt>
      <trkpt lat="42.89381" lon="0.05576">
        <ele>1138.2</ele>
        <time>2020-12-05T16:00:38.967Z</time>
      </trkpt>
      <trkpt lat="42.89381" lon="0.05576">
        <ele>1138.2</ele>
        <time>2020-12-05T16:00:39.966Z</time>
      </trkpt>
      <trkpt lat="42.89381" lon="0.05576">
        <ele>1138.2</ele>
        <time>2020-12-05T16:00:40.966Z</time>
      </trkpt>
      <trkpt lat="42.89381" lon="0.05576">
        <ele>1138.2</ele>
        <time>2020-12-05T16:00:41.966Z</time>
      </trkpt>
      <trkpt lat="42.89381" lon="0.05576">
        <ele>1138.2</ele>
        <time>2020-12-05T16:00:42.966Z</time>
      </trkpt>
      <trkpt lat="42.89381" lon="0.05576">
        <ele>1138.2</ele>
        <time>2020-12-05T16:00:43.968Z</time>
      </trkpt>
      <trkpt lat="42.89387" lon="0.0559">
        <ele>1139.4</ele>
        <time>2020-12-05T16:00:44.967Z</time>
      </trkpt>
      <trkpt lat="42.89387" lon="0.0559">
        <ele>1139.4</ele>
        <time>2020-12-05T16:00:45.965Z</time>
      </trkpt>
      <trkpt lat="42.89389" lon="0.05593">
        <ele>1139.8</ele>
        <time>2020-12-05T16:00:46.966Z</time>
      </trkpt>
      <trkpt lat="42.89389" lon="0.05593">
        <ele>1139.8</ele>
        <time>2020-12-05T16:00:47.966Z</time>
      </trkpt>
      <trkpt lat="42.89389" lon="0.05593">
        <ele>1139.8</ele>
        <time>2020-12-05T16:00:48.966Z</time>
      </trkpt>
      <trkpt lat="42.89389" lon="0.05593">
        <ele>1139.8</ele>
        <time>2020-12-05T16:00:49.967Z</time>
      </trkpt>
      <trkpt lat="42.89389" lon="0.05593">
        <ele>1139.8</ele>
        <time>2020-12-05T16:00:50.966Z</time>
      </trkpt>
      <trkpt lat="42.89393" lon="0.05603">
        <ele>1140.6</ele>
        <time>2020-12-05T16:00:51.966Z</time>
      </trkpt>
      <trkpt lat="42.89393" lon="0.05603">
        <ele>1140.6</ele>
        <time>2020-12-05T16:00:52.966Z</time>
      </trkpt>
      <trkpt lat="42.89393" lon="0.05603">
        <ele>1140.6</ele>
        <time>2020-12-05T16:00:53.967Z</time>
      </trkpt>
      <trkpt lat="42.89393" lon="0.05603">
        <ele>1140.6</ele>
        <time>2020-12-05T16:00:54.967Z</time>
      </trkpt>
      <trkpt lat="42.89393" lon="0.05603">
        <ele>1140.6</ele>
        <time>2020-12-05T16:00:55.966Z</time>
      </trkpt>
      <trkpt lat="42.89397" lon="0.05614">
        <ele>1141.8</ele>
        <time>2020-12-05T16:00:56.966Z</time>
      </trkpt>
      <trkpt lat="42.89397" lon="0.05614">
        <ele>1141.8</ele>
        <time>2020-12-05T16:00:57.965Z</time>
      </trkpt>
      <trkpt lat="42.89397" lon="0.05614">
        <ele>1141.8</ele>
        <time>2020-12-05T16:00:58.965Z</time>
      </trkpt>
      <trkpt lat="42.89397" lon="0.05614">
        <ele>1141.8</ele>
        <time>2020-12-05T16:00:59.966Z</time>
      </trkpt>
      <trkpt lat="42.89401" lon="0.05621">
        <ele>1142.4</ele>
        <time>2020-12-05T16:01:00.967Z</time>
      </trkpt>
      <trkpt lat="42.89401" lon="0.05621">
        <ele>1142.4</ele>
        <time>2020-12-05T16:01:01.967Z</time>
      </trkpt>
      <trkpt lat="42.89402" lon="0.05625">
        <ele>1142.8</ele>
        <time>2020-12-05T16:01:02.965Z</time>
      </trkpt>
      <trkpt lat="42.89402" lon="0.05625">
        <ele>1142.8</ele>
        <time>2020-12-05T16:01:03.966Z</time>
      </trkpt>
      <trkpt lat="42.89402" lon="0.05625">
        <ele>1142.8</ele>
        <time>2020-12-05T16:01:04.966Z</time>
      </trkpt>
      <trkpt lat="42.89402" lon="0.05625">
        <ele>1142.8</ele>
        <time>2020-12-05T16:01:05.967Z</time>
      </trkpt>
      <trkpt lat="42.89402" lon="0.05625">
        <ele>1142.8</ele>
        <time>2020-12-05T16:01:06.967Z</time>
      </trkpt>
      <trkpt lat="42.89402" lon="0.05625">
        <ele>1142.8</ele>
        <time>2020-12-05T16:01:07.966Z</time>
      </trkpt>
      <trkpt lat="42.89407" lon="0.05637">
        <ele>1143.6</ele>
        <time>2020-12-05T16:01:08.967Z</time>
      </trkpt>
      <trkpt lat="42.89407" lon="0.05637">
        <ele>1143.6</ele>
        <time>2020-12-05T16:01:09.965Z</time>
      </trkpt>
      <trkpt lat="42.89407" lon="0.05637">
        <ele>1143.6</ele>
        <time>2020-12-05T16:01:10.966Z</time>
      </trkpt>
      <trkpt lat="42.89407" lon="0.05637">
        <ele>1143.6</ele>
        <time>2020-12-05T16:01:11.967Z</time>
      </trkpt>
      <trkpt lat="42.8941" lon="0.05645">
        <ele>1144.2</ele>
        <time>2020-12-05T16:01:12.966Z</time>
      </trkpt>
      <trkpt lat="42.8941" lon="0.05645">
        <ele>1144.2</ele>
        <time>2020-12-05T16:01:13.966Z</time>
      </trkpt>
      <trkpt lat="42.8941" lon="0.05645">
        <ele>1144.2</ele>
        <time>2020-12-05T16:01:14.966Z</time>
      </trkpt>
      <trkpt lat="42.8941" lon="0.05645">
        <ele>1144.2</ele>
        <time>2020-12-05T16:01:15.966Z</time>
      </trkpt>
      <trkpt lat="42.8941" lon="0.05645">
        <ele>1144.2</ele>
        <time>2020-12-05T16:01:16.967Z</time>
      </trkpt>
      <trkpt lat="42.8941" lon="0.05645">
        <ele>1144.2</ele>
        <time>2020-12-05T16:01:17.966Z</time>
      </trkpt>
      <trkpt lat="42.89415" lon="0.05656">
        <ele>1145</ele>
        <time>2020-12-05T16:01:18.966Z</time>
      </trkpt>
      <trkpt lat="42.89415" lon="0.05656">
        <ele>1145</ele>
        <time>2020-12-05T16:01:19.967Z</time>
      </trkpt>
      <trkpt lat="42.89415" lon="0.05656">
        <ele>1145</ele>
        <time>2020-12-05T16:01:20.966Z</time>
      </trkpt>
      <trkpt lat="42.89415" lon="0.05656">
        <ele>1145</ele>
        <time>2020-12-05T16:01:21.965Z</time>
      </trkpt>
      <trkpt lat="42.89415" lon="0.05656">
        <ele>1145</ele>
        <time>2020-12-05T16:01:22.966Z</time>
      </trkpt>
      <trkpt lat="42.89415" lon="0.05656">
        <ele>1145</ele>
        <time>2020-12-05T16:01:23.967Z</time>
      </trkpt>
      <trkpt lat="42.8942" lon="0.05666">
        <ele>1146.2</ele>
        <time>2020-12-05T16:01:24.967Z</time>
      </trkpt>
      <trkpt lat="42.89421" lon="0.0567">
        <ele>1146.6</ele>
        <time>2020-12-05T16:01:25.967Z</time>
      </trkpt>
      <trkpt lat="42.89421" lon="0.0567">
        <ele>1146.6</ele>
        <time>2020-12-05T16:01:26.967Z</time>
      </trkpt>
      <trkpt lat="42.89421" lon="0.0567">
        <ele>1146.6</ele>
        <time>2020-12-05T16:01:27.965Z</time>
      </trkpt>
      <trkpt lat="42.89421" lon="0.0567">
        <ele>1146.6</ele>
        <time>2020-12-05T16:01:28.967Z</time>
      </trkpt>
      <trkpt lat="42.89421" lon="0.0567">
        <ele>1146.6</ele>
        <time>2020-12-05T16:01:29.965Z</time>
      </trkpt>
      <trkpt lat="42.89421" lon="0.0567">
        <ele>1146.6</ele>
        <time>2020-12-05T16:01:30.967Z</time>
      </trkpt>
      <trkpt lat="42.89425" lon="0.05682">
        <ele>1147.6</ele>
        <time>2020-12-05T16:01:31.967Z</time>
      </trkpt>
      <trkpt lat="42.89425" lon="0.05682">
        <ele>1147.6</ele>
        <time>2020-12-05T16:01:32.967Z</time>
      </trkpt>
      <trkpt lat="42.89425" lon="0.05682">
        <ele>1147.6</ele>
        <time>2020-12-05T16:01:33.966Z</time>
      </trkpt>
      <trkpt lat="42.89425" lon="0.05682">
        <ele>1147.6</ele>
        <time>2020-12-05T16:01:34.968Z</time>
      </trkpt>
      <trkpt lat="42.89425" lon="0.05682">
        <ele>1147.6</ele>
        <time>2020-12-05T16:01:35.965Z</time>
      </trkpt>
      <trkpt lat="42.89425" lon="0.05682">
        <ele>1147.6</ele>
        <time>2020-12-05T16:01:36.967Z</time>
      </trkpt>
      <trkpt lat="42.89428" lon="0.05694">
        <ele>1148.6</ele>
        <time>2020-12-05T16:01:37.965Z</time>
      </trkpt>
      <trkpt lat="42.89428" lon="0.05694">
        <ele>1148.6</ele>
        <time>2020-12-05T16:01:38.966Z</time>
      </trkpt>
      <trkpt lat="42.89428" lon="0.05694">
        <ele>1148.6</ele>
        <time>2020-12-05T16:01:39.966Z</time>
      </trkpt>
      <trkpt lat="42.89428" lon="0.05694">
        <ele>1148.6</ele>
        <time>2020-12-05T16:01:40.967Z</time>
      </trkpt>
      <trkpt lat="42.89428" lon="0.05694">
        <ele>1148.6</ele>
        <time>2020-12-05T16:01:41.966Z</time>
      </trkpt>
      <trkpt lat="42.89428" lon="0.05694">
        <ele>1148.6</ele>
        <time>2020-12-05T16:01:42.966Z</time>
      </trkpt>
      <trkpt lat="42.89432" lon="0.05709">
        <ele>1149.6</ele>
        <time>2020-12-05T16:01:43.967Z</time>
      </trkpt>
      <trkpt lat="42.89432" lon="0.05709">
        <ele>1149.6</ele>
        <time>2020-12-05T16:01:44.967Z</time>
      </trkpt>
      <trkpt lat="42.89432" lon="0.05709">
        <ele>1149.6</ele>
        <time>2020-12-05T16:01:45.965Z</time>
      </trkpt>
      <trkpt lat="42.89432" lon="0.05709">
        <ele>1149.6</ele>
        <time>2020-12-05T16:01:46.965Z</time>
      </trkpt>
      <trkpt lat="42.89434" lon="0.05717">
        <ele>1150.2</ele>
        <time>2020-12-05T16:01:47.967Z</time>
      </trkpt>
      <trkpt lat="42.89434" lon="0.05717">
        <ele>1150.2</ele>
        <time>2020-12-05T16:01:48.966Z</time>
      </trkpt>
      <trkpt lat="42.89434" lon="0.05717">
        <ele>1150.2</ele>
        <time>2020-12-05T16:01:49.966Z</time>
      </trkpt>
      <trkpt lat="42.89436" lon="0.05725">
        <ele>1150.8</ele>
        <time>2020-12-05T16:01:50.966Z</time>
      </trkpt>
      <trkpt lat="42.89436" lon="0.05725">
        <ele>1150.8</ele>
        <time>2020-12-05T16:01:51.966Z</time>
      </trkpt>
      <trkpt lat="42.89436" lon="0.05725">
        <ele>1150.8</ele>
        <time>2020-12-05T16:01:52.966Z</time>
      </trkpt>
      <trkpt lat="42.89436" lon="0.05725">
        <ele>1150.8</ele>
        <time>2020-12-05T16:01:53.965Z</time>
      </trkpt>
      <trkpt lat="42.89436" lon="0.05725">
        <ele>1150.8</ele>
        <time>2020-12-05T16:01:54.967Z</time>
      </trkpt>
      <trkpt lat="42.89436" lon="0.05725">
        <ele>1150.8</ele>
        <time>2020-12-05T16:01:55.965Z</time>
      </trkpt>
      <trkpt lat="42.8944" lon="0.05735">
        <ele>1152</ele>
        <time>2020-12-05T16:01:56.967Z</time>
      </trkpt>
      <trkpt lat="42.89441" lon="0.05739">
        <ele>1152.2</ele>
        <time>2020-12-05T16:01:57.966Z</time>
      </trkpt>
      <trkpt lat="42.89441" lon="0.05739">
        <ele>1152.2</ele>
        <time>2020-12-05T16:01:58.967Z</time>
      </trkpt>
      <trkpt lat="42.89441" lon="0.05739">
        <ele>1152.2</ele>
        <time>2020-12-05T16:01:59.967Z</time>
      </trkpt>
      <trkpt lat="42.89441" lon="0.05739">
        <ele>1152.2</ele>
        <time>2020-12-05T16:02:00.967Z</time>
      </trkpt>
      <trkpt lat="42.89441" lon="0.05739">
        <ele>1152.2</ele>
        <time>2020-12-05T16:02:01.967Z</time>
      </trkpt>
      <trkpt lat="42.89441" lon="0.05739">
        <ele>1152.2</ele>
        <time>2020-12-05T16:02:02.967Z</time>
      </trkpt>
      <trkpt lat="42.89441" lon="0.05739">
        <ele>1152.2</ele>
        <time>2020-12-05T16:02:03.965Z</time>
      </trkpt>
      <trkpt lat="42.89446" lon="0.0575">
        <ele>1153</ele>
        <time>2020-12-05T16:02:04.968Z</time>
      </trkpt>
      <trkpt lat="42.89446" lon="0.0575">
        <ele>1153</ele>
        <time>2020-12-05T16:02:05.965Z</time>
      </trkpt>
      <trkpt lat="42.89446" lon="0.0575">
        <ele>1153</ele>
        <time>2020-12-05T16:02:06.967Z</time>
      </trkpt>
      <trkpt lat="42.89446" lon="0.0575">
        <ele>1153</ele>
        <time>2020-12-05T16:02:07.965Z</time>
      </trkpt>
      <trkpt lat="42.89446" lon="0.0575">
        <ele>1153</ele>
        <time>2020-12-05T16:02:08.966Z</time>
      </trkpt>
      <trkpt lat="42.89451" lon="0.0576">
        <ele>1154</ele>
        <time>2020-12-05T16:02:09.968Z</time>
      </trkpt>
      <trkpt lat="42.89453" lon="0.05763">
        <ele>1154.2</ele>
        <time>2020-12-05T16:02:10.967Z</time>
      </trkpt>
      <trkpt lat="42.89453" lon="0.05763">
        <ele>1154.2</ele>
        <time>2020-12-05T16:02:11.967Z</time>
      </trkpt>
      <trkpt lat="42.89453" lon="0.05763">
        <ele>1154.2</ele>
        <time>2020-12-05T16:02:12.966Z</time>
      </trkpt>
      <trkpt lat="42.89453" lon="0.05763">
        <ele>1154.2</ele>
        <time>2020-12-05T16:02:13.966Z</time>
      </trkpt>
      <trkpt lat="42.89453" lon="0.05763">
        <ele>1154.2</ele>
        <time>2020-12-05T16:02:14.967Z</time>
      </trkpt>
      <trkpt lat="42.89453" lon="0.05763">
        <ele>1154.2</ele>
        <time>2020-12-05T16:02:15.966Z</time>
      </trkpt>
      <trkpt lat="42.89458" lon="0.05773">
        <ele>1155.2</ele>
        <time>2020-12-05T16:02:16.966Z</time>
      </trkpt>
      <trkpt lat="42.89458" lon="0.05773">
        <ele>1155.2</ele>
        <time>2020-12-05T16:02:17.967Z</time>
      </trkpt>
      <trkpt lat="42.89458" lon="0.05773">
        <ele>1155.2</ele>
        <time>2020-12-05T16:02:18.967Z</time>
      </trkpt>
      <trkpt lat="42.89458" lon="0.05773">
        <ele>1155.2</ele>
        <time>2020-12-05T16:02:19.966Z</time>
      </trkpt>
      <trkpt lat="42.89458" lon="0.05773">
        <ele>1155.2</ele>
        <time>2020-12-05T16:02:20.967Z</time>
      </trkpt>
      <trkpt lat="42.89463" lon="0.05782">
        <ele>1156.2</ele>
        <time>2020-12-05T16:02:21.966Z</time>
      </trkpt>
      <trkpt lat="42.89466" lon="0.05785">
        <ele>1156.4</ele>
        <time>2020-12-05T16:02:22.965Z</time>
      </trkpt>
      <trkpt lat="42.89466" lon="0.05785">
        <ele>1156.4</ele>
        <time>2020-12-05T16:02:23.968Z</time>
      </trkpt>
      <trkpt lat="42.89466" lon="0.05785">
        <ele>1156.4</ele>
        <time>2020-12-05T16:02:24.966Z</time>
      </trkpt>
      <trkpt lat="42.89466" lon="0.05785">
        <ele>1156.4</ele>
        <time>2020-12-05T16:02:25.966Z</time>
      </trkpt>
      <trkpt lat="42.89466" lon="0.05785">
        <ele>1156.4</ele>
        <time>2020-12-05T16:02:26.966Z</time>
      </trkpt>
      <trkpt lat="42.89466" lon="0.05785">
        <ele>1156.4</ele>
        <time>2020-12-05T16:02:27.967Z</time>
      </trkpt>
      <trkpt lat="42.89466" lon="0.05785">
        <ele>1156.4</ele>
        <time>2020-12-05T16:02:28.967Z</time>
      </trkpt>
      <trkpt lat="42.89474" lon="0.05799">
        <ele>1157.6</ele>
        <time>2020-12-05T16:02:29.965Z</time>
      </trkpt>
      <trkpt lat="42.89474" lon="0.05799">
        <ele>1157.6</ele>
        <time>2020-12-05T16:02:30.965Z</time>
      </trkpt>
      <trkpt lat="42.89474" lon="0.05799">
        <ele>1157.6</ele>
        <time>2020-12-05T16:02:31.966Z</time>
      </trkpt>
      <trkpt lat="42.89474" lon="0.05799">
        <ele>1157.6</ele>
        <time>2020-12-05T16:02:32.967Z</time>
      </trkpt>
      <trkpt lat="42.89474" lon="0.05799">
        <ele>1157.6</ele>
        <time>2020-12-05T16:02:33.966Z</time>
      </trkpt>
      <trkpt lat="42.89474" lon="0.05799">
        <ele>1157.6</ele>
        <time>2020-12-05T16:02:34.967Z</time>
      </trkpt>
      <trkpt lat="42.89479" lon="0.05808">
        <ele>1158.4</ele>
        <time>2020-12-05T16:02:35.966Z</time>
      </trkpt>
      <trkpt lat="42.89479" lon="0.05808">
        <ele>1158.4</ele>
        <time>2020-12-05T16:02:36.967Z</time>
      </trkpt>
      <trkpt lat="42.89479" lon="0.05808">
        <ele>1158.4</ele>
        <time>2020-12-05T16:02:37.966Z</time>
      </trkpt>
      <trkpt lat="42.89479" lon="0.05808">
        <ele>1158.4</ele>
        <time>2020-12-05T16:02:38.966Z</time>
      </trkpt>
      <trkpt lat="42.89479" lon="0.05808">
        <ele>1158.4</ele>
        <time>2020-12-05T16:02:39.965Z</time>
      </trkpt>
      <trkpt lat="42.89485" lon="0.05817">
        <ele>1159.4</ele>
        <time>2020-12-05T16:02:40.966Z</time>
      </trkpt>
      <trkpt lat="42.89485" lon="0.05817">
        <ele>1159.4</ele>
        <time>2020-12-05T16:02:41.965Z</time>
      </trkpt>
      <trkpt lat="42.89487" lon="0.0582">
        <ele>1159.8</ele>
        <time>2020-12-05T16:02:42.966Z</time>
      </trkpt>
      <trkpt lat="42.89487" lon="0.0582">
        <ele>1159.8</ele>
        <time>2020-12-05T16:02:43.967Z</time>
      </trkpt>
      <trkpt lat="42.89487" lon="0.0582">
        <ele>1159.8</ele>
        <time>2020-12-05T16:02:44.967Z</time>
      </trkpt>
      <trkpt lat="42.89487" lon="0.0582">
        <ele>1159.8</ele>
        <time>2020-12-05T16:02:45.966Z</time>
      </trkpt>
      <trkpt lat="42.89487" lon="0.0582">
        <ele>1159.8</ele>
        <time>2020-12-05T16:02:46.965Z</time>
      </trkpt>
      <trkpt lat="42.89487" lon="0.0582">
        <ele>1159.8</ele>
        <time>2020-12-05T16:02:47.966Z</time>
      </trkpt>
      <trkpt lat="42.89487" lon="0.0582">
        <ele>1159.8</ele>
        <time>2020-12-05T16:02:48.967Z</time>
      </trkpt>
      <trkpt lat="42.89497" lon="0.05832">
        <ele>1160.6</ele>
        <time>2020-12-05T16:02:49.967Z</time>
      </trkpt>
      <trkpt lat="42.89497" lon="0.05832">
        <ele>1160.6</ele>
        <time>2020-12-05T16:02:50.965Z</time>
      </trkpt>
      <trkpt lat="42.89497" lon="0.05832">
        <ele>1160.6</ele>
        <time>2020-12-05T16:02:51.967Z</time>
      </trkpt>
      <trkpt lat="42.89497" lon="0.05832">
        <ele>1160.6</ele>
        <time>2020-12-05T16:02:52.966Z</time>
      </trkpt>
      <trkpt lat="42.89502" lon="0.05837">
        <ele>1161</ele>
        <time>2020-12-05T16:02:53.967Z</time>
      </trkpt>
      <trkpt lat="42.89502" lon="0.05837">
        <ele>1161</ele>
        <time>2020-12-05T16:02:54.966Z</time>
      </trkpt>
      <trkpt lat="42.89502" lon="0.05837">
        <ele>1161</ele>
        <time>2020-12-05T16:02:55.967Z</time>
      </trkpt>
      <trkpt lat="42.89502" lon="0.05837">
        <ele>1161</ele>
        <time>2020-12-05T16:02:56.967Z</time>
      </trkpt>
      <trkpt lat="42.89502" lon="0.05837">
        <ele>1161</ele>
        <time>2020-12-05T16:02:57.966Z</time>
      </trkpt>
      <trkpt lat="42.8951" lon="0.05845">
        <ele>1161.8</ele>
        <time>2020-12-05T16:02:58.967Z</time>
      </trkpt>
      <trkpt lat="42.8951" lon="0.05845">
        <ele>1161.8</ele>
        <time>2020-12-05T16:02:59.967Z</time>
      </trkpt>
      <trkpt lat="42.8951" lon="0.05845">
        <ele>1161.8</ele>
        <time>2020-12-05T16:03:00.968Z</time>
      </trkpt>
      <trkpt lat="42.8951" lon="0.05845">
        <ele>1161.8</ele>
        <time>2020-12-05T16:03:01.967Z</time>
      </trkpt>
      <trkpt lat="42.8951" lon="0.05845">
        <ele>1161.8</ele>
        <time>2020-12-05T16:03:02.967Z</time>
      </trkpt>
      <trkpt lat="42.89519" lon="0.0585">
        <ele>1162.6</ele>
        <time>2020-12-05T16:03:03.965Z</time>
      </trkpt>
      <trkpt lat="42.89519" lon="0.0585">
        <ele>1162.6</ele>
        <time>2020-12-05T16:03:04.966Z</time>
      </trkpt>
      <trkpt lat="42.89522" lon="0.05852">
        <ele>1163</ele>
        <time>2020-12-05T16:03:05.967Z</time>
      </trkpt>
      <trkpt lat="42.89522" lon="0.05852">
        <ele>1163</ele>
        <time>2020-12-05T16:03:06.967Z</time>
      </trkpt>
      <trkpt lat="42.89522" lon="0.05852">
        <ele>1163</ele>
        <time>2020-12-05T16:03:07.968Z</time>
      </trkpt>
      <trkpt lat="42.89522" lon="0.05852">
        <ele>1163</ele>
        <time>2020-12-05T16:03:08.967Z</time>
      </trkpt>
      <trkpt lat="42.89522" lon="0.05852">
        <ele>1163</ele>
        <time>2020-12-05T16:03:09.967Z</time>
      </trkpt>
      <trkpt lat="42.89522" lon="0.05852">
        <ele>1163</ele>
        <time>2020-12-05T16:03:10.966Z</time>
      </trkpt>
      <trkpt lat="42.89522" lon="0.05852">
        <ele>1163</ele>
        <time>2020-12-05T16:03:11.965Z</time>
      </trkpt>
      <trkpt lat="42.89534" lon="0.05861">
        <ele>1164.2</ele>
        <time>2020-12-05T16:03:12.968Z</time>
      </trkpt>
      <trkpt lat="42.89534" lon="0.05861">
        <ele>1164.2</ele>
        <time>2020-12-05T16:03:13.967Z</time>
      </trkpt>
      <trkpt lat="42.89534" lon="0.05861">
        <ele>1164.2</ele>
        <time>2020-12-05T16:03:14.966Z</time>
      </trkpt>
      <trkpt lat="42.89534" lon="0.05861">
        <ele>1164.2</ele>
        <time>2020-12-05T16:03:15.967Z</time>
      </trkpt>
      <trkpt lat="42.89534" lon="0.05861">
        <ele>1164.2</ele>
        <time>2020-12-05T16:03:16.967Z</time>
      </trkpt>
      <trkpt lat="42.89534" lon="0.05861">
        <ele>1164.2</ele>
        <time>2020-12-05T16:03:17.966Z</time>
      </trkpt>
      <trkpt lat="42.89534" lon="0.05861">
        <ele>1164.2</ele>
        <time>2020-12-05T16:03:18.968Z</time>
      </trkpt>
      <trkpt lat="42.89534" lon="0.05861">
        <ele>1164.2</ele>
        <time>2020-12-05T16:03:19.965Z</time>
      </trkpt>
      <trkpt lat="42.89534" lon="0.05861">
        <ele>1164.2</ele>
        <time>2020-12-05T16:03:20.965Z</time>
      </trkpt>
      <trkpt lat="42.89534" lon="0.05861">
        <ele>1164.2</ele>
        <time>2020-12-05T16:03:21.967Z</time>
      </trkpt>
      <trkpt lat="42.89534" lon="0.05861">
        <ele>1164.2</ele>
        <time>2020-12-05T16:03:22.966Z</time>
      </trkpt>
      <trkpt lat="42.89549" lon="0.0587">
        <ele>1165.2</ele>
        <time>2020-12-05T16:03:23.967Z</time>
      </trkpt>
      <trkpt lat="42.89549" lon="0.0587">
        <ele>1165.2</ele>
        <time>2020-12-05T16:03:24.967Z</time>
      </trkpt>
      <trkpt lat="42.89549" lon="0.0587">
        <ele>1165.2</ele>
        <time>2020-12-05T16:03:25.966Z</time>
      </trkpt>
      <trkpt lat="42.89549" lon="0.0587">
        <ele>1165.2</ele>
        <time>2020-12-05T16:03:26.967Z</time>
      </trkpt>
      <trkpt lat="42.89549" lon="0.0587">
        <ele>1165.2</ele>
        <time>2020-12-05T16:03:27.966Z</time>
      </trkpt>
      <trkpt lat="42.89549" lon="0.0587">
        <ele>1165.2</ele>
        <time>2020-12-05T16:03:28.965Z</time>
      </trkpt>
      <trkpt lat="42.89549" lon="0.0587">
        <ele>1165.2</ele>
        <time>2020-12-05T16:03:29.968Z</time>
      </trkpt>
      <trkpt lat="42.89559" lon="0.05879">
        <ele>1166</ele>
        <time>2020-12-05T16:03:30.966Z</time>
      </trkpt>
      <trkpt lat="42.89559" lon="0.05879">
        <ele>1166</ele>
        <time>2020-12-05T16:03:31.967Z</time>
      </trkpt>
      <trkpt lat="42.89561" lon="0.05882">
        <ele>1166.2</ele>
        <time>2020-12-05T16:03:32.966Z</time>
      </trkpt>
      <trkpt lat="42.89561" lon="0.05882">
        <ele>1166.2</ele>
        <time>2020-12-05T16:03:33.966Z</time>
      </trkpt>
      <trkpt lat="42.89561" lon="0.05882">
        <ele>1166.2</ele>
        <time>2020-12-05T16:03:34.967Z</time>
      </trkpt>
      <trkpt lat="42.89561" lon="0.05882">
        <ele>1166.2</ele>
        <time>2020-12-05T16:03:35.966Z</time>
      </trkpt>
      <trkpt lat="42.89561" lon="0.05882">
        <ele>1166.2</ele>
        <time>2020-12-05T16:03:36.966Z</time>
      </trkpt>
      <trkpt lat="42.89561" lon="0.05882">
        <ele>1166.2</ele>
        <time>2020-12-05T16:03:37.966Z</time>
      </trkpt>
      <trkpt lat="42.89561" lon="0.05894">
        <ele>1167.4</ele>
        <time>2020-12-05T16:03:38.967Z</time>
      </trkpt>
      <trkpt lat="42.89561" lon="0.05894">
        <ele>1167.4</ele>
        <time>2020-12-05T16:03:39.966Z</time>
      </trkpt>
      <trkpt lat="42.89561" lon="0.05894">
        <ele>1167.4</ele>
        <time>2020-12-05T16:03:40.968Z</time>
      </trkpt>
      <trkpt lat="42.89561" lon="0.05894">
        <ele>1167.4</ele>
        <time>2020-12-05T16:03:41.968Z</time>
      </trkpt>
      <trkpt lat="42.89561" lon="0.05894">
        <ele>1167.4</ele>
        <time>2020-12-05T16:03:42.966Z</time>
      </trkpt>
      <trkpt lat="42.89561" lon="0.05894">
        <ele>1167.4</ele>
        <time>2020-12-05T16:03:43.967Z</time>
      </trkpt>
      <trkpt lat="42.89561" lon="0.05894">
        <ele>1167.4</ele>
        <time>2020-12-05T16:03:44.967Z</time>
      </trkpt>
      <trkpt lat="42.89561" lon="0.05894">
        <ele>1167.4</ele>
        <time>2020-12-05T16:03:45.965Z</time>
      </trkpt>
      <trkpt lat="42.89555" lon="0.05908">
        <ele>1168.8</ele>
        <time>2020-12-05T16:03:46.966Z</time>
      </trkpt>
      <trkpt lat="42.89552" lon="0.0591">
        <ele>1169</ele>
        <time>2020-12-05T16:03:47.966Z</time>
      </trkpt>
      <trkpt lat="42.89552" lon="0.0591">
        <ele>1169</ele>
        <time>2020-12-05T16:03:48.967Z</time>
      </trkpt>
      <trkpt lat="42.89552" lon="0.0591">
        <ele>1169</ele>
        <time>2020-12-05T16:03:49.966Z</time>
      </trkpt>
      <trkpt lat="42.89552" lon="0.0591">
        <ele>1169</ele>
        <time>2020-12-05T16:03:50.966Z</time>
      </trkpt>
      <trkpt lat="42.89552" lon="0.0591">
        <ele>1169</ele>
        <time>2020-12-05T16:03:51.967Z</time>
      </trkpt>
      <trkpt lat="42.89545" lon="0.05913">
        <ele>1169.8</ele>
        <time>2020-12-05T16:03:52.966Z</time>
      </trkpt>
      <trkpt lat="42.89545" lon="0.05913">
        <ele>1169.8</ele>
        <time>2020-12-05T16:03:53.966Z</time>
      </trkpt>
      <trkpt lat="42.89545" lon="0.05913">
        <ele>1169.8</ele>
        <time>2020-12-05T16:03:54.966Z</time>
      </trkpt>
      <trkpt lat="42.89545" lon="0.05913">
        <ele>1169.8</ele>
        <time>2020-12-05T16:03:55.967Z</time>
      </trkpt>
      <trkpt lat="42.89539" lon="0.05912">
        <ele>1170.4</ele>
        <time>2020-12-05T16:03:56.965Z</time>
      </trkpt>
      <trkpt lat="42.89539" lon="0.05912">
        <ele>1170.4</ele>
        <time>2020-12-05T16:03:57.966Z</time>
      </trkpt>
      <trkpt lat="42.89539" lon="0.05912">
        <ele>1170.4</ele>
        <time>2020-12-05T16:03:58.965Z</time>
      </trkpt>
      <trkpt lat="42.89534" lon="0.05909">
        <ele>1171</ele>
        <time>2020-12-05T16:03:59.965Z</time>
      </trkpt>
      <trkpt lat="42.89534" lon="0.05909">
        <ele>1171</ele>
        <time>2020-12-05T16:04:00.967Z</time>
      </trkpt>
      <trkpt lat="42.89534" lon="0.05909">
        <ele>1171</ele>
        <time>2020-12-05T16:04:01.967Z</time>
      </trkpt>
      <trkpt lat="42.89534" lon="0.05909">
        <ele>1171</ele>
        <time>2020-12-05T16:04:02.966Z</time>
      </trkpt>
      <trkpt lat="42.89534" lon="0.05909">
        <ele>1171</ele>
        <time>2020-12-05T16:04:03.968Z</time>
      </trkpt>
      <trkpt lat="42.89534" lon="0.05909">
        <ele>1171</ele>
        <time>2020-12-05T16:04:04.965Z</time>
      </trkpt>
      <trkpt lat="42.89526" lon="0.05902">
        <ele>1172</ele>
        <time>2020-12-05T16:04:05.967Z</time>
      </trkpt>
      <trkpt lat="42.89526" lon="0.05902">
        <ele>1172</ele>
        <time>2020-12-05T16:04:06.965Z</time>
      </trkpt>
      <trkpt lat="42.89523" lon="0.059">
        <ele>1172.2</ele>
        <time>2020-12-05T16:04:07.966Z</time>
      </trkpt>
      <trkpt lat="42.89523" lon="0.059">
        <ele>1172.2</ele>
        <time>2020-12-05T16:04:08.967Z</time>
      </trkpt>
      <trkpt lat="42.89523" lon="0.059">
        <ele>1172.2</ele>
        <time>2020-12-05T16:04:09.965Z</time>
      </trkpt>
      <trkpt lat="42.89523" lon="0.059">
        <ele>1172.2</ele>
        <time>2020-12-05T16:04:10.965Z</time>
      </trkpt>
      <trkpt lat="42.89523" lon="0.059">
        <ele>1172.2</ele>
        <time>2020-12-05T16:04:11.965Z</time>
      </trkpt>
      <trkpt lat="42.89523" lon="0.059">
        <ele>1172.2</ele>
        <time>2020-12-05T16:04:12.967Z</time>
      </trkpt>
      <trkpt lat="42.89523" lon="0.059">
        <ele>1172.2</ele>
        <time>2020-12-05T16:04:13.966Z</time>
      </trkpt>
      <trkpt lat="42.8951" lon="0.05896">
        <ele>1173.2</ele>
        <time>2020-12-05T16:04:14.967Z</time>
      </trkpt>
      <trkpt lat="42.8951" lon="0.05896">
        <ele>1173.2</ele>
        <time>2020-12-05T16:04:15.965Z</time>
      </trkpt>
      <trkpt lat="42.89507" lon="0.05897">
        <ele>1173.6</ele>
        <time>2020-12-05T16:04:16.966Z</time>
      </trkpt>
      <trkpt lat="42.89507" lon="0.05897">
        <ele>1173.6</ele>
        <time>2020-12-05T16:04:17.968Z</time>
      </trkpt>
      <trkpt lat="42.89507" lon="0.05897">
        <ele>1173.6</ele>
        <time>2020-12-05T16:04:18.967Z</time>
      </trkpt>
      <trkpt lat="42.89507" lon="0.05897">
        <ele>1173.6</ele>
        <time>2020-12-05T16:04:19.967Z</time>
      </trkpt>
      <trkpt lat="42.89507" lon="0.05897">
        <ele>1173.6</ele>
        <time>2020-12-05T16:04:20.966Z</time>
      </trkpt>
      <trkpt lat="42.89498" lon="0.05907">
        <ele>1174.2</ele>
        <time>2020-12-05T16:04:21.967Z</time>
      </trkpt>
      <trkpt lat="42.89498" lon="0.05907">
        <ele>1174.2</ele>
        <time>2020-12-05T16:04:22.966Z</time>
      </trkpt>
      <trkpt lat="42.89498" lon="0.05907">
        <ele>1174.2</ele>
        <time>2020-12-05T16:04:23.967Z</time>
      </trkpt>
      <trkpt lat="42.89498" lon="0.05907">
        <ele>1174.2</ele>
        <time>2020-12-05T16:04:24.965Z</time>
      </trkpt>
      <trkpt lat="42.89495" lon="0.05917">
        <ele>1174.6</ele>
        <time>2020-12-05T16:04:25.965Z</time>
      </trkpt>
      <trkpt lat="42.89495" lon="0.05917">
        <ele>1174.6</ele>
        <time>2020-12-05T16:04:26.967Z</time>
      </trkpt>
      <trkpt lat="42.89495" lon="0.05917">
        <ele>1174.6</ele>
        <time>2020-12-05T16:04:27.967Z</time>
      </trkpt>
      <trkpt lat="42.89494" lon="0.05926">
        <ele>1175.2</ele>
        <time>2020-12-05T16:04:28.966Z</time>
      </trkpt>
      <trkpt lat="42.89494" lon="0.05926">
        <ele>1175.2</ele>
        <time>2020-12-05T16:04:29.968Z</time>
      </trkpt>
      <trkpt lat="42.89494" lon="0.05926">
        <ele>1175.2</ele>
        <time>2020-12-05T16:04:30.966Z</time>
      </trkpt>
      <trkpt lat="42.89494" lon="0.05926">
        <ele>1175.2</ele>
        <time>2020-12-05T16:04:31.966Z</time>
      </trkpt>
      <trkpt lat="42.89494" lon="0.05926">
        <ele>1175.2</ele>
        <time>2020-12-05T16:04:32.966Z</time>
      </trkpt>
      <trkpt lat="42.89499" lon="0.0594">
        <ele>1175.8</ele>
        <time>2020-12-05T16:04:33.966Z</time>
      </trkpt>
      <trkpt lat="42.89499" lon="0.0594">
        <ele>1175.8</ele>
        <time>2020-12-05T16:04:34.967Z</time>
      </trkpt>
      <trkpt lat="42.89501" lon="0.05944">
        <ele>1176</ele>
        <time>2020-12-05T16:04:35.966Z</time>
      </trkpt>
      <trkpt lat="42.89501" lon="0.05944">
        <ele>1176</ele>
        <time>2020-12-05T16:04:36.966Z</time>
      </trkpt>
      <trkpt lat="42.89501" lon="0.05944">
        <ele>1176</ele>
        <time>2020-12-05T16:04:37.966Z</time>
      </trkpt>
      <trkpt lat="42.89501" lon="0.05944">
        <ele>1176</ele>
        <time>2020-12-05T16:04:38.967Z</time>
      </trkpt>
      <trkpt lat="42.89501" lon="0.05944">
        <ele>1176</ele>
        <time>2020-12-05T16:04:39.967Z</time>
      </trkpt>
      <trkpt lat="42.89501" lon="0.05944">
        <ele>1176</ele>
        <time>2020-12-05T16:04:40.966Z</time>
      </trkpt>
      <trkpt lat="42.89501" lon="0.05944">
        <ele>1176</ele>
        <time>2020-12-05T16:04:41.966Z</time>
      </trkpt>
      <trkpt lat="42.89515" lon="0.05954">
        <ele>1176.8</ele>
        <time>2020-12-05T16:04:42.966Z</time>
      </trkpt>
      <trkpt lat="42.89515" lon="0.05954">
        <ele>1176.8</ele>
        <time>2020-12-05T16:04:43.967Z</time>
      </trkpt>
      <trkpt lat="42.89515" lon="0.05954">
        <ele>1176.8</ele>
        <time>2020-12-05T16:04:44.966Z</time>
      </trkpt>
      <trkpt lat="42.89515" lon="0.05954">
        <ele>1176.8</ele>
        <time>2020-12-05T16:04:45.967Z</time>
      </trkpt>
      <trkpt lat="42.89515" lon="0.05954">
        <ele>1176.8</ele>
        <time>2020-12-05T16:04:46.966Z</time>
      </trkpt>
      <trkpt lat="42.89515" lon="0.05954">
        <ele>1176.8</ele>
        <time>2020-12-05T16:04:47.967Z</time>
      </trkpt>
      <trkpt lat="42.8953" lon="0.05953">
        <ele>1178.2</ele>
        <time>2020-12-05T16:04:48.966Z</time>
      </trkpt>
      <trkpt lat="42.8953" lon="0.05953">
        <ele>1178.2</ele>
        <time>2020-12-05T16:04:49.965Z</time>
      </trkpt>
      <trkpt lat="42.89534" lon="0.05952">
        <ele>1178.6</ele>
        <time>2020-12-05T16:04:50.966Z</time>
      </trkpt>
      <trkpt lat="42.89534" lon="0.05952">
        <ele>1178.6</ele>
        <time>2020-12-05T16:04:51.966Z</time>
      </trkpt>
      <trkpt lat="42.89534" lon="0.05952">
        <ele>1178.6</ele>
        <time>2020-12-05T16:04:52.965Z</time>
      </trkpt>
      <trkpt lat="42.89534" lon="0.05952">
        <ele>1178.6</ele>
        <time>2020-12-05T16:04:53.947Z</time>
      </trkpt>
      <trkpt lat="42.89541" lon="0.0595">
        <ele>1179.2</ele>
        <time>2020-12-05T16:04:54.947Z</time>
      </trkpt>
      <trkpt lat="42.89541" lon="0.0595">
        <ele>1179.2</ele>
        <time>2020-12-05T16:04:55.947Z</time>
      </trkpt>
      <trkpt lat="42.89541" lon="0.0595">
        <ele>1179.2</ele>
        <time>2020-12-05T16:04:56.948Z</time>
      </trkpt>
      <trkpt lat="42.89541" lon="0.0595">
        <ele>1179.2</ele>
        <time>2020-12-05T16:04:57.948Z</time>
      </trkpt>
      <trkpt lat="42.89541" lon="0.0595">
        <ele>1179.2</ele>
        <time>2020-12-05T16:04:58.948Z</time>
      </trkpt>
      <trkpt lat="42.89541" lon="0.0595">
        <ele>1179.2</ele>
        <time>2020-12-05T16:04:59.948Z</time>
      </trkpt>
      <trkpt lat="42.89541" lon="0.0595">
        <ele>1179.2</ele>
        <time>2020-12-05T16:05:00.95Z</time>
      </trkpt>
      <trkpt lat="42.89541" lon="0.0595">
        <ele>1179.2</ele>
        <time>2020-12-05T16:05:01.948Z</time>
      </trkpt>
      <trkpt lat="42.89541" lon="0.0595">
        <ele>1179.2</ele>
        <time>2020-12-05T16:05:02.947Z</time>
      </trkpt>
      <trkpt lat="42.89541" lon="0.0595">
        <ele>1179.2</ele>
        <time>2020-12-05T16:05:03.948Z</time>
      </trkpt>
      <trkpt lat="42.89541" lon="0.0595">
        <ele>1179.2</ele>
        <time>2020-12-05T16:05:04.949Z</time>
      </trkpt>
      <trkpt lat="42.89541" lon="0.0595">
        <ele>1179.2</ele>
        <time>2020-12-05T16:05:05.947Z</time>
      </trkpt>
      <trkpt lat="42.89541" lon="0.0595">
        <ele>1179.2</ele>
        <time>2020-12-05T16:05:06.949Z</time>
      </trkpt>
      <trkpt lat="42.89541" lon="0.0595">
        <ele>1179.2</ele>
        <time>2020-12-05T16:05:07.949Z</time>
      </trkpt>
      <trkpt lat="42.89556" lon="0.05947">
        <ele>1180.2</ele>
        <time>2020-12-05T16:05:08.95Z</time>
      </trkpt>
      <trkpt lat="42.89556" lon="0.05947">
        <ele>1180.2</ele>
        <time>2020-12-05T16:05:09.948Z</time>
      </trkpt>
      <trkpt lat="42.89556" lon="0.05947">
        <ele>1180.2</ele>
        <time>2020-12-05T16:05:10.947Z</time>
      </trkpt>
      <trkpt lat="42.89556" lon="0.05947">
        <ele>1180.2</ele>
        <time>2020-12-05T16:05:11.949Z</time>
      </trkpt>
      <trkpt lat="42.89556" lon="0.05947">
        <ele>1180.2</ele>
        <time>2020-12-05T16:05:12.95Z</time>
      </trkpt>
      <trkpt lat="42.89556" lon="0.05947">
        <ele>1180.2</ele>
        <time>2020-12-05T16:05:13.949Z</time>
      </trkpt>
      <trkpt lat="42.89556" lon="0.05947">
        <ele>1180.2</ele>
        <time>2020-12-05T16:05:14.948Z</time>
      </trkpt>
      <trkpt lat="42.89556" lon="0.05947">
        <ele>1180.2</ele>
        <time>2020-12-05T16:05:15.947Z</time>
      </trkpt>
      <trkpt lat="42.89556" lon="0.05947">
        <ele>1180.2</ele>
        <time>2020-12-05T16:05:16.95Z</time>
      </trkpt>
      <trkpt lat="42.89556" lon="0.05947">
        <ele>1180.2</ele>
        <time>2020-12-05T16:05:17.949Z</time>
      </trkpt>
      <trkpt lat="42.89577" lon="0.05955">
        <ele>1181.4</ele>
        <time>2020-12-05T16:05:18.949Z</time>
      </trkpt>
      <trkpt lat="42.89577" lon="0.05955">
        <ele>1181.4</ele>
        <time>2020-12-05T16:05:19.948Z</time>
      </trkpt>
      <trkpt lat="42.8958" lon="0.05958">
        <ele>1181.6</ele>
        <time>2020-12-05T16:05:20.947Z</time>
      </trkpt>
      <trkpt lat="42.8958" lon="0.05958">
        <ele>1181.6</ele>
        <time>2020-12-05T16:05:21.949Z</time>
      </trkpt>
      <trkpt lat="42.8958" lon="0.05958">
        <ele>1181.6</ele>
        <time>2020-12-05T16:05:22.947Z</time>
      </trkpt>
      <trkpt lat="42.8958" lon="0.05958">
        <ele>1181.6</ele>
        <time>2020-12-05T16:05:23.948Z</time>
      </trkpt>
      <trkpt lat="42.8958" lon="0.05958">
        <ele>1181.6</ele>
        <time>2020-12-05T16:05:24.949Z</time>
      </trkpt>
      <trkpt lat="42.8959" lon="0.05966">
        <ele>1182.4</ele>
        <time>2020-12-05T16:05:25.948Z</time>
      </trkpt>
      <trkpt lat="42.8959" lon="0.05966">
        <ele>1182.4</ele>
        <time>2020-12-05T16:05:26.949Z</time>
      </trkpt>
      <trkpt lat="42.89592" lon="0.0597">
        <ele>1182.6</ele>
        <time>2020-12-05T16:05:27.949Z</time>
      </trkpt>
      <trkpt lat="42.89592" lon="0.0597">
        <ele>1182.6</ele>
        <time>2020-12-05T16:05:28.949Z</time>
      </trkpt>
      <trkpt lat="42.89592" lon="0.0597">
        <ele>1182.6</ele>
        <time>2020-12-05T16:05:29.949Z</time>
      </trkpt>
      <trkpt lat="42.89592" lon="0.0597">
        <ele>1182.6</ele>
        <time>2020-12-05T16:05:30.949Z</time>
      </trkpt>
      <trkpt lat="42.89592" lon="0.0597">
        <ele>1182.6</ele>
        <time>2020-12-05T16:05:31.947Z</time>
      </trkpt>
      <trkpt lat="42.89598" lon="0.05982">
        <ele>1183.6</ele>
        <time>2020-12-05T16:05:32.947Z</time>
      </trkpt>
      <trkpt lat="42.89598" lon="0.05982">
        <ele>1183.6</ele>
        <time>2020-12-05T16:05:33.948Z</time>
      </trkpt>
      <trkpt lat="42.89598" lon="0.05982">
        <ele>1183.6</ele>
        <time>2020-12-05T16:05:34.948Z</time>
      </trkpt>
      <trkpt lat="42.896" lon="0.05991">
        <ele>1184.2</ele>
        <time>2020-12-05T16:05:35.948Z</time>
      </trkpt>
      <trkpt lat="42.896" lon="0.05991">
        <ele>1184.2</ele>
        <time>2020-12-05T16:05:36.947Z</time>
      </trkpt>
      <trkpt lat="42.896" lon="0.05991">
        <ele>1184.2</ele>
        <time>2020-12-05T16:05:37.948Z</time>
      </trkpt>
      <trkpt lat="42.89602" lon="0.06001">
        <ele>1184.8</ele>
        <time>2020-12-05T16:05:38.948Z</time>
      </trkpt>
      <trkpt lat="42.89602" lon="0.06001">
        <ele>1184.8</ele>
        <time>2020-12-05T16:05:39.948Z</time>
      </trkpt>
      <trkpt lat="42.89602" lon="0.06001">
        <ele>1184.8</ele>
        <time>2020-12-05T16:05:40.947Z</time>
      </trkpt>
      <trkpt lat="42.89602" lon="0.06001">
        <ele>1184.8</ele>
        <time>2020-12-05T16:05:41.949Z</time>
      </trkpt>
      <trkpt lat="42.89602" lon="0.06001">
        <ele>1184.8</ele>
        <time>2020-12-05T16:05:42.947Z</time>
      </trkpt>
      <trkpt lat="42.89602" lon="0.06001">
        <ele>1184.8</ele>
        <time>2020-12-05T16:05:43.949Z</time>
      </trkpt>
      <trkpt lat="42.89602" lon="0.0602">
        <ele>1185.8</ele>
        <time>2020-12-05T16:05:44.947Z</time>
      </trkpt>
      <trkpt lat="42.89602" lon="0.0602">
        <ele>1185.8</ele>
        <time>2020-12-05T16:05:45.949Z</time>
      </trkpt>
      <trkpt lat="42.89602" lon="0.0602">
        <ele>1185.8</ele>
        <time>2020-12-05T16:05:46.948Z</time>
      </trkpt>
      <trkpt lat="42.89602" lon="0.0602">
        <ele>1185.8</ele>
        <time>2020-12-05T16:05:47.95Z</time>
      </trkpt>
      <trkpt lat="42.89602" lon="0.0602">
        <ele>1185.8</ele>
        <time>2020-12-05T16:05:48.947Z</time>
      </trkpt>
      <trkpt lat="42.89602" lon="0.0602">
        <ele>1185.8</ele>
        <time>2020-12-05T16:05:49.947Z</time>
      </trkpt>
      <trkpt lat="42.89602" lon="0.0602">
        <ele>1185.8</ele>
        <time>2020-12-05T16:05:50.95Z</time>
      </trkpt>
      <trkpt lat="42.89602" lon="0.0604">
        <ele>1186.8</ele>
        <time>2020-12-05T16:05:51.949Z</time>
      </trkpt>
      <trkpt lat="42.89602" lon="0.0604">
        <ele>1186.8</ele>
        <time>2020-12-05T16:05:52.948Z</time>
      </trkpt>
      <trkpt lat="42.89602" lon="0.0604">
        <ele>1186.8</ele>
        <time>2020-12-05T16:05:53.947Z</time>
      </trkpt>
      <trkpt lat="42.89602" lon="0.0604">
        <ele>1186.8</ele>
        <time>2020-12-05T16:05:54.949Z</time>
      </trkpt>
      <trkpt lat="42.89603" lon="0.06051">
        <ele>1187.4</ele>
        <time>2020-12-05T16:05:55.948Z</time>
      </trkpt>
      <trkpt lat="42.89603" lon="0.06051">
        <ele>1187.4</ele>
        <time>2020-12-05T16:05:56.949Z</time>
      </trkpt>
      <trkpt lat="42.89603" lon="0.06051">
        <ele>1187.4</ele>
        <time>2020-12-05T16:05:57.949Z</time>
      </trkpt>
      <trkpt lat="42.89604" lon="0.06061">
        <ele>1188</ele>
        <time>2020-12-05T16:05:58.948Z</time>
      </trkpt>
      <trkpt lat="42.89604" lon="0.06061">
        <ele>1188</ele>
        <time>2020-12-05T16:05:59.947Z</time>
      </trkpt>
      <trkpt lat="42.89604" lon="0.06061">
        <ele>1188</ele>
        <time>2020-12-05T16:06:00.949Z</time>
      </trkpt>
      <trkpt lat="42.89604" lon="0.06061">
        <ele>1188</ele>
        <time>2020-12-05T16:06:01.949Z</time>
      </trkpt>
      <trkpt lat="42.89604" lon="0.06061">
        <ele>1188</ele>
        <time>2020-12-05T16:06:02.947Z</time>
      </trkpt>
      <trkpt lat="42.89604" lon="0.06061">
        <ele>1188</ele>
        <time>2020-12-05T16:06:03.947Z</time>
      </trkpt>
      <trkpt lat="42.89604" lon="0.06061">
        <ele>1188</ele>
        <time>2020-12-05T16:06:04.95Z</time>
      </trkpt>
      <trkpt lat="42.89604" lon="0.06061">
        <ele>1188</ele>
        <time>2020-12-05T16:06:05.949Z</time>
      </trkpt>
      <trkpt lat="42.89607" lon="0.06086">
        <ele>1189.2</ele>
        <time>2020-12-05T16:06:06.947Z</time>
      </trkpt>
      <trkpt lat="42.89607" lon="0.06086">
        <ele>1189.2</ele>
        <time>2020-12-05T16:06:07.949Z</time>
      </trkpt>
      <trkpt lat="42.89607" lon="0.06086">
        <ele>1189.2</ele>
        <time>2020-12-05T16:06:08.948Z</time>
      </trkpt>
      <trkpt lat="42.89607" lon="0.06086">
        <ele>1189.2</ele>
        <time>2020-12-05T16:06:09.948Z</time>
      </trkpt>
      <trkpt lat="42.89607" lon="0.06086">
        <ele>1189.2</ele>
        <time>2020-12-05T16:06:10.948Z</time>
      </trkpt>
      <trkpt lat="42.89607" lon="0.06086">
        <ele>1189.2</ele>
        <time>2020-12-05T16:06:11.949Z</time>
      </trkpt>
      <trkpt lat="42.89609" lon="0.06104">
        <ele>1190.4</ele>
        <time>2020-12-05T16:06:12.95Z</time>
      </trkpt>
      <trkpt lat="42.89609" lon="0.06104">
        <ele>1190.4</ele>
        <time>2020-12-05T16:06:13.95Z</time>
      </trkpt>
      <trkpt lat="42.89609" lon="0.06104">
        <ele>1190.4</ele>
        <time>2020-12-05T16:06:14.948Z</time>
      </trkpt>
      <trkpt lat="42.89609" lon="0.06104">
        <ele>1190.4</ele>
        <time>2020-12-05T16:06:15.947Z</time>
      </trkpt>
      <trkpt lat="42.89609" lon="0.06104">
        <ele>1190.4</ele>
        <time>2020-12-05T16:06:16.948Z</time>
      </trkpt>
      <trkpt lat="42.89609" lon="0.06119">
        <ele>1191.8</ele>
        <time>2020-12-05T16:06:17.949Z</time>
      </trkpt>
      <trkpt lat="42.89609" lon="0.06119">
        <ele>1191.8</ele>
        <time>2020-12-05T16:06:18.948Z</time>
      </trkpt>
      <trkpt lat="42.89609" lon="0.06119">
        <ele>1191.8</ele>
        <time>2020-12-05T16:06:19.949Z</time>
      </trkpt>
      <trkpt lat="42.89609" lon="0.06119">
        <ele>1191.8</ele>
        <time>2020-12-05T16:06:20.947Z</time>
      </trkpt>
      <trkpt lat="42.89609" lon="0.06119">
        <ele>1191.8</ele>
        <time>2020-12-05T16:06:21.948Z</time>
      </trkpt>
      <trkpt lat="42.89609" lon="0.06119">
        <ele>1191.8</ele>
        <time>2020-12-05T16:06:22.947Z</time>
      </trkpt>
      <trkpt lat="42.89609" lon="0.06119">
        <ele>1191.8</ele>
        <time>2020-12-05T16:06:23.948Z</time>
      </trkpt>
      <trkpt lat="42.89607" lon="0.06141">
        <ele>1193</ele>
        <time>2020-12-05T16:06:24.949Z</time>
      </trkpt>
      <trkpt lat="42.89607" lon="0.06141">
        <ele>1193</ele>
        <time>2020-12-05T16:06:25.95Z</time>
      </trkpt>
      <trkpt lat="42.89607" lon="0.06147">
        <ele>1193.2</ele>
        <time>2020-12-05T16:06:26.947Z</time>
      </trkpt>
      <trkpt lat="42.89607" lon="0.06147">
        <ele>1193.2</ele>
        <time>2020-12-05T16:06:27.947Z</time>
      </trkpt>
      <trkpt lat="42.89605" lon="0.06154">
        <ele>1193.4</ele>
        <time>2020-12-05T16:06:28.949Z</time>
      </trkpt>
      <trkpt lat="42.89605" lon="0.06154">
        <ele>1193.4</ele>
        <time>2020-12-05T16:06:29.948Z</time>
      </trkpt>
      <trkpt lat="42.89605" lon="0.06154">
        <ele>1193.4</ele>
        <time>2020-12-05T16:06:30.949Z</time>
      </trkpt>
      <trkpt lat="42.89605" lon="0.06154">
        <ele>1193.4</ele>
        <time>2020-12-05T16:06:31.948Z</time>
      </trkpt>
      <trkpt lat="42.89605" lon="0.06154">
        <ele>1193.4</ele>
        <time>2020-12-05T16:06:32.948Z</time>
      </trkpt>
      <trkpt lat="42.89601" lon="0.06172">
        <ele>1194.2</ele>
        <time>2020-12-05T16:06:33.95Z</time>
      </trkpt>
      <trkpt lat="42.89601" lon="0.06172">
        <ele>1194.2</ele>
        <time>2020-12-05T16:06:34.949Z</time>
      </trkpt>
      <trkpt lat="42.89601" lon="0.06172">
        <ele>1194.2</ele>
        <time>2020-12-05T16:06:35.948Z</time>
      </trkpt>
      <trkpt lat="42.89598" lon="0.06185">
        <ele>1194.4</ele>
        <time>2020-12-05T16:06:36.948Z</time>
      </trkpt>
      <trkpt lat="42.89597" lon="0.06192">
        <ele>1194.6</ele>
        <time>2020-12-05T16:06:37.949Z</time>
      </trkpt>
      <trkpt lat="42.89597" lon="0.06192">
        <ele>1194.6</ele>
        <time>2020-12-05T16:06:38.947Z</time>
      </trkpt>
      <trkpt lat="42.89597" lon="0.06192">
        <ele>1194.6</ele>
        <time>2020-12-05T16:06:39.949Z</time>
      </trkpt>
      <trkpt lat="42.89597" lon="0.06192">
        <ele>1194.6</ele>
        <time>2020-12-05T16:06:40.948Z</time>
      </trkpt>
      <trkpt lat="42.89596" lon="0.06211">
        <ele>1194.8</ele>
        <time>2020-12-05T16:06:41.948Z</time>
      </trkpt>
      <trkpt lat="42.89596" lon="0.06217">
        <ele>1195</ele>
        <time>2020-12-05T16:06:42.949Z</time>
      </trkpt>
      <trkpt lat="42.89596" lon="0.06217">
        <ele>1195</ele>
        <time>2020-12-05T16:06:43.948Z</time>
      </trkpt>
      <trkpt lat="42.89597" lon="0.06223">
        <ele>1195.4</ele>
        <time>2020-12-05T16:06:44.949Z</time>
      </trkpt>
      <trkpt lat="42.89598" lon="0.06228">
        <ele>1195.6</ele>
        <time>2020-12-05T16:06:45.95Z</time>
      </trkpt>
      <trkpt lat="42.89598" lon="0.06228">
        <ele>1195.6</ele>
        <time>2020-12-05T16:06:46.949Z</time>
      </trkpt>
      <trkpt lat="42.89598" lon="0.06228">
        <ele>1195.6</ele>
        <time>2020-12-05T16:06:47.948Z</time>
      </trkpt>
      <trkpt lat="42.89598" lon="0.06228">
        <ele>1195.6</ele>
        <time>2020-12-05T16:06:48.948Z</time>
      </trkpt>
      <trkpt lat="42.896" lon="0.06245">
        <ele>1196</ele>
        <time>2020-12-05T16:06:49.948Z</time>
      </trkpt>
      <trkpt lat="42.896" lon="0.06251">
        <ele>1196.2</ele>
        <time>2020-12-05T16:06:50.949Z</time>
      </trkpt>
      <trkpt lat="42.896" lon="0.06251">
        <ele>1196.2</ele>
        <time>2020-12-05T16:06:51.95Z</time>
      </trkpt>
      <trkpt lat="42.896" lon="0.06251">
        <ele>1196.2</ele>
        <time>2020-12-05T16:06:52.948Z</time>
      </trkpt>
      <trkpt lat="42.896" lon="0.06251">
        <ele>1196.2</ele>
        <time>2020-12-05T16:06:53.947Z</time>
      </trkpt>
      <trkpt lat="42.89602" lon="0.06262">
        <ele>1196.8</ele>
        <time>2020-12-05T16:06:54.948Z</time>
      </trkpt>
      <trkpt lat="42.89602" lon="0.06262">
        <ele>1196.8</ele>
        <time>2020-12-05T16:06:55.949Z</time>
      </trkpt>
      <trkpt lat="42.89604" lon="0.06267">
        <ele>1197.2</ele>
        <time>2020-12-05T16:06:56.948Z</time>
      </trkpt>
      <trkpt lat="42.89604" lon="0.06267">
        <ele>1197.2</ele>
        <time>2020-12-05T16:06:57.948Z</time>
      </trkpt>
      <trkpt lat="42.89604" lon="0.06267">
        <ele>1197.2</ele>
        <time>2020-12-05T16:06:58.948Z</time>
      </trkpt>
      <trkpt lat="42.89604" lon="0.06267">
        <ele>1197.2</ele>
        <time>2020-12-05T16:06:59.949Z</time>
      </trkpt>
      <trkpt lat="42.89604" lon="0.06267">
        <ele>1197.2</ele>
        <time>2020-12-05T16:07:00.949Z</time>
      </trkpt>
      <trkpt lat="42.89604" lon="0.06267">
        <ele>1197.2</ele>
        <time>2020-12-05T16:07:01.949Z</time>
      </trkpt>
      <trkpt lat="42.89604" lon="0.06267">
        <ele>1197.2</ele>
        <time>2020-12-05T16:07:02.949Z</time>
      </trkpt>
      <trkpt lat="42.8961" lon="0.06285">
        <ele>1198.6</ele>
        <time>2020-12-05T16:07:03.95Z</time>
      </trkpt>
      <trkpt lat="42.8961" lon="0.06285">
        <ele>1198.6</ele>
        <time>2020-12-05T16:07:04.947Z</time>
      </trkpt>
      <trkpt lat="42.8961" lon="0.06285">
        <ele>1198.6</ele>
        <time>2020-12-05T16:07:05.948Z</time>
      </trkpt>
      <trkpt lat="42.89611" lon="0.0629">
        <ele>1198.8</ele>
        <time>2020-12-05T16:07:06.949Z</time>
      </trkpt>
      <trkpt lat="42.89611" lon="0.0629">
        <ele>1198.8</ele>
        <time>2020-12-05T16:07:07.948Z</time>
      </trkpt>
      <trkpt lat="42.89611" lon="0.0629">
        <ele>1198.8</ele>
        <time>2020-12-05T16:07:08.948Z</time>
      </trkpt>
      <trkpt lat="42.89611" lon="0.0629">
        <ele>1198.8</ele>
        <time>2020-12-05T16:07:09.948Z</time>
      </trkpt>
      <trkpt lat="42.89616" lon="0.06303">
        <ele>1199.8</ele>
        <time>2020-12-05T16:07:10.948Z</time>
      </trkpt>
      <trkpt lat="42.89616" lon="0.06303">
        <ele>1199.8</ele>
        <time>2020-12-05T16:07:11.947Z</time>
      </trkpt>
      <trkpt lat="42.89616" lon="0.06303">
        <ele>1199.8</ele>
        <time>2020-12-05T16:07:12.95Z</time>
      </trkpt>
      <trkpt lat="42.89616" lon="0.06303">
        <ele>1199.8</ele>
        <time>2020-12-05T16:07:13.948Z</time>
      </trkpt>
      <trkpt lat="42.89616" lon="0.06303">
        <ele>1199.8</ele>
        <time>2020-12-05T16:07:14.948Z</time>
      </trkpt>
      <trkpt lat="42.89616" lon="0.06317">
        <ele>1200.8</ele>
        <time>2020-12-05T16:07:15.949Z</time>
      </trkpt>
      <trkpt lat="42.89617" lon="0.06321">
        <ele>1201.4</ele>
        <time>2020-12-05T16:07:16.948Z</time>
      </trkpt>
      <trkpt lat="42.89617" lon="0.06321">
        <ele>1201.4</ele>
        <time>2020-12-05T16:07:17.947Z</time>
      </trkpt>
      <trkpt lat="42.89617" lon="0.06321">
        <ele>1201.4</ele>
        <time>2020-12-05T16:07:18.949Z</time>
      </trkpt>
      <trkpt lat="42.89617" lon="0.06321">
        <ele>1201.4</ele>
        <time>2020-12-05T16:07:19.947Z</time>
      </trkpt>
      <trkpt lat="42.89617" lon="0.06321">
        <ele>1201.4</ele>
        <time>2020-12-05T16:07:20.95Z</time>
      </trkpt>
      <trkpt lat="42.89617" lon="0.06335">
        <ele>1202.4</ele>
        <time>2020-12-05T16:07:21.95Z</time>
      </trkpt>
      <trkpt lat="42.89617" lon="0.06335">
        <ele>1202.4</ele>
        <time>2020-12-05T16:07:22.949Z</time>
      </trkpt>
      <trkpt lat="42.89618" lon="0.06344">
        <ele>1203.4</ele>
        <time>2020-12-05T16:07:23.949Z</time>
      </trkpt>
      <trkpt lat="42.89618" lon="0.06344">
        <ele>1203.4</ele>
        <time>2020-12-05T16:07:24.949Z</time>
      </trkpt>
      <trkpt lat="42.8962" lon="0.06348">
        <ele>1203.6</ele>
        <time>2020-12-05T16:07:25.95Z</time>
      </trkpt>
      <trkpt lat="42.8962" lon="0.06348">
        <ele>1203.6</ele>
        <time>2020-12-05T16:07:26.948Z</time>
      </trkpt>
      <trkpt lat="42.8962" lon="0.06348">
        <ele>1203.6</ele>
        <time>2020-12-05T16:07:27.947Z</time>
      </trkpt>
      <trkpt lat="42.8962" lon="0.06348">
        <ele>1203.6</ele>
        <time>2020-12-05T16:07:28.948Z</time>
      </trkpt>
      <trkpt lat="42.8962" lon="0.06348">
        <ele>1203.6</ele>
        <time>2020-12-05T16:07:29.949Z</time>
      </trkpt>
      <trkpt lat="42.89625" lon="0.06362">
        <ele>1204.8</ele>
        <time>2020-12-05T16:07:30.947Z</time>
      </trkpt>
      <trkpt lat="42.89625" lon="0.06362">
        <ele>1204.8</ele>
        <time>2020-12-05T16:07:31.948Z</time>
      </trkpt>
      <trkpt lat="42.89625" lon="0.06362">
        <ele>1204.8</ele>
        <time>2020-12-05T16:07:32.949Z</time>
      </trkpt>
      <trkpt lat="42.89628" lon="0.06371">
        <ele>1205.4</ele>
        <time>2020-12-05T16:07:33.948Z</time>
      </trkpt>
      <trkpt lat="42.89628" lon="0.06371">
        <ele>1205.4</ele>
        <time>2020-12-05T16:07:34.949Z</time>
      </trkpt>
      <trkpt lat="42.89628" lon="0.06371">
        <ele>1205.4</ele>
        <time>2020-12-05T16:07:35.949Z</time>
      </trkpt>
      <trkpt lat="42.89632" lon="0.06381">
        <ele>1205.8</ele>
        <time>2020-12-05T16:07:36.948Z</time>
      </trkpt>
      <trkpt lat="42.89632" lon="0.06381">
        <ele>1205.8</ele>
        <time>2020-12-05T16:07:37.95Z</time>
      </trkpt>
      <trkpt lat="42.89632" lon="0.06381">
        <ele>1205.8</ele>
        <time>2020-12-05T16:07:38.948Z</time>
      </trkpt>
      <trkpt lat="42.89632" lon="0.06381">
        <ele>1205.8</ele>
        <time>2020-12-05T16:07:39.948Z</time>
      </trkpt>
      <trkpt lat="42.89632" lon="0.06381">
        <ele>1205.8</ele>
        <time>2020-12-05T16:07:40.949Z</time>
      </trkpt>
      <trkpt lat="42.89632" lon="0.06381">
        <ele>1205.8</ele>
        <time>2020-12-05T16:07:41.95Z</time>
      </trkpt>
      <trkpt lat="42.89632" lon="0.06381">
        <ele>1205.8</ele>
        <time>2020-12-05T16:07:42.949Z</time>
      </trkpt>
      <trkpt lat="42.89641" lon="0.06401">
        <ele>1206.8</ele>
        <time>2020-12-05T16:07:43.948Z</time>
      </trkpt>
      <trkpt lat="42.89641" lon="0.06401">
        <ele>1206.8</ele>
        <time>2020-12-05T16:07:44.948Z</time>
      </trkpt>
      <trkpt lat="42.89641" lon="0.06401">
        <ele>1206.8</ele>
        <time>2020-12-05T16:07:45.947Z</time>
      </trkpt>
      <trkpt lat="42.89641" lon="0.06401">
        <ele>1206.8</ele>
        <time>2020-12-05T16:07:46.949Z</time>
      </trkpt>
      <trkpt lat="42.89641" lon="0.06401">
        <ele>1206.8</ele>
        <time>2020-12-05T16:07:47.948Z</time>
      </trkpt>
      <trkpt lat="42.89646" lon="0.06419">
        <ele>1208</ele>
        <time>2020-12-05T16:07:48.947Z</time>
      </trkpt>
      <trkpt lat="42.89646" lon="0.06419">
        <ele>1208</ele>
        <time>2020-12-05T16:07:49.948Z</time>
      </trkpt>
      <trkpt lat="42.89646" lon="0.06419">
        <ele>1208</ele>
        <time>2020-12-05T16:07:50.948Z</time>
      </trkpt>
      <trkpt lat="42.89649" lon="0.06427">
        <ele>1208.6</ele>
        <time>2020-12-05T16:07:51.948Z</time>
      </trkpt>
      <trkpt lat="42.89649" lon="0.06427">
        <ele>1208.6</ele>
        <time>2020-12-05T16:07:52.949Z</time>
      </trkpt>
      <trkpt lat="42.89649" lon="0.06427">
        <ele>1208.6</ele>
        <time>2020-12-05T16:07:53.949Z</time>
      </trkpt>
      <trkpt lat="42.89649" lon="0.06427">
        <ele>1208.6</ele>
        <time>2020-12-05T16:07:54.95Z</time>
      </trkpt>
      <trkpt lat="42.89649" lon="0.06427">
        <ele>1208.6</ele>
        <time>2020-12-05T16:07:55.949Z</time>
      </trkpt>
      <trkpt lat="42.89649" lon="0.06427">
        <ele>1208.6</ele>
        <time>2020-12-05T16:07:56.948Z</time>
      </trkpt>
      <trkpt lat="42.89655" lon="0.06446">
        <ele>1209.2</ele>
        <time>2020-12-05T16:07:57.947Z</time>
      </trkpt>
      <trkpt lat="42.89655" lon="0.06446">
        <ele>1209.2</ele>
        <time>2020-12-05T16:07:58.948Z</time>
      </trkpt>
      <trkpt lat="42.89655" lon="0.06446">
        <ele>1209.2</ele>
        <time>2020-12-05T16:07:59.948Z</time>
      </trkpt>
      <trkpt lat="42.89655" lon="0.06446">
        <ele>1209.2</ele>
        <time>2020-12-05T16:08:00.949Z</time>
      </trkpt>
      <trkpt lat="42.89659" lon="0.06454">
        <ele>1209.6</ele>
        <time>2020-12-05T16:08:01.948Z</time>
      </trkpt>
      <trkpt lat="42.89659" lon="0.06454">
        <ele>1209.6</ele>
        <time>2020-12-05T16:08:02.947Z</time>
      </trkpt>
      <trkpt lat="42.89659" lon="0.06454">
        <ele>1209.6</ele>
        <time>2020-12-05T16:08:03.95Z</time>
      </trkpt>
      <trkpt lat="42.89659" lon="0.06454">
        <ele>1209.6</ele>
        <time>2020-12-05T16:08:04.947Z</time>
      </trkpt>
      <trkpt lat="42.89659" lon="0.06454">
        <ele>1209.6</ele>
        <time>2020-12-05T16:08:05.948Z</time>
      </trkpt>
      <trkpt lat="42.89665" lon="0.06467">
        <ele>1210.2</ele>
        <time>2020-12-05T16:08:06.949Z</time>
      </trkpt>
      <trkpt lat="42.89665" lon="0.06467">
        <ele>1210.2</ele>
        <time>2020-12-05T16:08:07.949Z</time>
      </trkpt>
      <trkpt lat="42.89665" lon="0.06467">
        <ele>1210.2</ele>
        <time>2020-12-05T16:08:08.949Z</time>
      </trkpt>
      <trkpt lat="42.89665" lon="0.06467">
        <ele>1210.2</ele>
        <time>2020-12-05T16:08:09.949Z</time>
      </trkpt>
      <trkpt lat="42.89665" lon="0.06467">
        <ele>1210.2</ele>
        <time>2020-12-05T16:08:10.947Z</time>
      </trkpt>
      <trkpt lat="42.89672" lon="0.06484">
        <ele>1211.2</ele>
        <time>2020-12-05T16:08:11.949Z</time>
      </trkpt>
      <trkpt lat="42.89672" lon="0.06484">
        <ele>1211.2</ele>
        <time>2020-12-05T16:08:12.95Z</time>
      </trkpt>
      <trkpt lat="42.89672" lon="0.06484">
        <ele>1211.2</ele>
        <time>2020-12-05T16:08:13.948Z</time>
      </trkpt>
      <trkpt lat="42.89672" lon="0.06484">
        <ele>1211.2</ele>
        <time>2020-12-05T16:08:14.949Z</time>
      </trkpt>
      <trkpt lat="42.89672" lon="0.06484">
        <ele>1211.2</ele>
        <time>2020-12-05T16:08:15.947Z</time>
      </trkpt>
      <trkpt lat="42.89678" lon="0.06497">
        <ele>1212.4</ele>
        <time>2020-12-05T16:08:16.948Z</time>
      </trkpt>
      <trkpt lat="42.89678" lon="0.06497">
        <ele>1212.4</ele>
        <time>2020-12-05T16:08:17.947Z</time>
      </trkpt>
      <trkpt lat="42.89678" lon="0.06497">
        <ele>1212.4</ele>
        <time>2020-12-05T16:08:18.947Z</time>
      </trkpt>
      <trkpt lat="42.89678" lon="0.06497">
        <ele>1212.4</ele>
        <time>2020-12-05T16:08:19.949Z</time>
      </trkpt>
      <trkpt lat="42.89684" lon="0.06509">
        <ele>1213.4</ele>
        <time>2020-12-05T16:08:20.95Z</time>
      </trkpt>
      <trkpt lat="42.89684" lon="0.06509">
        <ele>1213.4</ele>
        <time>2020-12-05T16:08:21.95Z</time>
      </trkpt>
      <trkpt lat="42.89686" lon="0.06512">
        <ele>1213.6</ele>
        <time>2020-12-05T16:08:22.948Z</time>
      </trkpt>
      <trkpt lat="42.89686" lon="0.06512">
        <ele>1213.6</ele>
        <time>2020-12-05T16:08:23.948Z</time>
      </trkpt>
      <trkpt lat="42.89686" lon="0.06512">
        <ele>1213.6</ele>
        <time>2020-12-05T16:08:24.947Z</time>
      </trkpt>
      <trkpt lat="42.89686" lon="0.06512">
        <ele>1213.6</ele>
        <time>2020-12-05T16:08:25.949Z</time>
      </trkpt>
      <trkpt lat="42.89691" lon="0.06526">
        <ele>1214.6</ele>
        <time>2020-12-05T16:08:26.948Z</time>
      </trkpt>
      <trkpt lat="42.89691" lon="0.06526">
        <ele>1214.6</ele>
        <time>2020-12-05T16:08:27.95Z</time>
      </trkpt>
      <trkpt lat="42.89691" lon="0.06526">
        <ele>1214.6</ele>
        <time>2020-12-05T16:08:28.95Z</time>
      </trkpt>
      <trkpt lat="42.89691" lon="0.06526">
        <ele>1214.6</ele>
        <time>2020-12-05T16:08:29.948Z</time>
      </trkpt>
      <trkpt lat="42.89691" lon="0.06526">
        <ele>1214.6</ele>
        <time>2020-12-05T16:08:30.947Z</time>
      </trkpt>
      <trkpt lat="42.89691" lon="0.06526">
        <ele>1214.6</ele>
        <time>2020-12-05T16:08:31.948Z</time>
      </trkpt>
      <trkpt lat="42.89695" lon="0.06543">
        <ele>1215.6</ele>
        <time>2020-12-05T16:08:32.949Z</time>
      </trkpt>
      <trkpt lat="42.89695" lon="0.06543">
        <ele>1215.6</ele>
        <time>2020-12-05T16:08:33.95Z</time>
      </trkpt>
      <trkpt lat="42.89697" lon="0.06548">
        <ele>1215.8</ele>
        <time>2020-12-05T16:08:34.948Z</time>
      </trkpt>
      <trkpt lat="42.89697" lon="0.06548">
        <ele>1215.8</ele>
        <time>2020-12-05T16:08:35.947Z</time>
      </trkpt>
      <trkpt lat="42.89697" lon="0.06548">
        <ele>1215.8</ele>
        <time>2020-12-05T16:08:36.949Z</time>
      </trkpt>
      <trkpt lat="42.89697" lon="0.06548">
        <ele>1215.8</ele>
        <time>2020-12-05T16:08:37.949Z</time>
      </trkpt>
      <trkpt lat="42.89697" lon="0.06548">
        <ele>1215.8</ele>
        <time>2020-12-05T16:08:38.949Z</time>
      </trkpt>
      <trkpt lat="42.89704" lon="0.06563">
        <ele>1216.8</ele>
        <time>2020-12-05T16:08:39.947Z</time>
      </trkpt>
      <trkpt lat="42.89704" lon="0.06563">
        <ele>1216.8</ele>
        <time>2020-12-05T16:08:40.949Z</time>
      </trkpt>
      <trkpt lat="42.89704" lon="0.06563">
        <ele>1216.8</ele>
        <time>2020-12-05T16:08:41.947Z</time>
      </trkpt>
      <trkpt lat="42.89704" lon="0.06563">
        <ele>1216.8</ele>
        <time>2020-12-05T16:08:42.948Z</time>
      </trkpt>
      <trkpt lat="42.89704" lon="0.06563">
        <ele>1216.8</ele>
        <time>2020-12-05T16:08:43.949Z</time>
      </trkpt>
      <trkpt lat="42.89704" lon="0.06563">
        <ele>1216.8</ele>
        <time>2020-12-05T16:08:44.949Z</time>
      </trkpt>
      <trkpt lat="42.89704" lon="0.06563">
        <ele>1216.8</ele>
        <time>2020-12-05T16:08:45.949Z</time>
      </trkpt>
      <trkpt lat="42.89704" lon="0.06563">
        <ele>1216.8</ele>
        <time>2020-12-05T16:08:46.95Z</time>
      </trkpt>
      <trkpt lat="42.89711" lon="0.06584">
        <ele>1218</ele>
        <time>2020-12-05T16:08:47.948Z</time>
      </trkpt>
      <trkpt lat="42.89711" lon="0.06584">
        <ele>1218</ele>
        <time>2020-12-05T16:08:48.949Z</time>
      </trkpt>
      <trkpt lat="42.89711" lon="0.06584">
        <ele>1218</ele>
        <time>2020-12-05T16:08:49.948Z</time>
      </trkpt>
      <trkpt lat="42.89711" lon="0.06584">
        <ele>1218</ele>
        <time>2020-12-05T16:08:50.95Z</time>
      </trkpt>
      <trkpt lat="42.89711" lon="0.06584">
        <ele>1218</ele>
        <time>2020-12-05T16:08:51.948Z</time>
      </trkpt>
      <trkpt lat="42.89711" lon="0.06584">
        <ele>1218</ele>
        <time>2020-12-05T16:08:52.948Z</time>
      </trkpt>
      <trkpt lat="42.89717" lon="0.06603">
        <ele>1219.2</ele>
        <time>2020-12-05T16:08:53.949Z</time>
      </trkpt>
      <trkpt lat="42.89717" lon="0.06603">
        <ele>1219.2</ele>
        <time>2020-12-05T16:08:54.948Z</time>
      </trkpt>
      <trkpt lat="42.89717" lon="0.06603">
        <ele>1219.2</ele>
        <time>2020-12-05T16:08:55.949Z</time>
      </trkpt>
      <trkpt lat="42.89717" lon="0.06603">
        <ele>1219.2</ele>
        <time>2020-12-05T16:08:56.949Z</time>
      </trkpt>
      <trkpt lat="42.89721" lon="0.06617">
        <ele>1220.2</ele>
        <time>2020-12-05T16:08:57.949Z</time>
      </trkpt>
      <trkpt lat="42.89721" lon="0.06617">
        <ele>1220.2</ele>
        <time>2020-12-05T16:08:58.949Z</time>
      </trkpt>
      <trkpt lat="42.89722" lon="0.06621">
        <ele>1220.6</ele>
        <time>2020-12-05T16:08:59.948Z</time>
      </trkpt>
      <trkpt lat="42.89722" lon="0.06621">
        <ele>1220.6</ele>
        <time>2020-12-05T16:09:00.949Z</time>
      </trkpt>
      <trkpt lat="42.89722" lon="0.06621">
        <ele>1220.6</ele>
        <time>2020-12-05T16:09:01.949Z</time>
      </trkpt>
      <trkpt lat="42.89722" lon="0.06621">
        <ele>1220.6</ele>
        <time>2020-12-05T16:09:02.948Z</time>
      </trkpt>
      <trkpt lat="42.89727" lon="0.06633">
        <ele>1221.4</ele>
        <time>2020-12-05T16:09:03.948Z</time>
      </trkpt>
      <trkpt lat="42.89727" lon="0.06633">
        <ele>1221.4</ele>
        <time>2020-12-05T16:09:04.949Z</time>
      </trkpt>
      <trkpt lat="42.89727" lon="0.06633">
        <ele>1221.4</ele>
        <time>2020-12-05T16:09:05.949Z</time>
      </trkpt>
      <trkpt lat="42.89727" lon="0.06633">
        <ele>1221.4</ele>
        <time>2020-12-05T16:09:06.949Z</time>
      </trkpt>
      <trkpt lat="42.89727" lon="0.06633">
        <ele>1221.4</ele>
        <time>2020-12-05T16:09:07.95Z</time>
      </trkpt>
      <trkpt lat="42.89733" lon="0.06648">
        <ele>1222.4</ele>
        <time>2020-12-05T16:09:08.947Z</time>
      </trkpt>
      <trkpt lat="42.89733" lon="0.06648">
        <ele>1222.4</ele>
        <time>2020-12-05T16:09:09.948Z</time>
      </trkpt>
      <trkpt lat="42.89733" lon="0.06648">
        <ele>1222.4</ele>
        <time>2020-12-05T16:09:10.949Z</time>
      </trkpt>
      <trkpt lat="42.89733" lon="0.06648">
        <ele>1222.4</ele>
        <time>2020-12-05T16:09:11.948Z</time>
      </trkpt>
      <trkpt lat="42.89733" lon="0.06648">
        <ele>1222.4</ele>
        <time>2020-12-05T16:09:12.949Z</time>
      </trkpt>
      <trkpt lat="42.89733" lon="0.06648">
        <ele>1222.4</ele>
        <time>2020-12-05T16:09:13.949Z</time>
      </trkpt>
      <trkpt lat="42.89733" lon="0.06648">
        <ele>1222.4</ele>
        <time>2020-12-05T16:09:14.947Z</time>
      </trkpt>
      <trkpt lat="42.89738" lon="0.06668">
        <ele>1223.8</ele>
        <time>2020-12-05T16:09:15.948Z</time>
      </trkpt>
      <trkpt lat="42.89738" lon="0.06668">
        <ele>1223.8</ele>
        <time>2020-12-05T16:09:16.95Z</time>
      </trkpt>
      <trkpt lat="42.89738" lon="0.06668">
        <ele>1223.8</ele>
        <time>2020-12-05T16:09:17.949Z</time>
      </trkpt>
      <trkpt lat="42.89738" lon="0.06668">
        <ele>1223.8</ele>
        <time>2020-12-05T16:09:18.949Z</time>
      </trkpt>
      <trkpt lat="42.8974" lon="0.0668">
        <ele>1224.4</ele>
        <time>2020-12-05T16:09:19.948Z</time>
      </trkpt>
      <trkpt lat="42.8974" lon="0.0668">
        <ele>1224.4</ele>
        <time>2020-12-05T16:09:20.947Z</time>
      </trkpt>
      <trkpt lat="42.8974" lon="0.0668">
        <ele>1224.4</ele>
        <time>2020-12-05T16:09:21.947Z</time>
      </trkpt>
      <trkpt lat="42.8974" lon="0.0668">
        <ele>1224.4</ele>
        <time>2020-12-05T16:09:22.95Z</time>
      </trkpt>
      <trkpt lat="42.8974" lon="0.0668">
        <ele>1224.4</ele>
        <time>2020-12-05T16:09:23.947Z</time>
      </trkpt>
      <trkpt lat="42.8974" lon="0.0668">
        <ele>1224.4</ele>
        <time>2020-12-05T16:09:24.95Z</time>
      </trkpt>
      <trkpt lat="42.8974" lon="0.0668">
        <ele>1224.4</ele>
        <time>2020-12-05T16:09:25.948Z</time>
      </trkpt>
      <trkpt lat="42.89747" lon="0.06701">
        <ele>1225.2</ele>
        <time>2020-12-05T16:09:26.949Z</time>
      </trkpt>
      <trkpt lat="42.89747" lon="0.06701">
        <ele>1225.2</ele>
        <time>2020-12-05T16:09:27.949Z</time>
      </trkpt>
      <trkpt lat="42.89747" lon="0.06701">
        <ele>1225.2</ele>
        <time>2020-12-05T16:09:28.949Z</time>
      </trkpt>
      <trkpt lat="42.89747" lon="0.06701">
        <ele>1225.2</ele>
        <time>2020-12-05T16:09:29.948Z</time>
      </trkpt>
      <trkpt lat="42.89747" lon="0.06701">
        <ele>1225.2</ele>
        <time>2020-12-05T16:09:30.949Z</time>
      </trkpt>
      <trkpt lat="42.89753" lon="0.06715">
        <ele>1226</ele>
        <time>2020-12-05T16:09:31.949Z</time>
      </trkpt>
      <trkpt lat="42.89755" lon="0.06718">
        <ele>1226.2</ele>
        <time>2020-12-05T16:09:32.949Z</time>
      </trkpt>
      <trkpt lat="42.89755" lon="0.06718">
        <ele>1226.2</ele>
        <time>2020-12-05T16:09:33.95Z</time>
      </trkpt>
      <trkpt lat="42.89755" lon="0.06718">
        <ele>1226.2</ele>
        <time>2020-12-05T16:09:34.949Z</time>
      </trkpt>
      <trkpt lat="42.89755" lon="0.06718">
        <ele>1226.2</ele>
        <time>2020-12-05T16:09:35.948Z</time>
      </trkpt>
      <trkpt lat="42.89755" lon="0.06718">
        <ele>1226.2</ele>
        <time>2020-12-05T16:09:36.948Z</time>
      </trkpt>
      <trkpt lat="42.89755" lon="0.06718">
        <ele>1226.2</ele>
        <time>2020-12-05T16:09:37.95Z</time>
      </trkpt>
      <trkpt lat="42.89755" lon="0.06718">
        <ele>1226.2</ele>
        <time>2020-12-05T16:09:38.948Z</time>
      </trkpt>
      <trkpt lat="42.89755" lon="0.06718">
        <ele>1226.2</ele>
        <time>2020-12-05T16:09:39.949Z</time>
      </trkpt>
      <trkpt lat="42.89755" lon="0.06718">
        <ele>1226.2</ele>
        <time>2020-12-05T16:09:40.948Z</time>
      </trkpt>
      <trkpt lat="42.89761" lon="0.06745">
        <ele>1227</ele>
        <time>2020-12-05T16:09:41.949Z</time>
      </trkpt>
      <trkpt lat="42.89762" lon="0.0675">
        <ele>1227.2</ele>
        <time>2020-12-05T16:09:42.949Z</time>
      </trkpt>
      <trkpt lat="42.89762" lon="0.0675">
        <ele>1227.2</ele>
        <time>2020-12-05T16:09:43.949Z</time>
      </trkpt>
      <trkpt lat="42.89762" lon="0.0675">
        <ele>1227.2</ele>
        <time>2020-12-05T16:09:44.948Z</time>
      </trkpt>
      <trkpt lat="42.89765" lon="0.0676">
        <ele>1227.6</ele>
        <time>2020-12-05T16:09:45.95Z</time>
      </trkpt>
      <trkpt lat="42.89765" lon="0.0676">
        <ele>1227.6</ele>
        <time>2020-12-05T16:09:46.949Z</time>
      </trkpt>
      <trkpt lat="42.89765" lon="0.0676">
        <ele>1227.6</ele>
        <time>2020-12-05T16:09:47.948Z</time>
      </trkpt>
      <trkpt lat="42.89766" lon="0.0677">
        <ele>1228</ele>
        <time>2020-12-05T16:09:48.949Z</time>
      </trkpt>
      <trkpt lat="42.89766" lon="0.0677">
        <ele>1228</ele>
        <time>2020-12-05T16:09:49.949Z</time>
      </trkpt>
      <trkpt lat="42.89767" lon="0.06775">
        <ele>1228.2</ele>
        <time>2020-12-05T16:09:50.95Z</time>
      </trkpt>
      <trkpt lat="42.89767" lon="0.06775">
        <ele>1228.2</ele>
        <time>2020-12-05T16:09:51.947Z</time>
      </trkpt>
      <trkpt lat="42.89767" lon="0.06775">
        <ele>1228.2</ele>
        <time>2020-12-05T16:09:52.948Z</time>
      </trkpt>
      <trkpt lat="42.89767" lon="0.06775">
        <ele>1228.2</ele>
        <time>2020-12-05T16:09:53.949Z</time>
      </trkpt>
      <trkpt lat="42.89767" lon="0.06775">
        <ele>1228.2</ele>
        <time>2020-12-05T16:09:54.949Z</time>
      </trkpt>
      <trkpt lat="42.89767" lon="0.06775">
        <ele>1228.2</ele>
        <time>2020-12-05T16:09:55.948Z</time>
      </trkpt>
      <trkpt lat="42.89767" lon="0.06775">
        <ele>1228.2</ele>
        <time>2020-12-05T16:09:56.949Z</time>
      </trkpt>
      <trkpt lat="42.89769" lon="0.06799">
        <ele>1229.6</ele>
        <time>2020-12-05T16:09:57.949Z</time>
      </trkpt>
      <trkpt lat="42.89769" lon="0.06799">
        <ele>1229.6</ele>
        <time>2020-12-05T16:09:58.948Z</time>
      </trkpt>
      <trkpt lat="42.89769" lon="0.06799">
        <ele>1229.6</ele>
        <time>2020-12-05T16:09:59.949Z</time>
      </trkpt>
      <trkpt lat="42.89769" lon="0.06799">
        <ele>1229.6</ele>
        <time>2020-12-05T16:10:00.947Z</time>
      </trkpt>
      <trkpt lat="42.89769" lon="0.06799">
        <ele>1229.6</ele>
        <time>2020-12-05T16:10:01.949Z</time>
      </trkpt>
      <trkpt lat="42.89769" lon="0.06799">
        <ele>1229.6</ele>
        <time>2020-12-05T16:10:02.948Z</time>
      </trkpt>
      <trkpt lat="42.89771" lon="0.06813">
        <ele>1230.8</ele>
        <time>2020-12-05T16:10:03.949Z</time>
      </trkpt>
      <trkpt lat="42.89771" lon="0.06813">
        <ele>1230.8</ele>
        <time>2020-12-05T16:10:04.948Z</time>
      </trkpt>
      <trkpt lat="42.89771" lon="0.06813">
        <ele>1230.8</ele>
        <time>2020-12-05T16:10:05.949Z</time>
      </trkpt>
      <trkpt lat="42.89771" lon="0.06813">
        <ele>1230.8</ele>
        <time>2020-12-05T16:10:06.95Z</time>
      </trkpt>
      <trkpt lat="42.89771" lon="0.06813">
        <ele>1230.8</ele>
        <time>2020-12-05T16:10:07.95Z</time>
      </trkpt>
      <trkpt lat="42.89771" lon="0.06824">
        <ele>1232</ele>
        <time>2020-12-05T16:10:08.948Z</time>
      </trkpt>
      <trkpt lat="42.89771" lon="0.06824">
        <ele>1232</ele>
        <time>2020-12-05T16:10:09.948Z</time>
      </trkpt>
      <trkpt lat="42.89771" lon="0.06824">
        <ele>1232</ele>
        <time>2020-12-05T16:10:10.947Z</time>
      </trkpt>
      <trkpt lat="42.89771" lon="0.06824">
        <ele>1232</ele>
        <time>2020-12-05T16:10:11.947Z</time>
      </trkpt>
      <trkpt lat="42.89771" lon="0.06824">
        <ele>1232</ele>
        <time>2020-12-05T16:10:12.949Z</time>
      </trkpt>
      <trkpt lat="42.89772" lon="0.06836">
        <ele>1232.8</ele>
        <time>2020-12-05T16:10:13.949Z</time>
      </trkpt>
      <trkpt lat="42.89772" lon="0.06836">
        <ele>1232.8</ele>
        <time>2020-12-05T16:10:14.949Z</time>
      </trkpt>
      <trkpt lat="42.89772" lon="0.06836">
        <ele>1232.8</ele>
        <time>2020-12-05T16:10:15.949Z</time>
      </trkpt>
      <trkpt lat="42.89772" lon="0.06836">
        <ele>1232.8</ele>
        <time>2020-12-05T16:10:16.949Z</time>
      </trkpt>
      <trkpt lat="42.89774" lon="0.06844">
        <ele>1233.6</ele>
        <time>2020-12-05T16:10:17.949Z</time>
      </trkpt>
      <trkpt lat="42.89774" lon="0.06844">
        <ele>1233.6</ele>
        <time>2020-12-05T16:10:18.947Z</time>
      </trkpt>
      <trkpt lat="42.89774" lon="0.06848">
        <ele>1233.8</ele>
        <time>2020-12-05T16:10:19.948Z</time>
      </trkpt>
      <trkpt lat="42.89774" lon="0.06848">
        <ele>1233.8</ele>
        <time>2020-12-05T16:10:20.947Z</time>
      </trkpt>
      <trkpt lat="42.89774" lon="0.06848">
        <ele>1233.8</ele>
        <time>2020-12-05T16:10:21.949Z</time>
      </trkpt>
      <trkpt lat="42.89774" lon="0.06848">
        <ele>1233.8</ele>
        <time>2020-12-05T16:10:22.949Z</time>
      </trkpt>
      <trkpt lat="42.89774" lon="0.06848">
        <ele>1233.8</ele>
        <time>2020-12-05T16:10:23.949Z</time>
      </trkpt>
      <trkpt lat="42.89777" lon="0.06858">
        <ele>1235</ele>
        <time>2020-12-05T16:10:24.949Z</time>
      </trkpt>
      <trkpt lat="42.89777" lon="0.06858">
        <ele>1235</ele>
        <time>2020-12-05T16:10:25.948Z</time>
      </trkpt>
      <trkpt lat="42.89777" lon="0.06858">
        <ele>1235</ele>
        <time>2020-12-05T16:10:26.947Z</time>
      </trkpt>
      <trkpt lat="42.89777" lon="0.06858">
        <ele>1235</ele>
        <time>2020-12-05T16:10:27.948Z</time>
      </trkpt>
      <trkpt lat="42.89777" lon="0.06858">
        <ele>1235</ele>
        <time>2020-12-05T16:10:28.95Z</time>
      </trkpt>
      <trkpt lat="42.8978" lon="0.06869">
        <ele>1236</ele>
        <time>2020-12-05T16:10:29.948Z</time>
      </trkpt>
      <trkpt lat="42.8978" lon="0.06869">
        <ele>1236</ele>
        <time>2020-12-05T16:10:30.949Z</time>
      </trkpt>
      <trkpt lat="42.89781" lon="0.06873">
        <ele>1236.4</ele>
        <time>2020-12-05T16:10:31.949Z</time>
      </trkpt>
      <trkpt lat="42.89781" lon="0.06873">
        <ele>1236.4</ele>
        <time>2020-12-05T16:10:32.947Z</time>
      </trkpt>
      <trkpt lat="42.89781" lon="0.06873">
        <ele>1236.4</ele>
        <time>2020-12-05T16:10:33.949Z</time>
      </trkpt>
      <trkpt lat="42.89781" lon="0.06873">
        <ele>1236.4</ele>
        <time>2020-12-05T16:10:34.949Z</time>
      </trkpt>
      <trkpt lat="42.89781" lon="0.06873">
        <ele>1236.4</ele>
        <time>2020-12-05T16:10:35.947Z</time>
      </trkpt>
      <trkpt lat="42.89784" lon="0.06885">
        <ele>1237.4</ele>
        <time>2020-12-05T16:10:36.948Z</time>
      </trkpt>
      <trkpt lat="42.89784" lon="0.06885">
        <ele>1237.4</ele>
        <time>2020-12-05T16:10:37.947Z</time>
      </trkpt>
      <trkpt lat="42.89784" lon="0.06885">
        <ele>1237.4</ele>
        <time>2020-12-05T16:10:38.949Z</time>
      </trkpt>
      <trkpt lat="42.89784" lon="0.06885">
        <ele>1237.4</ele>
        <time>2020-12-05T16:10:39.949Z</time>
      </trkpt>
      <trkpt lat="42.89785" lon="0.06893">
        <ele>1238.2</ele>
        <time>2020-12-05T16:10:40.948Z</time>
      </trkpt>
      <trkpt lat="42.89785" lon="0.06893">
        <ele>1238.2</ele>
        <time>2020-12-05T16:10:41.948Z</time>
      </trkpt>
      <trkpt lat="42.89786" lon="0.06897">
        <ele>1238.4</ele>
        <time>2020-12-05T16:10:42.948Z</time>
      </trkpt>
      <trkpt lat="42.89786" lon="0.06897">
        <ele>1238.4</ele>
        <time>2020-12-05T16:10:43.949Z</time>
      </trkpt>
      <trkpt lat="42.89786" lon="0.06897">
        <ele>1238.4</ele>
        <time>2020-12-05T16:10:44.947Z</time>
      </trkpt>
      <trkpt lat="42.89786" lon="0.06897">
        <ele>1238.4</ele>
        <time>2020-12-05T16:10:45.949Z</time>
      </trkpt>
      <trkpt lat="42.89786" lon="0.06897">
        <ele>1238.4</ele>
        <time>2020-12-05T16:10:46.949Z</time>
      </trkpt>
      <trkpt lat="42.89786" lon="0.06897">
        <ele>1238.4</ele>
        <time>2020-12-05T16:10:47.949Z</time>
      </trkpt>
      <trkpt lat="42.89786" lon="0.06897">
        <ele>1238.4</ele>
        <time>2020-12-05T16:10:48.947Z</time>
      </trkpt>
      <trkpt lat="42.89786" lon="0.06897">
        <ele>1238.4</ele>
        <time>2020-12-05T16:10:49.95Z</time>
      </trkpt>
      <trkpt lat="42.89786" lon="0.06897">
        <ele>1238.4</ele>
        <time>2020-12-05T16:10:50.95Z</time>
      </trkpt>
      <trkpt lat="42.89788" lon="0.06914">
        <ele>1239.8</ele>
        <time>2020-12-05T16:10:51.949Z</time>
      </trkpt>
      <trkpt lat="42.89788" lon="0.06914">
        <ele>1239.8</ele>
        <time>2020-12-05T16:10:52.947Z</time>
      </trkpt>
      <trkpt lat="42.89788" lon="0.06914">
        <ele>1239.8</ele>
        <time>2020-12-05T16:10:53.948Z</time>
      </trkpt>
      <trkpt lat="42.89788" lon="0.06914">
        <ele>1239.8</ele>
        <time>2020-12-05T16:10:54.947Z</time>
      </trkpt>
      <trkpt lat="42.89788" lon="0.06914">
        <ele>1239.8</ele>
        <time>2020-12-05T16:10:55.948Z</time>
      </trkpt>
      <trkpt lat="42.89788" lon="0.06914">
        <ele>1239.8</ele>
        <time>2020-12-05T16:10:56.949Z</time>
      </trkpt>
      <trkpt lat="42.8979" lon="0.06926">
        <ele>1240.6</ele>
        <time>2020-12-05T16:10:57.947Z</time>
      </trkpt>
      <trkpt lat="42.8979" lon="0.06926">
        <ele>1240.6</ele>
        <time>2020-12-05T16:10:58.947Z</time>
      </trkpt>
      <trkpt lat="42.8979" lon="0.06926">
        <ele>1240.6</ele>
        <time>2020-12-05T16:10:59.95Z</time>
      </trkpt>
      <trkpt lat="42.8979" lon="0.0693">
        <ele>1240.8</ele>
        <time>2020-12-05T16:11:00.949Z</time>
      </trkpt>
      <trkpt lat="42.8979" lon="0.0693">
        <ele>1240.8</ele>
        <time>2020-12-05T16:11:01.948Z</time>
      </trkpt>
      <trkpt lat="42.8979" lon="0.0693">
        <ele>1240.8</ele>
        <time>2020-12-05T16:11:02.947Z</time>
      </trkpt>
      <trkpt lat="42.8979" lon="0.0693">
        <ele>1240.8</ele>
        <time>2020-12-05T16:11:03.947Z</time>
      </trkpt>
      <trkpt lat="42.89791" lon="0.06941">
        <ele>1242</ele>
        <time>2020-12-05T16:11:04.949Z</time>
      </trkpt>
      <trkpt lat="42.89791" lon="0.06941">
        <ele>1242</ele>
        <time>2020-12-05T16:11:05.947Z</time>
      </trkpt>
      <trkpt lat="42.89791" lon="0.06941">
        <ele>1242</ele>
        <time>2020-12-05T16:11:06.948Z</time>
      </trkpt>
      <trkpt lat="42.89791" lon="0.06941">
        <ele>1242</ele>
        <time>2020-12-05T16:11:07.948Z</time>
      </trkpt>
      <trkpt lat="42.89791" lon="0.06941">
        <ele>1242</ele>
        <time>2020-12-05T16:11:08.947Z</time>
      </trkpt>
      <trkpt lat="42.89791" lon="0.06941">
        <ele>1242</ele>
        <time>2020-12-05T16:11:09.95Z</time>
      </trkpt>
      <trkpt lat="42.89793" lon="0.06954">
        <ele>1242.6</ele>
        <time>2020-12-05T16:11:10.949Z</time>
      </trkpt>
      <trkpt lat="42.89793" lon="0.06954">
        <ele>1242.6</ele>
        <time>2020-12-05T16:11:11.947Z</time>
      </trkpt>
      <trkpt lat="42.89793" lon="0.06954">
        <ele>1242.6</ele>
        <time>2020-12-05T16:11:12.949Z</time>
      </trkpt>
      <trkpt lat="42.89793" lon="0.06954">
        <ele>1242.6</ele>
        <time>2020-12-05T16:11:13.948Z</time>
      </trkpt>
      <trkpt lat="42.89794" lon="0.06961">
        <ele>1243.2</ele>
        <time>2020-12-05T16:11:14.948Z</time>
      </trkpt>
      <trkpt lat="42.89794" lon="0.06961">
        <ele>1243.2</ele>
        <time>2020-12-05T16:11:15.95Z</time>
      </trkpt>
      <trkpt lat="42.89794" lon="0.06961">
        <ele>1243.2</ele>
        <time>2020-12-05T16:11:16.949Z</time>
      </trkpt>
      <trkpt lat="42.89794" lon="0.06961">
        <ele>1243.2</ele>
        <time>2020-12-05T16:11:17.947Z</time>
      </trkpt>
      <trkpt lat="42.89794" lon="0.06961">
        <ele>1243.2</ele>
        <time>2020-12-05T16:11:18.949Z</time>
      </trkpt>
      <trkpt lat="42.89795" lon="0.06973">
        <ele>1244.4</ele>
        <time>2020-12-05T16:11:19.948Z</time>
      </trkpt>
      <trkpt lat="42.89795" lon="0.06973">
        <ele>1244.4</ele>
        <time>2020-12-05T16:11:20.948Z</time>
      </trkpt>
      <trkpt lat="42.89795" lon="0.06973">
        <ele>1244.4</ele>
        <time>2020-12-05T16:11:21.949Z</time>
      </trkpt>
      <trkpt lat="42.89796" lon="0.06979">
        <ele>1245</ele>
        <time>2020-12-05T16:11:22.948Z</time>
      </trkpt>
      <trkpt lat="42.89796" lon="0.06979">
        <ele>1245</ele>
        <time>2020-12-05T16:11:23.948Z</time>
      </trkpt>
      <trkpt lat="42.89796" lon="0.06979">
        <ele>1245</ele>
        <time>2020-12-05T16:11:24.948Z</time>
      </trkpt>
      <trkpt lat="42.89796" lon="0.06979">
        <ele>1245</ele>
        <time>2020-12-05T16:11:25.948Z</time>
      </trkpt>
      <trkpt lat="42.89797" lon="0.06987">
        <ele>1245.6</ele>
        <time>2020-12-05T16:11:26.949Z</time>
      </trkpt>
      <trkpt lat="42.89797" lon="0.06987">
        <ele>1245.6</ele>
        <time>2020-12-05T16:11:27.949Z</time>
      </trkpt>
      <trkpt lat="42.89797" lon="0.06987">
        <ele>1245.6</ele>
        <time>2020-12-05T16:11:28.948Z</time>
      </trkpt>
      <trkpt lat="42.89797" lon="0.06987">
        <ele>1245.6</ele>
        <time>2020-12-05T16:11:29.949Z</time>
      </trkpt>
      <trkpt lat="42.89797" lon="0.06987">
        <ele>1245.6</ele>
        <time>2020-12-05T16:11:30.949Z</time>
      </trkpt>
      <trkpt lat="42.89797" lon="0.06987">
        <ele>1245.6</ele>
        <time>2020-12-05T16:11:31.947Z</time>
      </trkpt>
      <trkpt lat="42.89797" lon="0.06987">
        <ele>1245.6</ele>
        <time>2020-12-05T16:11:32.948Z</time>
      </trkpt>
      <trkpt lat="42.89801" lon="0.07002">
        <ele>1246.6</ele>
        <time>2020-12-05T16:11:33.948Z</time>
      </trkpt>
      <trkpt lat="42.89801" lon="0.07002">
        <ele>1246.6</ele>
        <time>2020-12-05T16:11:34.948Z</time>
      </trkpt>
      <trkpt lat="42.89801" lon="0.07002">
        <ele>1246.6</ele>
        <time>2020-12-05T16:11:35.949Z</time>
      </trkpt>
      <trkpt lat="42.89801" lon="0.07002">
        <ele>1246.6</ele>
        <time>2020-12-05T16:11:36.948Z</time>
      </trkpt>
      <trkpt lat="42.89801" lon="0.07002">
        <ele>1246.6</ele>
        <time>2020-12-05T16:11:37.949Z</time>
      </trkpt>
      <trkpt lat="42.89801" lon="0.07002">
        <ele>1246.6</ele>
        <time>2020-12-05T16:11:38.949Z</time>
      </trkpt>
      <trkpt lat="42.89801" lon="0.07002">
        <ele>1246.6</ele>
        <time>2020-12-05T16:11:39.949Z</time>
      </trkpt>
      <trkpt lat="42.89803" lon="0.07017">
        <ele>1248</ele>
        <time>2020-12-05T16:11:40.95Z</time>
      </trkpt>
      <trkpt lat="42.89803" lon="0.07017">
        <ele>1248</ele>
        <time>2020-12-05T16:11:41.95Z</time>
      </trkpt>
      <trkpt lat="42.89803" lon="0.07017">
        <ele>1248</ele>
        <time>2020-12-05T16:11:42.948Z</time>
      </trkpt>
      <trkpt lat="42.89803" lon="0.07017">
        <ele>1248</ele>
        <time>2020-12-05T16:11:43.949Z</time>
      </trkpt>
      <trkpt lat="42.89803" lon="0.07017">
        <ele>1248</ele>
        <time>2020-12-05T16:11:44.947Z</time>
      </trkpt>
      <trkpt lat="42.89803" lon="0.07029">
        <ele>1248.8</ele>
        <time>2020-12-05T16:11:45.949Z</time>
      </trkpt>
      <trkpt lat="42.89803" lon="0.07029">
        <ele>1248.8</ele>
        <time>2020-12-05T16:11:46.948Z</time>
      </trkpt>
      <trkpt lat="42.89803" lon="0.07032">
        <ele>1249.2</ele>
        <time>2020-12-05T16:11:47.947Z</time>
      </trkpt>
      <trkpt lat="42.89803" lon="0.07032">
        <ele>1249.2</ele>
        <time>2020-12-05T16:11:48.948Z</time>
      </trkpt>
      <trkpt lat="42.89803" lon="0.07032">
        <ele>1249.2</ele>
        <time>2020-12-05T16:11:49.947Z</time>
      </trkpt>
      <trkpt lat="42.89803" lon="0.07032">
        <ele>1249.2</ele>
        <time>2020-12-05T16:11:50.948Z</time>
      </trkpt>
      <trkpt lat="42.89804" lon="0.07042">
        <ele>1250.2</ele>
        <time>2020-12-05T16:11:51.949Z</time>
      </trkpt>
      <trkpt lat="42.89804" lon="0.07042">
        <ele>1250.2</ele>
        <time>2020-12-05T16:11:52.949Z</time>
      </trkpt>
      <trkpt lat="42.89804" lon="0.07042">
        <ele>1250.2</ele>
        <time>2020-12-05T16:11:53.948Z</time>
      </trkpt>
      <trkpt lat="42.89804" lon="0.07042">
        <ele>1250.2</ele>
        <time>2020-12-05T16:11:54.948Z</time>
      </trkpt>
      <trkpt lat="42.89804" lon="0.07042">
        <ele>1250.2</ele>
        <time>2020-12-05T16:11:55.949Z</time>
      </trkpt>
      <trkpt lat="42.89806" lon="0.07053">
        <ele>1251.2</ele>
        <time>2020-12-05T16:11:56.949Z</time>
      </trkpt>
      <trkpt lat="42.89806" lon="0.07053">
        <ele>1251.2</ele>
        <time>2020-12-05T16:11:57.95Z</time>
      </trkpt>
      <trkpt lat="42.89806" lon="0.07056">
        <ele>1251.4</ele>
        <time>2020-12-05T16:11:58.948Z</time>
      </trkpt>
      <trkpt lat="42.89806" lon="0.07056">
        <ele>1251.4</ele>
        <time>2020-12-05T16:11:59.948Z</time>
      </trkpt>
      <trkpt lat="42.89806" lon="0.07056">
        <ele>1251.4</ele>
        <time>2020-12-05T16:12:00.949Z</time>
      </trkpt>
      <trkpt lat="42.89806" lon="0.07056">
        <ele>1251.4</ele>
        <time>2020-12-05T16:12:01.947Z</time>
      </trkpt>
      <trkpt lat="42.89806" lon="0.07056">
        <ele>1251.4</ele>
        <time>2020-12-05T16:12:02.95Z</time>
      </trkpt>
      <trkpt lat="42.89806" lon="0.07056">
        <ele>1251.4</ele>
        <time>2020-12-05T16:12:03.95Z</time>
      </trkpt>
      <trkpt lat="42.89806" lon="0.07056">
        <ele>1251.4</ele>
        <time>2020-12-05T16:12:04.947Z</time>
      </trkpt>
      <trkpt lat="42.89806" lon="0.07056">
        <ele>1251.4</ele>
        <time>2020-12-05T16:12:05.948Z</time>
      </trkpt>
      <trkpt lat="42.89806" lon="0.07056">
        <ele>1251.4</ele>
        <time>2020-12-05T16:12:06.949Z</time>
      </trkpt>
      <trkpt lat="42.89806" lon="0.07056">
        <ele>1251.4</ele>
        <time>2020-12-05T16:12:07.948Z</time>
      </trkpt>
      <trkpt lat="42.89806" lon="0.07056">
        <ele>1251.4</ele>
        <time>2020-12-05T16:12:08.949Z</time>
      </trkpt>
      <trkpt lat="42.89807" lon="0.07068">
        <ele>1252.2</ele>
        <time>2020-12-05T16:12:09.949Z</time>
      </trkpt>
      <trkpt lat="42.89807" lon="0.07068">
        <ele>1252.2</ele>
        <time>2020-12-05T16:12:10.949Z</time>
      </trkpt>
      <trkpt lat="42.89807" lon="0.07068">
        <ele>1252.2</ele>
        <time>2020-12-05T16:12:11.948Z</time>
      </trkpt>
      <trkpt lat="42.89807" lon="0.07068">
        <ele>1252.2</ele>
        <time>2020-12-05T16:12:12.949Z</time>
      </trkpt>
      <trkpt lat="42.89807" lon="0.07068">
        <ele>1252.2</ele>
        <time>2020-12-05T16:12:13.948Z</time>
      </trkpt>
      <trkpt lat="42.89807" lon="0.07068">
        <ele>1252.2</ele>
        <time>2020-12-05T16:12:14.947Z</time>
      </trkpt>
      <trkpt lat="42.89811" lon="0.07077">
        <ele>1253</ele>
        <time>2020-12-05T16:12:15.948Z</time>
      </trkpt>
      <trkpt lat="42.89811" lon="0.07077">
        <ele>1253</ele>
        <time>2020-12-05T16:12:16.949Z</time>
      </trkpt>
      <trkpt lat="42.89812" lon="0.0708">
        <ele>1253.4</ele>
        <time>2020-12-05T16:12:17.948Z</time>
      </trkpt>
      <trkpt lat="42.89812" lon="0.0708">
        <ele>1253.4</ele>
        <time>2020-12-05T16:12:18.948Z</time>
      </trkpt>
      <trkpt lat="42.89812" lon="0.0708">
        <ele>1253.4</ele>
        <time>2020-12-05T16:12:19.95Z</time>
      </trkpt>
      <trkpt lat="42.89812" lon="0.0708">
        <ele>1253.4</ele>
        <time>2020-12-05T16:12:20.947Z</time>
      </trkpt>
      <trkpt lat="42.89812" lon="0.0708">
        <ele>1253.4</ele>
        <time>2020-12-05T16:12:21.949Z</time>
      </trkpt>
      <trkpt lat="42.89814" lon="0.0709">
        <ele>1254.4</ele>
        <time>2020-12-05T16:12:22.947Z</time>
      </trkpt>
      <trkpt lat="42.89814" lon="0.0709">
        <ele>1254.4</ele>
        <time>2020-12-05T16:12:23.948Z</time>
      </trkpt>
      <trkpt lat="42.89814" lon="0.0709">
        <ele>1254.4</ele>
        <time>2020-12-05T16:12:24.949Z</time>
      </trkpt>
      <trkpt lat="42.89816" lon="0.07097">
        <ele>1255</ele>
        <time>2020-12-05T16:12:25.949Z</time>
      </trkpt>
      <trkpt lat="42.89816" lon="0.07097">
        <ele>1255</ele>
        <time>2020-12-05T16:12:26.948Z</time>
      </trkpt>
      <trkpt lat="42.89816" lon="0.07097">
        <ele>1255</ele>
        <time>2020-12-05T16:12:27.947Z</time>
      </trkpt>
      <trkpt lat="42.89816" lon="0.07097">
        <ele>1255</ele>
        <time>2020-12-05T16:12:28.949Z</time>
      </trkpt>
      <trkpt lat="42.89818" lon="0.07104">
        <ele>1255.8</ele>
        <time>2020-12-05T16:12:29.947Z</time>
      </trkpt>
      <trkpt lat="42.89818" lon="0.07104">
        <ele>1255.8</ele>
        <time>2020-12-05T16:12:30.949Z</time>
      </trkpt>
      <trkpt lat="42.89818" lon="0.07104">
        <ele>1255.8</ele>
        <time>2020-12-05T16:12:31.948Z</time>
      </trkpt>
      <trkpt lat="42.89818" lon="0.07104">
        <ele>1255.8</ele>
        <time>2020-12-05T16:12:32.95Z</time>
      </trkpt>
      <trkpt lat="42.89818" lon="0.07104">
        <ele>1255.8</ele>
        <time>2020-12-05T16:12:33.948Z</time>
      </trkpt>
      <trkpt lat="42.89818" lon="0.07104">
        <ele>1255.8</ele>
        <time>2020-12-05T16:12:34.947Z</time>
      </trkpt>
      <trkpt lat="42.89818" lon="0.07104">
        <ele>1255.8</ele>
        <time>2020-12-05T16:12:35.948Z</time>
      </trkpt>
      <trkpt lat="42.89822" lon="0.07119">
        <ele>1256.8</ele>
        <time>2020-12-05T16:12:36.95Z</time>
      </trkpt>
      <trkpt lat="42.89822" lon="0.07119">
        <ele>1256.8</ele>
        <time>2020-12-05T16:12:37.947Z</time>
      </trkpt>
      <trkpt lat="42.89822" lon="0.07119">
        <ele>1256.8</ele>
        <time>2020-12-05T16:12:38.949Z</time>
      </trkpt>
      <trkpt lat="42.89822" lon="0.07119">
        <ele>1256.8</ele>
        <time>2020-12-05T16:12:39.949Z</time>
      </trkpt>
      <trkpt lat="42.89822" lon="0.07127">
        <ele>1257.4</ele>
        <time>2020-12-05T16:12:40.949Z</time>
      </trkpt>
      <trkpt lat="42.89822" lon="0.07127">
        <ele>1257.4</ele>
        <time>2020-12-05T16:12:41.949Z</time>
      </trkpt>
      <trkpt lat="42.89822" lon="0.07127">
        <ele>1257.4</ele>
        <time>2020-12-05T16:12:42.948Z</time>
      </trkpt>
      <trkpt lat="42.89822" lon="0.07127">
        <ele>1257.4</ele>
        <time>2020-12-05T16:12:43.95Z</time>
      </trkpt>
      <trkpt lat="42.89823" lon="0.07135">
        <ele>1258</ele>
        <time>2020-12-05T16:12:44.948Z</time>
      </trkpt>
      <trkpt lat="42.89823" lon="0.07135">
        <ele>1258</ele>
        <time>2020-12-05T16:12:45.947Z</time>
      </trkpt>
      <trkpt lat="42.89823" lon="0.07135">
        <ele>1258</ele>
        <time>2020-12-05T16:12:46.948Z</time>
      </trkpt>
      <trkpt lat="42.89823" lon="0.07135">
        <ele>1258</ele>
        <time>2020-12-05T16:12:47.949Z</time>
      </trkpt>
      <trkpt lat="42.89823" lon="0.07135">
        <ele>1258</ele>
        <time>2020-12-05T16:12:48.948Z</time>
      </trkpt>
      <trkpt lat="42.89823" lon="0.07135">
        <ele>1258</ele>
        <time>2020-12-05T16:12:49.949Z</time>
      </trkpt>
      <trkpt lat="42.89823" lon="0.07135">
        <ele>1258</ele>
        <time>2020-12-05T16:12:50.948Z</time>
      </trkpt>
      <trkpt lat="42.89823" lon="0.07135">
        <ele>1258</ele>
        <time>2020-12-05T16:12:51.949Z</time>
      </trkpt>
      <trkpt lat="42.89823" lon="0.07135">
        <ele>1258</ele>
        <time>2020-12-05T16:12:52.95Z</time>
      </trkpt>
      <trkpt lat="42.89826" lon="0.0715">
        <ele>1259.4</ele>
        <time>2020-12-05T16:12:53.95Z</time>
      </trkpt>
      <trkpt lat="42.89826" lon="0.0715">
        <ele>1259.4</ele>
        <time>2020-12-05T16:12:54.949Z</time>
      </trkpt>
      <trkpt lat="42.89826" lon="0.07154">
        <ele>1259.8</ele>
        <time>2020-12-05T16:12:55.949Z</time>
      </trkpt>
      <trkpt lat="42.89826" lon="0.07154">
        <ele>1259.8</ele>
        <time>2020-12-05T16:12:56.949Z</time>
      </trkpt>
      <trkpt lat="42.89826" lon="0.07154">
        <ele>1259.8</ele>
        <time>2020-12-05T16:12:57.948Z</time>
      </trkpt>
      <trkpt lat="42.89826" lon="0.07154">
        <ele>1259.8</ele>
        <time>2020-12-05T16:12:58.948Z</time>
      </trkpt>
      <trkpt lat="42.89826" lon="0.07154">
        <ele>1259.8</ele>
        <time>2020-12-05T16:12:59.947Z</time>
      </trkpt>
      <trkpt lat="42.89828" lon="0.07166">
        <ele>1260.6</ele>
        <time>2020-12-05T16:13:00.949Z</time>
      </trkpt>
      <trkpt lat="42.89828" lon="0.07166">
        <ele>1260.6</ele>
        <time>2020-12-05T16:13:01.947Z</time>
      </trkpt>
      <trkpt lat="42.89828" lon="0.07166">
        <ele>1260.6</ele>
        <time>2020-12-05T16:13:02.947Z</time>
      </trkpt>
      <trkpt lat="42.89828" lon="0.07166">
        <ele>1260.6</ele>
        <time>2020-12-05T16:13:03.948Z</time>
      </trkpt>
      <trkpt lat="42.89828" lon="0.07166">
        <ele>1260.6</ele>
        <time>2020-12-05T16:13:04.948Z</time>
      </trkpt>
      <trkpt lat="42.89828" lon="0.07166">
        <ele>1260.6</ele>
        <time>2020-12-05T16:13:05.947Z</time>
      </trkpt>
      <trkpt lat="42.89829" lon="0.07178">
        <ele>1261.6</ele>
        <time>2020-12-05T16:13:06.948Z</time>
      </trkpt>
      <trkpt lat="42.89829" lon="0.07178">
        <ele>1261.6</ele>
        <time>2020-12-05T16:13:07.949Z</time>
      </trkpt>
      <trkpt lat="42.89829" lon="0.07178">
        <ele>1261.6</ele>
        <time>2020-12-05T16:13:08.947Z</time>
      </trkpt>
      <trkpt lat="42.89829" lon="0.07178">
        <ele>1261.6</ele>
        <time>2020-12-05T16:13:09.948Z</time>
      </trkpt>
      <trkpt lat="42.89829" lon="0.07178">
        <ele>1261.6</ele>
        <time>2020-12-05T16:13:10.948Z</time>
      </trkpt>
      <trkpt lat="42.89829" lon="0.07178">
        <ele>1261.6</ele>
        <time>2020-12-05T16:13:11.949Z</time>
      </trkpt>
      <trkpt lat="42.89829" lon="0.07178">
        <ele>1261.6</ele>
        <time>2020-12-05T16:13:12.948Z</time>
      </trkpt>
      <trkpt lat="42.89829" lon="0.07178">
        <ele>1261.6</ele>
        <time>2020-12-05T16:13:13.949Z</time>
      </trkpt>
      <trkpt lat="42.8983" lon="0.07194">
        <ele>1262.4</ele>
        <time>2020-12-05T16:13:14.95Z</time>
      </trkpt>
      <trkpt lat="42.8983" lon="0.07194">
        <ele>1262.4</ele>
        <time>2020-12-05T16:13:15.949Z</time>
      </trkpt>
      <trkpt lat="42.8983" lon="0.07194">
        <ele>1262.4</ele>
        <time>2020-12-05T16:13:16.949Z</time>
      </trkpt>
      <trkpt lat="42.89831" lon="0.07201">
        <ele>1263</ele>
        <time>2020-12-05T16:13:17.948Z</time>
      </trkpt>
      <trkpt lat="42.89831" lon="0.07201">
        <ele>1263</ele>
        <time>2020-12-05T16:13:18.947Z</time>
      </trkpt>
      <trkpt lat="42.89831" lon="0.07201">
        <ele>1263</ele>
        <time>2020-12-05T16:13:19.949Z</time>
      </trkpt>
      <trkpt lat="42.89831" lon="0.07201">
        <ele>1263</ele>
        <time>2020-12-05T16:13:20.948Z</time>
      </trkpt>
      <trkpt lat="42.89832" lon="0.07209">
        <ele>1263.6</ele>
        <time>2020-12-05T16:13:21.948Z</time>
      </trkpt>
      <trkpt lat="42.89832" lon="0.07209">
        <ele>1263.6</ele>
        <time>2020-12-05T16:13:22.947Z</time>
      </trkpt>
      <trkpt lat="42.89832" lon="0.07209">
        <ele>1263.6</ele>
        <time>2020-12-05T16:13:23.948Z</time>
      </trkpt>
      <trkpt lat="42.89832" lon="0.07209">
        <ele>1263.6</ele>
        <time>2020-12-05T16:13:24.948Z</time>
      </trkpt>
      <trkpt lat="42.89835" lon="0.07218">
        <ele>1264.6</ele>
        <time>2020-12-05T16:13:25.949Z</time>
      </trkpt>
      <trkpt lat="42.89835" lon="0.07221">
        <ele>1264.8</ele>
        <time>2020-12-05T16:13:26.949Z</time>
      </trkpt>
      <trkpt lat="42.89835" lon="0.07221">
        <ele>1264.8</ele>
        <time>2020-12-05T16:13:27.949Z</time>
      </trkpt>
      <trkpt lat="42.89835" lon="0.07221">
        <ele>1264.8</ele>
        <time>2020-12-05T16:13:28.948Z</time>
      </trkpt>
      <trkpt lat="42.89835" lon="0.07221">
        <ele>1264.8</ele>
        <time>2020-12-05T16:13:29.949Z</time>
      </trkpt>
      <trkpt lat="42.89835" lon="0.07221">
        <ele>1264.8</ele>
        <time>2020-12-05T16:13:30.95Z</time>
      </trkpt>
      <trkpt lat="42.89835" lon="0.07221">
        <ele>1264.8</ele>
        <time>2020-12-05T16:13:31.948Z</time>
      </trkpt>
      <trkpt lat="42.89836" lon="0.07232">
        <ele>1265.6</ele>
        <time>2020-12-05T16:13:32.948Z</time>
      </trkpt>
      <trkpt lat="42.89836" lon="0.07232">
        <ele>1265.6</ele>
        <time>2020-12-05T16:13:33.949Z</time>
      </trkpt>
      <trkpt lat="42.89836" lon="0.07232">
        <ele>1265.6</ele>
        <time>2020-12-05T16:13:34.948Z</time>
      </trkpt>
      <trkpt lat="42.89836" lon="0.07232">
        <ele>1265.6</ele>
        <time>2020-12-05T16:13:35.947Z</time>
      </trkpt>
      <trkpt lat="42.89836" lon="0.07232">
        <ele>1265.6</ele>
        <time>2020-12-05T16:13:36.947Z</time>
      </trkpt>
      <trkpt lat="42.89836" lon="0.07232">
        <ele>1265.6</ele>
        <time>2020-12-05T16:13:37.948Z</time>
      </trkpt>
      <trkpt lat="42.89838" lon="0.07246">
        <ele>1266.8</ele>
        <time>2020-12-05T16:13:38.95Z</time>
      </trkpt>
      <trkpt lat="42.89838" lon="0.07246">
        <ele>1266.8</ele>
        <time>2020-12-05T16:13:39.951Z</time>
      </trkpt>
      <trkpt lat="42.89838" lon="0.07246">
        <ele>1266.8</ele>
        <time>2020-12-05T16:13:40.948Z</time>
      </trkpt>
      <trkpt lat="42.89838" lon="0.07246">
        <ele>1266.8</ele>
        <time>2020-12-05T16:13:41.947Z</time>
      </trkpt>
      <trkpt lat="42.89838" lon="0.07246">
        <ele>1266.8</ele>
        <time>2020-12-05T16:13:42.948Z</time>
      </trkpt>
      <trkpt lat="42.89838" lon="0.07246">
        <ele>1266.8</ele>
        <time>2020-12-05T16:13:43.948Z</time>
      </trkpt>
      <trkpt lat="42.89838" lon="0.07246">
        <ele>1266.8</ele>
        <time>2020-12-05T16:13:44.95Z</time>
      </trkpt>
      <trkpt lat="42.89838" lon="0.07246">
        <ele>1266.8</ele>
        <time>2020-12-05T16:13:45.949Z</time>
      </trkpt>
      <trkpt lat="42.89838" lon="0.07246">
        <ele>1266.8</ele>
        <time>2020-12-05T16:13:46.949Z</time>
      </trkpt>
      <trkpt lat="42.89842" lon="0.07262">
        <ele>1268</ele>
        <time>2020-12-05T16:13:47.949Z</time>
      </trkpt>
      <trkpt lat="42.89842" lon="0.07262">
        <ele>1268</ele>
        <time>2020-12-05T16:13:48.948Z</time>
      </trkpt>
      <trkpt lat="42.89842" lon="0.07262">
        <ele>1268</ele>
        <time>2020-12-05T16:13:49.949Z</time>
      </trkpt>
      <trkpt lat="42.89843" lon="0.07271">
        <ele>1268.2</ele>
        <time>2020-12-05T16:13:50.949Z</time>
      </trkpt>
      <trkpt lat="42.89843" lon="0.07271">
        <ele>1268.2</ele>
        <time>2020-12-05T16:13:51.949Z</time>
      </trkpt>
      <trkpt lat="42.89843" lon="0.07271">
        <ele>1268.2</ele>
        <time>2020-12-05T16:13:52.95Z</time>
      </trkpt>
      <trkpt lat="42.89843" lon="0.07271">
        <ele>1268.2</ele>
        <time>2020-12-05T16:13:53.949Z</time>
      </trkpt>
      <trkpt lat="42.89843" lon="0.07271">
        <ele>1268.2</ele>
        <time>2020-12-05T16:13:54.949Z</time>
      </trkpt>
      <trkpt lat="42.89846" lon="0.07283">
        <ele>1269.4</ele>
        <time>2020-12-05T16:13:55.948Z</time>
      </trkpt>
      <trkpt lat="42.89846" lon="0.07283">
        <ele>1269.4</ele>
        <time>2020-12-05T16:13:56.948Z</time>
      </trkpt>
      <trkpt lat="42.89846" lon="0.07283">
        <ele>1269.4</ele>
        <time>2020-12-05T16:13:57.95Z</time>
      </trkpt>
      <trkpt lat="42.89846" lon="0.07283">
        <ele>1269.4</ele>
        <time>2020-12-05T16:13:58.948Z</time>
      </trkpt>
      <trkpt lat="42.89846" lon="0.07283">
        <ele>1269.4</ele>
        <time>2020-12-05T16:13:59.948Z</time>
      </trkpt>
      <trkpt lat="42.89846" lon="0.07283">
        <ele>1269.4</ele>
        <time>2020-12-05T16:14:00.948Z</time>
      </trkpt>
      <trkpt lat="42.89848" lon="0.07296">
        <ele>1270.4</ele>
        <time>2020-12-05T16:14:01.949Z</time>
      </trkpt>
      <trkpt lat="42.89848" lon="0.073">
        <ele>1270.6</ele>
        <time>2020-12-05T16:14:02.95Z</time>
      </trkpt>
      <trkpt lat="42.89848" lon="0.073">
        <ele>1270.6</ele>
        <time>2020-12-05T16:14:03.948Z</time>
      </trkpt>
      <trkpt lat="42.89848" lon="0.073">
        <ele>1270.6</ele>
        <time>2020-12-05T16:14:04.949Z</time>
      </trkpt>
      <trkpt lat="42.89848" lon="0.073">
        <ele>1270.6</ele>
        <time>2020-12-05T16:14:05.948Z</time>
      </trkpt>
      <trkpt lat="42.89848" lon="0.073">
        <ele>1270.6</ele>
        <time>2020-12-05T16:14:06.947Z</time>
      </trkpt>
      <trkpt lat="42.89848" lon="0.073">
        <ele>1270.6</ele>
        <time>2020-12-05T16:14:07.948Z</time>
      </trkpt>
      <trkpt lat="42.89848" lon="0.073">
        <ele>1270.6</ele>
        <time>2020-12-05T16:14:08.949Z</time>
      </trkpt>
      <trkpt lat="42.89848" lon="0.073">
        <ele>1270.6</ele>
        <time>2020-12-05T16:14:09.949Z</time>
      </trkpt>
      <trkpt lat="42.89848" lon="0.073">
        <ele>1270.6</ele>
        <time>2020-12-05T16:14:10.948Z</time>
      </trkpt>
      <trkpt lat="42.89848" lon="0.073">
        <ele>1270.6</ele>
        <time>2020-12-05T16:14:11.948Z</time>
      </trkpt>
      <trkpt lat="42.89851" lon="0.07325">
        <ele>1272</ele>
        <time>2020-12-05T16:14:12.947Z</time>
      </trkpt>
      <trkpt lat="42.89851" lon="0.07325">
        <ele>1272</ele>
        <time>2020-12-05T16:14:13.948Z</time>
      </trkpt>
      <trkpt lat="42.89851" lon="0.07325">
        <ele>1272</ele>
        <time>2020-12-05T16:14:14.948Z</time>
      </trkpt>
      <trkpt lat="42.89851" lon="0.07325">
        <ele>1272</ele>
        <time>2020-12-05T16:14:15.948Z</time>
      </trkpt>
      <trkpt lat="42.89851" lon="0.07325">
        <ele>1272</ele>
        <time>2020-12-05T16:14:16.949Z</time>
      </trkpt>
      <trkpt lat="42.89851" lon="0.07325">
        <ele>1272</ele>
        <time>2020-12-05T16:14:17.948Z</time>
      </trkpt>
      <trkpt lat="42.89851" lon="0.07341">
        <ele>1272.8</ele>
        <time>2020-12-05T16:14:18.95Z</time>
      </trkpt>
      <trkpt lat="42.89851" lon="0.07341">
        <ele>1272.8</ele>
        <time>2020-12-05T16:14:19.949Z</time>
      </trkpt>
      <trkpt lat="42.89851" lon="0.07345">
        <ele>1273</ele>
        <time>2020-12-05T16:14:20.948Z</time>
      </trkpt>
      <trkpt lat="42.89851" lon="0.07345">
        <ele>1273</ele>
        <time>2020-12-05T16:14:21.949Z</time>
      </trkpt>
      <trkpt lat="42.89851" lon="0.07345">
        <ele>1273</ele>
        <time>2020-12-05T16:14:22.95Z</time>
      </trkpt>
      <trkpt lat="42.89851" lon="0.07345">
        <ele>1273</ele>
        <time>2020-12-05T16:14:23.95Z</time>
      </trkpt>
      <trkpt lat="42.89851" lon="0.07345">
        <ele>1273</ele>
        <time>2020-12-05T16:14:24.948Z</time>
      </trkpt>
      <trkpt lat="42.89852" lon="0.07357">
        <ele>1274</ele>
        <time>2020-12-05T16:14:25.948Z</time>
      </trkpt>
      <trkpt lat="42.89852" lon="0.07357">
        <ele>1274</ele>
        <time>2020-12-05T16:14:26.947Z</time>
      </trkpt>
      <trkpt lat="42.89852" lon="0.07357">
        <ele>1274</ele>
        <time>2020-12-05T16:14:27.95Z</time>
      </trkpt>
      <trkpt lat="42.89852" lon="0.07357">
        <ele>1274</ele>
        <time>2020-12-05T16:14:28.947Z</time>
      </trkpt>
      <trkpt lat="42.89853" lon="0.07369">
        <ele>1275</ele>
        <time>2020-12-05T16:14:29.949Z</time>
      </trkpt>
      <trkpt lat="42.89853" lon="0.07369">
        <ele>1275</ele>
        <time>2020-12-05T16:14:30.949Z</time>
      </trkpt>
      <trkpt lat="42.89853" lon="0.07372">
        <ele>1275.2</ele>
        <time>2020-12-05T16:14:31.948Z</time>
      </trkpt>
      <trkpt lat="42.89853" lon="0.07372">
        <ele>1275.2</ele>
        <time>2020-12-05T16:14:32.947Z</time>
      </trkpt>
      <trkpt lat="42.89853" lon="0.07372">
        <ele>1275.2</ele>
        <time>2020-12-05T16:14:33.949Z</time>
      </trkpt>
      <trkpt lat="42.89853" lon="0.07372">
        <ele>1275.2</ele>
        <time>2020-12-05T16:14:34.948Z</time>
      </trkpt>
      <trkpt lat="42.89853" lon="0.07385">
        <ele>1276.4</ele>
        <time>2020-12-05T16:14:35.948Z</time>
      </trkpt>
      <trkpt lat="42.89853" lon="0.07385">
        <ele>1276.4</ele>
        <time>2020-12-05T16:14:36.949Z</time>
      </trkpt>
      <trkpt lat="42.89853" lon="0.07385">
        <ele>1276.4</ele>
        <time>2020-12-05T16:14:37.949Z</time>
      </trkpt>
      <trkpt lat="42.89853" lon="0.07385">
        <ele>1276.4</ele>
        <time>2020-12-05T16:14:38.948Z</time>
      </trkpt>
      <trkpt lat="42.89853" lon="0.07385">
        <ele>1276.4</ele>
        <time>2020-12-05T16:14:39.947Z</time>
      </trkpt>
      <trkpt lat="42.89853" lon="0.07385">
        <ele>1276.4</ele>
        <time>2020-12-05T16:14:40.95Z</time>
      </trkpt>
      <trkpt lat="42.89853" lon="0.07385">
        <ele>1276.4</ele>
        <time>2020-12-05T16:14:41.947Z</time>
      </trkpt>
      <trkpt lat="42.89855" lon="0.07401">
        <ele>1277.4</ele>
        <time>2020-12-05T16:14:42.948Z</time>
      </trkpt>
      <trkpt lat="42.89855" lon="0.07401">
        <ele>1277.4</ele>
        <time>2020-12-05T16:14:43.948Z</time>
      </trkpt>
      <trkpt lat="42.89854" lon="0.07405">
        <ele>1277.8</ele>
        <time>2020-12-05T16:14:44.948Z</time>
      </trkpt>
      <trkpt lat="42.89854" lon="0.07405">
        <ele>1277.8</ele>
        <time>2020-12-05T16:14:45.949Z</time>
      </trkpt>
      <trkpt lat="42.89854" lon="0.07405">
        <ele>1277.8</ele>
        <time>2020-12-05T16:14:46.949Z</time>
      </trkpt>
      <trkpt lat="42.89854" lon="0.07405">
        <ele>1277.8</ele>
        <time>2020-12-05T16:14:47.949Z</time>
      </trkpt>
      <trkpt lat="42.89854" lon="0.07405">
        <ele>1277.8</ele>
        <time>2020-12-05T16:14:48.949Z</time>
      </trkpt>
      <trkpt lat="42.89854" lon="0.07418">
        <ele>1278.4</ele>
        <time>2020-12-05T16:14:49.948Z</time>
      </trkpt>
      <trkpt lat="42.89854" lon="0.07418">
        <ele>1278.4</ele>
        <time>2020-12-05T16:14:50.948Z</time>
      </trkpt>
      <trkpt lat="42.89854" lon="0.07418">
        <ele>1278.4</ele>
        <time>2020-12-05T16:14:51.949Z</time>
      </trkpt>
      <trkpt lat="42.89854" lon="0.07418">
        <ele>1278.4</ele>
        <time>2020-12-05T16:14:52.947Z</time>
      </trkpt>
      <trkpt lat="42.89854" lon="0.07418">
        <ele>1278.4</ele>
        <time>2020-12-05T16:14:53.95Z</time>
      </trkpt>
      <trkpt lat="42.89854" lon="0.07418">
        <ele>1278.4</ele>
        <time>2020-12-05T16:14:54.949Z</time>
      </trkpt>
      <trkpt lat="42.89854" lon="0.07433">
        <ele>1279.6</ele>
        <time>2020-12-05T16:14:55.948Z</time>
      </trkpt>
      <trkpt lat="42.89854" lon="0.07433">
        <ele>1279.6</ele>
        <time>2020-12-05T16:14:56.947Z</time>
      </trkpt>
      <trkpt lat="42.89854" lon="0.07433">
        <ele>1279.6</ele>
        <time>2020-12-05T16:14:57.948Z</time>
      </trkpt>
      <trkpt lat="42.89854" lon="0.07441">
        <ele>1280.2</ele>
        <time>2020-12-05T16:14:58.947Z</time>
      </trkpt>
      <trkpt lat="42.89854" lon="0.07441">
        <ele>1280.2</ele>
        <time>2020-12-05T16:14:59.948Z</time>
      </trkpt>
      <trkpt lat="42.89854" lon="0.07441">
        <ele>1280.2</ele>
        <time>2020-12-05T16:15:00.949Z</time>
      </trkpt>
      <trkpt lat="42.89856" lon="0.07448">
        <ele>1280.8</ele>
        <time>2020-12-05T16:15:01.948Z</time>
      </trkpt>
      <trkpt lat="42.89856" lon="0.07448">
        <ele>1280.8</ele>
        <time>2020-12-05T16:15:02.949Z</time>
      </trkpt>
      <trkpt lat="42.89856" lon="0.07448">
        <ele>1280.8</ele>
        <time>2020-12-05T16:15:03.949Z</time>
      </trkpt>
      <trkpt lat="42.89856" lon="0.07448">
        <ele>1280.8</ele>
        <time>2020-12-05T16:15:04.949Z</time>
      </trkpt>
      <trkpt lat="42.89856" lon="0.07448">
        <ele>1280.8</ele>
        <time>2020-12-05T16:15:05.95Z</time>
      </trkpt>
      <trkpt lat="42.89856" lon="0.07448">
        <ele>1280.8</ele>
        <time>2020-12-05T16:15:06.947Z</time>
      </trkpt>
      <trkpt lat="42.89856" lon="0.07448">
        <ele>1280.8</ele>
        <time>2020-12-05T16:15:07.948Z</time>
      </trkpt>
      <trkpt lat="42.89858" lon="0.07465">
        <ele>1281.6</ele>
        <time>2020-12-05T16:15:08.949Z</time>
      </trkpt>
      <trkpt lat="42.89858" lon="0.07469">
        <ele>1281.8</ele>
        <time>2020-12-05T16:15:09.949Z</time>
      </trkpt>
      <trkpt lat="42.89858" lon="0.07469">
        <ele>1281.8</ele>
        <time>2020-12-05T16:15:10.949Z</time>
      </trkpt>
      <trkpt lat="42.89858" lon="0.07469">
        <ele>1281.8</ele>
        <time>2020-12-05T16:15:11.947Z</time>
      </trkpt>
      <trkpt lat="42.89858" lon="0.07469">
        <ele>1281.8</ele>
        <time>2020-12-05T16:15:12.948Z</time>
      </trkpt>
      <trkpt lat="42.89858" lon="0.07469">
        <ele>1281.8</ele>
        <time>2020-12-05T16:15:13.949Z</time>
      </trkpt>
      <trkpt lat="42.89858" lon="0.07469">
        <ele>1281.8</ele>
        <time>2020-12-05T16:15:14.949Z</time>
      </trkpt>
      <trkpt lat="42.89858" lon="0.07469">
        <ele>1281.8</ele>
        <time>2020-12-05T16:15:15.947Z</time>
      </trkpt>
      <trkpt lat="42.89858" lon="0.07469">
        <ele>1281.8</ele>
        <time>2020-12-05T16:15:16.948Z</time>
      </trkpt>
      <trkpt lat="42.89862" lon="0.07485">
        <ele>1282.8</ele>
        <time>2020-12-05T16:15:17.948Z</time>
      </trkpt>
      <trkpt lat="42.89862" lon="0.07485">
        <ele>1282.8</ele>
        <time>2020-12-05T16:15:18.95Z</time>
      </trkpt>
      <trkpt lat="42.89863" lon="0.0749">
        <ele>1283</ele>
        <time>2020-12-05T16:15:19.948Z</time>
      </trkpt>
      <trkpt lat="42.89863" lon="0.0749">
        <ele>1283</ele>
        <time>2020-12-05T16:15:20.949Z</time>
      </trkpt>
      <trkpt lat="42.89863" lon="0.0749">
        <ele>1283</ele>
        <time>2020-12-05T16:15:21.949Z</time>
      </trkpt>
      <trkpt lat="42.89863" lon="0.0749">
        <ele>1283</ele>
        <time>2020-12-05T16:15:22.948Z</time>
      </trkpt>
      <trkpt lat="42.89863" lon="0.0749">
        <ele>1283</ele>
        <time>2020-12-05T16:15:23.948Z</time>
      </trkpt>
      <trkpt lat="42.89863" lon="0.0749">
        <ele>1283</ele>
        <time>2020-12-05T16:15:24.949Z</time>
      </trkpt>
      <trkpt lat="42.89867" lon="0.07504">
        <ele>1284.2</ele>
        <time>2020-12-05T16:15:25.949Z</time>
      </trkpt>
      <trkpt lat="42.89867" lon="0.07504">
        <ele>1284.2</ele>
        <time>2020-12-05T16:15:26.947Z</time>
      </trkpt>
      <trkpt lat="42.89867" lon="0.07504">
        <ele>1284.2</ele>
        <time>2020-12-05T16:15:27.949Z</time>
      </trkpt>
      <trkpt lat="42.89867" lon="0.07504">
        <ele>1284.2</ele>
        <time>2020-12-05T16:15:28.948Z</time>
      </trkpt>
      <trkpt lat="42.89867" lon="0.07504">
        <ele>1284.2</ele>
        <time>2020-12-05T16:15:29.949Z</time>
      </trkpt>
      <trkpt lat="42.89867" lon="0.07504">
        <ele>1284.2</ele>
        <time>2020-12-05T16:15:30.948Z</time>
      </trkpt>
      <trkpt lat="42.89867" lon="0.07504">
        <ele>1284.2</ele>
        <time>2020-12-05T16:15:31.948Z</time>
      </trkpt>
      <trkpt lat="42.89874" lon="0.07519">
        <ele>1285.2</ele>
        <time>2020-12-05T16:15:32.947Z</time>
      </trkpt>
      <trkpt lat="42.89874" lon="0.07519">
        <ele>1285.2</ele>
        <time>2020-12-05T16:15:33.947Z</time>
      </trkpt>
      <trkpt lat="42.89874" lon="0.07519">
        <ele>1285.2</ele>
        <time>2020-12-05T16:15:34.948Z</time>
      </trkpt>
      <trkpt lat="42.89874" lon="0.07519">
        <ele>1285.2</ele>
        <time>2020-12-05T16:15:35.949Z</time>
      </trkpt>
      <trkpt lat="42.89874" lon="0.07519">
        <ele>1285.2</ele>
        <time>2020-12-05T16:15:36.949Z</time>
      </trkpt>
      <trkpt lat="42.89874" lon="0.07519">
        <ele>1285.2</ele>
        <time>2020-12-05T16:15:37.948Z</time>
      </trkpt>
      <trkpt lat="42.89874" lon="0.07519">
        <ele>1285.2</ele>
        <time>2020-12-05T16:15:38.948Z</time>
      </trkpt>
      <trkpt lat="42.89874" lon="0.07519">
        <ele>1285.2</ele>
        <time>2020-12-05T16:15:39.948Z</time>
      </trkpt>
      <trkpt lat="42.89884" lon="0.07534">
        <ele>1286.2</ele>
        <time>2020-12-05T16:15:40.948Z</time>
      </trkpt>
      <trkpt lat="42.89884" lon="0.07534">
        <ele>1286.2</ele>
        <time>2020-12-05T16:15:41.948Z</time>
      </trkpt>
      <trkpt lat="42.89884" lon="0.07534">
        <ele>1286.2</ele>
        <time>2020-12-05T16:15:42.949Z</time>
      </trkpt>
      <trkpt lat="42.89884" lon="0.07534">
        <ele>1286.2</ele>
        <time>2020-12-05T16:15:43.949Z</time>
      </trkpt>
      <trkpt lat="42.89889" lon="0.07544">
        <ele>1287.2</ele>
        <time>2020-12-05T16:15:44.948Z</time>
      </trkpt>
      <trkpt lat="42.89889" lon="0.07544">
        <ele>1287.2</ele>
        <time>2020-12-05T16:15:45.948Z</time>
      </trkpt>
      <trkpt lat="42.89891" lon="0.07547">
        <ele>1287.4</ele>
        <time>2020-12-05T16:15:46.948Z</time>
      </trkpt>
      <trkpt lat="42.89891" lon="0.07547">
        <ele>1287.4</ele>
        <time>2020-12-05T16:15:47.948Z</time>
      </trkpt>
      <trkpt lat="42.89891" lon="0.07547">
        <ele>1287.4</ele>
        <time>2020-12-05T16:15:48.95Z</time>
      </trkpt>
      <trkpt lat="42.89891" lon="0.07547">
        <ele>1287.4</ele>
        <time>2020-12-05T16:15:49.948Z</time>
      </trkpt>
      <trkpt lat="42.89891" lon="0.07547">
        <ele>1287.4</ele>
        <time>2020-12-05T16:15:50.949Z</time>
      </trkpt>
      <trkpt lat="42.89891" lon="0.07547">
        <ele>1287.4</ele>
        <time>2020-12-05T16:15:51.948Z</time>
      </trkpt>
      <trkpt lat="42.89891" lon="0.07547">
        <ele>1287.4</ele>
        <time>2020-12-05T16:15:52.95Z</time>
      </trkpt>
      <trkpt lat="42.89897" lon="0.07561">
        <ele>1288.4</ele>
        <time>2020-12-05T16:15:53.947Z</time>
      </trkpt>
      <trkpt lat="42.89897" lon="0.07561">
        <ele>1288.4</ele>
        <time>2020-12-05T16:15:54.949Z</time>
      </trkpt>
      <trkpt lat="42.89899" lon="0.07564">
        <ele>1288.8</ele>
        <time>2020-12-05T16:15:55.948Z</time>
      </trkpt>
      <trkpt lat="42.89899" lon="0.07564">
        <ele>1288.8</ele>
        <time>2020-12-05T16:15:56.95Z</time>
      </trkpt>
      <trkpt lat="42.89899" lon="0.07564">
        <ele>1288.8</ele>
        <time>2020-12-05T16:15:57.95Z</time>
      </trkpt>
      <trkpt lat="42.89899" lon="0.07564">
        <ele>1288.8</ele>
        <time>2020-12-05T16:15:58.948Z</time>
      </trkpt>
      <trkpt lat="42.89899" lon="0.07564">
        <ele>1288.8</ele>
        <time>2020-12-05T16:15:59.948Z</time>
      </trkpt>
      <trkpt lat="42.89903" lon="0.07571">
        <ele>1289.6</ele>
        <time>2020-12-05T16:16:00.947Z</time>
      </trkpt>
      <trkpt lat="42.89903" lon="0.07571">
        <ele>1289.6</ele>
        <time>2020-12-05T16:16:01.95Z</time>
      </trkpt>
      <trkpt lat="42.89903" lon="0.07571">
        <ele>1289.6</ele>
        <time>2020-12-05T16:16:02.948Z</time>
      </trkpt>
      <trkpt lat="42.89903" lon="0.07571">
        <ele>1289.6</ele>
        <time>2020-12-05T16:16:03.948Z</time>
      </trkpt>
      <trkpt lat="42.89903" lon="0.07571">
        <ele>1289.6</ele>
        <time>2020-12-05T16:16:04.947Z</time>
      </trkpt>
      <trkpt lat="42.89903" lon="0.07571">
        <ele>1289.6</ele>
        <time>2020-12-05T16:16:05.95Z</time>
      </trkpt>
      <trkpt lat="42.89908" lon="0.07581">
        <ele>1290.6</ele>
        <time>2020-12-05T16:16:06.948Z</time>
      </trkpt>
      <trkpt lat="42.89908" lon="0.07581">
        <ele>1290.6</ele>
        <time>2020-12-05T16:16:07.949Z</time>
      </trkpt>
      <trkpt lat="42.89908" lon="0.07581">
        <ele>1290.6</ele>
        <time>2020-12-05T16:16:08.949Z</time>
      </trkpt>
      <trkpt lat="42.89908" lon="0.07581">
        <ele>1290.6</ele>
        <time>2020-12-05T16:16:09.95Z</time>
      </trkpt>
      <trkpt lat="42.89913" lon="0.07591">
        <ele>1291.6</ele>
        <time>2020-12-05T16:16:10.948Z</time>
      </trkpt>
      <trkpt lat="42.89913" lon="0.07591">
        <ele>1291.6</ele>
        <time>2020-12-05T16:16:11.948Z</time>
      </trkpt>
      <trkpt lat="42.89913" lon="0.07591">
        <ele>1291.6</ele>
        <time>2020-12-05T16:16:12.949Z</time>
      </trkpt>
      <trkpt lat="42.89913" lon="0.07591">
        <ele>1291.6</ele>
        <time>2020-12-05T16:16:13.948Z</time>
      </trkpt>
      <trkpt lat="42.89913" lon="0.07591">
        <ele>1291.6</ele>
        <time>2020-12-05T16:16:14.949Z</time>
      </trkpt>
      <trkpt lat="42.89913" lon="0.07591">
        <ele>1291.6</ele>
        <time>2020-12-05T16:16:15.948Z</time>
      </trkpt>
      <trkpt lat="42.89913" lon="0.07591">
        <ele>1291.6</ele>
        <time>2020-12-05T16:16:16.949Z</time>
      </trkpt>
      <trkpt lat="42.8992" lon="0.07604">
        <ele>1292.8</ele>
        <time>2020-12-05T16:16:17.948Z</time>
      </trkpt>
      <trkpt lat="42.8992" lon="0.07604">
        <ele>1292.8</ele>
        <time>2020-12-05T16:16:18.947Z</time>
      </trkpt>
      <trkpt lat="42.8992" lon="0.07604">
        <ele>1292.8</ele>
        <time>2020-12-05T16:16:19.948Z</time>
      </trkpt>
      <trkpt lat="42.8992" lon="0.07604">
        <ele>1292.8</ele>
        <time>2020-12-05T16:16:20.948Z</time>
      </trkpt>
      <trkpt lat="42.89923" lon="0.0761">
        <ele>1293.2</ele>
        <time>2020-12-05T16:16:21.947Z</time>
      </trkpt>
      <trkpt lat="42.89923" lon="0.0761">
        <ele>1293.2</ele>
        <time>2020-12-05T16:16:22.95Z</time>
      </trkpt>
      <trkpt lat="42.89923" lon="0.0761">
        <ele>1293.2</ele>
        <time>2020-12-05T16:16:23.948Z</time>
      </trkpt>
      <trkpt lat="42.89923" lon="0.0761">
        <ele>1293.2</ele>
        <time>2020-12-05T16:16:24.947Z</time>
      </trkpt>
      <trkpt lat="42.89923" lon="0.0761">
        <ele>1293.2</ele>
        <time>2020-12-05T16:16:25.947Z</time>
      </trkpt>
      <trkpt lat="42.89929" lon="0.0762">
        <ele>1293.8</ele>
        <time>2020-12-05T16:16:26.948Z</time>
      </trkpt>
      <trkpt lat="42.89929" lon="0.0762">
        <ele>1293.8</ele>
        <time>2020-12-05T16:16:27.95Z</time>
      </trkpt>
      <trkpt lat="42.89929" lon="0.0762">
        <ele>1293.8</ele>
        <time>2020-12-05T16:16:28.947Z</time>
      </trkpt>
      <trkpt lat="42.89929" lon="0.0762">
        <ele>1293.8</ele>
        <time>2020-12-05T16:16:29.947Z</time>
      </trkpt>
      <trkpt lat="42.89931" lon="0.07625">
        <ele>1294.6</ele>
        <time>2020-12-05T16:16:30.948Z</time>
      </trkpt>
      <trkpt lat="42.89932" lon="0.07628">
        <ele>1294.8</ele>
        <time>2020-12-05T16:16:31.948Z</time>
      </trkpt>
      <trkpt lat="42.89932" lon="0.07628">
        <ele>1294.8</ele>
        <time>2020-12-05T16:16:32.947Z</time>
      </trkpt>
      <trkpt lat="42.89932" lon="0.07628">
        <ele>1294.8</ele>
        <time>2020-12-05T16:16:33.949Z</time>
      </trkpt>
      <trkpt lat="42.89932" lon="0.07628">
        <ele>1294.8</ele>
        <time>2020-12-05T16:16:34.949Z</time>
      </trkpt>
      <trkpt lat="42.89932" lon="0.07628">
        <ele>1294.8</ele>
        <time>2020-12-05T16:16:35.948Z</time>
      </trkpt>
      <trkpt lat="42.89932" lon="0.07628">
        <ele>1294.8</ele>
        <time>2020-12-05T16:16:36.948Z</time>
      </trkpt>
      <trkpt lat="42.89932" lon="0.07628">
        <ele>1294.8</ele>
        <time>2020-12-05T16:16:37.949Z</time>
      </trkpt>
      <trkpt lat="42.89938" lon="0.07641">
        <ele>1296</ele>
        <time>2020-12-05T16:16:38.949Z</time>
      </trkpt>
      <trkpt lat="42.89939" lon="0.07645">
        <ele>1296.2</ele>
        <time>2020-12-05T16:16:39.948Z</time>
      </trkpt>
      <trkpt lat="42.89939" lon="0.07645">
        <ele>1296.2</ele>
        <time>2020-12-05T16:16:40.948Z</time>
      </trkpt>
      <trkpt lat="42.89939" lon="0.07645">
        <ele>1296.2</ele>
        <time>2020-12-05T16:16:41.949Z</time>
      </trkpt>
      <trkpt lat="42.89939" lon="0.07645">
        <ele>1296.2</ele>
        <time>2020-12-05T16:16:42.949Z</time>
      </trkpt>
      <trkpt lat="42.89939" lon="0.07645">
        <ele>1296.2</ele>
        <time>2020-12-05T16:16:43.949Z</time>
      </trkpt>
      <trkpt lat="42.89939" lon="0.07645">
        <ele>1296.2</ele>
        <time>2020-12-05T16:16:44.948Z</time>
      </trkpt>
      <trkpt lat="42.89942" lon="0.07656">
        <ele>1297</ele>
        <time>2020-12-05T16:16:45.948Z</time>
      </trkpt>
      <trkpt lat="42.89942" lon="0.07656">
        <ele>1297</ele>
        <time>2020-12-05T16:16:46.951Z</time>
      </trkpt>
      <trkpt lat="42.89942" lon="0.07656">
        <ele>1297</ele>
        <time>2020-12-05T16:16:47.949Z</time>
      </trkpt>
      <trkpt lat="42.89942" lon="0.07656">
        <ele>1297</ele>
        <time>2020-12-05T16:16:48.948Z</time>
      </trkpt>
      <trkpt lat="42.89942" lon="0.07656">
        <ele>1297</ele>
        <time>2020-12-05T16:16:49.947Z</time>
      </trkpt>
      <trkpt lat="42.89942" lon="0.07656">
        <ele>1297</ele>
        <time>2020-12-05T16:16:50.947Z</time>
      </trkpt>
      <trkpt lat="42.89945" lon="0.07671">
        <ele>1298.2</ele>
        <time>2020-12-05T16:16:51.947Z</time>
      </trkpt>
      <trkpt lat="42.89945" lon="0.07671">
        <ele>1298.2</ele>
        <time>2020-12-05T16:16:52.948Z</time>
      </trkpt>
      <trkpt lat="42.89945" lon="0.07671">
        <ele>1298.2</ele>
        <time>2020-12-05T16:16:53.949Z</time>
      </trkpt>
      <trkpt lat="42.89945" lon="0.07671">
        <ele>1298.2</ele>
        <time>2020-12-05T16:16:54.947Z</time>
      </trkpt>
      <trkpt lat="42.89945" lon="0.07671">
        <ele>1298.2</ele>
        <time>2020-12-05T16:16:55.947Z</time>
      </trkpt>
      <trkpt lat="42.89945" lon="0.07671">
        <ele>1298.2</ele>
        <time>2020-12-05T16:16:56.948Z</time>
      </trkpt>
      <trkpt lat="42.89945" lon="0.07671">
        <ele>1298.2</ele>
        <time>2020-12-05T16:16:57.948Z</time>
      </trkpt>
      <trkpt lat="42.89948" lon="0.07684">
        <ele>1299.4</ele>
        <time>2020-12-05T16:16:58.948Z</time>
      </trkpt>
      <trkpt lat="42.89948" lon="0.07684">
        <ele>1299.4</ele>
        <time>2020-12-05T16:16:59.948Z</time>
      </trkpt>
      <trkpt lat="42.89948" lon="0.07684">
        <ele>1299.4</ele>
        <time>2020-12-05T16:17:00.949Z</time>
      </trkpt>
      <trkpt lat="42.89948" lon="0.07684">
        <ele>1299.4</ele>
        <time>2020-12-05T16:17:01.949Z</time>
      </trkpt>
      <trkpt lat="42.89948" lon="0.07684">
        <ele>1299.4</ele>
        <time>2020-12-05T16:17:02.949Z</time>
      </trkpt>
      <trkpt lat="42.89951" lon="0.07695">
        <ele>1300.2</ele>
        <time>2020-12-05T16:17:03.949Z</time>
      </trkpt>
      <trkpt lat="42.89951" lon="0.07695">
        <ele>1300.2</ele>
        <time>2020-12-05T16:17:04.949Z</time>
      </trkpt>
      <trkpt lat="42.89951" lon="0.07699">
        <ele>1300.4</ele>
        <time>2020-12-05T16:17:05.95Z</time>
      </trkpt>
      <trkpt lat="42.89951" lon="0.07699">
        <ele>1300.4</ele>
        <time>2020-12-05T16:17:06.948Z</time>
      </trkpt>
      <trkpt lat="42.89951" lon="0.07699">
        <ele>1300.4</ele>
        <time>2020-12-05T16:17:07.949Z</time>
      </trkpt>
      <trkpt lat="42.89951" lon="0.07699">
        <ele>1300.4</ele>
        <time>2020-12-05T16:17:08.947Z</time>
      </trkpt>
      <trkpt lat="42.89951" lon="0.07699">
        <ele>1300.4</ele>
        <time>2020-12-05T16:17:09.948Z</time>
      </trkpt>
      <trkpt lat="42.89951" lon="0.07699">
        <ele>1300.4</ele>
        <time>2020-12-05T16:17:10.947Z</time>
      </trkpt>
      <trkpt lat="42.89951" lon="0.07699">
        <ele>1300.4</ele>
        <time>2020-12-05T16:17:11.949Z</time>
      </trkpt>
      <trkpt lat="42.89953" lon="0.07716">
        <ele>1301.8</ele>
        <time>2020-12-05T16:17:12.948Z</time>
      </trkpt>
      <trkpt lat="42.89953" lon="0.07716">
        <ele>1301.8</ele>
        <time>2020-12-05T16:17:13.95Z</time>
      </trkpt>
      <trkpt lat="42.89953" lon="0.07716">
        <ele>1301.8</ele>
        <time>2020-12-05T16:17:14.948Z</time>
      </trkpt>
      <trkpt lat="42.89953" lon="0.07716">
        <ele>1301.8</ele>
        <time>2020-12-05T16:17:15.948Z</time>
      </trkpt>
      <trkpt lat="42.89953" lon="0.07716">
        <ele>1301.8</ele>
        <time>2020-12-05T16:17:16.949Z</time>
      </trkpt>
      <trkpt lat="42.89953" lon="0.07716">
        <ele>1301.8</ele>
        <time>2020-12-05T16:17:17.947Z</time>
      </trkpt>
      <trkpt lat="42.89953" lon="0.07716">
        <ele>1301.8</ele>
        <time>2020-12-05T16:17:18.948Z</time>
      </trkpt>
      <trkpt lat="42.89953" lon="0.07716">
        <ele>1301.8</ele>
        <time>2020-12-05T16:17:19.948Z</time>
      </trkpt>
      <trkpt lat="42.89953" lon="0.07716">
        <ele>1301.8</ele>
        <time>2020-12-05T16:17:20.949Z</time>
      </trkpt>
      <trkpt lat="42.89953" lon="0.07716">
        <ele>1301.8</ele>
        <time>2020-12-05T16:17:21.949Z</time>
      </trkpt>
      <trkpt lat="42.89957" lon="0.07735">
        <ele>1302.6</ele>
        <time>2020-12-05T16:17:22.948Z</time>
      </trkpt>
      <trkpt lat="42.89957" lon="0.07735">
        <ele>1302.6</ele>
        <time>2020-12-05T16:17:23.948Z</time>
      </trkpt>
      <trkpt lat="42.89958" lon="0.07739">
        <ele>1302.8</ele>
        <time>2020-12-05T16:17:24.948Z</time>
      </trkpt>
      <trkpt lat="42.89958" lon="0.07739">
        <ele>1302.8</ele>
        <time>2020-12-05T16:17:25.948Z</time>
      </trkpt>
      <trkpt lat="42.89958" lon="0.07739">
        <ele>1302.8</ele>
        <time>2020-12-05T16:17:26.948Z</time>
      </trkpt>
      <trkpt lat="42.89958" lon="0.07739">
        <ele>1302.8</ele>
        <time>2020-12-05T16:17:27.947Z</time>
      </trkpt>
      <trkpt lat="42.89958" lon="0.07739">
        <ele>1302.8</ele>
        <time>2020-12-05T16:17:28.949Z</time>
      </trkpt>
      <trkpt lat="42.89958" lon="0.07739">
        <ele>1302.8</ele>
        <time>2020-12-05T16:17:29.949Z</time>
      </trkpt>
      <trkpt lat="42.89958" lon="0.07739">
        <ele>1302.8</ele>
        <time>2020-12-05T16:17:30.947Z</time>
      </trkpt>
      <trkpt lat="42.89961" lon="0.07753">
        <ele>1304</ele>
        <time>2020-12-05T16:17:31.948Z</time>
      </trkpt>
      <trkpt lat="42.89961" lon="0.07753">
        <ele>1304</ele>
        <time>2020-12-05T16:17:32.949Z</time>
      </trkpt>
      <trkpt lat="42.89961" lon="0.07753">
        <ele>1304</ele>
        <time>2020-12-05T16:17:33.949Z</time>
      </trkpt>
      <trkpt lat="42.89962" lon="0.07756">
        <ele>1304.2</ele>
        <time>2020-12-05T16:17:34.948Z</time>
      </trkpt>
      <trkpt lat="42.89962" lon="0.07756">
        <ele>1304.2</ele>
        <time>2020-12-05T16:17:35.947Z</time>
      </trkpt>
      <trkpt lat="42.89962" lon="0.07756">
        <ele>1304.2</ele>
        <time>2020-12-05T16:17:36.949Z</time>
      </trkpt>
      <trkpt lat="42.89962" lon="0.07756">
        <ele>1304.2</ele>
        <time>2020-12-05T16:17:37.947Z</time>
      </trkpt>
      <trkpt lat="42.89962" lon="0.07756">
        <ele>1304.2</ele>
        <time>2020-12-05T16:17:38.948Z</time>
      </trkpt>
      <trkpt lat="42.89963" lon="0.07768">
        <ele>1305.2</ele>
        <time>2020-12-05T16:17:39.949Z</time>
      </trkpt>
      <trkpt lat="42.89963" lon="0.07768">
        <ele>1305.2</ele>
        <time>2020-12-05T16:17:40.947Z</time>
      </trkpt>
      <trkpt lat="42.89963" lon="0.07772">
        <ele>1305.6</ele>
        <time>2020-12-05T16:17:41.949Z</time>
      </trkpt>
      <trkpt lat="42.89963" lon="0.07772">
        <ele>1305.6</ele>
        <time>2020-12-05T16:17:42.948Z</time>
      </trkpt>
      <trkpt lat="42.89963" lon="0.07772">
        <ele>1305.6</ele>
        <time>2020-12-05T16:17:43.948Z</time>
      </trkpt>
      <trkpt lat="42.89964" lon="0.07779">
        <ele>1306</ele>
        <time>2020-12-05T16:17:44.947Z</time>
      </trkpt>
      <trkpt lat="42.89964" lon="0.07779">
        <ele>1306</ele>
        <time>2020-12-05T16:17:45.949Z</time>
      </trkpt>
      <trkpt lat="42.89964" lon="0.07779">
        <ele>1306</ele>
        <time>2020-12-05T16:17:46.949Z</time>
      </trkpt>
      <trkpt lat="42.89964" lon="0.07779">
        <ele>1306</ele>
        <time>2020-12-05T16:17:47.948Z</time>
      </trkpt>
      <trkpt lat="42.89964" lon="0.07779">
        <ele>1306</ele>
        <time>2020-12-05T16:17:48.949Z</time>
      </trkpt>
      <trkpt lat="42.89964" lon="0.07779">
        <ele>1306</ele>
        <time>2020-12-05T16:17:49.948Z</time>
      </trkpt>
      <trkpt lat="42.89964" lon="0.07779">
        <ele>1306</ele>
        <time>2020-12-05T16:17:50.949Z</time>
      </trkpt>
      <trkpt lat="42.89964" lon="0.07779">
        <ele>1306</ele>
        <time>2020-12-05T16:17:51.948Z</time>
      </trkpt>
      <trkpt lat="42.89967" lon="0.07796">
        <ele>1307.4</ele>
        <time>2020-12-05T16:17:52.947Z</time>
      </trkpt>
      <trkpt lat="42.89967" lon="0.07796">
        <ele>1307.4</ele>
        <time>2020-12-05T16:17:53.949Z</time>
      </trkpt>
      <trkpt lat="42.89967" lon="0.07796">
        <ele>1307.4</ele>
        <time>2020-12-05T16:17:54.947Z</time>
      </trkpt>
      <trkpt lat="42.89967" lon="0.07796">
        <ele>1307.4</ele>
        <time>2020-12-05T16:17:55.948Z</time>
      </trkpt>
      <trkpt lat="42.89967" lon="0.07796">
        <ele>1307.4</ele>
        <time>2020-12-05T16:17:56.948Z</time>
      </trkpt>
      <trkpt lat="42.89967" lon="0.07796">
        <ele>1307.4</ele>
        <time>2020-12-05T16:17:57.948Z</time>
      </trkpt>
      <trkpt lat="42.89967" lon="0.07796">
        <ele>1307.4</ele>
        <time>2020-12-05T16:17:58.949Z</time>
      </trkpt>
      <trkpt lat="42.89967" lon="0.07796">
        <ele>1307.4</ele>
        <time>2020-12-05T16:17:59.947Z</time>
      </trkpt>
      <trkpt lat="42.89969" lon="0.07813">
        <ele>1308.6</ele>
        <time>2020-12-05T16:18:00.947Z</time>
      </trkpt>
      <trkpt lat="42.89969" lon="0.07813">
        <ele>1308.6</ele>
        <time>2020-12-05T16:18:01.947Z</time>
      </trkpt>
      <trkpt lat="42.89969" lon="0.07813">
        <ele>1308.6</ele>
        <time>2020-12-05T16:18:02.949Z</time>
      </trkpt>
      <trkpt lat="42.89969" lon="0.07813">
        <ele>1308.6</ele>
        <time>2020-12-05T16:18:03.949Z</time>
      </trkpt>
      <trkpt lat="42.89969" lon="0.07813">
        <ele>1308.6</ele>
        <time>2020-12-05T16:18:04.949Z</time>
      </trkpt>
      <trkpt lat="42.89971" lon="0.07825">
        <ele>1309.6</ele>
        <time>2020-12-05T16:18:05.949Z</time>
      </trkpt>
      <trkpt lat="42.89971" lon="0.07825">
        <ele>1309.6</ele>
        <time>2020-12-05T16:18:06.949Z</time>
      </trkpt>
      <trkpt lat="42.89972" lon="0.07829">
        <ele>1310</ele>
        <time>2020-12-05T16:18:07.949Z</time>
      </trkpt>
      <trkpt lat="42.89972" lon="0.07829">
        <ele>1310</ele>
        <time>2020-12-05T16:18:08.948Z</time>
      </trkpt>
      <trkpt lat="42.89972" lon="0.07829">
        <ele>1310</ele>
        <time>2020-12-05T16:18:09.95Z</time>
      </trkpt>
      <trkpt lat="42.89972" lon="0.07829">
        <ele>1310</ele>
        <time>2020-12-05T16:18:10.949Z</time>
      </trkpt>
      <trkpt lat="42.89972" lon="0.07829">
        <ele>1310</ele>
        <time>2020-12-05T16:18:11.948Z</time>
      </trkpt>
      <trkpt lat="42.89972" lon="0.07829">
        <ele>1310</ele>
        <time>2020-12-05T16:18:12.949Z</time>
      </trkpt>
      <trkpt lat="42.89972" lon="0.07829">
        <ele>1310</ele>
        <time>2020-12-05T16:18:13.95Z</time>
      </trkpt>
      <trkpt lat="42.89976" lon="0.07843">
        <ele>1311.2</ele>
        <time>2020-12-05T16:18:14.947Z</time>
      </trkpt>
      <trkpt lat="42.89976" lon="0.07843">
        <ele>1311.2</ele>
        <time>2020-12-05T16:18:15.948Z</time>
      </trkpt>
      <trkpt lat="42.89976" lon="0.07843">
        <ele>1311.2</ele>
        <time>2020-12-05T16:18:16.949Z</time>
      </trkpt>
      <trkpt lat="42.89977" lon="0.0785">
        <ele>1311.8</ele>
        <time>2020-12-05T16:18:17.949Z</time>
      </trkpt>
      <trkpt lat="42.89977" lon="0.0785">
        <ele>1311.8</ele>
        <time>2020-12-05T16:18:18.949Z</time>
      </trkpt>
      <trkpt lat="42.89977" lon="0.0785">
        <ele>1311.8</ele>
        <time>2020-12-05T16:18:19.948Z</time>
      </trkpt>
      <trkpt lat="42.89979" lon="0.07858">
        <ele>1312.2</ele>
        <time>2020-12-05T16:18:20.948Z</time>
      </trkpt>
      <trkpt lat="42.89979" lon="0.07858">
        <ele>1312.2</ele>
        <time>2020-12-05T16:18:21.947Z</time>
      </trkpt>
      <trkpt lat="42.89979" lon="0.07858">
        <ele>1312.2</ele>
        <time>2020-12-05T16:18:22.949Z</time>
      </trkpt>
      <trkpt lat="42.89979" lon="0.07858">
        <ele>1312.2</ele>
        <time>2020-12-05T16:18:23.948Z</time>
      </trkpt>
      <trkpt lat="42.89979" lon="0.07858">
        <ele>1312.2</ele>
        <time>2020-12-05T16:18:24.949Z</time>
      </trkpt>
      <trkpt lat="42.89979" lon="0.07858">
        <ele>1312.2</ele>
        <time>2020-12-05T16:18:25.948Z</time>
      </trkpt>
      <trkpt lat="42.89979" lon="0.07858">
        <ele>1312.2</ele>
        <time>2020-12-05T16:18:26.95Z</time>
      </trkpt>
      <trkpt lat="42.89982" lon="0.07873">
        <ele>1313.4</ele>
        <time>2020-12-05T16:18:27.948Z</time>
      </trkpt>
      <trkpt lat="42.89982" lon="0.07873">
        <ele>1313.4</ele>
        <time>2020-12-05T16:18:28.947Z</time>
      </trkpt>
      <trkpt lat="42.89982" lon="0.07873">
        <ele>1313.4</ele>
        <time>2020-12-05T16:18:29.947Z</time>
      </trkpt>
      <trkpt lat="42.89982" lon="0.07873">
        <ele>1313.4</ele>
        <time>2020-12-05T16:18:30.948Z</time>
      </trkpt>
      <trkpt lat="42.89982" lon="0.07873">
        <ele>1313.4</ele>
        <time>2020-12-05T16:18:31.947Z</time>
      </trkpt>
      <trkpt lat="42.89982" lon="0.07873">
        <ele>1313.4</ele>
        <time>2020-12-05T16:18:32.949Z</time>
      </trkpt>
      <trkpt lat="42.89986" lon="0.07886">
        <ele>1314.4</ele>
        <time>2020-12-05T16:18:33.948Z</time>
      </trkpt>
      <trkpt lat="42.89986" lon="0.07886">
        <ele>1314.4</ele>
        <time>2020-12-05T16:18:34.947Z</time>
      </trkpt>
      <trkpt lat="42.89989" lon="0.07889">
        <ele>1314.4</ele>
        <time>2020-12-05T16:18:35.949Z</time>
      </trkpt>
      <trkpt lat="42.89989" lon="0.07889">
        <ele>1314.4</ele>
        <time>2020-12-05T16:18:36.948Z</time>
      </trkpt>
      <trkpt lat="42.89989" lon="0.07889">
        <ele>1314.4</ele>
        <time>2020-12-05T16:18:37.949Z</time>
      </trkpt>
      <trkpt lat="42.89989" lon="0.07889">
        <ele>1314.4</ele>
        <time>2020-12-05T16:18:38.948Z</time>
      </trkpt>
      <trkpt lat="42.89989" lon="0.07889">
        <ele>1314.4</ele>
        <time>2020-12-05T16:18:39.948Z</time>
      </trkpt>
      <trkpt lat="42.89995" lon="0.07898">
        <ele>1315.6</ele>
        <time>2020-12-05T16:18:40.949Z</time>
      </trkpt>
      <trkpt lat="42.89995" lon="0.07898">
        <ele>1315.6</ele>
        <time>2020-12-05T16:18:41.949Z</time>
      </trkpt>
      <trkpt lat="42.89995" lon="0.07898">
        <ele>1315.6</ele>
        <time>2020-12-05T16:18:42.948Z</time>
      </trkpt>
      <trkpt lat="42.89995" lon="0.07898">
        <ele>1315.6</ele>
        <time>2020-12-05T16:18:43.95Z</time>
      </trkpt>
      <trkpt lat="42.89995" lon="0.07898">
        <ele>1315.6</ele>
        <time>2020-12-05T16:18:44.947Z</time>
      </trkpt>
      <trkpt lat="42.89995" lon="0.07898">
        <ele>1315.6</ele>
        <time>2020-12-05T16:18:45.947Z</time>
      </trkpt>
      <trkpt lat="42.89999" lon="0.0791">
        <ele>1316.6</ele>
        <time>2020-12-05T16:18:46.947Z</time>
      </trkpt>
      <trkpt lat="42.89999" lon="0.0791">
        <ele>1316.6</ele>
        <time>2020-12-05T16:18:47.948Z</time>
      </trkpt>
      <trkpt lat="42.89999" lon="0.0791">
        <ele>1316.6</ele>
        <time>2020-12-05T16:18:48.948Z</time>
      </trkpt>
      <trkpt lat="42.89999" lon="0.0791">
        <ele>1316.6</ele>
        <time>2020-12-05T16:18:49.949Z</time>
      </trkpt>
      <trkpt lat="42.89999" lon="0.0791">
        <ele>1316.6</ele>
        <time>2020-12-05T16:18:50.949Z</time>
      </trkpt>
      <trkpt lat="42.89999" lon="0.0791">
        <ele>1316.6</ele>
        <time>2020-12-05T16:18:51.949Z</time>
      </trkpt>
      <trkpt lat="42.90005" lon="0.07921">
        <ele>1317.4</ele>
        <time>2020-12-05T16:18:52.949Z</time>
      </trkpt>
      <trkpt lat="42.90005" lon="0.07921">
        <ele>1317.4</ele>
        <time>2020-12-05T16:18:53.948Z</time>
      </trkpt>
      <trkpt lat="42.90005" lon="0.07921">
        <ele>1317.4</ele>
        <time>2020-12-05T16:18:54.949Z</time>
      </trkpt>
      <trkpt lat="42.90005" lon="0.07921">
        <ele>1317.4</ele>
        <time>2020-12-05T16:18:55.948Z</time>
      </trkpt>
      <trkpt lat="42.90005" lon="0.07921">
        <ele>1317.4</ele>
        <time>2020-12-05T16:18:56.948Z</time>
      </trkpt>
      <trkpt lat="42.90005" lon="0.07921">
        <ele>1317.4</ele>
        <time>2020-12-05T16:18:57.948Z</time>
      </trkpt>
      <trkpt lat="42.90008" lon="0.07931">
        <ele>1318.2</ele>
        <time>2020-12-05T16:18:58.949Z</time>
      </trkpt>
      <trkpt lat="42.9001" lon="0.07935">
        <ele>1318.4</ele>
        <time>2020-12-05T16:18:59.948Z</time>
      </trkpt>
      <trkpt lat="42.9001" lon="0.07935">
        <ele>1318.4</ele>
        <time>2020-12-05T16:19:00.95Z</time>
      </trkpt>
      <trkpt lat="42.9001" lon="0.07935">
        <ele>1318.4</ele>
        <time>2020-12-05T16:19:01.947Z</time>
      </trkpt>
      <trkpt lat="42.9001" lon="0.07935">
        <ele>1318.4</ele>
        <time>2020-12-05T16:19:02.947Z</time>
      </trkpt>
      <trkpt lat="42.9001" lon="0.07935">
        <ele>1318.4</ele>
        <time>2020-12-05T16:19:03.948Z</time>
      </trkpt>
      <trkpt lat="42.9001" lon="0.07935">
        <ele>1318.4</ele>
        <time>2020-12-05T16:19:04.949Z</time>
      </trkpt>
      <trkpt lat="42.9001" lon="0.07935">
        <ele>1318.4</ele>
        <time>2020-12-05T16:19:05.949Z</time>
      </trkpt>
      <trkpt lat="42.9001" lon="0.07935">
        <ele>1318.4</ele>
        <time>2020-12-05T16:19:06.949Z</time>
      </trkpt>
      <trkpt lat="42.90015" lon="0.0795">
        <ele>1319.6</ele>
        <time>2020-12-05T16:19:07.948Z</time>
      </trkpt>
      <trkpt lat="42.90015" lon="0.0795">
        <ele>1319.6</ele>
        <time>2020-12-05T16:19:08.947Z</time>
      </trkpt>
      <trkpt lat="42.90017" lon="0.07954">
        <ele>1319.8</ele>
        <time>2020-12-05T16:19:09.949Z</time>
      </trkpt>
      <trkpt lat="42.90017" lon="0.07954">
        <ele>1319.8</ele>
        <time>2020-12-05T16:19:10.947Z</time>
      </trkpt>
      <trkpt lat="42.90017" lon="0.07954">
        <ele>1319.8</ele>
        <time>2020-12-05T16:19:11.949Z</time>
      </trkpt>
      <trkpt lat="42.90017" lon="0.07954">
        <ele>1319.8</ele>
        <time>2020-12-05T16:19:12.949Z</time>
      </trkpt>
      <trkpt lat="42.90017" lon="0.07954">
        <ele>1319.8</ele>
        <time>2020-12-05T16:19:13.948Z</time>
      </trkpt>
      <trkpt lat="42.90017" lon="0.07954">
        <ele>1319.8</ele>
        <time>2020-12-05T16:19:14.948Z</time>
      </trkpt>
      <trkpt lat="42.90017" lon="0.07954">
        <ele>1319.8</ele>
        <time>2020-12-05T16:19:15.949Z</time>
      </trkpt>
      <trkpt lat="42.90021" lon="0.0797">
        <ele>1321</ele>
        <time>2020-12-05T16:19:16.947Z</time>
      </trkpt>
      <trkpt lat="42.90021" lon="0.0797">
        <ele>1321</ele>
        <time>2020-12-05T16:19:17.947Z</time>
      </trkpt>
      <trkpt lat="42.90023" lon="0.07973">
        <ele>1321.4</ele>
        <time>2020-12-05T16:19:18.947Z</time>
      </trkpt>
      <trkpt lat="42.90023" lon="0.07973">
        <ele>1321.4</ele>
        <time>2020-12-05T16:19:19.947Z</time>
      </trkpt>
      <trkpt lat="42.90023" lon="0.07973">
        <ele>1321.4</ele>
        <time>2020-12-05T16:19:20.949Z</time>
      </trkpt>
      <trkpt lat="42.90023" lon="0.07973">
        <ele>1321.4</ele>
        <time>2020-12-05T16:19:21.949Z</time>
      </trkpt>
      <trkpt lat="42.90023" lon="0.07973">
        <ele>1321.4</ele>
        <time>2020-12-05T16:19:22.948Z</time>
      </trkpt>
      <trkpt lat="42.90027" lon="0.07983">
        <ele>1322.2</ele>
        <time>2020-12-05T16:19:23.949Z</time>
      </trkpt>
      <trkpt lat="42.90027" lon="0.07983">
        <ele>1322.2</ele>
        <time>2020-12-05T16:19:24.949Z</time>
      </trkpt>
      <trkpt lat="42.90027" lon="0.07983">
        <ele>1322.2</ele>
        <time>2020-12-05T16:19:25.948Z</time>
      </trkpt>
      <trkpt lat="42.90027" lon="0.07983">
        <ele>1322.2</ele>
        <time>2020-12-05T16:19:26.947Z</time>
      </trkpt>
      <trkpt lat="42.90027" lon="0.07983">
        <ele>1322.2</ele>
        <time>2020-12-05T16:19:27.948Z</time>
      </trkpt>
      <trkpt lat="42.90027" lon="0.07983">
        <ele>1322.2</ele>
        <time>2020-12-05T16:19:28.949Z</time>
      </trkpt>
      <trkpt lat="42.90027" lon="0.07983">
        <ele>1322.2</ele>
        <time>2020-12-05T16:19:29.948Z</time>
      </trkpt>
      <trkpt lat="42.90031" lon="0.07997">
        <ele>1323.2</ele>
        <time>2020-12-05T16:19:30.948Z</time>
      </trkpt>
      <trkpt lat="42.90031" lon="0.07997">
        <ele>1323.2</ele>
        <time>2020-12-05T16:19:31.948Z</time>
      </trkpt>
      <trkpt lat="42.90032" lon="0.08001">
        <ele>1323.4</ele>
        <time>2020-12-05T16:19:32.947Z</time>
      </trkpt>
      <trkpt lat="42.90032" lon="0.08001">
        <ele>1323.4</ele>
        <time>2020-12-05T16:19:33.947Z</time>
      </trkpt>
      <trkpt lat="42.90032" lon="0.08001">
        <ele>1323.4</ele>
        <time>2020-12-05T16:19:34.949Z</time>
      </trkpt>
      <trkpt lat="42.90032" lon="0.08001">
        <ele>1323.4</ele>
        <time>2020-12-05T16:19:35.949Z</time>
      </trkpt>
      <trkpt lat="42.90032" lon="0.08001">
        <ele>1323.4</ele>
        <time>2020-12-05T16:19:36.947Z</time>
      </trkpt>
      <trkpt lat="42.90032" lon="0.08001">
        <ele>1323.4</ele>
        <time>2020-12-05T16:19:37.948Z</time>
      </trkpt>
      <trkpt lat="42.90032" lon="0.08001">
        <ele>1323.4</ele>
        <time>2020-12-05T16:19:38.949Z</time>
      </trkpt>
      <trkpt lat="42.90036" lon="0.08015">
        <ele>1324.6</ele>
        <time>2020-12-05T16:19:39.948Z</time>
      </trkpt>
      <trkpt lat="42.90037" lon="0.08019">
        <ele>1324.8</ele>
        <time>2020-12-05T16:19:40.949Z</time>
      </trkpt>
      <trkpt lat="42.90037" lon="0.08019">
        <ele>1324.8</ele>
        <time>2020-12-05T16:19:41.948Z</time>
      </trkpt>
      <trkpt lat="42.90037" lon="0.08019">
        <ele>1324.8</ele>
        <time>2020-12-05T16:19:42.948Z</time>
      </trkpt>
      <trkpt lat="42.90037" lon="0.08019">
        <ele>1324.8</ele>
        <time>2020-12-05T16:19:43.95Z</time>
      </trkpt>
      <trkpt lat="42.90039" lon="0.08026">
        <ele>1326</ele>
        <time>2020-12-05T16:19:44.947Z</time>
      </trkpt>
      <trkpt lat="42.90039" lon="0.08026">
        <ele>1326</ele>
        <time>2020-12-05T16:19:45.95Z</time>
      </trkpt>
      <trkpt lat="42.90039" lon="0.08026">
        <ele>1326</ele>
        <time>2020-12-05T16:19:46.949Z</time>
      </trkpt>
      <trkpt lat="42.90039" lon="0.08026">
        <ele>1326</ele>
        <time>2020-12-05T16:19:47.948Z</time>
      </trkpt>
      <trkpt lat="42.90039" lon="0.08026">
        <ele>1326</ele>
        <time>2020-12-05T16:19:48.947Z</time>
      </trkpt>
      <trkpt lat="42.90039" lon="0.08026">
        <ele>1326</ele>
        <time>2020-12-05T16:19:49.947Z</time>
      </trkpt>
      <trkpt lat="42.90039" lon="0.08026">
        <ele>1326</ele>
        <time>2020-12-05T16:19:50.947Z</time>
      </trkpt>
      <trkpt lat="42.90042" lon="0.08042">
        <ele>1326.8</ele>
        <time>2020-12-05T16:19:51.95Z</time>
      </trkpt>
      <trkpt lat="42.90042" lon="0.08042">
        <ele>1326.8</ele>
        <time>2020-12-05T16:19:52.948Z</time>
      </trkpt>
      <trkpt lat="42.90043" lon="0.08045">
        <ele>1327</ele>
        <time>2020-12-05T16:19:53.949Z</time>
      </trkpt>
      <trkpt lat="42.90043" lon="0.08045">
        <ele>1327</ele>
        <time>2020-12-05T16:19:54.948Z</time>
      </trkpt>
      <trkpt lat="42.90043" lon="0.08045">
        <ele>1327</ele>
        <time>2020-12-05T16:19:55.948Z</time>
      </trkpt>
      <trkpt lat="42.90043" lon="0.08045">
        <ele>1327</ele>
        <time>2020-12-05T16:19:56.948Z</time>
      </trkpt>
      <trkpt lat="42.90043" lon="0.08045">
        <ele>1327</ele>
        <time>2020-12-05T16:19:57.949Z</time>
      </trkpt>
      <trkpt lat="42.90043" lon="0.08045">
        <ele>1327</ele>
        <time>2020-12-05T16:19:58.948Z</time>
      </trkpt>
      <trkpt lat="42.90043" lon="0.08045">
        <ele>1327</ele>
        <time>2020-12-05T16:19:59.948Z</time>
      </trkpt>
      <trkpt lat="42.90043" lon="0.08045">
        <ele>1327</ele>
        <time>2020-12-05T16:20:00.947Z</time>
      </trkpt>
      <trkpt lat="42.90049" lon="0.08061">
        <ele>1328.2</ele>
        <time>2020-12-05T16:20:01.948Z</time>
      </trkpt>
      <trkpt lat="42.90049" lon="0.08061">
        <ele>1328.2</ele>
        <time>2020-12-05T16:20:02.948Z</time>
      </trkpt>
      <trkpt lat="42.90049" lon="0.08061">
        <ele>1328.2</ele>
        <time>2020-12-05T16:20:03.948Z</time>
      </trkpt>
      <trkpt lat="42.90049" lon="0.08061">
        <ele>1328.2</ele>
        <time>2020-12-05T16:20:04.947Z</time>
      </trkpt>
      <trkpt lat="42.90049" lon="0.08061">
        <ele>1328.2</ele>
        <time>2020-12-05T16:20:05.948Z</time>
      </trkpt>
      <trkpt lat="42.90049" lon="0.08061">
        <ele>1328.2</ele>
        <time>2020-12-05T16:20:06.949Z</time>
      </trkpt>
      <trkpt lat="42.90053" lon="0.08073">
        <ele>1328.8</ele>
        <time>2020-12-05T16:20:07.947Z</time>
      </trkpt>
      <trkpt lat="42.90053" lon="0.08073">
        <ele>1328.8</ele>
        <time>2020-12-05T16:20:08.948Z</time>
      </trkpt>
      <trkpt lat="42.90055" lon="0.08077">
        <ele>1329.4</ele>
        <time>2020-12-05T16:20:09.948Z</time>
      </trkpt>
      <trkpt lat="42.90055" lon="0.08077">
        <ele>1329.4</ele>
        <time>2020-12-05T16:20:10.947Z</time>
      </trkpt>
      <trkpt lat="42.90055" lon="0.08077">
        <ele>1329.4</ele>
        <time>2020-12-05T16:20:11.947Z</time>
      </trkpt>
      <trkpt lat="42.90055" lon="0.08077">
        <ele>1329.4</ele>
        <time>2020-12-05T16:20:12.949Z</time>
      </trkpt>
      <trkpt lat="42.90055" lon="0.08077">
        <ele>1329.4</ele>
        <time>2020-12-05T16:20:13.949Z</time>
      </trkpt>
      <trkpt lat="42.90055" lon="0.08077">
        <ele>1329.4</ele>
        <time>2020-12-05T16:20:14.948Z</time>
      </trkpt>
      <trkpt lat="42.90055" lon="0.08077">
        <ele>1329.4</ele>
        <time>2020-12-05T16:20:15.948Z</time>
      </trkpt>
      <trkpt lat="42.90055" lon="0.08077">
        <ele>1329.4</ele>
        <time>2020-12-05T16:20:16.948Z</time>
      </trkpt>
      <trkpt lat="42.9006" lon="0.08095">
        <ele>1330.2</ele>
        <time>2020-12-05T16:20:17.95Z</time>
      </trkpt>
      <trkpt lat="42.9006" lon="0.08095">
        <ele>1330.2</ele>
        <time>2020-12-05T16:20:18.948Z</time>
      </trkpt>
      <trkpt lat="42.9006" lon="0.08095">
        <ele>1330.2</ele>
        <time>2020-12-05T16:20:19.947Z</time>
      </trkpt>
      <trkpt lat="42.9006" lon="0.08095">
        <ele>1330.2</ele>
        <time>2020-12-05T16:20:20.948Z</time>
      </trkpt>
      <trkpt lat="42.9006" lon="0.08095">
        <ele>1330.2</ele>
        <time>2020-12-05T16:20:21.948Z</time>
      </trkpt>
      <trkpt lat="42.9006" lon="0.08095">
        <ele>1330.2</ele>
        <time>2020-12-05T16:20:22.947Z</time>
      </trkpt>
      <trkpt lat="42.9006" lon="0.08095">
        <ele>1330.2</ele>
        <time>2020-12-05T16:20:23.949Z</time>
      </trkpt>
      <trkpt lat="42.9006" lon="0.08095">
        <ele>1330.2</ele>
        <time>2020-12-05T16:20:24.948Z</time>
      </trkpt>
      <trkpt lat="42.90064" lon="0.0811">
        <ele>1331.4</ele>
        <time>2020-12-05T16:20:25.949Z</time>
      </trkpt>
      <trkpt lat="42.90064" lon="0.0811">
        <ele>1331.4</ele>
        <time>2020-12-05T16:20:26.948Z</time>
      </trkpt>
      <trkpt lat="42.90064" lon="0.0811">
        <ele>1331.4</ele>
        <time>2020-12-05T16:20:27.949Z</time>
      </trkpt>
      <trkpt lat="42.90064" lon="0.0811">
        <ele>1331.4</ele>
        <time>2020-12-05T16:20:28.949Z</time>
      </trkpt>
      <trkpt lat="42.90066" lon="0.08122">
        <ele>1332.2</ele>
        <time>2020-12-05T16:20:29.949Z</time>
      </trkpt>
      <trkpt lat="42.90066" lon="0.08122">
        <ele>1332.2</ele>
        <time>2020-12-05T16:20:30.948Z</time>
      </trkpt>
      <trkpt lat="42.90067" lon="0.08126">
        <ele>1332.4</ele>
        <time>2020-12-05T16:20:31.947Z</time>
      </trkpt>
      <trkpt lat="42.90067" lon="0.08126">
        <ele>1332.4</ele>
        <time>2020-12-05T16:20:32.948Z</time>
      </trkpt>
      <trkpt lat="42.90067" lon="0.08126">
        <ele>1332.4</ele>
        <time>2020-12-05T16:20:33.947Z</time>
      </trkpt>
      <trkpt lat="42.90067" lon="0.08126">
        <ele>1332.4</ele>
        <time>2020-12-05T16:20:34.948Z</time>
      </trkpt>
      <trkpt lat="42.90067" lon="0.08126">
        <ele>1332.4</ele>
        <time>2020-12-05T16:20:35.948Z</time>
      </trkpt>
      <trkpt lat="42.90067" lon="0.08126">
        <ele>1332.4</ele>
        <time>2020-12-05T16:20:36.949Z</time>
      </trkpt>
      <trkpt lat="42.90071" lon="0.08137">
        <ele>1333.8</ele>
        <time>2020-12-05T16:20:37.947Z</time>
      </trkpt>
      <trkpt lat="42.90072" lon="0.08141">
        <ele>1334</ele>
        <time>2020-12-05T16:20:38.948Z</time>
      </trkpt>
      <trkpt lat="42.90072" lon="0.08141">
        <ele>1334</ele>
        <time>2020-12-05T16:20:39.948Z</time>
      </trkpt>
      <trkpt lat="42.90072" lon="0.08141">
        <ele>1334</ele>
        <time>2020-12-05T16:20:40.949Z</time>
      </trkpt>
      <trkpt lat="42.90072" lon="0.08141">
        <ele>1334</ele>
        <time>2020-12-05T16:20:41.948Z</time>
      </trkpt>
      <trkpt lat="42.90072" lon="0.08141">
        <ele>1334</ele>
        <time>2020-12-05T16:20:42.949Z</time>
      </trkpt>
      <trkpt lat="42.90075" lon="0.08151">
        <ele>1334.8</ele>
        <time>2020-12-05T16:20:43.948Z</time>
      </trkpt>
      <trkpt lat="42.90075" lon="0.08151">
        <ele>1334.8</ele>
        <time>2020-12-05T16:20:44.948Z</time>
      </trkpt>
      <trkpt lat="42.90075" lon="0.08151">
        <ele>1334.8</ele>
        <time>2020-12-05T16:20:45.948Z</time>
      </trkpt>
      <trkpt lat="42.90075" lon="0.08151">
        <ele>1334.8</ele>
        <time>2020-12-05T16:20:46.948Z</time>
      </trkpt>
      <trkpt lat="42.90075" lon="0.08151">
        <ele>1334.8</ele>
        <time>2020-12-05T16:20:47.947Z</time>
      </trkpt>
      <trkpt lat="42.90075" lon="0.08151">
        <ele>1334.8</ele>
        <time>2020-12-05T16:20:48.948Z</time>
      </trkpt>
      <trkpt lat="42.90078" lon="0.08162">
        <ele>1336</ele>
        <time>2020-12-05T16:20:49.948Z</time>
      </trkpt>
      <trkpt lat="42.90078" lon="0.08162">
        <ele>1336</ele>
        <time>2020-12-05T16:20:50.948Z</time>
      </trkpt>
      <trkpt lat="42.90078" lon="0.08162">
        <ele>1336</ele>
        <time>2020-12-05T16:20:51.948Z</time>
      </trkpt>
      <trkpt lat="42.90078" lon="0.08162">
        <ele>1336</ele>
        <time>2020-12-05T16:20:52.947Z</time>
      </trkpt>
      <trkpt lat="42.90078" lon="0.08162">
        <ele>1336</ele>
        <time>2020-12-05T16:20:53.949Z</time>
      </trkpt>
      <trkpt lat="42.90078" lon="0.08162">
        <ele>1336</ele>
        <time>2020-12-05T16:20:54.949Z</time>
      </trkpt>
      <trkpt lat="42.90078" lon="0.08162">
        <ele>1336</ele>
        <time>2020-12-05T16:20:55.949Z</time>
      </trkpt>
      <trkpt lat="42.90083" lon="0.08177">
        <ele>1337</ele>
        <time>2020-12-05T16:20:56.948Z</time>
      </trkpt>
      <trkpt lat="42.90083" lon="0.08177">
        <ele>1337</ele>
        <time>2020-12-05T16:20:57.949Z</time>
      </trkpt>
      <trkpt lat="42.90083" lon="0.08177">
        <ele>1337</ele>
        <time>2020-12-05T16:20:58.949Z</time>
      </trkpt>
      <trkpt lat="42.90084" lon="0.08185">
        <ele>1337.2</ele>
        <time>2020-12-05T16:20:59.949Z</time>
      </trkpt>
      <trkpt lat="42.90084" lon="0.08185">
        <ele>1337.2</ele>
        <time>2020-12-05T16:21:00.948Z</time>
      </trkpt>
      <trkpt lat="42.90084" lon="0.08185">
        <ele>1337.2</ele>
        <time>2020-12-05T16:21:01.947Z</time>
      </trkpt>
      <trkpt lat="42.90084" lon="0.08185">
        <ele>1337.2</ele>
        <time>2020-12-05T16:21:02.949Z</time>
      </trkpt>
      <trkpt lat="42.90084" lon="0.08185">
        <ele>1337.2</ele>
        <time>2020-12-05T16:21:03.947Z</time>
      </trkpt>
      <trkpt lat="42.90084" lon="0.08185">
        <ele>1337.2</ele>
        <time>2020-12-05T16:21:04.949Z</time>
      </trkpt>
      <trkpt lat="42.90088" lon="0.08195">
        <ele>1338.2</ele>
        <time>2020-12-05T16:21:05.949Z</time>
      </trkpt>
      <trkpt lat="42.90088" lon="0.08195">
        <ele>1338.2</ele>
        <time>2020-12-05T16:21:06.949Z</time>
      </trkpt>
      <trkpt lat="42.90088" lon="0.08195">
        <ele>1338.2</ele>
        <time>2020-12-05T16:21:07.947Z</time>
      </trkpt>
      <trkpt lat="42.90088" lon="0.08195">
        <ele>1338.2</ele>
        <time>2020-12-05T16:21:08.95Z</time>
      </trkpt>
      <trkpt lat="42.90088" lon="0.08195">
        <ele>1338.2</ele>
        <time>2020-12-05T16:21:09.947Z</time>
      </trkpt>
      <trkpt lat="42.90092" lon="0.08207">
        <ele>1338.8</ele>
        <time>2020-12-05T16:21:10.947Z</time>
      </trkpt>
      <trkpt lat="42.90092" lon="0.08207">
        <ele>1338.8</ele>
        <time>2020-12-05T16:21:11.95Z</time>
      </trkpt>
      <trkpt lat="42.90094" lon="0.0821">
        <ele>1339.2</ele>
        <time>2020-12-05T16:21:12.949Z</time>
      </trkpt>
      <trkpt lat="42.90094" lon="0.0821">
        <ele>1339.2</ele>
        <time>2020-12-05T16:21:13.954Z</time>
      </trkpt>
      <trkpt lat="42.90094" lon="0.0821">
        <ele>1339.2</ele>
        <time>2020-12-05T16:21:14.948Z</time>
      </trkpt>
      <trkpt lat="42.90094" lon="0.0821">
        <ele>1339.2</ele>
        <time>2020-12-05T16:21:15.949Z</time>
      </trkpt>
      <trkpt lat="42.90097" lon="0.08217">
        <ele>1340.4</ele>
        <time>2020-12-05T16:21:16.949Z</time>
      </trkpt>
      <trkpt lat="42.90097" lon="0.08217">
        <ele>1340.4</ele>
        <time>2020-12-05T16:21:17.947Z</time>
      </trkpt>
      <trkpt lat="42.90097" lon="0.08217">
        <ele>1340.4</ele>
        <time>2020-12-05T16:21:18.948Z</time>
      </trkpt>
      <trkpt lat="42.90097" lon="0.08217">
        <ele>1340.4</ele>
        <time>2020-12-05T16:21:19.948Z</time>
      </trkpt>
      <trkpt lat="42.90097" lon="0.08217">
        <ele>1340.4</ele>
        <time>2020-12-05T16:21:20.948Z</time>
      </trkpt>
      <trkpt lat="42.90101" lon="0.08227">
        <ele>1341.2</ele>
        <time>2020-12-05T16:21:21.949Z</time>
      </trkpt>
      <trkpt lat="42.90101" lon="0.08227">
        <ele>1341.2</ele>
        <time>2020-12-05T16:21:22.948Z</time>
      </trkpt>
      <trkpt lat="42.90103" lon="0.0823">
        <ele>1341.2</ele>
        <time>2020-12-05T16:21:23.949Z</time>
      </trkpt>
      <trkpt lat="42.90103" lon="0.0823">
        <ele>1341.2</ele>
        <time>2020-12-05T16:21:24.948Z</time>
      </trkpt>
      <trkpt lat="42.90103" lon="0.0823">
        <ele>1341.2</ele>
        <time>2020-12-05T16:21:25.948Z</time>
      </trkpt>
      <trkpt lat="42.90103" lon="0.0823">
        <ele>1341.2</ele>
        <time>2020-12-05T16:21:26.948Z</time>
      </trkpt>
      <trkpt lat="42.90103" lon="0.0823">
        <ele>1341.2</ele>
        <time>2020-12-05T16:21:27.948Z</time>
      </trkpt>
      <trkpt lat="42.90108" lon="0.08241">
        <ele>1342.2</ele>
        <time>2020-12-05T16:21:28.948Z</time>
      </trkpt>
      <trkpt lat="42.90108" lon="0.08241">
        <ele>1342.2</ele>
        <time>2020-12-05T16:21:29.947Z</time>
      </trkpt>
      <trkpt lat="42.90108" lon="0.08241">
        <ele>1342.2</ele>
        <time>2020-12-05T16:21:30.949Z</time>
      </trkpt>
      <trkpt lat="42.90108" lon="0.08241">
        <ele>1342.2</ele>
        <time>2020-12-05T16:21:31.947Z</time>
      </trkpt>
      <trkpt lat="42.90108" lon="0.08241">
        <ele>1342.2</ele>
        <time>2020-12-05T16:21:32.949Z</time>
      </trkpt>
      <trkpt lat="42.90112" lon="0.08248">
        <ele>1342.8</ele>
        <time>2020-12-05T16:21:33.95Z</time>
      </trkpt>
      <trkpt lat="42.90112" lon="0.08248">
        <ele>1342.8</ele>
        <time>2020-12-05T16:21:34.948Z</time>
      </trkpt>
      <trkpt lat="42.90112" lon="0.08248">
        <ele>1342.8</ele>
        <time>2020-12-05T16:21:35.947Z</time>
      </trkpt>
      <trkpt lat="42.90114" lon="0.08255">
        <ele>1343.4</ele>
        <time>2020-12-05T16:21:36.949Z</time>
      </trkpt>
      <trkpt lat="42.90114" lon="0.08255">
        <ele>1343.4</ele>
        <time>2020-12-05T16:21:37.947Z</time>
      </trkpt>
      <trkpt lat="42.90114" lon="0.08255">
        <ele>1343.4</ele>
        <time>2020-12-05T16:21:38.95Z</time>
      </trkpt>
      <trkpt lat="42.90114" lon="0.08255">
        <ele>1343.4</ele>
        <time>2020-12-05T16:21:39.948Z</time>
      </trkpt>
      <trkpt lat="42.90114" lon="0.08255">
        <ele>1343.4</ele>
        <time>2020-12-05T16:21:40.947Z</time>
      </trkpt>
      <trkpt lat="42.9012" lon="0.08265">
        <ele>1344.4</ele>
        <time>2020-12-05T16:21:41.948Z</time>
      </trkpt>
      <trkpt lat="42.9012" lon="0.08265">
        <ele>1344.4</ele>
        <time>2020-12-05T16:21:42.948Z</time>
      </trkpt>
      <trkpt lat="42.9012" lon="0.08265">
        <ele>1344.4</ele>
        <time>2020-12-05T16:21:43.948Z</time>
      </trkpt>
      <trkpt lat="42.90122" lon="0.08268">
        <ele>1344.8</ele>
        <time>2020-12-05T16:21:44.949Z</time>
      </trkpt>
      <trkpt lat="42.90122" lon="0.08268">
        <ele>1344.8</ele>
        <time>2020-12-05T16:21:45.948Z</time>
      </trkpt>
      <trkpt lat="42.90122" lon="0.08268">
        <ele>1344.8</ele>
        <time>2020-12-05T16:21:46.947Z</time>
      </trkpt>
      <trkpt lat="42.90122" lon="0.08268">
        <ele>1344.8</ele>
        <time>2020-12-05T16:21:47.948Z</time>
      </trkpt>
      <trkpt lat="42.90122" lon="0.08268">
        <ele>1344.8</ele>
        <time>2020-12-05T16:21:48.948Z</time>
      </trkpt>
      <trkpt lat="42.90128" lon="0.08277">
        <ele>1345.2</ele>
        <time>2020-12-05T16:21:49.949Z</time>
      </trkpt>
      <trkpt lat="42.90128" lon="0.08277">
        <ele>1345.2</ele>
        <time>2020-12-05T16:21:50.949Z</time>
      </trkpt>
      <trkpt lat="42.90128" lon="0.08277">
        <ele>1345.2</ele>
        <time>2020-12-05T16:21:51.949Z</time>
      </trkpt>
      <trkpt lat="42.90128" lon="0.08277">
        <ele>1345.2</ele>
        <time>2020-12-05T16:21:52.947Z</time>
      </trkpt>
      <trkpt lat="42.90128" lon="0.08277">
        <ele>1345.2</ele>
        <time>2020-12-05T16:21:53.949Z</time>
      </trkpt>
      <trkpt lat="42.90128" lon="0.08277">
        <ele>1345.2</ele>
        <time>2020-12-05T16:21:54.948Z</time>
      </trkpt>
      <trkpt lat="42.90128" lon="0.08277">
        <ele>1345.2</ele>
        <time>2020-12-05T16:21:55.949Z</time>
      </trkpt>
      <trkpt lat="42.90135" lon="0.08291">
        <ele>1346.4</ele>
        <time>2020-12-05T16:21:56.948Z</time>
      </trkpt>
      <trkpt lat="42.90135" lon="0.08291">
        <ele>1346.4</ele>
        <time>2020-12-05T16:21:57.947Z</time>
      </trkpt>
      <trkpt lat="42.90135" lon="0.08291">
        <ele>1346.4</ele>
        <time>2020-12-05T16:21:58.948Z</time>
      </trkpt>
      <trkpt lat="42.90135" lon="0.08291">
        <ele>1346.4</ele>
        <time>2020-12-05T16:21:59.948Z</time>
      </trkpt>
      <trkpt lat="42.90135" lon="0.08291">
        <ele>1346.4</ele>
        <time>2020-12-05T16:22:00.949Z</time>
      </trkpt>
      <trkpt lat="42.90135" lon="0.08291">
        <ele>1346.4</ele>
        <time>2020-12-05T16:22:01.949Z</time>
      </trkpt>
      <trkpt lat="42.90135" lon="0.08291">
        <ele>1346.4</ele>
        <time>2020-12-05T16:22:02.947Z</time>
      </trkpt>
      <trkpt lat="42.9014" lon="0.08304">
        <ele>1347.6</ele>
        <time>2020-12-05T16:22:03.949Z</time>
      </trkpt>
      <trkpt lat="42.9014" lon="0.08304">
        <ele>1347.6</ele>
        <time>2020-12-05T16:22:04.949Z</time>
      </trkpt>
      <trkpt lat="42.9014" lon="0.08304">
        <ele>1347.6</ele>
        <time>2020-12-05T16:22:05.948Z</time>
      </trkpt>
      <trkpt lat="42.9014" lon="0.08304">
        <ele>1347.6</ele>
        <time>2020-12-05T16:22:06.948Z</time>
      </trkpt>
      <trkpt lat="42.90142" lon="0.08311">
        <ele>1348.2</ele>
        <time>2020-12-05T16:22:07.949Z</time>
      </trkpt>
      <trkpt lat="42.90142" lon="0.08311">
        <ele>1348.2</ele>
        <time>2020-12-05T16:22:08.947Z</time>
      </trkpt>
      <trkpt lat="42.90142" lon="0.08311">
        <ele>1348.2</ele>
        <time>2020-12-05T16:22:09.949Z</time>
      </trkpt>
      <trkpt lat="42.90144" lon="0.08318">
        <ele>1348.6</ele>
        <time>2020-12-05T16:22:10.947Z</time>
      </trkpt>
      <trkpt lat="42.90144" lon="0.08318">
        <ele>1348.6</ele>
        <time>2020-12-05T16:22:11.947Z</time>
      </trkpt>
      <trkpt lat="42.90144" lon="0.08318">
        <ele>1348.6</ele>
        <time>2020-12-05T16:22:12.95Z</time>
      </trkpt>
      <trkpt lat="42.90144" lon="0.08318">
        <ele>1348.6</ele>
        <time>2020-12-05T16:22:13.947Z</time>
      </trkpt>
      <trkpt lat="42.90144" lon="0.08318">
        <ele>1348.6</ele>
        <time>2020-12-05T16:22:14.949Z</time>
      </trkpt>
      <trkpt lat="42.90144" lon="0.08318">
        <ele>1348.6</ele>
        <time>2020-12-05T16:22:15.948Z</time>
      </trkpt>
      <trkpt lat="42.90144" lon="0.08318">
        <ele>1348.6</ele>
        <time>2020-12-05T16:22:16.947Z</time>
      </trkpt>
      <trkpt lat="42.90149" lon="0.08332">
        <ele>1349.8</ele>
        <time>2020-12-05T16:22:17.947Z</time>
      </trkpt>
      <trkpt lat="42.90149" lon="0.08332">
        <ele>1349.8</ele>
        <time>2020-12-05T16:22:18.948Z</time>
      </trkpt>
      <trkpt lat="42.90149" lon="0.08332">
        <ele>1349.8</ele>
        <time>2020-12-05T16:22:19.948Z</time>
      </trkpt>
      <trkpt lat="42.90149" lon="0.08332">
        <ele>1349.8</ele>
        <time>2020-12-05T16:22:20.947Z</time>
      </trkpt>
      <trkpt lat="42.90149" lon="0.08332">
        <ele>1349.8</ele>
        <time>2020-12-05T16:22:21.949Z</time>
      </trkpt>
      <trkpt lat="42.9015" lon="0.08344">
        <ele>1351</ele>
        <time>2020-12-05T16:22:22.948Z</time>
      </trkpt>
      <trkpt lat="42.9015" lon="0.08344">
        <ele>1351</ele>
        <time>2020-12-05T16:22:23.948Z</time>
      </trkpt>
      <trkpt lat="42.9015" lon="0.08344">
        <ele>1351</ele>
        <time>2020-12-05T16:22:24.948Z</time>
      </trkpt>
      <trkpt lat="42.9015" lon="0.08344">
        <ele>1351</ele>
        <time>2020-12-05T16:22:25.949Z</time>
      </trkpt>
      <trkpt lat="42.9015" lon="0.08352">
        <ele>1351.4</ele>
        <time>2020-12-05T16:22:26.948Z</time>
      </trkpt>
      <trkpt lat="42.9015" lon="0.08352">
        <ele>1351.4</ele>
        <time>2020-12-05T16:22:27.948Z</time>
      </trkpt>
      <trkpt lat="42.90151" lon="0.08356">
        <ele>1352</ele>
        <time>2020-12-05T16:22:28.947Z</time>
      </trkpt>
      <trkpt lat="42.90151" lon="0.08356">
        <ele>1352</ele>
        <time>2020-12-05T16:22:29.95Z</time>
      </trkpt>
      <trkpt lat="42.90151" lon="0.08356">
        <ele>1352</ele>
        <time>2020-12-05T16:22:30.948Z</time>
      </trkpt>
      <trkpt lat="42.90151" lon="0.08356">
        <ele>1352</ele>
        <time>2020-12-05T16:22:31.948Z</time>
      </trkpt>
      <trkpt lat="42.90151" lon="0.08356">
        <ele>1352</ele>
        <time>2020-12-05T16:22:32.947Z</time>
      </trkpt>
      <trkpt lat="42.90151" lon="0.08356">
        <ele>1352</ele>
        <time>2020-12-05T16:22:33.947Z</time>
      </trkpt>
      <trkpt lat="42.90151" lon="0.08356">
        <ele>1352</ele>
        <time>2020-12-05T16:22:34.947Z</time>
      </trkpt>
      <trkpt lat="42.90151" lon="0.08356">
        <ele>1352</ele>
        <time>2020-12-05T16:22:35.948Z</time>
      </trkpt>
      <trkpt lat="42.90151" lon="0.08356">
        <ele>1352</ele>
        <time>2020-12-05T16:22:36.949Z</time>
      </trkpt>
      <trkpt lat="42.9015" lon="0.08378">
        <ele>1353.4</ele>
        <time>2020-12-05T16:22:37.947Z</time>
      </trkpt>
      <trkpt lat="42.9015" lon="0.08378">
        <ele>1353.4</ele>
        <time>2020-12-05T16:22:38.948Z</time>
      </trkpt>
      <trkpt lat="42.9015" lon="0.08378">
        <ele>1353.4</ele>
        <time>2020-12-05T16:22:39.948Z</time>
      </trkpt>
      <trkpt lat="42.9015" lon="0.08378">
        <ele>1353.4</ele>
        <time>2020-12-05T16:22:40.949Z</time>
      </trkpt>
      <trkpt lat="42.9015" lon="0.08378">
        <ele>1353.4</ele>
        <time>2020-12-05T16:22:41.947Z</time>
      </trkpt>
      <trkpt lat="42.9015" lon="0.08378">
        <ele>1353.4</ele>
        <time>2020-12-05T16:22:42.95Z</time>
      </trkpt>
      <trkpt lat="42.9015" lon="0.08378">
        <ele>1353.4</ele>
        <time>2020-12-05T16:22:43.949Z</time>
      </trkpt>
      <trkpt lat="42.9015" lon="0.08378">
        <ele>1353.4</ele>
        <time>2020-12-05T16:22:44.948Z</time>
      </trkpt>
      <trkpt lat="42.9015" lon="0.08378">
        <ele>1353.4</ele>
        <time>2020-12-05T16:22:45.948Z</time>
      </trkpt>
      <trkpt lat="42.9015" lon="0.08378">
        <ele>1353.4</ele>
        <time>2020-12-05T16:22:46.948Z</time>
      </trkpt>
      <trkpt lat="42.9015" lon="0.08378">
        <ele>1353.4</ele>
        <time>2020-12-05T16:22:47.947Z</time>
      </trkpt>
      <trkpt lat="42.90152" lon="0.084">
        <ele>1354.4</ele>
        <time>2020-12-05T16:22:48.947Z</time>
      </trkpt>
      <trkpt lat="42.90152" lon="0.08404">
        <ele>1354.8</ele>
        <time>2020-12-05T16:22:49.947Z</time>
      </trkpt>
      <trkpt lat="42.90152" lon="0.08404">
        <ele>1354.8</ele>
        <time>2020-12-05T16:22:50.948Z</time>
      </trkpt>
      <trkpt lat="42.90152" lon="0.08404">
        <ele>1354.8</ele>
        <time>2020-12-05T16:22:51.948Z</time>
      </trkpt>
      <trkpt lat="42.90152" lon="0.08408">
        <ele>1355.4</ele>
        <time>2020-12-05T16:22:52.948Z</time>
      </trkpt>
      <trkpt lat="42.90152" lon="0.08408">
        <ele>1355.4</ele>
        <time>2020-12-05T16:22:53.948Z</time>
      </trkpt>
      <trkpt lat="42.90152" lon="0.08408">
        <ele>1355.4</ele>
        <time>2020-12-05T16:22:54.948Z</time>
      </trkpt>
      <trkpt lat="42.90152" lon="0.08408">
        <ele>1355.4</ele>
        <time>2020-12-05T16:22:55.948Z</time>
      </trkpt>
      <trkpt lat="42.90152" lon="0.08408">
        <ele>1355.4</ele>
        <time>2020-12-05T16:22:56.948Z</time>
      </trkpt>
      <trkpt lat="42.90152" lon="0.08408">
        <ele>1355.4</ele>
        <time>2020-12-05T16:22:57.949Z</time>
      </trkpt>
      <trkpt lat="42.90152" lon="0.08408">
        <ele>1355.4</ele>
        <time>2020-12-05T16:22:58.947Z</time>
      </trkpt>
      <trkpt lat="42.90152" lon="0.08408">
        <ele>1355.4</ele>
        <time>2020-12-05T16:22:59.949Z</time>
      </trkpt>
      <trkpt lat="42.90152" lon="0.08408">
        <ele>1355.4</ele>
        <time>2020-12-05T16:23:00.948Z</time>
      </trkpt>
      <trkpt lat="42.90153" lon="0.0843">
        <ele>1356.4</ele>
        <time>2020-12-05T16:23:01.948Z</time>
      </trkpt>
      <trkpt lat="42.90153" lon="0.0843">
        <ele>1356.4</ele>
        <time>2020-12-05T16:23:02.949Z</time>
      </trkpt>
      <trkpt lat="42.90153" lon="0.08434">
        <ele>1356.6</ele>
        <time>2020-12-05T16:23:03.948Z</time>
      </trkpt>
      <trkpt lat="42.90153" lon="0.08434">
        <ele>1356.6</ele>
        <time>2020-12-05T16:23:04.948Z</time>
      </trkpt>
      <trkpt lat="42.90153" lon="0.08434">
        <ele>1356.6</ele>
        <time>2020-12-05T16:23:05.948Z</time>
      </trkpt>
      <trkpt lat="42.90153" lon="0.08434">
        <ele>1356.6</ele>
        <time>2020-12-05T16:23:06.949Z</time>
      </trkpt>
      <trkpt lat="42.90153" lon="0.08434">
        <ele>1356.6</ele>
        <time>2020-12-05T16:23:07.949Z</time>
      </trkpt>
      <trkpt lat="42.90153" lon="0.08434">
        <ele>1356.6</ele>
        <time>2020-12-05T16:23:08.949Z</time>
      </trkpt>
      <trkpt lat="42.90153" lon="0.08434">
        <ele>1356.6</ele>
        <time>2020-12-05T16:23:09.948Z</time>
      </trkpt>
      <trkpt lat="42.90153" lon="0.08434">
        <ele>1356.6</ele>
        <time>2020-12-05T16:23:10.948Z</time>
      </trkpt>
      <trkpt lat="42.90153" lon="0.08434">
        <ele>1356.6</ele>
        <time>2020-12-05T16:23:11.948Z</time>
      </trkpt>
      <trkpt lat="42.90153" lon="0.08434">
        <ele>1356.6</ele>
        <time>2020-12-05T16:23:12.947Z</time>
      </trkpt>
      <trkpt lat="42.90157" lon="0.08455">
        <ele>1357.8</ele>
        <time>2020-12-05T16:23:13.949Z</time>
      </trkpt>
      <trkpt lat="42.90157" lon="0.08455">
        <ele>1357.8</ele>
        <time>2020-12-05T16:23:14.949Z</time>
      </trkpt>
      <trkpt lat="42.90157" lon="0.08455">
        <ele>1357.8</ele>
        <time>2020-12-05T16:23:15.947Z</time>
      </trkpt>
      <trkpt lat="42.90157" lon="0.08455">
        <ele>1357.8</ele>
        <time>2020-12-05T16:23:16.95Z</time>
      </trkpt>
      <trkpt lat="42.90157" lon="0.08455">
        <ele>1357.8</ele>
        <time>2020-12-05T16:23:17.947Z</time>
      </trkpt>
      <trkpt lat="42.90157" lon="0.08455">
        <ele>1357.8</ele>
        <time>2020-12-05T16:23:18.948Z</time>
      </trkpt>
      <trkpt lat="42.90159" lon="0.08466">
        <ele>1359.2</ele>
        <time>2020-12-05T16:23:19.947Z</time>
      </trkpt>
      <trkpt lat="42.90159" lon="0.08466">
        <ele>1359.2</ele>
        <time>2020-12-05T16:23:20.95Z</time>
      </trkpt>
      <trkpt lat="42.90159" lon="0.08466">
        <ele>1359.2</ele>
        <time>2020-12-05T16:23:21.949Z</time>
      </trkpt>
      <trkpt lat="42.90159" lon="0.08466">
        <ele>1359.2</ele>
        <time>2020-12-05T16:23:22.949Z</time>
      </trkpt>
      <trkpt lat="42.90159" lon="0.08466">
        <ele>1359.2</ele>
        <time>2020-12-05T16:23:23.949Z</time>
      </trkpt>
      <trkpt lat="42.90159" lon="0.08466">
        <ele>1359.2</ele>
        <time>2020-12-05T16:23:24.95Z</time>
      </trkpt>
      <trkpt lat="42.90159" lon="0.08479">
        <ele>1360</ele>
        <time>2020-12-05T16:23:25.947Z</time>
      </trkpt>
      <trkpt lat="42.90159" lon="0.08479">
        <ele>1360</ele>
        <time>2020-12-05T16:23:26.947Z</time>
      </trkpt>
      <trkpt lat="42.9016" lon="0.08483">
        <ele>1360.2</ele>
        <time>2020-12-05T16:23:27.949Z</time>
      </trkpt>
      <trkpt lat="42.9016" lon="0.08483">
        <ele>1360.2</ele>
        <time>2020-12-05T16:23:28.948Z</time>
      </trkpt>
      <trkpt lat="42.9016" lon="0.08483">
        <ele>1360.2</ele>
        <time>2020-12-05T16:23:29.947Z</time>
      </trkpt>
      <trkpt lat="42.9016" lon="0.08483">
        <ele>1360.2</ele>
        <time>2020-12-05T16:23:30.948Z</time>
      </trkpt>
      <trkpt lat="42.9016" lon="0.08483">
        <ele>1360.2</ele>
        <time>2020-12-05T16:23:31.949Z</time>
      </trkpt>
      <trkpt lat="42.90161" lon="0.08493">
        <ele>1361.4</ele>
        <time>2020-12-05T16:23:32.948Z</time>
      </trkpt>
      <trkpt lat="42.90161" lon="0.08493">
        <ele>1361.4</ele>
        <time>2020-12-05T16:23:33.948Z</time>
      </trkpt>
      <trkpt lat="42.90161" lon="0.08493">
        <ele>1361.4</ele>
        <time>2020-12-05T16:23:34.948Z</time>
      </trkpt>
      <trkpt lat="42.90161" lon="0.08493">
        <ele>1361.4</ele>
        <time>2020-12-05T16:23:35.948Z</time>
      </trkpt>
      <trkpt lat="42.90162" lon="0.085">
        <ele>1362.2</ele>
        <time>2020-12-05T16:23:36.947Z</time>
      </trkpt>
      <trkpt lat="42.90162" lon="0.085">
        <ele>1362.2</ele>
        <time>2020-12-05T16:23:37.948Z</time>
      </trkpt>
      <trkpt lat="42.90163" lon="0.08504">
        <ele>1362.6</ele>
        <time>2020-12-05T16:23:38.948Z</time>
      </trkpt>
      <trkpt lat="42.90163" lon="0.08504">
        <ele>1362.6</ele>
        <time>2020-12-05T16:23:39.949Z</time>
      </trkpt>
      <trkpt lat="42.90163" lon="0.08504">
        <ele>1362.6</ele>
        <time>2020-12-05T16:23:40.948Z</time>
      </trkpt>
      <trkpt lat="42.90163" lon="0.08504">
        <ele>1362.6</ele>
        <time>2020-12-05T16:23:41.949Z</time>
      </trkpt>
      <trkpt lat="42.90163" lon="0.08504">
        <ele>1362.6</ele>
        <time>2020-12-05T16:23:42.948Z</time>
      </trkpt>
      <trkpt lat="42.90163" lon="0.08504">
        <ele>1362.6</ele>
        <time>2020-12-05T16:23:43.947Z</time>
      </trkpt>
      <trkpt lat="42.90163" lon="0.08504">
        <ele>1362.6</ele>
        <time>2020-12-05T16:23:44.948Z</time>
      </trkpt>
      <trkpt lat="42.90163" lon="0.08504">
        <ele>1362.6</ele>
        <time>2020-12-05T16:23:45.947Z</time>
      </trkpt>
      <trkpt lat="42.90163" lon="0.08504">
        <ele>1362.6</ele>
        <time>2020-12-05T16:23:46.948Z</time>
      </trkpt>
      <trkpt lat="42.90163" lon="0.08504">
        <ele>1362.6</ele>
        <time>2020-12-05T16:23:47.948Z</time>
      </trkpt>
      <trkpt lat="42.90163" lon="0.08504">
        <ele>1362.6</ele>
        <time>2020-12-05T16:23:48.95Z</time>
      </trkpt>
      <trkpt lat="42.90163" lon="0.08504">
        <ele>1362.6</ele>
        <time>2020-12-05T16:23:49.948Z</time>
      </trkpt>
      <trkpt lat="42.90165" lon="0.08522">
        <ele>1363.6</ele>
        <time>2020-12-05T16:23:50.947Z</time>
      </trkpt>
      <trkpt lat="42.90165" lon="0.08522">
        <ele>1363.6</ele>
        <time>2020-12-05T16:23:51.949Z</time>
      </trkpt>
      <trkpt lat="42.90165" lon="0.08522">
        <ele>1363.6</ele>
        <time>2020-12-05T16:23:52.949Z</time>
      </trkpt>
      <trkpt lat="42.90165" lon="0.08522">
        <ele>1363.6</ele>
        <time>2020-12-05T16:23:53.947Z</time>
      </trkpt>
      <trkpt lat="42.90165" lon="0.08522">
        <ele>1363.6</ele>
        <time>2020-12-05T16:23:54.95Z</time>
      </trkpt>
      <trkpt lat="42.90165" lon="0.08531">
        <ele>1364.2</ele>
        <time>2020-12-05T16:23:55.949Z</time>
      </trkpt>
      <trkpt lat="42.90165" lon="0.08531">
        <ele>1364.2</ele>
        <time>2020-12-05T16:23:56.95Z</time>
      </trkpt>
      <trkpt lat="42.90165" lon="0.08531">
        <ele>1364.2</ele>
        <time>2020-12-05T16:23:57.948Z</time>
      </trkpt>
      <trkpt lat="42.90165" lon="0.08531">
        <ele>1364.2</ele>
        <time>2020-12-05T16:23:58.947Z</time>
      </trkpt>
      <trkpt lat="42.90166" lon="0.08539">
        <ele>1364.8</ele>
        <time>2020-12-05T16:23:59.949Z</time>
      </trkpt>
      <trkpt lat="42.90166" lon="0.08539">
        <ele>1364.8</ele>
        <time>2020-12-05T16:24:00.947Z</time>
      </trkpt>
      <trkpt lat="42.90166" lon="0.08539">
        <ele>1364.8</ele>
        <time>2020-12-05T16:24:01.95Z</time>
      </trkpt>
      <trkpt lat="42.90166" lon="0.08539">
        <ele>1364.8</ele>
        <time>2020-12-05T16:24:02.949Z</time>
      </trkpt>
      <trkpt lat="42.90166" lon="0.08539">
        <ele>1364.8</ele>
        <time>2020-12-05T16:24:03.948Z</time>
      </trkpt>
      <trkpt lat="42.90166" lon="0.08539">
        <ele>1364.8</ele>
        <time>2020-12-05T16:24:04.948Z</time>
      </trkpt>
      <trkpt lat="42.90167" lon="0.08551">
        <ele>1365.6</ele>
        <time>2020-12-05T16:24:05.947Z</time>
      </trkpt>
      <trkpt lat="42.90167" lon="0.08551">
        <ele>1365.6</ele>
        <time>2020-12-05T16:24:06.947Z</time>
      </trkpt>
      <trkpt lat="42.90167" lon="0.08556">
        <ele>1366</ele>
        <time>2020-12-05T16:24:07.95Z</time>
      </trkpt>
      <trkpt lat="42.90167" lon="0.08556">
        <ele>1366</ele>
        <time>2020-12-05T16:24:08.947Z</time>
      </trkpt>
      <trkpt lat="42.90167" lon="0.08556">
        <ele>1366</ele>
        <time>2020-12-05T16:24:09.948Z</time>
      </trkpt>
      <trkpt lat="42.90167" lon="0.08556">
        <ele>1366</ele>
        <time>2020-12-05T16:24:10.948Z</time>
      </trkpt>
      <trkpt lat="42.90167" lon="0.08556">
        <ele>1366</ele>
        <time>2020-12-05T16:24:11.947Z</time>
      </trkpt>
      <trkpt lat="42.90167" lon="0.08556">
        <ele>1366</ele>
        <time>2020-12-05T16:24:12.949Z</time>
      </trkpt>
      <trkpt lat="42.90167" lon="0.08556">
        <ele>1366</ele>
        <time>2020-12-05T16:24:13.949Z</time>
      </trkpt>
      <trkpt lat="42.90167" lon="0.08556">
        <ele>1366</ele>
        <time>2020-12-05T16:24:14.948Z</time>
      </trkpt>
      <trkpt lat="42.90167" lon="0.08556">
        <ele>1366</ele>
        <time>2020-12-05T16:24:15.948Z</time>
      </trkpt>
      <trkpt lat="42.90167" lon="0.08556">
        <ele>1366</ele>
        <time>2020-12-05T16:24:16.949Z</time>
      </trkpt>
      <trkpt lat="42.90167" lon="0.08556">
        <ele>1366</ele>
        <time>2020-12-05T16:24:17.949Z</time>
      </trkpt>
      <trkpt lat="42.90167" lon="0.0858">
        <ele>1367.2</ele>
        <time>2020-12-05T16:24:18.948Z</time>
      </trkpt>
      <trkpt lat="42.90167" lon="0.0858">
        <ele>1367.2</ele>
        <time>2020-12-05T16:24:19.949Z</time>
      </trkpt>
      <trkpt lat="42.90167" lon="0.0858">
        <ele>1367.2</ele>
        <time>2020-12-05T16:24:20.948Z</time>
      </trkpt>
      <trkpt lat="42.90167" lon="0.0858">
        <ele>1367.2</ele>
        <time>2020-12-05T16:24:21.948Z</time>
      </trkpt>
      <trkpt lat="42.90167" lon="0.0858">
        <ele>1367.2</ele>
        <time>2020-12-05T16:24:22.949Z</time>
      </trkpt>
      <trkpt lat="42.90167" lon="0.0858">
        <ele>1367.2</ele>
        <time>2020-12-05T16:24:23.948Z</time>
      </trkpt>
      <trkpt lat="42.90167" lon="0.0858">
        <ele>1367.2</ele>
        <time>2020-12-05T16:24:24.949Z</time>
      </trkpt>
      <trkpt lat="42.90167" lon="0.0858">
        <ele>1367.2</ele>
        <time>2020-12-05T16:24:25.948Z</time>
      </trkpt>
      <trkpt lat="42.90168" lon="0.08596">
        <ele>1368.2</ele>
        <time>2020-12-05T16:24:26.948Z</time>
      </trkpt>
      <trkpt lat="42.90168" lon="0.08596">
        <ele>1368.2</ele>
        <time>2020-12-05T16:24:27.949Z</time>
      </trkpt>
      <trkpt lat="42.90168" lon="0.08596">
        <ele>1368.2</ele>
        <time>2020-12-05T16:24:28.947Z</time>
      </trkpt>
      <trkpt lat="42.90168" lon="0.08596">
        <ele>1368.2</ele>
        <time>2020-12-05T16:24:29.949Z</time>
      </trkpt>
      <trkpt lat="42.90168" lon="0.08596">
        <ele>1368.2</ele>
        <time>2020-12-05T16:24:30.949Z</time>
      </trkpt>
      <trkpt lat="42.90168" lon="0.08605">
        <ele>1368.8</ele>
        <time>2020-12-05T16:24:31.948Z</time>
      </trkpt>
      <trkpt lat="42.90168" lon="0.08605">
        <ele>1368.8</ele>
        <time>2020-12-05T16:24:32.948Z</time>
      </trkpt>
      <trkpt lat="42.90168" lon="0.08605">
        <ele>1368.8</ele>
        <time>2020-12-05T16:24:33.949Z</time>
      </trkpt>
      <trkpt lat="42.90168" lon="0.08605">
        <ele>1368.8</ele>
        <time>2020-12-05T16:24:34.948Z</time>
      </trkpt>
      <trkpt lat="42.90168" lon="0.08605">
        <ele>1368.8</ele>
        <time>2020-12-05T16:24:35.948Z</time>
      </trkpt>
      <trkpt lat="42.90169" lon="0.08614">
        <ele>1369.2</ele>
        <time>2020-12-05T16:24:36.949Z</time>
      </trkpt>
      <trkpt lat="42.90169" lon="0.08614">
        <ele>1369.2</ele>
        <time>2020-12-05T16:24:37.949Z</time>
      </trkpt>
      <trkpt lat="42.90169" lon="0.08614">
        <ele>1369.2</ele>
        <time>2020-12-05T16:24:38.948Z</time>
      </trkpt>
      <trkpt lat="42.90169" lon="0.08614">
        <ele>1369.2</ele>
        <time>2020-12-05T16:24:39.948Z</time>
      </trkpt>
      <trkpt lat="42.90169" lon="0.08614">
        <ele>1369.2</ele>
        <time>2020-12-05T16:24:40.947Z</time>
      </trkpt>
      <trkpt lat="42.90169" lon="0.08614">
        <ele>1369.2</ele>
        <time>2020-12-05T16:24:41.948Z</time>
      </trkpt>
      <trkpt lat="42.90169" lon="0.08614">
        <ele>1369.2</ele>
        <time>2020-12-05T16:24:42.947Z</time>
      </trkpt>
      <trkpt lat="42.90174" lon="0.08629">
        <ele>1370.4</ele>
        <time>2020-12-05T16:24:43.948Z</time>
      </trkpt>
      <trkpt lat="42.90174" lon="0.08629">
        <ele>1370.4</ele>
        <time>2020-12-05T16:24:44.947Z</time>
      </trkpt>
      <trkpt lat="42.90174" lon="0.08633">
        <ele>1370.8</ele>
        <time>2020-12-05T16:24:45.947Z</time>
      </trkpt>
      <trkpt lat="42.90174" lon="0.08633">
        <ele>1370.8</ele>
        <time>2020-12-05T16:24:46.949Z</time>
      </trkpt>
      <trkpt lat="42.90174" lon="0.08633">
        <ele>1370.8</ele>
        <time>2020-12-05T16:24:47.949Z</time>
      </trkpt>
      <trkpt lat="42.90174" lon="0.08633">
        <ele>1370.8</ele>
        <time>2020-12-05T16:24:48.949Z</time>
      </trkpt>
      <trkpt lat="42.90174" lon="0.08633">
        <ele>1370.8</ele>
        <time>2020-12-05T16:24:49.948Z</time>
      </trkpt>
      <trkpt lat="42.90174" lon="0.08633">
        <ele>1370.8</ele>
        <time>2020-12-05T16:24:50.95Z</time>
      </trkpt>
      <trkpt lat="42.90174" lon="0.0865">
        <ele>1371.4</ele>
        <time>2020-12-05T16:24:51.947Z</time>
      </trkpt>
      <trkpt lat="42.90174" lon="0.0865">
        <ele>1371.4</ele>
        <time>2020-12-05T16:24:52.949Z</time>
      </trkpt>
      <trkpt lat="42.90174" lon="0.0865">
        <ele>1371.4</ele>
        <time>2020-12-05T16:24:53.948Z</time>
      </trkpt>
      <trkpt lat="42.90174" lon="0.0865">
        <ele>1371.4</ele>
        <time>2020-12-05T16:24:54.949Z</time>
      </trkpt>
      <trkpt lat="42.90174" lon="0.0865">
        <ele>1371.4</ele>
        <time>2020-12-05T16:24:55.948Z</time>
      </trkpt>
      <trkpt lat="42.90176" lon="0.08667">
        <ele>1372.4</ele>
        <time>2020-12-05T16:24:56.948Z</time>
      </trkpt>
      <trkpt lat="42.90176" lon="0.08667">
        <ele>1372.4</ele>
        <time>2020-12-05T16:24:57.949Z</time>
      </trkpt>
      <trkpt lat="42.90177" lon="0.08672">
        <ele>1372.6</ele>
        <time>2020-12-05T16:24:58.949Z</time>
      </trkpt>
      <trkpt lat="42.90177" lon="0.08672">
        <ele>1372.6</ele>
        <time>2020-12-05T16:24:59.948Z</time>
      </trkpt>
      <trkpt lat="42.90177" lon="0.08672">
        <ele>1372.6</ele>
        <time>2020-12-05T16:25:00.948Z</time>
      </trkpt>
      <trkpt lat="42.90177" lon="0.08672">
        <ele>1372.6</ele>
        <time>2020-12-05T16:25:01.949Z</time>
      </trkpt>
      <trkpt lat="42.90177" lon="0.08672">
        <ele>1372.6</ele>
        <time>2020-12-05T16:25:02.948Z</time>
      </trkpt>
      <trkpt lat="42.90177" lon="0.08672">
        <ele>1372.6</ele>
        <time>2020-12-05T16:25:03.947Z</time>
      </trkpt>
      <trkpt lat="42.90181" lon="0.0869">
        <ele>1374</ele>
        <time>2020-12-05T16:25:04.949Z</time>
      </trkpt>
      <trkpt lat="42.90181" lon="0.08695">
        <ele>1374.2</ele>
        <time>2020-12-05T16:25:05.949Z</time>
      </trkpt>
      <trkpt lat="42.90181" lon="0.08695">
        <ele>1374.2</ele>
        <time>2020-12-05T16:25:06.948Z</time>
      </trkpt>
      <trkpt lat="42.90181" lon="0.08695">
        <ele>1374.2</ele>
        <time>2020-12-05T16:25:07.948Z</time>
      </trkpt>
      <trkpt lat="42.90181" lon="0.08695">
        <ele>1374.2</ele>
        <time>2020-12-05T16:25:08.948Z</time>
      </trkpt>
      <trkpt lat="42.90181" lon="0.08695">
        <ele>1374.2</ele>
        <time>2020-12-05T16:25:09.949Z</time>
      </trkpt>
      <trkpt lat="42.90183" lon="0.0871">
        <ele>1375</ele>
        <time>2020-12-05T16:25:10.947Z</time>
      </trkpt>
      <trkpt lat="42.90183" lon="0.0871">
        <ele>1375</ele>
        <time>2020-12-05T16:25:11.949Z</time>
      </trkpt>
      <trkpt lat="42.90183" lon="0.0871">
        <ele>1375</ele>
        <time>2020-12-05T16:25:12.947Z</time>
      </trkpt>
      <trkpt lat="42.90183" lon="0.0871">
        <ele>1375</ele>
        <time>2020-12-05T16:25:13.947Z</time>
      </trkpt>
      <trkpt lat="42.90183" lon="0.0871">
        <ele>1375</ele>
        <time>2020-12-05T16:25:14.948Z</time>
      </trkpt>
      <trkpt lat="42.90183" lon="0.0871">
        <ele>1375</ele>
        <time>2020-12-05T16:25:15.949Z</time>
      </trkpt>
      <trkpt lat="42.90183" lon="0.0871">
        <ele>1375</ele>
        <time>2020-12-05T16:25:16.948Z</time>
      </trkpt>
      <trkpt lat="42.90188" lon="0.08732">
        <ele>1375.8</ele>
        <time>2020-12-05T16:25:17.948Z</time>
      </trkpt>
      <trkpt lat="42.90188" lon="0.08732">
        <ele>1375.8</ele>
        <time>2020-12-05T16:25:18.948Z</time>
      </trkpt>
      <trkpt lat="42.90188" lon="0.08732">
        <ele>1375.8</ele>
        <time>2020-12-05T16:25:19.947Z</time>
      </trkpt>
      <trkpt lat="42.90188" lon="0.08732">
        <ele>1375.8</ele>
        <time>2020-12-05T16:25:20.948Z</time>
      </trkpt>
      <trkpt lat="42.90193" lon="0.08743">
        <ele>1376</ele>
        <time>2020-12-05T16:25:21.949Z</time>
      </trkpt>
      <trkpt lat="42.90193" lon="0.08743">
        <ele>1376</ele>
        <time>2020-12-05T16:25:22.947Z</time>
      </trkpt>
      <trkpt lat="42.90193" lon="0.08743">
        <ele>1376</ele>
        <time>2020-12-05T16:25:23.947Z</time>
      </trkpt>
      <trkpt lat="42.90193" lon="0.08743">
        <ele>1376</ele>
        <time>2020-12-05T16:25:24.949Z</time>
      </trkpt>
      <trkpt lat="42.90193" lon="0.08743">
        <ele>1376</ele>
        <time>2020-12-05T16:25:25.948Z</time>
      </trkpt>
      <trkpt lat="42.90193" lon="0.08743">
        <ele>1376</ele>
        <time>2020-12-05T16:25:26.949Z</time>
      </trkpt>
      <trkpt lat="42.90193" lon="0.08743">
        <ele>1376</ele>
        <time>2020-12-05T16:25:27.948Z</time>
      </trkpt>
      <trkpt lat="42.90193" lon="0.08743">
        <ele>1376</ele>
        <time>2020-12-05T16:25:28.949Z</time>
      </trkpt>
      <trkpt lat="42.90193" lon="0.08743">
        <ele>1376</ele>
        <time>2020-12-05T16:25:29.95Z</time>
      </trkpt>
      <trkpt lat="42.90203" lon="0.08768">
        <ele>1377</ele>
        <time>2020-12-05T16:25:30.947Z</time>
      </trkpt>
      <trkpt lat="42.90203" lon="0.08768">
        <ele>1377</ele>
        <time>2020-12-05T16:25:31.949Z</time>
      </trkpt>
      <trkpt lat="42.90203" lon="0.08768">
        <ele>1377</ele>
        <time>2020-12-05T16:25:32.948Z</time>
      </trkpt>
      <trkpt lat="42.90203" lon="0.08768">
        <ele>1377</ele>
        <time>2020-12-05T16:25:33.948Z</time>
      </trkpt>
      <trkpt lat="42.90203" lon="0.08768">
        <ele>1377</ele>
        <time>2020-12-05T16:25:34.949Z</time>
      </trkpt>
      <trkpt lat="42.90203" lon="0.08768">
        <ele>1377</ele>
        <time>2020-12-05T16:25:35.947Z</time>
      </trkpt>
      <trkpt lat="42.90203" lon="0.08768">
        <ele>1377</ele>
        <time>2020-12-05T16:25:36.947Z</time>
      </trkpt>
      <trkpt lat="42.90203" lon="0.08768">
        <ele>1377</ele>
        <time>2020-12-05T16:25:37.948Z</time>
      </trkpt>
      <trkpt lat="42.90203" lon="0.08768">
        <ele>1377</ele>
        <time>2020-12-05T16:25:38.947Z</time>
      </trkpt>
      <trkpt lat="42.90215" lon="0.08793">
        <ele>1378.2</ele>
        <time>2020-12-05T16:25:39.947Z</time>
      </trkpt>
      <trkpt lat="42.90215" lon="0.08793">
        <ele>1378.2</ele>
        <time>2020-12-05T16:25:40.948Z</time>
      </trkpt>
      <trkpt lat="42.90215" lon="0.08793">
        <ele>1378.2</ele>
        <time>2020-12-05T16:25:41.949Z</time>
      </trkpt>
      <trkpt lat="42.90215" lon="0.08793">
        <ele>1378.2</ele>
        <time>2020-12-05T16:25:42.949Z</time>
      </trkpt>
      <trkpt lat="42.90219" lon="0.08807">
        <ele>1378.4</ele>
        <time>2020-12-05T16:25:43.949Z</time>
      </trkpt>
      <trkpt lat="42.90219" lon="0.08807">
        <ele>1378.4</ele>
        <time>2020-12-05T16:25:44.948Z</time>
      </trkpt>
      <trkpt lat="42.90219" lon="0.08807">
        <ele>1378.4</ele>
        <time>2020-12-05T16:25:45.948Z</time>
      </trkpt>
      <trkpt lat="42.90219" lon="0.08807">
        <ele>1378.4</ele>
        <time>2020-12-05T16:25:46.948Z</time>
      </trkpt>
      <trkpt lat="42.90225" lon="0.08828">
        <ele>1379</ele>
        <time>2020-12-05T16:25:47.948Z</time>
      </trkpt>
      <trkpt lat="42.90225" lon="0.08828">
        <ele>1379</ele>
        <time>2020-12-05T16:25:48.95Z</time>
      </trkpt>
      <trkpt lat="42.90227" lon="0.08836">
        <ele>1379</ele>
        <time>2020-12-05T16:25:49.949Z</time>
      </trkpt>
      <trkpt lat="42.90227" lon="0.08836">
        <ele>1379</ele>
        <time>2020-12-05T16:25:50.948Z</time>
      </trkpt>
      <trkpt lat="42.90227" lon="0.08836">
        <ele>1379</ele>
        <time>2020-12-05T16:25:51.949Z</time>
      </trkpt>
      <trkpt lat="42.9023" lon="0.08852">
        <ele>1379.4</ele>
        <time>2020-12-05T16:25:52.949Z</time>
      </trkpt>
      <trkpt lat="42.9023" lon="0.08852">
        <ele>1379.4</ele>
        <time>2020-12-05T16:25:53.948Z</time>
      </trkpt>
      <trkpt lat="42.9023" lon="0.08852">
        <ele>1379.4</ele>
        <time>2020-12-05T16:25:54.95Z</time>
      </trkpt>
      <trkpt lat="42.9023" lon="0.08852">
        <ele>1379.4</ele>
        <time>2020-12-05T16:25:55.949Z</time>
      </trkpt>
      <trkpt lat="42.9023" lon="0.08852">
        <ele>1379.4</ele>
        <time>2020-12-05T16:25:56.949Z</time>
      </trkpt>
      <trkpt lat="42.9023" lon="0.08852">
        <ele>1379.4</ele>
        <time>2020-12-05T16:25:57.949Z</time>
      </trkpt>
      <trkpt lat="42.9023" lon="0.08852">
        <ele>1379.4</ele>
        <time>2020-12-05T16:25:58.948Z</time>
      </trkpt>
      <trkpt lat="42.9023" lon="0.08852">
        <ele>1379.4</ele>
        <time>2020-12-05T16:25:59.949Z</time>
      </trkpt>
      <trkpt lat="42.9023" lon="0.08852">
        <ele>1379.4</ele>
        <time>2020-12-05T16:26:00.949Z</time>
      </trkpt>
      <trkpt lat="42.9024" lon="0.08901">
        <ele>1379.8</ele>
        <time>2020-12-05T16:26:01.947Z</time>
      </trkpt>
      <trkpt lat="42.9024" lon="0.08901">
        <ele>1379.8</ele>
        <time>2020-12-05T16:26:02.948Z</time>
      </trkpt>
      <trkpt lat="42.9024" lon="0.08901">
        <ele>1379.8</ele>
        <time>2020-12-05T16:26:03.951Z</time>
      </trkpt>
      <trkpt lat="42.9024" lon="0.08901">
        <ele>1379.8</ele>
        <time>2020-12-05T16:26:04.948Z</time>
      </trkpt>
      <trkpt lat="42.90245" lon="0.08922">
        <ele>1380</ele>
        <time>2020-12-05T16:26:05.949Z</time>
      </trkpt>
      <trkpt lat="42.90245" lon="0.08922">
        <ele>1380</ele>
        <time>2020-12-05T16:26:06.949Z</time>
      </trkpt>
      <trkpt lat="42.90247" lon="0.08929">
        <ele>1380</ele>
        <time>2020-12-05T16:26:07.949Z</time>
      </trkpt>
      <trkpt lat="42.90249" lon="0.08936">
        <ele>1380.2</ele>
        <time>2020-12-05T16:26:08.948Z</time>
      </trkpt>
      <trkpt lat="42.90249" lon="0.08936">
        <ele>1380.2</ele>
        <time>2020-12-05T16:26:09.949Z</time>
      </trkpt>
      <trkpt lat="42.90249" lon="0.08936">
        <ele>1380.2</ele>
        <time>2020-12-05T16:26:10.948Z</time>
      </trkpt>
      <trkpt lat="42.90249" lon="0.08936">
        <ele>1380.2</ele>
        <time>2020-12-05T16:26:11.95Z</time>
      </trkpt>
      <trkpt lat="42.90249" lon="0.08936">
        <ele>1380.2</ele>
        <time>2020-12-05T16:26:12.948Z</time>
      </trkpt>
      <trkpt lat="42.90249" lon="0.08936">
        <ele>1380.2</ele>
        <time>2020-12-05T16:26:13.949Z</time>
      </trkpt>
      <trkpt lat="42.90249" lon="0.08936">
        <ele>1380.2</ele>
        <time>2020-12-05T16:26:14.948Z</time>
      </trkpt>
      <trkpt lat="42.90249" lon="0.08936">
        <ele>1380.2</ele>
        <time>2020-12-05T16:26:15.947Z</time>
      </trkpt>
      <trkpt lat="42.90249" lon="0.08936">
        <ele>1380.2</ele>
        <time>2020-12-05T16:26:16.949Z</time>
      </trkpt>
      <trkpt lat="42.9026" lon="0.0898">
        <ele>1380.8</ele>
        <time>2020-12-05T16:26:17.949Z</time>
      </trkpt>
      <trkpt lat="42.9026" lon="0.0898">
        <ele>1380.8</ele>
        <time>2020-12-05T16:26:18.947Z</time>
      </trkpt>
      <trkpt lat="42.9026" lon="0.0898">
        <ele>1380.8</ele>
        <time>2020-12-05T16:26:19.948Z</time>
      </trkpt>
      <trkpt lat="42.9026" lon="0.0898">
        <ele>1380.8</ele>
        <time>2020-12-05T16:26:20.948Z</time>
      </trkpt>
      <trkpt lat="42.9026" lon="0.0898">
        <ele>1380.8</ele>
        <time>2020-12-05T16:26:21.947Z</time>
      </trkpt>
      <trkpt lat="42.90266" lon="0.09008">
        <ele>1381</ele>
        <time>2020-12-05T16:26:22.949Z</time>
      </trkpt>
      <trkpt lat="42.90266" lon="0.09008">
        <ele>1381</ele>
        <time>2020-12-05T16:26:23.949Z</time>
      </trkpt>
      <trkpt lat="42.90267" lon="0.09015">
        <ele>1381.2</ele>
        <time>2020-12-05T16:26:24.948Z</time>
      </trkpt>
      <trkpt lat="42.90267" lon="0.09015">
        <ele>1381.2</ele>
        <time>2020-12-05T16:26:25.949Z</time>
      </trkpt>
      <trkpt lat="42.90268" lon="0.09029">
        <ele>1381.6</ele>
        <time>2020-12-05T16:26:26.948Z</time>
      </trkpt>
      <trkpt lat="42.90268" lon="0.09029">
        <ele>1381.6</ele>
        <time>2020-12-05T16:26:27.948Z</time>
      </trkpt>
      <trkpt lat="42.90268" lon="0.09029">
        <ele>1381.6</ele>
        <time>2020-12-05T16:26:28.95Z</time>
      </trkpt>
      <trkpt lat="42.90268" lon="0.09043">
        <ele>1381.6</ele>
        <time>2020-12-05T16:26:29.948Z</time>
      </trkpt>
      <trkpt lat="42.90267" lon="0.0905">
        <ele>1381.8</ele>
        <time>2020-12-05T16:26:30.949Z</time>
      </trkpt>
      <trkpt lat="42.90267" lon="0.0905">
        <ele>1381.8</ele>
        <time>2020-12-05T16:26:31.948Z</time>
      </trkpt>
      <trkpt lat="42.90267" lon="0.0905">
        <ele>1381.8</ele>
        <time>2020-12-05T16:26:32.947Z</time>
      </trkpt>
      <trkpt lat="42.90267" lon="0.0905">
        <ele>1381.8</ele>
        <time>2020-12-05T16:26:33.947Z</time>
      </trkpt>
      <trkpt lat="42.90267" lon="0.0905">
        <ele>1381.8</ele>
        <time>2020-12-05T16:26:34.95Z</time>
      </trkpt>
      <trkpt lat="42.90263" lon="0.09084">
        <ele>1382.8</ele>
        <time>2020-12-05T16:26:35.947Z</time>
      </trkpt>
      <trkpt lat="42.90263" lon="0.09084">
        <ele>1382.8</ele>
        <time>2020-12-05T16:26:36.948Z</time>
      </trkpt>
      <trkpt lat="42.90262" lon="0.09091">
        <ele>1383.2</ele>
        <time>2020-12-05T16:26:37.948Z</time>
      </trkpt>
      <trkpt lat="42.90262" lon="0.09091">
        <ele>1383.2</ele>
        <time>2020-12-05T16:26:38.947Z</time>
      </trkpt>
      <trkpt lat="42.90262" lon="0.09091">
        <ele>1383.2</ele>
        <time>2020-12-05T16:26:39.949Z</time>
      </trkpt>
      <trkpt lat="42.90261" lon="0.09103">
        <ele>1383.8</ele>
        <time>2020-12-05T16:26:40.947Z</time>
      </trkpt>
      <trkpt lat="42.90261" lon="0.09103">
        <ele>1383.8</ele>
        <time>2020-12-05T16:26:41.947Z</time>
      </trkpt>
      <trkpt lat="42.90262" lon="0.09109">
        <ele>1384.2</ele>
        <time>2020-12-05T16:26:42.949Z</time>
      </trkpt>
      <trkpt lat="42.90262" lon="0.09109">
        <ele>1384.2</ele>
        <time>2020-12-05T16:26:43.949Z</time>
      </trkpt>
      <trkpt lat="42.90262" lon="0.09115">
        <ele>1384.8</ele>
        <time>2020-12-05T16:26:44.949Z</time>
      </trkpt>
      <trkpt lat="42.90262" lon="0.09115">
        <ele>1384.8</ele>
        <time>2020-12-05T16:26:45.95Z</time>
      </trkpt>
      <trkpt lat="42.90262" lon="0.09121">
        <ele>1385.4</ele>
        <time>2020-12-05T16:26:46.949Z</time>
      </trkpt>
      <trkpt lat="42.90262" lon="0.09121">
        <ele>1385.4</ele>
        <time>2020-12-05T16:26:47.949Z</time>
      </trkpt>
      <trkpt lat="42.90262" lon="0.09121">
        <ele>1385.4</ele>
        <time>2020-12-05T16:26:48.948Z</time>
      </trkpt>
      <trkpt lat="42.90262" lon="0.09121">
        <ele>1385.4</ele>
        <time>2020-12-05T16:26:49.948Z</time>
      </trkpt>
      <trkpt lat="42.90262" lon="0.09121">
        <ele>1385.4</ele>
        <time>2020-12-05T16:26:50.948Z</time>
      </trkpt>
      <trkpt lat="42.90262" lon="0.09121">
        <ele>1385.4</ele>
        <time>2020-12-05T16:26:51.948Z</time>
      </trkpt>
      <trkpt lat="42.90261" lon="0.09139">
        <ele>1386.4</ele>
        <time>2020-12-05T16:26:52.949Z</time>
      </trkpt>
      <trkpt lat="42.90261" lon="0.09139">
        <ele>1386.4</ele>
        <time>2020-12-05T16:26:53.949Z</time>
      </trkpt>
      <trkpt lat="42.90261" lon="0.09139">
        <ele>1386.4</ele>
        <time>2020-12-05T16:26:54.948Z</time>
      </trkpt>
      <trkpt lat="42.90261" lon="0.09146">
        <ele>1386.8</ele>
        <time>2020-12-05T16:26:55.947Z</time>
      </trkpt>
      <trkpt lat="42.90261" lon="0.09151">
        <ele>1387</ele>
        <time>2020-12-05T16:26:56.948Z</time>
      </trkpt>
      <trkpt lat="42.90261" lon="0.09151">
        <ele>1387</ele>
        <time>2020-12-05T16:26:57.948Z</time>
      </trkpt>
      <trkpt lat="42.90261" lon="0.09151">
        <ele>1387</ele>
        <time>2020-12-05T16:26:58.95Z</time>
      </trkpt>
      <trkpt lat="42.90262" lon="0.09157">
        <ele>1387.4</ele>
        <time>2020-12-05T16:26:59.947Z</time>
      </trkpt>
      <trkpt lat="42.90262" lon="0.09157">
        <ele>1387.4</ele>
        <time>2020-12-05T16:27:00.947Z</time>
      </trkpt>
      <trkpt lat="42.90262" lon="0.09157">
        <ele>1387.4</ele>
        <time>2020-12-05T16:27:01.949Z</time>
      </trkpt>
      <trkpt lat="42.90262" lon="0.09157">
        <ele>1387.4</ele>
        <time>2020-12-05T16:27:02.95Z</time>
      </trkpt>
      <trkpt lat="42.90262" lon="0.09157">
        <ele>1387.4</ele>
        <time>2020-12-05T16:27:03.947Z</time>
      </trkpt>
      <trkpt lat="42.90262" lon="0.09157">
        <ele>1387.4</ele>
        <time>2020-12-05T16:27:04.949Z</time>
      </trkpt>
      <trkpt lat="42.90263" lon="0.09174">
        <ele>1388.4</ele>
        <time>2020-12-05T16:27:05.948Z</time>
      </trkpt>
      <trkpt lat="42.90263" lon="0.09174">
        <ele>1388.4</ele>
        <time>2020-12-05T16:27:06.948Z</time>
      </trkpt>
      <trkpt lat="42.90263" lon="0.09174">
        <ele>1388.4</ele>
        <time>2020-12-05T16:27:07.947Z</time>
      </trkpt>
      <trkpt lat="42.90263" lon="0.09174">
        <ele>1388.4</ele>
        <time>2020-12-05T16:27:08.949Z</time>
      </trkpt>
      <trkpt lat="42.90263" lon="0.09174">
        <ele>1388.4</ele>
        <time>2020-12-05T16:27:09.949Z</time>
      </trkpt>
      <trkpt lat="42.90263" lon="0.09174">
        <ele>1388.4</ele>
        <time>2020-12-05T16:27:10.948Z</time>
      </trkpt>
      <trkpt lat="42.90263" lon="0.09174">
        <ele>1388.4</ele>
        <time>2020-12-05T16:27:11.948Z</time>
      </trkpt>
      <trkpt lat="42.90263" lon="0.09174">
        <ele>1388.4</ele>
        <time>2020-12-05T16:27:12.949Z</time>
      </trkpt>
      <trkpt lat="42.90263" lon="0.09174">
        <ele>1388.4</ele>
        <time>2020-12-05T16:27:13.948Z</time>
      </trkpt>
      <trkpt lat="42.90263" lon="0.09174">
        <ele>1388.4</ele>
        <time>2020-12-05T16:27:14.947Z</time>
      </trkpt>
      <trkpt lat="42.90269" lon="0.09196">
        <ele>1389.6</ele>
        <time>2020-12-05T16:27:15.95Z</time>
      </trkpt>
      <trkpt lat="42.90269" lon="0.09196">
        <ele>1389.6</ele>
        <time>2020-12-05T16:27:16.948Z</time>
      </trkpt>
      <trkpt lat="42.90269" lon="0.09196">
        <ele>1389.6</ele>
        <time>2020-12-05T16:27:17.948Z</time>
      </trkpt>
      <trkpt lat="42.90269" lon="0.09196">
        <ele>1389.6</ele>
        <time>2020-12-05T16:27:18.947Z</time>
      </trkpt>
      <trkpt lat="42.90272" lon="0.09206">
        <ele>1390</ele>
        <time>2020-12-05T16:27:19.95Z</time>
      </trkpt>
      <trkpt lat="42.90272" lon="0.09206">
        <ele>1390</ele>
        <time>2020-12-05T16:27:20.948Z</time>
      </trkpt>
      <trkpt lat="42.90272" lon="0.09206">
        <ele>1390</ele>
        <time>2020-12-05T16:27:21.949Z</time>
      </trkpt>
      <trkpt lat="42.90272" lon="0.09206">
        <ele>1390</ele>
        <time>2020-12-05T16:27:22.949Z</time>
      </trkpt>
      <trkpt lat="42.90275" lon="0.09216">
        <ele>1390.8</ele>
        <time>2020-12-05T16:27:23.949Z</time>
      </trkpt>
      <trkpt lat="42.90275" lon="0.09216">
        <ele>1390.8</ele>
        <time>2020-12-05T16:27:24.949Z</time>
      </trkpt>
      <trkpt lat="42.90275" lon="0.09216">
        <ele>1390.8</ele>
        <time>2020-12-05T16:27:25.949Z</time>
      </trkpt>
      <trkpt lat="42.90275" lon="0.09216">
        <ele>1390.8</ele>
        <time>2020-12-05T16:27:26.948Z</time>
      </trkpt>
      <trkpt lat="42.90275" lon="0.09216">
        <ele>1390.8</ele>
        <time>2020-12-05T16:27:27.948Z</time>
      </trkpt>
      <trkpt lat="42.90275" lon="0.09216">
        <ele>1390.8</ele>
        <time>2020-12-05T16:27:28.949Z</time>
      </trkpt>
      <trkpt lat="42.90275" lon="0.09216">
        <ele>1390.8</ele>
        <time>2020-12-05T16:27:29.949Z</time>
      </trkpt>
      <trkpt lat="42.90279" lon="0.09232">
        <ele>1392</ele>
        <time>2020-12-05T16:27:30.949Z</time>
      </trkpt>
      <trkpt lat="42.90279" lon="0.09232">
        <ele>1392</ele>
        <time>2020-12-05T16:27:31.948Z</time>
      </trkpt>
      <trkpt lat="42.90279" lon="0.09232">
        <ele>1392</ele>
        <time>2020-12-05T16:27:32.948Z</time>
      </trkpt>
      <trkpt lat="42.90279" lon="0.09232">
        <ele>1392</ele>
        <time>2020-12-05T16:27:33.948Z</time>
      </trkpt>
      <trkpt lat="42.90283" lon="0.09243">
        <ele>1392.2</ele>
        <time>2020-12-05T16:27:34.947Z</time>
      </trkpt>
      <trkpt lat="42.90283" lon="0.09243">
        <ele>1392.2</ele>
        <time>2020-12-05T16:27:35.948Z</time>
      </trkpt>
      <trkpt lat="42.90283" lon="0.09243">
        <ele>1392.2</ele>
        <time>2020-12-05T16:27:36.95Z</time>
      </trkpt>
      <trkpt lat="42.90283" lon="0.09243">
        <ele>1392.2</ele>
        <time>2020-12-05T16:27:37.948Z</time>
      </trkpt>
      <trkpt lat="42.90283" lon="0.09243">
        <ele>1392.2</ele>
        <time>2020-12-05T16:27:38.948Z</time>
      </trkpt>
      <trkpt lat="42.90287" lon="0.09259">
        <ele>1393</ele>
        <time>2020-12-05T16:27:39.949Z</time>
      </trkpt>
      <trkpt lat="42.90287" lon="0.09259">
        <ele>1393</ele>
        <time>2020-12-05T16:27:40.949Z</time>
      </trkpt>
      <trkpt lat="42.90287" lon="0.09259">
        <ele>1393</ele>
        <time>2020-12-05T16:27:41.95Z</time>
      </trkpt>
      <trkpt lat="42.9029" lon="0.09271">
        <ele>1393.6</ele>
        <time>2020-12-05T16:27:42.949Z</time>
      </trkpt>
      <trkpt lat="42.9029" lon="0.09271">
        <ele>1393.6</ele>
        <time>2020-12-05T16:27:43.949Z</time>
      </trkpt>
      <trkpt lat="42.9029" lon="0.09271">
        <ele>1393.6</ele>
        <time>2020-12-05T16:27:44.949Z</time>
      </trkpt>
      <trkpt lat="42.90294" lon="0.09282">
        <ele>1394.2</ele>
        <time>2020-12-05T16:27:45.948Z</time>
      </trkpt>
      <trkpt lat="42.90294" lon="0.09282">
        <ele>1394.2</ele>
        <time>2020-12-05T16:27:46.949Z</time>
      </trkpt>
      <trkpt lat="42.90294" lon="0.09282">
        <ele>1394.2</ele>
        <time>2020-12-05T16:27:47.949Z</time>
      </trkpt>
      <trkpt lat="42.90294" lon="0.09282">
        <ele>1394.2</ele>
        <time>2020-12-05T16:27:48.947Z</time>
      </trkpt>
      <trkpt lat="42.90294" lon="0.09282">
        <ele>1394.2</ele>
        <time>2020-12-05T16:27:49.949Z</time>
      </trkpt>
      <trkpt lat="42.90298" lon="0.093">
        <ele>1394.8</ele>
        <time>2020-12-05T16:27:50.947Z</time>
      </trkpt>
      <trkpt lat="42.90299" lon="0.09306">
        <ele>1395</ele>
        <time>2020-12-05T16:27:51.949Z</time>
      </trkpt>
      <trkpt lat="42.90299" lon="0.09306">
        <ele>1395</ele>
        <time>2020-12-05T16:27:52.948Z</time>
      </trkpt>
      <trkpt lat="42.90299" lon="0.09306">
        <ele>1395</ele>
        <time>2020-12-05T16:27:53.95Z</time>
      </trkpt>
      <trkpt lat="42.90299" lon="0.09306">
        <ele>1395</ele>
        <time>2020-12-05T16:27:54.948Z</time>
      </trkpt>
      <trkpt lat="42.90299" lon="0.09306">
        <ele>1395</ele>
        <time>2020-12-05T16:27:55.947Z</time>
      </trkpt>
      <trkpt lat="42.90302" lon="0.09324">
        <ele>1395.4</ele>
        <time>2020-12-05T16:27:56.949Z</time>
      </trkpt>
      <trkpt lat="42.90303" lon="0.09331">
        <ele>1395.6</ele>
        <time>2020-12-05T16:27:57.948Z</time>
      </trkpt>
      <trkpt lat="42.90303" lon="0.09331">
        <ele>1395.6</ele>
        <time>2020-12-05T16:27:58.95Z</time>
      </trkpt>
      <trkpt lat="42.90303" lon="0.09331">
        <ele>1395.6</ele>
        <time>2020-12-05T16:27:59.947Z</time>
      </trkpt>
      <trkpt lat="42.90303" lon="0.09331">
        <ele>1395.6</ele>
        <time>2020-12-05T16:28:00.948Z</time>
      </trkpt>
      <trkpt lat="42.90306" lon="0.09345">
        <ele>1396</ele>
        <time>2020-12-05T16:28:01.948Z</time>
      </trkpt>
      <trkpt lat="42.90306" lon="0.09345">
        <ele>1396</ele>
        <time>2020-12-05T16:28:02.948Z</time>
      </trkpt>
      <trkpt lat="42.90306" lon="0.09345">
        <ele>1396</ele>
        <time>2020-12-05T16:28:03.948Z</time>
      </trkpt>
      <trkpt lat="42.90308" lon="0.09358">
        <ele>1396.6</ele>
        <time>2020-12-05T16:28:04.948Z</time>
      </trkpt>
      <trkpt lat="42.90308" lon="0.09358">
        <ele>1396.6</ele>
        <time>2020-12-05T16:28:05.947Z</time>
      </trkpt>
      <trkpt lat="42.90308" lon="0.09358">
        <ele>1396.6</ele>
        <time>2020-12-05T16:28:06.95Z</time>
      </trkpt>
      <trkpt lat="42.90308" lon="0.09358">
        <ele>1396.6</ele>
        <time>2020-12-05T16:28:07.947Z</time>
      </trkpt>
      <trkpt lat="42.9031" lon="0.09376">
        <ele>1396.8</ele>
        <time>2020-12-05T16:28:08.949Z</time>
      </trkpt>
      <trkpt lat="42.9031" lon="0.09376">
        <ele>1396.8</ele>
        <time>2020-12-05T16:28:09.95Z</time>
      </trkpt>
      <trkpt lat="42.90311" lon="0.09382">
        <ele>1396.8</ele>
        <time>2020-12-05T16:28:10.947Z</time>
      </trkpt>
      <trkpt lat="42.90311" lon="0.09382">
        <ele>1396.8</ele>
        <time>2020-12-05T16:28:11.947Z</time>
      </trkpt>
      <trkpt lat="42.90311" lon="0.09382">
        <ele>1396.8</ele>
        <time>2020-12-05T16:28:12.949Z</time>
      </trkpt>
      <trkpt lat="42.90311" lon="0.09382">
        <ele>1396.8</ele>
        <time>2020-12-05T16:28:13.947Z</time>
      </trkpt>
      <trkpt lat="42.90311" lon="0.09382">
        <ele>1396.8</ele>
        <time>2020-12-05T16:28:14.949Z</time>
      </trkpt>
      <trkpt lat="42.90311" lon="0.09382">
        <ele>1396.8</ele>
        <time>2020-12-05T16:28:15.948Z</time>
      </trkpt>
      <trkpt lat="42.90317" lon="0.09407">
        <ele>1397</ele>
        <time>2020-12-05T16:28:16.947Z</time>
      </trkpt>
      <trkpt lat="42.90317" lon="0.09407">
        <ele>1397</ele>
        <time>2020-12-05T16:28:17.949Z</time>
      </trkpt>
      <trkpt lat="42.90317" lon="0.09407">
        <ele>1397</ele>
        <time>2020-12-05T16:28:18.948Z</time>
      </trkpt>
      <trkpt lat="42.90317" lon="0.09407">
        <ele>1397</ele>
        <time>2020-12-05T16:28:19.947Z</time>
      </trkpt>
      <trkpt lat="42.90318" lon="0.09422">
        <ele>1397.4</ele>
        <time>2020-12-05T16:28:20.949Z</time>
      </trkpt>
      <trkpt lat="42.90318" lon="0.09422">
        <ele>1397.4</ele>
        <time>2020-12-05T16:28:21.948Z</time>
      </trkpt>
      <trkpt lat="42.90318" lon="0.09422">
        <ele>1397.4</ele>
        <time>2020-12-05T16:28:22.949Z</time>
      </trkpt>
      <trkpt lat="42.90318" lon="0.09422">
        <ele>1397.4</ele>
        <time>2020-12-05T16:28:23.95Z</time>
      </trkpt>
      <trkpt lat="42.90318" lon="0.09422">
        <ele>1397.4</ele>
        <time>2020-12-05T16:28:24.948Z</time>
      </trkpt>
      <trkpt lat="42.90318" lon="0.09422">
        <ele>1397.4</ele>
        <time>2020-12-05T16:28:25.949Z</time>
      </trkpt>
      <trkpt lat="42.90321" lon="0.09449">
        <ele>1398.2</ele>
        <time>2020-12-05T16:28:26.947Z</time>
      </trkpt>
      <trkpt lat="42.90321" lon="0.09449">
        <ele>1398.2</ele>
        <time>2020-12-05T16:28:27.947Z</time>
      </trkpt>
      <trkpt lat="42.90321" lon="0.09449">
        <ele>1398.2</ele>
        <time>2020-12-05T16:28:28.948Z</time>
      </trkpt>
      <trkpt lat="42.90321" lon="0.09463">
        <ele>1398.4</ele>
        <time>2020-12-05T16:28:29.949Z</time>
      </trkpt>
      <trkpt lat="42.90321" lon="0.09463">
        <ele>1398.4</ele>
        <time>2020-12-05T16:28:30.948Z</time>
      </trkpt>
      <trkpt lat="42.90321" lon="0.09469">
        <ele>1398.6</ele>
        <time>2020-12-05T16:28:31.949Z</time>
      </trkpt>
      <trkpt lat="42.90321" lon="0.09469">
        <ele>1398.6</ele>
        <time>2020-12-05T16:28:32.95Z</time>
      </trkpt>
      <trkpt lat="42.90321" lon="0.09469">
        <ele>1398.6</ele>
        <time>2020-12-05T16:28:33.947Z</time>
      </trkpt>
      <trkpt lat="42.90321" lon="0.09483">
        <ele>1399.2</ele>
        <time>2020-12-05T16:28:34.948Z</time>
      </trkpt>
      <trkpt lat="42.90321" lon="0.09483">
        <ele>1399.2</ele>
        <time>2020-12-05T16:28:35.949Z</time>
      </trkpt>
      <trkpt lat="42.9032" lon="0.09489">
        <ele>1399.4</ele>
        <time>2020-12-05T16:28:36.949Z</time>
      </trkpt>
      <trkpt lat="42.9032" lon="0.09489">
        <ele>1399.4</ele>
        <time>2020-12-05T16:28:37.949Z</time>
      </trkpt>
      <trkpt lat="42.9032" lon="0.09489">
        <ele>1399.4</ele>
        <time>2020-12-05T16:28:38.948Z</time>
      </trkpt>
      <trkpt lat="42.9032" lon="0.09489">
        <ele>1399.4</ele>
        <time>2020-12-05T16:28:39.948Z</time>
      </trkpt>
      <trkpt lat="42.9032" lon="0.09489">
        <ele>1399.4</ele>
        <time>2020-12-05T16:28:40.948Z</time>
      </trkpt>
      <trkpt lat="42.9032" lon="0.09489">
        <ele>1399.4</ele>
        <time>2020-12-05T16:28:41.948Z</time>
      </trkpt>
      <trkpt lat="42.9032" lon="0.09489">
        <ele>1399.4</ele>
        <time>2020-12-05T16:28:42.949Z</time>
      </trkpt>
      <trkpt lat="42.90321" lon="0.09514">
        <ele>1400.6</ele>
        <time>2020-12-05T16:28:43.949Z</time>
      </trkpt>
      <trkpt lat="42.90321" lon="0.09514">
        <ele>1400.6</ele>
        <time>2020-12-05T16:28:44.948Z</time>
      </trkpt>
      <trkpt lat="42.90321" lon="0.09514">
        <ele>1400.6</ele>
        <time>2020-12-05T16:28:45.949Z</time>
      </trkpt>
      <trkpt lat="42.90321" lon="0.09514">
        <ele>1400.6</ele>
        <time>2020-12-05T16:28:46.949Z</time>
      </trkpt>
      <trkpt lat="42.90321" lon="0.09526">
        <ele>1401</ele>
        <time>2020-12-05T16:28:47.949Z</time>
      </trkpt>
      <trkpt lat="42.90321" lon="0.09526">
        <ele>1401</ele>
        <time>2020-12-05T16:28:48.949Z</time>
      </trkpt>
      <trkpt lat="42.90321" lon="0.09526">
        <ele>1401</ele>
        <time>2020-12-05T16:28:49.949Z</time>
      </trkpt>
      <trkpt lat="42.90321" lon="0.09526">
        <ele>1401</ele>
        <time>2020-12-05T16:28:50.948Z</time>
      </trkpt>
      <trkpt lat="42.90321" lon="0.09526">
        <ele>1401</ele>
        <time>2020-12-05T16:28:51.949Z</time>
      </trkpt>
      <trkpt lat="42.90321" lon="0.09526">
        <ele>1401</ele>
        <time>2020-12-05T16:28:52.948Z</time>
      </trkpt>
      <trkpt lat="42.90322" lon="0.09544">
        <ele>1401.8</ele>
        <time>2020-12-05T16:28:53.95Z</time>
      </trkpt>
      <trkpt lat="42.90322" lon="0.09544">
        <ele>1401.8</ele>
        <time>2020-12-05T16:28:54.948Z</time>
      </trkpt>
      <trkpt lat="42.90322" lon="0.09544">
        <ele>1401.8</ele>
        <time>2020-12-05T16:28:55.948Z</time>
      </trkpt>
      <trkpt lat="42.90322" lon="0.09544">
        <ele>1401.8</ele>
        <time>2020-12-05T16:28:56.947Z</time>
      </trkpt>
      <trkpt lat="42.90322" lon="0.09544">
        <ele>1401.8</ele>
        <time>2020-12-05T16:28:57.95Z</time>
      </trkpt>
      <trkpt lat="42.90322" lon="0.09544">
        <ele>1401.8</ele>
        <time>2020-12-05T16:28:58.947Z</time>
      </trkpt>
      <trkpt lat="42.90322" lon="0.09544">
        <ele>1401.8</ele>
        <time>2020-12-05T16:28:59.947Z</time>
      </trkpt>
      <trkpt lat="42.90322" lon="0.09544">
        <ele>1401.8</ele>
        <time>2020-12-05T16:29:00.95Z</time>
      </trkpt>
      <trkpt lat="42.9032" lon="0.09567">
        <ele>1403</ele>
        <time>2020-12-05T16:29:01.947Z</time>
      </trkpt>
      <trkpt lat="42.9032" lon="0.09567">
        <ele>1403</ele>
        <time>2020-12-05T16:29:02.95Z</time>
      </trkpt>
      <trkpt lat="42.9032" lon="0.09567">
        <ele>1403</ele>
        <time>2020-12-05T16:29:03.949Z</time>
      </trkpt>
      <trkpt lat="42.9032" lon="0.09567">
        <ele>1403</ele>
        <time>2020-12-05T16:29:04.949Z</time>
      </trkpt>
      <trkpt lat="42.9032" lon="0.09567">
        <ele>1403</ele>
        <time>2020-12-05T16:29:05.948Z</time>
      </trkpt>
      <trkpt lat="42.9032" lon="0.09567">
        <ele>1403</ele>
        <time>2020-12-05T16:29:06.947Z</time>
      </trkpt>
      <trkpt lat="42.9032" lon="0.09567">
        <ele>1403</ele>
        <time>2020-12-05T16:29:07.949Z</time>
      </trkpt>
      <trkpt lat="42.9032" lon="0.0959">
        <ele>1403.8</ele>
        <time>2020-12-05T16:29:08.949Z</time>
      </trkpt>
      <trkpt lat="42.9032" lon="0.0959">
        <ele>1403.8</ele>
        <time>2020-12-05T16:29:09.947Z</time>
      </trkpt>
      <trkpt lat="42.9032" lon="0.0959">
        <ele>1403.8</ele>
        <time>2020-12-05T16:29:10.95Z</time>
      </trkpt>
      <trkpt lat="42.9032" lon="0.09602">
        <ele>1404.4</ele>
        <time>2020-12-05T16:29:11.949Z</time>
      </trkpt>
      <trkpt lat="42.9032" lon="0.09602">
        <ele>1404.4</ele>
        <time>2020-12-05T16:29:12.947Z</time>
      </trkpt>
      <trkpt lat="42.9032" lon="0.09607">
        <ele>1404.8</ele>
        <time>2020-12-05T16:29:13.948Z</time>
      </trkpt>
      <trkpt lat="42.9032" lon="0.09607">
        <ele>1404.8</ele>
        <time>2020-12-05T16:29:14.949Z</time>
      </trkpt>
      <trkpt lat="42.9032" lon="0.09614">
        <ele>1405</ele>
        <time>2020-12-05T16:29:15.947Z</time>
      </trkpt>
      <trkpt lat="42.9032" lon="0.09614">
        <ele>1405</ele>
        <time>2020-12-05T16:29:16.948Z</time>
      </trkpt>
      <trkpt lat="42.9032" lon="0.09614">
        <ele>1405</ele>
        <time>2020-12-05T16:29:17.947Z</time>
      </trkpt>
      <trkpt lat="42.9032" lon="0.09614">
        <ele>1405</ele>
        <time>2020-12-05T16:29:18.949Z</time>
      </trkpt>
      <trkpt lat="42.9032" lon="0.09614">
        <ele>1405</ele>
        <time>2020-12-05T16:29:19.95Z</time>
      </trkpt>
      <trkpt lat="42.9032" lon="0.09614">
        <ele>1405</ele>
        <time>2020-12-05T16:29:20.947Z</time>
      </trkpt>
      <trkpt lat="42.9032" lon="0.09614">
        <ele>1405</ele>
        <time>2020-12-05T16:29:21.947Z</time>
      </trkpt>
      <trkpt lat="42.9032" lon="0.09614">
        <ele>1405</ele>
        <time>2020-12-05T16:29:22.947Z</time>
      </trkpt>
      <trkpt lat="42.9032" lon="0.09614">
        <ele>1405</ele>
        <time>2020-12-05T16:29:23.947Z</time>
      </trkpt>
      <trkpt lat="42.90319" lon="0.09644">
        <ele>1406.4</ele>
        <time>2020-12-05T16:29:24.947Z</time>
      </trkpt>
      <trkpt lat="42.90319" lon="0.09644">
        <ele>1406.4</ele>
        <time>2020-12-05T16:29:25.949Z</time>
      </trkpt>
      <trkpt lat="42.90319" lon="0.09649">
        <ele>1406.8</ele>
        <time>2020-12-05T16:29:26.947Z</time>
      </trkpt>
      <trkpt lat="42.90319" lon="0.09649">
        <ele>1406.8</ele>
        <time>2020-12-05T16:29:27.949Z</time>
      </trkpt>
      <trkpt lat="42.90319" lon="0.09649">
        <ele>1406.8</ele>
        <time>2020-12-05T16:29:28.948Z</time>
      </trkpt>
      <trkpt lat="42.90319" lon="0.09649">
        <ele>1406.8</ele>
        <time>2020-12-05T16:29:29.949Z</time>
      </trkpt>
      <trkpt lat="42.90319" lon="0.09649">
        <ele>1406.8</ele>
        <time>2020-12-05T16:29:30.947Z</time>
      </trkpt>
      <trkpt lat="42.90319" lon="0.09649">
        <ele>1406.8</ele>
        <time>2020-12-05T16:29:31.949Z</time>
      </trkpt>
      <trkpt lat="42.90319" lon="0.09649">
        <ele>1406.8</ele>
        <time>2020-12-05T16:29:32.947Z</time>
      </trkpt>
      <trkpt lat="42.9032" lon="0.09671">
        <ele>1407.6</ele>
        <time>2020-12-05T16:29:33.949Z</time>
      </trkpt>
      <trkpt lat="42.9032" lon="0.09671">
        <ele>1407.6</ele>
        <time>2020-12-05T16:29:34.949Z</time>
      </trkpt>
      <trkpt lat="42.9032" lon="0.09671">
        <ele>1407.6</ele>
        <time>2020-12-05T16:29:35.947Z</time>
      </trkpt>
      <trkpt lat="42.9032" lon="0.09682">
        <ele>1408.2</ele>
        <time>2020-12-05T16:29:36.947Z</time>
      </trkpt>
      <trkpt lat="42.9032" lon="0.09682">
        <ele>1408.2</ele>
        <time>2020-12-05T16:29:37.948Z</time>
      </trkpt>
      <trkpt lat="42.9032" lon="0.09682">
        <ele>1408.2</ele>
        <time>2020-12-05T16:29:38.949Z</time>
      </trkpt>
      <trkpt lat="42.9032" lon="0.09693">
        <ele>1408.8</ele>
        <time>2020-12-05T16:29:39.948Z</time>
      </trkpt>
      <trkpt lat="42.9032" lon="0.09693">
        <ele>1408.8</ele>
        <time>2020-12-05T16:29:40.948Z</time>
      </trkpt>
      <trkpt lat="42.90321" lon="0.09699">
        <ele>1409</ele>
        <time>2020-12-05T16:29:41.948Z</time>
      </trkpt>
      <trkpt lat="42.90321" lon="0.09699">
        <ele>1409</ele>
        <time>2020-12-05T16:29:42.949Z</time>
      </trkpt>
      <trkpt lat="42.90321" lon="0.09699">
        <ele>1409</ele>
        <time>2020-12-05T16:29:43.949Z</time>
      </trkpt>
      <trkpt lat="42.90321" lon="0.09699">
        <ele>1409</ele>
        <time>2020-12-05T16:29:44.947Z</time>
      </trkpt>
      <trkpt lat="42.90321" lon="0.09699">
        <ele>1409</ele>
        <time>2020-12-05T16:29:45.947Z</time>
      </trkpt>
      <trkpt lat="42.90321" lon="0.09699">
        <ele>1409</ele>
        <time>2020-12-05T16:29:46.949Z</time>
      </trkpt>
      <trkpt lat="42.90321" lon="0.09716">
        <ele>1409.8</ele>
        <time>2020-12-05T16:29:47.948Z</time>
      </trkpt>
      <trkpt lat="42.90321" lon="0.09716">
        <ele>1409.8</ele>
        <time>2020-12-05T16:29:48.947Z</time>
      </trkpt>
      <trkpt lat="42.90321" lon="0.09716">
        <ele>1409.8</ele>
        <time>2020-12-05T16:29:49.947Z</time>
      </trkpt>
      <trkpt lat="42.90321" lon="0.09716">
        <ele>1409.8</ele>
        <time>2020-12-05T16:29:50.948Z</time>
      </trkpt>
      <trkpt lat="42.90321" lon="0.09716">
        <ele>1409.8</ele>
        <time>2020-12-05T16:29:51.948Z</time>
      </trkpt>
      <trkpt lat="42.90321" lon="0.09716">
        <ele>1409.8</ele>
        <time>2020-12-05T16:29:52.949Z</time>
      </trkpt>
      <trkpt lat="42.90321" lon="0.09716">
        <ele>1409.8</ele>
        <time>2020-12-05T16:29:53.949Z</time>
      </trkpt>
      <trkpt lat="42.90322" lon="0.09738">
        <ele>1410.4</ele>
        <time>2020-12-05T16:29:54.947Z</time>
      </trkpt>
      <trkpt lat="42.90322" lon="0.09743">
        <ele>1410.8</ele>
        <time>2020-12-05T16:29:55.948Z</time>
      </trkpt>
      <trkpt lat="42.90322" lon="0.09743">
        <ele>1410.8</ele>
        <time>2020-12-05T16:29:56.947Z</time>
      </trkpt>
      <trkpt lat="42.90322" lon="0.09743">
        <ele>1410.8</ele>
        <time>2020-12-05T16:29:57.947Z</time>
      </trkpt>
      <trkpt lat="42.90322" lon="0.09743">
        <ele>1410.8</ele>
        <time>2020-12-05T16:29:58.948Z</time>
      </trkpt>
      <trkpt lat="42.90324" lon="0.09753">
        <ele>1411.6</ele>
        <time>2020-12-05T16:29:59.949Z</time>
      </trkpt>
      <trkpt lat="42.90324" lon="0.09753">
        <ele>1411.6</ele>
        <time>2020-12-05T16:30:00.948Z</time>
      </trkpt>
      <trkpt lat="42.90324" lon="0.09753">
        <ele>1411.6</ele>
        <time>2020-12-05T16:30:01.949Z</time>
      </trkpt>
      <trkpt lat="42.90326" lon="0.09764">
        <ele>1412</ele>
        <time>2020-12-05T16:30:02.947Z</time>
      </trkpt>
      <trkpt lat="42.90326" lon="0.09764">
        <ele>1412</ele>
        <time>2020-12-05T16:30:03.948Z</time>
      </trkpt>
      <trkpt lat="42.90326" lon="0.09764">
        <ele>1412</ele>
        <time>2020-12-05T16:30:04.947Z</time>
      </trkpt>
      <trkpt lat="42.90326" lon="0.09764">
        <ele>1412</ele>
        <time>2020-12-05T16:30:05.948Z</time>
      </trkpt>
      <trkpt lat="42.90326" lon="0.09764">
        <ele>1412</ele>
        <time>2020-12-05T16:30:06.949Z</time>
      </trkpt>
      <trkpt lat="42.90326" lon="0.09764">
        <ele>1412</ele>
        <time>2020-12-05T16:30:07.947Z</time>
      </trkpt>
      <trkpt lat="42.90326" lon="0.09764">
        <ele>1412</ele>
        <time>2020-12-05T16:30:08.948Z</time>
      </trkpt>
      <trkpt lat="42.90327" lon="0.09787">
        <ele>1412.8</ele>
        <time>2020-12-05T16:30:09.948Z</time>
      </trkpt>
      <trkpt lat="42.90327" lon="0.09787">
        <ele>1412.8</ele>
        <time>2020-12-05T16:30:10.949Z</time>
      </trkpt>
      <trkpt lat="42.90327" lon="0.09793">
        <ele>1413</ele>
        <time>2020-12-05T16:30:11.947Z</time>
      </trkpt>
      <trkpt lat="42.90327" lon="0.09793">
        <ele>1413</ele>
        <time>2020-12-05T16:30:12.948Z</time>
      </trkpt>
      <trkpt lat="42.90327" lon="0.09793">
        <ele>1413</ele>
        <time>2020-12-05T16:30:13.947Z</time>
      </trkpt>
      <trkpt lat="42.90327" lon="0.09793">
        <ele>1413</ele>
        <time>2020-12-05T16:30:14.949Z</time>
      </trkpt>
      <trkpt lat="42.90327" lon="0.09793">
        <ele>1413</ele>
        <time>2020-12-05T16:30:15.947Z</time>
      </trkpt>
      <trkpt lat="42.90329" lon="0.09811">
        <ele>1413.8</ele>
        <time>2020-12-05T16:30:16.948Z</time>
      </trkpt>
      <trkpt lat="42.90329" lon="0.09811">
        <ele>1413.8</ele>
        <time>2020-12-05T16:30:17.948Z</time>
      </trkpt>
      <trkpt lat="42.90329" lon="0.09811">
        <ele>1413.8</ele>
        <time>2020-12-05T16:30:18.947Z</time>
      </trkpt>
      <trkpt lat="42.90329" lon="0.09811">
        <ele>1413.8</ele>
        <time>2020-12-05T16:30:19.948Z</time>
      </trkpt>
      <trkpt lat="42.90329" lon="0.09811">
        <ele>1413.8</ele>
        <time>2020-12-05T16:30:20.947Z</time>
      </trkpt>
      <trkpt lat="42.90329" lon="0.09811">
        <ele>1413.8</ele>
        <time>2020-12-05T16:30:21.949Z</time>
      </trkpt>
      <trkpt lat="42.90329" lon="0.09811">
        <ele>1413.8</ele>
        <time>2020-12-05T16:30:22.948Z</time>
      </trkpt>
      <trkpt lat="42.90329" lon="0.09811">
        <ele>1413.8</ele>
        <time>2020-12-05T16:30:23.949Z</time>
      </trkpt>
      <trkpt lat="42.90329" lon="0.09811">
        <ele>1413.8</ele>
        <time>2020-12-05T16:30:24.949Z</time>
      </trkpt>
      <trkpt lat="42.90331" lon="0.09835">
        <ele>1415.2</ele>
        <time>2020-12-05T16:30:25.951Z</time>
      </trkpt>
      <trkpt lat="42.90331" lon="0.09835">
        <ele>1415.2</ele>
        <time>2020-12-05T16:30:26.949Z</time>
      </trkpt>
      <trkpt lat="42.90332" lon="0.0984">
        <ele>1415.2</ele>
        <time>2020-12-05T16:30:27.949Z</time>
      </trkpt>
      <trkpt lat="42.90332" lon="0.0984">
        <ele>1415.2</ele>
        <time>2020-12-05T16:30:28.948Z</time>
      </trkpt>
      <trkpt lat="42.90332" lon="0.0984">
        <ele>1415.2</ele>
        <time>2020-12-05T16:30:29.949Z</time>
      </trkpt>
      <trkpt lat="42.90332" lon="0.0984">
        <ele>1415.2</ele>
        <time>2020-12-05T16:30:30.948Z</time>
      </trkpt>
      <trkpt lat="42.90332" lon="0.0984">
        <ele>1415.2</ele>
        <time>2020-12-05T16:30:31.947Z</time>
      </trkpt>
      <trkpt lat="42.90332" lon="0.0984">
        <ele>1415.2</ele>
        <time>2020-12-05T16:30:32.948Z</time>
      </trkpt>
      <trkpt lat="42.90332" lon="0.0984">
        <ele>1415.2</ele>
        <time>2020-12-05T16:30:33.947Z</time>
      </trkpt>
      <trkpt lat="42.90332" lon="0.0984">
        <ele>1415.2</ele>
        <time>2020-12-05T16:30:34.948Z</time>
      </trkpt>
      <trkpt lat="42.90332" lon="0.0984">
        <ele>1415.2</ele>
        <time>2020-12-05T16:30:35.949Z</time>
      </trkpt>
      <trkpt lat="42.90332" lon="0.0984">
        <ele>1415.2</ele>
        <time>2020-12-05T16:30:36.948Z</time>
      </trkpt>
      <trkpt lat="42.90332" lon="0.0984">
        <ele>1415.2</ele>
        <time>2020-12-05T16:30:37.949Z</time>
      </trkpt>
      <trkpt lat="42.90333" lon="0.09863">
        <ele>1416.2</ele>
        <time>2020-12-05T16:30:38.949Z</time>
      </trkpt>
      <trkpt lat="42.90333" lon="0.09863">
        <ele>1416.2</ele>
        <time>2020-12-05T16:30:39.947Z</time>
      </trkpt>
      <trkpt lat="42.90333" lon="0.09863">
        <ele>1416.2</ele>
        <time>2020-12-05T16:30:40.949Z</time>
      </trkpt>
      <trkpt lat="42.90333" lon="0.09863">
        <ele>1416.2</ele>
        <time>2020-12-05T16:30:41.949Z</time>
      </trkpt>
      <trkpt lat="42.90333" lon="0.09863">
        <ele>1416.2</ele>
        <time>2020-12-05T16:30:42.949Z</time>
      </trkpt>
      <trkpt lat="42.90333" lon="0.09863">
        <ele>1416.2</ele>
        <time>2020-12-05T16:30:43.947Z</time>
      </trkpt>
      <trkpt lat="42.90333" lon="0.09863">
        <ele>1416.2</ele>
        <time>2020-12-05T16:30:44.948Z</time>
      </trkpt>
      <trkpt lat="42.90333" lon="0.09863">
        <ele>1416.2</ele>
        <time>2020-12-05T16:30:45.949Z</time>
      </trkpt>
      <trkpt lat="42.90333" lon="0.09863">
        <ele>1416.2</ele>
        <time>2020-12-05T16:30:46.949Z</time>
      </trkpt>
      <trkpt lat="42.90337" lon="0.09888">
        <ele>1417.4</ele>
        <time>2020-12-05T16:30:47.947Z</time>
      </trkpt>
      <trkpt lat="42.90337" lon="0.09888">
        <ele>1417.4</ele>
        <time>2020-12-05T16:30:48.948Z</time>
      </trkpt>
      <trkpt lat="42.90337" lon="0.09888">
        <ele>1417.4</ele>
        <time>2020-12-05T16:30:49.949Z</time>
      </trkpt>
      <trkpt lat="42.90337" lon="0.09888">
        <ele>1417.4</ele>
        <time>2020-12-05T16:30:50.948Z</time>
      </trkpt>
      <trkpt lat="42.90337" lon="0.09888">
        <ele>1417.4</ele>
        <time>2020-12-05T16:30:51.947Z</time>
      </trkpt>
      <trkpt lat="42.90337" lon="0.09888">
        <ele>1417.4</ele>
        <time>2020-12-05T16:30:52.949Z</time>
      </trkpt>
      <trkpt lat="42.90337" lon="0.09888">
        <ele>1417.4</ele>
        <time>2020-12-05T16:30:53.947Z</time>
      </trkpt>
      <trkpt lat="42.90337" lon="0.09888">
        <ele>1417.4</ele>
        <time>2020-12-05T16:30:54.949Z</time>
      </trkpt>
      <trkpt lat="42.90339" lon="0.09907">
        <ele>1418.6</ele>
        <time>2020-12-05T16:30:55.949Z</time>
      </trkpt>
      <trkpt lat="42.90339" lon="0.09907">
        <ele>1418.6</ele>
        <time>2020-12-05T16:30:56.949Z</time>
      </trkpt>
      <trkpt lat="42.90339" lon="0.09907">
        <ele>1418.6</ele>
        <time>2020-12-05T16:30:57.95Z</time>
      </trkpt>
      <trkpt lat="42.90339" lon="0.09907">
        <ele>1418.6</ele>
        <time>2020-12-05T16:30:58.948Z</time>
      </trkpt>
      <trkpt lat="42.90342" lon="0.09918">
        <ele>1419.2</ele>
        <time>2020-12-05T16:30:59.948Z</time>
      </trkpt>
      <trkpt lat="42.90342" lon="0.09918">
        <ele>1419.2</ele>
        <time>2020-12-05T16:31:00.947Z</time>
      </trkpt>
      <trkpt lat="42.90344" lon="0.09923">
        <ele>1419.6</ele>
        <time>2020-12-05T16:31:01.948Z</time>
      </trkpt>
      <trkpt lat="42.90344" lon="0.09923">
        <ele>1419.6</ele>
        <time>2020-12-05T16:31:02.948Z</time>
      </trkpt>
      <trkpt lat="42.90344" lon="0.09923">
        <ele>1419.6</ele>
        <time>2020-12-05T16:31:03.949Z</time>
      </trkpt>
      <trkpt lat="42.90344" lon="0.09923">
        <ele>1419.6</ele>
        <time>2020-12-05T16:31:04.948Z</time>
      </trkpt>
      <trkpt lat="42.90344" lon="0.09923">
        <ele>1419.6</ele>
        <time>2020-12-05T16:31:05.947Z</time>
      </trkpt>
      <trkpt lat="42.90344" lon="0.09923">
        <ele>1419.6</ele>
        <time>2020-12-05T16:31:06.949Z</time>
      </trkpt>
      <trkpt lat="42.90344" lon="0.09923">
        <ele>1419.6</ele>
        <time>2020-12-05T16:31:07.949Z</time>
      </trkpt>
      <trkpt lat="42.90344" lon="0.09923">
        <ele>1419.6</ele>
        <time>2020-12-05T16:31:08.947Z</time>
      </trkpt>
      <trkpt lat="42.90344" lon="0.09923">
        <ele>1419.6</ele>
        <time>2020-12-05T16:31:09.947Z</time>
      </trkpt>
      <trkpt lat="42.90349" lon="0.09943">
        <ele>1420.8</ele>
        <time>2020-12-05T16:31:10.95Z</time>
      </trkpt>
      <trkpt lat="42.90349" lon="0.09943">
        <ele>1420.8</ele>
        <time>2020-12-05T16:31:11.949Z</time>
      </trkpt>
      <trkpt lat="42.90349" lon="0.09943">
        <ele>1420.8</ele>
        <time>2020-12-05T16:31:12.948Z</time>
      </trkpt>
      <trkpt lat="42.9035" lon="0.09952">
        <ele>1421.4</ele>
        <time>2020-12-05T16:31:13.948Z</time>
      </trkpt>
      <trkpt lat="42.9035" lon="0.09952">
        <ele>1421.4</ele>
        <time>2020-12-05T16:31:14.947Z</time>
      </trkpt>
      <trkpt lat="42.9035" lon="0.09952">
        <ele>1421.4</ele>
        <time>2020-12-05T16:31:15.947Z</time>
      </trkpt>
      <trkpt lat="42.90351" lon="0.09962">
        <ele>1422.2</ele>
        <time>2020-12-05T16:31:16.949Z</time>
      </trkpt>
      <trkpt lat="42.90351" lon="0.09962">
        <ele>1422.2</ele>
        <time>2020-12-05T16:31:17.949Z</time>
      </trkpt>
      <trkpt lat="42.90351" lon="0.09962">
        <ele>1422.2</ele>
        <time>2020-12-05T16:31:18.947Z</time>
      </trkpt>
      <trkpt lat="42.90351" lon="0.09962">
        <ele>1422.2</ele>
        <time>2020-12-05T16:31:19.948Z</time>
      </trkpt>
      <trkpt lat="42.90351" lon="0.09962">
        <ele>1422.2</ele>
        <time>2020-12-05T16:31:20.949Z</time>
      </trkpt>
      <trkpt lat="42.90351" lon="0.09962">
        <ele>1422.2</ele>
        <time>2020-12-05T16:31:21.947Z</time>
      </trkpt>
      <trkpt lat="42.9035" lon="0.09976">
        <ele>1423.2</ele>
        <time>2020-12-05T16:31:22.95Z</time>
      </trkpt>
      <trkpt lat="42.9035" lon="0.0998">
        <ele>1423.6</ele>
        <time>2020-12-05T16:31:23.947Z</time>
      </trkpt>
      <trkpt lat="42.9035" lon="0.0998">
        <ele>1423.6</ele>
        <time>2020-12-05T16:31:24.949Z</time>
      </trkpt>
      <trkpt lat="42.9035" lon="0.0998">
        <ele>1423.6</ele>
        <time>2020-12-05T16:31:25.949Z</time>
      </trkpt>
      <trkpt lat="42.9035" lon="0.0998">
        <ele>1423.6</ele>
        <time>2020-12-05T16:31:26.948Z</time>
      </trkpt>
      <trkpt lat="42.9035" lon="0.0998">
        <ele>1423.6</ele>
        <time>2020-12-05T16:31:27.95Z</time>
      </trkpt>
      <trkpt lat="42.9035" lon="0.0998">
        <ele>1423.6</ele>
        <time>2020-12-05T16:31:28.948Z</time>
      </trkpt>
      <trkpt lat="42.9035" lon="0.09993">
        <ele>1424.4</ele>
        <time>2020-12-05T16:31:29.947Z</time>
      </trkpt>
      <trkpt lat="42.9035" lon="0.09993">
        <ele>1424.4</ele>
        <time>2020-12-05T16:31:30.949Z</time>
      </trkpt>
      <trkpt lat="42.9035" lon="0.09993">
        <ele>1424.4</ele>
        <time>2020-12-05T16:31:31.948Z</time>
      </trkpt>
      <trkpt lat="42.9035" lon="0.09993">
        <ele>1424.4</ele>
        <time>2020-12-05T16:31:32.949Z</time>
      </trkpt>
      <trkpt lat="42.9035" lon="0.09993">
        <ele>1424.4</ele>
        <time>2020-12-05T16:31:33.949Z</time>
      </trkpt>
      <trkpt lat="42.9035" lon="0.09993">
        <ele>1424.4</ele>
        <time>2020-12-05T16:31:34.949Z</time>
      </trkpt>
      <trkpt lat="42.90348" lon="0.1001">
        <ele>1425.6</ele>
        <time>2020-12-05T16:31:35.949Z</time>
      </trkpt>
      <trkpt lat="42.90348" lon="0.1001">
        <ele>1425.6</ele>
        <time>2020-12-05T16:31:36.949Z</time>
      </trkpt>
      <trkpt lat="42.90348" lon="0.1001">
        <ele>1425.6</ele>
        <time>2020-12-05T16:31:37.949Z</time>
      </trkpt>
      <trkpt lat="42.90348" lon="0.1001">
        <ele>1425.6</ele>
        <time>2020-12-05T16:31:38.947Z</time>
      </trkpt>
      <trkpt lat="42.90348" lon="0.1001">
        <ele>1425.6</ele>
        <time>2020-12-05T16:31:39.949Z</time>
      </trkpt>
      <trkpt lat="42.90344" lon="0.10021">
        <ele>1426.8</ele>
        <time>2020-12-05T16:31:40.947Z</time>
      </trkpt>
      <trkpt lat="42.90344" lon="0.10021">
        <ele>1426.8</ele>
        <time>2020-12-05T16:31:41.949Z</time>
      </trkpt>
      <trkpt lat="42.90344" lon="0.10021">
        <ele>1426.8</ele>
        <time>2020-12-05T16:31:42.949Z</time>
      </trkpt>
      <trkpt lat="42.90341" lon="0.10029">
        <ele>1427.4</ele>
        <time>2020-12-05T16:31:43.947Z</time>
      </trkpt>
      <trkpt lat="42.90341" lon="0.10029">
        <ele>1427.4</ele>
        <time>2020-12-05T16:31:44.947Z</time>
      </trkpt>
      <trkpt lat="42.90339" lon="0.10033">
        <ele>1427.8</ele>
        <time>2020-12-05T16:31:45.948Z</time>
      </trkpt>
      <trkpt lat="42.90339" lon="0.10033">
        <ele>1427.8</ele>
        <time>2020-12-05T16:31:46.947Z</time>
      </trkpt>
      <trkpt lat="42.90339" lon="0.10033">
        <ele>1427.8</ele>
        <time>2020-12-05T16:31:47.947Z</time>
      </trkpt>
      <trkpt lat="42.90339" lon="0.10033">
        <ele>1427.8</ele>
        <time>2020-12-05T16:31:48.947Z</time>
      </trkpt>
      <trkpt lat="42.90339" lon="0.10033">
        <ele>1427.8</ele>
        <time>2020-12-05T16:31:49.947Z</time>
      </trkpt>
      <trkpt lat="42.90339" lon="0.10033">
        <ele>1427.8</ele>
        <time>2020-12-05T16:31:50.947Z</time>
      </trkpt>
      <trkpt lat="42.90331" lon="0.10044">
        <ele>1429</ele>
        <time>2020-12-05T16:31:51.947Z</time>
      </trkpt>
      <trkpt lat="42.90331" lon="0.10044">
        <ele>1429</ele>
        <time>2020-12-05T16:31:52.947Z</time>
      </trkpt>
      <trkpt lat="42.90331" lon="0.10044">
        <ele>1429</ele>
        <time>2020-12-05T16:31:53.948Z</time>
      </trkpt>
      <trkpt lat="42.90331" lon="0.10044">
        <ele>1429</ele>
        <time>2020-12-05T16:31:54.949Z</time>
      </trkpt>
      <trkpt lat="42.90328" lon="0.10052">
        <ele>1429.8</ele>
        <time>2020-12-05T16:31:55.948Z</time>
      </trkpt>
      <trkpt lat="42.90328" lon="0.10052">
        <ele>1429.8</ele>
        <time>2020-12-05T16:31:56.948Z</time>
      </trkpt>
      <trkpt lat="42.90328" lon="0.10052">
        <ele>1429.8</ele>
        <time>2020-12-05T16:31:57.948Z</time>
      </trkpt>
      <trkpt lat="42.90325" lon="0.1006">
        <ele>1430.4</ele>
        <time>2020-12-05T16:31:58.947Z</time>
      </trkpt>
      <trkpt lat="42.90325" lon="0.1006">
        <ele>1430.4</ele>
        <time>2020-12-05T16:31:59.949Z</time>
      </trkpt>
      <trkpt lat="42.90325" lon="0.1006">
        <ele>1430.4</ele>
        <time>2020-12-05T16:32:00.947Z</time>
      </trkpt>
      <trkpt lat="42.90325" lon="0.1006">
        <ele>1430.4</ele>
        <time>2020-12-05T16:32:01.949Z</time>
      </trkpt>
      <trkpt lat="42.90325" lon="0.1006">
        <ele>1430.4</ele>
        <time>2020-12-05T16:32:02.948Z</time>
      </trkpt>
      <trkpt lat="42.90322" lon="0.10071">
        <ele>1431.2</ele>
        <time>2020-12-05T16:32:03.948Z</time>
      </trkpt>
      <trkpt lat="42.90322" lon="0.10071">
        <ele>1431.2</ele>
        <time>2020-12-05T16:32:04.947Z</time>
      </trkpt>
      <trkpt lat="42.90322" lon="0.10071">
        <ele>1431.2</ele>
        <time>2020-12-05T16:32:05.949Z</time>
      </trkpt>
      <trkpt lat="42.90319" lon="0.1008">
        <ele>1432.2</ele>
        <time>2020-12-05T16:32:06.948Z</time>
      </trkpt>
      <trkpt lat="42.90319" lon="0.1008">
        <ele>1432.2</ele>
        <time>2020-12-05T16:32:07.949Z</time>
      </trkpt>
      <trkpt lat="42.90318" lon="0.10085">
        <ele>1432.4</ele>
        <time>2020-12-05T16:32:08.948Z</time>
      </trkpt>
      <trkpt lat="42.90318" lon="0.10085">
        <ele>1432.4</ele>
        <time>2020-12-05T16:32:09.949Z</time>
      </trkpt>
      <trkpt lat="42.90318" lon="0.10085">
        <ele>1432.4</ele>
        <time>2020-12-05T16:32:10.947Z</time>
      </trkpt>
      <trkpt lat="42.90318" lon="0.10085">
        <ele>1432.4</ele>
        <time>2020-12-05T16:32:11.948Z</time>
      </trkpt>
      <trkpt lat="42.90318" lon="0.10085">
        <ele>1432.4</ele>
        <time>2020-12-05T16:32:12.949Z</time>
      </trkpt>
      <trkpt lat="42.90318" lon="0.10085">
        <ele>1432.4</ele>
        <time>2020-12-05T16:32:13.95Z</time>
      </trkpt>
      <trkpt lat="42.90318" lon="0.10107">
        <ele>1433.4</ele>
        <time>2020-12-05T16:32:14.949Z</time>
      </trkpt>
      <trkpt lat="42.90318" lon="0.10107">
        <ele>1433.4</ele>
        <time>2020-12-05T16:32:15.949Z</time>
      </trkpt>
      <trkpt lat="42.90318" lon="0.10107">
        <ele>1433.4</ele>
        <time>2020-12-05T16:32:16.948Z</time>
      </trkpt>
      <trkpt lat="42.90319" lon="0.10119">
        <ele>1434</ele>
        <time>2020-12-05T16:32:17.947Z</time>
      </trkpt>
      <trkpt lat="42.90319" lon="0.10119">
        <ele>1434</ele>
        <time>2020-12-05T16:32:18.949Z</time>
      </trkpt>
      <trkpt lat="42.90319" lon="0.10119">
        <ele>1434</ele>
        <time>2020-12-05T16:32:19.948Z</time>
      </trkpt>
      <trkpt lat="42.90322" lon="0.10132">
        <ele>1434.6</ele>
        <time>2020-12-05T16:32:20.948Z</time>
      </trkpt>
      <trkpt lat="42.90322" lon="0.10132">
        <ele>1434.6</ele>
        <time>2020-12-05T16:32:21.948Z</time>
      </trkpt>
      <trkpt lat="42.90324" lon="0.10138">
        <ele>1434.8</ele>
        <time>2020-12-05T16:32:22.948Z</time>
      </trkpt>
      <trkpt lat="42.90324" lon="0.10138">
        <ele>1434.8</ele>
        <time>2020-12-05T16:32:23.947Z</time>
      </trkpt>
      <trkpt lat="42.90324" lon="0.10138">
        <ele>1434.8</ele>
        <time>2020-12-05T16:32:24.947Z</time>
      </trkpt>
      <trkpt lat="42.90324" lon="0.10138">
        <ele>1434.8</ele>
        <time>2020-12-05T16:32:25.948Z</time>
      </trkpt>
      <trkpt lat="42.90324" lon="0.10138">
        <ele>1434.8</ele>
        <time>2020-12-05T16:32:26.949Z</time>
      </trkpt>
      <trkpt lat="42.90324" lon="0.10138">
        <ele>1434.8</ele>
        <time>2020-12-05T16:32:27.947Z</time>
      </trkpt>
      <trkpt lat="42.90324" lon="0.10138">
        <ele>1434.8</ele>
        <time>2020-12-05T16:32:28.949Z</time>
      </trkpt>
      <trkpt lat="42.90329" lon="0.10164">
        <ele>1435.2</ele>
        <time>2020-12-05T16:32:29.947Z</time>
      </trkpt>
      <trkpt lat="42.90329" lon="0.10164">
        <ele>1435.2</ele>
        <time>2020-12-05T16:32:30.948Z</time>
      </trkpt>
      <trkpt lat="42.90329" lon="0.10164">
        <ele>1435.2</ele>
        <time>2020-12-05T16:32:31.949Z</time>
      </trkpt>
      <trkpt lat="42.90329" lon="0.10164">
        <ele>1435.2</ele>
        <time>2020-12-05T16:32:32.948Z</time>
      </trkpt>
      <trkpt lat="42.90329" lon="0.10164">
        <ele>1435.2</ele>
        <time>2020-12-05T16:32:33.947Z</time>
      </trkpt>
      <trkpt lat="42.90329" lon="0.10164">
        <ele>1435.2</ele>
        <time>2020-12-05T16:32:34.949Z</time>
      </trkpt>
      <trkpt lat="42.90329" lon="0.10164">
        <ele>1435.2</ele>
        <time>2020-12-05T16:32:35.949Z</time>
      </trkpt>
      <trkpt lat="42.90329" lon="0.10164">
        <ele>1435.2</ele>
        <time>2020-12-05T16:32:36.947Z</time>
      </trkpt>
      <trkpt lat="42.90335" lon="0.10193">
        <ele>1435.6</ele>
        <time>2020-12-05T16:32:37.949Z</time>
      </trkpt>
      <trkpt lat="42.90335" lon="0.10193">
        <ele>1435.6</ele>
        <time>2020-12-05T16:32:38.949Z</time>
      </trkpt>
      <trkpt lat="42.90336" lon="0.102">
        <ele>1435.8</ele>
        <time>2020-12-05T16:32:39.949Z</time>
      </trkpt>
      <trkpt lat="42.90336" lon="0.102">
        <ele>1435.8</ele>
        <time>2020-12-05T16:32:40.948Z</time>
      </trkpt>
      <trkpt lat="42.90336" lon="0.102">
        <ele>1435.8</ele>
        <time>2020-12-05T16:32:41.948Z</time>
      </trkpt>
      <trkpt lat="42.90336" lon="0.102">
        <ele>1435.8</ele>
        <time>2020-12-05T16:32:42.947Z</time>
      </trkpt>
      <trkpt lat="42.90336" lon="0.102">
        <ele>1435.8</ele>
        <time>2020-12-05T16:32:43.949Z</time>
      </trkpt>
      <trkpt lat="42.90336" lon="0.102">
        <ele>1435.8</ele>
        <time>2020-12-05T16:32:44.948Z</time>
      </trkpt>
      <trkpt lat="42.90338" lon="0.10218">
        <ele>1436.2</ele>
        <time>2020-12-05T16:32:45.949Z</time>
      </trkpt>
      <trkpt lat="42.90338" lon="0.10218">
        <ele>1436.2</ele>
        <time>2020-12-05T16:32:46.948Z</time>
      </trkpt>
      <trkpt lat="42.90338" lon="0.10218">
        <ele>1436.2</ele>
        <time>2020-12-05T16:32:47.948Z</time>
      </trkpt>
      <trkpt lat="42.90338" lon="0.10218">
        <ele>1436.2</ele>
        <time>2020-12-05T16:32:48.948Z</time>
      </trkpt>
      <trkpt lat="42.90339" lon="0.10235">
        <ele>1436.4</ele>
        <time>2020-12-05T16:32:49.949Z</time>
      </trkpt>
      <trkpt lat="42.90339" lon="0.10235">
        <ele>1436.4</ele>
        <time>2020-12-05T16:32:50.948Z</time>
      </trkpt>
      <trkpt lat="42.90339" lon="0.10241">
        <ele>1436.6</ele>
        <time>2020-12-05T16:32:51.948Z</time>
      </trkpt>
      <trkpt lat="42.90339" lon="0.10241">
        <ele>1436.6</ele>
        <time>2020-12-05T16:32:52.947Z</time>
      </trkpt>
      <trkpt lat="42.90339" lon="0.10241">
        <ele>1436.6</ele>
        <time>2020-12-05T16:32:53.949Z</time>
      </trkpt>
      <trkpt lat="42.90339" lon="0.10241">
        <ele>1436.6</ele>
        <time>2020-12-05T16:32:54.949Z</time>
      </trkpt>
      <trkpt lat="42.90338" lon="0.10252">
        <ele>1437.8</ele>
        <time>2020-12-05T16:32:55.948Z</time>
      </trkpt>
      <trkpt lat="42.90338" lon="0.10252">
        <ele>1437.8</ele>
        <time>2020-12-05T16:32:56.949Z</time>
      </trkpt>
      <trkpt lat="42.90338" lon="0.10252">
        <ele>1437.8</ele>
        <time>2020-12-05T16:32:57.947Z</time>
      </trkpt>
      <trkpt lat="42.90339" lon="0.10262">
        <ele>1438.2</ele>
        <time>2020-12-05T16:32:58.948Z</time>
      </trkpt>
      <trkpt lat="42.90339" lon="0.10262">
        <ele>1438.2</ele>
        <time>2020-12-05T16:32:59.948Z</time>
      </trkpt>
      <trkpt lat="42.90341" lon="0.10267">
        <ele>1438.4</ele>
        <time>2020-12-05T16:33:00.95Z</time>
      </trkpt>
      <trkpt lat="42.90341" lon="0.10267">
        <ele>1438.4</ele>
        <time>2020-12-05T16:33:01.948Z</time>
      </trkpt>
      <trkpt lat="42.90341" lon="0.10267">
        <ele>1438.4</ele>
        <time>2020-12-05T16:33:02.949Z</time>
      </trkpt>
      <trkpt lat="42.90341" lon="0.10267">
        <ele>1438.4</ele>
        <time>2020-12-05T16:33:03.949Z</time>
      </trkpt>
      <trkpt lat="42.90342" lon="0.10277">
        <ele>1439</ele>
        <time>2020-12-05T16:33:04.947Z</time>
      </trkpt>
      <trkpt lat="42.90342" lon="0.10277">
        <ele>1439</ele>
        <time>2020-12-05T16:33:05.95Z</time>
      </trkpt>
      <trkpt lat="42.90342" lon="0.10277">
        <ele>1439</ele>
        <time>2020-12-05T16:33:06.949Z</time>
      </trkpt>
      <trkpt lat="42.90342" lon="0.10277">
        <ele>1439</ele>
        <time>2020-12-05T16:33:07.949Z</time>
      </trkpt>
      <trkpt lat="42.90342" lon="0.10277">
        <ele>1439</ele>
        <time>2020-12-05T16:33:08.948Z</time>
      </trkpt>
      <trkpt lat="42.90342" lon="0.10277">
        <ele>1439</ele>
        <time>2020-12-05T16:33:09.948Z</time>
      </trkpt>
      <trkpt lat="42.90347" lon="0.10291">
        <ele>1439.4</ele>
        <time>2020-12-05T16:33:10.947Z</time>
      </trkpt>
      <trkpt lat="42.90347" lon="0.10291">
        <ele>1439.4</ele>
        <time>2020-12-05T16:33:11.948Z</time>
      </trkpt>
      <trkpt lat="42.90347" lon="0.10291">
        <ele>1439.4</ele>
        <time>2020-12-05T16:33:12.947Z</time>
      </trkpt>
      <trkpt lat="42.90351" lon="0.103">
        <ele>1440</ele>
        <time>2020-12-05T16:33:13.949Z</time>
      </trkpt>
      <trkpt lat="42.90351" lon="0.103">
        <ele>1440</ele>
        <time>2020-12-05T16:33:14.947Z</time>
      </trkpt>
      <trkpt lat="42.90351" lon="0.103">
        <ele>1440</ele>
        <time>2020-12-05T16:33:15.948Z</time>
      </trkpt>
      <trkpt lat="42.90351" lon="0.103">
        <ele>1440</ele>
        <time>2020-12-05T16:33:16.948Z</time>
      </trkpt>
      <trkpt lat="42.90351" lon="0.103">
        <ele>1440</ele>
        <time>2020-12-05T16:33:17.948Z</time>
      </trkpt>
      <trkpt lat="42.90351" lon="0.103">
        <ele>1440</ele>
        <time>2020-12-05T16:33:18.95Z</time>
      </trkpt>
      <trkpt lat="42.90351" lon="0.103">
        <ele>1440</ele>
        <time>2020-12-05T16:33:19.949Z</time>
      </trkpt>
      <trkpt lat="42.90351" lon="0.103">
        <ele>1440</ele>
        <time>2020-12-05T16:33:20.949Z</time>
      </trkpt>
      <trkpt lat="42.90357" lon="0.10318">
        <ele>1441.2</ele>
        <time>2020-12-05T16:33:21.949Z</time>
      </trkpt>
      <trkpt lat="42.90357" lon="0.10318">
        <ele>1441.2</ele>
        <time>2020-12-05T16:33:22.949Z</time>
      </trkpt>
      <trkpt lat="42.90357" lon="0.10318">
        <ele>1441.2</ele>
        <time>2020-12-05T16:33:23.948Z</time>
      </trkpt>
      <trkpt lat="42.90357" lon="0.10318">
        <ele>1441.2</ele>
        <time>2020-12-05T16:33:24.949Z</time>
      </trkpt>
      <trkpt lat="42.90357" lon="0.10318">
        <ele>1441.2</ele>
        <time>2020-12-05T16:33:25.948Z</time>
      </trkpt>
      <trkpt lat="42.90363" lon="0.10332">
        <ele>1442.2</ele>
        <time>2020-12-05T16:33:26.947Z</time>
      </trkpt>
      <trkpt lat="42.90363" lon="0.10332">
        <ele>1442.2</ele>
        <time>2020-12-05T16:33:27.948Z</time>
      </trkpt>
      <trkpt lat="42.90363" lon="0.10332">
        <ele>1442.2</ele>
        <time>2020-12-05T16:33:28.949Z</time>
      </trkpt>
      <trkpt lat="42.90363" lon="0.10332">
        <ele>1442.2</ele>
        <time>2020-12-05T16:33:29.948Z</time>
      </trkpt>
      <trkpt lat="42.90363" lon="0.10332">
        <ele>1442.2</ele>
        <time>2020-12-05T16:33:30.948Z</time>
      </trkpt>
      <trkpt lat="42.90369" lon="0.10346">
        <ele>1443</ele>
        <time>2020-12-05T16:33:31.948Z</time>
      </trkpt>
      <trkpt lat="42.90369" lon="0.10346">
        <ele>1443</ele>
        <time>2020-12-05T16:33:32.949Z</time>
      </trkpt>
      <trkpt lat="42.90371" lon="0.1035">
        <ele>1443.4</ele>
        <time>2020-12-05T16:33:33.948Z</time>
      </trkpt>
      <trkpt lat="42.90371" lon="0.1035">
        <ele>1443.4</ele>
        <time>2020-12-05T16:33:34.948Z</time>
      </trkpt>
      <trkpt lat="42.90371" lon="0.1035">
        <ele>1443.4</ele>
        <time>2020-12-05T16:33:35.95Z</time>
      </trkpt>
      <trkpt lat="42.90371" lon="0.1035">
        <ele>1443.4</ele>
        <time>2020-12-05T16:33:36.949Z</time>
      </trkpt>
      <trkpt lat="42.90371" lon="0.1035">
        <ele>1443.4</ele>
        <time>2020-12-05T16:33:37.948Z</time>
      </trkpt>
      <trkpt lat="42.90371" lon="0.1035">
        <ele>1443.4</ele>
        <time>2020-12-05T16:33:38.947Z</time>
      </trkpt>
      <trkpt lat="42.90382" lon="0.10365">
        <ele>1444.4</ele>
        <time>2020-12-05T16:33:39.949Z</time>
      </trkpt>
      <trkpt lat="42.90382" lon="0.10365">
        <ele>1444.4</ele>
        <time>2020-12-05T16:33:40.948Z</time>
      </trkpt>
      <trkpt lat="42.90385" lon="0.10368">
        <ele>1444.6</ele>
        <time>2020-12-05T16:33:41.948Z</time>
      </trkpt>
      <trkpt lat="42.90385" lon="0.10368">
        <ele>1444.6</ele>
        <time>2020-12-05T16:33:42.949Z</time>
      </trkpt>
      <trkpt lat="42.90385" lon="0.10368">
        <ele>1444.6</ele>
        <time>2020-12-05T16:33:43.948Z</time>
      </trkpt>
      <trkpt lat="42.90385" lon="0.10368">
        <ele>1444.6</ele>
        <time>2020-12-05T16:33:44.949Z</time>
      </trkpt>
      <trkpt lat="42.90385" lon="0.10368">
        <ele>1444.6</ele>
        <time>2020-12-05T16:33:45.949Z</time>
      </trkpt>
      <trkpt lat="42.90395" lon="0.10375">
        <ele>1445.6</ele>
        <time>2020-12-05T16:33:46.947Z</time>
      </trkpt>
      <trkpt lat="42.90395" lon="0.10375">
        <ele>1445.6</ele>
        <time>2020-12-05T16:33:47.948Z</time>
      </trkpt>
      <trkpt lat="42.90395" lon="0.10375">
        <ele>1445.6</ele>
        <time>2020-12-05T16:33:48.947Z</time>
      </trkpt>
      <trkpt lat="42.90403" lon="0.10376">
        <ele>1446.4</ele>
        <time>2020-12-05T16:33:49.947Z</time>
      </trkpt>
      <trkpt lat="42.90403" lon="0.10376">
        <ele>1446.4</ele>
        <time>2020-12-05T16:33:50.948Z</time>
      </trkpt>
      <trkpt lat="42.90403" lon="0.10376">
        <ele>1446.4</ele>
        <time>2020-12-05T16:33:51.948Z</time>
      </trkpt>
      <trkpt lat="42.90403" lon="0.10376">
        <ele>1446.4</ele>
        <time>2020-12-05T16:33:52.95Z</time>
      </trkpt>
      <trkpt lat="42.90411" lon="0.10376">
        <ele>1446.8</ele>
        <time>2020-12-05T16:33:53.949Z</time>
      </trkpt>
      <trkpt lat="42.90411" lon="0.10376">
        <ele>1446.8</ele>
        <time>2020-12-05T16:33:54.949Z</time>
      </trkpt>
      <trkpt lat="42.90411" lon="0.10376">
        <ele>1446.8</ele>
        <time>2020-12-05T16:33:55.948Z</time>
      </trkpt>
      <trkpt lat="42.90411" lon="0.10376">
        <ele>1446.8</ele>
        <time>2020-12-05T16:33:56.949Z</time>
      </trkpt>
      <trkpt lat="42.90411" lon="0.10376">
        <ele>1446.8</ele>
        <time>2020-12-05T16:33:57.949Z</time>
      </trkpt>
      <trkpt lat="42.90411" lon="0.10376">
        <ele>1446.8</ele>
        <time>2020-12-05T16:33:58.949Z</time>
      </trkpt>
      <trkpt lat="42.90424" lon="0.10371">
        <ele>1447.6</ele>
        <time>2020-12-05T16:33:59.947Z</time>
      </trkpt>
      <trkpt lat="42.90424" lon="0.10371">
        <ele>1447.6</ele>
        <time>2020-12-05T16:34:00.947Z</time>
      </trkpt>
      <trkpt lat="42.90428" lon="0.10367">
        <ele>1447.8</ele>
        <time>2020-12-05T16:34:01.949Z</time>
      </trkpt>
      <trkpt lat="42.90428" lon="0.10367">
        <ele>1447.8</ele>
        <time>2020-12-05T16:34:02.948Z</time>
      </trkpt>
      <trkpt lat="42.90428" lon="0.10367">
        <ele>1447.8</ele>
        <time>2020-12-05T16:34:03.948Z</time>
      </trkpt>
      <trkpt lat="42.90428" lon="0.10367">
        <ele>1447.8</ele>
        <time>2020-12-05T16:34:04.948Z</time>
      </trkpt>
      <trkpt lat="42.90428" lon="0.10367">
        <ele>1447.8</ele>
        <time>2020-12-05T16:34:05.947Z</time>
      </trkpt>
      <trkpt lat="42.90428" lon="0.10367">
        <ele>1447.8</ele>
        <time>2020-12-05T16:34:06.949Z</time>
      </trkpt>
      <trkpt lat="42.90428" lon="0.10367">
        <ele>1447.8</ele>
        <time>2020-12-05T16:34:07.949Z</time>
      </trkpt>
      <trkpt lat="42.90442" lon="0.10354">
        <ele>1448.8</ele>
        <time>2020-12-05T16:34:08.947Z</time>
      </trkpt>
      <trkpt lat="42.90442" lon="0.10354">
        <ele>1448.8</ele>
        <time>2020-12-05T16:34:09.949Z</time>
      </trkpt>
      <trkpt lat="42.90442" lon="0.10354">
        <ele>1448.8</ele>
        <time>2020-12-05T16:34:10.949Z</time>
      </trkpt>
      <trkpt lat="42.90446" lon="0.10349">
        <ele>1449</ele>
        <time>2020-12-05T16:34:11.949Z</time>
      </trkpt>
      <trkpt lat="42.90446" lon="0.10349">
        <ele>1449</ele>
        <time>2020-12-05T16:34:12.948Z</time>
      </trkpt>
      <trkpt lat="42.90446" lon="0.10349">
        <ele>1449</ele>
        <time>2020-12-05T16:34:13.948Z</time>
      </trkpt>
      <trkpt lat="42.90446" lon="0.10349">
        <ele>1449</ele>
        <time>2020-12-05T16:34:14.949Z</time>
      </trkpt>
      <trkpt lat="42.90446" lon="0.10349">
        <ele>1449</ele>
        <time>2020-12-05T16:34:15.949Z</time>
      </trkpt>
      <trkpt lat="42.90446" lon="0.10349">
        <ele>1449</ele>
        <time>2020-12-05T16:34:16.948Z</time>
      </trkpt>
      <trkpt lat="42.90446" lon="0.10349">
        <ele>1449</ele>
        <time>2020-12-05T16:34:17.948Z</time>
      </trkpt>
      <trkpt lat="42.90446" lon="0.10349">
        <ele>1449</ele>
        <time>2020-12-05T16:34:18.948Z</time>
      </trkpt>
      <trkpt lat="42.90446" lon="0.10349">
        <ele>1449</ele>
        <time>2020-12-05T16:34:19.949Z</time>
      </trkpt>
      <trkpt lat="42.90446" lon="0.10349">
        <ele>1449</ele>
        <time>2020-12-05T16:34:20.948Z</time>
      </trkpt>
      <trkpt lat="42.90446" lon="0.10349">
        <ele>1449</ele>
        <time>2020-12-05T16:34:21.949Z</time>
      </trkpt>
      <trkpt lat="42.90446" lon="0.10349">
        <ele>1449</ele>
        <time>2020-12-05T16:34:22.948Z</time>
      </trkpt>
      <trkpt lat="42.90446" lon="0.10349">
        <ele>1449</ele>
        <time>2020-12-05T16:34:23.948Z</time>
      </trkpt>
      <trkpt lat="42.90469" lon="0.10322">
        <ele>1449.8</ele>
        <time>2020-12-05T16:34:24.949Z</time>
      </trkpt>
      <trkpt lat="42.90472" lon="0.10318">
        <ele>1450</ele>
        <time>2020-12-05T16:34:25.949Z</time>
      </trkpt>
      <trkpt lat="42.90472" lon="0.10318">
        <ele>1450</ele>
        <time>2020-12-05T16:34:26.948Z</time>
      </trkpt>
      <trkpt lat="42.90472" lon="0.10318">
        <ele>1450</ele>
        <time>2020-12-05T16:34:27.947Z</time>
      </trkpt>
      <trkpt lat="42.90472" lon="0.10318">
        <ele>1450</ele>
        <time>2020-12-05T16:34:28.949Z</time>
      </trkpt>
      <trkpt lat="42.90472" lon="0.10318">
        <ele>1450</ele>
        <time>2020-12-05T16:34:29.948Z</time>
      </trkpt>
      <trkpt lat="42.90472" lon="0.10318">
        <ele>1450</ele>
        <time>2020-12-05T16:34:30.947Z</time>
      </trkpt>
      <trkpt lat="42.90472" lon="0.10318">
        <ele>1450</ele>
        <time>2020-12-05T16:34:31.948Z</time>
      </trkpt>
      <trkpt lat="42.90472" lon="0.10318">
        <ele>1450</ele>
        <time>2020-12-05T16:34:32.948Z</time>
      </trkpt>
      <trkpt lat="42.90472" lon="0.10318">
        <ele>1450</ele>
        <time>2020-12-05T16:34:33.949Z</time>
      </trkpt>
      <trkpt lat="42.90487" lon="0.10301">
        <ele>1451</ele>
        <time>2020-12-05T16:34:34.948Z</time>
      </trkpt>
      <trkpt lat="42.90487" lon="0.10301">
        <ele>1451</ele>
        <time>2020-12-05T16:34:35.949Z</time>
      </trkpt>
      <trkpt lat="42.90487" lon="0.10301">
        <ele>1451</ele>
        <time>2020-12-05T16:34:36.949Z</time>
      </trkpt>
      <trkpt lat="42.90487" lon="0.10301">
        <ele>1451</ele>
        <time>2020-12-05T16:34:37.947Z</time>
      </trkpt>
      <trkpt lat="42.90487" lon="0.10301">
        <ele>1451</ele>
        <time>2020-12-05T16:34:38.949Z</time>
      </trkpt>
      <trkpt lat="42.90487" lon="0.10301">
        <ele>1451</ele>
        <time>2020-12-05T16:34:39.948Z</time>
      </trkpt>
      <trkpt lat="42.90495" lon="0.10292">
        <ele>1452.6</ele>
        <time>2020-12-05T16:34:40.949Z</time>
      </trkpt>
      <trkpt lat="42.90495" lon="0.10292">
        <ele>1452.6</ele>
        <time>2020-12-05T16:34:41.948Z</time>
      </trkpt>
      <trkpt lat="42.90495" lon="0.10292">
        <ele>1452.6</ele>
        <time>2020-12-05T16:34:42.949Z</time>
      </trkpt>
      <trkpt lat="42.90501" lon="0.10285">
        <ele>1454</ele>
        <time>2020-12-05T16:34:43.948Z</time>
      </trkpt>
      <trkpt lat="42.90501" lon="0.10285">
        <ele>1454</ele>
        <time>2020-12-05T16:34:44.949Z</time>
      </trkpt>
      <trkpt lat="42.90501" lon="0.10285">
        <ele>1454</ele>
        <time>2020-12-05T16:34:45.949Z</time>
      </trkpt>
      <trkpt lat="42.90501" lon="0.10285">
        <ele>1454</ele>
        <time>2020-12-05T16:34:46.948Z</time>
      </trkpt>
      <trkpt lat="42.90501" lon="0.10285">
        <ele>1454</ele>
        <time>2020-12-05T16:34:47.948Z</time>
      </trkpt>
      <trkpt lat="42.90501" lon="0.10285">
        <ele>1454</ele>
        <time>2020-12-05T16:34:48.947Z</time>
      </trkpt>
      <trkpt lat="42.90508" lon="0.10275">
        <ele>1455.2</ele>
        <time>2020-12-05T16:34:49.948Z</time>
      </trkpt>
      <trkpt lat="42.90508" lon="0.10275">
        <ele>1455.2</ele>
        <time>2020-12-05T16:34:50.947Z</time>
      </trkpt>
      <trkpt lat="42.90508" lon="0.10275">
        <ele>1455.2</ele>
        <time>2020-12-05T16:34:51.948Z</time>
      </trkpt>
      <trkpt lat="42.90512" lon="0.10268">
        <ele>1455.8</ele>
        <time>2020-12-05T16:34:52.948Z</time>
      </trkpt>
      <trkpt lat="42.90512" lon="0.10268">
        <ele>1455.8</ele>
        <time>2020-12-05T16:34:53.947Z</time>
      </trkpt>
      <trkpt lat="42.90512" lon="0.10268">
        <ele>1455.8</ele>
        <time>2020-12-05T16:34:54.947Z</time>
      </trkpt>
      <trkpt lat="42.90512" lon="0.10268">
        <ele>1455.8</ele>
        <time>2020-12-05T16:34:55.947Z</time>
      </trkpt>
      <trkpt lat="42.90516" lon="0.10259">
        <ele>1456.4</ele>
        <time>2020-12-05T16:34:56.947Z</time>
      </trkpt>
      <trkpt lat="42.90516" lon="0.10259">
        <ele>1456.4</ele>
        <time>2020-12-05T16:34:57.947Z</time>
      </trkpt>
      <trkpt lat="42.90516" lon="0.10259">
        <ele>1456.4</ele>
        <time>2020-12-05T16:34:58.948Z</time>
      </trkpt>
      <trkpt lat="42.90516" lon="0.10259">
        <ele>1456.4</ele>
        <time>2020-12-05T16:34:59.949Z</time>
      </trkpt>
      <trkpt lat="42.90516" lon="0.10259">
        <ele>1456.4</ele>
        <time>2020-12-05T16:35:00.948Z</time>
      </trkpt>
      <trkpt lat="42.90516" lon="0.10259">
        <ele>1456.4</ele>
        <time>2020-12-05T16:35:01.949Z</time>
      </trkpt>
      <trkpt lat="42.90516" lon="0.10259">
        <ele>1456.4</ele>
        <time>2020-12-05T16:35:02.949Z</time>
      </trkpt>
      <trkpt lat="42.90516" lon="0.10259">
        <ele>1456.4</ele>
        <time>2020-12-05T16:35:03.947Z</time>
      </trkpt>
      <trkpt lat="42.90516" lon="0.10259">
        <ele>1456.4</ele>
        <time>2020-12-05T16:35:04.949Z</time>
      </trkpt>
      <trkpt lat="42.90523" lon="0.10242">
        <ele>1457.4</ele>
        <time>2020-12-05T16:35:05.947Z</time>
      </trkpt>
      <trkpt lat="42.90523" lon="0.10242">
        <ele>1457.4</ele>
        <time>2020-12-05T16:35:06.948Z</time>
      </trkpt>
      <trkpt lat="42.90524" lon="0.10238">
        <ele>1457.8</ele>
        <time>2020-12-05T16:35:07.947Z</time>
      </trkpt>
      <trkpt lat="42.90524" lon="0.10238">
        <ele>1457.8</ele>
        <time>2020-12-05T16:35:08.948Z</time>
      </trkpt>
      <trkpt lat="42.90524" lon="0.10238">
        <ele>1457.8</ele>
        <time>2020-12-05T16:35:09.948Z</time>
      </trkpt>
      <trkpt lat="42.90524" lon="0.10238">
        <ele>1457.8</ele>
        <time>2020-12-05T16:35:10.949Z</time>
      </trkpt>
      <trkpt lat="42.90524" lon="0.10238">
        <ele>1457.8</ele>
        <time>2020-12-05T16:35:11.948Z</time>
      </trkpt>
      <trkpt lat="42.90524" lon="0.10238">
        <ele>1457.8</ele>
        <time>2020-12-05T16:35:12.949Z</time>
      </trkpt>
      <trkpt lat="42.90527" lon="0.10224">
        <ele>1458.8</ele>
        <time>2020-12-05T16:35:13.947Z</time>
      </trkpt>
      <trkpt lat="42.90527" lon="0.10224">
        <ele>1458.8</ele>
        <time>2020-12-05T16:35:14.947Z</time>
      </trkpt>
      <trkpt lat="42.90527" lon="0.10224">
        <ele>1458.8</ele>
        <time>2020-12-05T16:35:15.949Z</time>
      </trkpt>
      <trkpt lat="42.90527" lon="0.10224">
        <ele>1458.8</ele>
        <time>2020-12-05T16:35:16.949Z</time>
      </trkpt>
      <trkpt lat="42.90527" lon="0.10224">
        <ele>1458.8</ele>
        <time>2020-12-05T16:35:17.948Z</time>
      </trkpt>
      <trkpt lat="42.90527" lon="0.10224">
        <ele>1458.8</ele>
        <time>2020-12-05T16:35:18.948Z</time>
      </trkpt>
      <trkpt lat="42.90528" lon="0.1021">
        <ele>1459.8</ele>
        <time>2020-12-05T16:35:19.948Z</time>
      </trkpt>
      <trkpt lat="42.90528" lon="0.1021">
        <ele>1459.8</ele>
        <time>2020-12-05T16:35:20.947Z</time>
      </trkpt>
      <trkpt lat="42.90528" lon="0.1021">
        <ele>1459.8</ele>
        <time>2020-12-05T16:35:21.948Z</time>
      </trkpt>
      <trkpt lat="42.90528" lon="0.1021">
        <ele>1459.8</ele>
        <time>2020-12-05T16:35:22.947Z</time>
      </trkpt>
      <trkpt lat="42.90528" lon="0.1021">
        <ele>1459.8</ele>
        <time>2020-12-05T16:35:23.949Z</time>
      </trkpt>
      <trkpt lat="42.90528" lon="0.1021">
        <ele>1459.8</ele>
        <time>2020-12-05T16:35:24.95Z</time>
      </trkpt>
      <trkpt lat="42.90528" lon="0.1021">
        <ele>1459.8</ele>
        <time>2020-12-05T16:35:25.947Z</time>
      </trkpt>
      <trkpt lat="42.90528" lon="0.1021">
        <ele>1459.8</ele>
        <time>2020-12-05T16:35:26.948Z</time>
      </trkpt>
      <trkpt lat="42.90527" lon="0.10192">
        <ele>1461</ele>
        <time>2020-12-05T16:35:27.949Z</time>
      </trkpt>
      <trkpt lat="42.90527" lon="0.10192">
        <ele>1461</ele>
        <time>2020-12-05T16:35:28.947Z</time>
      </trkpt>
      <trkpt lat="42.90527" lon="0.10187">
        <ele>1461.2</ele>
        <time>2020-12-05T16:35:29.947Z</time>
      </trkpt>
      <trkpt lat="42.90527" lon="0.10187">
        <ele>1461.2</ele>
        <time>2020-12-05T16:35:30.949Z</time>
      </trkpt>
      <trkpt lat="42.90527" lon="0.10187">
        <ele>1461.2</ele>
        <time>2020-12-05T16:35:31.947Z</time>
      </trkpt>
      <trkpt lat="42.90527" lon="0.10187">
        <ele>1461.2</ele>
        <time>2020-12-05T16:35:32.948Z</time>
      </trkpt>
      <trkpt lat="42.90527" lon="0.10187">
        <ele>1461.2</ele>
        <time>2020-12-05T16:35:33.948Z</time>
      </trkpt>
      <trkpt lat="42.90527" lon="0.10187">
        <ele>1461.2</ele>
        <time>2020-12-05T16:35:34.948Z</time>
      </trkpt>
      <trkpt lat="42.90527" lon="0.10187">
        <ele>1461.2</ele>
        <time>2020-12-05T16:35:35.949Z</time>
      </trkpt>
      <trkpt lat="42.90532" lon="0.10173">
        <ele>1462</ele>
        <time>2020-12-05T16:35:36.947Z</time>
      </trkpt>
      <trkpt lat="42.90532" lon="0.10173">
        <ele>1462</ele>
        <time>2020-12-05T16:35:37.947Z</time>
      </trkpt>
      <trkpt lat="42.90535" lon="0.10169">
        <ele>1462.4</ele>
        <time>2020-12-05T16:35:38.948Z</time>
      </trkpt>
      <trkpt lat="42.90535" lon="0.10169">
        <ele>1462.4</ele>
        <time>2020-12-05T16:35:39.947Z</time>
      </trkpt>
      <trkpt lat="42.90538" lon="0.10166">
        <ele>1462.6</ele>
        <time>2020-12-05T16:35:40.949Z</time>
      </trkpt>
      <trkpt lat="42.90538" lon="0.10166">
        <ele>1462.6</ele>
        <time>2020-12-05T16:35:41.947Z</time>
      </trkpt>
      <trkpt lat="42.90543" lon="0.10165">
        <ele>1463.2</ele>
        <time>2020-12-05T16:35:42.947Z</time>
      </trkpt>
      <trkpt lat="42.90543" lon="0.10165">
        <ele>1463.2</ele>
        <time>2020-12-05T16:35:43.948Z</time>
      </trkpt>
      <trkpt lat="42.90546" lon="0.10165">
        <ele>1463.6</ele>
        <time>2020-12-05T16:35:44.949Z</time>
      </trkpt>
      <trkpt lat="42.90546" lon="0.10165">
        <ele>1463.6</ele>
        <time>2020-12-05T16:35:45.948Z</time>
      </trkpt>
      <trkpt lat="42.90546" lon="0.10165">
        <ele>1463.6</ele>
        <time>2020-12-05T16:35:46.948Z</time>
      </trkpt>
      <trkpt lat="42.90546" lon="0.10165">
        <ele>1463.6</ele>
        <time>2020-12-05T16:35:47.948Z</time>
      </trkpt>
      <trkpt lat="42.90546" lon="0.10165">
        <ele>1463.6</ele>
        <time>2020-12-05T16:35:48.948Z</time>
      </trkpt>
      <trkpt lat="42.90546" lon="0.10165">
        <ele>1463.6</ele>
        <time>2020-12-05T16:35:49.949Z</time>
      </trkpt>
      <trkpt lat="42.90546" lon="0.10165">
        <ele>1463.6</ele>
        <time>2020-12-05T16:35:50.947Z</time>
      </trkpt>
      <trkpt lat="42.90546" lon="0.10165">
        <ele>1463.6</ele>
        <time>2020-12-05T16:35:51.948Z</time>
      </trkpt>
      <trkpt lat="42.90555" lon="0.10176">
        <ele>1464.4</ele>
        <time>2020-12-05T16:35:52.947Z</time>
      </trkpt>
      <trkpt lat="42.90555" lon="0.10176">
        <ele>1464.4</ele>
        <time>2020-12-05T16:35:53.947Z</time>
      </trkpt>
      <trkpt lat="42.90555" lon="0.10176">
        <ele>1464.4</ele>
        <time>2020-12-05T16:35:54.949Z</time>
      </trkpt>
      <trkpt lat="42.90558" lon="0.10184">
        <ele>1464.8</ele>
        <time>2020-12-05T16:35:55.947Z</time>
      </trkpt>
      <trkpt lat="42.90558" lon="0.10184">
        <ele>1464.8</ele>
        <time>2020-12-05T16:35:56.948Z</time>
      </trkpt>
      <trkpt lat="42.90558" lon="0.10184">
        <ele>1464.8</ele>
        <time>2020-12-05T16:35:57.949Z</time>
      </trkpt>
      <trkpt lat="42.90558" lon="0.10184">
        <ele>1464.8</ele>
        <time>2020-12-05T16:35:58.947Z</time>
      </trkpt>
      <trkpt lat="42.90559" lon="0.10192">
        <ele>1465.4</ele>
        <time>2020-12-05T16:35:59.949Z</time>
      </trkpt>
      <trkpt lat="42.90559" lon="0.10192">
        <ele>1465.4</ele>
        <time>2020-12-05T16:36:00.949Z</time>
      </trkpt>
      <trkpt lat="42.90559" lon="0.10192">
        <ele>1465.4</ele>
        <time>2020-12-05T16:36:01.948Z</time>
      </trkpt>
      <trkpt lat="42.90559" lon="0.10192">
        <ele>1465.4</ele>
        <time>2020-12-05T16:36:02.949Z</time>
      </trkpt>
      <trkpt lat="42.90559" lon="0.10192">
        <ele>1465.4</ele>
        <time>2020-12-05T16:36:03.949Z</time>
      </trkpt>
      <trkpt lat="42.90561" lon="0.10205">
        <ele>1466.4</ele>
        <time>2020-12-05T16:36:04.948Z</time>
      </trkpt>
      <trkpt lat="42.90561" lon="0.10205">
        <ele>1466.4</ele>
        <time>2020-12-05T16:36:05.949Z</time>
      </trkpt>
      <trkpt lat="42.90561" lon="0.10205">
        <ele>1466.4</ele>
        <time>2020-12-05T16:36:06.949Z</time>
      </trkpt>
      <trkpt lat="42.90561" lon="0.10205">
        <ele>1466.4</ele>
        <time>2020-12-05T16:36:07.947Z</time>
      </trkpt>
      <trkpt lat="42.90561" lon="0.10205">
        <ele>1466.4</ele>
        <time>2020-12-05T16:36:08.95Z</time>
      </trkpt>
      <trkpt lat="42.90561" lon="0.10205">
        <ele>1466.4</ele>
        <time>2020-12-05T16:36:09.947Z</time>
      </trkpt>
      <trkpt lat="42.90561" lon="0.10205">
        <ele>1466.4</ele>
        <time>2020-12-05T16:36:10.948Z</time>
      </trkpt>
      <trkpt lat="42.90561" lon="0.10205">
        <ele>1466.4</ele>
        <time>2020-12-05T16:36:11.948Z</time>
      </trkpt>
      <trkpt lat="42.90561" lon="0.10205">
        <ele>1466.4</ele>
        <time>2020-12-05T16:36:12.949Z</time>
      </trkpt>
      <trkpt lat="42.90563" lon="0.10225">
        <ele>1467.6</ele>
        <time>2020-12-05T16:36:13.949Z</time>
      </trkpt>
      <trkpt lat="42.90563" lon="0.10225">
        <ele>1467.6</ele>
        <time>2020-12-05T16:36:14.949Z</time>
      </trkpt>
      <trkpt lat="42.90563" lon="0.10225">
        <ele>1467.6</ele>
        <time>2020-12-05T16:36:15.948Z</time>
      </trkpt>
      <trkpt lat="42.90563" lon="0.10225">
        <ele>1467.6</ele>
        <time>2020-12-05T16:36:16.95Z</time>
      </trkpt>
      <trkpt lat="42.90563" lon="0.10225">
        <ele>1467.6</ele>
        <time>2020-12-05T16:36:17.947Z</time>
      </trkpt>
      <trkpt lat="42.90563" lon="0.10225">
        <ele>1467.6</ele>
        <time>2020-12-05T16:36:18.948Z</time>
      </trkpt>
      <trkpt lat="42.90563" lon="0.10225">
        <ele>1467.6</ele>
        <time>2020-12-05T16:36:19.949Z</time>
      </trkpt>
      <trkpt lat="42.90564" lon="0.10244">
        <ele>1468.6</ele>
        <time>2020-12-05T16:36:20.949Z</time>
      </trkpt>
      <trkpt lat="42.90564" lon="0.10244">
        <ele>1468.6</ele>
        <time>2020-12-05T16:36:21.949Z</time>
      </trkpt>
      <trkpt lat="42.90564" lon="0.10244">
        <ele>1468.6</ele>
        <time>2020-12-05T16:36:22.949Z</time>
      </trkpt>
      <trkpt lat="42.90564" lon="0.10248">
        <ele>1468.8</ele>
        <time>2020-12-05T16:36:23.948Z</time>
      </trkpt>
      <trkpt lat="42.90564" lon="0.10248">
        <ele>1468.8</ele>
        <time>2020-12-05T16:36:24.949Z</time>
      </trkpt>
      <trkpt lat="42.90564" lon="0.10248">
        <ele>1468.8</ele>
        <time>2020-12-05T16:36:25.948Z</time>
      </trkpt>
      <trkpt lat="42.90564" lon="0.10248">
        <ele>1468.8</ele>
        <time>2020-12-05T16:36:26.947Z</time>
      </trkpt>
      <trkpt lat="42.90564" lon="0.10248">
        <ele>1468.8</ele>
        <time>2020-12-05T16:36:27.949Z</time>
      </trkpt>
      <trkpt lat="42.90564" lon="0.10248">
        <ele>1468.8</ele>
        <time>2020-12-05T16:36:28.948Z</time>
      </trkpt>
      <trkpt lat="42.90564" lon="0.10248">
        <ele>1468.8</ele>
        <time>2020-12-05T16:36:29.948Z</time>
      </trkpt>
      <trkpt lat="42.90563" lon="0.10267">
        <ele>1470</ele>
        <time>2020-12-05T16:36:30.949Z</time>
      </trkpt>
      <trkpt lat="42.90563" lon="0.10267">
        <ele>1470</ele>
        <time>2020-12-05T16:36:31.949Z</time>
      </trkpt>
      <trkpt lat="42.90563" lon="0.10267">
        <ele>1470</ele>
        <time>2020-12-05T16:36:32.948Z</time>
      </trkpt>
      <trkpt lat="42.90563" lon="0.10267">
        <ele>1470</ele>
        <time>2020-12-05T16:36:33.947Z</time>
      </trkpt>
      <trkpt lat="42.90563" lon="0.10267">
        <ele>1470</ele>
        <time>2020-12-05T16:36:34.949Z</time>
      </trkpt>
      <trkpt lat="42.90563" lon="0.10267">
        <ele>1470</ele>
        <time>2020-12-05T16:36:35.948Z</time>
      </trkpt>
      <trkpt lat="42.90563" lon="0.10267">
        <ele>1470</ele>
        <time>2020-12-05T16:36:36.949Z</time>
      </trkpt>
      <trkpt lat="42.90561" lon="0.10281">
        <ele>1471.2</ele>
        <time>2020-12-05T16:36:37.948Z</time>
      </trkpt>
      <trkpt lat="42.90561" lon="0.10281">
        <ele>1471.2</ele>
        <time>2020-12-05T16:36:38.949Z</time>
      </trkpt>
      <trkpt lat="42.90561" lon="0.10281">
        <ele>1471.2</ele>
        <time>2020-12-05T16:36:39.948Z</time>
      </trkpt>
      <trkpt lat="42.90561" lon="0.10281">
        <ele>1471.2</ele>
        <time>2020-12-05T16:36:40.948Z</time>
      </trkpt>
      <trkpt lat="42.90561" lon="0.10281">
        <ele>1471.2</ele>
        <time>2020-12-05T16:36:41.949Z</time>
      </trkpt>
      <trkpt lat="42.90561" lon="0.10281">
        <ele>1471.2</ele>
        <time>2020-12-05T16:36:42.949Z</time>
      </trkpt>
      <trkpt lat="42.90561" lon="0.10281">
        <ele>1471.2</ele>
        <time>2020-12-05T16:36:43.947Z</time>
      </trkpt>
      <trkpt lat="42.90561" lon="0.10281">
        <ele>1471.2</ele>
        <time>2020-12-05T16:36:44.949Z</time>
      </trkpt>
      <trkpt lat="42.90559" lon="0.10301">
        <ele>1472.4</ele>
        <time>2020-12-05T16:36:45.949Z</time>
      </trkpt>
      <trkpt lat="42.90559" lon="0.10301">
        <ele>1472.4</ele>
        <time>2020-12-05T16:36:46.948Z</time>
      </trkpt>
      <trkpt lat="42.90559" lon="0.10301">
        <ele>1472.4</ele>
        <time>2020-12-05T16:36:47.95Z</time>
      </trkpt>
      <trkpt lat="42.90559" lon="0.10301">
        <ele>1472.4</ele>
        <time>2020-12-05T16:36:48.949Z</time>
      </trkpt>
      <trkpt lat="42.90559" lon="0.10301">
        <ele>1472.4</ele>
        <time>2020-12-05T16:36:49.949Z</time>
      </trkpt>
      <trkpt lat="42.90559" lon="0.10301">
        <ele>1472.4</ele>
        <time>2020-12-05T16:36:50.947Z</time>
      </trkpt>
      <trkpt lat="42.90558" lon="0.10315">
        <ele>1473.2</ele>
        <time>2020-12-05T16:36:51.947Z</time>
      </trkpt>
      <trkpt lat="42.90558" lon="0.10315">
        <ele>1473.2</ele>
        <time>2020-12-05T16:36:52.949Z</time>
      </trkpt>
      <trkpt lat="42.90558" lon="0.1032">
        <ele>1473.6</ele>
        <time>2020-12-05T16:36:53.949Z</time>
      </trkpt>
      <trkpt lat="42.90558" lon="0.1032">
        <ele>1473.6</ele>
        <time>2020-12-05T16:36:54.947Z</time>
      </trkpt>
      <trkpt lat="42.90558" lon="0.1032">
        <ele>1473.6</ele>
        <time>2020-12-05T16:36:55.948Z</time>
      </trkpt>
      <trkpt lat="42.90558" lon="0.1032">
        <ele>1473.6</ele>
        <time>2020-12-05T16:36:56.949Z</time>
      </trkpt>
      <trkpt lat="42.90558" lon="0.1032">
        <ele>1473.6</ele>
        <time>2020-12-05T16:36:57.949Z</time>
      </trkpt>
      <trkpt lat="42.90558" lon="0.1032">
        <ele>1473.6</ele>
        <time>2020-12-05T16:36:58.948Z</time>
      </trkpt>
      <trkpt lat="42.90558" lon="0.1032">
        <ele>1473.6</ele>
        <time>2020-12-05T16:36:59.947Z</time>
      </trkpt>
      <trkpt lat="42.90555" lon="0.10341">
        <ele>1474.6</ele>
        <time>2020-12-05T16:37:00.947Z</time>
      </trkpt>
      <trkpt lat="42.90555" lon="0.10341">
        <ele>1474.6</ele>
        <time>2020-12-05T16:37:01.947Z</time>
      </trkpt>
      <trkpt lat="42.90555" lon="0.10341">
        <ele>1474.6</ele>
        <time>2020-12-05T16:37:02.948Z</time>
      </trkpt>
      <trkpt lat="42.90555" lon="0.10341">
        <ele>1474.6</ele>
        <time>2020-12-05T16:37:03.948Z</time>
      </trkpt>
      <trkpt lat="42.90554" lon="0.10351">
        <ele>1475.2</ele>
        <time>2020-12-05T16:37:04.949Z</time>
      </trkpt>
      <trkpt lat="42.90554" lon="0.10351">
        <ele>1475.2</ele>
        <time>2020-12-05T16:37:05.947Z</time>
      </trkpt>
      <trkpt lat="42.90554" lon="0.10351">
        <ele>1475.2</ele>
        <time>2020-12-05T16:37:06.949Z</time>
      </trkpt>
      <trkpt lat="42.90554" lon="0.10351">
        <ele>1475.2</ele>
        <time>2020-12-05T16:37:07.948Z</time>
      </trkpt>
      <trkpt lat="42.90554" lon="0.10351">
        <ele>1475.2</ele>
        <time>2020-12-05T16:37:08.947Z</time>
      </trkpt>
      <trkpt lat="42.90554" lon="0.10351">
        <ele>1475.2</ele>
        <time>2020-12-05T16:37:09.949Z</time>
      </trkpt>
      <trkpt lat="42.90551" lon="0.10365">
        <ele>1476</ele>
        <time>2020-12-05T16:37:10.949Z</time>
      </trkpt>
      <trkpt lat="42.90551" lon="0.10365">
        <ele>1476</ele>
        <time>2020-12-05T16:37:11.949Z</time>
      </trkpt>
      <trkpt lat="42.90551" lon="0.10365">
        <ele>1476</ele>
        <time>2020-12-05T16:37:12.949Z</time>
      </trkpt>
      <trkpt lat="42.90551" lon="0.10365">
        <ele>1476</ele>
        <time>2020-12-05T16:37:13.948Z</time>
      </trkpt>
      <trkpt lat="42.90551" lon="0.10365">
        <ele>1476</ele>
        <time>2020-12-05T16:37:14.948Z</time>
      </trkpt>
      <trkpt lat="42.90548" lon="0.1038">
        <ele>1477</ele>
        <time>2020-12-05T16:37:15.948Z</time>
      </trkpt>
      <trkpt lat="42.90548" lon="0.1038">
        <ele>1477</ele>
        <time>2020-12-05T16:37:16.948Z</time>
      </trkpt>
      <trkpt lat="42.90548" lon="0.1038">
        <ele>1477</ele>
        <time>2020-12-05T16:37:17.949Z</time>
      </trkpt>
      <trkpt lat="42.90548" lon="0.1038">
        <ele>1477</ele>
        <time>2020-12-05T16:37:18.949Z</time>
      </trkpt>
      <trkpt lat="42.90548" lon="0.1038">
        <ele>1477</ele>
        <time>2020-12-05T16:37:19.947Z</time>
      </trkpt>
      <trkpt lat="42.90548" lon="0.1038">
        <ele>1477</ele>
        <time>2020-12-05T16:37:20.948Z</time>
      </trkpt>
      <trkpt lat="42.90548" lon="0.1038">
        <ele>1477</ele>
        <time>2020-12-05T16:37:21.948Z</time>
      </trkpt>
      <trkpt lat="42.90548" lon="0.1038">
        <ele>1477</ele>
        <time>2020-12-05T16:37:22.948Z</time>
      </trkpt>
      <trkpt lat="42.90548" lon="0.1038">
        <ele>1477</ele>
        <time>2020-12-05T16:37:23.948Z</time>
      </trkpt>
      <trkpt lat="42.90548" lon="0.1038">
        <ele>1477</ele>
        <time>2020-12-05T16:37:24.95Z</time>
      </trkpt>
      <trkpt lat="42.90548" lon="0.1038">
        <ele>1477</ele>
        <time>2020-12-05T16:37:25.949Z</time>
      </trkpt>
      <trkpt lat="42.90548" lon="0.1038">
        <ele>1477</ele>
        <time>2020-12-05T16:37:26.949Z</time>
      </trkpt>
      <trkpt lat="42.90539" lon="0.10409">
        <ele>1478.2</ele>
        <time>2020-12-05T16:37:27.948Z</time>
      </trkpt>
      <trkpt lat="42.90539" lon="0.10409">
        <ele>1478.2</ele>
        <time>2020-12-05T16:37:28.947Z</time>
      </trkpt>
      <trkpt lat="42.90539" lon="0.10409">
        <ele>1478.2</ele>
        <time>2020-12-05T16:37:29.949Z</time>
      </trkpt>
      <trkpt lat="42.90539" lon="0.10409">
        <ele>1478.2</ele>
        <time>2020-12-05T16:37:30.948Z</time>
      </trkpt>
      <trkpt lat="42.90539" lon="0.10409">
        <ele>1478.2</ele>
        <time>2020-12-05T16:37:31.948Z</time>
      </trkpt>
      <trkpt lat="42.90539" lon="0.10409">
        <ele>1478.2</ele>
        <time>2020-12-05T16:37:32.948Z</time>
      </trkpt>
      <trkpt lat="42.90539" lon="0.10409">
        <ele>1478.2</ele>
        <time>2020-12-05T16:37:33.948Z</time>
      </trkpt>
      <trkpt lat="42.90539" lon="0.10409">
        <ele>1478.2</ele>
        <time>2020-12-05T16:37:34.95Z</time>
      </trkpt>
      <trkpt lat="42.90529" lon="0.10426">
        <ele>1479.4</ele>
        <time>2020-12-05T16:37:35.949Z</time>
      </trkpt>
      <trkpt lat="42.90529" lon="0.10426">
        <ele>1479.4</ele>
        <time>2020-12-05T16:37:36.948Z</time>
      </trkpt>
      <trkpt lat="42.90529" lon="0.10426">
        <ele>1479.4</ele>
        <time>2020-12-05T16:37:37.948Z</time>
      </trkpt>
      <trkpt lat="42.90529" lon="0.10426">
        <ele>1479.4</ele>
        <time>2020-12-05T16:37:38.949Z</time>
      </trkpt>
      <trkpt lat="42.90529" lon="0.10426">
        <ele>1479.4</ele>
        <time>2020-12-05T16:37:39.948Z</time>
      </trkpt>
      <trkpt lat="42.90522" lon="0.10438">
        <ele>1480.2</ele>
        <time>2020-12-05T16:37:40.949Z</time>
      </trkpt>
      <trkpt lat="42.90522" lon="0.10438">
        <ele>1480.2</ele>
        <time>2020-12-05T16:37:41.947Z</time>
      </trkpt>
      <trkpt lat="42.9052" lon="0.10442">
        <ele>1480.4</ele>
        <time>2020-12-05T16:37:42.949Z</time>
      </trkpt>
      <trkpt lat="42.9052" lon="0.10442">
        <ele>1480.4</ele>
        <time>2020-12-05T16:37:43.947Z</time>
      </trkpt>
      <trkpt lat="42.9052" lon="0.10442">
        <ele>1480.4</ele>
        <time>2020-12-05T16:37:44.947Z</time>
      </trkpt>
      <trkpt lat="42.9052" lon="0.10442">
        <ele>1480.4</ele>
        <time>2020-12-05T16:37:45.948Z</time>
      </trkpt>
      <trkpt lat="42.9052" lon="0.10442">
        <ele>1480.4</ele>
        <time>2020-12-05T16:37:46.949Z</time>
      </trkpt>
      <trkpt lat="42.9052" lon="0.10442">
        <ele>1480.4</ele>
        <time>2020-12-05T16:37:47.948Z</time>
      </trkpt>
      <trkpt lat="42.9052" lon="0.10442">
        <ele>1480.4</ele>
        <time>2020-12-05T16:37:48.949Z</time>
      </trkpt>
      <trkpt lat="42.90518" lon="0.1046">
        <ele>1481.4</ele>
        <time>2020-12-05T16:37:49.947Z</time>
      </trkpt>
      <trkpt lat="42.90518" lon="0.1046">
        <ele>1481.4</ele>
        <time>2020-12-05T16:37:50.947Z</time>
      </trkpt>
      <trkpt lat="42.90519" lon="0.10464">
        <ele>1481.6</ele>
        <time>2020-12-05T16:37:51.95Z</time>
      </trkpt>
      <trkpt lat="42.90519" lon="0.10464">
        <ele>1481.6</ele>
        <time>2020-12-05T16:37:52.948Z</time>
      </trkpt>
      <trkpt lat="42.90519" lon="0.10464">
        <ele>1481.6</ele>
        <time>2020-12-05T16:37:53.948Z</time>
      </trkpt>
      <trkpt lat="42.90519" lon="0.10464">
        <ele>1481.6</ele>
        <time>2020-12-05T16:37:54.949Z</time>
      </trkpt>
      <trkpt lat="42.90527" lon="0.10472">
        <ele>1482.6</ele>
        <time>2020-12-05T16:37:55.947Z</time>
      </trkpt>
      <trkpt lat="42.90527" lon="0.10472">
        <ele>1482.6</ele>
        <time>2020-12-05T16:37:56.949Z</time>
      </trkpt>
      <trkpt lat="42.90527" lon="0.10472">
        <ele>1482.6</ele>
        <time>2020-12-05T16:37:57.949Z</time>
      </trkpt>
      <trkpt lat="42.90527" lon="0.10472">
        <ele>1482.6</ele>
        <time>2020-12-05T16:37:58.948Z</time>
      </trkpt>
      <trkpt lat="42.90527" lon="0.10472">
        <ele>1482.6</ele>
        <time>2020-12-05T16:37:59.949Z</time>
      </trkpt>
      <trkpt lat="42.90527" lon="0.10472">
        <ele>1482.6</ele>
        <time>2020-12-05T16:38:00.948Z</time>
      </trkpt>
      <trkpt lat="42.90527" lon="0.10472">
        <ele>1482.6</ele>
        <time>2020-12-05T16:38:01.949Z</time>
      </trkpt>
      <trkpt lat="42.90541" lon="0.10469">
        <ele>1483.8</ele>
        <time>2020-12-05T16:38:02.948Z</time>
      </trkpt>
      <trkpt lat="42.90541" lon="0.10469">
        <ele>1483.8</ele>
        <time>2020-12-05T16:38:03.948Z</time>
      </trkpt>
      <trkpt lat="42.90541" lon="0.10469">
        <ele>1483.8</ele>
        <time>2020-12-05T16:38:04.949Z</time>
      </trkpt>
      <trkpt lat="42.90541" lon="0.10469">
        <ele>1483.8</ele>
        <time>2020-12-05T16:38:05.948Z</time>
      </trkpt>
      <trkpt lat="42.90541" lon="0.10469">
        <ele>1483.8</ele>
        <time>2020-12-05T16:38:06.947Z</time>
      </trkpt>
      <trkpt lat="42.90541" lon="0.10469">
        <ele>1483.8</ele>
        <time>2020-12-05T16:38:07.949Z</time>
      </trkpt>
      <trkpt lat="42.90541" lon="0.10469">
        <ele>1483.8</ele>
        <time>2020-12-05T16:38:08.949Z</time>
      </trkpt>
      <trkpt lat="42.90552" lon="0.10457">
        <ele>1484.8</ele>
        <time>2020-12-05T16:38:09.947Z</time>
      </trkpt>
      <trkpt lat="42.90552" lon="0.10457">
        <ele>1484.8</ele>
        <time>2020-12-05T16:38:10.949Z</time>
      </trkpt>
      <trkpt lat="42.90552" lon="0.10457">
        <ele>1484.8</ele>
        <time>2020-12-05T16:38:11.948Z</time>
      </trkpt>
      <trkpt lat="42.90554" lon="0.10453">
        <ele>1485.2</ele>
        <time>2020-12-05T16:38:12.948Z</time>
      </trkpt>
      <trkpt lat="42.90554" lon="0.10453">
        <ele>1485.2</ele>
        <time>2020-12-05T16:38:13.949Z</time>
      </trkpt>
      <trkpt lat="42.90554" lon="0.10453">
        <ele>1485.2</ele>
        <time>2020-12-05T16:38:14.949Z</time>
      </trkpt>
      <trkpt lat="42.90554" lon="0.10453">
        <ele>1485.2</ele>
        <time>2020-12-05T16:38:15.947Z</time>
      </trkpt>
      <trkpt lat="42.90554" lon="0.10453">
        <ele>1485.2</ele>
        <time>2020-12-05T16:38:16.949Z</time>
      </trkpt>
      <trkpt lat="42.90554" lon="0.10453">
        <ele>1485.2</ele>
        <time>2020-12-05T16:38:17.948Z</time>
      </trkpt>
      <trkpt lat="42.90554" lon="0.10453">
        <ele>1485.2</ele>
        <time>2020-12-05T16:38:18.949Z</time>
      </trkpt>
      <trkpt lat="42.90554" lon="0.10453">
        <ele>1485.2</ele>
        <time>2020-12-05T16:38:19.947Z</time>
      </trkpt>
      <trkpt lat="42.90565" lon="0.10433">
        <ele>1486.2</ele>
        <time>2020-12-05T16:38:20.947Z</time>
      </trkpt>
      <trkpt lat="42.90565" lon="0.10433">
        <ele>1486.2</ele>
        <time>2020-12-05T16:38:21.949Z</time>
      </trkpt>
      <trkpt lat="42.90565" lon="0.10433">
        <ele>1486.2</ele>
        <time>2020-12-05T16:38:22.949Z</time>
      </trkpt>
      <trkpt lat="42.90565" lon="0.10433">
        <ele>1486.2</ele>
        <time>2020-12-05T16:38:23.947Z</time>
      </trkpt>
      <trkpt lat="42.90569" lon="0.10426">
        <ele>1486.8</ele>
        <time>2020-12-05T16:38:24.948Z</time>
      </trkpt>
      <trkpt lat="42.90569" lon="0.10426">
        <ele>1486.8</ele>
        <time>2020-12-05T16:38:25.949Z</time>
      </trkpt>
      <trkpt lat="42.90571" lon="0.10422">
        <ele>1487.4</ele>
        <time>2020-12-05T16:38:26.948Z</time>
      </trkpt>
      <trkpt lat="42.90571" lon="0.10422">
        <ele>1487.4</ele>
        <time>2020-12-05T16:38:27.949Z</time>
      </trkpt>
      <trkpt lat="42.90571" lon="0.10422">
        <ele>1487.4</ele>
        <time>2020-12-05T16:38:28.949Z</time>
      </trkpt>
      <trkpt lat="42.90571" lon="0.10422">
        <ele>1487.4</ele>
        <time>2020-12-05T16:38:29.949Z</time>
      </trkpt>
      <trkpt lat="42.90571" lon="0.10422">
        <ele>1487.4</ele>
        <time>2020-12-05T16:38:30.949Z</time>
      </trkpt>
      <trkpt lat="42.90571" lon="0.10422">
        <ele>1487.4</ele>
        <time>2020-12-05T16:38:31.948Z</time>
      </trkpt>
      <trkpt lat="42.90571" lon="0.10422">
        <ele>1487.4</ele>
        <time>2020-12-05T16:38:32.947Z</time>
      </trkpt>
      <trkpt lat="42.90579" lon="0.10405">
        <ele>1488.6</ele>
        <time>2020-12-05T16:38:33.95Z</time>
      </trkpt>
      <trkpt lat="42.90579" lon="0.10405">
        <ele>1488.6</ele>
        <time>2020-12-05T16:38:34.947Z</time>
      </trkpt>
      <trkpt lat="42.90579" lon="0.10405">
        <ele>1488.6</ele>
        <time>2020-12-05T16:38:35.948Z</time>
      </trkpt>
      <trkpt lat="42.90579" lon="0.10405">
        <ele>1488.6</ele>
        <time>2020-12-05T16:38:36.948Z</time>
      </trkpt>
      <trkpt lat="42.90579" lon="0.10405">
        <ele>1488.6</ele>
        <time>2020-12-05T16:38:37.948Z</time>
      </trkpt>
      <trkpt lat="42.90579" lon="0.10405">
        <ele>1488.6</ele>
        <time>2020-12-05T16:38:38.95Z</time>
      </trkpt>
      <trkpt lat="42.90579" lon="0.10405">
        <ele>1488.6</ele>
        <time>2020-12-05T16:38:39.949Z</time>
      </trkpt>
      <trkpt lat="42.90588" lon="0.10388">
        <ele>1489.4</ele>
        <time>2020-12-05T16:38:40.949Z</time>
      </trkpt>
      <trkpt lat="42.90588" lon="0.10388">
        <ele>1489.4</ele>
        <time>2020-12-05T16:38:41.948Z</time>
      </trkpt>
      <trkpt lat="42.90588" lon="0.10388">
        <ele>1489.4</ele>
        <time>2020-12-05T16:38:42.947Z</time>
      </trkpt>
      <trkpt lat="42.90588" lon="0.10388">
        <ele>1489.4</ele>
        <time>2020-12-05T16:38:43.949Z</time>
      </trkpt>
      <trkpt lat="42.90588" lon="0.10388">
        <ele>1489.4</ele>
        <time>2020-12-05T16:38:44.949Z</time>
      </trkpt>
      <trkpt lat="42.90588" lon="0.10388">
        <ele>1489.4</ele>
        <time>2020-12-05T16:38:45.947Z</time>
      </trkpt>
      <trkpt lat="42.90588" lon="0.10388">
        <ele>1489.4</ele>
        <time>2020-12-05T16:38:46.948Z</time>
      </trkpt>
      <trkpt lat="42.90588" lon="0.10388">
        <ele>1489.4</ele>
        <time>2020-12-05T16:38:47.948Z</time>
      </trkpt>
      <trkpt lat="42.90595" lon="0.10371">
        <ele>1490.6</ele>
        <time>2020-12-05T16:38:48.949Z</time>
      </trkpt>
      <trkpt lat="42.90595" lon="0.10371">
        <ele>1490.6</ele>
        <time>2020-12-05T16:38:49.948Z</time>
      </trkpt>
      <trkpt lat="42.90595" lon="0.10371">
        <ele>1490.6</ele>
        <time>2020-12-05T16:38:50.947Z</time>
      </trkpt>
      <trkpt lat="42.90595" lon="0.10371">
        <ele>1490.6</ele>
        <time>2020-12-05T16:38:51.949Z</time>
      </trkpt>
      <trkpt lat="42.90599" lon="0.10361">
        <ele>1491.2</ele>
        <time>2020-12-05T16:38:52.949Z</time>
      </trkpt>
      <trkpt lat="42.90599" lon="0.10361">
        <ele>1491.2</ele>
        <time>2020-12-05T16:38:53.948Z</time>
      </trkpt>
      <trkpt lat="42.90599" lon="0.10361">
        <ele>1491.2</ele>
        <time>2020-12-05T16:38:54.948Z</time>
      </trkpt>
      <trkpt lat="42.90599" lon="0.10361">
        <ele>1491.2</ele>
        <time>2020-12-05T16:38:55.949Z</time>
      </trkpt>
      <trkpt lat="42.90602" lon="0.1035">
        <ele>1491.8</ele>
        <time>2020-12-05T16:38:56.947Z</time>
      </trkpt>
      <trkpt lat="42.90602" lon="0.1035">
        <ele>1491.8</ele>
        <time>2020-12-05T16:38:57.949Z</time>
      </trkpt>
      <trkpt lat="42.90602" lon="0.1035">
        <ele>1491.8</ele>
        <time>2020-12-05T16:38:58.948Z</time>
      </trkpt>
      <trkpt lat="42.90602" lon="0.1035">
        <ele>1491.8</ele>
        <time>2020-12-05T16:38:59.947Z</time>
      </trkpt>
      <trkpt lat="42.90602" lon="0.1035">
        <ele>1491.8</ele>
        <time>2020-12-05T16:39:00.949Z</time>
      </trkpt>
      <trkpt lat="42.90602" lon="0.1035">
        <ele>1491.8</ele>
        <time>2020-12-05T16:39:01.948Z</time>
      </trkpt>
      <trkpt lat="42.90602" lon="0.1035">
        <ele>1491.8</ele>
        <time>2020-12-05T16:39:02.948Z</time>
      </trkpt>
      <trkpt lat="42.90602" lon="0.1035">
        <ele>1491.8</ele>
        <time>2020-12-05T16:39:03.948Z</time>
      </trkpt>
      <trkpt lat="42.90602" lon="0.1035">
        <ele>1491.8</ele>
        <time>2020-12-05T16:39:04.947Z</time>
      </trkpt>
      <trkpt lat="42.90602" lon="0.1035">
        <ele>1491.8</ele>
        <time>2020-12-05T16:39:05.949Z</time>
      </trkpt>
      <trkpt lat="42.9061" lon="0.10324">
        <ele>1492.8</ele>
        <time>2020-12-05T16:39:06.948Z</time>
      </trkpt>
      <trkpt lat="42.9061" lon="0.10324">
        <ele>1492.8</ele>
        <time>2020-12-05T16:39:07.947Z</time>
      </trkpt>
      <trkpt lat="42.9061" lon="0.10324">
        <ele>1492.8</ele>
        <time>2020-12-05T16:39:08.947Z</time>
      </trkpt>
      <trkpt lat="42.9061" lon="0.10324">
        <ele>1492.8</ele>
        <time>2020-12-05T16:39:09.949Z</time>
      </trkpt>
      <trkpt lat="42.9061" lon="0.10324">
        <ele>1492.8</ele>
        <time>2020-12-05T16:39:10.947Z</time>
      </trkpt>
      <trkpt lat="42.9061" lon="0.10324">
        <ele>1492.8</ele>
        <time>2020-12-05T16:39:11.95Z</time>
      </trkpt>
      <trkpt lat="42.9061" lon="0.10324">
        <ele>1492.8</ele>
        <time>2020-12-05T16:39:12.949Z</time>
      </trkpt>
      <trkpt lat="42.9061" lon="0.10324">
        <ele>1492.8</ele>
        <time>2020-12-05T16:39:13.948Z</time>
      </trkpt>
      <trkpt lat="42.9061" lon="0.10324">
        <ele>1492.8</ele>
        <time>2020-12-05T16:39:14.948Z</time>
      </trkpt>
      <trkpt lat="42.9061" lon="0.10324">
        <ele>1492.8</ele>
        <time>2020-12-05T16:39:15.948Z</time>
      </trkpt>
      <trkpt lat="42.9061" lon="0.10324">
        <ele>1492.8</ele>
        <time>2020-12-05T16:39:16.949Z</time>
      </trkpt>
      <trkpt lat="42.9062" lon="0.10299">
        <ele>1494</ele>
        <time>2020-12-05T16:39:17.949Z</time>
      </trkpt>
      <trkpt lat="42.9062" lon="0.10299">
        <ele>1494</ele>
        <time>2020-12-05T16:39:18.947Z</time>
      </trkpt>
      <trkpt lat="42.9062" lon="0.10299">
        <ele>1494</ele>
        <time>2020-12-05T16:39:19.948Z</time>
      </trkpt>
      <trkpt lat="42.9062" lon="0.10299">
        <ele>1494</ele>
        <time>2020-12-05T16:39:20.949Z</time>
      </trkpt>
      <trkpt lat="42.9062" lon="0.10299">
        <ele>1494</ele>
        <time>2020-12-05T16:39:21.948Z</time>
      </trkpt>
      <trkpt lat="42.90625" lon="0.10285">
        <ele>1494.6</ele>
        <time>2020-12-05T16:39:22.949Z</time>
      </trkpt>
      <trkpt lat="42.90625" lon="0.10285">
        <ele>1494.6</ele>
        <time>2020-12-05T16:39:23.948Z</time>
      </trkpt>
      <trkpt lat="42.90625" lon="0.10285">
        <ele>1494.6</ele>
        <time>2020-12-05T16:39:24.947Z</time>
      </trkpt>
      <trkpt lat="42.90625" lon="0.10285">
        <ele>1494.6</ele>
        <time>2020-12-05T16:39:25.949Z</time>
      </trkpt>
      <trkpt lat="42.90628" lon="0.10274">
        <ele>1495.2</ele>
        <time>2020-12-05T16:39:26.949Z</time>
      </trkpt>
      <trkpt lat="42.90628" lon="0.10274">
        <ele>1495.2</ele>
        <time>2020-12-05T16:39:27.947Z</time>
      </trkpt>
      <trkpt lat="42.90628" lon="0.10274">
        <ele>1495.2</ele>
        <time>2020-12-05T16:39:28.95Z</time>
      </trkpt>
      <trkpt lat="42.90628" lon="0.10274">
        <ele>1495.2</ele>
        <time>2020-12-05T16:39:29.947Z</time>
      </trkpt>
      <trkpt lat="42.90628" lon="0.10274">
        <ele>1495.2</ele>
        <time>2020-12-05T16:39:30.949Z</time>
      </trkpt>
      <trkpt lat="42.90628" lon="0.10274">
        <ele>1495.2</ele>
        <time>2020-12-05T16:39:31.949Z</time>
      </trkpt>
      <trkpt lat="42.90628" lon="0.10274">
        <ele>1495.2</ele>
        <time>2020-12-05T16:39:32.948Z</time>
      </trkpt>
      <trkpt lat="42.90632" lon="0.10258">
        <ele>1496.2</ele>
        <time>2020-12-05T16:39:33.948Z</time>
      </trkpt>
      <trkpt lat="42.90632" lon="0.10258">
        <ele>1496.2</ele>
        <time>2020-12-05T16:39:34.949Z</time>
      </trkpt>
      <trkpt lat="42.90633" lon="0.10253">
        <ele>1496.4</ele>
        <time>2020-12-05T16:39:35.95Z</time>
      </trkpt>
      <trkpt lat="42.90633" lon="0.10253">
        <ele>1496.4</ele>
        <time>2020-12-05T16:39:36.948Z</time>
      </trkpt>
      <trkpt lat="42.90633" lon="0.10253">
        <ele>1496.4</ele>
        <time>2020-12-05T16:39:37.949Z</time>
      </trkpt>
      <trkpt lat="42.90633" lon="0.10253">
        <ele>1496.4</ele>
        <time>2020-12-05T16:39:38.947Z</time>
      </trkpt>
      <trkpt lat="42.90633" lon="0.10253">
        <ele>1496.4</ele>
        <time>2020-12-05T16:39:39.949Z</time>
      </trkpt>
      <trkpt lat="42.90633" lon="0.10253">
        <ele>1496.4</ele>
        <time>2020-12-05T16:39:40.947Z</time>
      </trkpt>
      <trkpt lat="42.90635" lon="0.10236">
        <ele>1497.2</ele>
        <time>2020-12-05T16:39:41.947Z</time>
      </trkpt>
      <trkpt lat="42.90635" lon="0.10236">
        <ele>1497.2</ele>
        <time>2020-12-05T16:39:42.95Z</time>
      </trkpt>
      <trkpt lat="42.90635" lon="0.10236">
        <ele>1497.2</ele>
        <time>2020-12-05T16:39:43.948Z</time>
      </trkpt>
      <trkpt lat="42.90635" lon="0.10236">
        <ele>1497.2</ele>
        <time>2020-12-05T16:39:44.947Z</time>
      </trkpt>
      <trkpt lat="42.90635" lon="0.10236">
        <ele>1497.2</ele>
        <time>2020-12-05T16:39:45.949Z</time>
      </trkpt>
      <trkpt lat="42.90635" lon="0.1022">
        <ele>1498</ele>
        <time>2020-12-05T16:39:46.948Z</time>
      </trkpt>
      <trkpt lat="42.90635" lon="0.1022">
        <ele>1498</ele>
        <time>2020-12-05T16:39:47.948Z</time>
      </trkpt>
      <trkpt lat="42.90635" lon="0.1022">
        <ele>1498</ele>
        <time>2020-12-05T16:39:48.949Z</time>
      </trkpt>
      <trkpt lat="42.90635" lon="0.1022">
        <ele>1498</ele>
        <time>2020-12-05T16:39:49.949Z</time>
      </trkpt>
      <trkpt lat="42.90636" lon="0.10209">
        <ele>1498.4</ele>
        <time>2020-12-05T16:39:50.948Z</time>
      </trkpt>
      <trkpt lat="42.90636" lon="0.10209">
        <ele>1498.4</ele>
        <time>2020-12-05T16:39:51.949Z</time>
      </trkpt>
      <trkpt lat="42.90638" lon="0.10205">
        <ele>1498.8</ele>
        <time>2020-12-05T16:39:52.949Z</time>
      </trkpt>
      <trkpt lat="42.90638" lon="0.10205">
        <ele>1498.8</ele>
        <time>2020-12-05T16:39:53.949Z</time>
      </trkpt>
      <trkpt lat="42.90642" lon="0.10201">
        <ele>1499.2</ele>
        <time>2020-12-05T16:39:54.948Z</time>
      </trkpt>
      <trkpt lat="42.90642" lon="0.10201">
        <ele>1499.2</ele>
        <time>2020-12-05T16:39:55.947Z</time>
      </trkpt>
      <trkpt lat="42.90646" lon="0.10199">
        <ele>1499.6</ele>
        <time>2020-12-05T16:39:56.948Z</time>
      </trkpt>
      <trkpt lat="42.90646" lon="0.10199">
        <ele>1499.6</ele>
        <time>2020-12-05T16:39:57.948Z</time>
      </trkpt>
      <trkpt lat="42.90646" lon="0.10199">
        <ele>1499.6</ele>
        <time>2020-12-05T16:39:58.949Z</time>
      </trkpt>
      <trkpt lat="42.90646" lon="0.10199">
        <ele>1499.6</ele>
        <time>2020-12-05T16:39:59.948Z</time>
      </trkpt>
      <trkpt lat="42.90646" lon="0.10199">
        <ele>1499.6</ele>
        <time>2020-12-05T16:40:00.949Z</time>
      </trkpt>
      <trkpt lat="42.90657" lon="0.10201">
        <ele>1500.2</ele>
        <time>2020-12-05T16:40:01.948Z</time>
      </trkpt>
      <trkpt lat="42.90657" lon="0.10201">
        <ele>1500.2</ele>
        <time>2020-12-05T16:40:02.948Z</time>
      </trkpt>
      <trkpt lat="42.90657" lon="0.10201">
        <ele>1500.2</ele>
        <time>2020-12-05T16:40:03.949Z</time>
      </trkpt>
      <trkpt lat="42.9066" lon="0.10209">
        <ele>1500.8</ele>
        <time>2020-12-05T16:40:04.949Z</time>
      </trkpt>
      <trkpt lat="42.9066" lon="0.10209">
        <ele>1500.8</ele>
        <time>2020-12-05T16:40:05.948Z</time>
      </trkpt>
      <trkpt lat="42.9066" lon="0.10213">
        <ele>1501</ele>
        <time>2020-12-05T16:40:06.947Z</time>
      </trkpt>
      <trkpt lat="42.9066" lon="0.10213">
        <ele>1501</ele>
        <time>2020-12-05T16:40:07.947Z</time>
      </trkpt>
      <trkpt lat="42.9066" lon="0.10213">
        <ele>1501</ele>
        <time>2020-12-05T16:40:08.947Z</time>
      </trkpt>
      <trkpt lat="42.9066" lon="0.10213">
        <ele>1501</ele>
        <time>2020-12-05T16:40:09.949Z</time>
      </trkpt>
      <trkpt lat="42.9066" lon="0.10213">
        <ele>1501</ele>
        <time>2020-12-05T16:40:10.948Z</time>
      </trkpt>
      <trkpt lat="42.90657" lon="0.10227">
        <ele>1501.8</ele>
        <time>2020-12-05T16:40:11.948Z</time>
      </trkpt>
      <trkpt lat="42.90657" lon="0.10227">
        <ele>1501.8</ele>
        <time>2020-12-05T16:40:12.949Z</time>
      </trkpt>
      <trkpt lat="42.90656" lon="0.10232">
        <ele>1502.2</ele>
        <time>2020-12-05T16:40:13.949Z</time>
      </trkpt>
      <trkpt lat="42.90656" lon="0.10232">
        <ele>1502.2</ele>
        <time>2020-12-05T16:40:14.949Z</time>
      </trkpt>
      <trkpt lat="42.90656" lon="0.10232">
        <ele>1502.2</ele>
        <time>2020-12-05T16:40:15.947Z</time>
      </trkpt>
      <trkpt lat="42.90656" lon="0.10232">
        <ele>1502.2</ele>
        <time>2020-12-05T16:40:16.948Z</time>
      </trkpt>
      <trkpt lat="42.90654" lon="0.10242">
        <ele>1503.6</ele>
        <time>2020-12-05T16:40:17.949Z</time>
      </trkpt>
      <trkpt lat="42.90654" lon="0.10242">
        <ele>1503.6</ele>
        <time>2020-12-05T16:40:18.949Z</time>
      </trkpt>
      <trkpt lat="42.90654" lon="0.10242">
        <ele>1503.6</ele>
        <time>2020-12-05T16:40:19.948Z</time>
      </trkpt>
      <trkpt lat="42.90654" lon="0.10242">
        <ele>1503.6</ele>
        <time>2020-12-05T16:40:20.947Z</time>
      </trkpt>
      <trkpt lat="42.90654" lon="0.10242">
        <ele>1503.6</ele>
        <time>2020-12-05T16:40:21.95Z</time>
      </trkpt>
      <trkpt lat="42.90654" lon="0.10242">
        <ele>1503.6</ele>
        <time>2020-12-05T16:40:22.948Z</time>
      </trkpt>
      <trkpt lat="42.90654" lon="0.10242">
        <ele>1503.6</ele>
        <time>2020-12-05T16:40:23.949Z</time>
      </trkpt>
      <trkpt lat="42.90654" lon="0.10242">
        <ele>1503.6</ele>
        <time>2020-12-05T16:40:24.949Z</time>
      </trkpt>
      <trkpt lat="42.90654" lon="0.10242">
        <ele>1503.6</ele>
        <time>2020-12-05T16:40:25.949Z</time>
      </trkpt>
      <trkpt lat="42.9065" lon="0.10262">
        <ele>1505</ele>
        <time>2020-12-05T16:40:26.948Z</time>
      </trkpt>
      <trkpt lat="42.9065" lon="0.10262">
        <ele>1505</ele>
        <time>2020-12-05T16:40:27.947Z</time>
      </trkpt>
      <trkpt lat="42.9065" lon="0.10267">
        <ele>1505.2</ele>
        <time>2020-12-05T16:40:28.948Z</time>
      </trkpt>
      <trkpt lat="42.9065" lon="0.10267">
        <ele>1505.2</ele>
        <time>2020-12-05T16:40:29.948Z</time>
      </trkpt>
      <trkpt lat="42.9065" lon="0.10267">
        <ele>1505.2</ele>
        <time>2020-12-05T16:40:30.948Z</time>
      </trkpt>
      <trkpt lat="42.9065" lon="0.10267">
        <ele>1505.2</ele>
        <time>2020-12-05T16:40:31.947Z</time>
      </trkpt>
      <trkpt lat="42.9065" lon="0.10267">
        <ele>1505.2</ele>
        <time>2020-12-05T16:40:32.949Z</time>
      </trkpt>
      <trkpt lat="42.9065" lon="0.10267">
        <ele>1505.2</ele>
        <time>2020-12-05T16:40:33.947Z</time>
      </trkpt>
      <trkpt lat="42.90647" lon="0.10282">
        <ele>1506.2</ele>
        <time>2020-12-05T16:40:34.949Z</time>
      </trkpt>
      <trkpt lat="42.90647" lon="0.10282">
        <ele>1506.2</ele>
        <time>2020-12-05T16:40:35.948Z</time>
      </trkpt>
      <trkpt lat="42.90647" lon="0.10282">
        <ele>1506.2</ele>
        <time>2020-12-05T16:40:36.948Z</time>
      </trkpt>
      <trkpt lat="42.90647" lon="0.10282">
        <ele>1506.2</ele>
        <time>2020-12-05T16:40:37.948Z</time>
      </trkpt>
      <trkpt lat="42.90647" lon="0.10282">
        <ele>1506.2</ele>
        <time>2020-12-05T16:40:38.948Z</time>
      </trkpt>
      <trkpt lat="42.90647" lon="0.10282">
        <ele>1506.2</ele>
        <time>2020-12-05T16:40:39.949Z</time>
      </trkpt>
      <trkpt lat="42.90645" lon="0.10296">
        <ele>1506.8</ele>
        <time>2020-12-05T16:40:40.949Z</time>
      </trkpt>
      <trkpt lat="42.90645" lon="0.10296">
        <ele>1506.8</ele>
        <time>2020-12-05T16:40:41.947Z</time>
      </trkpt>
      <trkpt lat="42.90645" lon="0.10296">
        <ele>1506.8</ele>
        <time>2020-12-05T16:40:42.947Z</time>
      </trkpt>
      <trkpt lat="42.90645" lon="0.10296">
        <ele>1506.8</ele>
        <time>2020-12-05T16:40:43.949Z</time>
      </trkpt>
      <trkpt lat="42.90644" lon="0.10306">
        <ele>1507.2</ele>
        <time>2020-12-05T16:40:44.947Z</time>
      </trkpt>
      <trkpt lat="42.90644" lon="0.10306">
        <ele>1507.2</ele>
        <time>2020-12-05T16:40:45.948Z</time>
      </trkpt>
      <trkpt lat="42.90644" lon="0.10306">
        <ele>1507.2</ele>
        <time>2020-12-05T16:40:46.95Z</time>
      </trkpt>
      <trkpt lat="42.90644" lon="0.10306">
        <ele>1507.2</ele>
        <time>2020-12-05T16:40:47.947Z</time>
      </trkpt>
      <trkpt lat="42.90644" lon="0.10306">
        <ele>1507.2</ele>
        <time>2020-12-05T16:40:48.947Z</time>
      </trkpt>
      <trkpt lat="42.90644" lon="0.10306">
        <ele>1507.2</ele>
        <time>2020-12-05T16:40:49.948Z</time>
      </trkpt>
      <trkpt lat="42.90644" lon="0.10306">
        <ele>1507.2</ele>
        <time>2020-12-05T16:40:50.947Z</time>
      </trkpt>
      <trkpt lat="42.90642" lon="0.10325">
        <ele>1508.6</ele>
        <time>2020-12-05T16:40:51.948Z</time>
      </trkpt>
      <trkpt lat="42.90642" lon="0.10325">
        <ele>1508.6</ele>
        <time>2020-12-05T16:40:52.947Z</time>
      </trkpt>
      <trkpt lat="42.90642" lon="0.10325">
        <ele>1508.6</ele>
        <time>2020-12-05T16:40:53.947Z</time>
      </trkpt>
      <trkpt lat="42.90642" lon="0.10325">
        <ele>1508.6</ele>
        <time>2020-12-05T16:40:54.948Z</time>
      </trkpt>
      <trkpt lat="42.90642" lon="0.10325">
        <ele>1508.6</ele>
        <time>2020-12-05T16:40:55.947Z</time>
      </trkpt>
      <trkpt lat="42.90642" lon="0.10325">
        <ele>1508.6</ele>
        <time>2020-12-05T16:40:56.947Z</time>
      </trkpt>
      <trkpt lat="42.90642" lon="0.10325">
        <ele>1508.6</ele>
        <time>2020-12-05T16:40:57.948Z</time>
      </trkpt>
      <trkpt lat="42.90641" lon="0.10344">
        <ele>1510</ele>
        <time>2020-12-05T16:40:58.947Z</time>
      </trkpt>
      <trkpt lat="42.90641" lon="0.10344">
        <ele>1510</ele>
        <time>2020-12-05T16:40:59.947Z</time>
      </trkpt>
      <trkpt lat="42.90641" lon="0.10344">
        <ele>1510</ele>
        <time>2020-12-05T16:41:00.948Z</time>
      </trkpt>
      <trkpt lat="42.90641" lon="0.10344">
        <ele>1510</ele>
        <time>2020-12-05T16:41:01.947Z</time>
      </trkpt>
      <trkpt lat="42.90641" lon="0.10344">
        <ele>1510</ele>
        <time>2020-12-05T16:41:02.947Z</time>
      </trkpt>
      <trkpt lat="42.90641" lon="0.10344">
        <ele>1510</ele>
        <time>2020-12-05T16:41:03.947Z</time>
      </trkpt>
      <trkpt lat="42.90639" lon="0.10358">
        <ele>1511</ele>
        <time>2020-12-05T16:41:04.948Z</time>
      </trkpt>
      <trkpt lat="42.90639" lon="0.10358">
        <ele>1511</ele>
        <time>2020-12-05T16:41:05.949Z</time>
      </trkpt>
      <trkpt lat="42.90639" lon="0.10363">
        <ele>1511.2</ele>
        <time>2020-12-05T16:41:06.947Z</time>
      </trkpt>
      <trkpt lat="42.90639" lon="0.10363">
        <ele>1511.2</ele>
        <time>2020-12-05T16:41:07.949Z</time>
      </trkpt>
      <trkpt lat="42.90639" lon="0.10363">
        <ele>1511.2</ele>
        <time>2020-12-05T16:41:08.948Z</time>
      </trkpt>
      <trkpt lat="42.90639" lon="0.10363">
        <ele>1511.2</ele>
        <time>2020-12-05T16:41:09.947Z</time>
      </trkpt>
      <trkpt lat="42.90639" lon="0.10363">
        <ele>1511.2</ele>
        <time>2020-12-05T16:41:10.948Z</time>
      </trkpt>
      <trkpt lat="42.90639" lon="0.10363">
        <ele>1511.2</ele>
        <time>2020-12-05T16:41:11.949Z</time>
      </trkpt>
      <trkpt lat="42.90639" lon="0.10363">
        <ele>1511.2</ele>
        <time>2020-12-05T16:41:12.947Z</time>
      </trkpt>
      <trkpt lat="42.90639" lon="0.10363">
        <ele>1511.2</ele>
        <time>2020-12-05T16:41:13.948Z</time>
      </trkpt>
      <trkpt lat="42.90639" lon="0.10363">
        <ele>1511.2</ele>
        <time>2020-12-05T16:41:14.949Z</time>
      </trkpt>
      <trkpt lat="42.90635" lon="0.10386">
        <ele>1512.4</ele>
        <time>2020-12-05T16:41:15.948Z</time>
      </trkpt>
      <trkpt lat="42.90635" lon="0.10386">
        <ele>1512.4</ele>
        <time>2020-12-05T16:41:16.947Z</time>
      </trkpt>
      <trkpt lat="42.90635" lon="0.10386">
        <ele>1512.4</ele>
        <time>2020-12-05T16:41:17.947Z</time>
      </trkpt>
      <trkpt lat="42.90635" lon="0.10386">
        <ele>1512.4</ele>
        <time>2020-12-05T16:41:18.948Z</time>
      </trkpt>
      <trkpt lat="42.90635" lon="0.10386">
        <ele>1512.4</ele>
        <time>2020-12-05T16:41:19.948Z</time>
      </trkpt>
      <trkpt lat="42.90635" lon="0.10386">
        <ele>1512.4</ele>
        <time>2020-12-05T16:41:20.947Z</time>
      </trkpt>
      <trkpt lat="42.90633" lon="0.104">
        <ele>1513</ele>
        <time>2020-12-05T16:41:21.95Z</time>
      </trkpt>
      <trkpt lat="42.90633" lon="0.104">
        <ele>1513</ele>
        <time>2020-12-05T16:41:22.949Z</time>
      </trkpt>
      <trkpt lat="42.90633" lon="0.104">
        <ele>1513</ele>
        <time>2020-12-05T16:41:23.948Z</time>
      </trkpt>
      <trkpt lat="42.90633" lon="0.104">
        <ele>1513</ele>
        <time>2020-12-05T16:41:24.948Z</time>
      </trkpt>
      <trkpt lat="42.90633" lon="0.104">
        <ele>1513</ele>
        <time>2020-12-05T16:41:25.949Z</time>
      </trkpt>
      <trkpt lat="42.90631" lon="0.10413">
        <ele>1513.6</ele>
        <time>2020-12-05T16:41:26.949Z</time>
      </trkpt>
      <trkpt lat="42.90631" lon="0.10413">
        <ele>1513.6</ele>
        <time>2020-12-05T16:41:27.948Z</time>
      </trkpt>
      <trkpt lat="42.90631" lon="0.10413">
        <ele>1513.6</ele>
        <time>2020-12-05T16:41:28.948Z</time>
      </trkpt>
      <trkpt lat="42.90631" lon="0.10413">
        <ele>1513.6</ele>
        <time>2020-12-05T16:41:29.947Z</time>
      </trkpt>
      <trkpt lat="42.90631" lon="0.10413">
        <ele>1513.6</ele>
        <time>2020-12-05T16:41:30.948Z</time>
      </trkpt>
      <trkpt lat="42.90631" lon="0.10413">
        <ele>1513.6</ele>
        <time>2020-12-05T16:41:31.948Z</time>
      </trkpt>
      <trkpt lat="42.90631" lon="0.10413">
        <ele>1513.6</ele>
        <time>2020-12-05T16:41:32.95Z</time>
      </trkpt>
      <trkpt lat="42.90631" lon="0.10413">
        <ele>1513.6</ele>
        <time>2020-12-05T16:41:33.948Z</time>
      </trkpt>
      <trkpt lat="42.90631" lon="0.10413">
        <ele>1513.6</ele>
        <time>2020-12-05T16:41:34.948Z</time>
      </trkpt>
      <trkpt lat="42.9063" lon="0.10427">
        <ele>1514.6</ele>
        <time>2020-12-05T16:41:35.949Z</time>
      </trkpt>
      <trkpt lat="42.9063" lon="0.10427">
        <ele>1514.6</ele>
        <time>2020-12-05T16:41:36.947Z</time>
      </trkpt>
      <trkpt lat="42.9063" lon="0.10427">
        <ele>1514.6</ele>
        <time>2020-12-05T16:41:37.949Z</time>
      </trkpt>
      <trkpt lat="42.9063" lon="0.10427">
        <ele>1514.6</ele>
        <time>2020-12-05T16:41:38.947Z</time>
      </trkpt>
      <trkpt lat="42.90629" lon="0.1044">
        <ele>1515.4</ele>
        <time>2020-12-05T16:41:39.947Z</time>
      </trkpt>
      <trkpt lat="42.90629" lon="0.1044">
        <ele>1515.4</ele>
        <time>2020-12-05T16:41:40.947Z</time>
      </trkpt>
      <trkpt lat="42.90629" lon="0.1044">
        <ele>1515.4</ele>
        <time>2020-12-05T16:41:41.948Z</time>
      </trkpt>
      <trkpt lat="42.90629" lon="0.10444">
        <ele>1515.6</ele>
        <time>2020-12-05T16:41:42.947Z</time>
      </trkpt>
      <trkpt lat="42.90629" lon="0.10444">
        <ele>1515.6</ele>
        <time>2020-12-05T16:41:43.949Z</time>
      </trkpt>
      <trkpt lat="42.90629" lon="0.10444">
        <ele>1515.6</ele>
        <time>2020-12-05T16:41:44.948Z</time>
      </trkpt>
      <trkpt lat="42.90629" lon="0.10444">
        <ele>1515.6</ele>
        <time>2020-12-05T16:41:45.948Z</time>
      </trkpt>
      <trkpt lat="42.90629" lon="0.10444">
        <ele>1515.6</ele>
        <time>2020-12-05T16:41:46.949Z</time>
      </trkpt>
      <trkpt lat="42.90629" lon="0.10444">
        <ele>1515.6</ele>
        <time>2020-12-05T16:41:47.947Z</time>
      </trkpt>
      <trkpt lat="42.90629" lon="0.10444">
        <ele>1515.6</ele>
        <time>2020-12-05T16:41:48.947Z</time>
      </trkpt>
      <trkpt lat="42.90629" lon="0.10444">
        <ele>1515.6</ele>
        <time>2020-12-05T16:41:49.95Z</time>
      </trkpt>
      <trkpt lat="42.90629" lon="0.10444">
        <ele>1515.6</ele>
        <time>2020-12-05T16:41:50.949Z</time>
      </trkpt>
      <trkpt lat="42.90627" lon="0.10463">
        <ele>1516.8</ele>
        <time>2020-12-05T16:41:51.949Z</time>
      </trkpt>
      <trkpt lat="42.90627" lon="0.10463">
        <ele>1516.8</ele>
        <time>2020-12-05T16:41:52.948Z</time>
      </trkpt>
      <trkpt lat="42.90627" lon="0.10463">
        <ele>1516.8</ele>
        <time>2020-12-05T16:41:53.948Z</time>
      </trkpt>
      <trkpt lat="42.90627" lon="0.10463">
        <ele>1516.8</ele>
        <time>2020-12-05T16:41:54.948Z</time>
      </trkpt>
      <trkpt lat="42.90627" lon="0.10463">
        <ele>1516.8</ele>
        <time>2020-12-05T16:41:55.948Z</time>
      </trkpt>
      <trkpt lat="42.90627" lon="0.10463">
        <ele>1516.8</ele>
        <time>2020-12-05T16:41:56.947Z</time>
      </trkpt>
      <trkpt lat="42.90627" lon="0.10463">
        <ele>1516.8</ele>
        <time>2020-12-05T16:41:57.948Z</time>
      </trkpt>
      <trkpt lat="42.90627" lon="0.10463">
        <ele>1516.8</ele>
        <time>2020-12-05T16:41:58.95Z</time>
      </trkpt>
      <trkpt lat="42.90625" lon="0.10481">
        <ele>1518</ele>
        <time>2020-12-05T16:41:59.947Z</time>
      </trkpt>
      <trkpt lat="42.90625" lon="0.10481">
        <ele>1518</ele>
        <time>2020-12-05T16:42:00.949Z</time>
      </trkpt>
      <trkpt lat="42.90625" lon="0.10481">
        <ele>1518</ele>
        <time>2020-12-05T16:42:01.948Z</time>
      </trkpt>
      <trkpt lat="42.90625" lon="0.10481">
        <ele>1518</ele>
        <time>2020-12-05T16:42:02.949Z</time>
      </trkpt>
      <trkpt lat="42.90625" lon="0.10481">
        <ele>1518</ele>
        <time>2020-12-05T16:42:03.949Z</time>
      </trkpt>
      <trkpt lat="42.90625" lon="0.10481">
        <ele>1518</ele>
        <time>2020-12-05T16:42:04.948Z</time>
      </trkpt>
      <trkpt lat="42.90625" lon="0.10481">
        <ele>1518</ele>
        <time>2020-12-05T16:42:05.947Z</time>
      </trkpt>
      <trkpt lat="42.90625" lon="0.10481">
        <ele>1518</ele>
        <time>2020-12-05T16:42:06.949Z</time>
      </trkpt>
      <trkpt lat="42.90625" lon="0.105">
        <ele>1519.2</ele>
        <time>2020-12-05T16:42:07.948Z</time>
      </trkpt>
      <trkpt lat="42.90625" lon="0.105">
        <ele>1519.2</ele>
        <time>2020-12-05T16:42:08.949Z</time>
      </trkpt>
      <trkpt lat="42.90625" lon="0.105">
        <ele>1519.2</ele>
        <time>2020-12-05T16:42:09.947Z</time>
      </trkpt>
      <trkpt lat="42.90625" lon="0.105">
        <ele>1519.2</ele>
        <time>2020-12-05T16:42:10.948Z</time>
      </trkpt>
      <trkpt lat="42.90625" lon="0.105">
        <ele>1519.2</ele>
        <time>2020-12-05T16:42:11.949Z</time>
      </trkpt>
      <trkpt lat="42.90625" lon="0.105">
        <ele>1519.2</ele>
        <time>2020-12-05T16:42:12.949Z</time>
      </trkpt>
      <trkpt lat="42.90625" lon="0.10515">
        <ele>1520</ele>
        <time>2020-12-05T16:42:13.949Z</time>
      </trkpt>
      <trkpt lat="42.90625" lon="0.10519">
        <ele>1520.8</ele>
        <time>2020-12-05T16:42:14.949Z</time>
      </trkpt>
      <trkpt lat="42.90625" lon="0.10519">
        <ele>1520.8</ele>
        <time>2020-12-05T16:42:15.95Z</time>
      </trkpt>
      <trkpt lat="42.90625" lon="0.10519">
        <ele>1520.8</ele>
        <time>2020-12-05T16:42:16.948Z</time>
      </trkpt>
      <trkpt lat="42.90625" lon="0.10519">
        <ele>1520.8</ele>
        <time>2020-12-05T16:42:17.948Z</time>
      </trkpt>
      <trkpt lat="42.90625" lon="0.10519">
        <ele>1520.8</ele>
        <time>2020-12-05T16:42:18.947Z</time>
      </trkpt>
      <trkpt lat="42.90625" lon="0.10519">
        <ele>1520.8</ele>
        <time>2020-12-05T16:42:19.948Z</time>
      </trkpt>
      <trkpt lat="42.90625" lon="0.10519">
        <ele>1520.8</ele>
        <time>2020-12-05T16:42:20.949Z</time>
      </trkpt>
      <trkpt lat="42.90625" lon="0.10519">
        <ele>1520.8</ele>
        <time>2020-12-05T16:42:21.947Z</time>
      </trkpt>
      <trkpt lat="42.90625" lon="0.10519">
        <ele>1520.8</ele>
        <time>2020-12-05T16:42:22.948Z</time>
      </trkpt>
      <trkpt lat="42.90625" lon="0.10544">
        <ele>1522</ele>
        <time>2020-12-05T16:42:23.947Z</time>
      </trkpt>
      <trkpt lat="42.90625" lon="0.10544">
        <ele>1522</ele>
        <time>2020-12-05T16:42:24.948Z</time>
      </trkpt>
      <trkpt lat="42.90625" lon="0.10544">
        <ele>1522</ele>
        <time>2020-12-05T16:42:25.947Z</time>
      </trkpt>
      <trkpt lat="42.90625" lon="0.10544">
        <ele>1522</ele>
        <time>2020-12-05T16:42:26.949Z</time>
      </trkpt>
      <trkpt lat="42.90623" lon="0.10554">
        <ele>1522.8</ele>
        <time>2020-12-05T16:42:27.949Z</time>
      </trkpt>
      <trkpt lat="42.90623" lon="0.10554">
        <ele>1522.8</ele>
        <time>2020-12-05T16:42:28.949Z</time>
      </trkpt>
      <trkpt lat="42.90623" lon="0.10554">
        <ele>1522.8</ele>
        <time>2020-12-05T16:42:29.948Z</time>
      </trkpt>
      <trkpt lat="42.90623" lon="0.10554">
        <ele>1522.8</ele>
        <time>2020-12-05T16:42:30.949Z</time>
      </trkpt>
      <trkpt lat="42.90621" lon="0.10563">
        <ele>1523.4</ele>
        <time>2020-12-05T16:42:31.95Z</time>
      </trkpt>
      <trkpt lat="42.90621" lon="0.10563">
        <ele>1523.4</ele>
        <time>2020-12-05T16:42:32.948Z</time>
      </trkpt>
      <trkpt lat="42.90621" lon="0.10563">
        <ele>1523.4</ele>
        <time>2020-12-05T16:42:33.948Z</time>
      </trkpt>
      <trkpt lat="42.90621" lon="0.10563">
        <ele>1523.4</ele>
        <time>2020-12-05T16:42:34.949Z</time>
      </trkpt>
      <trkpt lat="42.90621" lon="0.10563">
        <ele>1523.4</ele>
        <time>2020-12-05T16:42:35.948Z</time>
      </trkpt>
      <trkpt lat="42.90621" lon="0.10563">
        <ele>1523.4</ele>
        <time>2020-12-05T16:42:36.95Z</time>
      </trkpt>
      <trkpt lat="42.90615" lon="0.1058">
        <ele>1524.4</ele>
        <time>2020-12-05T16:42:37.947Z</time>
      </trkpt>
      <trkpt lat="42.90615" lon="0.1058">
        <ele>1524.4</ele>
        <time>2020-12-05T16:42:38.949Z</time>
      </trkpt>
      <trkpt lat="42.90614" lon="0.10584">
        <ele>1524.6</ele>
        <time>2020-12-05T16:42:39.948Z</time>
      </trkpt>
      <trkpt lat="42.90614" lon="0.10584">
        <ele>1524.6</ele>
        <time>2020-12-05T16:42:40.948Z</time>
      </trkpt>
      <trkpt lat="42.90614" lon="0.10584">
        <ele>1524.6</ele>
        <time>2020-12-05T16:42:41.947Z</time>
      </trkpt>
      <trkpt lat="42.90614" lon="0.10584">
        <ele>1524.6</ele>
        <time>2020-12-05T16:42:42.947Z</time>
      </trkpt>
      <trkpt lat="42.90614" lon="0.10584">
        <ele>1524.6</ele>
        <time>2020-12-05T16:42:43.947Z</time>
      </trkpt>
      <trkpt lat="42.90614" lon="0.10584">
        <ele>1524.6</ele>
        <time>2020-12-05T16:42:44.947Z</time>
      </trkpt>
      <trkpt lat="42.90614" lon="0.10584">
        <ele>1524.6</ele>
        <time>2020-12-05T16:42:45.949Z</time>
      </trkpt>
      <trkpt lat="42.90614" lon="0.10584">
        <ele>1524.6</ele>
        <time>2020-12-05T16:42:46.947Z</time>
      </trkpt>
      <trkpt lat="42.90611" lon="0.10603">
        <ele>1525.4</ele>
        <time>2020-12-05T16:42:47.949Z</time>
      </trkpt>
      <trkpt lat="42.90611" lon="0.10603">
        <ele>1525.4</ele>
        <time>2020-12-05T16:42:48.948Z</time>
      </trkpt>
      <trkpt lat="42.90611" lon="0.10603">
        <ele>1525.4</ele>
        <time>2020-12-05T16:42:49.948Z</time>
      </trkpt>
      <trkpt lat="42.90611" lon="0.10603">
        <ele>1525.4</ele>
        <time>2020-12-05T16:42:50.948Z</time>
      </trkpt>
      <trkpt lat="42.90611" lon="0.10613">
        <ele>1526.2</ele>
        <time>2020-12-05T16:42:51.949Z</time>
      </trkpt>
      <trkpt lat="42.90611" lon="0.10617">
        <ele>1526.6</ele>
        <time>2020-12-05T16:42:52.947Z</time>
      </trkpt>
      <trkpt lat="42.90611" lon="0.10617">
        <ele>1526.6</ele>
        <time>2020-12-05T16:42:53.949Z</time>
      </trkpt>
      <trkpt lat="42.90611" lon="0.10617">
        <ele>1526.6</ele>
        <time>2020-12-05T16:42:54.948Z</time>
      </trkpt>
      <trkpt lat="42.90611" lon="0.10617">
        <ele>1526.6</ele>
        <time>2020-12-05T16:42:55.95Z</time>
      </trkpt>
      <trkpt lat="42.90611" lon="0.10617">
        <ele>1526.6</ele>
        <time>2020-12-05T16:42:56.947Z</time>
      </trkpt>
      <trkpt lat="42.90611" lon="0.10617">
        <ele>1526.6</ele>
        <time>2020-12-05T16:42:57.947Z</time>
      </trkpt>
      <trkpt lat="42.90611" lon="0.10617">
        <ele>1526.6</ele>
        <time>2020-12-05T16:42:58.948Z</time>
      </trkpt>
      <trkpt lat="42.90611" lon="0.10617">
        <ele>1526.6</ele>
        <time>2020-12-05T16:42:59.948Z</time>
      </trkpt>
      <trkpt lat="42.90611" lon="0.10617">
        <ele>1526.6</ele>
        <time>2020-12-05T16:43:00.948Z</time>
      </trkpt>
      <trkpt lat="42.90615" lon="0.10637">
        <ele>1527.8</ele>
        <time>2020-12-05T16:43:01.949Z</time>
      </trkpt>
      <trkpt lat="42.90615" lon="0.10637">
        <ele>1527.8</ele>
        <time>2020-12-05T16:43:02.947Z</time>
      </trkpt>
      <trkpt lat="42.90615" lon="0.10637">
        <ele>1527.8</ele>
        <time>2020-12-05T16:43:03.947Z</time>
      </trkpt>
      <trkpt lat="42.90615" lon="0.10637">
        <ele>1527.8</ele>
        <time>2020-12-05T16:43:04.95Z</time>
      </trkpt>
      <trkpt lat="42.90615" lon="0.10637">
        <ele>1527.8</ele>
        <time>2020-12-05T16:43:05.95Z</time>
      </trkpt>
      <trkpt lat="42.90615" lon="0.10637">
        <ele>1527.8</ele>
        <time>2020-12-05T16:43:06.947Z</time>
      </trkpt>
      <trkpt lat="42.90615" lon="0.10637">
        <ele>1527.8</ele>
        <time>2020-12-05T16:43:07.949Z</time>
      </trkpt>
      <trkpt lat="42.90618" lon="0.10654">
        <ele>1529.4</ele>
        <time>2020-12-05T16:43:08.948Z</time>
      </trkpt>
      <trkpt lat="42.90618" lon="0.10654">
        <ele>1529.4</ele>
        <time>2020-12-05T16:43:09.95Z</time>
      </trkpt>
      <trkpt lat="42.90618" lon="0.10654">
        <ele>1529.4</ele>
        <time>2020-12-05T16:43:10.948Z</time>
      </trkpt>
      <trkpt lat="42.90618" lon="0.10654">
        <ele>1529.4</ele>
        <time>2020-12-05T16:43:11.947Z</time>
      </trkpt>
      <trkpt lat="42.9062" lon="0.10662">
        <ele>1530</ele>
        <time>2020-12-05T16:43:12.949Z</time>
      </trkpt>
      <trkpt lat="42.90621" lon="0.10666">
        <ele>1530.4</ele>
        <time>2020-12-05T16:43:13.951Z</time>
      </trkpt>
      <trkpt lat="42.90621" lon="0.10666">
        <ele>1530.4</ele>
        <time>2020-12-05T16:43:14.948Z</time>
      </trkpt>
      <trkpt lat="42.90621" lon="0.10666">
        <ele>1530.4</ele>
        <time>2020-12-05T16:43:15.948Z</time>
      </trkpt>
      <trkpt lat="42.90621" lon="0.10666">
        <ele>1530.4</ele>
        <time>2020-12-05T16:43:16.948Z</time>
      </trkpt>
      <trkpt lat="42.90621" lon="0.10666">
        <ele>1530.4</ele>
        <time>2020-12-05T16:43:17.948Z</time>
      </trkpt>
      <trkpt lat="42.90621" lon="0.10666">
        <ele>1530.4</ele>
        <time>2020-12-05T16:43:18.947Z</time>
      </trkpt>
      <trkpt lat="42.90621" lon="0.10666">
        <ele>1530.4</ele>
        <time>2020-12-05T16:43:19.947Z</time>
      </trkpt>
      <trkpt lat="42.90625" lon="0.10682">
        <ele>1531.8</ele>
        <time>2020-12-05T16:43:20.949Z</time>
      </trkpt>
      <trkpt lat="42.90625" lon="0.10682">
        <ele>1531.8</ele>
        <time>2020-12-05T16:43:21.948Z</time>
      </trkpt>
      <trkpt lat="42.90625" lon="0.10682">
        <ele>1531.8</ele>
        <time>2020-12-05T16:43:22.948Z</time>
      </trkpt>
      <trkpt lat="42.90625" lon="0.10682">
        <ele>1531.8</ele>
        <time>2020-12-05T16:43:23.948Z</time>
      </trkpt>
      <trkpt lat="42.90625" lon="0.10682">
        <ele>1531.8</ele>
        <time>2020-12-05T16:43:24.949Z</time>
      </trkpt>
      <trkpt lat="42.90626" lon="0.10695">
        <ele>1532.6</ele>
        <time>2020-12-05T16:43:25.95Z</time>
      </trkpt>
      <trkpt lat="42.90626" lon="0.10695">
        <ele>1532.6</ele>
        <time>2020-12-05T16:43:26.948Z</time>
      </trkpt>
      <trkpt lat="42.90627" lon="0.10699">
        <ele>1532.8</ele>
        <time>2020-12-05T16:43:27.947Z</time>
      </trkpt>
      <trkpt lat="42.90627" lon="0.10699">
        <ele>1532.8</ele>
        <time>2020-12-05T16:43:28.949Z</time>
      </trkpt>
      <trkpt lat="42.90627" lon="0.10699">
        <ele>1532.8</ele>
        <time>2020-12-05T16:43:29.949Z</time>
      </trkpt>
      <trkpt lat="42.90627" lon="0.10699">
        <ele>1532.8</ele>
        <time>2020-12-05T16:43:30.947Z</time>
      </trkpt>
      <trkpt lat="42.90627" lon="0.10699">
        <ele>1532.8</ele>
        <time>2020-12-05T16:43:31.947Z</time>
      </trkpt>
      <trkpt lat="42.90627" lon="0.10699">
        <ele>1532.8</ele>
        <time>2020-12-05T16:43:32.95Z</time>
      </trkpt>
      <trkpt lat="42.90627" lon="0.10699">
        <ele>1532.8</ele>
        <time>2020-12-05T16:43:33.948Z</time>
      </trkpt>
      <trkpt lat="42.90627" lon="0.10699">
        <ele>1532.8</ele>
        <time>2020-12-05T16:43:34.949Z</time>
      </trkpt>
      <trkpt lat="42.90629" lon="0.10717">
        <ele>1534.2</ele>
        <time>2020-12-05T16:43:35.948Z</time>
      </trkpt>
      <trkpt lat="42.90629" lon="0.10717">
        <ele>1534.2</ele>
        <time>2020-12-05T16:43:36.948Z</time>
      </trkpt>
      <trkpt lat="42.90629" lon="0.10717">
        <ele>1534.2</ele>
        <time>2020-12-05T16:43:37.948Z</time>
      </trkpt>
      <trkpt lat="42.90629" lon="0.10717">
        <ele>1534.2</ele>
        <time>2020-12-05T16:43:38.948Z</time>
      </trkpt>
      <trkpt lat="42.90629" lon="0.10726">
        <ele>1534.4</ele>
        <time>2020-12-05T16:43:39.947Z</time>
      </trkpt>
      <trkpt lat="42.90629" lon="0.10726">
        <ele>1534.4</ele>
        <time>2020-12-05T16:43:40.948Z</time>
      </trkpt>
      <trkpt lat="42.90629" lon="0.10726">
        <ele>1534.4</ele>
        <time>2020-12-05T16:43:41.947Z</time>
      </trkpt>
      <trkpt lat="42.90629" lon="0.10726">
        <ele>1534.4</ele>
        <time>2020-12-05T16:43:42.948Z</time>
      </trkpt>
      <trkpt lat="42.90629" lon="0.10736">
        <ele>1535.2</ele>
        <time>2020-12-05T16:43:43.948Z</time>
      </trkpt>
      <trkpt lat="42.90629" lon="0.10736">
        <ele>1535.2</ele>
        <time>2020-12-05T16:43:44.948Z</time>
      </trkpt>
      <trkpt lat="42.90629" lon="0.10736">
        <ele>1535.2</ele>
        <time>2020-12-05T16:43:45.948Z</time>
      </trkpt>
      <trkpt lat="42.90629" lon="0.10736">
        <ele>1535.2</ele>
        <time>2020-12-05T16:43:46.948Z</time>
      </trkpt>
      <trkpt lat="42.90629" lon="0.10736">
        <ele>1535.2</ele>
        <time>2020-12-05T16:43:47.948Z</time>
      </trkpt>
      <trkpt lat="42.90629" lon="0.10736">
        <ele>1535.2</ele>
        <time>2020-12-05T16:43:48.949Z</time>
      </trkpt>
      <trkpt lat="42.90629" lon="0.10736">
        <ele>1535.2</ele>
        <time>2020-12-05T16:43:49.948Z</time>
      </trkpt>
      <trkpt lat="42.90629" lon="0.10736">
        <ele>1535.2</ele>
        <time>2020-12-05T16:43:50.948Z</time>
      </trkpt>
      <trkpt lat="42.90629" lon="0.10736">
        <ele>1535.2</ele>
        <time>2020-12-05T16:43:51.949Z</time>
      </trkpt>
      <trkpt lat="42.90629" lon="0.10736">
        <ele>1535.2</ele>
        <time>2020-12-05T16:43:52.949Z</time>
      </trkpt>
      <trkpt lat="42.9063" lon="0.10761">
        <ele>1536.2</ele>
        <time>2020-12-05T16:43:53.948Z</time>
      </trkpt>
      <trkpt lat="42.9063" lon="0.10761">
        <ele>1536.2</ele>
        <time>2020-12-05T16:43:54.949Z</time>
      </trkpt>
      <trkpt lat="42.9063" lon="0.10761">
        <ele>1536.2</ele>
        <time>2020-12-05T16:43:55.948Z</time>
      </trkpt>
      <trkpt lat="42.9063" lon="0.10761">
        <ele>1536.2</ele>
        <time>2020-12-05T16:43:56.948Z</time>
      </trkpt>
      <trkpt lat="42.9063" lon="0.10761">
        <ele>1536.2</ele>
        <time>2020-12-05T16:43:57.948Z</time>
      </trkpt>
      <trkpt lat="42.9063" lon="0.10761">
        <ele>1536.2</ele>
        <time>2020-12-05T16:43:58.947Z</time>
      </trkpt>
      <trkpt lat="42.9063" lon="0.10761">
        <ele>1536.2</ele>
        <time>2020-12-05T16:43:59.949Z</time>
      </trkpt>
      <trkpt lat="42.9063" lon="0.1078">
        <ele>1537.6</ele>
        <time>2020-12-05T16:44:00.948Z</time>
      </trkpt>
      <trkpt lat="42.9063" lon="0.1078">
        <ele>1537.6</ele>
        <time>2020-12-05T16:44:01.948Z</time>
      </trkpt>
      <trkpt lat="42.9063" lon="0.1078">
        <ele>1537.6</ele>
        <time>2020-12-05T16:44:02.948Z</time>
      </trkpt>
      <trkpt lat="42.9063" lon="0.1078">
        <ele>1537.6</ele>
        <time>2020-12-05T16:44:03.95Z</time>
      </trkpt>
      <trkpt lat="42.9063" lon="0.1078">
        <ele>1537.6</ele>
        <time>2020-12-05T16:44:04.948Z</time>
      </trkpt>
      <trkpt lat="42.9063" lon="0.1078">
        <ele>1537.6</ele>
        <time>2020-12-05T16:44:05.947Z</time>
      </trkpt>
      <trkpt lat="42.9063" lon="0.10794">
        <ele>1538.6</ele>
        <time>2020-12-05T16:44:06.947Z</time>
      </trkpt>
      <trkpt lat="42.9063" lon="0.10794">
        <ele>1538.6</ele>
        <time>2020-12-05T16:44:07.947Z</time>
      </trkpt>
      <trkpt lat="42.9063" lon="0.10794">
        <ele>1538.6</ele>
        <time>2020-12-05T16:44:08.947Z</time>
      </trkpt>
      <trkpt lat="42.9063" lon="0.10794">
        <ele>1538.6</ele>
        <time>2020-12-05T16:44:09.948Z</time>
      </trkpt>
      <trkpt lat="42.9063" lon="0.10794">
        <ele>1538.6</ele>
        <time>2020-12-05T16:44:10.947Z</time>
      </trkpt>
      <trkpt lat="42.9063" lon="0.10794">
        <ele>1538.6</ele>
        <time>2020-12-05T16:44:11.949Z</time>
      </trkpt>
      <trkpt lat="42.9063" lon="0.10794">
        <ele>1538.6</ele>
        <time>2020-12-05T16:44:12.948Z</time>
      </trkpt>
      <trkpt lat="42.90631" lon="0.10812">
        <ele>1539.8</ele>
        <time>2020-12-05T16:44:13.95Z</time>
      </trkpt>
      <trkpt lat="42.90631" lon="0.10812">
        <ele>1539.8</ele>
        <time>2020-12-05T16:44:14.947Z</time>
      </trkpt>
      <trkpt lat="42.90631" lon="0.10812">
        <ele>1539.8</ele>
        <time>2020-12-05T16:44:15.947Z</time>
      </trkpt>
      <trkpt lat="42.90631" lon="0.10812">
        <ele>1539.8</ele>
        <time>2020-12-05T16:44:16.949Z</time>
      </trkpt>
      <trkpt lat="42.90631" lon="0.10812">
        <ele>1539.8</ele>
        <time>2020-12-05T16:44:17.951Z</time>
      </trkpt>
      <trkpt lat="42.90631" lon="0.10812">
        <ele>1539.8</ele>
        <time>2020-12-05T16:44:18.947Z</time>
      </trkpt>
      <trkpt lat="42.90631" lon="0.10824">
        <ele>1540.8</ele>
        <time>2020-12-05T16:44:19.947Z</time>
      </trkpt>
      <trkpt lat="42.90631" lon="0.10824">
        <ele>1540.8</ele>
        <time>2020-12-05T16:44:20.948Z</time>
      </trkpt>
      <trkpt lat="42.90631" lon="0.10824">
        <ele>1540.8</ele>
        <time>2020-12-05T16:44:21.95Z</time>
      </trkpt>
      <trkpt lat="42.90631" lon="0.10824">
        <ele>1540.8</ele>
        <time>2020-12-05T16:44:22.948Z</time>
      </trkpt>
      <trkpt lat="42.90631" lon="0.10824">
        <ele>1540.8</ele>
        <time>2020-12-05T16:44:23.947Z</time>
      </trkpt>
      <trkpt lat="42.90631" lon="0.10824">
        <ele>1540.8</ele>
        <time>2020-12-05T16:44:24.947Z</time>
      </trkpt>
      <trkpt lat="42.90631" lon="0.10824">
        <ele>1540.8</ele>
        <time>2020-12-05T16:44:25.95Z</time>
      </trkpt>
      <trkpt lat="42.90631" lon="0.10842">
        <ele>1541.8</ele>
        <time>2020-12-05T16:44:26.948Z</time>
      </trkpt>
      <trkpt lat="42.90631" lon="0.10842">
        <ele>1541.8</ele>
        <time>2020-12-05T16:44:27.948Z</time>
      </trkpt>
      <trkpt lat="42.90631" lon="0.10842">
        <ele>1541.8</ele>
        <time>2020-12-05T16:44:28.949Z</time>
      </trkpt>
      <trkpt lat="42.90631" lon="0.10842">
        <ele>1541.8</ele>
        <time>2020-12-05T16:44:29.949Z</time>
      </trkpt>
      <trkpt lat="42.90631" lon="0.10842">
        <ele>1541.8</ele>
        <time>2020-12-05T16:44:30.95Z</time>
      </trkpt>
      <trkpt lat="42.90631" lon="0.10842">
        <ele>1541.8</ele>
        <time>2020-12-05T16:44:31.947Z</time>
      </trkpt>
      <trkpt lat="42.90631" lon="0.10842">
        <ele>1541.8</ele>
        <time>2020-12-05T16:44:32.947Z</time>
      </trkpt>
      <trkpt lat="42.90633" lon="0.10859">
        <ele>1543</ele>
        <time>2020-12-05T16:44:33.947Z</time>
      </trkpt>
      <trkpt lat="42.90633" lon="0.10859">
        <ele>1543</ele>
        <time>2020-12-05T16:44:34.947Z</time>
      </trkpt>
      <trkpt lat="42.90633" lon="0.10859">
        <ele>1543</ele>
        <time>2020-12-05T16:44:35.948Z</time>
      </trkpt>
      <trkpt lat="42.90633" lon="0.10859">
        <ele>1543</ele>
        <time>2020-12-05T16:44:36.949Z</time>
      </trkpt>
      <trkpt lat="42.90633" lon="0.10859">
        <ele>1543</ele>
        <time>2020-12-05T16:44:37.947Z</time>
      </trkpt>
      <trkpt lat="42.90633" lon="0.10859">
        <ele>1543</ele>
        <time>2020-12-05T16:44:38.952Z</time>
      </trkpt>
      <trkpt lat="42.90633" lon="0.10859">
        <ele>1543</ele>
        <time>2020-12-05T16:44:39.947Z</time>
      </trkpt>
      <trkpt lat="42.90635" lon="0.10876">
        <ele>1544</ele>
        <time>2020-12-05T16:44:40.948Z</time>
      </trkpt>
      <trkpt lat="42.90635" lon="0.10876">
        <ele>1544</ele>
        <time>2020-12-05T16:44:41.948Z</time>
      </trkpt>
      <trkpt lat="42.90635" lon="0.10876">
        <ele>1544</ele>
        <time>2020-12-05T16:44:42.948Z</time>
      </trkpt>
      <trkpt lat="42.90635" lon="0.10876">
        <ele>1544</ele>
        <time>2020-12-05T16:44:43.948Z</time>
      </trkpt>
      <trkpt lat="42.90635" lon="0.10876">
        <ele>1544</ele>
        <time>2020-12-05T16:44:44.948Z</time>
      </trkpt>
      <trkpt lat="42.90635" lon="0.10876">
        <ele>1544</ele>
        <time>2020-12-05T16:44:45.947Z</time>
      </trkpt>
      <trkpt lat="42.90637" lon="0.10889">
        <ele>1545</ele>
        <time>2020-12-05T16:44:46.949Z</time>
      </trkpt>
      <trkpt lat="42.90637" lon="0.10889">
        <ele>1545</ele>
        <time>2020-12-05T16:44:47.95Z</time>
      </trkpt>
      <trkpt lat="42.90638" lon="0.10893">
        <ele>1545.4</ele>
        <time>2020-12-05T16:44:48.947Z</time>
      </trkpt>
      <trkpt lat="42.90638" lon="0.10893">
        <ele>1545.4</ele>
        <time>2020-12-05T16:44:49.947Z</time>
      </trkpt>
      <trkpt lat="42.90638" lon="0.10893">
        <ele>1545.4</ele>
        <time>2020-12-05T16:44:50.949Z</time>
      </trkpt>
      <trkpt lat="42.90638" lon="0.10893">
        <ele>1545.4</ele>
        <time>2020-12-05T16:44:51.947Z</time>
      </trkpt>
      <trkpt lat="42.90638" lon="0.10893">
        <ele>1545.4</ele>
        <time>2020-12-05T16:44:52.948Z</time>
      </trkpt>
      <trkpt lat="42.90638" lon="0.10893">
        <ele>1545.4</ele>
        <time>2020-12-05T16:44:53.948Z</time>
      </trkpt>
      <trkpt lat="42.90638" lon="0.10893">
        <ele>1545.4</ele>
        <time>2020-12-05T16:44:54.947Z</time>
      </trkpt>
      <trkpt lat="42.90638" lon="0.10893">
        <ele>1545.4</ele>
        <time>2020-12-05T16:44:55.948Z</time>
      </trkpt>
      <trkpt lat="42.90639" lon="0.10909">
        <ele>1547</ele>
        <time>2020-12-05T16:44:56.948Z</time>
      </trkpt>
      <trkpt lat="42.90639" lon="0.10909">
        <ele>1547</ele>
        <time>2020-12-05T16:44:57.947Z</time>
      </trkpt>
      <trkpt lat="42.90639" lon="0.10909">
        <ele>1547</ele>
        <time>2020-12-05T16:44:58.949Z</time>
      </trkpt>
      <trkpt lat="42.90639" lon="0.10909">
        <ele>1547</ele>
        <time>2020-12-05T16:44:59.949Z</time>
      </trkpt>
      <trkpt lat="42.90639" lon="0.10909">
        <ele>1547</ele>
        <time>2020-12-05T16:45:00.948Z</time>
      </trkpt>
      <trkpt lat="42.90639" lon="0.10909">
        <ele>1547</ele>
        <time>2020-12-05T16:45:01.948Z</time>
      </trkpt>
      <trkpt lat="42.90641" lon="0.10921">
        <ele>1548.2</ele>
        <time>2020-12-05T16:45:02.948Z</time>
      </trkpt>
      <trkpt lat="42.90641" lon="0.10921">
        <ele>1548.2</ele>
        <time>2020-12-05T16:45:03.95Z</time>
      </trkpt>
      <trkpt lat="42.90641" lon="0.10921">
        <ele>1548.2</ele>
        <time>2020-12-05T16:45:04.951Z</time>
      </trkpt>
      <trkpt lat="42.90641" lon="0.10921">
        <ele>1548.2</ele>
        <time>2020-12-05T16:45:05.949Z</time>
      </trkpt>
      <trkpt lat="42.90641" lon="0.10921">
        <ele>1548.2</ele>
        <time>2020-12-05T16:45:06.947Z</time>
      </trkpt>
      <trkpt lat="42.90641" lon="0.10921">
        <ele>1548.2</ele>
        <time>2020-12-05T16:45:07.947Z</time>
      </trkpt>
      <trkpt lat="42.90643" lon="0.10933">
        <ele>1549.2</ele>
        <time>2020-12-05T16:45:08.949Z</time>
      </trkpt>
      <trkpt lat="42.90643" lon="0.10933">
        <ele>1549.2</ele>
        <time>2020-12-05T16:45:09.95Z</time>
      </trkpt>
      <trkpt lat="42.90643" lon="0.10933">
        <ele>1549.2</ele>
        <time>2020-12-05T16:45:10.947Z</time>
      </trkpt>
      <trkpt lat="42.90643" lon="0.10933">
        <ele>1549.2</ele>
        <time>2020-12-05T16:45:11.95Z</time>
      </trkpt>
      <trkpt lat="42.90643" lon="0.10933">
        <ele>1549.2</ele>
        <time>2020-12-05T16:45:12.948Z</time>
      </trkpt>
      <trkpt lat="42.90643" lon="0.10933">
        <ele>1549.2</ele>
        <time>2020-12-05T16:45:13.948Z</time>
      </trkpt>
      <trkpt lat="42.90643" lon="0.10933">
        <ele>1549.2</ele>
        <time>2020-12-05T16:45:14.947Z</time>
      </trkpt>
      <trkpt lat="42.90645" lon="0.10945">
        <ele>1550.4</ele>
        <time>2020-12-05T16:45:15.948Z</time>
      </trkpt>
      <trkpt lat="42.90645" lon="0.10945">
        <ele>1550.4</ele>
        <time>2020-12-05T16:45:16.947Z</time>
      </trkpt>
      <trkpt lat="42.90645" lon="0.10945">
        <ele>1550.4</ele>
        <time>2020-12-05T16:45:17.947Z</time>
      </trkpt>
      <trkpt lat="42.90645" lon="0.10945">
        <ele>1550.4</ele>
        <time>2020-12-05T16:45:18.948Z</time>
      </trkpt>
      <trkpt lat="42.90645" lon="0.10945">
        <ele>1550.4</ele>
        <time>2020-12-05T16:45:19.947Z</time>
      </trkpt>
      <trkpt lat="42.90645" lon="0.10945">
        <ele>1550.4</ele>
        <time>2020-12-05T16:45:20.948Z</time>
      </trkpt>
      <trkpt lat="42.90645" lon="0.10945">
        <ele>1550.4</ele>
        <time>2020-12-05T16:45:21.948Z</time>
      </trkpt>
      <trkpt lat="42.90645" lon="0.10945">
        <ele>1550.4</ele>
        <time>2020-12-05T16:45:22.948Z</time>
      </trkpt>
      <trkpt lat="42.90645" lon="0.10945">
        <ele>1550.4</ele>
        <time>2020-12-05T16:45:23.95Z</time>
      </trkpt>
      <trkpt lat="42.90647" lon="0.10959">
        <ele>1551.4</ele>
        <time>2020-12-05T16:45:24.947Z</time>
      </trkpt>
      <trkpt lat="42.90647" lon="0.10959">
        <ele>1551.4</ele>
        <time>2020-12-05T16:45:25.948Z</time>
      </trkpt>
      <trkpt lat="42.90647" lon="0.10959">
        <ele>1551.4</ele>
        <time>2020-12-05T16:45:26.95Z</time>
      </trkpt>
      <trkpt lat="42.90647" lon="0.10963">
        <ele>1551.6</ele>
        <time>2020-12-05T16:45:27.947Z</time>
      </trkpt>
      <trkpt lat="42.90647" lon="0.10963">
        <ele>1551.6</ele>
        <time>2020-12-05T16:45:28.948Z</time>
      </trkpt>
      <trkpt lat="42.90647" lon="0.10963">
        <ele>1551.6</ele>
        <time>2020-12-05T16:45:29.947Z</time>
      </trkpt>
      <trkpt lat="42.90647" lon="0.10963">
        <ele>1551.6</ele>
        <time>2020-12-05T16:45:30.948Z</time>
      </trkpt>
      <trkpt lat="42.90647" lon="0.10963">
        <ele>1551.6</ele>
        <time>2020-12-05T16:45:31.947Z</time>
      </trkpt>
      <trkpt lat="42.90647" lon="0.10963">
        <ele>1551.6</ele>
        <time>2020-12-05T16:45:32.949Z</time>
      </trkpt>
      <trkpt lat="42.90647" lon="0.10963">
        <ele>1551.6</ele>
        <time>2020-12-05T16:45:33.949Z</time>
      </trkpt>
      <trkpt lat="42.90647" lon="0.10963">
        <ele>1551.6</ele>
        <time>2020-12-05T16:45:34.948Z</time>
      </trkpt>
      <trkpt lat="42.9065" lon="0.10976">
        <ele>1552.4</ele>
        <time>2020-12-05T16:45:35.948Z</time>
      </trkpt>
      <trkpt lat="42.9065" lon="0.10976">
        <ele>1552.4</ele>
        <time>2020-12-05T16:45:36.947Z</time>
      </trkpt>
      <trkpt lat="42.9065" lon="0.10976">
        <ele>1552.4</ele>
        <time>2020-12-05T16:45:37.95Z</time>
      </trkpt>
      <trkpt lat="42.9065" lon="0.10976">
        <ele>1552.4</ele>
        <time>2020-12-05T16:45:38.949Z</time>
      </trkpt>
      <trkpt lat="42.9065" lon="0.10976">
        <ele>1552.4</ele>
        <time>2020-12-05T16:45:39.949Z</time>
      </trkpt>
      <trkpt lat="42.9065" lon="0.10976">
        <ele>1552.4</ele>
        <time>2020-12-05T16:45:40.948Z</time>
      </trkpt>
      <trkpt lat="42.9065" lon="0.10976">
        <ele>1552.4</ele>
        <time>2020-12-05T16:45:41.949Z</time>
      </trkpt>
      <trkpt lat="42.9065" lon="0.10976">
        <ele>1552.4</ele>
        <time>2020-12-05T16:45:42.947Z</time>
      </trkpt>
      <trkpt lat="42.9065" lon="0.10976">
        <ele>1552.4</ele>
        <time>2020-12-05T16:45:43.95Z</time>
      </trkpt>
      <trkpt lat="42.90654" lon="0.10992">
        <ele>1553.6</ele>
        <time>2020-12-05T16:45:44.949Z</time>
      </trkpt>
      <trkpt lat="42.90654" lon="0.10992">
        <ele>1553.6</ele>
        <time>2020-12-05T16:45:45.949Z</time>
      </trkpt>
      <trkpt lat="42.90654" lon="0.10992">
        <ele>1553.6</ele>
        <time>2020-12-05T16:45:46.948Z</time>
      </trkpt>
      <trkpt lat="42.90654" lon="0.10992">
        <ele>1553.6</ele>
        <time>2020-12-05T16:45:47.948Z</time>
      </trkpt>
      <trkpt lat="42.90656" lon="0.11">
        <ele>1554.2</ele>
        <time>2020-12-05T16:45:48.95Z</time>
      </trkpt>
      <trkpt lat="42.90656" lon="0.11">
        <ele>1554.2</ele>
        <time>2020-12-05T16:45:49.948Z</time>
      </trkpt>
      <trkpt lat="42.90656" lon="0.11">
        <ele>1554.2</ele>
        <time>2020-12-05T16:45:50.95Z</time>
      </trkpt>
      <trkpt lat="42.90656" lon="0.11">
        <ele>1554.2</ele>
        <time>2020-12-05T16:45:51.947Z</time>
      </trkpt>
      <trkpt lat="42.90656" lon="0.11">
        <ele>1554.2</ele>
        <time>2020-12-05T16:45:52.947Z</time>
      </trkpt>
      <trkpt lat="42.90658" lon="0.11007">
        <ele>1554.8</ele>
        <time>2020-12-05T16:45:53.948Z</time>
      </trkpt>
      <trkpt lat="42.90658" lon="0.11007">
        <ele>1554.8</ele>
        <time>2020-12-05T16:45:54.949Z</time>
      </trkpt>
      <trkpt lat="42.90658" lon="0.11007">
        <ele>1554.8</ele>
        <time>2020-12-05T16:45:55.947Z</time>
      </trkpt>
      <trkpt lat="42.90658" lon="0.11007">
        <ele>1554.8</ele>
        <time>2020-12-05T16:45:56.949Z</time>
      </trkpt>
      <trkpt lat="42.90658" lon="0.11007">
        <ele>1554.8</ele>
        <time>2020-12-05T16:45:57.948Z</time>
      </trkpt>
      <trkpt lat="42.90658" lon="0.11007">
        <ele>1554.8</ele>
        <time>2020-12-05T16:45:58.949Z</time>
      </trkpt>
      <trkpt lat="42.90658" lon="0.11007">
        <ele>1554.8</ele>
        <time>2020-12-05T16:45:59.947Z</time>
      </trkpt>
      <trkpt lat="42.90658" lon="0.11007">
        <ele>1554.8</ele>
        <time>2020-12-05T16:46:00.949Z</time>
      </trkpt>
      <trkpt lat="42.90658" lon="0.11007">
        <ele>1554.8</ele>
        <time>2020-12-05T16:46:01.949Z</time>
      </trkpt>
      <trkpt lat="42.90668" lon="0.11022">
        <ele>1556</ele>
        <time>2020-12-05T16:46:02.95Z</time>
      </trkpt>
      <trkpt lat="42.90668" lon="0.11022">
        <ele>1556</ele>
        <time>2020-12-05T16:46:03.948Z</time>
      </trkpt>
      <trkpt lat="42.90668" lon="0.11022">
        <ele>1556</ele>
        <time>2020-12-05T16:46:04.948Z</time>
      </trkpt>
      <trkpt lat="42.90668" lon="0.11022">
        <ele>1556</ele>
        <time>2020-12-05T16:46:05.949Z</time>
      </trkpt>
      <trkpt lat="42.90668" lon="0.11022">
        <ele>1556</ele>
        <time>2020-12-05T16:46:06.947Z</time>
      </trkpt>
      <trkpt lat="42.90671" lon="0.1103">
        <ele>1557.4</ele>
        <time>2020-12-05T16:46:07.95Z</time>
      </trkpt>
      <trkpt lat="42.90671" lon="0.1103">
        <ele>1557.4</ele>
        <time>2020-12-05T16:46:08.948Z</time>
      </trkpt>
      <trkpt lat="42.90671" lon="0.1103">
        <ele>1557.4</ele>
        <time>2020-12-05T16:46:09.948Z</time>
      </trkpt>
      <trkpt lat="42.90671" lon="0.1103">
        <ele>1557.4</ele>
        <time>2020-12-05T16:46:10.947Z</time>
      </trkpt>
      <trkpt lat="42.90671" lon="0.1103">
        <ele>1557.4</ele>
        <time>2020-12-05T16:46:11.949Z</time>
      </trkpt>
      <trkpt lat="42.90671" lon="0.1103">
        <ele>1557.4</ele>
        <time>2020-12-05T16:46:12.948Z</time>
      </trkpt>
      <trkpt lat="42.90671" lon="0.1103">
        <ele>1557.4</ele>
        <time>2020-12-05T16:46:13.949Z</time>
      </trkpt>
      <trkpt lat="42.90671" lon="0.1103">
        <ele>1557.4</ele>
        <time>2020-12-05T16:46:14.947Z</time>
      </trkpt>
      <trkpt lat="42.90671" lon="0.1103">
        <ele>1557.4</ele>
        <time>2020-12-05T16:46:15.95Z</time>
      </trkpt>
      <trkpt lat="42.90677" lon="0.11042">
        <ele>1558.4</ele>
        <time>2020-12-05T16:46:16.948Z</time>
      </trkpt>
      <trkpt lat="42.90677" lon="0.11042">
        <ele>1558.4</ele>
        <time>2020-12-05T16:46:17.948Z</time>
      </trkpt>
      <trkpt lat="42.90677" lon="0.11042">
        <ele>1558.4</ele>
        <time>2020-12-05T16:46:18.949Z</time>
      </trkpt>
      <trkpt lat="42.90677" lon="0.11042">
        <ele>1558.4</ele>
        <time>2020-12-05T16:46:19.949Z</time>
      </trkpt>
      <trkpt lat="42.9068" lon="0.1105">
        <ele>1558.8</ele>
        <time>2020-12-05T16:46:20.948Z</time>
      </trkpt>
      <trkpt lat="42.9068" lon="0.1105">
        <ele>1558.8</ele>
        <time>2020-12-05T16:46:21.947Z</time>
      </trkpt>
      <trkpt lat="42.9068" lon="0.1105">
        <ele>1558.8</ele>
        <time>2020-12-05T16:46:22.947Z</time>
      </trkpt>
      <trkpt lat="42.9068" lon="0.1105">
        <ele>1558.8</ele>
        <time>2020-12-05T16:46:23.948Z</time>
      </trkpt>
      <trkpt lat="42.9068" lon="0.1105">
        <ele>1558.8</ele>
        <time>2020-12-05T16:46:24.948Z</time>
      </trkpt>
      <trkpt lat="42.9068" lon="0.1105">
        <ele>1558.8</ele>
        <time>2020-12-05T16:46:25.948Z</time>
      </trkpt>
      <trkpt lat="42.90684" lon="0.11062">
        <ele>1559.6</ele>
        <time>2020-12-05T16:46:26.947Z</time>
      </trkpt>
      <trkpt lat="42.90684" lon="0.11062">
        <ele>1559.6</ele>
        <time>2020-12-05T16:46:27.947Z</time>
      </trkpt>
      <trkpt lat="42.90684" lon="0.11062">
        <ele>1559.6</ele>
        <time>2020-12-05T16:46:28.951Z</time>
      </trkpt>
      <trkpt lat="42.90684" lon="0.11062">
        <ele>1559.6</ele>
        <time>2020-12-05T16:46:29.947Z</time>
      </trkpt>
      <trkpt lat="42.90687" lon="0.1107">
        <ele>1560.4</ele>
        <time>2020-12-05T16:46:30.948Z</time>
      </trkpt>
      <trkpt lat="42.90687" lon="0.1107">
        <ele>1560.4</ele>
        <time>2020-12-05T16:46:31.948Z</time>
      </trkpt>
      <trkpt lat="42.90687" lon="0.1107">
        <ele>1560.4</ele>
        <time>2020-12-05T16:46:32.948Z</time>
      </trkpt>
      <trkpt lat="42.90687" lon="0.1107">
        <ele>1560.4</ele>
        <time>2020-12-05T16:46:33.948Z</time>
      </trkpt>
      <trkpt lat="42.90687" lon="0.1107">
        <ele>1560.4</ele>
        <time>2020-12-05T16:46:34.947Z</time>
      </trkpt>
      <trkpt lat="42.90687" lon="0.1107">
        <ele>1560.4</ele>
        <time>2020-12-05T16:46:35.949Z</time>
      </trkpt>
      <trkpt lat="42.90687" lon="0.1107">
        <ele>1560.4</ele>
        <time>2020-12-05T16:46:36.947Z</time>
      </trkpt>
      <trkpt lat="42.90687" lon="0.1107">
        <ele>1560.4</ele>
        <time>2020-12-05T16:46:37.948Z</time>
      </trkpt>
      <trkpt lat="42.9069" lon="0.11083">
        <ele>1560.8</ele>
        <time>2020-12-05T16:46:38.948Z</time>
      </trkpt>
      <trkpt lat="42.9069" lon="0.11083">
        <ele>1560.8</ele>
        <time>2020-12-05T16:46:39.948Z</time>
      </trkpt>
      <trkpt lat="42.9069" lon="0.11083">
        <ele>1560.8</ele>
        <time>2020-12-05T16:46:40.949Z</time>
      </trkpt>
      <trkpt lat="42.9069" lon="0.11083">
        <ele>1560.8</ele>
        <time>2020-12-05T16:46:41.947Z</time>
      </trkpt>
      <trkpt lat="42.9069" lon="0.11083">
        <ele>1560.8</ele>
        <time>2020-12-05T16:46:42.947Z</time>
      </trkpt>
      <trkpt lat="42.9069" lon="0.11083">
        <ele>1560.8</ele>
        <time>2020-12-05T16:46:43.948Z</time>
      </trkpt>
      <trkpt lat="42.9069" lon="0.11083">
        <ele>1560.8</ele>
        <time>2020-12-05T16:46:44.947Z</time>
      </trkpt>
      <trkpt lat="42.9069" lon="0.11083">
        <ele>1560.8</ele>
        <time>2020-12-05T16:46:45.948Z</time>
      </trkpt>
      <trkpt lat="42.9069" lon="0.11083">
        <ele>1560.8</ele>
        <time>2020-12-05T16:46:46.949Z</time>
      </trkpt>
      <trkpt lat="42.90694" lon="0.11101">
        <ele>1562</ele>
        <time>2020-12-05T16:46:47.948Z</time>
      </trkpt>
      <trkpt lat="42.90694" lon="0.11101">
        <ele>1562</ele>
        <time>2020-12-05T16:46:48.948Z</time>
      </trkpt>
      <trkpt lat="42.90694" lon="0.11101">
        <ele>1562</ele>
        <time>2020-12-05T16:46:49.948Z</time>
      </trkpt>
      <trkpt lat="42.90696" lon="0.11109">
        <ele>1562.6</ele>
        <time>2020-12-05T16:46:50.949Z</time>
      </trkpt>
      <trkpt lat="42.90696" lon="0.11109">
        <ele>1562.6</ele>
        <time>2020-12-05T16:46:51.948Z</time>
      </trkpt>
      <trkpt lat="42.90696" lon="0.11109">
        <ele>1562.6</ele>
        <time>2020-12-05T16:46:52.949Z</time>
      </trkpt>
      <trkpt lat="42.90696" lon="0.11109">
        <ele>1562.6</ele>
        <time>2020-12-05T16:46:53.947Z</time>
      </trkpt>
      <trkpt lat="42.90698" lon="0.11118">
        <ele>1563</ele>
        <time>2020-12-05T16:46:54.949Z</time>
      </trkpt>
      <trkpt lat="42.90698" lon="0.11118">
        <ele>1563</ele>
        <time>2020-12-05T16:46:55.948Z</time>
      </trkpt>
      <trkpt lat="42.90698" lon="0.11118">
        <ele>1563</ele>
        <time>2020-12-05T16:46:56.947Z</time>
      </trkpt>
      <trkpt lat="42.90698" lon="0.11118">
        <ele>1563</ele>
        <time>2020-12-05T16:46:57.948Z</time>
      </trkpt>
      <trkpt lat="42.90698" lon="0.11118">
        <ele>1563</ele>
        <time>2020-12-05T16:46:58.948Z</time>
      </trkpt>
      <trkpt lat="42.90698" lon="0.11118">
        <ele>1563</ele>
        <time>2020-12-05T16:46:59.948Z</time>
      </trkpt>
      <trkpt lat="42.90698" lon="0.11118">
        <ele>1563</ele>
        <time>2020-12-05T16:47:00.947Z</time>
      </trkpt>
      <trkpt lat="42.90698" lon="0.11118">
        <ele>1563</ele>
        <time>2020-12-05T16:47:01.95Z</time>
      </trkpt>
      <trkpt lat="42.90698" lon="0.11118">
        <ele>1563</ele>
        <time>2020-12-05T16:47:02.948Z</time>
      </trkpt>
      <trkpt lat="42.907" lon="0.11135">
        <ele>1564.2</ele>
        <time>2020-12-05T16:47:03.947Z</time>
      </trkpt>
      <trkpt lat="42.907" lon="0.11135">
        <ele>1564.2</ele>
        <time>2020-12-05T16:47:04.948Z</time>
      </trkpt>
      <trkpt lat="42.907" lon="0.11135">
        <ele>1564.2</ele>
        <time>2020-12-05T16:47:05.949Z</time>
      </trkpt>
      <trkpt lat="42.907" lon="0.11135">
        <ele>1564.2</ele>
        <time>2020-12-05T16:47:06.947Z</time>
      </trkpt>
      <trkpt lat="42.907" lon="0.11135">
        <ele>1564.2</ele>
        <time>2020-12-05T16:47:07.947Z</time>
      </trkpt>
      <trkpt lat="42.907" lon="0.11135">
        <ele>1564.2</ele>
        <time>2020-12-05T16:47:08.948Z</time>
      </trkpt>
      <trkpt lat="42.907" lon="0.11135">
        <ele>1564.2</ele>
        <time>2020-12-05T16:47:09.949Z</time>
      </trkpt>
      <trkpt lat="42.90702" lon="0.11148">
        <ele>1565</ele>
        <time>2020-12-05T16:47:10.947Z</time>
      </trkpt>
      <trkpt lat="42.90702" lon="0.11148">
        <ele>1565</ele>
        <time>2020-12-05T16:47:11.949Z</time>
      </trkpt>
      <trkpt lat="42.90703" lon="0.11153">
        <ele>1565.2</ele>
        <time>2020-12-05T16:47:12.947Z</time>
      </trkpt>
      <trkpt lat="42.90703" lon="0.11153">
        <ele>1565.2</ele>
        <time>2020-12-05T16:47:13.948Z</time>
      </trkpt>
      <trkpt lat="42.90703" lon="0.11153">
        <ele>1565.2</ele>
        <time>2020-12-05T16:47:14.949Z</time>
      </trkpt>
      <trkpt lat="42.90703" lon="0.11153">
        <ele>1565.2</ele>
        <time>2020-12-05T16:47:15.95Z</time>
      </trkpt>
      <trkpt lat="42.90703" lon="0.11153">
        <ele>1565.2</ele>
        <time>2020-12-05T16:47:16.949Z</time>
      </trkpt>
      <trkpt lat="42.90703" lon="0.11153">
        <ele>1565.2</ele>
        <time>2020-12-05T16:47:17.948Z</time>
      </trkpt>
      <trkpt lat="42.90703" lon="0.11153">
        <ele>1565.2</ele>
        <time>2020-12-05T16:47:18.948Z</time>
      </trkpt>
      <trkpt lat="42.90703" lon="0.11153">
        <ele>1565.2</ele>
        <time>2020-12-05T16:47:19.949Z</time>
      </trkpt>
      <trkpt lat="42.90703" lon="0.11153">
        <ele>1565.2</ele>
        <time>2020-12-05T16:47:20.947Z</time>
      </trkpt>
      <trkpt lat="42.90706" lon="0.1117">
        <ele>1566.4</ele>
        <time>2020-12-05T16:47:21.95Z</time>
      </trkpt>
      <trkpt lat="42.90706" lon="0.1117">
        <ele>1566.4</ele>
        <time>2020-12-05T16:47:22.95Z</time>
      </trkpt>
      <trkpt lat="42.90706" lon="0.1117">
        <ele>1566.4</ele>
        <time>2020-12-05T16:47:23.95Z</time>
      </trkpt>
      <trkpt lat="42.90706" lon="0.1117">
        <ele>1566.4</ele>
        <time>2020-12-05T16:47:24.948Z</time>
      </trkpt>
      <trkpt lat="42.90706" lon="0.1117">
        <ele>1566.4</ele>
        <time>2020-12-05T16:47:25.948Z</time>
      </trkpt>
      <trkpt lat="42.90709" lon="0.11183">
        <ele>1567.4</ele>
        <time>2020-12-05T16:47:26.949Z</time>
      </trkpt>
      <trkpt lat="42.90709" lon="0.11183">
        <ele>1567.4</ele>
        <time>2020-12-05T16:47:27.948Z</time>
      </trkpt>
      <trkpt lat="42.9071" lon="0.11187">
        <ele>1567.6</ele>
        <time>2020-12-05T16:47:28.949Z</time>
      </trkpt>
      <trkpt lat="42.9071" lon="0.11187">
        <ele>1567.6</ele>
        <time>2020-12-05T16:47:29.948Z</time>
      </trkpt>
      <trkpt lat="42.9071" lon="0.11187">
        <ele>1567.6</ele>
        <time>2020-12-05T16:47:30.947Z</time>
      </trkpt>
      <trkpt lat="42.9071" lon="0.11187">
        <ele>1567.6</ele>
        <time>2020-12-05T16:47:31.949Z</time>
      </trkpt>
      <trkpt lat="42.9071" lon="0.11187">
        <ele>1567.6</ele>
        <time>2020-12-05T16:47:32.948Z</time>
      </trkpt>
      <trkpt lat="42.9071" lon="0.11187">
        <ele>1567.6</ele>
        <time>2020-12-05T16:47:33.948Z</time>
      </trkpt>
      <trkpt lat="42.9071" lon="0.11187">
        <ele>1567.6</ele>
        <time>2020-12-05T16:47:34.949Z</time>
      </trkpt>
      <trkpt lat="42.90715" lon="0.11204">
        <ele>1568.8</ele>
        <time>2020-12-05T16:47:35.948Z</time>
      </trkpt>
      <trkpt lat="42.90715" lon="0.11204">
        <ele>1568.8</ele>
        <time>2020-12-05T16:47:36.95Z</time>
      </trkpt>
      <trkpt lat="42.90715" lon="0.11204">
        <ele>1568.8</ele>
        <time>2020-12-05T16:47:37.947Z</time>
      </trkpt>
      <trkpt lat="42.90715" lon="0.11204">
        <ele>1568.8</ele>
        <time>2020-12-05T16:47:38.949Z</time>
      </trkpt>
      <trkpt lat="42.90715" lon="0.11204">
        <ele>1568.8</ele>
        <time>2020-12-05T16:47:39.949Z</time>
      </trkpt>
      <trkpt lat="42.90715" lon="0.11204">
        <ele>1568.8</ele>
        <time>2020-12-05T16:47:40.95Z</time>
      </trkpt>
      <trkpt lat="42.90717" lon="0.11221">
        <ele>1570</ele>
        <time>2020-12-05T16:47:41.948Z</time>
      </trkpt>
      <trkpt lat="42.90717" lon="0.11221">
        <ele>1570</ele>
        <time>2020-12-05T16:47:42.948Z</time>
      </trkpt>
      <trkpt lat="42.90717" lon="0.11221">
        <ele>1570</ele>
        <time>2020-12-05T16:47:43.948Z</time>
      </trkpt>
      <trkpt lat="42.90717" lon="0.11221">
        <ele>1570</ele>
        <time>2020-12-05T16:47:44.949Z</time>
      </trkpt>
      <trkpt lat="42.90717" lon="0.1123">
        <ele>1570.4</ele>
        <time>2020-12-05T16:47:45.949Z</time>
      </trkpt>
      <trkpt lat="42.90717" lon="0.1123">
        <ele>1570.4</ele>
        <time>2020-12-05T16:47:46.947Z</time>
      </trkpt>
      <trkpt lat="42.90717" lon="0.1123">
        <ele>1570.4</ele>
        <time>2020-12-05T16:47:47.949Z</time>
      </trkpt>
      <trkpt lat="42.90717" lon="0.1123">
        <ele>1570.4</ele>
        <time>2020-12-05T16:47:48.948Z</time>
      </trkpt>
      <trkpt lat="42.90717" lon="0.1123">
        <ele>1570.4</ele>
        <time>2020-12-05T16:47:49.947Z</time>
      </trkpt>
      <trkpt lat="42.90718" lon="0.11244">
        <ele>1571.2</ele>
        <time>2020-12-05T16:47:50.948Z</time>
      </trkpt>
      <trkpt lat="42.90718" lon="0.11244">
        <ele>1571.2</ele>
        <time>2020-12-05T16:47:51.947Z</time>
      </trkpt>
      <trkpt lat="42.90718" lon="0.11244">
        <ele>1571.2</ele>
        <time>2020-12-05T16:47:52.948Z</time>
      </trkpt>
      <trkpt lat="42.90718" lon="0.11244">
        <ele>1571.2</ele>
        <time>2020-12-05T16:47:53.947Z</time>
      </trkpt>
      <trkpt lat="42.90718" lon="0.11244">
        <ele>1571.2</ele>
        <time>2020-12-05T16:47:54.948Z</time>
      </trkpt>
      <trkpt lat="42.90718" lon="0.11244">
        <ele>1571.2</ele>
        <time>2020-12-05T16:47:55.948Z</time>
      </trkpt>
      <trkpt lat="42.90718" lon="0.11258">
        <ele>1572.2</ele>
        <time>2020-12-05T16:47:56.949Z</time>
      </trkpt>
      <trkpt lat="42.90718" lon="0.11258">
        <ele>1572.2</ele>
        <time>2020-12-05T16:47:57.948Z</time>
      </trkpt>
      <trkpt lat="42.90718" lon="0.11263">
        <ele>1572.6</ele>
        <time>2020-12-05T16:47:58.949Z</time>
      </trkpt>
      <trkpt lat="42.90718" lon="0.11263">
        <ele>1572.6</ele>
        <time>2020-12-05T16:47:59.948Z</time>
      </trkpt>
      <trkpt lat="42.90718" lon="0.11263">
        <ele>1572.6</ele>
        <time>2020-12-05T16:48:00.947Z</time>
      </trkpt>
      <trkpt lat="42.90718" lon="0.11263">
        <ele>1572.6</ele>
        <time>2020-12-05T16:48:01.948Z</time>
      </trkpt>
      <trkpt lat="42.90718" lon="0.11263">
        <ele>1572.6</ele>
        <time>2020-12-05T16:48:02.948Z</time>
      </trkpt>
      <trkpt lat="42.90719" lon="0.11276">
        <ele>1573.6</ele>
        <time>2020-12-05T16:48:03.948Z</time>
      </trkpt>
      <trkpt lat="42.90719" lon="0.11276">
        <ele>1573.6</ele>
        <time>2020-12-05T16:48:04.947Z</time>
      </trkpt>
      <trkpt lat="42.90719" lon="0.11276">
        <ele>1573.6</ele>
        <time>2020-12-05T16:48:05.948Z</time>
      </trkpt>
      <trkpt lat="42.90719" lon="0.11276">
        <ele>1573.6</ele>
        <time>2020-12-05T16:48:06.95Z</time>
      </trkpt>
      <trkpt lat="42.90719" lon="0.11276">
        <ele>1573.6</ele>
        <time>2020-12-05T16:48:07.948Z</time>
      </trkpt>
      <trkpt lat="42.90719" lon="0.11276">
        <ele>1573.6</ele>
        <time>2020-12-05T16:48:08.948Z</time>
      </trkpt>
      <trkpt lat="42.90719" lon="0.11276">
        <ele>1573.6</ele>
        <time>2020-12-05T16:48:09.949Z</time>
      </trkpt>
      <trkpt lat="42.90719" lon="0.11294">
        <ele>1574.8</ele>
        <time>2020-12-05T16:48:10.948Z</time>
      </trkpt>
      <trkpt lat="42.90719" lon="0.11294">
        <ele>1574.8</ele>
        <time>2020-12-05T16:48:11.947Z</time>
      </trkpt>
      <trkpt lat="42.90719" lon="0.11294">
        <ele>1574.8</ele>
        <time>2020-12-05T16:48:12.947Z</time>
      </trkpt>
      <trkpt lat="42.90719" lon="0.11294">
        <ele>1574.8</ele>
        <time>2020-12-05T16:48:13.948Z</time>
      </trkpt>
      <trkpt lat="42.90719" lon="0.11294">
        <ele>1574.8</ele>
        <time>2020-12-05T16:48:14.948Z</time>
      </trkpt>
      <trkpt lat="42.90719" lon="0.11294">
        <ele>1574.8</ele>
        <time>2020-12-05T16:48:15.949Z</time>
      </trkpt>
      <trkpt lat="42.90719" lon="0.11294">
        <ele>1574.8</ele>
        <time>2020-12-05T16:48:16.947Z</time>
      </trkpt>
      <trkpt lat="42.90719" lon="0.11312">
        <ele>1576</ele>
        <time>2020-12-05T16:48:17.949Z</time>
      </trkpt>
      <trkpt lat="42.90719" lon="0.11312">
        <ele>1576</ele>
        <time>2020-12-05T16:48:18.949Z</time>
      </trkpt>
      <trkpt lat="42.90719" lon="0.11312">
        <ele>1576</ele>
        <time>2020-12-05T16:48:19.949Z</time>
      </trkpt>
      <trkpt lat="42.90719" lon="0.11312">
        <ele>1576</ele>
        <time>2020-12-05T16:48:20.948Z</time>
      </trkpt>
      <trkpt lat="42.90719" lon="0.11312">
        <ele>1576</ele>
        <time>2020-12-05T16:48:21.949Z</time>
      </trkpt>
      <trkpt lat="42.90719" lon="0.11312">
        <ele>1576</ele>
        <time>2020-12-05T16:48:22.947Z</time>
      </trkpt>
      <trkpt lat="42.9072" lon="0.11326">
        <ele>1576.6</ele>
        <time>2020-12-05T16:48:23.948Z</time>
      </trkpt>
      <trkpt lat="42.9072" lon="0.11326">
        <ele>1576.6</ele>
        <time>2020-12-05T16:48:24.948Z</time>
      </trkpt>
      <trkpt lat="42.9072" lon="0.11326">
        <ele>1576.6</ele>
        <time>2020-12-05T16:48:25.948Z</time>
      </trkpt>
      <trkpt lat="42.9072" lon="0.11335">
        <ele>1577</ele>
        <time>2020-12-05T16:48:26.949Z</time>
      </trkpt>
      <trkpt lat="42.9072" lon="0.11335">
        <ele>1577</ele>
        <time>2020-12-05T16:48:27.948Z</time>
      </trkpt>
      <trkpt lat="42.9072" lon="0.11335">
        <ele>1577</ele>
        <time>2020-12-05T16:48:28.947Z</time>
      </trkpt>
      <trkpt lat="42.9072" lon="0.11335">
        <ele>1577</ele>
        <time>2020-12-05T16:48:29.947Z</time>
      </trkpt>
      <trkpt lat="42.9072" lon="0.11335">
        <ele>1577</ele>
        <time>2020-12-05T16:48:30.949Z</time>
      </trkpt>
      <trkpt lat="42.90721" lon="0.11348">
        <ele>1578</ele>
        <time>2020-12-05T16:48:31.95Z</time>
      </trkpt>
      <trkpt lat="42.90721" lon="0.11348">
        <ele>1578</ele>
        <time>2020-12-05T16:48:32.948Z</time>
      </trkpt>
      <trkpt lat="42.90721" lon="0.11348">
        <ele>1578</ele>
        <time>2020-12-05T16:48:33.947Z</time>
      </trkpt>
      <trkpt lat="42.90721" lon="0.11348">
        <ele>1578</ele>
        <time>2020-12-05T16:48:34.948Z</time>
      </trkpt>
      <trkpt lat="42.90721" lon="0.11358">
        <ele>1578.6</ele>
        <time>2020-12-05T16:48:35.948Z</time>
      </trkpt>
      <trkpt lat="42.90721" lon="0.11358">
        <ele>1578.6</ele>
        <time>2020-12-05T16:48:36.948Z</time>
      </trkpt>
      <trkpt lat="42.90721" lon="0.11358">
        <ele>1578.6</ele>
        <time>2020-12-05T16:48:37.947Z</time>
      </trkpt>
      <trkpt lat="42.90721" lon="0.11358">
        <ele>1578.6</ele>
        <time>2020-12-05T16:48:38.948Z</time>
      </trkpt>
      <trkpt lat="42.90722" lon="0.11367">
        <ele>1579.2</ele>
        <time>2020-12-05T16:48:39.948Z</time>
      </trkpt>
      <trkpt lat="42.90722" lon="0.11367">
        <ele>1579.2</ele>
        <time>2020-12-05T16:48:40.949Z</time>
      </trkpt>
      <trkpt lat="42.90722" lon="0.11367">
        <ele>1579.2</ele>
        <time>2020-12-05T16:48:41.948Z</time>
      </trkpt>
      <trkpt lat="42.90722" lon="0.11367">
        <ele>1579.2</ele>
        <time>2020-12-05T16:48:42.948Z</time>
      </trkpt>
      <trkpt lat="42.90722" lon="0.11367">
        <ele>1579.2</ele>
        <time>2020-12-05T16:48:43.948Z</time>
      </trkpt>
      <trkpt lat="42.90722" lon="0.11367">
        <ele>1579.2</ele>
        <time>2020-12-05T16:48:44.948Z</time>
      </trkpt>
      <trkpt lat="42.90722" lon="0.11367">
        <ele>1579.2</ele>
        <time>2020-12-05T16:48:45.949Z</time>
      </trkpt>
      <trkpt lat="42.90724" lon="0.11386">
        <ele>1580.4</ele>
        <time>2020-12-05T16:48:46.948Z</time>
      </trkpt>
      <trkpt lat="42.90724" lon="0.11386">
        <ele>1580.4</ele>
        <time>2020-12-05T16:48:47.947Z</time>
      </trkpt>
      <trkpt lat="42.90724" lon="0.11386">
        <ele>1580.4</ele>
        <time>2020-12-05T16:48:48.947Z</time>
      </trkpt>
      <trkpt lat="42.90724" lon="0.11386">
        <ele>1580.4</ele>
        <time>2020-12-05T16:48:49.949Z</time>
      </trkpt>
      <trkpt lat="42.90724" lon="0.11386">
        <ele>1580.4</ele>
        <time>2020-12-05T16:48:50.947Z</time>
      </trkpt>
      <trkpt lat="42.90724" lon="0.11386">
        <ele>1580.4</ele>
        <time>2020-12-05T16:48:51.949Z</time>
      </trkpt>
      <trkpt lat="42.90725" lon="0.11399">
        <ele>1581.4</ele>
        <time>2020-12-05T16:48:52.948Z</time>
      </trkpt>
      <trkpt lat="42.90725" lon="0.11399">
        <ele>1581.4</ele>
        <time>2020-12-05T16:48:53.948Z</time>
      </trkpt>
      <trkpt lat="42.90725" lon="0.11399">
        <ele>1581.4</ele>
        <time>2020-12-05T16:48:54.948Z</time>
      </trkpt>
      <trkpt lat="42.90725" lon="0.11399">
        <ele>1581.4</ele>
        <time>2020-12-05T16:48:55.947Z</time>
      </trkpt>
      <trkpt lat="42.90725" lon="0.11399">
        <ele>1581.4</ele>
        <time>2020-12-05T16:48:56.947Z</time>
      </trkpt>
      <trkpt lat="42.90726" lon="0.11412">
        <ele>1582.6</ele>
        <time>2020-12-05T16:48:57.948Z</time>
      </trkpt>
      <trkpt lat="42.90726" lon="0.11412">
        <ele>1582.6</ele>
        <time>2020-12-05T16:48:58.948Z</time>
      </trkpt>
      <trkpt lat="42.90726" lon="0.11412">
        <ele>1582.6</ele>
        <time>2020-12-05T16:48:59.948Z</time>
      </trkpt>
      <trkpt lat="42.90726" lon="0.11412">
        <ele>1582.6</ele>
        <time>2020-12-05T16:49:00.949Z</time>
      </trkpt>
      <trkpt lat="42.90726" lon="0.11412">
        <ele>1582.6</ele>
        <time>2020-12-05T16:49:01.947Z</time>
      </trkpt>
      <trkpt lat="42.90726" lon="0.11412">
        <ele>1582.6</ele>
        <time>2020-12-05T16:49:02.95Z</time>
      </trkpt>
      <trkpt lat="42.90726" lon="0.11412">
        <ele>1582.6</ele>
        <time>2020-12-05T16:49:03.948Z</time>
      </trkpt>
      <trkpt lat="42.90727" lon="0.1143">
        <ele>1583.8</ele>
        <time>2020-12-05T16:49:04.948Z</time>
      </trkpt>
      <trkpt lat="42.90727" lon="0.1143">
        <ele>1583.8</ele>
        <time>2020-12-05T16:49:05.947Z</time>
      </trkpt>
      <trkpt lat="42.90727" lon="0.1143">
        <ele>1583.8</ele>
        <time>2020-12-05T16:49:06.953Z</time>
      </trkpt>
      <trkpt lat="42.90727" lon="0.1143">
        <ele>1583.8</ele>
        <time>2020-12-05T16:49:07.949Z</time>
      </trkpt>
      <trkpt lat="42.90727" lon="0.1143">
        <ele>1583.8</ele>
        <time>2020-12-05T16:49:08.953Z</time>
      </trkpt>
      <trkpt lat="42.90727" lon="0.1143">
        <ele>1583.8</ele>
        <time>2020-12-05T16:49:09.947Z</time>
      </trkpt>
      <trkpt lat="42.90728" lon="0.11447">
        <ele>1585</ele>
        <time>2020-12-05T16:49:10.961Z</time>
      </trkpt>
      <trkpt lat="42.90728" lon="0.11447">
        <ele>1585</ele>
        <time>2020-12-05T16:49:11.947Z</time>
      </trkpt>
      <trkpt lat="42.90728" lon="0.11447">
        <ele>1585</ele>
        <time>2020-12-05T16:49:12.948Z</time>
      </trkpt>
      <trkpt lat="42.90728" lon="0.11447">
        <ele>1585</ele>
        <time>2020-12-05T16:49:13.949Z</time>
      </trkpt>
      <trkpt lat="42.90728" lon="0.11447">
        <ele>1585</ele>
        <time>2020-12-05T16:49:14.948Z</time>
      </trkpt>
      <trkpt lat="42.90728" lon="0.11447">
        <ele>1585</ele>
        <time>2020-12-05T16:49:15.947Z</time>
      </trkpt>
      <trkpt lat="42.90728" lon="0.11447">
        <ele>1585</ele>
        <time>2020-12-05T16:49:16.948Z</time>
      </trkpt>
      <trkpt lat="42.90729" lon="0.11463">
        <ele>1586</ele>
        <time>2020-12-05T16:49:17.947Z</time>
      </trkpt>
      <trkpt lat="42.90729" lon="0.11463">
        <ele>1586</ele>
        <time>2020-12-05T16:49:18.948Z</time>
      </trkpt>
      <trkpt lat="42.9073" lon="0.1147">
        <ele>1586.4</ele>
        <time>2020-12-05T16:49:19.948Z</time>
      </trkpt>
      <trkpt lat="42.9073" lon="0.1147">
        <ele>1586.4</ele>
        <time>2020-12-05T16:49:20.948Z</time>
      </trkpt>
      <trkpt lat="42.9073" lon="0.1147">
        <ele>1586.4</ele>
        <time>2020-12-05T16:49:21.948Z</time>
      </trkpt>
      <trkpt lat="42.9073" lon="0.1147">
        <ele>1586.4</ele>
        <time>2020-12-05T16:49:22.948Z</time>
      </trkpt>
      <trkpt lat="42.9073" lon="0.1147">
        <ele>1586.4</ele>
        <time>2020-12-05T16:49:23.947Z</time>
      </trkpt>
      <trkpt lat="42.9073" lon="0.1147">
        <ele>1586.4</ele>
        <time>2020-12-05T16:49:24.948Z</time>
      </trkpt>
      <trkpt lat="42.90732" lon="0.11483">
        <ele>1587</ele>
        <time>2020-12-05T16:49:25.947Z</time>
      </trkpt>
      <trkpt lat="42.90732" lon="0.11483">
        <ele>1587</ele>
        <time>2020-12-05T16:49:26.948Z</time>
      </trkpt>
      <trkpt lat="42.90732" lon="0.11483">
        <ele>1587</ele>
        <time>2020-12-05T16:49:27.95Z</time>
      </trkpt>
      <trkpt lat="42.90732" lon="0.11492">
        <ele>1587.8</ele>
        <time>2020-12-05T16:49:28.947Z</time>
      </trkpt>
      <trkpt lat="42.90732" lon="0.11492">
        <ele>1587.8</ele>
        <time>2020-12-05T16:49:29.948Z</time>
      </trkpt>
      <trkpt lat="42.90732" lon="0.11492">
        <ele>1587.8</ele>
        <time>2020-12-05T16:49:30.948Z</time>
      </trkpt>
      <trkpt lat="42.90732" lon="0.11492">
        <ele>1587.8</ele>
        <time>2020-12-05T16:49:31.948Z</time>
      </trkpt>
      <trkpt lat="42.90732" lon="0.11502">
        <ele>1588.4</ele>
        <time>2020-12-05T16:49:32.947Z</time>
      </trkpt>
      <trkpt lat="42.90732" lon="0.11502">
        <ele>1588.4</ele>
        <time>2020-12-05T16:49:33.948Z</time>
      </trkpt>
      <trkpt lat="42.90732" lon="0.11502">
        <ele>1588.4</ele>
        <time>2020-12-05T16:49:34.948Z</time>
      </trkpt>
      <trkpt lat="42.90732" lon="0.11502">
        <ele>1588.4</ele>
        <time>2020-12-05T16:49:35.947Z</time>
      </trkpt>
      <trkpt lat="42.90732" lon="0.11502">
        <ele>1588.4</ele>
        <time>2020-12-05T16:49:36.948Z</time>
      </trkpt>
      <trkpt lat="42.90732" lon="0.11502">
        <ele>1588.4</ele>
        <time>2020-12-05T16:49:37.948Z</time>
      </trkpt>
      <trkpt lat="42.90732" lon="0.11502">
        <ele>1588.4</ele>
        <time>2020-12-05T16:49:38.948Z</time>
      </trkpt>
      <trkpt lat="42.90732" lon="0.11502">
        <ele>1588.4</ele>
        <time>2020-12-05T16:49:39.949Z</time>
      </trkpt>
      <trkpt lat="42.90732" lon="0.11502">
        <ele>1588.4</ele>
        <time>2020-12-05T16:49:40.947Z</time>
      </trkpt>
      <trkpt lat="42.90728" lon="0.11525">
        <ele>1589.4</ele>
        <time>2020-12-05T16:49:41.947Z</time>
      </trkpt>
      <trkpt lat="42.90728" lon="0.11525">
        <ele>1589.4</ele>
        <time>2020-12-05T16:49:42.948Z</time>
      </trkpt>
      <trkpt lat="42.90728" lon="0.1153">
        <ele>1589.8</ele>
        <time>2020-12-05T16:49:43.948Z</time>
      </trkpt>
      <trkpt lat="42.90728" lon="0.1153">
        <ele>1589.8</ele>
        <time>2020-12-05T16:49:44.948Z</time>
      </trkpt>
      <trkpt lat="42.90728" lon="0.1153">
        <ele>1589.8</ele>
        <time>2020-12-05T16:49:45.948Z</time>
      </trkpt>
      <trkpt lat="42.90728" lon="0.1153">
        <ele>1589.8</ele>
        <time>2020-12-05T16:49:46.947Z</time>
      </trkpt>
      <trkpt lat="42.90728" lon="0.1153">
        <ele>1589.8</ele>
        <time>2020-12-05T16:49:47.949Z</time>
      </trkpt>
      <trkpt lat="42.90728" lon="0.1153">
        <ele>1589.8</ele>
        <time>2020-12-05T16:49:48.947Z</time>
      </trkpt>
      <trkpt lat="42.90728" lon="0.1153">
        <ele>1589.8</ele>
        <time>2020-12-05T16:49:49.947Z</time>
      </trkpt>
      <trkpt lat="42.90725" lon="0.11549">
        <ele>1591</ele>
        <time>2020-12-05T16:49:50.947Z</time>
      </trkpt>
      <trkpt lat="42.90725" lon="0.11549">
        <ele>1591</ele>
        <time>2020-12-05T16:49:51.947Z</time>
      </trkpt>
      <trkpt lat="42.90725" lon="0.11549">
        <ele>1591</ele>
        <time>2020-12-05T16:49:52.947Z</time>
      </trkpt>
      <trkpt lat="42.90725" lon="0.11549">
        <ele>1591</ele>
        <time>2020-12-05T16:49:53.947Z</time>
      </trkpt>
      <trkpt lat="42.90725" lon="0.11549">
        <ele>1591</ele>
        <time>2020-12-05T16:49:54.947Z</time>
      </trkpt>
      <trkpt lat="42.90725" lon="0.11549">
        <ele>1591</ele>
        <time>2020-12-05T16:49:55.948Z</time>
      </trkpt>
      <trkpt lat="42.90723" lon="0.11563">
        <ele>1591.8</ele>
        <time>2020-12-05T16:49:56.947Z</time>
      </trkpt>
      <trkpt lat="42.90723" lon="0.11563">
        <ele>1591.8</ele>
        <time>2020-12-05T16:49:57.947Z</time>
      </trkpt>
      <trkpt lat="42.90722" lon="0.11567">
        <ele>1592.2</ele>
        <time>2020-12-05T16:49:58.948Z</time>
      </trkpt>
      <trkpt lat="42.90722" lon="0.11567">
        <ele>1592.2</ele>
        <time>2020-12-05T16:49:59.947Z</time>
      </trkpt>
      <trkpt lat="42.90722" lon="0.11567">
        <ele>1592.2</ele>
        <time>2020-12-05T16:50:00.947Z</time>
      </trkpt>
      <trkpt lat="42.90722" lon="0.11567">
        <ele>1592.2</ele>
        <time>2020-12-05T16:50:01.948Z</time>
      </trkpt>
      <trkpt lat="42.90722" lon="0.11567">
        <ele>1592.2</ele>
        <time>2020-12-05T16:50:02.947Z</time>
      </trkpt>
      <trkpt lat="42.90722" lon="0.11567">
        <ele>1592.2</ele>
        <time>2020-12-05T16:50:03.949Z</time>
      </trkpt>
      <trkpt lat="42.90722" lon="0.11567">
        <ele>1592.2</ele>
        <time>2020-12-05T16:50:04.949Z</time>
      </trkpt>
      <trkpt lat="42.90722" lon="0.11567">
        <ele>1592.2</ele>
        <time>2020-12-05T16:50:05.948Z</time>
      </trkpt>
      <trkpt lat="42.90722" lon="0.11567">
        <ele>1592.2</ele>
        <time>2020-12-05T16:50:06.949Z</time>
      </trkpt>
      <trkpt lat="42.90716" lon="0.11589">
        <ele>1593</ele>
        <time>2020-12-05T16:50:07.948Z</time>
      </trkpt>
      <trkpt lat="42.90715" lon="0.11593">
        <ele>1593.4</ele>
        <time>2020-12-05T16:50:08.949Z</time>
      </trkpt>
      <trkpt lat="42.90715" lon="0.11593">
        <ele>1593.4</ele>
        <time>2020-12-05T16:50:09.948Z</time>
      </trkpt>
      <trkpt lat="42.90715" lon="0.11593">
        <ele>1593.4</ele>
        <time>2020-12-05T16:50:10.948Z</time>
      </trkpt>
      <trkpt lat="42.90715" lon="0.11593">
        <ele>1593.4</ele>
        <time>2020-12-05T16:50:11.948Z</time>
      </trkpt>
      <trkpt lat="42.90715" lon="0.11593">
        <ele>1593.4</ele>
        <time>2020-12-05T16:50:12.948Z</time>
      </trkpt>
      <trkpt lat="42.90712" lon="0.11604">
        <ele>1594.2</ele>
        <time>2020-12-05T16:50:13.948Z</time>
      </trkpt>
      <trkpt lat="42.90712" lon="0.11604">
        <ele>1594.2</ele>
        <time>2020-12-05T16:50:14.95Z</time>
      </trkpt>
      <trkpt lat="42.90712" lon="0.11604">
        <ele>1594.2</ele>
        <time>2020-12-05T16:50:15.947Z</time>
      </trkpt>
      <trkpt lat="42.90712" lon="0.11604">
        <ele>1594.2</ele>
        <time>2020-12-05T16:50:16.947Z</time>
      </trkpt>
      <trkpt lat="42.90712" lon="0.11604">
        <ele>1594.2</ele>
        <time>2020-12-05T16:50:17.949Z</time>
      </trkpt>
      <trkpt lat="42.90711" lon="0.11617">
        <ele>1595</ele>
        <time>2020-12-05T16:50:18.948Z</time>
      </trkpt>
      <trkpt lat="42.90712" lon="0.1162">
        <ele>1595.2</ele>
        <time>2020-12-05T16:50:19.949Z</time>
      </trkpt>
      <trkpt lat="42.90712" lon="0.1162">
        <ele>1595.2</ele>
        <time>2020-12-05T16:50:20.948Z</time>
      </trkpt>
      <trkpt lat="42.90712" lon="0.1162">
        <ele>1595.2</ele>
        <time>2020-12-05T16:50:21.948Z</time>
      </trkpt>
      <trkpt lat="42.90712" lon="0.1162">
        <ele>1595.2</ele>
        <time>2020-12-05T16:50:22.95Z</time>
      </trkpt>
      <trkpt lat="42.90712" lon="0.1162">
        <ele>1595.2</ele>
        <time>2020-12-05T16:50:23.949Z</time>
      </trkpt>
      <trkpt lat="42.9072" lon="0.11628">
        <ele>1596.4</ele>
        <time>2020-12-05T16:50:24.947Z</time>
      </trkpt>
      <trkpt lat="42.9072" lon="0.11628">
        <ele>1596.4</ele>
        <time>2020-12-05T16:50:25.949Z</time>
      </trkpt>
      <trkpt lat="42.9072" lon="0.11628">
        <ele>1596.4</ele>
        <time>2020-12-05T16:50:26.947Z</time>
      </trkpt>
      <trkpt lat="42.9072" lon="0.11628">
        <ele>1596.4</ele>
        <time>2020-12-05T16:50:27.947Z</time>
      </trkpt>
      <trkpt lat="42.90726" lon="0.11628">
        <ele>1597.2</ele>
        <time>2020-12-05T16:50:28.947Z</time>
      </trkpt>
      <trkpt lat="42.90726" lon="0.11628">
        <ele>1597.2</ele>
        <time>2020-12-05T16:50:29.948Z</time>
      </trkpt>
      <trkpt lat="42.9073" lon="0.11627">
        <ele>1597.6</ele>
        <time>2020-12-05T16:50:30.948Z</time>
      </trkpt>
      <trkpt lat="42.90733" lon="0.11625">
        <ele>1597.8</ele>
        <time>2020-12-05T16:50:31.948Z</time>
      </trkpt>
      <trkpt lat="42.90733" lon="0.11625">
        <ele>1597.8</ele>
        <time>2020-12-05T16:50:32.948Z</time>
      </trkpt>
      <trkpt lat="42.90733" lon="0.11625">
        <ele>1597.8</ele>
        <time>2020-12-05T16:50:33.949Z</time>
      </trkpt>
      <trkpt lat="42.90733" lon="0.11625">
        <ele>1597.8</ele>
        <time>2020-12-05T16:50:34.948Z</time>
      </trkpt>
      <trkpt lat="42.90733" lon="0.11625">
        <ele>1597.8</ele>
        <time>2020-12-05T16:50:35.948Z</time>
      </trkpt>
      <trkpt lat="42.90733" lon="0.11625">
        <ele>1597.8</ele>
        <time>2020-12-05T16:50:36.949Z</time>
      </trkpt>
      <trkpt lat="42.90741" lon="0.11615">
        <ele>1598.8</ele>
        <time>2020-12-05T16:50:37.948Z</time>
      </trkpt>
      <trkpt lat="42.90741" lon="0.11615">
        <ele>1598.8</ele>
        <time>2020-12-05T16:50:38.947Z</time>
      </trkpt>
      <trkpt lat="42.90741" lon="0.11615">
        <ele>1598.8</ele>
        <time>2020-12-05T16:50:39.949Z</time>
      </trkpt>
      <trkpt lat="42.90741" lon="0.11615">
        <ele>1598.8</ele>
        <time>2020-12-05T16:50:40.947Z</time>
      </trkpt>
      <trkpt lat="42.90741" lon="0.11615">
        <ele>1598.8</ele>
        <time>2020-12-05T16:50:41.948Z</time>
      </trkpt>
      <trkpt lat="42.90741" lon="0.11615">
        <ele>1598.8</ele>
        <time>2020-12-05T16:50:42.948Z</time>
      </trkpt>
      <trkpt lat="42.90741" lon="0.11615">
        <ele>1598.8</ele>
        <time>2020-12-05T16:50:43.949Z</time>
      </trkpt>
      <trkpt lat="42.9075" lon="0.11604">
        <ele>1599.4</ele>
        <time>2020-12-05T16:50:44.949Z</time>
      </trkpt>
      <trkpt lat="42.9075" lon="0.11604">
        <ele>1599.4</ele>
        <time>2020-12-05T16:50:45.948Z</time>
      </trkpt>
      <trkpt lat="42.9075" lon="0.11604">
        <ele>1599.4</ele>
        <time>2020-12-05T16:50:46.949Z</time>
      </trkpt>
      <trkpt lat="42.9075" lon="0.11604">
        <ele>1599.4</ele>
        <time>2020-12-05T16:50:47.947Z</time>
      </trkpt>
      <trkpt lat="42.9075" lon="0.11604">
        <ele>1599.4</ele>
        <time>2020-12-05T16:50:48.949Z</time>
      </trkpt>
      <trkpt lat="42.9075" lon="0.11604">
        <ele>1599.4</ele>
        <time>2020-12-05T16:50:49.948Z</time>
      </trkpt>
      <trkpt lat="42.90759" lon="0.11592">
        <ele>1600</ele>
        <time>2020-12-05T16:50:50.948Z</time>
      </trkpt>
      <trkpt lat="42.90759" lon="0.11592">
        <ele>1600</ele>
        <time>2020-12-05T16:50:51.949Z</time>
      </trkpt>
      <trkpt lat="42.90759" lon="0.11592">
        <ele>1600</ele>
        <time>2020-12-05T16:50:52.95Z</time>
      </trkpt>
      <trkpt lat="42.90759" lon="0.11592">
        <ele>1600</ele>
        <time>2020-12-05T16:50:53.949Z</time>
      </trkpt>
      <trkpt lat="42.90759" lon="0.11592">
        <ele>1600</ele>
        <time>2020-12-05T16:50:54.948Z</time>
      </trkpt>
      <trkpt lat="42.90759" lon="0.11592">
        <ele>1600</ele>
        <time>2020-12-05T16:50:55.948Z</time>
      </trkpt>
      <trkpt lat="42.90759" lon="0.11592">
        <ele>1600</ele>
        <time>2020-12-05T16:50:56.947Z</time>
      </trkpt>
      <trkpt lat="42.90759" lon="0.11592">
        <ele>1600</ele>
        <time>2020-12-05T16:50:57.947Z</time>
      </trkpt>
      <trkpt lat="42.90771" lon="0.11579">
        <ele>1601</ele>
        <time>2020-12-05T16:50:58.949Z</time>
      </trkpt>
      <trkpt lat="42.90771" lon="0.11579">
        <ele>1601</ele>
        <time>2020-12-05T16:50:59.948Z</time>
      </trkpt>
      <trkpt lat="42.90774" lon="0.11576">
        <ele>1601.2</ele>
        <time>2020-12-05T16:51:00.948Z</time>
      </trkpt>
      <trkpt lat="42.90774" lon="0.11576">
        <ele>1601.2</ele>
        <time>2020-12-05T16:51:01.95Z</time>
      </trkpt>
      <trkpt lat="42.90774" lon="0.11576">
        <ele>1601.2</ele>
        <time>2020-12-05T16:51:02.948Z</time>
      </trkpt>
      <trkpt lat="42.90774" lon="0.11576">
        <ele>1601.2</ele>
        <time>2020-12-05T16:51:03.948Z</time>
      </trkpt>
      <trkpt lat="42.90774" lon="0.11576">
        <ele>1601.2</ele>
        <time>2020-12-05T16:51:04.948Z</time>
      </trkpt>
      <trkpt lat="42.90774" lon="0.11576">
        <ele>1601.2</ele>
        <time>2020-12-05T16:51:05.948Z</time>
      </trkpt>
      <trkpt lat="42.90774" lon="0.11576">
        <ele>1601.2</ele>
        <time>2020-12-05T16:51:06.948Z</time>
      </trkpt>
      <trkpt lat="42.90784" lon="0.11566">
        <ele>1602.2</ele>
        <time>2020-12-05T16:51:07.948Z</time>
      </trkpt>
      <trkpt lat="42.90784" lon="0.11566">
        <ele>1602.2</ele>
        <time>2020-12-05T16:51:08.949Z</time>
      </trkpt>
      <trkpt lat="42.90784" lon="0.11566">
        <ele>1602.2</ele>
        <time>2020-12-05T16:51:09.947Z</time>
      </trkpt>
      <trkpt lat="42.90784" lon="0.11566">
        <ele>1602.2</ele>
        <time>2020-12-05T16:51:10.948Z</time>
      </trkpt>
      <trkpt lat="42.90784" lon="0.11566">
        <ele>1602.2</ele>
        <time>2020-12-05T16:51:11.947Z</time>
      </trkpt>
      <trkpt lat="42.90784" lon="0.11566">
        <ele>1602.2</ele>
        <time>2020-12-05T16:51:12.949Z</time>
      </trkpt>
      <trkpt lat="42.90795" lon="0.11559">
        <ele>1603.2</ele>
        <time>2020-12-05T16:51:13.948Z</time>
      </trkpt>
      <trkpt lat="42.90799" lon="0.11559">
        <ele>1603.4</ele>
        <time>2020-12-05T16:51:14.949Z</time>
      </trkpt>
      <trkpt lat="42.90799" lon="0.11559">
        <ele>1603.4</ele>
        <time>2020-12-05T16:51:15.948Z</time>
      </trkpt>
      <trkpt lat="42.90799" lon="0.11559">
        <ele>1603.4</ele>
        <time>2020-12-05T16:51:16.949Z</time>
      </trkpt>
      <trkpt lat="42.90799" lon="0.11559">
        <ele>1603.4</ele>
        <time>2020-12-05T16:51:17.948Z</time>
      </trkpt>
      <trkpt lat="42.90799" lon="0.11559">
        <ele>1603.4</ele>
        <time>2020-12-05T16:51:18.949Z</time>
      </trkpt>
      <trkpt lat="42.90807" lon="0.11562">
        <ele>1604</ele>
        <time>2020-12-05T16:51:19.948Z</time>
      </trkpt>
      <trkpt lat="42.90807" lon="0.11562">
        <ele>1604</ele>
        <time>2020-12-05T16:51:20.947Z</time>
      </trkpt>
      <trkpt lat="42.90807" lon="0.11562">
        <ele>1604</ele>
        <time>2020-12-05T16:51:21.947Z</time>
      </trkpt>
      <trkpt lat="42.90807" lon="0.11562">
        <ele>1604</ele>
        <time>2020-12-05T16:51:22.948Z</time>
      </trkpt>
      <trkpt lat="42.90809" lon="0.11573">
        <ele>1604.6</ele>
        <time>2020-12-05T16:51:23.948Z</time>
      </trkpt>
      <trkpt lat="42.90809" lon="0.11573">
        <ele>1604.6</ele>
        <time>2020-12-05T16:51:24.948Z</time>
      </trkpt>
      <trkpt lat="42.90809" lon="0.11573">
        <ele>1604.6</ele>
        <time>2020-12-05T16:51:25.949Z</time>
      </trkpt>
      <trkpt lat="42.90809" lon="0.11573">
        <ele>1604.6</ele>
        <time>2020-12-05T16:51:26.948Z</time>
      </trkpt>
      <trkpt lat="42.90809" lon="0.11573">
        <ele>1604.6</ele>
        <time>2020-12-05T16:51:27.948Z</time>
      </trkpt>
      <trkpt lat="42.90809" lon="0.11573">
        <ele>1604.6</ele>
        <time>2020-12-05T16:51:28.948Z</time>
      </trkpt>
      <trkpt lat="42.90809" lon="0.11573">
        <ele>1604.6</ele>
        <time>2020-12-05T16:51:29.949Z</time>
      </trkpt>
      <trkpt lat="42.90802" lon="0.11589">
        <ele>1606</ele>
        <time>2020-12-05T16:51:30.949Z</time>
      </trkpt>
      <trkpt lat="42.90802" lon="0.11589">
        <ele>1606</ele>
        <time>2020-12-05T16:51:31.947Z</time>
      </trkpt>
      <trkpt lat="42.908" lon="0.11593">
        <ele>1606.4</ele>
        <time>2020-12-05T16:51:32.948Z</time>
      </trkpt>
      <trkpt lat="42.908" lon="0.11593">
        <ele>1606.4</ele>
        <time>2020-12-05T16:51:33.948Z</time>
      </trkpt>
      <trkpt lat="42.908" lon="0.11593">
        <ele>1606.4</ele>
        <time>2020-12-05T16:51:34.948Z</time>
      </trkpt>
      <trkpt lat="42.908" lon="0.11593">
        <ele>1606.4</ele>
        <time>2020-12-05T16:51:35.949Z</time>
      </trkpt>
      <trkpt lat="42.90796" lon="0.11602">
        <ele>1607.6</ele>
        <time>2020-12-05T16:51:36.948Z</time>
      </trkpt>
      <trkpt lat="42.90796" lon="0.11602">
        <ele>1607.6</ele>
        <time>2020-12-05T16:51:37.947Z</time>
      </trkpt>
      <trkpt lat="42.90796" lon="0.11602">
        <ele>1607.6</ele>
        <time>2020-12-05T16:51:38.949Z</time>
      </trkpt>
      <trkpt lat="42.90796" lon="0.11602">
        <ele>1607.6</ele>
        <time>2020-12-05T16:51:39.948Z</time>
      </trkpt>
      <trkpt lat="42.90796" lon="0.11602">
        <ele>1607.6</ele>
        <time>2020-12-05T16:51:40.949Z</time>
      </trkpt>
      <trkpt lat="42.90796" lon="0.11602">
        <ele>1607.6</ele>
        <time>2020-12-05T16:51:41.948Z</time>
      </trkpt>
      <trkpt lat="42.9079" lon="0.11614">
        <ele>1608.8</ele>
        <time>2020-12-05T16:51:42.948Z</time>
      </trkpt>
      <trkpt lat="42.9079" lon="0.11614">
        <ele>1608.8</ele>
        <time>2020-12-05T16:51:43.949Z</time>
      </trkpt>
      <trkpt lat="42.9079" lon="0.11614">
        <ele>1608.8</ele>
        <time>2020-12-05T16:51:44.95Z</time>
      </trkpt>
      <trkpt lat="42.90786" lon="0.11621">
        <ele>1609.2</ele>
        <time>2020-12-05T16:51:45.948Z</time>
      </trkpt>
      <trkpt lat="42.90786" lon="0.11621">
        <ele>1609.2</ele>
        <time>2020-12-05T16:51:46.949Z</time>
      </trkpt>
      <trkpt lat="42.90786" lon="0.11621">
        <ele>1609.2</ele>
        <time>2020-12-05T16:51:47.948Z</time>
      </trkpt>
      <trkpt lat="42.90783" lon="0.11629">
        <ele>1609.8</ele>
        <time>2020-12-05T16:51:48.948Z</time>
      </trkpt>
      <trkpt lat="42.90783" lon="0.11629">
        <ele>1609.8</ele>
        <time>2020-12-05T16:51:49.948Z</time>
      </trkpt>
      <trkpt lat="42.90783" lon="0.11629">
        <ele>1609.8</ele>
        <time>2020-12-05T16:51:50.949Z</time>
      </trkpt>
      <trkpt lat="42.90783" lon="0.11629">
        <ele>1609.8</ele>
        <time>2020-12-05T16:51:51.947Z</time>
      </trkpt>
      <trkpt lat="42.90783" lon="0.11629">
        <ele>1609.8</ele>
        <time>2020-12-05T16:51:52.948Z</time>
      </trkpt>
      <trkpt lat="42.90778" lon="0.11641">
        <ele>1610.6</ele>
        <time>2020-12-05T16:51:53.948Z</time>
      </trkpt>
      <trkpt lat="42.90778" lon="0.11641">
        <ele>1610.6</ele>
        <time>2020-12-05T16:51:54.949Z</time>
      </trkpt>
      <trkpt lat="42.90777" lon="0.11644">
        <ele>1611</ele>
        <time>2020-12-05T16:51:55.949Z</time>
      </trkpt>
      <trkpt lat="42.90777" lon="0.11644">
        <ele>1611</ele>
        <time>2020-12-05T16:51:56.947Z</time>
      </trkpt>
      <trkpt lat="42.90777" lon="0.11644">
        <ele>1611</ele>
        <time>2020-12-05T16:51:57.948Z</time>
      </trkpt>
      <trkpt lat="42.90777" lon="0.11644">
        <ele>1611</ele>
        <time>2020-12-05T16:51:58.948Z</time>
      </trkpt>
      <trkpt lat="42.90777" lon="0.11644">
        <ele>1611</ele>
        <time>2020-12-05T16:51:59.949Z</time>
      </trkpt>
      <trkpt lat="42.90777" lon="0.11644">
        <ele>1611</ele>
        <time>2020-12-05T16:52:00.947Z</time>
      </trkpt>
      <trkpt lat="42.9077" lon="0.11659">
        <ele>1612.2</ele>
        <time>2020-12-05T16:52:01.948Z</time>
      </trkpt>
      <trkpt lat="42.9077" lon="0.11659">
        <ele>1612.2</ele>
        <time>2020-12-05T16:52:02.947Z</time>
      </trkpt>
      <trkpt lat="42.9077" lon="0.11659">
        <ele>1612.2</ele>
        <time>2020-12-05T16:52:03.948Z</time>
      </trkpt>
      <trkpt lat="42.9077" lon="0.11659">
        <ele>1612.2</ele>
        <time>2020-12-05T16:52:04.947Z</time>
      </trkpt>
      <trkpt lat="42.90767" lon="0.11668">
        <ele>1612.8</ele>
        <time>2020-12-05T16:52:05.947Z</time>
      </trkpt>
      <trkpt lat="42.90767" lon="0.11668">
        <ele>1612.8</ele>
        <time>2020-12-05T16:52:06.947Z</time>
      </trkpt>
      <trkpt lat="42.90767" lon="0.11668">
        <ele>1612.8</ele>
        <time>2020-12-05T16:52:07.947Z</time>
      </trkpt>
      <trkpt lat="42.90767" lon="0.11668">
        <ele>1612.8</ele>
        <time>2020-12-05T16:52:08.947Z</time>
      </trkpt>
      <trkpt lat="42.90764" lon="0.11677">
        <ele>1613.4</ele>
        <time>2020-12-05T16:52:09.948Z</time>
      </trkpt>
      <trkpt lat="42.90764" lon="0.11677">
        <ele>1613.4</ele>
        <time>2020-12-05T16:52:10.948Z</time>
      </trkpt>
      <trkpt lat="42.90764" lon="0.11677">
        <ele>1613.4</ele>
        <time>2020-12-05T16:52:11.949Z</time>
      </trkpt>
      <trkpt lat="42.90764" lon="0.11677">
        <ele>1613.4</ele>
        <time>2020-12-05T16:52:12.948Z</time>
      </trkpt>
      <trkpt lat="42.90764" lon="0.11677">
        <ele>1613.4</ele>
        <time>2020-12-05T16:52:13.948Z</time>
      </trkpt>
      <trkpt lat="42.90764" lon="0.11677">
        <ele>1613.4</ele>
        <time>2020-12-05T16:52:14.948Z</time>
      </trkpt>
      <trkpt lat="42.90764" lon="0.11677">
        <ele>1613.4</ele>
        <time>2020-12-05T16:52:15.948Z</time>
      </trkpt>
      <trkpt lat="42.90757" lon="0.11693">
        <ele>1614.4</ele>
        <time>2020-12-05T16:52:16.948Z</time>
      </trkpt>
      <trkpt lat="42.90757" lon="0.11693">
        <ele>1614.4</ele>
        <time>2020-12-05T16:52:17.947Z</time>
      </trkpt>
      <trkpt lat="42.90757" lon="0.11693">
        <ele>1614.4</ele>
        <time>2020-12-05T16:52:18.948Z</time>
      </trkpt>
      <trkpt lat="42.90757" lon="0.11693">
        <ele>1614.4</ele>
        <time>2020-12-05T16:52:19.949Z</time>
      </trkpt>
      <trkpt lat="42.90754" lon="0.11702">
        <ele>1615</ele>
        <time>2020-12-05T16:52:20.95Z</time>
      </trkpt>
      <trkpt lat="42.90754" lon="0.11702">
        <ele>1615</ele>
        <time>2020-12-05T16:52:21.948Z</time>
      </trkpt>
      <trkpt lat="42.90754" lon="0.11702">
        <ele>1615</ele>
        <time>2020-12-05T16:52:22.95Z</time>
      </trkpt>
      <trkpt lat="42.90752" lon="0.11711">
        <ele>1615.2</ele>
        <time>2020-12-05T16:52:23.948Z</time>
      </trkpt>
      <trkpt lat="42.90752" lon="0.11711">
        <ele>1615.2</ele>
        <time>2020-12-05T16:52:24.949Z</time>
      </trkpt>
      <trkpt lat="42.90752" lon="0.11711">
        <ele>1615.2</ele>
        <time>2020-12-05T16:52:25.947Z</time>
      </trkpt>
      <trkpt lat="42.90752" lon="0.11711">
        <ele>1615.2</ele>
        <time>2020-12-05T16:52:26.95Z</time>
      </trkpt>
      <trkpt lat="42.90752" lon="0.11711">
        <ele>1615.2</ele>
        <time>2020-12-05T16:52:27.947Z</time>
      </trkpt>
      <trkpt lat="42.90752" lon="0.11711">
        <ele>1615.2</ele>
        <time>2020-12-05T16:52:28.947Z</time>
      </trkpt>
      <trkpt lat="42.90752" lon="0.11711">
        <ele>1615.2</ele>
        <time>2020-12-05T16:52:29.947Z</time>
      </trkpt>
      <trkpt lat="42.90747" lon="0.11729">
        <ele>1616.6</ele>
        <time>2020-12-05T16:52:30.947Z</time>
      </trkpt>
      <trkpt lat="42.90747" lon="0.11729">
        <ele>1616.6</ele>
        <time>2020-12-05T16:52:31.95Z</time>
      </trkpt>
      <trkpt lat="42.90747" lon="0.11734">
        <ele>1617</ele>
        <time>2020-12-05T16:52:32.948Z</time>
      </trkpt>
      <trkpt lat="42.90747" lon="0.11734">
        <ele>1617</ele>
        <time>2020-12-05T16:52:33.947Z</time>
      </trkpt>
      <trkpt lat="42.90747" lon="0.11734">
        <ele>1617</ele>
        <time>2020-12-05T16:52:34.948Z</time>
      </trkpt>
      <trkpt lat="42.90747" lon="0.11734">
        <ele>1617</ele>
        <time>2020-12-05T16:52:35.947Z</time>
      </trkpt>
      <trkpt lat="42.90745" lon="0.11743">
        <ele>1617.6</ele>
        <time>2020-12-05T16:52:36.947Z</time>
      </trkpt>
      <trkpt lat="42.90745" lon="0.11743">
        <ele>1617.6</ele>
        <time>2020-12-05T16:52:37.949Z</time>
      </trkpt>
      <trkpt lat="42.90745" lon="0.11743">
        <ele>1617.6</ele>
        <time>2020-12-05T16:52:38.948Z</time>
      </trkpt>
      <trkpt lat="42.90745" lon="0.11743">
        <ele>1617.6</ele>
        <time>2020-12-05T16:52:39.95Z</time>
      </trkpt>
      <trkpt lat="42.90745" lon="0.11743">
        <ele>1617.6</ele>
        <time>2020-12-05T16:52:40.948Z</time>
      </trkpt>
      <trkpt lat="42.90745" lon="0.11743">
        <ele>1617.6</ele>
        <time>2020-12-05T16:52:41.947Z</time>
      </trkpt>
      <trkpt lat="42.90745" lon="0.11743">
        <ele>1617.6</ele>
        <time>2020-12-05T16:52:42.949Z</time>
      </trkpt>
      <trkpt lat="42.90741" lon="0.11761">
        <ele>1618.8</ele>
        <time>2020-12-05T16:52:43.948Z</time>
      </trkpt>
      <trkpt lat="42.90741" lon="0.11761">
        <ele>1618.8</ele>
        <time>2020-12-05T16:52:44.949Z</time>
      </trkpt>
      <trkpt lat="42.90741" lon="0.11761">
        <ele>1618.8</ele>
        <time>2020-12-05T16:52:45.947Z</time>
      </trkpt>
      <trkpt lat="42.90741" lon="0.11761">
        <ele>1618.8</ele>
        <time>2020-12-05T16:52:46.949Z</time>
      </trkpt>
      <trkpt lat="42.90741" lon="0.11761">
        <ele>1618.8</ele>
        <time>2020-12-05T16:52:47.948Z</time>
      </trkpt>
      <trkpt lat="42.90741" lon="0.11761">
        <ele>1618.8</ele>
        <time>2020-12-05T16:52:48.949Z</time>
      </trkpt>
      <trkpt lat="42.90741" lon="0.11761">
        <ele>1618.8</ele>
        <time>2020-12-05T16:52:49.947Z</time>
      </trkpt>
      <trkpt lat="42.90741" lon="0.11761">
        <ele>1618.8</ele>
        <time>2020-12-05T16:52:50.947Z</time>
      </trkpt>
      <trkpt lat="42.90741" lon="0.11761">
        <ele>1618.8</ele>
        <time>2020-12-05T16:52:51.948Z</time>
      </trkpt>
      <trkpt lat="42.90741" lon="0.11761">
        <ele>1618.8</ele>
        <time>2020-12-05T16:52:52.949Z</time>
      </trkpt>
      <trkpt lat="42.90738" lon="0.11788">
        <ele>1619.8</ele>
        <time>2020-12-05T16:52:53.948Z</time>
      </trkpt>
      <trkpt lat="42.90738" lon="0.11788">
        <ele>1619.8</ele>
        <time>2020-12-05T16:52:54.947Z</time>
      </trkpt>
      <trkpt lat="42.90737" lon="0.11793">
        <ele>1620.6</ele>
        <time>2020-12-05T16:52:55.948Z</time>
      </trkpt>
      <trkpt lat="42.90737" lon="0.11793">
        <ele>1620.6</ele>
        <time>2020-12-05T16:52:56.948Z</time>
      </trkpt>
      <trkpt lat="42.90736" lon="0.11797">
        <ele>1620.8</ele>
        <time>2020-12-05T16:52:57.947Z</time>
      </trkpt>
      <trkpt lat="42.90736" lon="0.11797">
        <ele>1620.8</ele>
        <time>2020-12-05T16:52:58.949Z</time>
      </trkpt>
      <trkpt lat="42.90736" lon="0.11797">
        <ele>1620.8</ele>
        <time>2020-12-05T16:52:59.949Z</time>
      </trkpt>
      <trkpt lat="42.90736" lon="0.11797">
        <ele>1620.8</ele>
        <time>2020-12-05T16:53:00.95Z</time>
      </trkpt>
      <trkpt lat="42.90736" lon="0.11797">
        <ele>1620.8</ele>
        <time>2020-12-05T16:53:01.948Z</time>
      </trkpt>
      <trkpt lat="42.90736" lon="0.11797">
        <ele>1620.8</ele>
        <time>2020-12-05T16:53:02.948Z</time>
      </trkpt>
      <trkpt lat="42.90736" lon="0.11797">
        <ele>1620.8</ele>
        <time>2020-12-05T16:53:03.948Z</time>
      </trkpt>
      <trkpt lat="42.90736" lon="0.11797">
        <ele>1620.8</ele>
        <time>2020-12-05T16:53:04.947Z</time>
      </trkpt>
      <trkpt lat="42.90733" lon="0.11819">
        <ele>1622</ele>
        <time>2020-12-05T16:53:05.948Z</time>
      </trkpt>
      <trkpt lat="42.90733" lon="0.11819">
        <ele>1622</ele>
        <time>2020-12-05T16:53:06.948Z</time>
      </trkpt>
      <trkpt lat="42.90733" lon="0.11819">
        <ele>1622</ele>
        <time>2020-12-05T16:53:07.947Z</time>
      </trkpt>
      <trkpt lat="42.90733" lon="0.11819">
        <ele>1622</ele>
        <time>2020-12-05T16:53:08.947Z</time>
      </trkpt>
      <trkpt lat="42.90733" lon="0.11819">
        <ele>1622</ele>
        <time>2020-12-05T16:53:09.949Z</time>
      </trkpt>
      <trkpt lat="42.90733" lon="0.11819">
        <ele>1622</ele>
        <time>2020-12-05T16:53:10.948Z</time>
      </trkpt>
      <trkpt lat="42.90731" lon="0.11833">
        <ele>1623</ele>
        <time>2020-12-05T16:53:11.948Z</time>
      </trkpt>
      <trkpt lat="42.90731" lon="0.11833">
        <ele>1623</ele>
        <time>2020-12-05T16:53:12.947Z</time>
      </trkpt>
      <trkpt lat="42.9073" lon="0.11837">
        <ele>1623.4</ele>
        <time>2020-12-05T16:53:13.948Z</time>
      </trkpt>
      <trkpt lat="42.9073" lon="0.11837">
        <ele>1623.4</ele>
        <time>2020-12-05T16:53:14.947Z</time>
      </trkpt>
      <trkpt lat="42.9073" lon="0.11837">
        <ele>1623.4</ele>
        <time>2020-12-05T16:53:15.949Z</time>
      </trkpt>
      <trkpt lat="42.9073" lon="0.11837">
        <ele>1623.4</ele>
        <time>2020-12-05T16:53:16.949Z</time>
      </trkpt>
      <trkpt lat="42.9073" lon="0.11837">
        <ele>1623.4</ele>
        <time>2020-12-05T16:53:17.95Z</time>
      </trkpt>
      <trkpt lat="42.9073" lon="0.11837">
        <ele>1623.4</ele>
        <time>2020-12-05T16:53:18.948Z</time>
      </trkpt>
      <trkpt lat="42.90729" lon="0.11851">
        <ele>1624.6</ele>
        <time>2020-12-05T16:53:19.947Z</time>
      </trkpt>
      <trkpt lat="42.90729" lon="0.11851">
        <ele>1624.6</ele>
        <time>2020-12-05T16:53:20.949Z</time>
      </trkpt>
      <trkpt lat="42.90729" lon="0.11851">
        <ele>1624.6</ele>
        <time>2020-12-05T16:53:21.949Z</time>
      </trkpt>
      <trkpt lat="42.90729" lon="0.11851">
        <ele>1624.6</ele>
        <time>2020-12-05T16:53:22.947Z</time>
      </trkpt>
      <trkpt lat="42.90729" lon="0.11851">
        <ele>1624.6</ele>
        <time>2020-12-05T16:53:23.948Z</time>
      </trkpt>
      <trkpt lat="42.90729" lon="0.11851">
        <ele>1624.6</ele>
        <time>2020-12-05T16:53:24.947Z</time>
      </trkpt>
      <trkpt lat="42.90729" lon="0.11851">
        <ele>1624.6</ele>
        <time>2020-12-05T16:53:25.948Z</time>
      </trkpt>
      <trkpt lat="42.90727" lon="0.11864">
        <ele>1625.4</ele>
        <time>2020-12-05T16:53:26.947Z</time>
      </trkpt>
      <trkpt lat="42.90727" lon="0.11864">
        <ele>1625.4</ele>
        <time>2020-12-05T16:53:27.948Z</time>
      </trkpt>
      <trkpt lat="42.90727" lon="0.11868">
        <ele>1625.8</ele>
        <time>2020-12-05T16:53:28.949Z</time>
      </trkpt>
      <trkpt lat="42.90727" lon="0.11868">
        <ele>1625.8</ele>
        <time>2020-12-05T16:53:29.95Z</time>
      </trkpt>
      <trkpt lat="42.90727" lon="0.11868">
        <ele>1625.8</ele>
        <time>2020-12-05T16:53:30.948Z</time>
      </trkpt>
      <trkpt lat="42.90727" lon="0.11868">
        <ele>1625.8</ele>
        <time>2020-12-05T16:53:31.948Z</time>
      </trkpt>
      <trkpt lat="42.90727" lon="0.11868">
        <ele>1625.8</ele>
        <time>2020-12-05T16:53:32.952Z</time>
      </trkpt>
      <trkpt lat="42.90727" lon="0.11868">
        <ele>1625.8</ele>
        <time>2020-12-05T16:53:33.948Z</time>
      </trkpt>
      <trkpt lat="42.90727" lon="0.11868">
        <ele>1625.8</ele>
        <time>2020-12-05T16:53:34.95Z</time>
      </trkpt>
      <trkpt lat="42.90727" lon="0.11868">
        <ele>1625.8</ele>
        <time>2020-12-05T16:53:35.948Z</time>
      </trkpt>
      <trkpt lat="42.90727" lon="0.11868">
        <ele>1625.8</ele>
        <time>2020-12-05T16:53:36.948Z</time>
      </trkpt>
      <trkpt lat="42.90725" lon="0.11887">
        <ele>1627</ele>
        <time>2020-12-05T16:53:37.949Z</time>
      </trkpt>
      <trkpt lat="42.90725" lon="0.11887">
        <ele>1627</ele>
        <time>2020-12-05T16:53:38.948Z</time>
      </trkpt>
      <trkpt lat="42.90724" lon="0.11892">
        <ele>1627.4</ele>
        <time>2020-12-05T16:53:39.948Z</time>
      </trkpt>
      <trkpt lat="42.90724" lon="0.11892">
        <ele>1627.4</ele>
        <time>2020-12-05T16:53:40.948Z</time>
      </trkpt>
      <trkpt lat="42.90724" lon="0.11892">
        <ele>1627.4</ele>
        <time>2020-12-05T16:53:41.947Z</time>
      </trkpt>
      <trkpt lat="42.90724" lon="0.11892">
        <ele>1627.4</ele>
        <time>2020-12-05T16:53:42.948Z</time>
      </trkpt>
      <trkpt lat="42.90723" lon="0.11901">
        <ele>1628</ele>
        <time>2020-12-05T16:53:43.948Z</time>
      </trkpt>
      <trkpt lat="42.90723" lon="0.11901">
        <ele>1628</ele>
        <time>2020-12-05T16:53:44.948Z</time>
      </trkpt>
      <trkpt lat="42.90723" lon="0.11901">
        <ele>1628</ele>
        <time>2020-12-05T16:53:45.948Z</time>
      </trkpt>
      <trkpt lat="42.90723" lon="0.11901">
        <ele>1628</ele>
        <time>2020-12-05T16:53:46.949Z</time>
      </trkpt>
      <trkpt lat="42.90723" lon="0.11901">
        <ele>1628</ele>
        <time>2020-12-05T16:53:47.947Z</time>
      </trkpt>
      <trkpt lat="42.90722" lon="0.1191">
        <ele>1628.4</ele>
        <time>2020-12-05T16:53:48.949Z</time>
      </trkpt>
      <trkpt lat="42.90722" lon="0.1191">
        <ele>1628.4</ele>
        <time>2020-12-05T16:53:49.948Z</time>
      </trkpt>
      <trkpt lat="42.90722" lon="0.1191">
        <ele>1628.4</ele>
        <time>2020-12-05T16:53:50.95Z</time>
      </trkpt>
      <trkpt lat="42.90722" lon="0.1191">
        <ele>1628.4</ele>
        <time>2020-12-05T16:53:51.95Z</time>
      </trkpt>
      <trkpt lat="42.90722" lon="0.1191">
        <ele>1628.4</ele>
        <time>2020-12-05T16:53:52.948Z</time>
      </trkpt>
      <trkpt lat="42.90722" lon="0.1191">
        <ele>1628.4</ele>
        <time>2020-12-05T16:53:53.947Z</time>
      </trkpt>
      <trkpt lat="42.90721" lon="0.11923">
        <ele>1629.4</ele>
        <time>2020-12-05T16:53:54.949Z</time>
      </trkpt>
      <trkpt lat="42.90721" lon="0.11923">
        <ele>1629.4</ele>
        <time>2020-12-05T16:53:55.948Z</time>
      </trkpt>
      <trkpt lat="42.9072" lon="0.11927">
        <ele>1629.6</ele>
        <time>2020-12-05T16:53:56.949Z</time>
      </trkpt>
      <trkpt lat="42.9072" lon="0.11927">
        <ele>1629.6</ele>
        <time>2020-12-05T16:53:57.949Z</time>
      </trkpt>
      <trkpt lat="42.9072" lon="0.11927">
        <ele>1629.6</ele>
        <time>2020-12-05T16:53:58.947Z</time>
      </trkpt>
      <trkpt lat="42.9072" lon="0.11927">
        <ele>1629.6</ele>
        <time>2020-12-05T16:53:59.947Z</time>
      </trkpt>
      <trkpt lat="42.9072" lon="0.11927">
        <ele>1629.6</ele>
        <time>2020-12-05T16:54:00.947Z</time>
      </trkpt>
      <trkpt lat="42.9072" lon="0.11927">
        <ele>1629.6</ele>
        <time>2020-12-05T16:54:01.947Z</time>
      </trkpt>
      <trkpt lat="42.90719" lon="0.1194">
        <ele>1630.4</ele>
        <time>2020-12-05T16:54:02.949Z</time>
      </trkpt>
      <trkpt lat="42.90719" lon="0.1194">
        <ele>1630.4</ele>
        <time>2020-12-05T16:54:03.949Z</time>
      </trkpt>
      <trkpt lat="42.90719" lon="0.1194">
        <ele>1630.4</ele>
        <time>2020-12-05T16:54:04.947Z</time>
      </trkpt>
      <trkpt lat="42.90719" lon="0.1194">
        <ele>1630.4</ele>
        <time>2020-12-05T16:54:05.947Z</time>
      </trkpt>
      <trkpt lat="42.90719" lon="0.1194">
        <ele>1630.4</ele>
        <time>2020-12-05T16:54:06.947Z</time>
      </trkpt>
      <trkpt lat="42.90719" lon="0.1194">
        <ele>1630.4</ele>
        <time>2020-12-05T16:54:07.948Z</time>
      </trkpt>
      <trkpt lat="42.90719" lon="0.1194">
        <ele>1630.4</ele>
        <time>2020-12-05T16:54:08.948Z</time>
      </trkpt>
      <trkpt lat="42.90719" lon="0.1194">
        <ele>1630.4</ele>
        <time>2020-12-05T16:54:09.949Z</time>
      </trkpt>
      <trkpt lat="42.90719" lon="0.1194">
        <ele>1630.4</ele>
        <time>2020-12-05T16:54:10.947Z</time>
      </trkpt>
      <trkpt lat="42.90717" lon="0.11958">
        <ele>1631.8</ele>
        <time>2020-12-05T16:54:11.949Z</time>
      </trkpt>
      <trkpt lat="42.90717" lon="0.11958">
        <ele>1631.8</ele>
        <time>2020-12-05T16:54:12.947Z</time>
      </trkpt>
      <trkpt lat="42.90717" lon="0.11963">
        <ele>1632</ele>
        <time>2020-12-05T16:54:13.948Z</time>
      </trkpt>
      <trkpt lat="42.90717" lon="0.11963">
        <ele>1632</ele>
        <time>2020-12-05T16:54:14.947Z</time>
      </trkpt>
      <trkpt lat="42.90717" lon="0.11963">
        <ele>1632</ele>
        <time>2020-12-05T16:54:15.947Z</time>
      </trkpt>
      <trkpt lat="42.90717" lon="0.11963">
        <ele>1632</ele>
        <time>2020-12-05T16:54:16.947Z</time>
      </trkpt>
      <trkpt lat="42.90717" lon="0.11963">
        <ele>1632</ele>
        <time>2020-12-05T16:54:17.949Z</time>
      </trkpt>
      <trkpt lat="42.90717" lon="0.11963">
        <ele>1632</ele>
        <time>2020-12-05T16:54:18.948Z</time>
      </trkpt>
      <trkpt lat="42.90715" lon="0.11976">
        <ele>1633</ele>
        <time>2020-12-05T16:54:19.949Z</time>
      </trkpt>
      <trkpt lat="42.90715" lon="0.11976">
        <ele>1633</ele>
        <time>2020-12-05T16:54:20.947Z</time>
      </trkpt>
      <trkpt lat="42.90715" lon="0.11976">
        <ele>1633</ele>
        <time>2020-12-05T16:54:21.949Z</time>
      </trkpt>
      <trkpt lat="42.90715" lon="0.11976">
        <ele>1633</ele>
        <time>2020-12-05T16:54:22.947Z</time>
      </trkpt>
      <trkpt lat="42.90715" lon="0.11976">
        <ele>1633</ele>
        <time>2020-12-05T16:54:23.948Z</time>
      </trkpt>
      <trkpt lat="42.90715" lon="0.11976">
        <ele>1633</ele>
        <time>2020-12-05T16:54:24.949Z</time>
      </trkpt>
      <trkpt lat="42.90714" lon="0.11989">
        <ele>1634</ele>
        <time>2020-12-05T16:54:25.948Z</time>
      </trkpt>
      <trkpt lat="42.90714" lon="0.11989">
        <ele>1634</ele>
        <time>2020-12-05T16:54:26.947Z</time>
      </trkpt>
      <trkpt lat="42.90714" lon="0.11989">
        <ele>1634</ele>
        <time>2020-12-05T16:54:27.947Z</time>
      </trkpt>
      <trkpt lat="42.90714" lon="0.11989">
        <ele>1634</ele>
        <time>2020-12-05T16:54:28.948Z</time>
      </trkpt>
      <trkpt lat="42.90714" lon="0.11989">
        <ele>1634</ele>
        <time>2020-12-05T16:54:29.948Z</time>
      </trkpt>
      <trkpt lat="42.90714" lon="0.11989">
        <ele>1634</ele>
        <time>2020-12-05T16:54:30.949Z</time>
      </trkpt>
      <trkpt lat="42.90714" lon="0.11989">
        <ele>1634</ele>
        <time>2020-12-05T16:54:31.949Z</time>
      </trkpt>
      <trkpt lat="42.90714" lon="0.11989">
        <ele>1634</ele>
        <time>2020-12-05T16:54:32.947Z</time>
      </trkpt>
      <trkpt lat="42.90714" lon="0.11989">
        <ele>1634</ele>
        <time>2020-12-05T16:54:33.947Z</time>
      </trkpt>
      <trkpt lat="42.90714" lon="0.11989">
        <ele>1634</ele>
        <time>2020-12-05T16:54:34.947Z</time>
      </trkpt>
      <trkpt lat="42.90712" lon="0.12011">
        <ele>1635.2</ele>
        <time>2020-12-05T16:54:35.948Z</time>
      </trkpt>
      <trkpt lat="42.90712" lon="0.12011">
        <ele>1635.2</ele>
        <time>2020-12-05T16:54:36.949Z</time>
      </trkpt>
      <trkpt lat="42.90711" lon="0.12015">
        <ele>1635.6</ele>
        <time>2020-12-05T16:54:37.947Z</time>
      </trkpt>
      <trkpt lat="42.90711" lon="0.12015">
        <ele>1635.6</ele>
        <time>2020-12-05T16:54:38.949Z</time>
      </trkpt>
      <trkpt lat="42.90711" lon="0.12015">
        <ele>1635.6</ele>
        <time>2020-12-05T16:54:39.949Z</time>
      </trkpt>
      <trkpt lat="42.90711" lon="0.12015">
        <ele>1635.6</ele>
        <time>2020-12-05T16:54:40.948Z</time>
      </trkpt>
      <trkpt lat="42.90711" lon="0.12015">
        <ele>1635.6</ele>
        <time>2020-12-05T16:54:41.948Z</time>
      </trkpt>
      <trkpt lat="42.90711" lon="0.12015">
        <ele>1635.6</ele>
        <time>2020-12-05T16:54:42.948Z</time>
      </trkpt>
      <trkpt lat="42.90711" lon="0.12015">
        <ele>1635.6</ele>
        <time>2020-12-05T16:54:43.948Z</time>
      </trkpt>
      <trkpt lat="42.90709" lon="0.12029">
        <ele>1636.4</ele>
        <time>2020-12-05T16:54:44.948Z</time>
      </trkpt>
      <trkpt lat="42.90709" lon="0.12029">
        <ele>1636.4</ele>
        <time>2020-12-05T16:54:45.949Z</time>
      </trkpt>
      <trkpt lat="42.90709" lon="0.12029">
        <ele>1636.4</ele>
        <time>2020-12-05T16:54:46.949Z</time>
      </trkpt>
      <trkpt lat="42.90709" lon="0.12029">
        <ele>1636.4</ele>
        <time>2020-12-05T16:54:47.95Z</time>
      </trkpt>
      <trkpt lat="42.90708" lon="0.12037">
        <ele>1637</ele>
        <time>2020-12-05T16:54:48.948Z</time>
      </trkpt>
      <trkpt lat="42.90708" lon="0.12037">
        <ele>1637</ele>
        <time>2020-12-05T16:54:49.948Z</time>
      </trkpt>
      <trkpt lat="42.90708" lon="0.12041">
        <ele>1637.4</ele>
        <time>2020-12-05T16:54:50.948Z</time>
      </trkpt>
      <trkpt lat="42.90708" lon="0.12041">
        <ele>1637.4</ele>
        <time>2020-12-05T16:54:51.947Z</time>
      </trkpt>
      <trkpt lat="42.90708" lon="0.12041">
        <ele>1637.4</ele>
        <time>2020-12-05T16:54:52.947Z</time>
      </trkpt>
      <trkpt lat="42.90708" lon="0.12041">
        <ele>1637.4</ele>
        <time>2020-12-05T16:54:53.949Z</time>
      </trkpt>
      <trkpt lat="42.90708" lon="0.12041">
        <ele>1637.4</ele>
        <time>2020-12-05T16:54:54.949Z</time>
      </trkpt>
      <trkpt lat="42.90707" lon="0.12054">
        <ele>1638.6</ele>
        <time>2020-12-05T16:54:55.948Z</time>
      </trkpt>
      <trkpt lat="42.90707" lon="0.12054">
        <ele>1638.6</ele>
        <time>2020-12-05T16:54:56.947Z</time>
      </trkpt>
      <trkpt lat="42.90707" lon="0.12054">
        <ele>1638.6</ele>
        <time>2020-12-05T16:54:57.947Z</time>
      </trkpt>
      <trkpt lat="42.90707" lon="0.12054">
        <ele>1638.6</ele>
        <time>2020-12-05T16:54:58.949Z</time>
      </trkpt>
      <trkpt lat="42.90707" lon="0.12054">
        <ele>1638.6</ele>
        <time>2020-12-05T16:54:59.948Z</time>
      </trkpt>
      <trkpt lat="42.90707" lon="0.12067">
        <ele>1639.4</ele>
        <time>2020-12-05T16:55:00.948Z</time>
      </trkpt>
      <trkpt lat="42.90707" lon="0.12067">
        <ele>1639.4</ele>
        <time>2020-12-05T16:55:01.949Z</time>
      </trkpt>
      <trkpt lat="42.90707" lon="0.12067">
        <ele>1639.4</ele>
        <time>2020-12-05T16:55:02.947Z</time>
      </trkpt>
      <trkpt lat="42.90707" lon="0.12071">
        <ele>1639.8</ele>
        <time>2020-12-05T16:55:03.947Z</time>
      </trkpt>
      <trkpt lat="42.90707" lon="0.12071">
        <ele>1639.8</ele>
        <time>2020-12-05T16:55:04.948Z</time>
      </trkpt>
      <trkpt lat="42.90707" lon="0.12071">
        <ele>1639.8</ele>
        <time>2020-12-05T16:55:05.948Z</time>
      </trkpt>
      <trkpt lat="42.90707" lon="0.12071">
        <ele>1639.8</ele>
        <time>2020-12-05T16:55:06.949Z</time>
      </trkpt>
      <trkpt lat="42.90707" lon="0.12071">
        <ele>1639.8</ele>
        <time>2020-12-05T16:55:07.949Z</time>
      </trkpt>
      <trkpt lat="42.90707" lon="0.12071">
        <ele>1639.8</ele>
        <time>2020-12-05T16:55:08.949Z</time>
      </trkpt>
      <trkpt lat="42.90707" lon="0.12071">
        <ele>1639.8</ele>
        <time>2020-12-05T16:55:09.949Z</time>
      </trkpt>
      <trkpt lat="42.90705" lon="0.12088">
        <ele>1641</ele>
        <time>2020-12-05T16:55:10.948Z</time>
      </trkpt>
      <trkpt lat="42.90705" lon="0.12088">
        <ele>1641</ele>
        <time>2020-12-05T16:55:11.948Z</time>
      </trkpt>
      <trkpt lat="42.90705" lon="0.12088">
        <ele>1641</ele>
        <time>2020-12-05T16:55:12.948Z</time>
      </trkpt>
      <trkpt lat="42.90705" lon="0.12096">
        <ele>1641.8</ele>
        <time>2020-12-05T16:55:13.948Z</time>
      </trkpt>
      <trkpt lat="42.90705" lon="0.12096">
        <ele>1641.8</ele>
        <time>2020-12-05T16:55:14.948Z</time>
      </trkpt>
      <trkpt lat="42.90705" lon="0.12096">
        <ele>1641.8</ele>
        <time>2020-12-05T16:55:15.949Z</time>
      </trkpt>
      <trkpt lat="42.90705" lon="0.12096">
        <ele>1641.8</ele>
        <time>2020-12-05T16:55:16.947Z</time>
      </trkpt>
      <trkpt lat="42.90705" lon="0.12104">
        <ele>1642.4</ele>
        <time>2020-12-05T16:55:17.947Z</time>
      </trkpt>
      <trkpt lat="42.90705" lon="0.12104">
        <ele>1642.4</ele>
        <time>2020-12-05T16:55:18.949Z</time>
      </trkpt>
      <trkpt lat="42.90705" lon="0.12104">
        <ele>1642.4</ele>
        <time>2020-12-05T16:55:19.949Z</time>
      </trkpt>
      <trkpt lat="42.90705" lon="0.12104">
        <ele>1642.4</ele>
        <time>2020-12-05T16:55:20.947Z</time>
      </trkpt>
      <trkpt lat="42.90705" lon="0.12104">
        <ele>1642.4</ele>
        <time>2020-12-05T16:55:21.948Z</time>
      </trkpt>
      <trkpt lat="42.90705" lon="0.12104">
        <ele>1642.4</ele>
        <time>2020-12-05T16:55:22.948Z</time>
      </trkpt>
      <trkpt lat="42.90705" lon="0.12104">
        <ele>1642.4</ele>
        <time>2020-12-05T16:55:23.948Z</time>
      </trkpt>
      <trkpt lat="42.90705" lon="0.12104">
        <ele>1642.4</ele>
        <time>2020-12-05T16:55:24.948Z</time>
      </trkpt>
      <trkpt lat="42.90705" lon="0.1212">
        <ele>1643.6</ele>
        <time>2020-12-05T16:55:25.948Z</time>
      </trkpt>
      <trkpt lat="42.90705" lon="0.1212">
        <ele>1643.6</ele>
        <time>2020-12-05T16:55:26.948Z</time>
      </trkpt>
      <trkpt lat="42.90705" lon="0.1212">
        <ele>1643.6</ele>
        <time>2020-12-05T16:55:27.947Z</time>
      </trkpt>
      <trkpt lat="42.90705" lon="0.1212">
        <ele>1643.6</ele>
        <time>2020-12-05T16:55:28.949Z</time>
      </trkpt>
      <trkpt lat="42.90705" lon="0.12129">
        <ele>1644.2</ele>
        <time>2020-12-05T16:55:29.948Z</time>
      </trkpt>
      <trkpt lat="42.90705" lon="0.12129">
        <ele>1644.2</ele>
        <time>2020-12-05T16:55:30.948Z</time>
      </trkpt>
      <trkpt lat="42.90705" lon="0.12129">
        <ele>1644.2</ele>
        <time>2020-12-05T16:55:31.947Z</time>
      </trkpt>
      <trkpt lat="42.90705" lon="0.12137">
        <ele>1645</ele>
        <time>2020-12-05T16:55:32.948Z</time>
      </trkpt>
      <trkpt lat="42.90705" lon="0.12137">
        <ele>1645</ele>
        <time>2020-12-05T16:55:33.948Z</time>
      </trkpt>
      <trkpt lat="42.90705" lon="0.12137">
        <ele>1645</ele>
        <time>2020-12-05T16:55:34.948Z</time>
      </trkpt>
      <trkpt lat="42.90705" lon="0.12137">
        <ele>1645</ele>
        <time>2020-12-05T16:55:35.948Z</time>
      </trkpt>
      <trkpt lat="42.90705" lon="0.12137">
        <ele>1645</ele>
        <time>2020-12-05T16:55:36.948Z</time>
      </trkpt>
      <trkpt lat="42.90705" lon="0.12137">
        <ele>1645</ele>
        <time>2020-12-05T16:55:37.948Z</time>
      </trkpt>
      <trkpt lat="42.90705" lon="0.12137">
        <ele>1645</ele>
        <time>2020-12-05T16:55:38.947Z</time>
      </trkpt>
      <trkpt lat="42.90705" lon="0.12137">
        <ele>1645</ele>
        <time>2020-12-05T16:55:39.948Z</time>
      </trkpt>
      <trkpt lat="42.90706" lon="0.12154">
        <ele>1646</ele>
        <time>2020-12-05T16:55:40.948Z</time>
      </trkpt>
      <trkpt lat="42.90706" lon="0.12154">
        <ele>1646</ele>
        <time>2020-12-05T16:55:41.947Z</time>
      </trkpt>
      <trkpt lat="42.90706" lon="0.12154">
        <ele>1646</ele>
        <time>2020-12-05T16:55:42.949Z</time>
      </trkpt>
      <trkpt lat="42.90706" lon="0.12154">
        <ele>1646</ele>
        <time>2020-12-05T16:55:43.948Z</time>
      </trkpt>
      <trkpt lat="42.90706" lon="0.12154">
        <ele>1646</ele>
        <time>2020-12-05T16:55:44.947Z</time>
      </trkpt>
      <trkpt lat="42.90706" lon="0.12154">
        <ele>1646</ele>
        <time>2020-12-05T16:55:45.949Z</time>
      </trkpt>
      <trkpt lat="42.90706" lon="0.12154">
        <ele>1646</ele>
        <time>2020-12-05T16:55:46.949Z</time>
      </trkpt>
      <trkpt lat="42.90705" lon="0.12169">
        <ele>1647</ele>
        <time>2020-12-05T16:55:47.95Z</time>
      </trkpt>
      <trkpt lat="42.90705" lon="0.12169">
        <ele>1647</ele>
        <time>2020-12-05T16:55:48.949Z</time>
      </trkpt>
      <trkpt lat="42.90705" lon="0.12169">
        <ele>1647</ele>
        <time>2020-12-05T16:55:49.948Z</time>
      </trkpt>
      <trkpt lat="42.90705" lon="0.12169">
        <ele>1647</ele>
        <time>2020-12-05T16:55:50.947Z</time>
      </trkpt>
      <trkpt lat="42.90705" lon="0.12169">
        <ele>1647</ele>
        <time>2020-12-05T16:55:51.947Z</time>
      </trkpt>
      <trkpt lat="42.90705" lon="0.12169">
        <ele>1647</ele>
        <time>2020-12-05T16:55:52.948Z</time>
      </trkpt>
      <trkpt lat="42.90706" lon="0.12182">
        <ele>1647.8</ele>
        <time>2020-12-05T16:55:53.949Z</time>
      </trkpt>
      <trkpt lat="42.90706" lon="0.12182">
        <ele>1647.8</ele>
        <time>2020-12-05T16:55:54.948Z</time>
      </trkpt>
      <trkpt lat="42.90706" lon="0.12186">
        <ele>1648.2</ele>
        <time>2020-12-05T16:55:55.948Z</time>
      </trkpt>
      <trkpt lat="42.90706" lon="0.12186">
        <ele>1648.2</ele>
        <time>2020-12-05T16:55:56.947Z</time>
      </trkpt>
      <trkpt lat="42.90706" lon="0.12186">
        <ele>1648.2</ele>
        <time>2020-12-05T16:55:57.949Z</time>
      </trkpt>
      <trkpt lat="42.90706" lon="0.12186">
        <ele>1648.2</ele>
        <time>2020-12-05T16:55:58.949Z</time>
      </trkpt>
      <trkpt lat="42.90706" lon="0.12186">
        <ele>1648.2</ele>
        <time>2020-12-05T16:55:59.948Z</time>
      </trkpt>
      <trkpt lat="42.90706" lon="0.12186">
        <ele>1648.2</ele>
        <time>2020-12-05T16:56:00.948Z</time>
      </trkpt>
      <trkpt lat="42.90706" lon="0.12186">
        <ele>1648.2</ele>
        <time>2020-12-05T16:56:01.948Z</time>
      </trkpt>
      <trkpt lat="42.90706" lon="0.12186">
        <ele>1648.2</ele>
        <time>2020-12-05T16:56:02.949Z</time>
      </trkpt>
      <trkpt lat="42.90706" lon="0.12186">
        <ele>1648.2</ele>
        <time>2020-12-05T16:56:03.949Z</time>
      </trkpt>
      <trkpt lat="42.90706" lon="0.12186">
        <ele>1648.2</ele>
        <time>2020-12-05T16:56:04.949Z</time>
      </trkpt>
      <trkpt lat="42.90706" lon="0.12186">
        <ele>1648.2</ele>
        <time>2020-12-05T16:56:05.948Z</time>
      </trkpt>
      <trkpt lat="42.90705" lon="0.12209">
        <ele>1649.4</ele>
        <time>2020-12-05T16:56:06.947Z</time>
      </trkpt>
      <trkpt lat="42.90705" lon="0.12209">
        <ele>1649.4</ele>
        <time>2020-12-05T16:56:07.948Z</time>
      </trkpt>
      <trkpt lat="42.90705" lon="0.12209">
        <ele>1649.4</ele>
        <time>2020-12-05T16:56:08.948Z</time>
      </trkpt>
      <trkpt lat="42.90705" lon="0.12209">
        <ele>1649.4</ele>
        <time>2020-12-05T16:56:09.948Z</time>
      </trkpt>
      <trkpt lat="42.90705" lon="0.12209">
        <ele>1649.4</ele>
        <time>2020-12-05T16:56:10.947Z</time>
      </trkpt>
      <trkpt lat="42.90705" lon="0.12209">
        <ele>1649.4</ele>
        <time>2020-12-05T16:56:11.948Z</time>
      </trkpt>
      <trkpt lat="42.90705" lon="0.12209">
        <ele>1649.4</ele>
        <time>2020-12-05T16:56:12.947Z</time>
      </trkpt>
      <trkpt lat="42.90705" lon="0.12209">
        <ele>1649.4</ele>
        <time>2020-12-05T16:56:13.949Z</time>
      </trkpt>
      <trkpt lat="42.90705" lon="0.12209">
        <ele>1649.4</ele>
        <time>2020-12-05T16:56:14.948Z</time>
      </trkpt>
      <trkpt lat="42.90705" lon="0.12209">
        <ele>1649.4</ele>
        <time>2020-12-05T16:56:15.948Z</time>
      </trkpt>
      <trkpt lat="42.90705" lon="0.12209">
        <ele>1649.4</ele>
        <time>2020-12-05T16:56:16.947Z</time>
      </trkpt>
      <trkpt lat="42.90705" lon="0.12232">
        <ele>1651</ele>
        <time>2020-12-05T16:56:17.947Z</time>
      </trkpt>
      <trkpt lat="42.90705" lon="0.12232">
        <ele>1651</ele>
        <time>2020-12-05T16:56:18.947Z</time>
      </trkpt>
      <trkpt lat="42.90705" lon="0.12232">
        <ele>1651</ele>
        <time>2020-12-05T16:56:19.949Z</time>
      </trkpt>
      <trkpt lat="42.90705" lon="0.12232">
        <ele>1651</ele>
        <time>2020-12-05T16:56:20.948Z</time>
      </trkpt>
      <trkpt lat="42.90705" lon="0.12232">
        <ele>1651</ele>
        <time>2020-12-05T16:56:21.947Z</time>
      </trkpt>
      <trkpt lat="42.90705" lon="0.12232">
        <ele>1651</ele>
        <time>2020-12-05T16:56:22.947Z</time>
      </trkpt>
      <trkpt lat="42.90706" lon="0.12246">
        <ele>1651.6</ele>
        <time>2020-12-05T16:56:23.948Z</time>
      </trkpt>
      <trkpt lat="42.90706" lon="0.12246">
        <ele>1651.6</ele>
        <time>2020-12-05T16:56:24.947Z</time>
      </trkpt>
      <trkpt lat="42.90706" lon="0.1225">
        <ele>1652</ele>
        <time>2020-12-05T16:56:25.95Z</time>
      </trkpt>
      <trkpt lat="42.90706" lon="0.1225">
        <ele>1652</ele>
        <time>2020-12-05T16:56:26.947Z</time>
      </trkpt>
      <trkpt lat="42.90706" lon="0.1225">
        <ele>1652</ele>
        <time>2020-12-05T16:56:27.949Z</time>
      </trkpt>
      <trkpt lat="42.90706" lon="0.1225">
        <ele>1652</ele>
        <time>2020-12-05T16:56:28.947Z</time>
      </trkpt>
      <trkpt lat="42.90706" lon="0.1225">
        <ele>1652</ele>
        <time>2020-12-05T16:56:29.949Z</time>
      </trkpt>
      <trkpt lat="42.90706" lon="0.1225">
        <ele>1652</ele>
        <time>2020-12-05T16:56:30.95Z</time>
      </trkpt>
      <trkpt lat="42.90706" lon="0.1225">
        <ele>1652</ele>
        <time>2020-12-05T16:56:31.948Z</time>
      </trkpt>
      <trkpt lat="42.90706" lon="0.1225">
        <ele>1652</ele>
        <time>2020-12-05T16:56:32.948Z</time>
      </trkpt>
      <trkpt lat="42.90706" lon="0.12267">
        <ele>1653.2</ele>
        <time>2020-12-05T16:56:33.948Z</time>
      </trkpt>
      <trkpt lat="42.90706" lon="0.12267">
        <ele>1653.2</ele>
        <time>2020-12-05T16:56:34.948Z</time>
      </trkpt>
      <trkpt lat="42.90706" lon="0.12267">
        <ele>1653.2</ele>
        <time>2020-12-05T16:56:35.947Z</time>
      </trkpt>
      <trkpt lat="42.90706" lon="0.12267">
        <ele>1653.2</ele>
        <time>2020-12-05T16:56:36.949Z</time>
      </trkpt>
      <trkpt lat="42.90706" lon="0.12277">
        <ele>1653.8</ele>
        <time>2020-12-05T16:56:37.947Z</time>
      </trkpt>
      <trkpt lat="42.90706" lon="0.12277">
        <ele>1653.8</ele>
        <time>2020-12-05T16:56:38.948Z</time>
      </trkpt>
      <trkpt lat="42.90706" lon="0.12277">
        <ele>1653.8</ele>
        <time>2020-12-05T16:56:39.948Z</time>
      </trkpt>
      <trkpt lat="42.90706" lon="0.12277">
        <ele>1653.8</ele>
        <time>2020-12-05T16:56:40.948Z</time>
      </trkpt>
      <trkpt lat="42.90706" lon="0.12286">
        <ele>1654.4</ele>
        <time>2020-12-05T16:56:41.948Z</time>
      </trkpt>
      <trkpt lat="42.90706" lon="0.12286">
        <ele>1654.4</ele>
        <time>2020-12-05T16:56:42.948Z</time>
      </trkpt>
      <trkpt lat="42.90706" lon="0.12286">
        <ele>1654.4</ele>
        <time>2020-12-05T16:56:43.948Z</time>
      </trkpt>
      <trkpt lat="42.90706" lon="0.12286">
        <ele>1654.4</ele>
        <time>2020-12-05T16:56:44.948Z</time>
      </trkpt>
      <trkpt lat="42.90706" lon="0.12286">
        <ele>1654.4</ele>
        <time>2020-12-05T16:56:45.949Z</time>
      </trkpt>
      <trkpt lat="42.90706" lon="0.12286">
        <ele>1654.4</ele>
        <time>2020-12-05T16:56:46.95Z</time>
      </trkpt>
      <trkpt lat="42.90706" lon="0.12286">
        <ele>1654.4</ele>
        <time>2020-12-05T16:56:47.948Z</time>
      </trkpt>
      <trkpt lat="42.90706" lon="0.12286">
        <ele>1654.4</ele>
        <time>2020-12-05T16:56:48.948Z</time>
      </trkpt>
      <trkpt lat="42.90706" lon="0.12286">
        <ele>1654.4</ele>
        <time>2020-12-05T16:56:49.948Z</time>
      </trkpt>
      <trkpt lat="42.90706" lon="0.12305">
        <ele>1655.6</ele>
        <time>2020-12-05T16:56:50.948Z</time>
      </trkpt>
      <trkpt lat="42.90706" lon="0.12305">
        <ele>1655.6</ele>
        <time>2020-12-05T16:56:51.947Z</time>
      </trkpt>
      <trkpt lat="42.90706" lon="0.12305">
        <ele>1655.6</ele>
        <time>2020-12-05T16:56:52.948Z</time>
      </trkpt>
      <trkpt lat="42.90706" lon="0.12305">
        <ele>1655.6</ele>
        <time>2020-12-05T16:56:53.947Z</time>
      </trkpt>
      <trkpt lat="42.90706" lon="0.12305">
        <ele>1655.6</ele>
        <time>2020-12-05T16:56:54.948Z</time>
      </trkpt>
      <trkpt lat="42.90707" lon="0.12314">
        <ele>1656</ele>
        <time>2020-12-05T16:56:55.95Z</time>
      </trkpt>
      <trkpt lat="42.90707" lon="0.12314">
        <ele>1656</ele>
        <time>2020-12-05T16:56:56.947Z</time>
      </trkpt>
      <trkpt lat="42.90707" lon="0.12314">
        <ele>1656</ele>
        <time>2020-12-05T16:56:57.947Z</time>
      </trkpt>
      <trkpt lat="42.90707" lon="0.12314">
        <ele>1656</ele>
        <time>2020-12-05T16:56:58.947Z</time>
      </trkpt>
      <trkpt lat="42.90706" lon="0.12324">
        <ele>1656.6</ele>
        <time>2020-12-05T16:56:59.95Z</time>
      </trkpt>
      <trkpt lat="42.90706" lon="0.12324">
        <ele>1656.6</ele>
        <time>2020-12-05T16:57:00.948Z</time>
      </trkpt>
      <trkpt lat="42.90706" lon="0.12324">
        <ele>1656.6</ele>
        <time>2020-12-05T16:57:01.949Z</time>
      </trkpt>
      <trkpt lat="42.90706" lon="0.12324">
        <ele>1656.6</ele>
        <time>2020-12-05T16:57:02.947Z</time>
      </trkpt>
      <trkpt lat="42.90706" lon="0.12324">
        <ele>1656.6</ele>
        <time>2020-12-05T16:57:03.947Z</time>
      </trkpt>
      <trkpt lat="42.90706" lon="0.12324">
        <ele>1656.6</ele>
        <time>2020-12-05T16:57:04.948Z</time>
      </trkpt>
      <trkpt lat="42.90706" lon="0.12338">
        <ele>1657.6</ele>
        <time>2020-12-05T16:57:05.948Z</time>
      </trkpt>
      <trkpt lat="42.90706" lon="0.12338">
        <ele>1657.6</ele>
        <time>2020-12-05T16:57:06.948Z</time>
      </trkpt>
      <trkpt lat="42.90706" lon="0.12342">
        <ele>1657.8</ele>
        <time>2020-12-05T16:57:07.948Z</time>
      </trkpt>
      <trkpt lat="42.90706" lon="0.12342">
        <ele>1657.8</ele>
        <time>2020-12-05T16:57:08.949Z</time>
      </trkpt>
      <trkpt lat="42.90706" lon="0.12342">
        <ele>1657.8</ele>
        <time>2020-12-05T16:57:09.948Z</time>
      </trkpt>
      <trkpt lat="42.90706" lon="0.12342">
        <ele>1657.8</ele>
        <time>2020-12-05T16:57:10.949Z</time>
      </trkpt>
      <trkpt lat="42.90706" lon="0.12342">
        <ele>1657.8</ele>
        <time>2020-12-05T16:57:11.947Z</time>
      </trkpt>
      <trkpt lat="42.90706" lon="0.12342">
        <ele>1657.8</ele>
        <time>2020-12-05T16:57:12.95Z</time>
      </trkpt>
      <trkpt lat="42.90706" lon="0.12342">
        <ele>1657.8</ele>
        <time>2020-12-05T16:57:13.947Z</time>
      </trkpt>
      <trkpt lat="42.90706" lon="0.12342">
        <ele>1657.8</ele>
        <time>2020-12-05T16:57:14.948Z</time>
      </trkpt>
      <trkpt lat="42.90706" lon="0.12342">
        <ele>1657.8</ele>
        <time>2020-12-05T16:57:15.947Z</time>
      </trkpt>
      <trkpt lat="42.90706" lon="0.12342">
        <ele>1657.8</ele>
        <time>2020-12-05T16:57:16.949Z</time>
      </trkpt>
      <trkpt lat="42.90706" lon="0.12342">
        <ele>1657.8</ele>
        <time>2020-12-05T16:57:17.95Z</time>
      </trkpt>
      <trkpt lat="42.90703" lon="0.12364">
        <ele>1659</ele>
        <time>2020-12-05T16:57:18.947Z</time>
      </trkpt>
      <trkpt lat="42.90702" lon="0.12368">
        <ele>1659.6</ele>
        <time>2020-12-05T16:57:19.948Z</time>
      </trkpt>
      <trkpt lat="42.90702" lon="0.12368">
        <ele>1659.6</ele>
        <time>2020-12-05T16:57:20.948Z</time>
      </trkpt>
      <trkpt lat="42.90702" lon="0.12373">
        <ele>1660</ele>
        <time>2020-12-05T16:57:21.947Z</time>
      </trkpt>
      <trkpt lat="42.90702" lon="0.12373">
        <ele>1660</ele>
        <time>2020-12-05T16:57:22.948Z</time>
      </trkpt>
      <trkpt lat="42.90702" lon="0.12373">
        <ele>1660</ele>
        <time>2020-12-05T16:57:23.949Z</time>
      </trkpt>
      <trkpt lat="42.90702" lon="0.12373">
        <ele>1660</ele>
        <time>2020-12-05T16:57:24.947Z</time>
      </trkpt>
      <trkpt lat="42.90702" lon="0.12373">
        <ele>1660</ele>
        <time>2020-12-05T16:57:25.948Z</time>
      </trkpt>
      <trkpt lat="42.90702" lon="0.12373">
        <ele>1660</ele>
        <time>2020-12-05T16:57:26.947Z</time>
      </trkpt>
      <trkpt lat="42.90701" lon="0.12386">
        <ele>1661</ele>
        <time>2020-12-05T16:57:27.948Z</time>
      </trkpt>
      <trkpt lat="42.90701" lon="0.12386">
        <ele>1661</ele>
        <time>2020-12-05T16:57:28.947Z</time>
      </trkpt>
      <trkpt lat="42.90701" lon="0.12386">
        <ele>1661</ele>
        <time>2020-12-05T16:57:29.947Z</time>
      </trkpt>
      <trkpt lat="42.90701" lon="0.12386">
        <ele>1661</ele>
        <time>2020-12-05T16:57:30.948Z</time>
      </trkpt>
      <trkpt lat="42.90701" lon="0.12386">
        <ele>1661</ele>
        <time>2020-12-05T16:57:31.948Z</time>
      </trkpt>
      <trkpt lat="42.90701" lon="0.12386">
        <ele>1661</ele>
        <time>2020-12-05T16:57:32.947Z</time>
      </trkpt>
      <trkpt lat="42.90701" lon="0.12386">
        <ele>1661</ele>
        <time>2020-12-05T16:57:33.947Z</time>
      </trkpt>
      <trkpt lat="42.907" lon="0.12399">
        <ele>1662</ele>
        <time>2020-12-05T16:57:34.948Z</time>
      </trkpt>
      <trkpt lat="42.907" lon="0.12399">
        <ele>1662</ele>
        <time>2020-12-05T16:57:35.95Z</time>
      </trkpt>
      <trkpt lat="42.907" lon="0.12403">
        <ele>1662.2</ele>
        <time>2020-12-05T16:57:36.947Z</time>
      </trkpt>
      <trkpt lat="42.907" lon="0.12403">
        <ele>1662.2</ele>
        <time>2020-12-05T16:57:37.948Z</time>
      </trkpt>
      <trkpt lat="42.907" lon="0.12403">
        <ele>1662.2</ele>
        <time>2020-12-05T16:57:38.95Z</time>
      </trkpt>
      <trkpt lat="42.907" lon="0.12403">
        <ele>1662.2</ele>
        <time>2020-12-05T16:57:39.947Z</time>
      </trkpt>
      <trkpt lat="42.907" lon="0.12403">
        <ele>1662.2</ele>
        <time>2020-12-05T16:57:40.947Z</time>
      </trkpt>
      <trkpt lat="42.907" lon="0.12403">
        <ele>1662.2</ele>
        <time>2020-12-05T16:57:41.948Z</time>
      </trkpt>
      <trkpt lat="42.90699" lon="0.12416">
        <ele>1663</ele>
        <time>2020-12-05T16:57:42.948Z</time>
      </trkpt>
      <trkpt lat="42.90699" lon="0.12416">
        <ele>1663</ele>
        <time>2020-12-05T16:57:43.948Z</time>
      </trkpt>
      <trkpt lat="42.90699" lon="0.12416">
        <ele>1663</ele>
        <time>2020-12-05T16:57:44.947Z</time>
      </trkpt>
      <trkpt lat="42.90699" lon="0.12416">
        <ele>1663</ele>
        <time>2020-12-05T16:57:45.948Z</time>
      </trkpt>
      <trkpt lat="42.90699" lon="0.12416">
        <ele>1663</ele>
        <time>2020-12-05T16:57:46.947Z</time>
      </trkpt>
      <trkpt lat="42.90699" lon="0.12429">
        <ele>1663.6</ele>
        <time>2020-12-05T16:57:47.948Z</time>
      </trkpt>
      <trkpt lat="42.90699" lon="0.12429">
        <ele>1663.6</ele>
        <time>2020-12-05T16:57:48.949Z</time>
      </trkpt>
      <trkpt lat="42.90699" lon="0.12433">
        <ele>1664</ele>
        <time>2020-12-05T16:57:49.947Z</time>
      </trkpt>
      <trkpt lat="42.90699" lon="0.12433">
        <ele>1664</ele>
        <time>2020-12-05T16:57:50.948Z</time>
      </trkpt>
      <trkpt lat="42.90699" lon="0.12433">
        <ele>1664</ele>
        <time>2020-12-05T16:57:51.95Z</time>
      </trkpt>
      <trkpt lat="42.90699" lon="0.12433">
        <ele>1664</ele>
        <time>2020-12-05T16:57:52.947Z</time>
      </trkpt>
      <trkpt lat="42.90699" lon="0.12433">
        <ele>1664</ele>
        <time>2020-12-05T16:57:53.948Z</time>
      </trkpt>
      <trkpt lat="42.90699" lon="0.12433">
        <ele>1664</ele>
        <time>2020-12-05T16:57:54.948Z</time>
      </trkpt>
      <trkpt lat="42.90699" lon="0.12433">
        <ele>1664</ele>
        <time>2020-12-05T16:57:55.948Z</time>
      </trkpt>
      <trkpt lat="42.90699" lon="0.12449">
        <ele>1665.4</ele>
        <time>2020-12-05T16:57:56.947Z</time>
      </trkpt>
      <trkpt lat="42.90699" lon="0.12449">
        <ele>1665.4</ele>
        <time>2020-12-05T16:57:57.948Z</time>
      </trkpt>
      <trkpt lat="42.90699" lon="0.12454">
        <ele>1665.8</ele>
        <time>2020-12-05T16:57:58.949Z</time>
      </trkpt>
      <trkpt lat="42.90699" lon="0.12454">
        <ele>1665.8</ele>
        <time>2020-12-05T16:57:59.949Z</time>
      </trkpt>
      <trkpt lat="42.90699" lon="0.12454">
        <ele>1665.8</ele>
        <time>2020-12-05T16:58:00.948Z</time>
      </trkpt>
      <trkpt lat="42.90699" lon="0.12454">
        <ele>1665.8</ele>
        <time>2020-12-05T16:58:01.948Z</time>
      </trkpt>
      <trkpt lat="42.90699" lon="0.12454">
        <ele>1665.8</ele>
        <time>2020-12-05T16:58:02.948Z</time>
      </trkpt>
      <trkpt lat="42.90699" lon="0.12463">
        <ele>1666.6</ele>
        <time>2020-12-05T16:58:03.949Z</time>
      </trkpt>
      <trkpt lat="42.90699" lon="0.12463">
        <ele>1666.6</ele>
        <time>2020-12-05T16:58:04.948Z</time>
      </trkpt>
      <trkpt lat="42.90699" lon="0.12463">
        <ele>1666.6</ele>
        <time>2020-12-05T16:58:05.948Z</time>
      </trkpt>
      <trkpt lat="42.90699" lon="0.12463">
        <ele>1666.6</ele>
        <time>2020-12-05T16:58:06.949Z</time>
      </trkpt>
      <trkpt lat="42.90699" lon="0.12463">
        <ele>1666.6</ele>
        <time>2020-12-05T16:58:07.947Z</time>
      </trkpt>
      <trkpt lat="42.90699" lon="0.12463">
        <ele>1666.6</ele>
        <time>2020-12-05T16:58:08.947Z</time>
      </trkpt>
      <trkpt lat="42.90699" lon="0.12463">
        <ele>1666.6</ele>
        <time>2020-12-05T16:58:09.948Z</time>
      </trkpt>
      <trkpt lat="42.907" lon="0.12481">
        <ele>1668</ele>
        <time>2020-12-05T16:58:10.947Z</time>
      </trkpt>
      <trkpt lat="42.907" lon="0.12481">
        <ele>1668</ele>
        <time>2020-12-05T16:58:11.948Z</time>
      </trkpt>
      <trkpt lat="42.907" lon="0.12481">
        <ele>1668</ele>
        <time>2020-12-05T16:58:12.947Z</time>
      </trkpt>
      <trkpt lat="42.907" lon="0.12481">
        <ele>1668</ele>
        <time>2020-12-05T16:58:13.948Z</time>
      </trkpt>
      <trkpt lat="42.907" lon="0.12481">
        <ele>1668</ele>
        <time>2020-12-05T16:58:14.947Z</time>
      </trkpt>
      <trkpt lat="42.907" lon="0.12481">
        <ele>1668</ele>
        <time>2020-12-05T16:58:15.949Z</time>
      </trkpt>
      <trkpt lat="42.907" lon="0.12481">
        <ele>1668</ele>
        <time>2020-12-05T16:58:16.95Z</time>
      </trkpt>
      <trkpt lat="42.90701" lon="0.12494">
        <ele>1669.2</ele>
        <time>2020-12-05T16:58:17.949Z</time>
      </trkpt>
      <trkpt lat="42.90701" lon="0.12494">
        <ele>1669.2</ele>
        <time>2020-12-05T16:58:18.949Z</time>
      </trkpt>
      <trkpt lat="42.90701" lon="0.12494">
        <ele>1669.2</ele>
        <time>2020-12-05T16:58:19.947Z</time>
      </trkpt>
      <trkpt lat="42.90701" lon="0.12494">
        <ele>1669.2</ele>
        <time>2020-12-05T16:58:20.95Z</time>
      </trkpt>
      <trkpt lat="42.90701" lon="0.12494">
        <ele>1669.2</ele>
        <time>2020-12-05T16:58:21.948Z</time>
      </trkpt>
      <trkpt lat="42.90701" lon="0.12494">
        <ele>1669.2</ele>
        <time>2020-12-05T16:58:22.947Z</time>
      </trkpt>
      <trkpt lat="42.90701" lon="0.12494">
        <ele>1669.2</ele>
        <time>2020-12-05T16:58:23.949Z</time>
      </trkpt>
      <trkpt lat="42.90701" lon="0.12494">
        <ele>1669.2</ele>
        <time>2020-12-05T16:58:24.948Z</time>
      </trkpt>
      <trkpt lat="42.90702" lon="0.12512">
        <ele>1670.4</ele>
        <time>2020-12-05T16:58:25.949Z</time>
      </trkpt>
      <trkpt lat="42.90702" lon="0.12512">
        <ele>1670.4</ele>
        <time>2020-12-05T16:58:26.948Z</time>
      </trkpt>
      <trkpt lat="42.90702" lon="0.12512">
        <ele>1670.4</ele>
        <time>2020-12-05T16:58:27.949Z</time>
      </trkpt>
      <trkpt lat="42.90702" lon="0.12512">
        <ele>1670.4</ele>
        <time>2020-12-05T16:58:28.948Z</time>
      </trkpt>
      <trkpt lat="42.90702" lon="0.12512">
        <ele>1670.4</ele>
        <time>2020-12-05T16:58:29.948Z</time>
      </trkpt>
      <trkpt lat="42.90702" lon="0.12512">
        <ele>1670.4</ele>
        <time>2020-12-05T16:58:30.947Z</time>
      </trkpt>
      <trkpt lat="42.90702" lon="0.12512">
        <ele>1670.4</ele>
        <time>2020-12-05T16:58:31.949Z</time>
      </trkpt>
      <trkpt lat="42.90702" lon="0.12512">
        <ele>1670.4</ele>
        <time>2020-12-05T16:58:32.948Z</time>
      </trkpt>
      <trkpt lat="42.90702" lon="0.12512">
        <ele>1670.4</ele>
        <time>2020-12-05T16:58:33.948Z</time>
      </trkpt>
      <trkpt lat="42.90702" lon="0.12512">
        <ele>1670.4</ele>
        <time>2020-12-05T16:58:34.949Z</time>
      </trkpt>
      <trkpt lat="42.90703" lon="0.12535">
        <ele>1671.8</ele>
        <time>2020-12-05T16:58:35.948Z</time>
      </trkpt>
      <trkpt lat="42.90703" lon="0.12535">
        <ele>1671.8</ele>
        <time>2020-12-05T16:58:36.949Z</time>
      </trkpt>
      <trkpt lat="42.90704" lon="0.12539">
        <ele>1672.2</ele>
        <time>2020-12-05T16:58:37.948Z</time>
      </trkpt>
      <trkpt lat="42.90704" lon="0.12539">
        <ele>1672.2</ele>
        <time>2020-12-05T16:58:38.948Z</time>
      </trkpt>
      <trkpt lat="42.90704" lon="0.12539">
        <ele>1672.2</ele>
        <time>2020-12-05T16:58:39.948Z</time>
      </trkpt>
      <trkpt lat="42.90704" lon="0.12539">
        <ele>1672.2</ele>
        <time>2020-12-05T16:58:40.949Z</time>
      </trkpt>
      <trkpt lat="42.90704" lon="0.12539">
        <ele>1672.2</ele>
        <time>2020-12-05T16:58:41.948Z</time>
      </trkpt>
      <trkpt lat="42.90704" lon="0.12539">
        <ele>1672.2</ele>
        <time>2020-12-05T16:58:42.95Z</time>
      </trkpt>
      <trkpt lat="42.90704" lon="0.12539">
        <ele>1672.2</ele>
        <time>2020-12-05T16:58:43.949Z</time>
      </trkpt>
      <trkpt lat="42.90705" lon="0.12554">
        <ele>1673</ele>
        <time>2020-12-05T16:58:44.948Z</time>
      </trkpt>
      <trkpt lat="42.90705" lon="0.12554">
        <ele>1673</ele>
        <time>2020-12-05T16:58:45.947Z</time>
      </trkpt>
      <trkpt lat="42.90705" lon="0.12554">
        <ele>1673</ele>
        <time>2020-12-05T16:58:46.949Z</time>
      </trkpt>
      <trkpt lat="42.90705" lon="0.12554">
        <ele>1673</ele>
        <time>2020-12-05T16:58:47.948Z</time>
      </trkpt>
      <trkpt lat="42.90705" lon="0.12554">
        <ele>1673</ele>
        <time>2020-12-05T16:58:48.947Z</time>
      </trkpt>
      <trkpt lat="42.90705" lon="0.12554">
        <ele>1673</ele>
        <time>2020-12-05T16:58:49.947Z</time>
      </trkpt>
      <trkpt lat="42.90705" lon="0.12554">
        <ele>1673</ele>
        <time>2020-12-05T16:58:50.947Z</time>
      </trkpt>
      <trkpt lat="42.90705" lon="0.12554">
        <ele>1673</ele>
        <time>2020-12-05T16:58:51.947Z</time>
      </trkpt>
      <trkpt lat="42.90705" lon="0.12573">
        <ele>1674</ele>
        <time>2020-12-05T16:58:52.948Z</time>
      </trkpt>
      <trkpt lat="42.90705" lon="0.12573">
        <ele>1674</ele>
        <time>2020-12-05T16:58:53.95Z</time>
      </trkpt>
      <trkpt lat="42.90705" lon="0.12573">
        <ele>1674</ele>
        <time>2020-12-05T16:58:54.949Z</time>
      </trkpt>
      <trkpt lat="42.90705" lon="0.12573">
        <ele>1674</ele>
        <time>2020-12-05T16:58:55.948Z</time>
      </trkpt>
      <trkpt lat="42.90705" lon="0.12573">
        <ele>1674</ele>
        <time>2020-12-05T16:58:56.948Z</time>
      </trkpt>
      <trkpt lat="42.90705" lon="0.12573">
        <ele>1674</ele>
        <time>2020-12-05T16:58:57.949Z</time>
      </trkpt>
      <trkpt lat="42.90705" lon="0.12573">
        <ele>1674</ele>
        <time>2020-12-05T16:58:58.947Z</time>
      </trkpt>
      <trkpt lat="42.90705" lon="0.12573">
        <ele>1674</ele>
        <time>2020-12-05T16:58:59.949Z</time>
      </trkpt>
      <trkpt lat="42.90705" lon="0.12573">
        <ele>1674</ele>
        <time>2020-12-05T16:59:00.947Z</time>
      </trkpt>
      <trkpt lat="42.90704" lon="0.12594">
        <ele>1675</ele>
        <time>2020-12-05T16:59:01.948Z</time>
      </trkpt>
      <trkpt lat="42.90704" lon="0.12594">
        <ele>1675</ele>
        <time>2020-12-05T16:59:02.949Z</time>
      </trkpt>
      <trkpt lat="42.90704" lon="0.12594">
        <ele>1675</ele>
        <time>2020-12-05T16:59:03.948Z</time>
      </trkpt>
      <trkpt lat="42.90704" lon="0.12594">
        <ele>1675</ele>
        <time>2020-12-05T16:59:04.948Z</time>
      </trkpt>
      <trkpt lat="42.90704" lon="0.12594">
        <ele>1675</ele>
        <time>2020-12-05T16:59:05.949Z</time>
      </trkpt>
      <trkpt lat="42.90704" lon="0.12594">
        <ele>1675</ele>
        <time>2020-12-05T16:59:06.947Z</time>
      </trkpt>
      <trkpt lat="42.90704" lon="0.12594">
        <ele>1675</ele>
        <time>2020-12-05T16:59:07.95Z</time>
      </trkpt>
      <trkpt lat="42.90704" lon="0.1261">
        <ele>1675.8</ele>
        <time>2020-12-05T16:59:08.95Z</time>
      </trkpt>
      <trkpt lat="42.90704" lon="0.1261">
        <ele>1675.8</ele>
        <time>2020-12-05T16:59:09.948Z</time>
      </trkpt>
      <trkpt lat="42.90703" lon="0.12615">
        <ele>1676</ele>
        <time>2020-12-05T16:59:10.949Z</time>
      </trkpt>
      <trkpt lat="42.90703" lon="0.12615">
        <ele>1676</ele>
        <time>2020-12-05T16:59:11.949Z</time>
      </trkpt>
      <trkpt lat="42.90703" lon="0.12615">
        <ele>1676</ele>
        <time>2020-12-05T16:59:12.949Z</time>
      </trkpt>
      <trkpt lat="42.90703" lon="0.12615">
        <ele>1676</ele>
        <time>2020-12-05T16:59:13.947Z</time>
      </trkpt>
      <trkpt lat="42.90703" lon="0.12615">
        <ele>1676</ele>
        <time>2020-12-05T16:59:14.948Z</time>
      </trkpt>
      <trkpt lat="42.90703" lon="0.12615">
        <ele>1676</ele>
        <time>2020-12-05T16:59:15.949Z</time>
      </trkpt>
      <trkpt lat="42.90703" lon="0.12615">
        <ele>1676</ele>
        <time>2020-12-05T16:59:16.947Z</time>
      </trkpt>
      <trkpt lat="42.90703" lon="0.12615">
        <ele>1676</ele>
        <time>2020-12-05T16:59:17.948Z</time>
      </trkpt>
      <trkpt lat="42.90703" lon="0.12615">
        <ele>1676</ele>
        <time>2020-12-05T16:59:18.948Z</time>
      </trkpt>
      <trkpt lat="42.90702" lon="0.12635">
        <ele>1677.4</ele>
        <time>2020-12-05T16:59:19.948Z</time>
      </trkpt>
      <trkpt lat="42.90702" lon="0.12635">
        <ele>1677.4</ele>
        <time>2020-12-05T16:59:20.949Z</time>
      </trkpt>
      <trkpt lat="42.90702" lon="0.12635">
        <ele>1677.4</ele>
        <time>2020-12-05T16:59:21.948Z</time>
      </trkpt>
      <trkpt lat="42.90702" lon="0.12635">
        <ele>1677.4</ele>
        <time>2020-12-05T16:59:22.948Z</time>
      </trkpt>
      <trkpt lat="42.90702" lon="0.12635">
        <ele>1677.4</ele>
        <time>2020-12-05T16:59:23.947Z</time>
      </trkpt>
      <trkpt lat="42.90702" lon="0.12635">
        <ele>1677.4</ele>
        <time>2020-12-05T16:59:24.948Z</time>
      </trkpt>
      <trkpt lat="42.90702" lon="0.12635">
        <ele>1677.4</ele>
        <time>2020-12-05T16:59:25.948Z</time>
      </trkpt>
      <trkpt lat="42.90702" lon="0.12651">
        <ele>1678.6</ele>
        <time>2020-12-05T16:59:26.947Z</time>
      </trkpt>
      <trkpt lat="42.90702" lon="0.12651">
        <ele>1678.6</ele>
        <time>2020-12-05T16:59:27.949Z</time>
      </trkpt>
      <trkpt lat="42.90702" lon="0.12651">
        <ele>1678.6</ele>
        <time>2020-12-05T16:59:28.948Z</time>
      </trkpt>
      <trkpt lat="42.90702" lon="0.12651">
        <ele>1678.6</ele>
        <time>2020-12-05T16:59:29.949Z</time>
      </trkpt>
      <trkpt lat="42.90702" lon="0.12651">
        <ele>1678.6</ele>
        <time>2020-12-05T16:59:30.947Z</time>
      </trkpt>
      <trkpt lat="42.90701" lon="0.12661">
        <ele>1679</ele>
        <time>2020-12-05T16:59:31.947Z</time>
      </trkpt>
      <trkpt lat="42.90701" lon="0.12661">
        <ele>1679</ele>
        <time>2020-12-05T16:59:32.947Z</time>
      </trkpt>
      <trkpt lat="42.90701" lon="0.12661">
        <ele>1679</ele>
        <time>2020-12-05T16:59:33.95Z</time>
      </trkpt>
      <trkpt lat="42.90701" lon="0.12661">
        <ele>1679</ele>
        <time>2020-12-05T16:59:34.947Z</time>
      </trkpt>
      <trkpt lat="42.90701" lon="0.12661">
        <ele>1679</ele>
        <time>2020-12-05T16:59:35.949Z</time>
      </trkpt>
      <trkpt lat="42.90701" lon="0.12661">
        <ele>1679</ele>
        <time>2020-12-05T16:59:36.948Z</time>
      </trkpt>
      <trkpt lat="42.907" lon="0.12675">
        <ele>1679.8</ele>
        <time>2020-12-05T16:59:37.948Z</time>
      </trkpt>
      <trkpt lat="42.907" lon="0.12675">
        <ele>1679.8</ele>
        <time>2020-12-05T16:59:38.948Z</time>
      </trkpt>
      <trkpt lat="42.907" lon="0.12675">
        <ele>1679.8</ele>
        <time>2020-12-05T16:59:39.948Z</time>
      </trkpt>
      <trkpt lat="42.907" lon="0.12675">
        <ele>1679.8</ele>
        <time>2020-12-05T16:59:40.949Z</time>
      </trkpt>
      <trkpt lat="42.907" lon="0.12675">
        <ele>1679.8</ele>
        <time>2020-12-05T16:59:41.95Z</time>
      </trkpt>
      <trkpt lat="42.907" lon="0.12675">
        <ele>1679.8</ele>
        <time>2020-12-05T16:59:42.947Z</time>
      </trkpt>
      <trkpt lat="42.907" lon="0.12675">
        <ele>1679.8</ele>
        <time>2020-12-05T16:59:43.949Z</time>
      </trkpt>
      <trkpt lat="42.907" lon="0.12675">
        <ele>1679.8</ele>
        <time>2020-12-05T16:59:44.949Z</time>
      </trkpt>
      <trkpt lat="42.907" lon="0.12675">
        <ele>1679.8</ele>
        <time>2020-12-05T16:59:45.948Z</time>
      </trkpt>
      <trkpt lat="42.90699" lon="0.12695">
        <ele>1681</ele>
        <time>2020-12-05T16:59:46.949Z</time>
      </trkpt>
      <trkpt lat="42.90699" lon="0.12695">
        <ele>1681</ele>
        <time>2020-12-05T16:59:47.948Z</time>
      </trkpt>
      <trkpt lat="42.90699" lon="0.12695">
        <ele>1681</ele>
        <time>2020-12-05T16:59:48.947Z</time>
      </trkpt>
      <trkpt lat="42.90699" lon="0.12695">
        <ele>1681</ele>
        <time>2020-12-05T16:59:49.948Z</time>
      </trkpt>
      <trkpt lat="42.90699" lon="0.12695">
        <ele>1681</ele>
        <time>2020-12-05T16:59:50.948Z</time>
      </trkpt>
      <trkpt lat="42.90699" lon="0.12695">
        <ele>1681</ele>
        <time>2020-12-05T16:59:51.948Z</time>
      </trkpt>
      <trkpt lat="42.90699" lon="0.12695">
        <ele>1681</ele>
        <time>2020-12-05T16:59:52.948Z</time>
      </trkpt>
      <trkpt lat="42.90699" lon="0.12695">
        <ele>1681</ele>
        <time>2020-12-05T16:59:53.948Z</time>
      </trkpt>
      <trkpt lat="42.90699" lon="0.12695">
        <ele>1681</ele>
        <time>2020-12-05T16:59:54.95Z</time>
      </trkpt>
      <trkpt lat="42.90698" lon="0.12714">
        <ele>1682.2</ele>
        <time>2020-12-05T16:59:55.949Z</time>
      </trkpt>
      <trkpt lat="42.90698" lon="0.12714">
        <ele>1682.2</ele>
        <time>2020-12-05T16:59:56.948Z</time>
      </trkpt>
      <trkpt lat="42.90698" lon="0.12714">
        <ele>1682.2</ele>
        <time>2020-12-05T16:59:57.949Z</time>
      </trkpt>
      <trkpt lat="42.90698" lon="0.12714">
        <ele>1682.2</ele>
        <time>2020-12-05T16:59:58.948Z</time>
      </trkpt>
      <trkpt lat="42.90698" lon="0.12714">
        <ele>1682.2</ele>
        <time>2020-12-05T16:59:59.949Z</time>
      </trkpt>
      <trkpt lat="42.90698" lon="0.12714">
        <ele>1682.2</ele>
        <time>2020-12-05T17:00:00.948Z</time>
      </trkpt>
      <trkpt lat="42.90698" lon="0.12714">
        <ele>1682.2</ele>
        <time>2020-12-05T17:00:01.95Z</time>
      </trkpt>
      <trkpt lat="42.90697" lon="0.12728">
        <ele>1683.2</ele>
        <time>2020-12-05T17:00:02.949Z</time>
      </trkpt>
      <trkpt lat="42.90697" lon="0.12728">
        <ele>1683.2</ele>
        <time>2020-12-05T17:00:03.95Z</time>
      </trkpt>
      <trkpt lat="42.90697" lon="0.12733">
        <ele>1683.6</ele>
        <time>2020-12-05T17:00:04.947Z</time>
      </trkpt>
      <trkpt lat="42.90697" lon="0.12733">
        <ele>1683.6</ele>
        <time>2020-12-05T17:00:05.949Z</time>
      </trkpt>
      <trkpt lat="42.90697" lon="0.12733">
        <ele>1683.6</ele>
        <time>2020-12-05T17:00:06.948Z</time>
      </trkpt>
      <trkpt lat="42.90697" lon="0.12733">
        <ele>1683.6</ele>
        <time>2020-12-05T17:00:07.947Z</time>
      </trkpt>
      <trkpt lat="42.90697" lon="0.12733">
        <ele>1683.6</ele>
        <time>2020-12-05T17:00:08.947Z</time>
      </trkpt>
      <trkpt lat="42.90697" lon="0.12733">
        <ele>1683.6</ele>
        <time>2020-12-05T17:00:09.948Z</time>
      </trkpt>
      <trkpt lat="42.90697" lon="0.12733">
        <ele>1683.6</ele>
        <time>2020-12-05T17:00:10.947Z</time>
      </trkpt>
      <trkpt lat="42.90695" lon="0.12748">
        <ele>1684.4</ele>
        <time>2020-12-05T17:00:11.949Z</time>
      </trkpt>
      <trkpt lat="42.90695" lon="0.12748">
        <ele>1684.4</ele>
        <time>2020-12-05T17:00:12.947Z</time>
      </trkpt>
      <trkpt lat="42.90695" lon="0.12748">
        <ele>1684.4</ele>
        <time>2020-12-05T17:00:13.949Z</time>
      </trkpt>
      <trkpt lat="42.90695" lon="0.12748">
        <ele>1684.4</ele>
        <time>2020-12-05T17:00:14.948Z</time>
      </trkpt>
      <trkpt lat="42.90695" lon="0.12748">
        <ele>1684.4</ele>
        <time>2020-12-05T17:00:15.948Z</time>
      </trkpt>
      <trkpt lat="42.90695" lon="0.12748">
        <ele>1684.4</ele>
        <time>2020-12-05T17:00:16.947Z</time>
      </trkpt>
      <trkpt lat="42.90694" lon="0.12762">
        <ele>1685.2</ele>
        <time>2020-12-05T17:00:17.948Z</time>
      </trkpt>
      <trkpt lat="42.90694" lon="0.12762">
        <ele>1685.2</ele>
        <time>2020-12-05T17:00:18.947Z</time>
      </trkpt>
      <trkpt lat="42.90694" lon="0.12762">
        <ele>1685.2</ele>
        <time>2020-12-05T17:00:19.949Z</time>
      </trkpt>
      <trkpt lat="42.90694" lon="0.12762">
        <ele>1685.2</ele>
        <time>2020-12-05T17:00:20.949Z</time>
      </trkpt>
      <trkpt lat="42.90693" lon="0.12772">
        <ele>1685.6</ele>
        <time>2020-12-05T17:00:21.948Z</time>
      </trkpt>
      <trkpt lat="42.90693" lon="0.12772">
        <ele>1685.6</ele>
        <time>2020-12-05T17:00:22.947Z</time>
      </trkpt>
      <trkpt lat="42.90693" lon="0.12772">
        <ele>1685.6</ele>
        <time>2020-12-05T17:00:23.949Z</time>
      </trkpt>
      <trkpt lat="42.90693" lon="0.12772">
        <ele>1685.6</ele>
        <time>2020-12-05T17:00:24.948Z</time>
      </trkpt>
      <trkpt lat="42.90693" lon="0.12772">
        <ele>1685.6</ele>
        <time>2020-12-05T17:00:25.948Z</time>
      </trkpt>
      <trkpt lat="42.90693" lon="0.12772">
        <ele>1685.6</ele>
        <time>2020-12-05T17:00:26.947Z</time>
      </trkpt>
      <trkpt lat="42.90693" lon="0.12772">
        <ele>1685.6</ele>
        <time>2020-12-05T17:00:27.948Z</time>
      </trkpt>
      <trkpt lat="42.90692" lon="0.12787">
        <ele>1686.8</ele>
        <time>2020-12-05T17:00:28.948Z</time>
      </trkpt>
      <trkpt lat="42.90692" lon="0.12787">
        <ele>1686.8</ele>
        <time>2020-12-05T17:00:29.947Z</time>
      </trkpt>
      <trkpt lat="42.90692" lon="0.12787">
        <ele>1686.8</ele>
        <time>2020-12-05T17:00:30.949Z</time>
      </trkpt>
      <trkpt lat="42.90692" lon="0.12792">
        <ele>1687</ele>
        <time>2020-12-05T17:00:31.949Z</time>
      </trkpt>
      <trkpt lat="42.90692" lon="0.12792">
        <ele>1687</ele>
        <time>2020-12-05T17:00:32.948Z</time>
      </trkpt>
      <trkpt lat="42.90692" lon="0.12792">
        <ele>1687</ele>
        <time>2020-12-05T17:00:33.95Z</time>
      </trkpt>
      <trkpt lat="42.90692" lon="0.12792">
        <ele>1687</ele>
        <time>2020-12-05T17:00:34.948Z</time>
      </trkpt>
      <trkpt lat="42.90692" lon="0.12792">
        <ele>1687</ele>
        <time>2020-12-05T17:00:35.947Z</time>
      </trkpt>
      <trkpt lat="42.90692" lon="0.12792">
        <ele>1687</ele>
        <time>2020-12-05T17:00:36.948Z</time>
      </trkpt>
      <trkpt lat="42.90692" lon="0.12792">
        <ele>1687</ele>
        <time>2020-12-05T17:00:37.948Z</time>
      </trkpt>
      <trkpt lat="42.90692" lon="0.12792">
        <ele>1687</ele>
        <time>2020-12-05T17:00:38.948Z</time>
      </trkpt>
      <trkpt lat="42.9069" lon="0.12812">
        <ele>1688</ele>
        <time>2020-12-05T17:00:39.948Z</time>
      </trkpt>
      <trkpt lat="42.9069" lon="0.12812">
        <ele>1688</ele>
        <time>2020-12-05T17:00:40.948Z</time>
      </trkpt>
      <trkpt lat="42.9069" lon="0.12812">
        <ele>1688</ele>
        <time>2020-12-05T17:00:41.949Z</time>
      </trkpt>
      <trkpt lat="42.9069" lon="0.12812">
        <ele>1688</ele>
        <time>2020-12-05T17:00:42.951Z</time>
      </trkpt>
      <trkpt lat="42.9069" lon="0.12812">
        <ele>1688</ele>
        <time>2020-12-05T17:00:43.947Z</time>
      </trkpt>
      <trkpt lat="42.9069" lon="0.12812">
        <ele>1688</ele>
        <time>2020-12-05T17:00:44.948Z</time>
      </trkpt>
      <trkpt lat="42.90689" lon="0.12827">
        <ele>1688.8</ele>
        <time>2020-12-05T17:00:45.948Z</time>
      </trkpt>
      <trkpt lat="42.90689" lon="0.12827">
        <ele>1688.8</ele>
        <time>2020-12-05T17:00:46.947Z</time>
      </trkpt>
      <trkpt lat="42.90689" lon="0.12831">
        <ele>1689</ele>
        <time>2020-12-05T17:00:47.947Z</time>
      </trkpt>
      <trkpt lat="42.90689" lon="0.12831">
        <ele>1689</ele>
        <time>2020-12-05T17:00:48.948Z</time>
      </trkpt>
      <trkpt lat="42.90689" lon="0.12831">
        <ele>1689</ele>
        <time>2020-12-05T17:00:49.949Z</time>
      </trkpt>
      <trkpt lat="42.90689" lon="0.12831">
        <ele>1689</ele>
        <time>2020-12-05T17:00:50.948Z</time>
      </trkpt>
      <trkpt lat="42.90689" lon="0.12831">
        <ele>1689</ele>
        <time>2020-12-05T17:00:51.947Z</time>
      </trkpt>
      <trkpt lat="42.90689" lon="0.12831">
        <ele>1689</ele>
        <time>2020-12-05T17:00:52.948Z</time>
      </trkpt>
      <trkpt lat="42.90689" lon="0.12831">
        <ele>1689</ele>
        <time>2020-12-05T17:00:53.949Z</time>
      </trkpt>
      <trkpt lat="42.90689" lon="0.12831">
        <ele>1689</ele>
        <time>2020-12-05T17:00:54.948Z</time>
      </trkpt>
      <trkpt lat="42.90688" lon="0.12852">
        <ele>1690.2</ele>
        <time>2020-12-05T17:00:55.948Z</time>
      </trkpt>
      <trkpt lat="42.90688" lon="0.12852">
        <ele>1690.2</ele>
        <time>2020-12-05T17:00:56.947Z</time>
      </trkpt>
      <trkpt lat="42.90688" lon="0.12852">
        <ele>1690.2</ele>
        <time>2020-12-05T17:00:57.948Z</time>
      </trkpt>
      <trkpt lat="42.90688" lon="0.12852">
        <ele>1690.2</ele>
        <time>2020-12-05T17:00:58.95Z</time>
      </trkpt>
      <trkpt lat="42.90688" lon="0.12852">
        <ele>1690.2</ele>
        <time>2020-12-05T17:00:59.948Z</time>
      </trkpt>
      <trkpt lat="42.90688" lon="0.12865">
        <ele>1691.4</ele>
        <time>2020-12-05T17:01:00.947Z</time>
      </trkpt>
      <trkpt lat="42.90688" lon="0.12865">
        <ele>1691.4</ele>
        <time>2020-12-05T17:01:01.948Z</time>
      </trkpt>
      <trkpt lat="42.90688" lon="0.12865">
        <ele>1691.4</ele>
        <time>2020-12-05T17:01:02.948Z</time>
      </trkpt>
      <trkpt lat="42.90688" lon="0.12865">
        <ele>1691.4</ele>
        <time>2020-12-05T17:01:03.947Z</time>
      </trkpt>
      <trkpt lat="42.90688" lon="0.12865">
        <ele>1691.4</ele>
        <time>2020-12-05T17:01:04.948Z</time>
      </trkpt>
      <trkpt lat="42.90688" lon="0.12865">
        <ele>1691.4</ele>
        <time>2020-12-05T17:01:05.948Z</time>
      </trkpt>
      <trkpt lat="42.90687" lon="0.12883">
        <ele>1692.2</ele>
        <time>2020-12-05T17:01:06.949Z</time>
      </trkpt>
      <trkpt lat="42.90687" lon="0.12883">
        <ele>1692.2</ele>
        <time>2020-12-05T17:01:07.949Z</time>
      </trkpt>
      <trkpt lat="42.90687" lon="0.12888">
        <ele>1692.4</ele>
        <time>2020-12-05T17:01:08.947Z</time>
      </trkpt>
      <trkpt lat="42.90687" lon="0.12888">
        <ele>1692.4</ele>
        <time>2020-12-05T17:01:09.947Z</time>
      </trkpt>
      <trkpt lat="42.90687" lon="0.12888">
        <ele>1692.4</ele>
        <time>2020-12-05T17:01:10.948Z</time>
      </trkpt>
      <trkpt lat="42.90687" lon="0.12888">
        <ele>1692.4</ele>
        <time>2020-12-05T17:01:11.95Z</time>
      </trkpt>
      <trkpt lat="42.90687" lon="0.12888">
        <ele>1692.4</ele>
        <time>2020-12-05T17:01:12.948Z</time>
      </trkpt>
      <trkpt lat="42.90687" lon="0.12901">
        <ele>1693.6</ele>
        <time>2020-12-05T17:01:13.947Z</time>
      </trkpt>
      <trkpt lat="42.90687" lon="0.12901">
        <ele>1693.6</ele>
        <time>2020-12-05T17:01:14.949Z</time>
      </trkpt>
      <trkpt lat="42.90687" lon="0.12901">
        <ele>1693.6</ele>
        <time>2020-12-05T17:01:15.948Z</time>
      </trkpt>
      <trkpt lat="42.90687" lon="0.12901">
        <ele>1693.6</ele>
        <time>2020-12-05T17:01:16.948Z</time>
      </trkpt>
      <trkpt lat="42.90685" lon="0.12914">
        <ele>1694.8</ele>
        <time>2020-12-05T17:01:17.948Z</time>
      </trkpt>
      <trkpt lat="42.90685" lon="0.12914">
        <ele>1694.8</ele>
        <time>2020-12-05T17:01:18.949Z</time>
      </trkpt>
      <trkpt lat="42.90685" lon="0.12914">
        <ele>1694.8</ele>
        <time>2020-12-05T17:01:19.949Z</time>
      </trkpt>
      <trkpt lat="42.90685" lon="0.12914">
        <ele>1694.8</ele>
        <time>2020-12-05T17:01:20.948Z</time>
      </trkpt>
      <trkpt lat="42.90685" lon="0.12914">
        <ele>1694.8</ele>
        <time>2020-12-05T17:01:21.949Z</time>
      </trkpt>
      <trkpt lat="42.90685" lon="0.12914">
        <ele>1694.8</ele>
        <time>2020-12-05T17:01:22.948Z</time>
      </trkpt>
      <trkpt lat="42.90685" lon="0.12928">
        <ele>1696</ele>
        <time>2020-12-05T17:01:23.947Z</time>
      </trkpt>
      <trkpt lat="42.90685" lon="0.12928">
        <ele>1696</ele>
        <time>2020-12-05T17:01:24.948Z</time>
      </trkpt>
      <trkpt lat="42.90685" lon="0.12928">
        <ele>1696</ele>
        <time>2020-12-05T17:01:25.948Z</time>
      </trkpt>
      <trkpt lat="42.90685" lon="0.12928">
        <ele>1696</ele>
        <time>2020-12-05T17:01:26.947Z</time>
      </trkpt>
      <trkpt lat="42.90685" lon="0.12937">
        <ele>1696.6</ele>
        <time>2020-12-05T17:01:27.947Z</time>
      </trkpt>
      <trkpt lat="42.90685" lon="0.12937">
        <ele>1696.6</ele>
        <time>2020-12-05T17:01:28.95Z</time>
      </trkpt>
      <trkpt lat="42.90685" lon="0.12937">
        <ele>1696.6</ele>
        <time>2020-12-05T17:01:29.948Z</time>
      </trkpt>
      <trkpt lat="42.90684" lon="0.12945">
        <ele>1697</ele>
        <time>2020-12-05T17:01:30.948Z</time>
      </trkpt>
      <trkpt lat="42.90684" lon="0.12945">
        <ele>1697</ele>
        <time>2020-12-05T17:01:31.948Z</time>
      </trkpt>
      <trkpt lat="42.90684" lon="0.12945">
        <ele>1697</ele>
        <time>2020-12-05T17:01:32.948Z</time>
      </trkpt>
      <trkpt lat="42.90684" lon="0.12945">
        <ele>1697</ele>
        <time>2020-12-05T17:01:33.947Z</time>
      </trkpt>
      <trkpt lat="42.90684" lon="0.12945">
        <ele>1697</ele>
        <time>2020-12-05T17:01:34.948Z</time>
      </trkpt>
      <trkpt lat="42.90684" lon="0.12945">
        <ele>1697</ele>
        <time>2020-12-05T17:01:35.947Z</time>
      </trkpt>
      <trkpt lat="42.90684" lon="0.12959">
        <ele>1697.6</ele>
        <time>2020-12-05T17:01:36.948Z</time>
      </trkpt>
      <trkpt lat="42.90684" lon="0.12959">
        <ele>1697.6</ele>
        <time>2020-12-05T17:01:37.95Z</time>
      </trkpt>
      <trkpt lat="42.90684" lon="0.12959">
        <ele>1697.6</ele>
        <time>2020-12-05T17:01:38.947Z</time>
      </trkpt>
      <trkpt lat="42.90684" lon="0.12959">
        <ele>1697.6</ele>
        <time>2020-12-05T17:01:39.949Z</time>
      </trkpt>
      <trkpt lat="42.90683" lon="0.12968">
        <ele>1698</ele>
        <time>2020-12-05T17:01:40.949Z</time>
      </trkpt>
      <trkpt lat="42.90683" lon="0.12968">
        <ele>1698</ele>
        <time>2020-12-05T17:01:41.948Z</time>
      </trkpt>
      <trkpt lat="42.90683" lon="0.12968">
        <ele>1698</ele>
        <time>2020-12-05T17:01:42.947Z</time>
      </trkpt>
      <trkpt lat="42.90683" lon="0.12968">
        <ele>1698</ele>
        <time>2020-12-05T17:01:43.948Z</time>
      </trkpt>
      <trkpt lat="42.90683" lon="0.12968">
        <ele>1698</ele>
        <time>2020-12-05T17:01:44.947Z</time>
      </trkpt>
      <trkpt lat="42.90683" lon="0.12968">
        <ele>1698</ele>
        <time>2020-12-05T17:01:45.948Z</time>
      </trkpt>
      <trkpt lat="42.90683" lon="0.12968">
        <ele>1698</ele>
        <time>2020-12-05T17:01:46.948Z</time>
      </trkpt>
      <trkpt lat="42.9068" lon="0.12985">
        <ele>1699.2</ele>
        <time>2020-12-05T17:01:47.949Z</time>
      </trkpt>
      <trkpt lat="42.9068" lon="0.12985">
        <ele>1699.2</ele>
        <time>2020-12-05T17:01:48.947Z</time>
      </trkpt>
      <trkpt lat="42.9068" lon="0.12985">
        <ele>1699.2</ele>
        <time>2020-12-05T17:01:49.948Z</time>
      </trkpt>
      <trkpt lat="42.9068" lon="0.12985">
        <ele>1699.2</ele>
        <time>2020-12-05T17:01:50.948Z</time>
      </trkpt>
      <trkpt lat="42.9068" lon="0.12985">
        <ele>1699.2</ele>
        <time>2020-12-05T17:01:51.948Z</time>
      </trkpt>
      <trkpt lat="42.9068" lon="0.12985">
        <ele>1699.2</ele>
        <time>2020-12-05T17:01:52.949Z</time>
      </trkpt>
      <trkpt lat="42.90676" lon="0.13003">
        <ele>1700.2</ele>
        <time>2020-12-05T17:01:53.947Z</time>
      </trkpt>
      <trkpt lat="42.90676" lon="0.13003">
        <ele>1700.2</ele>
        <time>2020-12-05T17:01:54.948Z</time>
      </trkpt>
      <trkpt lat="42.90676" lon="0.13003">
        <ele>1700.2</ele>
        <time>2020-12-05T17:01:55.947Z</time>
      </trkpt>
      <trkpt lat="42.90676" lon="0.13003">
        <ele>1700.2</ele>
        <time>2020-12-05T17:01:56.947Z</time>
      </trkpt>
      <trkpt lat="42.90676" lon="0.13003">
        <ele>1700.2</ele>
        <time>2020-12-05T17:01:57.948Z</time>
      </trkpt>
      <trkpt lat="42.90676" lon="0.13003">
        <ele>1700.2</ele>
        <time>2020-12-05T17:01:58.949Z</time>
      </trkpt>
      <trkpt lat="42.90676" lon="0.13003">
        <ele>1700.2</ele>
        <time>2020-12-05T17:01:59.949Z</time>
      </trkpt>
      <trkpt lat="42.90673" lon="0.1302">
        <ele>1701.2</ele>
        <time>2020-12-05T17:02:00.947Z</time>
      </trkpt>
      <trkpt lat="42.90673" lon="0.1302">
        <ele>1701.2</ele>
        <time>2020-12-05T17:02:01.947Z</time>
      </trkpt>
      <trkpt lat="42.90672" lon="0.13025">
        <ele>1701.6</ele>
        <time>2020-12-05T17:02:02.948Z</time>
      </trkpt>
      <trkpt lat="42.90672" lon="0.13025">
        <ele>1701.6</ele>
        <time>2020-12-05T17:02:03.948Z</time>
      </trkpt>
      <trkpt lat="42.90672" lon="0.13025">
        <ele>1701.6</ele>
        <time>2020-12-05T17:02:04.949Z</time>
      </trkpt>
      <trkpt lat="42.90672" lon="0.13025">
        <ele>1701.6</ele>
        <time>2020-12-05T17:02:05.947Z</time>
      </trkpt>
      <trkpt lat="42.90672" lon="0.13025">
        <ele>1701.6</ele>
        <time>2020-12-05T17:02:06.95Z</time>
      </trkpt>
      <trkpt lat="42.90672" lon="0.13025">
        <ele>1701.6</ele>
        <time>2020-12-05T17:02:07.948Z</time>
      </trkpt>
      <trkpt lat="42.90672" lon="0.13025">
        <ele>1701.6</ele>
        <time>2020-12-05T17:02:08.948Z</time>
      </trkpt>
      <trkpt lat="42.90668" lon="0.13042">
        <ele>1702.4</ele>
        <time>2020-12-05T17:02:09.948Z</time>
      </trkpt>
      <trkpt lat="42.90668" lon="0.13042">
        <ele>1702.4</ele>
        <time>2020-12-05T17:02:10.948Z</time>
      </trkpt>
      <trkpt lat="42.90668" lon="0.13042">
        <ele>1702.4</ele>
        <time>2020-12-05T17:02:11.948Z</time>
      </trkpt>
      <trkpt lat="42.90668" lon="0.13042">
        <ele>1702.4</ele>
        <time>2020-12-05T17:02:12.948Z</time>
      </trkpt>
      <trkpt lat="42.90668" lon="0.13042">
        <ele>1702.4</ele>
        <time>2020-12-05T17:02:13.947Z</time>
      </trkpt>
      <trkpt lat="42.90668" lon="0.13042">
        <ele>1702.4</ele>
        <time>2020-12-05T17:02:14.948Z</time>
      </trkpt>
      <trkpt lat="42.90668" lon="0.13042">
        <ele>1702.4</ele>
        <time>2020-12-05T17:02:15.95Z</time>
      </trkpt>
      <trkpt lat="42.90668" lon="0.13042">
        <ele>1702.4</ele>
        <time>2020-12-05T17:02:16.947Z</time>
      </trkpt>
      <trkpt lat="42.90668" lon="0.13042">
        <ele>1702.4</ele>
        <time>2020-12-05T17:02:17.949Z</time>
      </trkpt>
      <trkpt lat="42.90662" lon="0.13065">
        <ele>1703.4</ele>
        <time>2020-12-05T17:02:18.947Z</time>
      </trkpt>
      <trkpt lat="42.90662" lon="0.13065">
        <ele>1703.4</ele>
        <time>2020-12-05T17:02:19.949Z</time>
      </trkpt>
      <trkpt lat="42.90661" lon="0.13071">
        <ele>1703.8</ele>
        <time>2020-12-05T17:02:20.948Z</time>
      </trkpt>
      <trkpt lat="42.90661" lon="0.13071">
        <ele>1703.8</ele>
        <time>2020-12-05T17:02:21.949Z</time>
      </trkpt>
      <trkpt lat="42.90661" lon="0.13071">
        <ele>1703.8</ele>
        <time>2020-12-05T17:02:22.948Z</time>
      </trkpt>
      <trkpt lat="42.90661" lon="0.13071">
        <ele>1703.8</ele>
        <time>2020-12-05T17:02:23.95Z</time>
      </trkpt>
      <trkpt lat="42.90661" lon="0.13071">
        <ele>1703.8</ele>
        <time>2020-12-05T17:02:24.949Z</time>
      </trkpt>
      <trkpt lat="42.90661" lon="0.13071">
        <ele>1703.8</ele>
        <time>2020-12-05T17:02:25.947Z</time>
      </trkpt>
      <trkpt lat="42.90661" lon="0.13071">
        <ele>1703.8</ele>
        <time>2020-12-05T17:02:26.949Z</time>
      </trkpt>
      <trkpt lat="42.90661" lon="0.13071">
        <ele>1703.8</ele>
        <time>2020-12-05T17:02:27.948Z</time>
      </trkpt>
      <trkpt lat="42.90661" lon="0.13071">
        <ele>1703.8</ele>
        <time>2020-12-05T17:02:28.948Z</time>
      </trkpt>
      <trkpt lat="42.90661" lon="0.13071">
        <ele>1703.8</ele>
        <time>2020-12-05T17:02:29.948Z</time>
      </trkpt>
      <trkpt lat="42.90652" lon="0.13108">
        <ele>1704.8</ele>
        <time>2020-12-05T17:02:30.949Z</time>
      </trkpt>
      <trkpt lat="42.90652" lon="0.13108">
        <ele>1704.8</ele>
        <time>2020-12-05T17:02:31.948Z</time>
      </trkpt>
      <trkpt lat="42.90652" lon="0.13108">
        <ele>1704.8</ele>
        <time>2020-12-05T17:02:32.949Z</time>
      </trkpt>
      <trkpt lat="42.90652" lon="0.13108">
        <ele>1704.8</ele>
        <time>2020-12-05T17:02:33.948Z</time>
      </trkpt>
      <trkpt lat="42.90652" lon="0.13108">
        <ele>1704.8</ele>
        <time>2020-12-05T17:02:34.949Z</time>
      </trkpt>
      <trkpt lat="42.90652" lon="0.13108">
        <ele>1704.8</ele>
        <time>2020-12-05T17:02:35.949Z</time>
      </trkpt>
      <trkpt lat="42.90652" lon="0.13108">
        <ele>1704.8</ele>
        <time>2020-12-05T17:02:36.947Z</time>
      </trkpt>
      <trkpt lat="42.90652" lon="0.13108">
        <ele>1704.8</ele>
        <time>2020-12-05T17:02:37.947Z</time>
      </trkpt>
      <trkpt lat="42.90652" lon="0.13108">
        <ele>1704.8</ele>
        <time>2020-12-05T17:02:38.948Z</time>
      </trkpt>
      <trkpt lat="42.90637" lon="0.13141">
        <ele>1705.4</ele>
        <time>2020-12-05T17:02:39.949Z</time>
      </trkpt>
      <trkpt lat="42.90633" lon="0.13146">
        <ele>1705.6</ele>
        <time>2020-12-05T17:02:40.948Z</time>
      </trkpt>
      <trkpt lat="42.90633" lon="0.13146">
        <ele>1705.6</ele>
        <time>2020-12-05T17:02:41.949Z</time>
      </trkpt>
      <trkpt lat="42.90633" lon="0.13146">
        <ele>1705.6</ele>
        <time>2020-12-05T17:02:42.947Z</time>
      </trkpt>
      <trkpt lat="42.90633" lon="0.13146">
        <ele>1705.6</ele>
        <time>2020-12-05T17:02:43.949Z</time>
      </trkpt>
      <trkpt lat="42.90633" lon="0.13146">
        <ele>1705.6</ele>
        <time>2020-12-05T17:02:44.948Z</time>
      </trkpt>
      <trkpt lat="42.90633" lon="0.13146">
        <ele>1705.6</ele>
        <time>2020-12-05T17:02:45.948Z</time>
      </trkpt>
      <trkpt lat="42.90633" lon="0.13146">
        <ele>1705.6</ele>
        <time>2020-12-05T17:02:46.948Z</time>
      </trkpt>
      <trkpt lat="42.90612" lon="0.13159">
        <ele>1705.8</ele>
        <time>2020-12-05T17:02:47.948Z</time>
      </trkpt>
      <trkpt lat="42.90612" lon="0.13159">
        <ele>1705.8</ele>
        <time>2020-12-05T17:02:48.948Z</time>
      </trkpt>
      <trkpt lat="42.90612" lon="0.13159">
        <ele>1705.8</ele>
        <time>2020-12-05T17:02:49.948Z</time>
      </trkpt>
      <trkpt lat="42.90612" lon="0.13159">
        <ele>1705.8</ele>
        <time>2020-12-05T17:02:50.947Z</time>
      </trkpt>
      <trkpt lat="42.90599" lon="0.13163">
        <ele>1706.2</ele>
        <time>2020-12-05T17:02:51.947Z</time>
      </trkpt>
      <trkpt lat="42.90599" lon="0.13163">
        <ele>1706.2</ele>
        <time>2020-12-05T17:02:52.949Z</time>
      </trkpt>
      <trkpt lat="42.90592" lon="0.13164">
        <ele>1706.2</ele>
        <time>2020-12-05T17:02:53.949Z</time>
      </trkpt>
      <trkpt lat="42.90592" lon="0.13164">
        <ele>1706.2</ele>
        <time>2020-12-05T17:02:54.948Z</time>
      </trkpt>
      <trkpt lat="42.90592" lon="0.13164">
        <ele>1706.2</ele>
        <time>2020-12-05T17:02:55.949Z</time>
      </trkpt>
      <trkpt lat="42.90592" lon="0.13164">
        <ele>1706.2</ele>
        <time>2020-12-05T17:02:56.948Z</time>
      </trkpt>
      <trkpt lat="42.9058" lon="0.13162">
        <ele>1706.2</ele>
        <time>2020-12-05T17:02:57.948Z</time>
      </trkpt>
      <trkpt lat="42.9058" lon="0.13162">
        <ele>1706.2</ele>
        <time>2020-12-05T17:02:58.948Z</time>
      </trkpt>
      <trkpt lat="42.9058" lon="0.13162">
        <ele>1706.2</ele>
        <time>2020-12-05T17:02:59.948Z</time>
      </trkpt>
      <trkpt lat="42.9058" lon="0.13162">
        <ele>1706.2</ele>
        <time>2020-12-05T17:03:00.949Z</time>
      </trkpt>
      <trkpt lat="42.9058" lon="0.13162">
        <ele>1706.2</ele>
        <time>2020-12-05T17:03:01.949Z</time>
      </trkpt>
      <trkpt lat="42.90566" lon="0.13149">
        <ele>1706.4</ele>
        <time>2020-12-05T17:03:02.948Z</time>
      </trkpt>
      <trkpt lat="42.90566" lon="0.13149">
        <ele>1706.4</ele>
        <time>2020-12-05T17:03:03.949Z</time>
      </trkpt>
      <trkpt lat="42.90566" lon="0.13149">
        <ele>1706.4</ele>
        <time>2020-12-05T17:03:04.949Z</time>
      </trkpt>
      <trkpt lat="42.90566" lon="0.13149">
        <ele>1706.4</ele>
        <time>2020-12-05T17:03:05.949Z</time>
      </trkpt>
      <trkpt lat="42.90559" lon="0.13129">
        <ele>1706.6</ele>
        <time>2020-12-05T17:03:06.949Z</time>
      </trkpt>
      <trkpt lat="42.90559" lon="0.13129">
        <ele>1706.6</ele>
        <time>2020-12-05T17:03:07.949Z</time>
      </trkpt>
      <trkpt lat="42.90558" lon="0.13122">
        <ele>1706.6</ele>
        <time>2020-12-05T17:03:08.949Z</time>
      </trkpt>
      <trkpt lat="42.90558" lon="0.13122">
        <ele>1706.6</ele>
        <time>2020-12-05T17:03:09.947Z</time>
      </trkpt>
      <trkpt lat="42.90558" lon="0.13122">
        <ele>1706.6</ele>
        <time>2020-12-05T17:03:10.95Z</time>
      </trkpt>
      <trkpt lat="42.90556" lon="0.13109">
        <ele>1706.8</ele>
        <time>2020-12-05T17:03:11.95Z</time>
      </trkpt>
      <trkpt lat="42.90556" lon="0.13109">
        <ele>1706.8</ele>
        <time>2020-12-05T17:03:12.947Z</time>
      </trkpt>
      <trkpt lat="42.90556" lon="0.13109">
        <ele>1706.8</ele>
        <time>2020-12-05T17:03:13.948Z</time>
      </trkpt>
      <trkpt lat="42.90553" lon="0.13091">
        <ele>1707.4</ele>
        <time>2020-12-05T17:03:14.947Z</time>
      </trkpt>
      <trkpt lat="42.90553" lon="0.13091">
        <ele>1707.4</ele>
        <time>2020-12-05T17:03:15.947Z</time>
      </trkpt>
      <trkpt lat="42.90552" lon="0.13085">
        <ele>1707.8</ele>
        <time>2020-12-05T17:03:16.947Z</time>
      </trkpt>
      <trkpt lat="42.90552" lon="0.13085">
        <ele>1707.8</ele>
        <time>2020-12-05T17:03:17.947Z</time>
      </trkpt>
      <trkpt lat="42.90552" lon="0.13085">
        <ele>1707.8</ele>
        <time>2020-12-05T17:03:18.947Z</time>
      </trkpt>
      <trkpt lat="42.9055" lon="0.13079">
        <ele>1708</ele>
        <time>2020-12-05T17:03:19.948Z</time>
      </trkpt>
      <trkpt lat="42.9055" lon="0.13079">
        <ele>1708</ele>
        <time>2020-12-05T17:03:20.948Z</time>
      </trkpt>
      <trkpt lat="42.9055" lon="0.13079">
        <ele>1708</ele>
        <time>2020-12-05T17:03:21.947Z</time>
      </trkpt>
      <trkpt lat="42.9055" lon="0.13079">
        <ele>1708</ele>
        <time>2020-12-05T17:03:22.948Z</time>
      </trkpt>
      <trkpt lat="42.9055" lon="0.13079">
        <ele>1708</ele>
        <time>2020-12-05T17:03:23.948Z</time>
      </trkpt>
      <trkpt lat="42.90547" lon="0.13068">
        <ele>1708.8</ele>
        <time>2020-12-05T17:03:24.947Z</time>
      </trkpt>
      <trkpt lat="42.90547" lon="0.13068">
        <ele>1708.8</ele>
        <time>2020-12-05T17:03:25.949Z</time>
      </trkpt>
      <trkpt lat="42.90547" lon="0.13068">
        <ele>1708.8</ele>
        <time>2020-12-05T17:03:26.948Z</time>
      </trkpt>
      <trkpt lat="42.90545" lon="0.13064">
        <ele>1709.2</ele>
        <time>2020-12-05T17:03:27.947Z</time>
      </trkpt>
      <trkpt lat="42.90545" lon="0.13064">
        <ele>1709.2</ele>
        <time>2020-12-05T17:03:28.949Z</time>
      </trkpt>
      <trkpt lat="42.90545" lon="0.13064">
        <ele>1709.2</ele>
        <time>2020-12-05T17:03:29.948Z</time>
      </trkpt>
      <trkpt lat="42.90545" lon="0.13064">
        <ele>1709.2</ele>
        <time>2020-12-05T17:03:30.947Z</time>
      </trkpt>
      <trkpt lat="42.90545" lon="0.13064">
        <ele>1709.2</ele>
        <time>2020-12-05T17:03:31.948Z</time>
      </trkpt>
      <trkpt lat="42.90545" lon="0.13064">
        <ele>1709.2</ele>
        <time>2020-12-05T17:03:32.948Z</time>
      </trkpt>
      <trkpt lat="42.90545" lon="0.13064">
        <ele>1709.2</ele>
        <time>2020-12-05T17:03:33.947Z</time>
      </trkpt>
      <trkpt lat="42.90538" lon="0.13051">
        <ele>1710.6</ele>
        <time>2020-12-05T17:03:34.947Z</time>
      </trkpt>
      <trkpt lat="42.90538" lon="0.13051">
        <ele>1710.6</ele>
        <time>2020-12-05T17:03:35.948Z</time>
      </trkpt>
      <trkpt lat="42.90538" lon="0.13051">
        <ele>1710.6</ele>
        <time>2020-12-05T17:03:36.949Z</time>
      </trkpt>
      <trkpt lat="42.90538" lon="0.13051">
        <ele>1710.6</ele>
        <time>2020-12-05T17:03:37.947Z</time>
      </trkpt>
      <trkpt lat="42.90538" lon="0.13051">
        <ele>1710.6</ele>
        <time>2020-12-05T17:03:38.948Z</time>
      </trkpt>
      <trkpt lat="42.90538" lon="0.13051">
        <ele>1710.6</ele>
        <time>2020-12-05T17:03:39.948Z</time>
      </trkpt>
      <trkpt lat="42.90538" lon="0.13051">
        <ele>1710.6</ele>
        <time>2020-12-05T17:03:40.948Z</time>
      </trkpt>
      <trkpt lat="42.90532" lon="0.1304">
        <ele>1711.6</ele>
        <time>2020-12-05T17:03:41.949Z</time>
      </trkpt>
      <trkpt lat="42.90532" lon="0.1304">
        <ele>1711.6</ele>
        <time>2020-12-05T17:03:42.948Z</time>
      </trkpt>
      <trkpt lat="42.90532" lon="0.1304">
        <ele>1711.6</ele>
        <time>2020-12-05T17:03:43.948Z</time>
      </trkpt>
      <trkpt lat="42.90532" lon="0.1304">
        <ele>1711.6</ele>
        <time>2020-12-05T17:03:44.948Z</time>
      </trkpt>
      <trkpt lat="42.90532" lon="0.1304">
        <ele>1711.6</ele>
        <time>2020-12-05T17:03:45.948Z</time>
      </trkpt>
      <trkpt lat="42.90532" lon="0.1304">
        <ele>1711.6</ele>
        <time>2020-12-05T17:03:46.947Z</time>
      </trkpt>
      <trkpt lat="42.90527" lon="0.13033">
        <ele>1712.8</ele>
        <time>2020-12-05T17:03:47.947Z</time>
      </trkpt>
      <trkpt lat="42.90527" lon="0.13033">
        <ele>1712.8</ele>
        <time>2020-12-05T17:03:48.948Z</time>
      </trkpt>
      <trkpt lat="42.90527" lon="0.13033">
        <ele>1712.8</ele>
        <time>2020-12-05T17:03:49.947Z</time>
      </trkpt>
      <trkpt lat="42.90527" lon="0.13033">
        <ele>1712.8</ele>
        <time>2020-12-05T17:03:50.947Z</time>
      </trkpt>
      <trkpt lat="42.90527" lon="0.13033">
        <ele>1712.8</ele>
        <time>2020-12-05T17:03:51.947Z</time>
      </trkpt>
      <trkpt lat="42.90527" lon="0.13033">
        <ele>1712.8</ele>
        <time>2020-12-05T17:03:52.947Z</time>
      </trkpt>
      <trkpt lat="42.90527" lon="0.13033">
        <ele>1712.8</ele>
        <time>2020-12-05T17:03:53.949Z</time>
      </trkpt>
      <trkpt lat="42.90527" lon="0.13033">
        <ele>1712.8</ele>
        <time>2020-12-05T17:03:54.948Z</time>
      </trkpt>
      <trkpt lat="42.90527" lon="0.13033">
        <ele>1712.8</ele>
        <time>2020-12-05T17:03:55.949Z</time>
      </trkpt>
      <trkpt lat="42.90515" lon="0.13021">
        <ele>1714</ele>
        <time>2020-12-05T17:03:56.948Z</time>
      </trkpt>
      <trkpt lat="42.90515" lon="0.13021">
        <ele>1714</ele>
        <time>2020-12-05T17:03:57.95Z</time>
      </trkpt>
      <trkpt lat="42.90515" lon="0.13021">
        <ele>1714</ele>
        <time>2020-12-05T17:03:58.947Z</time>
      </trkpt>
      <trkpt lat="42.90515" lon="0.13021">
        <ele>1714</ele>
        <time>2020-12-05T17:03:59.947Z</time>
      </trkpt>
      <trkpt lat="42.90515" lon="0.13021">
        <ele>1714</ele>
        <time>2020-12-05T17:04:00.947Z</time>
      </trkpt>
      <trkpt lat="42.90515" lon="0.13021">
        <ele>1714</ele>
        <time>2020-12-05T17:04:01.947Z</time>
      </trkpt>
      <trkpt lat="42.90515" lon="0.13021">
        <ele>1714</ele>
        <time>2020-12-05T17:04:02.947Z</time>
      </trkpt>
      <trkpt lat="42.90515" lon="0.13021">
        <ele>1714</ele>
        <time>2020-12-05T17:04:03.948Z</time>
      </trkpt>
      <trkpt lat="42.90504" lon="0.13013">
        <ele>1715</ele>
        <time>2020-12-05T17:04:04.948Z</time>
      </trkpt>
      <trkpt lat="42.90504" lon="0.13013">
        <ele>1715</ele>
        <time>2020-12-05T17:04:05.947Z</time>
      </trkpt>
      <trkpt lat="42.90504" lon="0.13013">
        <ele>1715</ele>
        <time>2020-12-05T17:04:06.949Z</time>
      </trkpt>
      <trkpt lat="42.90504" lon="0.13013">
        <ele>1715</ele>
        <time>2020-12-05T17:04:07.95Z</time>
      </trkpt>
      <trkpt lat="42.90504" lon="0.13013">
        <ele>1715</ele>
        <time>2020-12-05T17:04:08.948Z</time>
      </trkpt>
      <trkpt lat="42.90504" lon="0.13013">
        <ele>1715</ele>
        <time>2020-12-05T17:04:09.949Z</time>
      </trkpt>
      <trkpt lat="42.90504" lon="0.13013">
        <ele>1715</ele>
        <time>2020-12-05T17:04:10.947Z</time>
      </trkpt>
      <trkpt lat="42.90504" lon="0.13013">
        <ele>1715</ele>
        <time>2020-12-05T17:04:11.949Z</time>
      </trkpt>
      <trkpt lat="42.90504" lon="0.13013">
        <ele>1715</ele>
        <time>2020-12-05T17:04:12.947Z</time>
      </trkpt>
      <trkpt lat="42.90491" lon="0.13006">
        <ele>1716</ele>
        <time>2020-12-05T17:04:13.947Z</time>
      </trkpt>
      <trkpt lat="42.90491" lon="0.13006">
        <ele>1716</ele>
        <time>2020-12-05T17:04:14.95Z</time>
      </trkpt>
      <trkpt lat="42.90491" lon="0.13006">
        <ele>1716</ele>
        <time>2020-12-05T17:04:15.95Z</time>
      </trkpt>
      <trkpt lat="42.90491" lon="0.13006">
        <ele>1716</ele>
        <time>2020-12-05T17:04:16.949Z</time>
      </trkpt>
      <trkpt lat="42.90491" lon="0.13006">
        <ele>1716</ele>
        <time>2020-12-05T17:04:17.948Z</time>
      </trkpt>
      <trkpt lat="42.90491" lon="0.13006">
        <ele>1716</ele>
        <time>2020-12-05T17:04:18.948Z</time>
      </trkpt>
      <trkpt lat="42.90491" lon="0.13006">
        <ele>1716</ele>
        <time>2020-12-05T17:04:19.949Z</time>
      </trkpt>
      <trkpt lat="42.90482" lon="0.13001">
        <ele>1717.2</ele>
        <time>2020-12-05T17:04:20.948Z</time>
      </trkpt>
      <trkpt lat="42.90482" lon="0.13001">
        <ele>1717.2</ele>
        <time>2020-12-05T17:04:21.948Z</time>
      </trkpt>
      <trkpt lat="42.90482" lon="0.13001">
        <ele>1717.2</ele>
        <time>2020-12-05T17:04:22.948Z</time>
      </trkpt>
      <trkpt lat="42.90482" lon="0.13001">
        <ele>1717.2</ele>
        <time>2020-12-05T17:04:23.95Z</time>
      </trkpt>
      <trkpt lat="42.90482" lon="0.13001">
        <ele>1717.2</ele>
        <time>2020-12-05T17:04:24.947Z</time>
      </trkpt>
      <trkpt lat="42.90477" lon="0.12997">
        <ele>1717.8</ele>
        <time>2020-12-05T17:04:25.948Z</time>
      </trkpt>
      <trkpt lat="42.90477" lon="0.12997">
        <ele>1717.8</ele>
        <time>2020-12-05T17:04:26.949Z</time>
      </trkpt>
      <trkpt lat="42.90477" lon="0.12997">
        <ele>1717.8</ele>
        <time>2020-12-05T17:04:27.949Z</time>
      </trkpt>
      <trkpt lat="42.90477" lon="0.12997">
        <ele>1717.8</ele>
        <time>2020-12-05T17:04:28.949Z</time>
      </trkpt>
      <trkpt lat="42.90477" lon="0.12997">
        <ele>1717.8</ele>
        <time>2020-12-05T17:04:29.948Z</time>
      </trkpt>
      <trkpt lat="42.90471" lon="0.12992">
        <ele>1718.4</ele>
        <time>2020-12-05T17:04:30.947Z</time>
      </trkpt>
      <trkpt lat="42.90471" lon="0.12992">
        <ele>1718.4</ele>
        <time>2020-12-05T17:04:31.949Z</time>
      </trkpt>
      <trkpt lat="42.90471" lon="0.12992">
        <ele>1718.4</ele>
        <time>2020-12-05T17:04:32.948Z</time>
      </trkpt>
      <trkpt lat="42.90471" lon="0.12992">
        <ele>1718.4</ele>
        <time>2020-12-05T17:04:33.95Z</time>
      </trkpt>
      <trkpt lat="42.90471" lon="0.12992">
        <ele>1718.4</ele>
        <time>2020-12-05T17:04:34.948Z</time>
      </trkpt>
      <trkpt lat="42.90471" lon="0.12992">
        <ele>1718.4</ele>
        <time>2020-12-05T17:04:35.948Z</time>
      </trkpt>
      <trkpt lat="42.90471" lon="0.12992">
        <ele>1718.4</ele>
        <time>2020-12-05T17:04:36.947Z</time>
      </trkpt>
      <trkpt lat="42.90471" lon="0.12992">
        <ele>1718.4</ele>
        <time>2020-12-05T17:04:37.947Z</time>
      </trkpt>
      <trkpt lat="42.90461" lon="0.12981">
        <ele>1719.6</ele>
        <time>2020-12-05T17:04:38.947Z</time>
      </trkpt>
      <trkpt lat="42.90461" lon="0.12981">
        <ele>1719.6</ele>
        <time>2020-12-05T17:04:39.947Z</time>
      </trkpt>
      <trkpt lat="42.90458" lon="0.12978">
        <ele>1719.8</ele>
        <time>2020-12-05T17:04:40.947Z</time>
      </trkpt>
      <trkpt lat="42.90458" lon="0.12978">
        <ele>1719.8</ele>
        <time>2020-12-05T17:04:41.949Z</time>
      </trkpt>
      <trkpt lat="42.90458" lon="0.12978">
        <ele>1719.8</ele>
        <time>2020-12-05T17:04:42.947Z</time>
      </trkpt>
      <trkpt lat="42.90458" lon="0.12978">
        <ele>1719.8</ele>
        <time>2020-12-05T17:04:43.948Z</time>
      </trkpt>
      <trkpt lat="42.90458" lon="0.12978">
        <ele>1719.8</ele>
        <time>2020-12-05T17:04:44.947Z</time>
      </trkpt>
      <trkpt lat="42.90458" lon="0.12978">
        <ele>1719.8</ele>
        <time>2020-12-05T17:04:45.948Z</time>
      </trkpt>
      <trkpt lat="42.90458" lon="0.12978">
        <ele>1719.8</ele>
        <time>2020-12-05T17:04:46.948Z</time>
      </trkpt>
      <trkpt lat="42.90453" lon="0.12968">
        <ele>1720.6</ele>
        <time>2020-12-05T17:04:47.947Z</time>
      </trkpt>
      <trkpt lat="42.90453" lon="0.12968">
        <ele>1720.6</ele>
        <time>2020-12-05T17:04:48.948Z</time>
      </trkpt>
      <trkpt lat="42.90453" lon="0.12968">
        <ele>1720.6</ele>
        <time>2020-12-05T17:04:49.948Z</time>
      </trkpt>
      <trkpt lat="42.90453" lon="0.12968">
        <ele>1720.6</ele>
        <time>2020-12-05T17:04:50.947Z</time>
      </trkpt>
      <trkpt lat="42.90453" lon="0.12968">
        <ele>1720.6</ele>
        <time>2020-12-05T17:04:51.947Z</time>
      </trkpt>
      <trkpt lat="42.90453" lon="0.12968">
        <ele>1720.6</ele>
        <time>2020-12-05T17:04:52.948Z</time>
      </trkpt>
      <trkpt lat="42.90448" lon="0.12957">
        <ele>1721.8</ele>
        <time>2020-12-05T17:04:53.949Z</time>
      </trkpt>
      <trkpt lat="42.90448" lon="0.12957">
        <ele>1721.8</ele>
        <time>2020-12-05T17:04:54.948Z</time>
      </trkpt>
      <trkpt lat="42.90448" lon="0.12957">
        <ele>1721.8</ele>
        <time>2020-12-05T17:04:55.947Z</time>
      </trkpt>
      <trkpt lat="42.90448" lon="0.12957">
        <ele>1721.8</ele>
        <time>2020-12-05T17:04:56.949Z</time>
      </trkpt>
      <trkpt lat="42.90448" lon="0.12957">
        <ele>1721.8</ele>
        <time>2020-12-05T17:04:57.947Z</time>
      </trkpt>
      <trkpt lat="42.90448" lon="0.12957">
        <ele>1721.8</ele>
        <time>2020-12-05T17:04:58.948Z</time>
      </trkpt>
      <trkpt lat="42.90448" lon="0.12957">
        <ele>1721.8</ele>
        <time>2020-12-05T17:04:59.947Z</time>
      </trkpt>
      <trkpt lat="42.90443" lon="0.12943">
        <ele>1723</ele>
        <time>2020-12-05T17:05:00.947Z</time>
      </trkpt>
      <trkpt lat="42.90443" lon="0.12943">
        <ele>1723</ele>
        <time>2020-12-05T17:05:01.947Z</time>
      </trkpt>
      <trkpt lat="42.90443" lon="0.12943">
        <ele>1723</ele>
        <time>2020-12-05T17:05:02.948Z</time>
      </trkpt>
      <trkpt lat="42.90443" lon="0.12943">
        <ele>1723</ele>
        <time>2020-12-05T17:05:03.949Z</time>
      </trkpt>
      <trkpt lat="42.90443" lon="0.12943">
        <ele>1723</ele>
        <time>2020-12-05T17:05:04.949Z</time>
      </trkpt>
      <trkpt lat="42.90441" lon="0.12932">
        <ele>1723.8</ele>
        <time>2020-12-05T17:05:05.948Z</time>
      </trkpt>
      <trkpt lat="42.90441" lon="0.12932">
        <ele>1723.8</ele>
        <time>2020-12-05T17:05:06.949Z</time>
      </trkpt>
      <trkpt lat="42.90441" lon="0.12932">
        <ele>1723.8</ele>
        <time>2020-12-05T17:05:07.947Z</time>
      </trkpt>
      <trkpt lat="42.90441" lon="0.12932">
        <ele>1723.8</ele>
        <time>2020-12-05T17:05:08.948Z</time>
      </trkpt>
      <trkpt lat="42.90439" lon="0.12924">
        <ele>1724.4</ele>
        <time>2020-12-05T17:05:09.948Z</time>
      </trkpt>
      <trkpt lat="42.90439" lon="0.12924">
        <ele>1724.4</ele>
        <time>2020-12-05T17:05:10.948Z</time>
      </trkpt>
      <trkpt lat="42.90439" lon="0.12924">
        <ele>1724.4</ele>
        <time>2020-12-05T17:05:11.948Z</time>
      </trkpt>
      <trkpt lat="42.90439" lon="0.12924">
        <ele>1724.4</ele>
        <time>2020-12-05T17:05:12.949Z</time>
      </trkpt>
      <trkpt lat="42.90439" lon="0.12924">
        <ele>1724.4</ele>
        <time>2020-12-05T17:05:13.948Z</time>
      </trkpt>
      <trkpt lat="42.90437" lon="0.12915">
        <ele>1725.6</ele>
        <time>2020-12-05T17:05:14.947Z</time>
      </trkpt>
      <trkpt lat="42.90437" lon="0.12915">
        <ele>1725.6</ele>
        <time>2020-12-05T17:05:15.948Z</time>
      </trkpt>
      <trkpt lat="42.90437" lon="0.12915">
        <ele>1725.6</ele>
        <time>2020-12-05T17:05:16.949Z</time>
      </trkpt>
      <trkpt lat="42.90437" lon="0.12915">
        <ele>1725.6</ele>
        <time>2020-12-05T17:05:17.948Z</time>
      </trkpt>
      <trkpt lat="42.90437" lon="0.12915">
        <ele>1725.6</ele>
        <time>2020-12-05T17:05:18.948Z</time>
      </trkpt>
      <trkpt lat="42.90437" lon="0.12915">
        <ele>1725.6</ele>
        <time>2020-12-05T17:05:19.948Z</time>
      </trkpt>
      <trkpt lat="42.90435" lon="0.12901">
        <ele>1726.4</ele>
        <time>2020-12-05T17:05:20.949Z</time>
      </trkpt>
      <trkpt lat="42.90435" lon="0.12901">
        <ele>1726.4</ele>
        <time>2020-12-05T17:05:21.947Z</time>
      </trkpt>
      <trkpt lat="42.90434" lon="0.12897">
        <ele>1726.6</ele>
        <time>2020-12-05T17:05:22.948Z</time>
      </trkpt>
      <trkpt lat="42.90434" lon="0.12897">
        <ele>1726.6</ele>
        <time>2020-12-05T17:05:23.951Z</time>
      </trkpt>
      <trkpt lat="42.90434" lon="0.12897">
        <ele>1726.6</ele>
        <time>2020-12-05T17:05:24.947Z</time>
      </trkpt>
      <trkpt lat="42.90434" lon="0.12897">
        <ele>1726.6</ele>
        <time>2020-12-05T17:05:25.947Z</time>
      </trkpt>
      <trkpt lat="42.90434" lon="0.12897">
        <ele>1726.6</ele>
        <time>2020-12-05T17:05:26.948Z</time>
      </trkpt>
      <trkpt lat="42.90434" lon="0.12897">
        <ele>1726.6</ele>
        <time>2020-12-05T17:05:27.949Z</time>
      </trkpt>
      <trkpt lat="42.90434" lon="0.12897">
        <ele>1726.6</ele>
        <time>2020-12-05T17:05:28.948Z</time>
      </trkpt>
      <trkpt lat="42.90431" lon="0.12874">
        <ele>1727.8</ele>
        <time>2020-12-05T17:05:29.947Z</time>
      </trkpt>
      <trkpt lat="42.90431" lon="0.12874">
        <ele>1727.8</ele>
        <time>2020-12-05T17:05:30.948Z</time>
      </trkpt>
      <trkpt lat="42.90431" lon="0.12874">
        <ele>1727.8</ele>
        <time>2020-12-05T17:05:31.948Z</time>
      </trkpt>
      <trkpt lat="42.90428" lon="0.12862">
        <ele>1728.2</ele>
        <time>2020-12-05T17:05:32.948Z</time>
      </trkpt>
      <trkpt lat="42.90428" lon="0.12862">
        <ele>1728.2</ele>
        <time>2020-12-05T17:05:33.947Z</time>
      </trkpt>
      <trkpt lat="42.90428" lon="0.12862">
        <ele>1728.2</ele>
        <time>2020-12-05T17:05:34.948Z</time>
      </trkpt>
      <trkpt lat="42.90428" lon="0.12862">
        <ele>1728.2</ele>
        <time>2020-12-05T17:05:35.947Z</time>
      </trkpt>
      <trkpt lat="42.90428" lon="0.12862">
        <ele>1728.2</ele>
        <time>2020-12-05T17:05:36.948Z</time>
      </trkpt>
      <trkpt lat="42.90428" lon="0.12862">
        <ele>1728.2</ele>
        <time>2020-12-05T17:05:37.949Z</time>
      </trkpt>
      <trkpt lat="42.90425" lon="0.12844">
        <ele>1728.8</ele>
        <time>2020-12-05T17:05:38.948Z</time>
      </trkpt>
      <trkpt lat="42.90425" lon="0.12844">
        <ele>1728.8</ele>
        <time>2020-12-05T17:05:39.948Z</time>
      </trkpt>
      <trkpt lat="42.90425" lon="0.12844">
        <ele>1728.8</ele>
        <time>2020-12-05T17:05:40.948Z</time>
      </trkpt>
      <trkpt lat="42.90425" lon="0.12844">
        <ele>1728.8</ele>
        <time>2020-12-05T17:05:41.948Z</time>
      </trkpt>
      <trkpt lat="42.90425" lon="0.12844">
        <ele>1728.8</ele>
        <time>2020-12-05T17:05:42.948Z</time>
      </trkpt>
      <trkpt lat="42.90425" lon="0.12844">
        <ele>1728.8</ele>
        <time>2020-12-05T17:05:43.948Z</time>
      </trkpt>
      <trkpt lat="42.90425" lon="0.12844">
        <ele>1728.8</ele>
        <time>2020-12-05T17:05:44.947Z</time>
      </trkpt>
      <trkpt lat="42.90425" lon="0.12844">
        <ele>1728.8</ele>
        <time>2020-12-05T17:05:45.948Z</time>
      </trkpt>
      <trkpt lat="42.90425" lon="0.12844">
        <ele>1728.8</ele>
        <time>2020-12-05T17:05:46.947Z</time>
      </trkpt>
      <trkpt lat="42.90421" lon="0.12814">
        <ele>1729.2</ele>
        <time>2020-12-05T17:05:47.948Z</time>
      </trkpt>
      <trkpt lat="42.90421" lon="0.12814">
        <ele>1729.2</ele>
        <time>2020-12-05T17:05:48.949Z</time>
      </trkpt>
      <trkpt lat="42.90421" lon="0.12814">
        <ele>1729.2</ele>
        <time>2020-12-05T17:05:49.948Z</time>
      </trkpt>
      <trkpt lat="42.90421" lon="0.12814">
        <ele>1729.2</ele>
        <time>2020-12-05T17:05:50.948Z</time>
      </trkpt>
      <trkpt lat="42.90421" lon="0.12814">
        <ele>1729.2</ele>
        <time>2020-12-05T17:05:51.949Z</time>
      </trkpt>
      <trkpt lat="42.90421" lon="0.12796">
        <ele>1730</ele>
        <time>2020-12-05T17:05:52.948Z</time>
      </trkpt>
      <trkpt lat="42.90421" lon="0.12796">
        <ele>1730</ele>
        <time>2020-12-05T17:05:53.949Z</time>
      </trkpt>
      <trkpt lat="42.90421" lon="0.12796">
        <ele>1730</ele>
        <time>2020-12-05T17:05:54.947Z</time>
      </trkpt>
      <trkpt lat="42.90421" lon="0.12796">
        <ele>1730</ele>
        <time>2020-12-05T17:05:55.947Z</time>
      </trkpt>
      <trkpt lat="42.90421" lon="0.12784">
        <ele>1730.4</ele>
        <time>2020-12-05T17:05:56.948Z</time>
      </trkpt>
      <trkpt lat="42.90421" lon="0.12784">
        <ele>1730.4</ele>
        <time>2020-12-05T17:05:57.949Z</time>
      </trkpt>
      <trkpt lat="42.90421" lon="0.12784">
        <ele>1730.4</ele>
        <time>2020-12-05T17:05:58.947Z</time>
      </trkpt>
      <trkpt lat="42.90419" lon="0.12771">
        <ele>1731.2</ele>
        <time>2020-12-05T17:05:59.947Z</time>
      </trkpt>
      <trkpt lat="42.90419" lon="0.12771">
        <ele>1731.2</ele>
        <time>2020-12-05T17:06:00.947Z</time>
      </trkpt>
      <trkpt lat="42.90419" lon="0.12771">
        <ele>1731.2</ele>
        <time>2020-12-05T17:06:01.949Z</time>
      </trkpt>
      <trkpt lat="42.90419" lon="0.12771">
        <ele>1731.2</ele>
        <time>2020-12-05T17:06:02.948Z</time>
      </trkpt>
      <trkpt lat="42.90417" lon="0.12759">
        <ele>1732</ele>
        <time>2020-12-05T17:06:03.948Z</time>
      </trkpt>
      <trkpt lat="42.90417" lon="0.12759">
        <ele>1732</ele>
        <time>2020-12-05T17:06:04.948Z</time>
      </trkpt>
      <trkpt lat="42.90417" lon="0.12759">
        <ele>1732</ele>
        <time>2020-12-05T17:06:05.949Z</time>
      </trkpt>
      <trkpt lat="42.90417" lon="0.12759">
        <ele>1732</ele>
        <time>2020-12-05T17:06:06.947Z</time>
      </trkpt>
      <trkpt lat="42.90414" lon="0.12747">
        <ele>1732.4</ele>
        <time>2020-12-05T17:06:07.948Z</time>
      </trkpt>
      <trkpt lat="42.90414" lon="0.12747">
        <ele>1732.4</ele>
        <time>2020-12-05T17:06:08.949Z</time>
      </trkpt>
      <trkpt lat="42.90412" lon="0.12741">
        <ele>1732.4</ele>
        <time>2020-12-05T17:06:09.947Z</time>
      </trkpt>
      <trkpt lat="42.90412" lon="0.12741">
        <ele>1732.4</ele>
        <time>2020-12-05T17:06:10.948Z</time>
      </trkpt>
      <trkpt lat="42.90412" lon="0.12741">
        <ele>1732.4</ele>
        <time>2020-12-05T17:06:11.948Z</time>
      </trkpt>
      <trkpt lat="42.90408" lon="0.1273">
        <ele>1732.6</ele>
        <time>2020-12-05T17:06:12.947Z</time>
      </trkpt>
      <trkpt lat="42.90408" lon="0.1273">
        <ele>1732.6</ele>
        <time>2020-12-05T17:06:13.948Z</time>
      </trkpt>
      <trkpt lat="42.90406" lon="0.12724">
        <ele>1732.8</ele>
        <time>2020-12-05T17:06:14.947Z</time>
      </trkpt>
      <trkpt lat="42.90406" lon="0.12724">
        <ele>1732.8</ele>
        <time>2020-12-05T17:06:15.947Z</time>
      </trkpt>
      <trkpt lat="42.90406" lon="0.12724">
        <ele>1732.8</ele>
        <time>2020-12-05T17:06:16.947Z</time>
      </trkpt>
      <trkpt lat="42.90406" lon="0.12724">
        <ele>1732.8</ele>
        <time>2020-12-05T17:06:17.948Z</time>
      </trkpt>
      <trkpt lat="42.90406" lon="0.12724">
        <ele>1732.8</ele>
        <time>2020-12-05T17:06:18.947Z</time>
      </trkpt>
      <trkpt lat="42.90406" lon="0.12724">
        <ele>1732.8</ele>
        <time>2020-12-05T17:06:19.948Z</time>
      </trkpt>
      <trkpt lat="42.90406" lon="0.12724">
        <ele>1732.8</ele>
        <time>2020-12-05T17:06:20.947Z</time>
      </trkpt>
      <trkpt lat="42.90406" lon="0.12701">
        <ele>1733.6</ele>
        <time>2020-12-05T17:06:21.948Z</time>
      </trkpt>
      <trkpt lat="42.90406" lon="0.12701">
        <ele>1733.6</ele>
        <time>2020-12-05T17:06:22.95Z</time>
      </trkpt>
      <trkpt lat="42.90407" lon="0.12695">
        <ele>1734</ele>
        <time>2020-12-05T17:06:23.947Z</time>
      </trkpt>
      <trkpt lat="42.90407" lon="0.12695">
        <ele>1734</ele>
        <time>2020-12-05T17:06:24.948Z</time>
      </trkpt>
      <trkpt lat="42.90407" lon="0.12695">
        <ele>1734</ele>
        <time>2020-12-05T17:06:25.949Z</time>
      </trkpt>
      <trkpt lat="42.90407" lon="0.12695">
        <ele>1734</ele>
        <time>2020-12-05T17:06:26.948Z</time>
      </trkpt>
      <trkpt lat="42.90407" lon="0.12695">
        <ele>1734</ele>
        <time>2020-12-05T17:06:27.949Z</time>
      </trkpt>
      <trkpt lat="42.90407" lon="0.12695">
        <ele>1734</ele>
        <time>2020-12-05T17:06:28.948Z</time>
      </trkpt>
      <trkpt lat="42.90407" lon="0.12695">
        <ele>1734</ele>
        <time>2020-12-05T17:06:29.947Z</time>
      </trkpt>
      <trkpt lat="42.90407" lon="0.12695">
        <ele>1734</ele>
        <time>2020-12-05T17:06:30.947Z</time>
      </trkpt>
      <trkpt lat="42.90407" lon="0.12695">
        <ele>1734</ele>
        <time>2020-12-05T17:06:31.947Z</time>
      </trkpt>
      <trkpt lat="42.90407" lon="0.12695">
        <ele>1734</ele>
        <time>2020-12-05T17:06:32.947Z</time>
      </trkpt>
      <trkpt lat="42.9041" lon="0.12669">
        <ele>1735.2</ele>
        <time>2020-12-05T17:06:33.948Z</time>
      </trkpt>
      <trkpt lat="42.9041" lon="0.12669">
        <ele>1735.2</ele>
        <time>2020-12-05T17:06:34.947Z</time>
      </trkpt>
      <trkpt lat="42.90411" lon="0.12664">
        <ele>1735.6</ele>
        <time>2020-12-05T17:06:35.948Z</time>
      </trkpt>
      <trkpt lat="42.90411" lon="0.12664">
        <ele>1735.6</ele>
        <time>2020-12-05T17:06:36.949Z</time>
      </trkpt>
      <trkpt lat="42.90411" lon="0.12664">
        <ele>1735.6</ele>
        <time>2020-12-05T17:06:37.947Z</time>
      </trkpt>
      <trkpt lat="42.90411" lon="0.12664">
        <ele>1735.6</ele>
        <time>2020-12-05T17:06:38.948Z</time>
      </trkpt>
      <trkpt lat="42.9041" lon="0.12654">
        <ele>1736.4</ele>
        <time>2020-12-05T17:06:39.948Z</time>
      </trkpt>
      <trkpt lat="42.9041" lon="0.12654">
        <ele>1736.4</ele>
        <time>2020-12-05T17:06:40.948Z</time>
      </trkpt>
      <trkpt lat="42.9041" lon="0.12654">
        <ele>1736.4</ele>
        <time>2020-12-05T17:06:41.947Z</time>
      </trkpt>
      <trkpt lat="42.90407" lon="0.12645">
        <ele>1737</ele>
        <time>2020-12-05T17:06:42.947Z</time>
      </trkpt>
      <trkpt lat="42.90407" lon="0.12645">
        <ele>1737</ele>
        <time>2020-12-05T17:06:43.948Z</time>
      </trkpt>
      <trkpt lat="42.90407" lon="0.12645">
        <ele>1737</ele>
        <time>2020-12-05T17:06:44.949Z</time>
      </trkpt>
      <trkpt lat="42.90407" lon="0.12645">
        <ele>1737</ele>
        <time>2020-12-05T17:06:45.947Z</time>
      </trkpt>
      <trkpt lat="42.90401" lon="0.1264">
        <ele>1737.8</ele>
        <time>2020-12-05T17:06:46.948Z</time>
      </trkpt>
      <trkpt lat="42.90401" lon="0.1264">
        <ele>1737.8</ele>
        <time>2020-12-05T17:06:47.948Z</time>
      </trkpt>
      <trkpt lat="42.90401" lon="0.1264">
        <ele>1737.8</ele>
        <time>2020-12-05T17:06:48.949Z</time>
      </trkpt>
      <trkpt lat="42.90394" lon="0.1264">
        <ele>1738.8</ele>
        <time>2020-12-05T17:06:49.948Z</time>
      </trkpt>
      <trkpt lat="42.90394" lon="0.1264">
        <ele>1738.8</ele>
        <time>2020-12-05T17:06:50.948Z</time>
      </trkpt>
      <trkpt lat="42.90391" lon="0.12642">
        <ele>1739</ele>
        <time>2020-12-05T17:06:51.949Z</time>
      </trkpt>
      <trkpt lat="42.90391" lon="0.12642">
        <ele>1739</ele>
        <time>2020-12-05T17:06:52.95Z</time>
      </trkpt>
      <trkpt lat="42.90391" lon="0.12642">
        <ele>1739</ele>
        <time>2020-12-05T17:06:53.948Z</time>
      </trkpt>
      <trkpt lat="42.90391" lon="0.12642">
        <ele>1739</ele>
        <time>2020-12-05T17:06:54.947Z</time>
      </trkpt>
      <trkpt lat="42.90384" lon="0.12649">
        <ele>1740</ele>
        <time>2020-12-05T17:06:55.947Z</time>
      </trkpt>
      <trkpt lat="42.90384" lon="0.12649">
        <ele>1740</ele>
        <time>2020-12-05T17:06:56.948Z</time>
      </trkpt>
      <trkpt lat="42.90384" lon="0.12649">
        <ele>1740</ele>
        <time>2020-12-05T17:06:57.948Z</time>
      </trkpt>
      <trkpt lat="42.90382" lon="0.12653">
        <ele>1740.4</ele>
        <time>2020-12-05T17:06:58.947Z</time>
      </trkpt>
      <trkpt lat="42.90382" lon="0.12653">
        <ele>1740.4</ele>
        <time>2020-12-05T17:06:59.947Z</time>
      </trkpt>
      <trkpt lat="42.90379" lon="0.12658">
        <ele>1740.8</ele>
        <time>2020-12-05T17:07:00.948Z</time>
      </trkpt>
      <trkpt lat="42.90379" lon="0.12658">
        <ele>1740.8</ele>
        <time>2020-12-05T17:07:01.949Z</time>
      </trkpt>
      <trkpt lat="42.90379" lon="0.12658">
        <ele>1740.8</ele>
        <time>2020-12-05T17:07:02.947Z</time>
      </trkpt>
      <trkpt lat="42.90379" lon="0.12658">
        <ele>1740.8</ele>
        <time>2020-12-05T17:07:03.947Z</time>
      </trkpt>
      <trkpt lat="42.90379" lon="0.12658">
        <ele>1740.8</ele>
        <time>2020-12-05T17:07:04.947Z</time>
      </trkpt>
      <trkpt lat="42.90379" lon="0.12658">
        <ele>1740.8</ele>
        <time>2020-12-05T17:07:05.948Z</time>
      </trkpt>
      <trkpt lat="42.90379" lon="0.12658">
        <ele>1740.8</ele>
        <time>2020-12-05T17:07:06.947Z</time>
      </trkpt>
      <trkpt lat="42.90373" lon="0.12674">
        <ele>1741.2</ele>
        <time>2020-12-05T17:07:07.948Z</time>
      </trkpt>
      <trkpt lat="42.90373" lon="0.12674">
        <ele>1741.2</ele>
        <time>2020-12-05T17:07:08.948Z</time>
      </trkpt>
      <trkpt lat="42.90373" lon="0.12674">
        <ele>1741.2</ele>
        <time>2020-12-05T17:07:09.948Z</time>
      </trkpt>
      <trkpt lat="42.90373" lon="0.12674">
        <ele>1741.2</ele>
        <time>2020-12-05T17:07:10.947Z</time>
      </trkpt>
      <trkpt lat="42.9037" lon="0.12685">
        <ele>1741.8</ele>
        <time>2020-12-05T17:07:11.949Z</time>
      </trkpt>
      <trkpt lat="42.9037" lon="0.12685">
        <ele>1741.8</ele>
        <time>2020-12-05T17:07:12.947Z</time>
      </trkpt>
      <trkpt lat="42.9037" lon="0.12685">
        <ele>1741.8</ele>
        <time>2020-12-05T17:07:13.948Z</time>
      </trkpt>
      <trkpt lat="42.9037" lon="0.12685">
        <ele>1741.8</ele>
        <time>2020-12-05T17:07:14.947Z</time>
      </trkpt>
      <trkpt lat="42.9037" lon="0.12685">
        <ele>1741.8</ele>
        <time>2020-12-05T17:07:15.948Z</time>
      </trkpt>
      <trkpt lat="42.9037" lon="0.12685">
        <ele>1741.8</ele>
        <time>2020-12-05T17:07:16.948Z</time>
      </trkpt>
      <trkpt lat="42.9037" lon="0.12685">
        <ele>1741.8</ele>
        <time>2020-12-05T17:07:17.948Z</time>
      </trkpt>
      <trkpt lat="42.9037" lon="0.12685">
        <ele>1741.8</ele>
        <time>2020-12-05T17:07:18.948Z</time>
      </trkpt>
      <trkpt lat="42.9037" lon="0.12685">
        <ele>1741.8</ele>
        <time>2020-12-05T17:07:19.948Z</time>
      </trkpt>
      <trkpt lat="42.90367" lon="0.12705">
        <ele>1742.8</ele>
        <time>2020-12-05T17:07:20.947Z</time>
      </trkpt>
      <trkpt lat="42.90367" lon="0.12705">
        <ele>1742.8</ele>
        <time>2020-12-05T17:07:21.947Z</time>
      </trkpt>
      <trkpt lat="42.90367" lon="0.12705">
        <ele>1742.8</ele>
        <time>2020-12-05T17:07:22.948Z</time>
      </trkpt>
      <trkpt lat="42.90367" lon="0.12705">
        <ele>1742.8</ele>
        <time>2020-12-05T17:07:23.947Z</time>
      </trkpt>
      <trkpt lat="42.90367" lon="0.12705">
        <ele>1742.8</ele>
        <time>2020-12-05T17:07:24.949Z</time>
      </trkpt>
      <trkpt lat="42.90367" lon="0.12705">
        <ele>1742.8</ele>
        <time>2020-12-05T17:07:25.947Z</time>
      </trkpt>
      <trkpt lat="42.90367" lon="0.12705">
        <ele>1742.8</ele>
        <time>2020-12-05T17:07:26.95Z</time>
      </trkpt>
      <trkpt lat="42.90367" lon="0.12705">
        <ele>1742.8</ele>
        <time>2020-12-05T17:07:27.949Z</time>
      </trkpt>
      <trkpt lat="42.90367" lon="0.12705">
        <ele>1742.8</ele>
        <time>2020-12-05T17:07:28.949Z</time>
      </trkpt>
      <trkpt lat="42.90367" lon="0.12705">
        <ele>1742.8</ele>
        <time>2020-12-05T17:07:29.947Z</time>
      </trkpt>
      <trkpt lat="42.90369" lon="0.12732">
        <ele>1744.2</ele>
        <time>2020-12-05T17:07:30.948Z</time>
      </trkpt>
      <trkpt lat="42.90369" lon="0.12732">
        <ele>1744.2</ele>
        <time>2020-12-05T17:07:31.949Z</time>
      </trkpt>
      <trkpt lat="42.90368" lon="0.12737">
        <ele>1744.2</ele>
        <time>2020-12-05T17:07:32.947Z</time>
      </trkpt>
      <trkpt lat="42.90368" lon="0.12737">
        <ele>1744.2</ele>
        <time>2020-12-05T17:07:33.947Z</time>
      </trkpt>
      <trkpt lat="42.90368" lon="0.12737">
        <ele>1744.2</ele>
        <time>2020-12-05T17:07:34.947Z</time>
      </trkpt>
      <trkpt lat="42.90368" lon="0.12737">
        <ele>1744.2</ele>
        <time>2020-12-05T17:07:35.948Z</time>
      </trkpt>
      <trkpt lat="42.90368" lon="0.12737">
        <ele>1744.2</ele>
        <time>2020-12-05T17:07:36.948Z</time>
      </trkpt>
      <trkpt lat="42.90368" lon="0.12737">
        <ele>1744.2</ele>
        <time>2020-12-05T17:07:37.949Z</time>
      </trkpt>
      <trkpt lat="42.90368" lon="0.12737">
        <ele>1744.2</ele>
        <time>2020-12-05T17:07:38.948Z</time>
      </trkpt>
      <trkpt lat="42.90366" lon="0.12751">
        <ele>1745.2</ele>
        <time>2020-12-05T17:07:39.948Z</time>
      </trkpt>
      <trkpt lat="42.90366" lon="0.12751">
        <ele>1745.2</ele>
        <time>2020-12-05T17:07:40.947Z</time>
      </trkpt>
      <trkpt lat="42.90366" lon="0.12751">
        <ele>1745.2</ele>
        <time>2020-12-05T17:07:41.947Z</time>
      </trkpt>
      <trkpt lat="42.90366" lon="0.12751">
        <ele>1745.2</ele>
        <time>2020-12-05T17:07:42.948Z</time>
      </trkpt>
      <trkpt lat="42.90366" lon="0.12751">
        <ele>1745.2</ele>
        <time>2020-12-05T17:07:43.948Z</time>
      </trkpt>
      <trkpt lat="42.90366" lon="0.12751">
        <ele>1745.2</ele>
        <time>2020-12-05T17:07:44.947Z</time>
      </trkpt>
      <trkpt lat="42.90366" lon="0.12751">
        <ele>1745.2</ele>
        <time>2020-12-05T17:07:45.949Z</time>
      </trkpt>
      <trkpt lat="42.90361" lon="0.12764">
        <ele>1746.2</ele>
        <time>2020-12-05T17:07:46.947Z</time>
      </trkpt>
      <trkpt lat="42.90361" lon="0.12764">
        <ele>1746.2</ele>
        <time>2020-12-05T17:07:47.947Z</time>
      </trkpt>
      <trkpt lat="42.90361" lon="0.12764">
        <ele>1746.2</ele>
        <time>2020-12-05T17:07:48.948Z</time>
      </trkpt>
      <trkpt lat="42.9036" lon="0.12768">
        <ele>1746.6</ele>
        <time>2020-12-05T17:07:49.948Z</time>
      </trkpt>
      <trkpt lat="42.9036" lon="0.12768">
        <ele>1746.6</ele>
        <time>2020-12-05T17:07:50.947Z</time>
      </trkpt>
      <trkpt lat="42.9036" lon="0.12768">
        <ele>1746.6</ele>
        <time>2020-12-05T17:07:51.948Z</time>
      </trkpt>
      <trkpt lat="42.9036" lon="0.12768">
        <ele>1746.6</ele>
        <time>2020-12-05T17:07:52.947Z</time>
      </trkpt>
      <trkpt lat="42.9036" lon="0.12768">
        <ele>1746.6</ele>
        <time>2020-12-05T17:07:53.948Z</time>
      </trkpt>
      <trkpt lat="42.9036" lon="0.12768">
        <ele>1746.6</ele>
        <time>2020-12-05T17:07:54.947Z</time>
      </trkpt>
      <trkpt lat="42.9036" lon="0.12768">
        <ele>1746.6</ele>
        <time>2020-12-05T17:07:55.947Z</time>
      </trkpt>
      <trkpt lat="42.90356" lon="0.12781">
        <ele>1747.6</ele>
        <time>2020-12-05T17:07:56.948Z</time>
      </trkpt>
      <trkpt lat="42.90356" lon="0.12781">
        <ele>1747.6</ele>
        <time>2020-12-05T17:07:57.947Z</time>
      </trkpt>
      <trkpt lat="42.90356" lon="0.12781">
        <ele>1747.6</ele>
        <time>2020-12-05T17:07:58.947Z</time>
      </trkpt>
      <trkpt lat="42.90356" lon="0.12781">
        <ele>1747.6</ele>
        <time>2020-12-05T17:07:59.947Z</time>
      </trkpt>
      <trkpt lat="42.90356" lon="0.12781">
        <ele>1747.6</ele>
        <time>2020-12-05T17:08:00.947Z</time>
      </trkpt>
      <trkpt lat="42.90356" lon="0.12781">
        <ele>1747.6</ele>
        <time>2020-12-05T17:08:01.947Z</time>
      </trkpt>
      <trkpt lat="42.90353" lon="0.12795">
        <ele>1748.8</ele>
        <time>2020-12-05T17:08:02.947Z</time>
      </trkpt>
      <trkpt lat="42.90353" lon="0.12795">
        <ele>1748.8</ele>
        <time>2020-12-05T17:08:03.947Z</time>
      </trkpt>
      <trkpt lat="42.90353" lon="0.12795">
        <ele>1748.8</ele>
        <time>2020-12-05T17:08:04.948Z</time>
      </trkpt>
      <trkpt lat="42.90353" lon="0.12795">
        <ele>1748.8</ele>
        <time>2020-12-05T17:08:05.947Z</time>
      </trkpt>
      <trkpt lat="42.90353" lon="0.12795">
        <ele>1748.8</ele>
        <time>2020-12-05T17:08:06.948Z</time>
      </trkpt>
      <trkpt lat="42.90353" lon="0.12795">
        <ele>1748.8</ele>
        <time>2020-12-05T17:08:07.948Z</time>
      </trkpt>
      <trkpt lat="42.90353" lon="0.12795">
        <ele>1748.8</ele>
        <time>2020-12-05T17:08:08.947Z</time>
      </trkpt>
      <trkpt lat="42.90353" lon="0.12809">
        <ele>1750.2</ele>
        <time>2020-12-05T17:08:09.948Z</time>
      </trkpt>
      <trkpt lat="42.90353" lon="0.12809">
        <ele>1750.2</ele>
        <time>2020-12-05T17:08:10.948Z</time>
      </trkpt>
      <trkpt lat="42.90353" lon="0.12809">
        <ele>1750.2</ele>
        <time>2020-12-05T17:08:11.947Z</time>
      </trkpt>
      <trkpt lat="42.90353" lon="0.12809">
        <ele>1750.2</ele>
        <time>2020-12-05T17:08:12.948Z</time>
      </trkpt>
      <trkpt lat="42.90353" lon="0.12809">
        <ele>1750.2</ele>
        <time>2020-12-05T17:08:13.948Z</time>
      </trkpt>
      <trkpt lat="42.90353" lon="0.12809">
        <ele>1750.2</ele>
        <time>2020-12-05T17:08:14.947Z</time>
      </trkpt>
      <trkpt lat="42.90353" lon="0.12809">
        <ele>1750.2</ele>
        <time>2020-12-05T17:08:15.949Z</time>
      </trkpt>
      <trkpt lat="42.90355" lon="0.12823">
        <ele>1751.4</ele>
        <time>2020-12-05T17:08:16.949Z</time>
      </trkpt>
      <trkpt lat="42.90355" lon="0.12823">
        <ele>1751.4</ele>
        <time>2020-12-05T17:08:17.95Z</time>
      </trkpt>
      <trkpt lat="42.90355" lon="0.12823">
        <ele>1751.4</ele>
        <time>2020-12-05T17:08:18.947Z</time>
      </trkpt>
      <trkpt lat="42.90355" lon="0.12823">
        <ele>1751.4</ele>
        <time>2020-12-05T17:08:19.949Z</time>
      </trkpt>
      <trkpt lat="42.90355" lon="0.12823">
        <ele>1751.4</ele>
        <time>2020-12-05T17:08:20.947Z</time>
      </trkpt>
      <trkpt lat="42.90355" lon="0.12823">
        <ele>1751.4</ele>
        <time>2020-12-05T17:08:21.948Z</time>
      </trkpt>
      <trkpt lat="42.90355" lon="0.12823">
        <ele>1751.4</ele>
        <time>2020-12-05T17:08:22.947Z</time>
      </trkpt>
      <trkpt lat="42.90355" lon="0.12823">
        <ele>1751.4</ele>
        <time>2020-12-05T17:08:23.947Z</time>
      </trkpt>
      <trkpt lat="42.90355" lon="0.12823">
        <ele>1751.4</ele>
        <time>2020-12-05T17:08:24.949Z</time>
      </trkpt>
      <trkpt lat="42.90355" lon="0.12823">
        <ele>1751.4</ele>
        <time>2020-12-05T17:08:25.947Z</time>
      </trkpt>
      <trkpt lat="42.9036" lon="0.12843">
        <ele>1752.6</ele>
        <time>2020-12-05T17:08:26.948Z</time>
      </trkpt>
      <trkpt lat="42.9036" lon="0.12843">
        <ele>1752.6</ele>
        <time>2020-12-05T17:08:27.948Z</time>
      </trkpt>
      <trkpt lat="42.9036" lon="0.12843">
        <ele>1752.6</ele>
        <time>2020-12-05T17:08:28.948Z</time>
      </trkpt>
      <trkpt lat="42.9036" lon="0.12843">
        <ele>1752.6</ele>
        <time>2020-12-05T17:08:29.947Z</time>
      </trkpt>
      <trkpt lat="42.90363" lon="0.12851">
        <ele>1753</ele>
        <time>2020-12-05T17:08:30.95Z</time>
      </trkpt>
      <trkpt lat="42.90363" lon="0.12851">
        <ele>1753</ele>
        <time>2020-12-05T17:08:31.948Z</time>
      </trkpt>
      <trkpt lat="42.90363" lon="0.12851">
        <ele>1753</ele>
        <time>2020-12-05T17:08:32.948Z</time>
      </trkpt>
      <trkpt lat="42.90363" lon="0.12851">
        <ele>1753</ele>
        <time>2020-12-05T17:08:33.948Z</time>
      </trkpt>
      <trkpt lat="42.90365" lon="0.12859">
        <ele>1753.6</ele>
        <time>2020-12-05T17:08:34.949Z</time>
      </trkpt>
      <trkpt lat="42.90365" lon="0.12859">
        <ele>1753.6</ele>
        <time>2020-12-05T17:08:35.948Z</time>
      </trkpt>
      <trkpt lat="42.90365" lon="0.12859">
        <ele>1753.6</ele>
        <time>2020-12-05T17:08:36.948Z</time>
      </trkpt>
      <trkpt lat="42.90365" lon="0.12859">
        <ele>1753.6</ele>
        <time>2020-12-05T17:08:37.947Z</time>
      </trkpt>
      <trkpt lat="42.90365" lon="0.12859">
        <ele>1753.6</ele>
        <time>2020-12-05T17:08:38.949Z</time>
      </trkpt>
      <trkpt lat="42.90367" lon="0.12871">
        <ele>1754.6</ele>
        <time>2020-12-05T17:08:39.948Z</time>
      </trkpt>
      <trkpt lat="42.90367" lon="0.12871">
        <ele>1754.6</ele>
        <time>2020-12-05T17:08:40.949Z</time>
      </trkpt>
      <trkpt lat="42.90368" lon="0.12874">
        <ele>1755</ele>
        <time>2020-12-05T17:08:41.949Z</time>
      </trkpt>
      <trkpt lat="42.90368" lon="0.12874">
        <ele>1755</ele>
        <time>2020-12-05T17:08:42.948Z</time>
      </trkpt>
      <trkpt lat="42.90368" lon="0.12874">
        <ele>1755</ele>
        <time>2020-12-05T17:08:43.948Z</time>
      </trkpt>
      <trkpt lat="42.90368" lon="0.12874">
        <ele>1755</ele>
        <time>2020-12-05T17:08:44.948Z</time>
      </trkpt>
      <trkpt lat="42.90368" lon="0.12874">
        <ele>1755</ele>
        <time>2020-12-05T17:08:45.948Z</time>
      </trkpt>
      <trkpt lat="42.90368" lon="0.12874">
        <ele>1755</ele>
        <time>2020-12-05T17:08:46.947Z</time>
      </trkpt>
      <trkpt lat="42.9037" lon="0.12886">
        <ele>1755.8</ele>
        <time>2020-12-05T17:08:47.948Z</time>
      </trkpt>
      <trkpt lat="42.9037" lon="0.12886">
        <ele>1755.8</ele>
        <time>2020-12-05T17:08:48.948Z</time>
      </trkpt>
      <trkpt lat="42.9037" lon="0.12886">
        <ele>1755.8</ele>
        <time>2020-12-05T17:08:49.948Z</time>
      </trkpt>
      <trkpt lat="42.9037" lon="0.12886">
        <ele>1755.8</ele>
        <time>2020-12-05T17:08:50.948Z</time>
      </trkpt>
      <trkpt lat="42.9037" lon="0.12886">
        <ele>1755.8</ele>
        <time>2020-12-05T17:08:51.949Z</time>
      </trkpt>
      <trkpt lat="42.9037" lon="0.12886">
        <ele>1755.8</ele>
        <time>2020-12-05T17:08:52.947Z</time>
      </trkpt>
      <trkpt lat="42.9037" lon="0.12899">
        <ele>1756.8</ele>
        <time>2020-12-05T17:08:53.947Z</time>
      </trkpt>
      <trkpt lat="42.9037" lon="0.12899">
        <ele>1756.8</ele>
        <time>2020-12-05T17:08:54.949Z</time>
      </trkpt>
      <trkpt lat="42.9037" lon="0.12899">
        <ele>1756.8</ele>
        <time>2020-12-05T17:08:55.949Z</time>
      </trkpt>
      <trkpt lat="42.9037" lon="0.12899">
        <ele>1756.8</ele>
        <time>2020-12-05T17:08:56.95Z</time>
      </trkpt>
      <trkpt lat="42.9037" lon="0.12899">
        <ele>1756.8</ele>
        <time>2020-12-05T17:08:57.948Z</time>
      </trkpt>
      <trkpt lat="42.9037" lon="0.12899">
        <ele>1756.8</ele>
        <time>2020-12-05T17:08:58.948Z</time>
      </trkpt>
      <trkpt lat="42.9037" lon="0.12899">
        <ele>1756.8</ele>
        <time>2020-12-05T17:08:59.948Z</time>
      </trkpt>
      <trkpt lat="42.9037" lon="0.12916">
        <ele>1758</ele>
        <time>2020-12-05T17:09:00.948Z</time>
      </trkpt>
      <trkpt lat="42.9037" lon="0.12916">
        <ele>1758</ele>
        <time>2020-12-05T17:09:01.947Z</time>
      </trkpt>
      <trkpt lat="42.9037" lon="0.12916">
        <ele>1758</ele>
        <time>2020-12-05T17:09:02.948Z</time>
      </trkpt>
      <trkpt lat="42.9037" lon="0.12916">
        <ele>1758</ele>
        <time>2020-12-05T17:09:03.947Z</time>
      </trkpt>
      <trkpt lat="42.9037" lon="0.12916">
        <ele>1758</ele>
        <time>2020-12-05T17:09:04.948Z</time>
      </trkpt>
      <trkpt lat="42.9037" lon="0.12916">
        <ele>1758</ele>
        <time>2020-12-05T17:09:05.948Z</time>
      </trkpt>
      <trkpt lat="42.9037" lon="0.12916">
        <ele>1758</ele>
        <time>2020-12-05T17:09:06.949Z</time>
      </trkpt>
      <trkpt lat="42.90369" lon="0.1293">
        <ele>1759.2</ele>
        <time>2020-12-05T17:09:07.949Z</time>
      </trkpt>
      <trkpt lat="42.90369" lon="0.1293">
        <ele>1759.2</ele>
        <time>2020-12-05T17:09:08.949Z</time>
      </trkpt>
      <trkpt lat="42.90369" lon="0.1293">
        <ele>1759.2</ele>
        <time>2020-12-05T17:09:09.949Z</time>
      </trkpt>
      <trkpt lat="42.90369" lon="0.1293">
        <ele>1759.2</ele>
        <time>2020-12-05T17:09:10.948Z</time>
      </trkpt>
      <trkpt lat="42.90369" lon="0.1293">
        <ele>1759.2</ele>
        <time>2020-12-05T17:09:11.947Z</time>
      </trkpt>
      <trkpt lat="42.90369" lon="0.1293">
        <ele>1759.2</ele>
        <time>2020-12-05T17:09:12.949Z</time>
      </trkpt>
      <trkpt lat="42.90369" lon="0.1293">
        <ele>1759.2</ele>
        <time>2020-12-05T17:09:13.947Z</time>
      </trkpt>
      <trkpt lat="42.90369" lon="0.1293">
        <ele>1759.2</ele>
        <time>2020-12-05T17:09:14.947Z</time>
      </trkpt>
      <trkpt lat="42.90369" lon="0.1293">
        <ele>1759.2</ele>
        <time>2020-12-05T17:09:15.948Z</time>
      </trkpt>
      <trkpt lat="42.90369" lon="0.1293">
        <ele>1759.2</ele>
        <time>2020-12-05T17:09:16.949Z</time>
      </trkpt>
      <trkpt lat="42.90365" lon="0.12951">
        <ele>1760.6</ele>
        <time>2020-12-05T17:09:17.95Z</time>
      </trkpt>
      <trkpt lat="42.90365" lon="0.12951">
        <ele>1760.6</ele>
        <time>2020-12-05T17:09:18.948Z</time>
      </trkpt>
      <trkpt lat="42.90365" lon="0.12951">
        <ele>1760.6</ele>
        <time>2020-12-05T17:09:19.948Z</time>
      </trkpt>
      <trkpt lat="42.90365" lon="0.12951">
        <ele>1760.6</ele>
        <time>2020-12-05T17:09:20.949Z</time>
      </trkpt>
      <trkpt lat="42.90363" lon="0.12959">
        <ele>1761.2</ele>
        <time>2020-12-05T17:09:21.95Z</time>
      </trkpt>
      <trkpt lat="42.90363" lon="0.12959">
        <ele>1761.2</ele>
        <time>2020-12-05T17:09:22.949Z</time>
      </trkpt>
      <trkpt lat="42.90363" lon="0.12959">
        <ele>1761.2</ele>
        <time>2020-12-05T17:09:23.948Z</time>
      </trkpt>
      <trkpt lat="42.90363" lon="0.12959">
        <ele>1761.2</ele>
        <time>2020-12-05T17:09:24.949Z</time>
      </trkpt>
      <trkpt lat="42.9036" lon="0.12967">
        <ele>1761.8</ele>
        <time>2020-12-05T17:09:25.947Z</time>
      </trkpt>
      <trkpt lat="42.9036" lon="0.12967">
        <ele>1761.8</ele>
        <time>2020-12-05T17:09:26.948Z</time>
      </trkpt>
      <trkpt lat="42.9036" lon="0.12967">
        <ele>1761.8</ele>
        <time>2020-12-05T17:09:27.948Z</time>
      </trkpt>
      <trkpt lat="42.9036" lon="0.12967">
        <ele>1761.8</ele>
        <time>2020-12-05T17:09:28.948Z</time>
      </trkpt>
      <trkpt lat="42.9036" lon="0.12967">
        <ele>1761.8</ele>
        <time>2020-12-05T17:09:29.948Z</time>
      </trkpt>
      <trkpt lat="42.9036" lon="0.12967">
        <ele>1761.8</ele>
        <time>2020-12-05T17:09:30.947Z</time>
      </trkpt>
      <trkpt lat="42.9036" lon="0.12967">
        <ele>1761.8</ele>
        <time>2020-12-05T17:09:31.948Z</time>
      </trkpt>
      <trkpt lat="42.9036" lon="0.12967">
        <ele>1761.8</ele>
        <time>2020-12-05T17:09:32.949Z</time>
      </trkpt>
      <trkpt lat="42.9036" lon="0.12967">
        <ele>1761.8</ele>
        <time>2020-12-05T17:09:33.948Z</time>
      </trkpt>
      <trkpt lat="42.9036" lon="0.12967">
        <ele>1761.8</ele>
        <time>2020-12-05T17:09:34.95Z</time>
      </trkpt>
      <trkpt lat="42.9036" lon="0.12967">
        <ele>1761.8</ele>
        <time>2020-12-05T17:09:35.947Z</time>
      </trkpt>
      <trkpt lat="42.90353" lon="0.12987">
        <ele>1763</ele>
        <time>2020-12-05T17:09:36.949Z</time>
      </trkpt>
      <trkpt lat="42.90353" lon="0.12987">
        <ele>1763</ele>
        <time>2020-12-05T17:09:37.948Z</time>
      </trkpt>
      <trkpt lat="42.90353" lon="0.12987">
        <ele>1763</ele>
        <time>2020-12-05T17:09:38.95Z</time>
      </trkpt>
      <trkpt lat="42.90353" lon="0.12987">
        <ele>1763</ele>
        <time>2020-12-05T17:09:39.949Z</time>
      </trkpt>
      <trkpt lat="42.90353" lon="0.12987">
        <ele>1763</ele>
        <time>2020-12-05T17:09:40.948Z</time>
      </trkpt>
      <trkpt lat="42.90353" lon="0.12987">
        <ele>1763</ele>
        <time>2020-12-05T17:09:41.947Z</time>
      </trkpt>
      <trkpt lat="42.90353" lon="0.12987">
        <ele>1763</ele>
        <time>2020-12-05T17:09:42.948Z</time>
      </trkpt>
      <trkpt lat="42.90353" lon="0.12987">
        <ele>1763</ele>
        <time>2020-12-05T17:09:43.947Z</time>
      </trkpt>
      <trkpt lat="42.90353" lon="0.12987">
        <ele>1763</ele>
        <time>2020-12-05T17:09:44.948Z</time>
      </trkpt>
      <trkpt lat="42.90346" lon="0.13003">
        <ele>1764.4</ele>
        <time>2020-12-05T17:09:45.948Z</time>
      </trkpt>
      <trkpt lat="42.90346" lon="0.13003">
        <ele>1764.4</ele>
        <time>2020-12-05T17:09:46.947Z</time>
      </trkpt>
      <trkpt lat="42.90346" lon="0.13003">
        <ele>1764.4</ele>
        <time>2020-12-05T17:09:47.949Z</time>
      </trkpt>
      <trkpt lat="42.90346" lon="0.13003">
        <ele>1764.4</ele>
        <time>2020-12-05T17:09:48.948Z</time>
      </trkpt>
      <trkpt lat="42.90346" lon="0.13003">
        <ele>1764.4</ele>
        <time>2020-12-05T17:09:49.948Z</time>
      </trkpt>
      <trkpt lat="42.90346" lon="0.13003">
        <ele>1764.4</ele>
        <time>2020-12-05T17:09:50.95Z</time>
      </trkpt>
      <trkpt lat="42.90346" lon="0.13003">
        <ele>1764.4</ele>
        <time>2020-12-05T17:09:51.948Z</time>
      </trkpt>
      <trkpt lat="42.90346" lon="0.13003">
        <ele>1764.4</ele>
        <time>2020-12-05T17:09:52.949Z</time>
      </trkpt>
      <trkpt lat="42.90346" lon="0.13003">
        <ele>1764.4</ele>
        <time>2020-12-05T17:09:53.948Z</time>
      </trkpt>
      <trkpt lat="42.90341" lon="0.1302">
        <ele>1765.6</ele>
        <time>2020-12-05T17:09:54.947Z</time>
      </trkpt>
      <trkpt lat="42.90341" lon="0.1302">
        <ele>1765.6</ele>
        <time>2020-12-05T17:09:55.949Z</time>
      </trkpt>
      <trkpt lat="42.90341" lon="0.1302">
        <ele>1765.6</ele>
        <time>2020-12-05T17:09:56.948Z</time>
      </trkpt>
      <trkpt lat="42.90341" lon="0.1302">
        <ele>1765.6</ele>
        <time>2020-12-05T17:09:57.947Z</time>
      </trkpt>
      <trkpt lat="42.90341" lon="0.1302">
        <ele>1765.6</ele>
        <time>2020-12-05T17:09:58.947Z</time>
      </trkpt>
      <trkpt lat="42.90341" lon="0.1302">
        <ele>1765.6</ele>
        <time>2020-12-05T17:09:59.947Z</time>
      </trkpt>
      <trkpt lat="42.90341" lon="0.1302">
        <ele>1765.6</ele>
        <time>2020-12-05T17:10:00.947Z</time>
      </trkpt>
      <trkpt lat="42.90341" lon="0.1302">
        <ele>1765.6</ele>
        <time>2020-12-05T17:10:01.947Z</time>
      </trkpt>
      <trkpt lat="42.90341" lon="0.1302">
        <ele>1765.6</ele>
        <time>2020-12-05T17:10:02.947Z</time>
      </trkpt>
      <trkpt lat="42.90337" lon="0.13036">
        <ele>1766.8</ele>
        <time>2020-12-05T17:10:03.947Z</time>
      </trkpt>
      <trkpt lat="42.90337" lon="0.13036">
        <ele>1766.8</ele>
        <time>2020-12-05T17:10:04.948Z</time>
      </trkpt>
      <trkpt lat="42.90337" lon="0.13036">
        <ele>1766.8</ele>
        <time>2020-12-05T17:10:05.948Z</time>
      </trkpt>
      <trkpt lat="42.90337" lon="0.13036">
        <ele>1766.8</ele>
        <time>2020-12-05T17:10:06.948Z</time>
      </trkpt>
      <trkpt lat="42.90337" lon="0.13036">
        <ele>1766.8</ele>
        <time>2020-12-05T17:10:07.948Z</time>
      </trkpt>
      <trkpt lat="42.90337" lon="0.13036">
        <ele>1766.8</ele>
        <time>2020-12-05T17:10:08.947Z</time>
      </trkpt>
      <trkpt lat="42.90333" lon="0.1305">
        <ele>1767.6</ele>
        <time>2020-12-05T17:10:09.95Z</time>
      </trkpt>
      <trkpt lat="42.90333" lon="0.1305">
        <ele>1767.6</ele>
        <time>2020-12-05T17:10:10.947Z</time>
      </trkpt>
      <trkpt lat="42.90333" lon="0.1305">
        <ele>1767.6</ele>
        <time>2020-12-05T17:10:11.948Z</time>
      </trkpt>
      <trkpt lat="42.90332" lon="0.13054">
        <ele>1768.2</ele>
        <time>2020-12-05T17:10:12.948Z</time>
      </trkpt>
      <trkpt lat="42.90332" lon="0.13054">
        <ele>1768.2</ele>
        <time>2020-12-05T17:10:13.947Z</time>
      </trkpt>
      <trkpt lat="42.90332" lon="0.13054">
        <ele>1768.2</ele>
        <time>2020-12-05T17:10:14.948Z</time>
      </trkpt>
      <trkpt lat="42.90332" lon="0.13054">
        <ele>1768.2</ele>
        <time>2020-12-05T17:10:15.947Z</time>
      </trkpt>
      <trkpt lat="42.90332" lon="0.13054">
        <ele>1768.2</ele>
        <time>2020-12-05T17:10:16.948Z</time>
      </trkpt>
      <trkpt lat="42.90332" lon="0.13054">
        <ele>1768.2</ele>
        <time>2020-12-05T17:10:17.948Z</time>
      </trkpt>
      <trkpt lat="42.90332" lon="0.13054">
        <ele>1768.2</ele>
        <time>2020-12-05T17:10:18.947Z</time>
      </trkpt>
      <trkpt lat="42.90332" lon="0.13054">
        <ele>1768.2</ele>
        <time>2020-12-05T17:10:19.947Z</time>
      </trkpt>
      <trkpt lat="42.90332" lon="0.13054">
        <ele>1768.2</ele>
        <time>2020-12-05T17:10:20.947Z</time>
      </trkpt>
      <trkpt lat="42.90328" lon="0.13072">
        <ele>1769.2</ele>
        <time>2020-12-05T17:10:21.947Z</time>
      </trkpt>
      <trkpt lat="42.90328" lon="0.13072">
        <ele>1769.2</ele>
        <time>2020-12-05T17:10:22.949Z</time>
      </trkpt>
      <trkpt lat="42.90327" lon="0.13077">
        <ele>1769.6</ele>
        <time>2020-12-05T17:10:23.948Z</time>
      </trkpt>
      <trkpt lat="42.90327" lon="0.13077">
        <ele>1769.6</ele>
        <time>2020-12-05T17:10:24.947Z</time>
      </trkpt>
      <trkpt lat="42.90327" lon="0.13077">
        <ele>1769.6</ele>
        <time>2020-12-05T17:10:25.948Z</time>
      </trkpt>
      <trkpt lat="42.90327" lon="0.13077">
        <ele>1769.6</ele>
        <time>2020-12-05T17:10:26.947Z</time>
      </trkpt>
      <trkpt lat="42.90327" lon="0.13077">
        <ele>1769.6</ele>
        <time>2020-12-05T17:10:27.947Z</time>
      </trkpt>
      <trkpt lat="42.90327" lon="0.13077">
        <ele>1769.6</ele>
        <time>2020-12-05T17:10:28.947Z</time>
      </trkpt>
      <trkpt lat="42.90326" lon="0.13091">
        <ele>1770.4</ele>
        <time>2020-12-05T17:10:29.947Z</time>
      </trkpt>
      <trkpt lat="42.90326" lon="0.13091">
        <ele>1770.4</ele>
        <time>2020-12-05T17:10:30.949Z</time>
      </trkpt>
      <trkpt lat="42.90326" lon="0.13091">
        <ele>1770.4</ele>
        <time>2020-12-05T17:10:31.948Z</time>
      </trkpt>
      <trkpt lat="42.90326" lon="0.13091">
        <ele>1770.4</ele>
        <time>2020-12-05T17:10:32.95Z</time>
      </trkpt>
      <trkpt lat="42.90325" lon="0.13099">
        <ele>1771.2</ele>
        <time>2020-12-05T17:10:33.948Z</time>
      </trkpt>
      <trkpt lat="42.90325" lon="0.13099">
        <ele>1771.2</ele>
        <time>2020-12-05T17:10:34.948Z</time>
      </trkpt>
      <trkpt lat="42.90325" lon="0.13099">
        <ele>1771.2</ele>
        <time>2020-12-05T17:10:35.948Z</time>
      </trkpt>
      <trkpt lat="42.90325" lon="0.13099">
        <ele>1771.2</ele>
        <time>2020-12-05T17:10:36.948Z</time>
      </trkpt>
      <trkpt lat="42.90326" lon="0.13107">
        <ele>1771.8</ele>
        <time>2020-12-05T17:10:37.948Z</time>
      </trkpt>
      <trkpt lat="42.90326" lon="0.13107">
        <ele>1771.8</ele>
        <time>2020-12-05T17:10:38.948Z</time>
      </trkpt>
      <trkpt lat="42.90326" lon="0.13107">
        <ele>1771.8</ele>
        <time>2020-12-05T17:10:39.947Z</time>
      </trkpt>
      <trkpt lat="42.90326" lon="0.13107">
        <ele>1771.8</ele>
        <time>2020-12-05T17:10:40.949Z</time>
      </trkpt>
      <trkpt lat="42.90326" lon="0.13107">
        <ele>1771.8</ele>
        <time>2020-12-05T17:10:41.947Z</time>
      </trkpt>
      <trkpt lat="42.90326" lon="0.13107">
        <ele>1771.8</ele>
        <time>2020-12-05T17:10:42.948Z</time>
      </trkpt>
      <trkpt lat="42.90326" lon="0.13107">
        <ele>1771.8</ele>
        <time>2020-12-05T17:10:43.948Z</time>
      </trkpt>
      <trkpt lat="42.90326" lon="0.13122">
        <ele>1772.8</ele>
        <time>2020-12-05T17:10:44.949Z</time>
      </trkpt>
      <trkpt lat="42.90326" lon="0.13122">
        <ele>1772.8</ele>
        <time>2020-12-05T17:10:45.948Z</time>
      </trkpt>
      <trkpt lat="42.90326" lon="0.13122">
        <ele>1772.8</ele>
        <time>2020-12-05T17:10:46.949Z</time>
      </trkpt>
      <trkpt lat="42.90326" lon="0.13122">
        <ele>1772.8</ele>
        <time>2020-12-05T17:10:47.949Z</time>
      </trkpt>
      <trkpt lat="42.90326" lon="0.13122">
        <ele>1772.8</ele>
        <time>2020-12-05T17:10:48.948Z</time>
      </trkpt>
      <trkpt lat="42.90326" lon="0.13122">
        <ele>1772.8</ele>
        <time>2020-12-05T17:10:49.948Z</time>
      </trkpt>
      <trkpt lat="42.90326" lon="0.13122">
        <ele>1772.8</ele>
        <time>2020-12-05T17:10:50.949Z</time>
      </trkpt>
      <trkpt lat="42.90326" lon="0.13122">
        <ele>1772.8</ele>
        <time>2020-12-05T17:10:51.95Z</time>
      </trkpt>
      <trkpt lat="42.90326" lon="0.13122">
        <ele>1772.8</ele>
        <time>2020-12-05T17:10:52.947Z</time>
      </trkpt>
      <trkpt lat="42.90322" lon="0.13141">
        <ele>1774.2</ele>
        <time>2020-12-05T17:10:53.949Z</time>
      </trkpt>
      <trkpt lat="42.90322" lon="0.13141">
        <ele>1774.2</ele>
        <time>2020-12-05T17:10:54.947Z</time>
      </trkpt>
      <trkpt lat="42.90322" lon="0.13141">
        <ele>1774.2</ele>
        <time>2020-12-05T17:10:55.947Z</time>
      </trkpt>
      <trkpt lat="42.90322" lon="0.13141">
        <ele>1774.2</ele>
        <time>2020-12-05T17:10:56.947Z</time>
      </trkpt>
      <trkpt lat="42.90322" lon="0.13141">
        <ele>1774.2</ele>
        <time>2020-12-05T17:10:57.948Z</time>
      </trkpt>
      <trkpt lat="42.90322" lon="0.13141">
        <ele>1774.2</ele>
        <time>2020-12-05T17:10:58.947Z</time>
      </trkpt>
      <trkpt lat="42.90315" lon="0.13149">
        <ele>1775.4</ele>
        <time>2020-12-05T17:10:59.949Z</time>
      </trkpt>
      <trkpt lat="42.90315" lon="0.13149">
        <ele>1775.4</ele>
        <time>2020-12-05T17:11:00.947Z</time>
      </trkpt>
      <trkpt lat="42.90315" lon="0.13149">
        <ele>1775.4</ele>
        <time>2020-12-05T17:11:01.947Z</time>
      </trkpt>
      <trkpt lat="42.90315" lon="0.13149">
        <ele>1775.4</ele>
        <time>2020-12-05T17:11:02.948Z</time>
      </trkpt>
      <trkpt lat="42.90315" lon="0.13149">
        <ele>1775.4</ele>
        <time>2020-12-05T17:11:03.947Z</time>
      </trkpt>
      <trkpt lat="42.90309" lon="0.13157">
        <ele>1776.4</ele>
        <time>2020-12-05T17:11:04.947Z</time>
      </trkpt>
      <trkpt lat="42.90309" lon="0.13157">
        <ele>1776.4</ele>
        <time>2020-12-05T17:11:05.948Z</time>
      </trkpt>
      <trkpt lat="42.90306" lon="0.13159">
        <ele>1776.8</ele>
        <time>2020-12-05T17:11:06.947Z</time>
      </trkpt>
      <trkpt lat="42.90306" lon="0.13159">
        <ele>1776.8</ele>
        <time>2020-12-05T17:11:07.947Z</time>
      </trkpt>
      <trkpt lat="42.90306" lon="0.13159">
        <ele>1776.8</ele>
        <time>2020-12-05T17:11:08.948Z</time>
      </trkpt>
      <trkpt lat="42.90306" lon="0.13159">
        <ele>1776.8</ele>
        <time>2020-12-05T17:11:09.949Z</time>
      </trkpt>
      <trkpt lat="42.90306" lon="0.13159">
        <ele>1776.8</ele>
        <time>2020-12-05T17:11:10.948Z</time>
      </trkpt>
      <trkpt lat="42.90301" lon="0.13164">
        <ele>1778</ele>
        <time>2020-12-05T17:11:11.947Z</time>
      </trkpt>
      <trkpt lat="42.90301" lon="0.13164">
        <ele>1778</ele>
        <time>2020-12-05T17:11:12.95Z</time>
      </trkpt>
      <trkpt lat="42.90301" lon="0.13164">
        <ele>1778</ele>
        <time>2020-12-05T17:11:13.948Z</time>
      </trkpt>
      <trkpt lat="42.90301" lon="0.13164">
        <ele>1778</ele>
        <time>2020-12-05T17:11:14.948Z</time>
      </trkpt>
      <trkpt lat="42.90301" lon="0.13164">
        <ele>1778</ele>
        <time>2020-12-05T17:11:15.948Z</time>
      </trkpt>
      <trkpt lat="42.90301" lon="0.13164">
        <ele>1778</ele>
        <time>2020-12-05T17:11:16.948Z</time>
      </trkpt>
      <trkpt lat="42.90294" lon="0.13172">
        <ele>1778.8</ele>
        <time>2020-12-05T17:11:17.947Z</time>
      </trkpt>
      <trkpt lat="42.90294" lon="0.13172">
        <ele>1778.8</ele>
        <time>2020-12-05T17:11:18.948Z</time>
      </trkpt>
      <trkpt lat="42.90291" lon="0.13175">
        <ele>1779</ele>
        <time>2020-12-05T17:11:19.948Z</time>
      </trkpt>
      <trkpt lat="42.90291" lon="0.13175">
        <ele>1779</ele>
        <time>2020-12-05T17:11:20.947Z</time>
      </trkpt>
      <trkpt lat="42.90291" lon="0.13175">
        <ele>1779</ele>
        <time>2020-12-05T17:11:21.949Z</time>
      </trkpt>
      <trkpt lat="42.90291" lon="0.13175">
        <ele>1779</ele>
        <time>2020-12-05T17:11:22.948Z</time>
      </trkpt>
      <trkpt lat="42.90291" lon="0.13175">
        <ele>1779</ele>
        <time>2020-12-05T17:11:23.947Z</time>
      </trkpt>
      <trkpt lat="42.90291" lon="0.13175">
        <ele>1779</ele>
        <time>2020-12-05T17:11:24.947Z</time>
      </trkpt>
      <trkpt lat="42.90291" lon="0.13175">
        <ele>1779</ele>
        <time>2020-12-05T17:11:25.95Z</time>
      </trkpt>
      <trkpt lat="42.90291" lon="0.13175">
        <ele>1779</ele>
        <time>2020-12-05T17:11:26.948Z</time>
      </trkpt>
      <trkpt lat="42.90291" lon="0.13175">
        <ele>1779</ele>
        <time>2020-12-05T17:11:27.949Z</time>
      </trkpt>
      <trkpt lat="42.90283" lon="0.13189">
        <ele>1780.2</ele>
        <time>2020-12-05T17:11:28.948Z</time>
      </trkpt>
      <trkpt lat="42.90283" lon="0.13189">
        <ele>1780.2</ele>
        <time>2020-12-05T17:11:29.949Z</time>
      </trkpt>
      <trkpt lat="42.90281" lon="0.13193">
        <ele>1780.6</ele>
        <time>2020-12-05T17:11:30.948Z</time>
      </trkpt>
      <trkpt lat="42.90281" lon="0.13193">
        <ele>1780.6</ele>
        <time>2020-12-05T17:11:31.947Z</time>
      </trkpt>
      <trkpt lat="42.90281" lon="0.13193">
        <ele>1780.6</ele>
        <time>2020-12-05T17:11:32.947Z</time>
      </trkpt>
      <trkpt lat="42.90281" lon="0.13193">
        <ele>1780.6</ele>
        <time>2020-12-05T17:11:33.95Z</time>
      </trkpt>
      <trkpt lat="42.90281" lon="0.13193">
        <ele>1780.6</ele>
        <time>2020-12-05T17:11:34.949Z</time>
      </trkpt>
      <trkpt lat="42.90281" lon="0.13193">
        <ele>1780.6</ele>
        <time>2020-12-05T17:11:35.948Z</time>
      </trkpt>
      <trkpt lat="42.90281" lon="0.13193">
        <ele>1780.6</ele>
        <time>2020-12-05T17:11:36.947Z</time>
      </trkpt>
      <trkpt lat="42.90281" lon="0.13193">
        <ele>1780.6</ele>
        <time>2020-12-05T17:11:37.948Z</time>
      </trkpt>
      <trkpt lat="42.90281" lon="0.13193">
        <ele>1780.6</ele>
        <time>2020-12-05T17:11:38.95Z</time>
      </trkpt>
      <trkpt lat="42.90281" lon="0.13193">
        <ele>1780.6</ele>
        <time>2020-12-05T17:11:39.948Z</time>
      </trkpt>
      <trkpt lat="42.90272" lon="0.13209">
        <ele>1781.4</ele>
        <time>2020-12-05T17:11:40.948Z</time>
      </trkpt>
      <trkpt lat="42.90272" lon="0.13209">
        <ele>1781.4</ele>
        <time>2020-12-05T17:11:41.948Z</time>
      </trkpt>
      <trkpt lat="42.90272" lon="0.13209">
        <ele>1781.4</ele>
        <time>2020-12-05T17:11:42.947Z</time>
      </trkpt>
      <trkpt lat="42.90272" lon="0.13209">
        <ele>1781.4</ele>
        <time>2020-12-05T17:11:43.949Z</time>
      </trkpt>
      <trkpt lat="42.90272" lon="0.13209">
        <ele>1781.4</ele>
        <time>2020-12-05T17:11:44.948Z</time>
      </trkpt>
      <trkpt lat="42.90272" lon="0.13209">
        <ele>1781.4</ele>
        <time>2020-12-05T17:11:45.947Z</time>
      </trkpt>
      <trkpt lat="42.90265" lon="0.13219">
        <ele>1782.4</ele>
        <time>2020-12-05T17:11:46.949Z</time>
      </trkpt>
      <trkpt lat="42.90265" lon="0.13219">
        <ele>1782.4</ele>
        <time>2020-12-05T17:11:47.949Z</time>
      </trkpt>
      <trkpt lat="42.90263" lon="0.13222">
        <ele>1782.6</ele>
        <time>2020-12-05T17:11:48.949Z</time>
      </trkpt>
      <trkpt lat="42.90263" lon="0.13222">
        <ele>1782.6</ele>
        <time>2020-12-05T17:11:49.947Z</time>
      </trkpt>
      <trkpt lat="42.90263" lon="0.13222">
        <ele>1782.6</ele>
        <time>2020-12-05T17:11:50.948Z</time>
      </trkpt>
      <trkpt lat="42.90263" lon="0.13222">
        <ele>1782.6</ele>
        <time>2020-12-05T17:11:51.949Z</time>
      </trkpt>
      <trkpt lat="42.90263" lon="0.13222">
        <ele>1782.6</ele>
        <time>2020-12-05T17:11:52.948Z</time>
      </trkpt>
      <trkpt lat="42.90263" lon="0.13222">
        <ele>1782.6</ele>
        <time>2020-12-05T17:11:53.948Z</time>
      </trkpt>
      <trkpt lat="42.90254" lon="0.13227">
        <ele>1783.4</ele>
        <time>2020-12-05T17:11:54.948Z</time>
      </trkpt>
      <trkpt lat="42.90254" lon="0.13227">
        <ele>1783.4</ele>
        <time>2020-12-05T17:11:55.949Z</time>
      </trkpt>
      <trkpt lat="42.90254" lon="0.13227">
        <ele>1783.4</ele>
        <time>2020-12-05T17:11:56.947Z</time>
      </trkpt>
      <trkpt lat="42.90254" lon="0.13227">
        <ele>1783.4</ele>
        <time>2020-12-05T17:11:57.948Z</time>
      </trkpt>
      <trkpt lat="42.90249" lon="0.1323">
        <ele>1784.2</ele>
        <time>2020-12-05T17:11:58.948Z</time>
      </trkpt>
      <trkpt lat="42.90249" lon="0.1323">
        <ele>1784.2</ele>
        <time>2020-12-05T17:11:59.947Z</time>
      </trkpt>
      <trkpt lat="42.90249" lon="0.1323">
        <ele>1784.2</ele>
        <time>2020-12-05T17:12:00.948Z</time>
      </trkpt>
      <trkpt lat="42.90246" lon="0.13231">
        <ele>1784.6</ele>
        <time>2020-12-05T17:12:01.949Z</time>
      </trkpt>
      <trkpt lat="42.90246" lon="0.13231">
        <ele>1784.6</ele>
        <time>2020-12-05T17:12:02.947Z</time>
      </trkpt>
      <trkpt lat="42.90246" lon="0.13231">
        <ele>1784.6</ele>
        <time>2020-12-05T17:12:03.948Z</time>
      </trkpt>
      <trkpt lat="42.90246" lon="0.13231">
        <ele>1784.6</ele>
        <time>2020-12-05T17:12:04.949Z</time>
      </trkpt>
      <trkpt lat="42.90246" lon="0.13231">
        <ele>1784.6</ele>
        <time>2020-12-05T17:12:05.948Z</time>
      </trkpt>
      <trkpt lat="42.90246" lon="0.13231">
        <ele>1784.6</ele>
        <time>2020-12-05T17:12:06.947Z</time>
      </trkpt>
      <trkpt lat="42.90246" lon="0.13231">
        <ele>1784.6</ele>
        <time>2020-12-05T17:12:07.949Z</time>
      </trkpt>
      <trkpt lat="42.90246" lon="0.13231">
        <ele>1784.6</ele>
        <time>2020-12-05T17:12:08.948Z</time>
      </trkpt>
      <trkpt lat="42.90233" lon="0.13236">
        <ele>1785.8</ele>
        <time>2020-12-05T17:12:09.947Z</time>
      </trkpt>
      <trkpt lat="42.90233" lon="0.13236">
        <ele>1785.8</ele>
        <time>2020-12-05T17:12:10.948Z</time>
      </trkpt>
      <trkpt lat="42.90233" lon="0.13236">
        <ele>1785.8</ele>
        <time>2020-12-05T17:12:11.948Z</time>
      </trkpt>
      <trkpt lat="42.90233" lon="0.13236">
        <ele>1785.8</ele>
        <time>2020-12-05T17:12:12.948Z</time>
      </trkpt>
      <trkpt lat="42.90227" lon="0.13238">
        <ele>1786.8</ele>
        <time>2020-12-05T17:12:13.949Z</time>
      </trkpt>
      <trkpt lat="42.90227" lon="0.13238">
        <ele>1786.8</ele>
        <time>2020-12-05T17:12:14.947Z</time>
      </trkpt>
      <trkpt lat="42.90224" lon="0.13238">
        <ele>1787</ele>
        <time>2020-12-05T17:12:15.949Z</time>
      </trkpt>
      <trkpt lat="42.90224" lon="0.13238">
        <ele>1787</ele>
        <time>2020-12-05T17:12:16.949Z</time>
      </trkpt>
      <trkpt lat="42.90224" lon="0.13238">
        <ele>1787</ele>
        <time>2020-12-05T17:12:17.949Z</time>
      </trkpt>
      <trkpt lat="42.90224" lon="0.13238">
        <ele>1787</ele>
        <time>2020-12-05T17:12:18.947Z</time>
      </trkpt>
      <trkpt lat="42.90224" lon="0.13238">
        <ele>1787</ele>
        <time>2020-12-05T17:12:19.948Z</time>
      </trkpt>
      <trkpt lat="42.90224" lon="0.13238">
        <ele>1787</ele>
        <time>2020-12-05T17:12:20.948Z</time>
      </trkpt>
      <trkpt lat="42.90224" lon="0.13238">
        <ele>1787</ele>
        <time>2020-12-05T17:12:21.947Z</time>
      </trkpt>
      <trkpt lat="42.90224" lon="0.13238">
        <ele>1787</ele>
        <time>2020-12-05T17:12:22.947Z</time>
      </trkpt>
      <trkpt lat="42.90211" lon="0.13239">
        <ele>1788</ele>
        <time>2020-12-05T17:12:23.948Z</time>
      </trkpt>
      <trkpt lat="42.90211" lon="0.13239">
        <ele>1788</ele>
        <time>2020-12-05T17:12:24.947Z</time>
      </trkpt>
      <trkpt lat="42.90211" lon="0.13239">
        <ele>1788</ele>
        <time>2020-12-05T17:12:25.948Z</time>
      </trkpt>
      <trkpt lat="42.90211" lon="0.13239">
        <ele>1788</ele>
        <time>2020-12-05T17:12:26.948Z</time>
      </trkpt>
      <trkpt lat="42.90205" lon="0.13239">
        <ele>1788.4</ele>
        <time>2020-12-05T17:12:27.947Z</time>
      </trkpt>
      <trkpt lat="42.90205" lon="0.13239">
        <ele>1788.4</ele>
        <time>2020-12-05T17:12:28.947Z</time>
      </trkpt>
      <trkpt lat="42.90205" lon="0.13239">
        <ele>1788.4</ele>
        <time>2020-12-05T17:12:29.949Z</time>
      </trkpt>
      <trkpt lat="42.90205" lon="0.13239">
        <ele>1788.4</ele>
        <time>2020-12-05T17:12:30.947Z</time>
      </trkpt>
      <trkpt lat="42.902" lon="0.13241">
        <ele>1789</ele>
        <time>2020-12-05T17:12:31.947Z</time>
      </trkpt>
      <trkpt lat="42.902" lon="0.13241">
        <ele>1789</ele>
        <time>2020-12-05T17:12:32.948Z</time>
      </trkpt>
      <trkpt lat="42.902" lon="0.13241">
        <ele>1789</ele>
        <time>2020-12-05T17:12:33.948Z</time>
      </trkpt>
      <trkpt lat="42.90195" lon="0.13245">
        <ele>1789.6</ele>
        <time>2020-12-05T17:12:34.949Z</time>
      </trkpt>
      <trkpt lat="42.90195" lon="0.13245">
        <ele>1789.6</ele>
        <time>2020-12-05T17:12:35.947Z</time>
      </trkpt>
      <trkpt lat="42.90195" lon="0.13245">
        <ele>1789.6</ele>
        <time>2020-12-05T17:12:36.947Z</time>
      </trkpt>
      <trkpt lat="42.90195" lon="0.13245">
        <ele>1789.6</ele>
        <time>2020-12-05T17:12:37.948Z</time>
      </trkpt>
      <trkpt lat="42.90191" lon="0.13251">
        <ele>1790.2</ele>
        <time>2020-12-05T17:12:38.949Z</time>
      </trkpt>
      <trkpt lat="42.90191" lon="0.13251">
        <ele>1790.2</ele>
        <time>2020-12-05T17:12:39.947Z</time>
      </trkpt>
      <trkpt lat="42.90191" lon="0.13251">
        <ele>1790.2</ele>
        <time>2020-12-05T17:12:40.947Z</time>
      </trkpt>
      <trkpt lat="42.90191" lon="0.13251">
        <ele>1790.2</ele>
        <time>2020-12-05T17:12:41.948Z</time>
      </trkpt>
      <trkpt lat="42.90191" lon="0.13251">
        <ele>1790.2</ele>
        <time>2020-12-05T17:12:42.949Z</time>
      </trkpt>
      <trkpt lat="42.90191" lon="0.13251">
        <ele>1790.2</ele>
        <time>2020-12-05T17:12:43.948Z</time>
      </trkpt>
      <trkpt lat="42.90191" lon="0.13251">
        <ele>1790.2</ele>
        <time>2020-12-05T17:12:44.948Z</time>
      </trkpt>
      <trkpt lat="42.90188" lon="0.13264">
        <ele>1791</ele>
        <time>2020-12-05T17:12:45.949Z</time>
      </trkpt>
      <trkpt lat="42.90188" lon="0.13264">
        <ele>1791</ele>
        <time>2020-12-05T17:12:46.948Z</time>
      </trkpt>
      <trkpt lat="42.90188" lon="0.13269">
        <ele>1791.2</ele>
        <time>2020-12-05T17:12:47.95Z</time>
      </trkpt>
      <trkpt lat="42.90188" lon="0.13269">
        <ele>1791.2</ele>
        <time>2020-12-05T17:12:48.948Z</time>
      </trkpt>
      <trkpt lat="42.90188" lon="0.13269">
        <ele>1791.2</ele>
        <time>2020-12-05T17:12:49.948Z</time>
      </trkpt>
      <trkpt lat="42.90188" lon="0.13269">
        <ele>1791.2</ele>
        <time>2020-12-05T17:12:50.948Z</time>
      </trkpt>
      <trkpt lat="42.90188" lon="0.13269">
        <ele>1791.2</ele>
        <time>2020-12-05T17:12:51.948Z</time>
      </trkpt>
      <trkpt lat="42.90188" lon="0.13269">
        <ele>1791.2</ele>
        <time>2020-12-05T17:12:52.949Z</time>
      </trkpt>
      <trkpt lat="42.90188" lon="0.13269">
        <ele>1791.2</ele>
        <time>2020-12-05T17:12:53.947Z</time>
      </trkpt>
      <trkpt lat="42.90188" lon="0.13269">
        <ele>1791.2</ele>
        <time>2020-12-05T17:12:54.949Z</time>
      </trkpt>
      <trkpt lat="42.90188" lon="0.13269">
        <ele>1791.2</ele>
        <time>2020-12-05T17:12:55.948Z</time>
      </trkpt>
      <trkpt lat="42.90191" lon="0.13287">
        <ele>1792.2</ele>
        <time>2020-12-05T17:12:56.947Z</time>
      </trkpt>
      <trkpt lat="42.90191" lon="0.13287">
        <ele>1792.2</ele>
        <time>2020-12-05T17:12:57.948Z</time>
      </trkpt>
      <trkpt lat="42.90191" lon="0.13287">
        <ele>1792.2</ele>
        <time>2020-12-05T17:12:58.948Z</time>
      </trkpt>
      <trkpt lat="42.90191" lon="0.13287">
        <ele>1792.2</ele>
        <time>2020-12-05T17:12:59.948Z</time>
      </trkpt>
      <trkpt lat="42.90191" lon="0.13287">
        <ele>1792.2</ele>
        <time>2020-12-05T17:13:00.948Z</time>
      </trkpt>
      <trkpt lat="42.90191" lon="0.13287">
        <ele>1792.2</ele>
        <time>2020-12-05T17:13:01.947Z</time>
      </trkpt>
      <trkpt lat="42.90196" lon="0.13299">
        <ele>1793.4</ele>
        <time>2020-12-05T17:13:02.947Z</time>
      </trkpt>
      <trkpt lat="42.90196" lon="0.13299">
        <ele>1793.4</ele>
        <time>2020-12-05T17:13:03.948Z</time>
      </trkpt>
      <trkpt lat="42.90196" lon="0.13299">
        <ele>1793.4</ele>
        <time>2020-12-05T17:13:04.948Z</time>
      </trkpt>
      <trkpt lat="42.90196" lon="0.13299">
        <ele>1793.4</ele>
        <time>2020-12-05T17:13:05.947Z</time>
      </trkpt>
      <trkpt lat="42.90196" lon="0.13299">
        <ele>1793.4</ele>
        <time>2020-12-05T17:13:06.948Z</time>
      </trkpt>
      <trkpt lat="42.90196" lon="0.13299">
        <ele>1793.4</ele>
        <time>2020-12-05T17:13:07.95Z</time>
      </trkpt>
      <trkpt lat="42.90196" lon="0.13299">
        <ele>1793.4</ele>
        <time>2020-12-05T17:13:08.948Z</time>
      </trkpt>
      <trkpt lat="42.902" lon="0.13311">
        <ele>1794.4</ele>
        <time>2020-12-05T17:13:09.947Z</time>
      </trkpt>
      <trkpt lat="42.902" lon="0.13311">
        <ele>1794.4</ele>
        <time>2020-12-05T17:13:10.947Z</time>
      </trkpt>
      <trkpt lat="42.90202" lon="0.13315">
        <ele>1794.8</ele>
        <time>2020-12-05T17:13:11.948Z</time>
      </trkpt>
      <trkpt lat="42.90202" lon="0.13315">
        <ele>1794.8</ele>
        <time>2020-12-05T17:13:12.947Z</time>
      </trkpt>
      <trkpt lat="42.90203" lon="0.13319">
        <ele>1795.4</ele>
        <time>2020-12-05T17:13:13.948Z</time>
      </trkpt>
      <trkpt lat="42.90203" lon="0.13319">
        <ele>1795.4</ele>
        <time>2020-12-05T17:13:14.948Z</time>
      </trkpt>
      <trkpt lat="42.90203" lon="0.13319">
        <ele>1795.4</ele>
        <time>2020-12-05T17:13:15.947Z</time>
      </trkpt>
      <trkpt lat="42.90203" lon="0.13319">
        <ele>1795.4</ele>
        <time>2020-12-05T17:13:16.948Z</time>
      </trkpt>
      <trkpt lat="42.90203" lon="0.13319">
        <ele>1795.4</ele>
        <time>2020-12-05T17:13:17.949Z</time>
      </trkpt>
      <trkpt lat="42.90203" lon="0.13319">
        <ele>1795.4</ele>
        <time>2020-12-05T17:13:18.948Z</time>
      </trkpt>
      <trkpt lat="42.90203" lon="0.13319">
        <ele>1795.4</ele>
        <time>2020-12-05T17:13:19.948Z</time>
      </trkpt>
      <trkpt lat="42.90203" lon="0.13319">
        <ele>1795.4</ele>
        <time>2020-12-05T17:13:20.948Z</time>
      </trkpt>
      <trkpt lat="42.90203" lon="0.13319">
        <ele>1795.4</ele>
        <time>2020-12-05T17:13:21.947Z</time>
      </trkpt>
      <trkpt lat="42.90208" lon="0.13336">
        <ele>1796.6</ele>
        <time>2020-12-05T17:13:22.947Z</time>
      </trkpt>
      <trkpt lat="42.90208" lon="0.13336">
        <ele>1796.6</ele>
        <time>2020-12-05T17:13:23.947Z</time>
      </trkpt>
      <trkpt lat="42.90209" lon="0.1334">
        <ele>1796.8</ele>
        <time>2020-12-05T17:13:24.949Z</time>
      </trkpt>
      <trkpt lat="42.90209" lon="0.1334">
        <ele>1796.8</ele>
        <time>2020-12-05T17:13:25.947Z</time>
      </trkpt>
      <trkpt lat="42.90209" lon="0.1334">
        <ele>1796.8</ele>
        <time>2020-12-05T17:13:26.947Z</time>
      </trkpt>
      <trkpt lat="42.90209" lon="0.1334">
        <ele>1796.8</ele>
        <time>2020-12-05T17:13:27.948Z</time>
      </trkpt>
      <trkpt lat="42.90209" lon="0.1334">
        <ele>1796.8</ele>
        <time>2020-12-05T17:13:28.948Z</time>
      </trkpt>
      <trkpt lat="42.90209" lon="0.1334">
        <ele>1796.8</ele>
        <time>2020-12-05T17:13:29.948Z</time>
      </trkpt>
      <trkpt lat="42.9021" lon="0.13352">
        <ele>1797.6</ele>
        <time>2020-12-05T17:13:30.949Z</time>
      </trkpt>
      <trkpt lat="42.9021" lon="0.13352">
        <ele>1797.6</ele>
        <time>2020-12-05T17:13:31.948Z</time>
      </trkpt>
      <trkpt lat="42.9021" lon="0.13352">
        <ele>1797.6</ele>
        <time>2020-12-05T17:13:32.949Z</time>
      </trkpt>
      <trkpt lat="42.9021" lon="0.13352">
        <ele>1797.6</ele>
        <time>2020-12-05T17:13:33.95Z</time>
      </trkpt>
      <trkpt lat="42.9021" lon="0.13352">
        <ele>1797.6</ele>
        <time>2020-12-05T17:13:34.948Z</time>
      </trkpt>
      <trkpt lat="42.9021" lon="0.13352">
        <ele>1797.6</ele>
        <time>2020-12-05T17:13:35.947Z</time>
      </trkpt>
      <trkpt lat="42.90211" lon="0.13364">
        <ele>1798.6</ele>
        <time>2020-12-05T17:13:36.948Z</time>
      </trkpt>
      <trkpt lat="42.90211" lon="0.13364">
        <ele>1798.6</ele>
        <time>2020-12-05T17:13:37.949Z</time>
      </trkpt>
      <trkpt lat="42.90211" lon="0.13368">
        <ele>1798.8</ele>
        <time>2020-12-05T17:13:38.948Z</time>
      </trkpt>
      <trkpt lat="42.90211" lon="0.13368">
        <ele>1798.8</ele>
        <time>2020-12-05T17:13:39.947Z</time>
      </trkpt>
      <trkpt lat="42.90211" lon="0.13368">
        <ele>1798.8</ele>
        <time>2020-12-05T17:13:40.947Z</time>
      </trkpt>
      <trkpt lat="42.90211" lon="0.13368">
        <ele>1798.8</ele>
        <time>2020-12-05T17:13:41.948Z</time>
      </trkpt>
      <trkpt lat="42.90211" lon="0.13368">
        <ele>1798.8</ele>
        <time>2020-12-05T17:13:42.947Z</time>
      </trkpt>
      <trkpt lat="42.90211" lon="0.13368">
        <ele>1798.8</ele>
        <time>2020-12-05T17:13:43.948Z</time>
      </trkpt>
      <trkpt lat="42.90211" lon="0.13368">
        <ele>1798.8</ele>
        <time>2020-12-05T17:13:44.947Z</time>
      </trkpt>
      <trkpt lat="42.90213" lon="0.13385">
        <ele>1800</ele>
        <time>2020-12-05T17:13:45.949Z</time>
      </trkpt>
      <trkpt lat="42.90213" lon="0.13385">
        <ele>1800</ele>
        <time>2020-12-05T17:13:46.949Z</time>
      </trkpt>
      <trkpt lat="42.90213" lon="0.13385">
        <ele>1800</ele>
        <time>2020-12-05T17:13:47.948Z</time>
      </trkpt>
      <trkpt lat="42.90214" lon="0.13389">
        <ele>1800.4</ele>
        <time>2020-12-05T17:13:48.948Z</time>
      </trkpt>
      <trkpt lat="42.90214" lon="0.13389">
        <ele>1800.4</ele>
        <time>2020-12-05T17:13:49.947Z</time>
      </trkpt>
      <trkpt lat="42.90214" lon="0.13389">
        <ele>1800.4</ele>
        <time>2020-12-05T17:13:50.948Z</time>
      </trkpt>
      <trkpt lat="42.90214" lon="0.13389">
        <ele>1800.4</ele>
        <time>2020-12-05T17:13:51.948Z</time>
      </trkpt>
      <trkpt lat="42.90217" lon="0.13396">
        <ele>1801.4</ele>
        <time>2020-12-05T17:13:52.948Z</time>
      </trkpt>
      <trkpt lat="42.90217" lon="0.13396">
        <ele>1801.4</ele>
        <time>2020-12-05T17:13:53.947Z</time>
      </trkpt>
      <trkpt lat="42.90217" lon="0.13396">
        <ele>1801.4</ele>
        <time>2020-12-05T17:13:54.95Z</time>
      </trkpt>
      <trkpt lat="42.90217" lon="0.13396">
        <ele>1801.4</ele>
        <time>2020-12-05T17:13:55.948Z</time>
      </trkpt>
      <trkpt lat="42.90217" lon="0.13396">
        <ele>1801.4</ele>
        <time>2020-12-05T17:13:56.949Z</time>
      </trkpt>
      <trkpt lat="42.90217" lon="0.13396">
        <ele>1801.4</ele>
        <time>2020-12-05T17:13:57.947Z</time>
      </trkpt>
      <trkpt lat="42.90217" lon="0.13396">
        <ele>1801.4</ele>
        <time>2020-12-05T17:13:58.947Z</time>
      </trkpt>
      <trkpt lat="42.90226" lon="0.13406">
        <ele>1802.2</ele>
        <time>2020-12-05T17:13:59.948Z</time>
      </trkpt>
      <trkpt lat="42.90226" lon="0.13406">
        <ele>1802.2</ele>
        <time>2020-12-05T17:14:00.95Z</time>
      </trkpt>
      <trkpt lat="42.90226" lon="0.13406">
        <ele>1802.2</ele>
        <time>2020-12-05T17:14:01.947Z</time>
      </trkpt>
      <trkpt lat="42.9023" lon="0.13408">
        <ele>1802.4</ele>
        <time>2020-12-05T17:14:02.947Z</time>
      </trkpt>
      <trkpt lat="42.9023" lon="0.13408">
        <ele>1802.4</ele>
        <time>2020-12-05T17:14:03.948Z</time>
      </trkpt>
      <trkpt lat="42.9023" lon="0.13408">
        <ele>1802.4</ele>
        <time>2020-12-05T17:14:04.947Z</time>
      </trkpt>
      <trkpt lat="42.9023" lon="0.13408">
        <ele>1802.4</ele>
        <time>2020-12-05T17:14:05.949Z</time>
      </trkpt>
      <trkpt lat="42.9023" lon="0.13408">
        <ele>1802.4</ele>
        <time>2020-12-05T17:14:06.949Z</time>
      </trkpt>
      <trkpt lat="42.9023" lon="0.13408">
        <ele>1802.4</ele>
        <time>2020-12-05T17:14:07.948Z</time>
      </trkpt>
      <trkpt lat="42.9023" lon="0.13408">
        <ele>1802.4</ele>
        <time>2020-12-05T17:14:08.947Z</time>
      </trkpt>
      <trkpt lat="42.9023" lon="0.13408">
        <ele>1802.4</ele>
        <time>2020-12-05T17:14:09.949Z</time>
      </trkpt>
      <trkpt lat="42.9023" lon="0.13408">
        <ele>1802.4</ele>
        <time>2020-12-05T17:14:10.947Z</time>
      </trkpt>
      <trkpt lat="42.90243" lon="0.13415">
        <ele>1803.6</ele>
        <time>2020-12-05T17:14:11.95Z</time>
      </trkpt>
      <trkpt lat="42.90246" lon="0.13417">
        <ele>1803.8</ele>
        <time>2020-12-05T17:14:12.948Z</time>
      </trkpt>
      <trkpt lat="42.90246" lon="0.13417">
        <ele>1803.8</ele>
        <time>2020-12-05T17:14:13.947Z</time>
      </trkpt>
      <trkpt lat="42.90246" lon="0.13417">
        <ele>1803.8</ele>
        <time>2020-12-05T17:14:14.947Z</time>
      </trkpt>
      <trkpt lat="42.90246" lon="0.13417">
        <ele>1803.8</ele>
        <time>2020-12-05T17:14:15.948Z</time>
      </trkpt>
      <trkpt lat="42.90246" lon="0.13417">
        <ele>1803.8</ele>
        <time>2020-12-05T17:14:16.947Z</time>
      </trkpt>
      <trkpt lat="42.90246" lon="0.13417">
        <ele>1803.8</ele>
        <time>2020-12-05T17:14:17.947Z</time>
      </trkpt>
      <trkpt lat="42.90253" lon="0.13424">
        <ele>1804.6</ele>
        <time>2020-12-05T17:14:18.947Z</time>
      </trkpt>
      <trkpt lat="42.90253" lon="0.13424">
        <ele>1804.6</ele>
        <time>2020-12-05T17:14:19.947Z</time>
      </trkpt>
      <trkpt lat="42.90253" lon="0.13424">
        <ele>1804.6</ele>
        <time>2020-12-05T17:14:20.949Z</time>
      </trkpt>
      <trkpt lat="42.90253" lon="0.13424">
        <ele>1804.6</ele>
        <time>2020-12-05T17:14:21.948Z</time>
      </trkpt>
      <trkpt lat="42.90253" lon="0.13424">
        <ele>1804.6</ele>
        <time>2020-12-05T17:14:22.948Z</time>
      </trkpt>
      <trkpt lat="42.90253" lon="0.13424">
        <ele>1804.6</ele>
        <time>2020-12-05T17:14:23.948Z</time>
      </trkpt>
      <trkpt lat="42.90258" lon="0.13434">
        <ele>1805.4</ele>
        <time>2020-12-05T17:14:24.95Z</time>
      </trkpt>
      <trkpt lat="42.90258" lon="0.13434">
        <ele>1805.4</ele>
        <time>2020-12-05T17:14:25.948Z</time>
      </trkpt>
      <trkpt lat="42.90259" lon="0.13437">
        <ele>1805.8</ele>
        <time>2020-12-05T17:14:26.948Z</time>
      </trkpt>
      <trkpt lat="42.90259" lon="0.13437">
        <ele>1805.8</ele>
        <time>2020-12-05T17:14:27.948Z</time>
      </trkpt>
      <trkpt lat="42.90259" lon="0.13437">
        <ele>1805.8</ele>
        <time>2020-12-05T17:14:28.948Z</time>
      </trkpt>
      <trkpt lat="42.90259" lon="0.13437">
        <ele>1805.8</ele>
        <time>2020-12-05T17:14:29.947Z</time>
      </trkpt>
      <trkpt lat="42.90259" lon="0.13437">
        <ele>1805.8</ele>
        <time>2020-12-05T17:14:30.947Z</time>
      </trkpt>
      <trkpt lat="42.90259" lon="0.13437">
        <ele>1805.8</ele>
        <time>2020-12-05T17:14:31.947Z</time>
      </trkpt>
      <trkpt lat="42.90259" lon="0.13437">
        <ele>1805.8</ele>
        <time>2020-12-05T17:14:32.947Z</time>
      </trkpt>
      <trkpt lat="42.90259" lon="0.13437">
        <ele>1805.8</ele>
        <time>2020-12-05T17:14:33.948Z</time>
      </trkpt>
      <trkpt lat="42.90263" lon="0.13453">
        <ele>1806.6</ele>
        <time>2020-12-05T17:14:34.947Z</time>
      </trkpt>
      <trkpt lat="42.90263" lon="0.13453">
        <ele>1806.6</ele>
        <time>2020-12-05T17:14:35.947Z</time>
      </trkpt>
      <trkpt lat="42.90264" lon="0.13457">
        <ele>1807</ele>
        <time>2020-12-05T17:14:36.947Z</time>
      </trkpt>
      <trkpt lat="42.90264" lon="0.13457">
        <ele>1807</ele>
        <time>2020-12-05T17:14:37.949Z</time>
      </trkpt>
      <trkpt lat="42.90264" lon="0.13457">
        <ele>1807</ele>
        <time>2020-12-05T17:14:38.947Z</time>
      </trkpt>
      <trkpt lat="42.90264" lon="0.13457">
        <ele>1807</ele>
        <time>2020-12-05T17:14:39.948Z</time>
      </trkpt>
      <trkpt lat="42.90264" lon="0.13457">
        <ele>1807</ele>
        <time>2020-12-05T17:14:40.947Z</time>
      </trkpt>
      <trkpt lat="42.90264" lon="0.13457">
        <ele>1807</ele>
        <time>2020-12-05T17:14:41.949Z</time>
      </trkpt>
      <trkpt lat="42.90267" lon="0.13469">
        <ele>1808</ele>
        <time>2020-12-05T17:14:42.948Z</time>
      </trkpt>
      <trkpt lat="42.90267" lon="0.13469">
        <ele>1808</ele>
        <time>2020-12-05T17:14:43.948Z</time>
      </trkpt>
      <trkpt lat="42.90267" lon="0.13469">
        <ele>1808</ele>
        <time>2020-12-05T17:14:44.949Z</time>
      </trkpt>
      <trkpt lat="42.90267" lon="0.13469">
        <ele>1808</ele>
        <time>2020-12-05T17:14:45.947Z</time>
      </trkpt>
      <trkpt lat="42.90267" lon="0.13469">
        <ele>1808</ele>
        <time>2020-12-05T17:14:46.95Z</time>
      </trkpt>
      <trkpt lat="42.90267" lon="0.13469">
        <ele>1808</ele>
        <time>2020-12-05T17:14:47.947Z</time>
      </trkpt>
      <trkpt lat="42.90267" lon="0.13469">
        <ele>1808</ele>
        <time>2020-12-05T17:14:48.947Z</time>
      </trkpt>
      <trkpt lat="42.90267" lon="0.13482">
        <ele>1809.2</ele>
        <time>2020-12-05T17:14:49.948Z</time>
      </trkpt>
      <trkpt lat="42.90267" lon="0.13482">
        <ele>1809.2</ele>
        <time>2020-12-05T17:14:50.948Z</time>
      </trkpt>
      <trkpt lat="42.90267" lon="0.13482">
        <ele>1809.2</ele>
        <time>2020-12-05T17:14:51.948Z</time>
      </trkpt>
      <trkpt lat="42.90267" lon="0.13482">
        <ele>1809.2</ele>
        <time>2020-12-05T17:14:52.948Z</time>
      </trkpt>
      <trkpt lat="42.90267" lon="0.13482">
        <ele>1809.2</ele>
        <time>2020-12-05T17:14:53.947Z</time>
      </trkpt>
      <trkpt lat="42.90267" lon="0.13482">
        <ele>1809.2</ele>
        <time>2020-12-05T17:14:54.948Z</time>
      </trkpt>
      <trkpt lat="42.90267" lon="0.13482">
        <ele>1809.2</ele>
        <time>2020-12-05T17:14:55.949Z</time>
      </trkpt>
      <trkpt lat="42.90265" lon="0.13499">
        <ele>1810.4</ele>
        <time>2020-12-05T17:14:56.947Z</time>
      </trkpt>
      <trkpt lat="42.90265" lon="0.13499">
        <ele>1810.4</ele>
        <time>2020-12-05T17:14:57.949Z</time>
      </trkpt>
      <trkpt lat="42.90265" lon="0.13499">
        <ele>1810.4</ele>
        <time>2020-12-05T17:14:58.95Z</time>
      </trkpt>
      <trkpt lat="42.90265" lon="0.13499">
        <ele>1810.4</ele>
        <time>2020-12-05T17:14:59.949Z</time>
      </trkpt>
      <trkpt lat="42.90265" lon="0.13499">
        <ele>1810.4</ele>
        <time>2020-12-05T17:15:00.948Z</time>
      </trkpt>
      <trkpt lat="42.90265" lon="0.13499">
        <ele>1810.4</ele>
        <time>2020-12-05T17:15:01.947Z</time>
      </trkpt>
      <trkpt lat="42.90263" lon="0.13511">
        <ele>1811.4</ele>
        <time>2020-12-05T17:15:02.948Z</time>
      </trkpt>
      <trkpt lat="42.90263" lon="0.13511">
        <ele>1811.4</ele>
        <time>2020-12-05T17:15:03.949Z</time>
      </trkpt>
      <trkpt lat="42.90263" lon="0.13511">
        <ele>1811.4</ele>
        <time>2020-12-05T17:15:04.947Z</time>
      </trkpt>
      <trkpt lat="42.90263" lon="0.13511">
        <ele>1811.4</ele>
        <time>2020-12-05T17:15:05.947Z</time>
      </trkpt>
      <trkpt lat="42.90263" lon="0.13516">
        <ele>1811.6</ele>
        <time>2020-12-05T17:15:06.95Z</time>
      </trkpt>
      <trkpt lat="42.90263" lon="0.13516">
        <ele>1811.6</ele>
        <time>2020-12-05T17:15:07.95Z</time>
      </trkpt>
      <trkpt lat="42.90263" lon="0.13516">
        <ele>1811.6</ele>
        <time>2020-12-05T17:15:08.948Z</time>
      </trkpt>
      <trkpt lat="42.90263" lon="0.13516">
        <ele>1811.6</ele>
        <time>2020-12-05T17:15:09.948Z</time>
      </trkpt>
      <trkpt lat="42.90263" lon="0.13516">
        <ele>1811.6</ele>
        <time>2020-12-05T17:15:10.948Z</time>
      </trkpt>
      <trkpt lat="42.90263" lon="0.13516">
        <ele>1811.6</ele>
        <time>2020-12-05T17:15:11.95Z</time>
      </trkpt>
      <trkpt lat="42.90264" lon="0.1353">
        <ele>1812.6</ele>
        <time>2020-12-05T17:15:12.948Z</time>
      </trkpt>
      <trkpt lat="42.90264" lon="0.1353">
        <ele>1812.6</ele>
        <time>2020-12-05T17:15:13.948Z</time>
      </trkpt>
      <trkpt lat="42.90264" lon="0.1353">
        <ele>1812.6</ele>
        <time>2020-12-05T17:15:14.948Z</time>
      </trkpt>
      <trkpt lat="42.90264" lon="0.1353">
        <ele>1812.6</ele>
        <time>2020-12-05T17:15:15.948Z</time>
      </trkpt>
      <trkpt lat="42.90264" lon="0.1353">
        <ele>1812.6</ele>
        <time>2020-12-05T17:15:16.947Z</time>
      </trkpt>
      <trkpt lat="42.90265" lon="0.13539">
        <ele>1813.6</ele>
        <time>2020-12-05T17:15:17.947Z</time>
      </trkpt>
      <trkpt lat="42.90265" lon="0.13539">
        <ele>1813.6</ele>
        <time>2020-12-05T17:15:18.949Z</time>
      </trkpt>
      <trkpt lat="42.90266" lon="0.13543">
        <ele>1813.8</ele>
        <time>2020-12-05T17:15:19.947Z</time>
      </trkpt>
      <trkpt lat="42.90266" lon="0.13543">
        <ele>1813.8</ele>
        <time>2020-12-05T17:15:20.95Z</time>
      </trkpt>
      <trkpt lat="42.90266" lon="0.13543">
        <ele>1813.8</ele>
        <time>2020-12-05T17:15:21.948Z</time>
      </trkpt>
      <trkpt lat="42.90266" lon="0.13543">
        <ele>1813.8</ele>
        <time>2020-12-05T17:15:22.95Z</time>
      </trkpt>
      <trkpt lat="42.90266" lon="0.13543">
        <ele>1813.8</ele>
        <time>2020-12-05T17:15:23.948Z</time>
      </trkpt>
      <trkpt lat="42.90266" lon="0.13543">
        <ele>1813.8</ele>
        <time>2020-12-05T17:15:24.948Z</time>
      </trkpt>
      <trkpt lat="42.90266" lon="0.13543">
        <ele>1813.8</ele>
        <time>2020-12-05T17:15:25.948Z</time>
      </trkpt>
      <trkpt lat="42.90266" lon="0.13543">
        <ele>1813.8</ele>
        <time>2020-12-05T17:15:26.947Z</time>
      </trkpt>
      <trkpt lat="42.90266" lon="0.13543">
        <ele>1813.8</ele>
        <time>2020-12-05T17:15:27.948Z</time>
      </trkpt>
      <trkpt lat="42.90266" lon="0.13543">
        <ele>1813.8</ele>
        <time>2020-12-05T17:15:28.949Z</time>
      </trkpt>
      <trkpt lat="42.90272" lon="0.13565">
        <ele>1815</ele>
        <time>2020-12-05T17:15:29.948Z</time>
      </trkpt>
      <trkpt lat="42.90272" lon="0.13565">
        <ele>1815</ele>
        <time>2020-12-05T17:15:30.948Z</time>
      </trkpt>
      <trkpt lat="42.90272" lon="0.13565">
        <ele>1815</ele>
        <time>2020-12-05T17:15:31.948Z</time>
      </trkpt>
      <trkpt lat="42.90274" lon="0.13573">
        <ele>1815.8</ele>
        <time>2020-12-05T17:15:32.948Z</time>
      </trkpt>
      <trkpt lat="42.90274" lon="0.13573">
        <ele>1815.8</ele>
        <time>2020-12-05T17:15:33.948Z</time>
      </trkpt>
      <trkpt lat="42.90274" lon="0.13573">
        <ele>1815.8</ele>
        <time>2020-12-05T17:15:34.948Z</time>
      </trkpt>
      <trkpt lat="42.90274" lon="0.13573">
        <ele>1815.8</ele>
        <time>2020-12-05T17:15:35.947Z</time>
      </trkpt>
      <trkpt lat="42.90274" lon="0.13573">
        <ele>1815.8</ele>
        <time>2020-12-05T17:15:36.949Z</time>
      </trkpt>
      <trkpt lat="42.90275" lon="0.13582">
        <ele>1816.2</ele>
        <time>2020-12-05T17:15:37.948Z</time>
      </trkpt>
      <trkpt lat="42.90275" lon="0.13582">
        <ele>1816.2</ele>
        <time>2020-12-05T17:15:38.947Z</time>
      </trkpt>
      <trkpt lat="42.90275" lon="0.13582">
        <ele>1816.2</ele>
        <time>2020-12-05T17:15:39.947Z</time>
      </trkpt>
      <trkpt lat="42.90275" lon="0.13582">
        <ele>1816.2</ele>
        <time>2020-12-05T17:15:40.949Z</time>
      </trkpt>
      <trkpt lat="42.90275" lon="0.13582">
        <ele>1816.2</ele>
        <time>2020-12-05T17:15:41.948Z</time>
      </trkpt>
      <trkpt lat="42.90275" lon="0.13582">
        <ele>1816.2</ele>
        <time>2020-12-05T17:15:42.947Z</time>
      </trkpt>
      <trkpt lat="42.90275" lon="0.13582">
        <ele>1816.2</ele>
        <time>2020-12-05T17:15:43.949Z</time>
      </trkpt>
      <trkpt lat="42.90275" lon="0.13582">
        <ele>1816.2</ele>
        <time>2020-12-05T17:15:44.947Z</time>
      </trkpt>
      <trkpt lat="42.90275" lon="0.13582">
        <ele>1816.2</ele>
        <time>2020-12-05T17:15:45.949Z</time>
      </trkpt>
      <trkpt lat="42.90277" lon="0.136">
        <ele>1817.2</ele>
        <time>2020-12-05T17:15:46.948Z</time>
      </trkpt>
      <trkpt lat="42.90279" lon="0.13604">
        <ele>1817.4</ele>
        <time>2020-12-05T17:15:47.948Z</time>
      </trkpt>
      <trkpt lat="42.90279" lon="0.13604">
        <ele>1817.4</ele>
        <time>2020-12-05T17:15:48.947Z</time>
      </trkpt>
      <trkpt lat="42.90279" lon="0.13604">
        <ele>1817.4</ele>
        <time>2020-12-05T17:15:49.949Z</time>
      </trkpt>
      <trkpt lat="42.90279" lon="0.13604">
        <ele>1817.4</ele>
        <time>2020-12-05T17:15:50.948Z</time>
      </trkpt>
      <trkpt lat="42.90279" lon="0.13604">
        <ele>1817.4</ele>
        <time>2020-12-05T17:15:51.947Z</time>
      </trkpt>
      <trkpt lat="42.90279" lon="0.13604">
        <ele>1817.4</ele>
        <time>2020-12-05T17:15:52.948Z</time>
      </trkpt>
      <trkpt lat="42.90286" lon="0.13613">
        <ele>1818.4</ele>
        <time>2020-12-05T17:15:53.949Z</time>
      </trkpt>
      <trkpt lat="42.90286" lon="0.13613">
        <ele>1818.4</ele>
        <time>2020-12-05T17:15:54.947Z</time>
      </trkpt>
      <trkpt lat="42.90286" lon="0.13613">
        <ele>1818.4</ele>
        <time>2020-12-05T17:15:55.948Z</time>
      </trkpt>
      <trkpt lat="42.90289" lon="0.13615">
        <ele>1818.8</ele>
        <time>2020-12-05T17:15:56.95Z</time>
      </trkpt>
      <trkpt lat="42.90292" lon="0.13616">
        <ele>1819</ele>
        <time>2020-12-05T17:15:57.947Z</time>
      </trkpt>
      <trkpt lat="42.90292" lon="0.13616">
        <ele>1819</ele>
        <time>2020-12-05T17:15:58.949Z</time>
      </trkpt>
      <trkpt lat="42.90292" lon="0.13616">
        <ele>1819</ele>
        <time>2020-12-05T17:15:59.948Z</time>
      </trkpt>
      <trkpt lat="42.90292" lon="0.13616">
        <ele>1819</ele>
        <time>2020-12-05T17:16:00.948Z</time>
      </trkpt>
      <trkpt lat="42.90292" lon="0.13616">
        <ele>1819</ele>
        <time>2020-12-05T17:16:01.947Z</time>
      </trkpt>
      <trkpt lat="42.90299" lon="0.13616">
        <ele>1819.6</ele>
        <time>2020-12-05T17:16:02.947Z</time>
      </trkpt>
      <trkpt lat="42.90299" lon="0.13616">
        <ele>1819.6</ele>
        <time>2020-12-05T17:16:03.948Z</time>
      </trkpt>
      <trkpt lat="42.90299" lon="0.13616">
        <ele>1819.6</ele>
        <time>2020-12-05T17:16:04.947Z</time>
      </trkpt>
      <trkpt lat="42.90299" lon="0.13616">
        <ele>1819.6</ele>
        <time>2020-12-05T17:16:05.949Z</time>
      </trkpt>
      <trkpt lat="42.90299" lon="0.13616">
        <ele>1819.6</ele>
        <time>2020-12-05T17:16:06.947Z</time>
      </trkpt>
      <trkpt lat="42.90307" lon="0.13618">
        <ele>1820.2</ele>
        <time>2020-12-05T17:16:07.949Z</time>
      </trkpt>
      <trkpt lat="42.90307" lon="0.13618">
        <ele>1820.2</ele>
        <time>2020-12-05T17:16:08.949Z</time>
      </trkpt>
      <trkpt lat="42.90307" lon="0.13618">
        <ele>1820.2</ele>
        <time>2020-12-05T17:16:09.948Z</time>
      </trkpt>
      <trkpt lat="42.90307" lon="0.13618">
        <ele>1820.2</ele>
        <time>2020-12-05T17:16:10.947Z</time>
      </trkpt>
      <trkpt lat="42.90314" lon="0.1362">
        <ele>1820.8</ele>
        <time>2020-12-05T17:16:11.948Z</time>
      </trkpt>
      <trkpt lat="42.90314" lon="0.1362">
        <ele>1820.8</ele>
        <time>2020-12-05T17:16:12.948Z</time>
      </trkpt>
      <trkpt lat="42.90314" lon="0.1362">
        <ele>1820.8</ele>
        <time>2020-12-05T17:16:13.948Z</time>
      </trkpt>
      <trkpt lat="42.90314" lon="0.1362">
        <ele>1820.8</ele>
        <time>2020-12-05T17:16:14.947Z</time>
      </trkpt>
      <trkpt lat="42.90314" lon="0.1362">
        <ele>1820.8</ele>
        <time>2020-12-05T17:16:15.95Z</time>
      </trkpt>
      <trkpt lat="42.90314" lon="0.1362">
        <ele>1820.8</ele>
        <time>2020-12-05T17:16:16.948Z</time>
      </trkpt>
      <trkpt lat="42.90323" lon="0.13625">
        <ele>1821.8</ele>
        <time>2020-12-05T17:16:17.948Z</time>
      </trkpt>
      <trkpt lat="42.90323" lon="0.13625">
        <ele>1821.8</ele>
        <time>2020-12-05T17:16:18.947Z</time>
      </trkpt>
      <trkpt lat="42.90323" lon="0.13625">
        <ele>1821.8</ele>
        <time>2020-12-05T17:16:19.949Z</time>
      </trkpt>
      <trkpt lat="42.90323" lon="0.13625">
        <ele>1821.8</ele>
        <time>2020-12-05T17:16:20.947Z</time>
      </trkpt>
      <trkpt lat="42.90329" lon="0.13629">
        <ele>1822.4</ele>
        <time>2020-12-05T17:16:21.949Z</time>
      </trkpt>
      <trkpt lat="42.90329" lon="0.13629">
        <ele>1822.4</ele>
        <time>2020-12-05T17:16:22.949Z</time>
      </trkpt>
      <trkpt lat="42.90329" lon="0.13629">
        <ele>1822.4</ele>
        <time>2020-12-05T17:16:23.947Z</time>
      </trkpt>
      <trkpt lat="42.90329" lon="0.13629">
        <ele>1822.4</ele>
        <time>2020-12-05T17:16:24.95Z</time>
      </trkpt>
      <trkpt lat="42.90329" lon="0.13629">
        <ele>1822.4</ele>
        <time>2020-12-05T17:16:25.947Z</time>
      </trkpt>
      <trkpt lat="42.90329" lon="0.13629">
        <ele>1822.4</ele>
        <time>2020-12-05T17:16:26.949Z</time>
      </trkpt>
      <trkpt lat="42.90337" lon="0.13637">
        <ele>1823.2</ele>
        <time>2020-12-05T17:16:27.947Z</time>
      </trkpt>
      <trkpt lat="42.90337" lon="0.13637">
        <ele>1823.2</ele>
        <time>2020-12-05T17:16:28.949Z</time>
      </trkpt>
      <trkpt lat="42.90337" lon="0.13637">
        <ele>1823.2</ele>
        <time>2020-12-05T17:16:29.948Z</time>
      </trkpt>
      <trkpt lat="42.90337" lon="0.13637">
        <ele>1823.2</ele>
        <time>2020-12-05T17:16:30.948Z</time>
      </trkpt>
      <trkpt lat="42.90337" lon="0.13637">
        <ele>1823.2</ele>
        <time>2020-12-05T17:16:31.947Z</time>
      </trkpt>
      <trkpt lat="42.90337" lon="0.13637">
        <ele>1823.2</ele>
        <time>2020-12-05T17:16:32.948Z</time>
      </trkpt>
      <trkpt lat="42.90344" lon="0.13646">
        <ele>1824.2</ele>
        <time>2020-12-05T17:16:33.948Z</time>
      </trkpt>
      <trkpt lat="42.90344" lon="0.13646">
        <ele>1824.2</ele>
        <time>2020-12-05T17:16:34.947Z</time>
      </trkpt>
      <trkpt lat="42.90347" lon="0.1365">
        <ele>1824.4</ele>
        <time>2020-12-05T17:16:35.949Z</time>
      </trkpt>
      <trkpt lat="42.90347" lon="0.1365">
        <ele>1824.4</ele>
        <time>2020-12-05T17:16:36.949Z</time>
      </trkpt>
      <trkpt lat="42.90347" lon="0.1365">
        <ele>1824.4</ele>
        <time>2020-12-05T17:16:37.949Z</time>
      </trkpt>
      <trkpt lat="42.90347" lon="0.1365">
        <ele>1824.4</ele>
        <time>2020-12-05T17:16:38.947Z</time>
      </trkpt>
      <trkpt lat="42.90347" lon="0.1365">
        <ele>1824.4</ele>
        <time>2020-12-05T17:16:39.948Z</time>
      </trkpt>
      <trkpt lat="42.90347" lon="0.1365">
        <ele>1824.4</ele>
        <time>2020-12-05T17:16:40.947Z</time>
      </trkpt>
      <trkpt lat="42.90347" lon="0.1365">
        <ele>1824.4</ele>
        <time>2020-12-05T17:16:41.949Z</time>
      </trkpt>
      <trkpt lat="42.90352" lon="0.13661">
        <ele>1825.2</ele>
        <time>2020-12-05T17:16:42.948Z</time>
      </trkpt>
      <trkpt lat="42.90352" lon="0.13661">
        <ele>1825.2</ele>
        <time>2020-12-05T17:16:43.947Z</time>
      </trkpt>
      <trkpt lat="42.90352" lon="0.13661">
        <ele>1825.2</ele>
        <time>2020-12-05T17:16:44.947Z</time>
      </trkpt>
      <trkpt lat="42.90352" lon="0.13661">
        <ele>1825.2</ele>
        <time>2020-12-05T17:16:45.948Z</time>
      </trkpt>
      <trkpt lat="42.90352" lon="0.13661">
        <ele>1825.2</ele>
        <time>2020-12-05T17:16:46.949Z</time>
      </trkpt>
      <trkpt lat="42.90352" lon="0.13661">
        <ele>1825.2</ele>
        <time>2020-12-05T17:16:47.948Z</time>
      </trkpt>
      <trkpt lat="42.90355" lon="0.13674">
        <ele>1826</ele>
        <time>2020-12-05T17:16:48.947Z</time>
      </trkpt>
      <trkpt lat="42.90355" lon="0.13674">
        <ele>1826</ele>
        <time>2020-12-05T17:16:49.947Z</time>
      </trkpt>
      <trkpt lat="42.90355" lon="0.13674">
        <ele>1826</ele>
        <time>2020-12-05T17:16:50.948Z</time>
      </trkpt>
      <trkpt lat="42.90355" lon="0.13674">
        <ele>1826</ele>
        <time>2020-12-05T17:16:51.948Z</time>
      </trkpt>
      <trkpt lat="42.90358" lon="0.13681">
        <ele>1826.4</ele>
        <time>2020-12-05T17:16:52.949Z</time>
      </trkpt>
      <trkpt lat="42.90358" lon="0.13681">
        <ele>1826.4</ele>
        <time>2020-12-05T17:16:53.947Z</time>
      </trkpt>
      <trkpt lat="42.90358" lon="0.13681">
        <ele>1826.4</ele>
        <time>2020-12-05T17:16:54.947Z</time>
      </trkpt>
      <trkpt lat="42.90358" lon="0.13681">
        <ele>1826.4</ele>
        <time>2020-12-05T17:16:55.948Z</time>
      </trkpt>
      <trkpt lat="42.90358" lon="0.13681">
        <ele>1826.4</ele>
        <time>2020-12-05T17:16:56.948Z</time>
      </trkpt>
      <trkpt lat="42.90365" lon="0.1369">
        <ele>1827.4</ele>
        <time>2020-12-05T17:16:57.949Z</time>
      </trkpt>
      <trkpt lat="42.90365" lon="0.1369">
        <ele>1827.4</ele>
        <time>2020-12-05T17:16:58.947Z</time>
      </trkpt>
      <trkpt lat="42.90365" lon="0.1369">
        <ele>1827.4</ele>
        <time>2020-12-05T17:16:59.947Z</time>
      </trkpt>
      <trkpt lat="42.90368" lon="0.13693">
        <ele>1827.8</ele>
        <time>2020-12-05T17:17:00.948Z</time>
      </trkpt>
      <trkpt lat="42.90368" lon="0.13693">
        <ele>1827.8</ele>
        <time>2020-12-05T17:17:01.948Z</time>
      </trkpt>
      <trkpt lat="42.90368" lon="0.13693">
        <ele>1827.8</ele>
        <time>2020-12-05T17:17:02.949Z</time>
      </trkpt>
      <trkpt lat="42.90368" lon="0.13693">
        <ele>1827.8</ele>
        <time>2020-12-05T17:17:03.949Z</time>
      </trkpt>
      <trkpt lat="42.90368" lon="0.13693">
        <ele>1827.8</ele>
        <time>2020-12-05T17:17:04.948Z</time>
      </trkpt>
      <trkpt lat="42.90373" lon="0.13697">
        <ele>1828.6</ele>
        <time>2020-12-05T17:17:05.947Z</time>
      </trkpt>
      <trkpt lat="42.90373" lon="0.13697">
        <ele>1828.6</ele>
        <time>2020-12-05T17:17:06.948Z</time>
      </trkpt>
      <trkpt lat="42.90373" lon="0.13697">
        <ele>1828.6</ele>
        <time>2020-12-05T17:17:07.947Z</time>
      </trkpt>
      <trkpt lat="42.90373" lon="0.13697">
        <ele>1828.6</ele>
        <time>2020-12-05T17:17:08.949Z</time>
      </trkpt>
      <trkpt lat="42.90373" lon="0.13697">
        <ele>1828.6</ele>
        <time>2020-12-05T17:17:09.949Z</time>
      </trkpt>
      <trkpt lat="42.90373" lon="0.13697">
        <ele>1828.6</ele>
        <time>2020-12-05T17:17:10.948Z</time>
      </trkpt>
      <trkpt lat="42.90383" lon="0.13703">
        <ele>1829.6</ele>
        <time>2020-12-05T17:17:11.947Z</time>
      </trkpt>
      <trkpt lat="42.90383" lon="0.13703">
        <ele>1829.6</ele>
        <time>2020-12-05T17:17:12.947Z</time>
      </trkpt>
      <trkpt lat="42.90383" lon="0.13703">
        <ele>1829.6</ele>
        <time>2020-12-05T17:17:13.949Z</time>
      </trkpt>
      <trkpt lat="42.90383" lon="0.13703">
        <ele>1829.6</ele>
        <time>2020-12-05T17:17:14.947Z</time>
      </trkpt>
      <trkpt lat="42.90383" lon="0.13703">
        <ele>1829.6</ele>
        <time>2020-12-05T17:17:15.949Z</time>
      </trkpt>
      <trkpt lat="42.90383" lon="0.13703">
        <ele>1829.6</ele>
        <time>2020-12-05T17:17:16.948Z</time>
      </trkpt>
      <trkpt lat="42.90383" lon="0.13703">
        <ele>1829.6</ele>
        <time>2020-12-05T17:17:17.948Z</time>
      </trkpt>
      <trkpt lat="42.90383" lon="0.13703">
        <ele>1829.6</ele>
        <time>2020-12-05T17:17:18.948Z</time>
      </trkpt>
      <trkpt lat="42.90383" lon="0.13703">
        <ele>1829.6</ele>
        <time>2020-12-05T17:17:19.95Z</time>
      </trkpt>
      <trkpt lat="42.90395" lon="0.1371">
        <ele>1831</ele>
        <time>2020-12-05T17:17:20.948Z</time>
      </trkpt>
      <trkpt lat="42.90395" lon="0.1371">
        <ele>1831</ele>
        <time>2020-12-05T17:17:21.947Z</time>
      </trkpt>
      <trkpt lat="42.90395" lon="0.1371">
        <ele>1831</ele>
        <time>2020-12-05T17:17:22.949Z</time>
      </trkpt>
      <trkpt lat="42.90395" lon="0.1371">
        <ele>1831</ele>
        <time>2020-12-05T17:17:23.947Z</time>
      </trkpt>
      <trkpt lat="42.90395" lon="0.1371">
        <ele>1831</ele>
        <time>2020-12-05T17:17:24.95Z</time>
      </trkpt>
      <trkpt lat="42.90395" lon="0.1371">
        <ele>1831</ele>
        <time>2020-12-05T17:17:25.949Z</time>
      </trkpt>
      <trkpt lat="42.90395" lon="0.1371">
        <ele>1831</ele>
        <time>2020-12-05T17:17:26.948Z</time>
      </trkpt>
      <trkpt lat="42.90406" lon="0.13715">
        <ele>1831.8</ele>
        <time>2020-12-05T17:17:27.949Z</time>
      </trkpt>
      <trkpt lat="42.90406" lon="0.13715">
        <ele>1831.8</ele>
        <time>2020-12-05T17:17:28.948Z</time>
      </trkpt>
      <trkpt lat="42.9041" lon="0.13717">
        <ele>1832.4</ele>
        <time>2020-12-05T17:17:29.948Z</time>
      </trkpt>
      <trkpt lat="42.9041" lon="0.13717">
        <ele>1832.4</ele>
        <time>2020-12-05T17:17:30.949Z</time>
      </trkpt>
      <trkpt lat="42.9041" lon="0.13717">
        <ele>1832.4</ele>
        <time>2020-12-05T17:17:31.948Z</time>
      </trkpt>
      <trkpt lat="42.9041" lon="0.13717">
        <ele>1832.4</ele>
        <time>2020-12-05T17:17:32.948Z</time>
      </trkpt>
      <trkpt lat="42.9041" lon="0.13717">
        <ele>1832.4</ele>
        <time>2020-12-05T17:17:33.949Z</time>
      </trkpt>
      <trkpt lat="42.9041" lon="0.13717">
        <ele>1832.4</ele>
        <time>2020-12-05T17:17:34.948Z</time>
      </trkpt>
      <trkpt lat="42.9041" lon="0.13717">
        <ele>1832.4</ele>
        <time>2020-12-05T17:17:35.947Z</time>
      </trkpt>
      <trkpt lat="42.9041" lon="0.13717">
        <ele>1832.4</ele>
        <time>2020-12-05T17:17:36.949Z</time>
      </trkpt>
      <trkpt lat="42.9041" lon="0.13717">
        <ele>1832.4</ele>
        <time>2020-12-05T17:17:37.948Z</time>
      </trkpt>
      <trkpt lat="42.9041" lon="0.13717">
        <ele>1832.4</ele>
        <time>2020-12-05T17:17:38.948Z</time>
      </trkpt>
      <trkpt lat="42.90425" lon="0.13721">
        <ele>1833.4</ele>
        <time>2020-12-05T17:17:39.947Z</time>
      </trkpt>
      <trkpt lat="42.90425" lon="0.13721">
        <ele>1833.4</ele>
        <time>2020-12-05T17:17:40.948Z</time>
      </trkpt>
      <trkpt lat="42.90425" lon="0.13721">
        <ele>1833.4</ele>
        <time>2020-12-05T17:17:41.949Z</time>
      </trkpt>
      <trkpt lat="42.90429" lon="0.13722">
        <ele>1833.6</ele>
        <time>2020-12-05T17:17:42.948Z</time>
      </trkpt>
      <trkpt lat="42.90429" lon="0.13722">
        <ele>1833.6</ele>
        <time>2020-12-05T17:17:43.947Z</time>
      </trkpt>
      <trkpt lat="42.90429" lon="0.13722">
        <ele>1833.6</ele>
        <time>2020-12-05T17:17:44.949Z</time>
      </trkpt>
      <trkpt lat="42.90429" lon="0.13722">
        <ele>1833.6</ele>
        <time>2020-12-05T17:17:45.948Z</time>
      </trkpt>
      <trkpt lat="42.90429" lon="0.13722">
        <ele>1833.6</ele>
        <time>2020-12-05T17:17:46.948Z</time>
      </trkpt>
      <trkpt lat="42.90429" lon="0.13722">
        <ele>1833.6</ele>
        <time>2020-12-05T17:17:47.947Z</time>
      </trkpt>
      <trkpt lat="42.90429" lon="0.13722">
        <ele>1833.6</ele>
        <time>2020-12-05T17:17:48.948Z</time>
      </trkpt>
      <trkpt lat="42.90429" lon="0.13722">
        <ele>1833.6</ele>
        <time>2020-12-05T17:17:49.948Z</time>
      </trkpt>
      <trkpt lat="42.90429" lon="0.13722">
        <ele>1833.6</ele>
        <time>2020-12-05T17:17:50.949Z</time>
      </trkpt>
      <trkpt lat="42.90429" lon="0.13722">
        <ele>1833.6</ele>
        <time>2020-12-05T17:17:51.947Z</time>
      </trkpt>
      <trkpt lat="42.90447" lon="0.1372">
        <ele>1834.2</ele>
        <time>2020-12-05T17:17:52.947Z</time>
      </trkpt>
      <trkpt lat="42.90447" lon="0.1372">
        <ele>1834.2</ele>
        <time>2020-12-05T17:17:53.949Z</time>
      </trkpt>
      <trkpt lat="42.90447" lon="0.1372">
        <ele>1834.2</ele>
        <time>2020-12-05T17:17:54.948Z</time>
      </trkpt>
      <trkpt lat="42.90451" lon="0.13718">
        <ele>1834.2</ele>
        <time>2020-12-05T17:17:55.948Z</time>
      </trkpt>
      <trkpt lat="42.90451" lon="0.13718">
        <ele>1834.2</ele>
        <time>2020-12-05T17:17:56.947Z</time>
      </trkpt>
      <trkpt lat="42.90451" lon="0.13718">
        <ele>1834.2</ele>
        <time>2020-12-05T17:17:57.947Z</time>
      </trkpt>
      <trkpt lat="42.90451" lon="0.13718">
        <ele>1834.2</ele>
        <time>2020-12-05T17:17:58.947Z</time>
      </trkpt>
      <trkpt lat="42.90451" lon="0.13718">
        <ele>1834.2</ele>
        <time>2020-12-05T17:17:59.949Z</time>
      </trkpt>
      <trkpt lat="42.90451" lon="0.13718">
        <ele>1834.2</ele>
        <time>2020-12-05T17:18:00.948Z</time>
      </trkpt>
      <trkpt lat="42.90451" lon="0.13718">
        <ele>1834.2</ele>
        <time>2020-12-05T17:18:01.948Z</time>
      </trkpt>
      <trkpt lat="42.90451" lon="0.13718">
        <ele>1834.2</ele>
        <time>2020-12-05T17:18:02.949Z</time>
      </trkpt>
      <trkpt lat="42.90451" lon="0.13718">
        <ele>1834.2</ele>
        <time>2020-12-05T17:18:03.948Z</time>
      </trkpt>
      <trkpt lat="42.90465" lon="0.13716">
        <ele>1835.6</ele>
        <time>2020-12-05T17:18:04.947Z</time>
      </trkpt>
      <trkpt lat="42.90465" lon="0.13716">
        <ele>1835.6</ele>
        <time>2020-12-05T17:18:05.948Z</time>
      </trkpt>
      <trkpt lat="42.90469" lon="0.13716">
        <ele>1836</ele>
        <time>2020-12-05T17:18:06.947Z</time>
      </trkpt>
      <trkpt lat="42.90469" lon="0.13716">
        <ele>1836</ele>
        <time>2020-12-05T17:18:07.948Z</time>
      </trkpt>
      <trkpt lat="42.90469" lon="0.13716">
        <ele>1836</ele>
        <time>2020-12-05T17:18:08.947Z</time>
      </trkpt>
      <trkpt lat="42.90469" lon="0.13716">
        <ele>1836</ele>
        <time>2020-12-05T17:18:09.948Z</time>
      </trkpt>
      <trkpt lat="42.90469" lon="0.13716">
        <ele>1836</ele>
        <time>2020-12-05T17:18:10.949Z</time>
      </trkpt>
      <trkpt lat="42.90469" lon="0.13716">
        <ele>1836</ele>
        <time>2020-12-05T17:18:11.948Z</time>
      </trkpt>
      <trkpt lat="42.90479" lon="0.13717">
        <ele>1836.6</ele>
        <time>2020-12-05T17:18:12.948Z</time>
      </trkpt>
      <trkpt lat="42.90479" lon="0.13717">
        <ele>1836.6</ele>
        <time>2020-12-05T17:18:13.947Z</time>
      </trkpt>
      <trkpt lat="42.90479" lon="0.13717">
        <ele>1836.6</ele>
        <time>2020-12-05T17:18:14.948Z</time>
      </trkpt>
      <trkpt lat="42.90485" lon="0.1372">
        <ele>1837</ele>
        <time>2020-12-05T17:18:15.948Z</time>
      </trkpt>
      <trkpt lat="42.90485" lon="0.1372">
        <ele>1837</ele>
        <time>2020-12-05T17:18:16.948Z</time>
      </trkpt>
      <trkpt lat="42.90485" lon="0.1372">
        <ele>1837</ele>
        <time>2020-12-05T17:18:17.947Z</time>
      </trkpt>
      <trkpt lat="42.90485" lon="0.1372">
        <ele>1837</ele>
        <time>2020-12-05T17:18:18.948Z</time>
      </trkpt>
      <trkpt lat="42.90485" lon="0.1372">
        <ele>1837</ele>
        <time>2020-12-05T17:18:19.948Z</time>
      </trkpt>
      <trkpt lat="42.90485" lon="0.1372">
        <ele>1837</ele>
        <time>2020-12-05T17:18:20.947Z</time>
      </trkpt>
      <trkpt lat="42.90493" lon="0.13728">
        <ele>1837.8</ele>
        <time>2020-12-05T17:18:21.948Z</time>
      </trkpt>
      <trkpt lat="42.90493" lon="0.13728">
        <ele>1837.8</ele>
        <time>2020-12-05T17:18:22.948Z</time>
      </trkpt>
      <trkpt lat="42.90493" lon="0.13728">
        <ele>1837.8</ele>
        <time>2020-12-05T17:18:23.949Z</time>
      </trkpt>
      <trkpt lat="42.90493" lon="0.13728">
        <ele>1837.8</ele>
        <time>2020-12-05T17:18:24.948Z</time>
      </trkpt>
      <trkpt lat="42.90493" lon="0.13728">
        <ele>1837.8</ele>
        <time>2020-12-05T17:18:25.947Z</time>
      </trkpt>
      <trkpt lat="42.90493" lon="0.13728">
        <ele>1837.8</ele>
        <time>2020-12-05T17:18:26.948Z</time>
      </trkpt>
      <trkpt lat="42.905" lon="0.13737">
        <ele>1839</ele>
        <time>2020-12-05T17:18:27.949Z</time>
      </trkpt>
      <trkpt lat="42.905" lon="0.13737">
        <ele>1839</ele>
        <time>2020-12-05T17:18:28.947Z</time>
      </trkpt>
      <trkpt lat="42.905" lon="0.13737">
        <ele>1839</ele>
        <time>2020-12-05T17:18:29.947Z</time>
      </trkpt>
      <trkpt lat="42.905" lon="0.13737">
        <ele>1839</ele>
        <time>2020-12-05T17:18:30.947Z</time>
      </trkpt>
      <trkpt lat="42.905" lon="0.13737">
        <ele>1839</ele>
        <time>2020-12-05T17:18:31.949Z</time>
      </trkpt>
      <trkpt lat="42.905" lon="0.13737">
        <ele>1839</ele>
        <time>2020-12-05T17:18:32.948Z</time>
      </trkpt>
      <trkpt lat="42.905" lon="0.13737">
        <ele>1839</ele>
        <time>2020-12-05T17:18:33.948Z</time>
      </trkpt>
      <trkpt lat="42.905" lon="0.13737">
        <ele>1839</ele>
        <time>2020-12-05T17:18:34.947Z</time>
      </trkpt>
      <trkpt lat="42.905" lon="0.13737">
        <ele>1839</ele>
        <time>2020-12-05T17:18:35.948Z</time>
      </trkpt>
      <trkpt lat="42.905" lon="0.13737">
        <ele>1839</ele>
        <time>2020-12-05T17:18:36.947Z</time>
      </trkpt>
      <trkpt lat="42.90511" lon="0.13752">
        <ele>1840.2</ele>
        <time>2020-12-05T17:18:37.948Z</time>
      </trkpt>
      <trkpt lat="42.90511" lon="0.13752">
        <ele>1840.2</ele>
        <time>2020-12-05T17:18:38.947Z</time>
      </trkpt>
      <trkpt lat="42.90511" lon="0.13752">
        <ele>1840.2</ele>
        <time>2020-12-05T17:18:39.947Z</time>
      </trkpt>
      <trkpt lat="42.90511" lon="0.13752">
        <ele>1840.2</ele>
        <time>2020-12-05T17:18:40.95Z</time>
      </trkpt>
      <trkpt lat="42.90511" lon="0.13752">
        <ele>1840.2</ele>
        <time>2020-12-05T17:18:41.949Z</time>
      </trkpt>
      <trkpt lat="42.90511" lon="0.13752">
        <ele>1840.2</ele>
        <time>2020-12-05T17:18:42.948Z</time>
      </trkpt>
      <trkpt lat="42.90517" lon="0.13762">
        <ele>1841.2</ele>
        <time>2020-12-05T17:18:43.948Z</time>
      </trkpt>
      <trkpt lat="42.90519" lon="0.13766">
        <ele>1841.6</ele>
        <time>2020-12-05T17:18:44.948Z</time>
      </trkpt>
      <trkpt lat="42.90519" lon="0.13766">
        <ele>1841.6</ele>
        <time>2020-12-05T17:18:45.948Z</time>
      </trkpt>
      <trkpt lat="42.90519" lon="0.13766">
        <ele>1841.6</ele>
        <time>2020-12-05T17:18:46.948Z</time>
      </trkpt>
      <trkpt lat="42.90519" lon="0.13766">
        <ele>1841.6</ele>
        <time>2020-12-05T17:18:47.947Z</time>
      </trkpt>
      <trkpt lat="42.90519" lon="0.13766">
        <ele>1841.6</ele>
        <time>2020-12-05T17:18:48.95Z</time>
      </trkpt>
      <trkpt lat="42.90519" lon="0.13766">
        <ele>1841.6</ele>
        <time>2020-12-05T17:18:49.949Z</time>
      </trkpt>
      <trkpt lat="42.90519" lon="0.13766">
        <ele>1841.6</ele>
        <time>2020-12-05T17:18:50.948Z</time>
      </trkpt>
      <trkpt lat="42.90519" lon="0.13766">
        <ele>1841.6</ele>
        <time>2020-12-05T17:18:51.947Z</time>
      </trkpt>
      <trkpt lat="42.90519" lon="0.13766">
        <ele>1841.6</ele>
        <time>2020-12-05T17:18:52.948Z</time>
      </trkpt>
      <trkpt lat="42.90526" lon="0.13781">
        <ele>1842.6</ele>
        <time>2020-12-05T17:18:53.947Z</time>
      </trkpt>
      <trkpt lat="42.90526" lon="0.13781">
        <ele>1842.6</ele>
        <time>2020-12-05T17:18:54.949Z</time>
      </trkpt>
      <trkpt lat="42.90526" lon="0.13781">
        <ele>1842.6</ele>
        <time>2020-12-05T17:18:55.948Z</time>
      </trkpt>
      <trkpt lat="42.90526" lon="0.13781">
        <ele>1842.6</ele>
        <time>2020-12-05T17:18:56.947Z</time>
      </trkpt>
      <trkpt lat="42.90526" lon="0.13781">
        <ele>1842.6</ele>
        <time>2020-12-05T17:18:57.948Z</time>
      </trkpt>
      <trkpt lat="42.90526" lon="0.13781">
        <ele>1842.6</ele>
        <time>2020-12-05T17:18:58.948Z</time>
      </trkpt>
      <trkpt lat="42.90532" lon="0.13792">
        <ele>1843.6</ele>
        <time>2020-12-05T17:18:59.948Z</time>
      </trkpt>
      <trkpt lat="42.90532" lon="0.13792">
        <ele>1843.6</ele>
        <time>2020-12-05T17:19:00.949Z</time>
      </trkpt>
      <trkpt lat="42.90534" lon="0.13795">
        <ele>1844</ele>
        <time>2020-12-05T17:19:01.947Z</time>
      </trkpt>
      <trkpt lat="42.90534" lon="0.13795">
        <ele>1844</ele>
        <time>2020-12-05T17:19:02.948Z</time>
      </trkpt>
      <trkpt lat="42.90534" lon="0.13795">
        <ele>1844</ele>
        <time>2020-12-05T17:19:03.947Z</time>
      </trkpt>
      <trkpt lat="42.90534" lon="0.13795">
        <ele>1844</ele>
        <time>2020-12-05T17:19:04.949Z</time>
      </trkpt>
      <trkpt lat="42.90534" lon="0.13795">
        <ele>1844</ele>
        <time>2020-12-05T17:19:05.948Z</time>
      </trkpt>
      <trkpt lat="42.90534" lon="0.13795">
        <ele>1844</ele>
        <time>2020-12-05T17:19:06.948Z</time>
      </trkpt>
      <trkpt lat="42.90534" lon="0.13795">
        <ele>1844</ele>
        <time>2020-12-05T17:19:07.948Z</time>
      </trkpt>
      <trkpt lat="42.90541" lon="0.13805">
        <ele>1845</ele>
        <time>2020-12-05T17:19:08.948Z</time>
      </trkpt>
      <trkpt lat="42.90541" lon="0.13805">
        <ele>1845</ele>
        <time>2020-12-05T17:19:09.948Z</time>
      </trkpt>
      <trkpt lat="42.90541" lon="0.13805">
        <ele>1845</ele>
        <time>2020-12-05T17:19:10.949Z</time>
      </trkpt>
      <trkpt lat="42.90541" lon="0.13805">
        <ele>1845</ele>
        <time>2020-12-05T17:19:11.949Z</time>
      </trkpt>
      <trkpt lat="42.90541" lon="0.13805">
        <ele>1845</ele>
        <time>2020-12-05T17:19:12.948Z</time>
      </trkpt>
      <trkpt lat="42.90541" lon="0.13805">
        <ele>1845</ele>
        <time>2020-12-05T17:19:13.947Z</time>
      </trkpt>
      <trkpt lat="42.90541" lon="0.13805">
        <ele>1845</ele>
        <time>2020-12-05T17:19:14.948Z</time>
      </trkpt>
      <trkpt lat="42.90541" lon="0.13805">
        <ele>1845</ele>
        <time>2020-12-05T17:19:15.948Z</time>
      </trkpt>
      <trkpt lat="42.9055" lon="0.13813">
        <ele>1845.8</ele>
        <time>2020-12-05T17:19:16.948Z</time>
      </trkpt>
      <trkpt lat="42.90553" lon="0.13816">
        <ele>1846</ele>
        <time>2020-12-05T17:19:17.947Z</time>
      </trkpt>
      <trkpt lat="42.90553" lon="0.13816">
        <ele>1846</ele>
        <time>2020-12-05T17:19:18.947Z</time>
      </trkpt>
      <trkpt lat="42.90553" lon="0.13816">
        <ele>1846</ele>
        <time>2020-12-05T17:19:19.948Z</time>
      </trkpt>
      <trkpt lat="42.90553" lon="0.13816">
        <ele>1846</ele>
        <time>2020-12-05T17:19:20.947Z</time>
      </trkpt>
      <trkpt lat="42.90553" lon="0.13816">
        <ele>1846</ele>
        <time>2020-12-05T17:19:21.947Z</time>
      </trkpt>
      <trkpt lat="42.90553" lon="0.13816">
        <ele>1846</ele>
        <time>2020-12-05T17:19:22.949Z</time>
      </trkpt>
      <trkpt lat="42.90553" lon="0.13816">
        <ele>1846</ele>
        <time>2020-12-05T17:19:23.948Z</time>
      </trkpt>
      <trkpt lat="42.90561" lon="0.13824">
        <ele>1847.4</ele>
        <time>2020-12-05T17:19:24.948Z</time>
      </trkpt>
      <trkpt lat="42.90561" lon="0.13824">
        <ele>1847.4</ele>
        <time>2020-12-05T17:19:25.948Z</time>
      </trkpt>
      <trkpt lat="42.90561" lon="0.13824">
        <ele>1847.4</ele>
        <time>2020-12-05T17:19:26.947Z</time>
      </trkpt>
      <trkpt lat="42.90561" lon="0.13824">
        <ele>1847.4</ele>
        <time>2020-12-05T17:19:27.95Z</time>
      </trkpt>
      <trkpt lat="42.90561" lon="0.13824">
        <ele>1847.4</ele>
        <time>2020-12-05T17:19:28.947Z</time>
      </trkpt>
      <trkpt lat="42.90561" lon="0.13824">
        <ele>1847.4</ele>
        <time>2020-12-05T17:19:29.947Z</time>
      </trkpt>
      <trkpt lat="42.90561" lon="0.13824">
        <ele>1847.4</ele>
        <time>2020-12-05T17:19:30.948Z</time>
      </trkpt>
      <trkpt lat="42.90561" lon="0.13824">
        <ele>1847.4</ele>
        <time>2020-12-05T17:19:31.947Z</time>
      </trkpt>
      <trkpt lat="42.9057" lon="0.13831">
        <ele>1848.4</ele>
        <time>2020-12-05T17:19:32.947Z</time>
      </trkpt>
      <trkpt lat="42.9057" lon="0.13831">
        <ele>1848.4</ele>
        <time>2020-12-05T17:19:33.948Z</time>
      </trkpt>
      <trkpt lat="42.90573" lon="0.13833">
        <ele>1848.8</ele>
        <time>2020-12-05T17:19:34.947Z</time>
      </trkpt>
      <trkpt lat="42.90573" lon="0.13833">
        <ele>1848.8</ele>
        <time>2020-12-05T17:19:35.947Z</time>
      </trkpt>
      <trkpt lat="42.90573" lon="0.13833">
        <ele>1848.8</ele>
        <time>2020-12-05T17:19:36.95Z</time>
      </trkpt>
      <trkpt lat="42.90573" lon="0.13833">
        <ele>1848.8</ele>
        <time>2020-12-05T17:19:37.948Z</time>
      </trkpt>
      <trkpt lat="42.90573" lon="0.13833">
        <ele>1848.8</ele>
        <time>2020-12-05T17:19:38.949Z</time>
      </trkpt>
      <trkpt lat="42.90573" lon="0.13833">
        <ele>1848.8</ele>
        <time>2020-12-05T17:19:39.948Z</time>
      </trkpt>
      <trkpt lat="42.90583" lon="0.13838">
        <ele>1849.6</ele>
        <time>2020-12-05T17:19:40.947Z</time>
      </trkpt>
      <trkpt lat="42.90583" lon="0.13838">
        <ele>1849.6</ele>
        <time>2020-12-05T17:19:41.948Z</time>
      </trkpt>
      <trkpt lat="42.90583" lon="0.13838">
        <ele>1849.6</ele>
        <time>2020-12-05T17:19:42.947Z</time>
      </trkpt>
      <trkpt lat="42.90583" lon="0.13838">
        <ele>1849.6</ele>
        <time>2020-12-05T17:19:43.949Z</time>
      </trkpt>
      <trkpt lat="42.90583" lon="0.13838">
        <ele>1849.6</ele>
        <time>2020-12-05T17:19:44.949Z</time>
      </trkpt>
      <trkpt lat="42.90583" lon="0.13838">
        <ele>1849.6</ele>
        <time>2020-12-05T17:19:45.948Z</time>
      </trkpt>
      <trkpt lat="42.90583" lon="0.13838">
        <ele>1849.6</ele>
        <time>2020-12-05T17:19:46.947Z</time>
      </trkpt>
      <trkpt lat="42.90593" lon="0.13842">
        <ele>1850.4</ele>
        <time>2020-12-05T17:19:47.948Z</time>
      </trkpt>
      <trkpt lat="42.90593" lon="0.13842">
        <ele>1850.4</ele>
        <time>2020-12-05T17:19:48.947Z</time>
      </trkpt>
      <trkpt lat="42.90596" lon="0.13843">
        <ele>1850.6</ele>
        <time>2020-12-05T17:19:49.948Z</time>
      </trkpt>
      <trkpt lat="42.90596" lon="0.13843">
        <ele>1850.6</ele>
        <time>2020-12-05T17:19:50.949Z</time>
      </trkpt>
      <trkpt lat="42.90596" lon="0.13843">
        <ele>1850.6</ele>
        <time>2020-12-05T17:19:51.949Z</time>
      </trkpt>
      <trkpt lat="42.90596" lon="0.13843">
        <ele>1850.6</ele>
        <time>2020-12-05T17:19:52.949Z</time>
      </trkpt>
      <trkpt lat="42.90596" lon="0.13843">
        <ele>1850.6</ele>
        <time>2020-12-05T17:19:53.948Z</time>
      </trkpt>
      <trkpt lat="42.90596" lon="0.13843">
        <ele>1850.6</ele>
        <time>2020-12-05T17:19:54.948Z</time>
      </trkpt>
      <trkpt lat="42.90596" lon="0.13843">
        <ele>1850.6</ele>
        <time>2020-12-05T17:19:55.947Z</time>
      </trkpt>
      <trkpt lat="42.90596" lon="0.13843">
        <ele>1850.6</ele>
        <time>2020-12-05T17:19:56.947Z</time>
      </trkpt>
      <trkpt lat="42.90607" lon="0.13852">
        <ele>1851.8</ele>
        <time>2020-12-05T17:19:57.949Z</time>
      </trkpt>
      <trkpt lat="42.90607" lon="0.13852">
        <ele>1851.8</ele>
        <time>2020-12-05T17:19:58.948Z</time>
      </trkpt>
      <trkpt lat="42.9061" lon="0.13854">
        <ele>1852</ele>
        <time>2020-12-05T17:19:59.948Z</time>
      </trkpt>
      <trkpt lat="42.9061" lon="0.13854">
        <ele>1852</ele>
        <time>2020-12-05T17:20:00.95Z</time>
      </trkpt>
      <trkpt lat="42.9061" lon="0.13854">
        <ele>1852</ele>
        <time>2020-12-05T17:20:01.949Z</time>
      </trkpt>
      <trkpt lat="42.9061" lon="0.13854">
        <ele>1852</ele>
        <time>2020-12-05T17:20:02.948Z</time>
      </trkpt>
      <trkpt lat="42.9061" lon="0.13854">
        <ele>1852</ele>
        <time>2020-12-05T17:20:03.948Z</time>
      </trkpt>
      <trkpt lat="42.9061" lon="0.13854">
        <ele>1852</ele>
        <time>2020-12-05T17:20:04.948Z</time>
      </trkpt>
      <trkpt lat="42.9061" lon="0.13854">
        <ele>1852</ele>
        <time>2020-12-05T17:20:05.948Z</time>
      </trkpt>
      <trkpt lat="42.90617" lon="0.13863">
        <ele>1853</ele>
        <time>2020-12-05T17:20:06.948Z</time>
      </trkpt>
      <trkpt lat="42.90617" lon="0.13863">
        <ele>1853</ele>
        <time>2020-12-05T17:20:07.948Z</time>
      </trkpt>
      <trkpt lat="42.90617" lon="0.13863">
        <ele>1853</ele>
        <time>2020-12-05T17:20:08.949Z</time>
      </trkpt>
      <trkpt lat="42.90617" lon="0.13863">
        <ele>1853</ele>
        <time>2020-12-05T17:20:09.947Z</time>
      </trkpt>
      <trkpt lat="42.90617" lon="0.13863">
        <ele>1853</ele>
        <time>2020-12-05T17:20:10.948Z</time>
      </trkpt>
      <trkpt lat="42.90617" lon="0.13863">
        <ele>1853</ele>
        <time>2020-12-05T17:20:11.948Z</time>
      </trkpt>
      <trkpt lat="42.90626" lon="0.1387">
        <ele>1853.6</ele>
        <time>2020-12-05T17:20:12.948Z</time>
      </trkpt>
      <trkpt lat="42.90626" lon="0.1387">
        <ele>1853.6</ele>
        <time>2020-12-05T17:20:13.947Z</time>
      </trkpt>
      <trkpt lat="42.90629" lon="0.13872">
        <ele>1854</ele>
        <time>2020-12-05T17:20:14.949Z</time>
      </trkpt>
      <trkpt lat="42.90629" lon="0.13872">
        <ele>1854</ele>
        <time>2020-12-05T17:20:15.948Z</time>
      </trkpt>
      <trkpt lat="42.90629" lon="0.13872">
        <ele>1854</ele>
        <time>2020-12-05T17:20:16.949Z</time>
      </trkpt>
      <trkpt lat="42.90629" lon="0.13872">
        <ele>1854</ele>
        <time>2020-12-05T17:20:17.948Z</time>
      </trkpt>
      <trkpt lat="42.90629" lon="0.13872">
        <ele>1854</ele>
        <time>2020-12-05T17:20:18.947Z</time>
      </trkpt>
      <trkpt lat="42.90629" lon="0.13872">
        <ele>1854</ele>
        <time>2020-12-05T17:20:19.948Z</time>
      </trkpt>
      <trkpt lat="42.90629" lon="0.13872">
        <ele>1854</ele>
        <time>2020-12-05T17:20:20.948Z</time>
      </trkpt>
      <trkpt lat="42.90629" lon="0.13872">
        <ele>1854</ele>
        <time>2020-12-05T17:20:21.948Z</time>
      </trkpt>
      <trkpt lat="42.90629" lon="0.13872">
        <ele>1854</ele>
        <time>2020-12-05T17:20:22.948Z</time>
      </trkpt>
      <trkpt lat="42.90643" lon="0.13877">
        <ele>1855.2</ele>
        <time>2020-12-05T17:20:23.948Z</time>
      </trkpt>
      <trkpt lat="42.90643" lon="0.13877">
        <ele>1855.2</ele>
        <time>2020-12-05T17:20:24.948Z</time>
      </trkpt>
      <trkpt lat="42.90643" lon="0.13877">
        <ele>1855.2</ele>
        <time>2020-12-05T17:20:25.948Z</time>
      </trkpt>
      <trkpt lat="42.90647" lon="0.13877">
        <ele>1855.6</ele>
        <time>2020-12-05T17:20:26.948Z</time>
      </trkpt>
      <trkpt lat="42.90647" lon="0.13877">
        <ele>1855.6</ele>
        <time>2020-12-05T17:20:27.95Z</time>
      </trkpt>
      <trkpt lat="42.90647" lon="0.13877">
        <ele>1855.6</ele>
        <time>2020-12-05T17:20:28.948Z</time>
      </trkpt>
      <trkpt lat="42.90647" lon="0.13877">
        <ele>1855.6</ele>
        <time>2020-12-05T17:20:29.948Z</time>
      </trkpt>
      <trkpt lat="42.90654" lon="0.13876">
        <ele>1856.2</ele>
        <time>2020-12-05T17:20:30.948Z</time>
      </trkpt>
      <trkpt lat="42.90654" lon="0.13876">
        <ele>1856.2</ele>
        <time>2020-12-05T17:20:31.95Z</time>
      </trkpt>
      <trkpt lat="42.90654" lon="0.13876">
        <ele>1856.2</ele>
        <time>2020-12-05T17:20:32.949Z</time>
      </trkpt>
      <trkpt lat="42.90654" lon="0.13876">
        <ele>1856.2</ele>
        <time>2020-12-05T17:20:33.949Z</time>
      </trkpt>
      <trkpt lat="42.90654" lon="0.13876">
        <ele>1856.2</ele>
        <time>2020-12-05T17:20:34.948Z</time>
      </trkpt>
      <trkpt lat="42.90654" lon="0.13876">
        <ele>1856.2</ele>
        <time>2020-12-05T17:20:35.948Z</time>
      </trkpt>
      <trkpt lat="42.90654" lon="0.13876">
        <ele>1856.2</ele>
        <time>2020-12-05T17:20:36.947Z</time>
      </trkpt>
      <trkpt lat="42.90654" lon="0.13876">
        <ele>1856.2</ele>
        <time>2020-12-05T17:20:37.949Z</time>
      </trkpt>
      <trkpt lat="42.90654" lon="0.13876">
        <ele>1856.2</ele>
        <time>2020-12-05T17:20:38.948Z</time>
      </trkpt>
      <trkpt lat="42.90654" lon="0.13876">
        <ele>1856.2</ele>
        <time>2020-12-05T17:20:39.948Z</time>
      </trkpt>
      <trkpt lat="42.90669" lon="0.13872">
        <ele>1857.2</ele>
        <time>2020-12-05T17:20:40.947Z</time>
      </trkpt>
      <trkpt lat="42.90669" lon="0.13872">
        <ele>1857.2</ele>
        <time>2020-12-05T17:20:41.947Z</time>
      </trkpt>
      <trkpt lat="42.90673" lon="0.13871">
        <ele>1857.6</ele>
        <time>2020-12-05T17:20:42.947Z</time>
      </trkpt>
      <trkpt lat="42.90673" lon="0.13871">
        <ele>1857.6</ele>
        <time>2020-12-05T17:20:43.947Z</time>
      </trkpt>
      <trkpt lat="42.90673" lon="0.13871">
        <ele>1857.6</ele>
        <time>2020-12-05T17:20:44.949Z</time>
      </trkpt>
      <trkpt lat="42.90673" lon="0.13871">
        <ele>1857.6</ele>
        <time>2020-12-05T17:20:45.947Z</time>
      </trkpt>
      <trkpt lat="42.90673" lon="0.13871">
        <ele>1857.6</ele>
        <time>2020-12-05T17:20:46.948Z</time>
      </trkpt>
      <trkpt lat="42.90673" lon="0.13871">
        <ele>1857.6</ele>
        <time>2020-12-05T17:20:47.947Z</time>
      </trkpt>
      <trkpt lat="42.90673" lon="0.13871">
        <ele>1857.6</ele>
        <time>2020-12-05T17:20:48.949Z</time>
      </trkpt>
      <trkpt lat="42.90673" lon="0.13871">
        <ele>1857.6</ele>
        <time>2020-12-05T17:20:49.948Z</time>
      </trkpt>
      <trkpt lat="42.90684" lon="0.13867">
        <ele>1858.4</ele>
        <time>2020-12-05T17:20:50.947Z</time>
      </trkpt>
      <trkpt lat="42.90684" lon="0.13867">
        <ele>1858.4</ele>
        <time>2020-12-05T17:20:51.948Z</time>
      </trkpt>
      <trkpt lat="42.90684" lon="0.13867">
        <ele>1858.4</ele>
        <time>2020-12-05T17:20:52.948Z</time>
      </trkpt>
      <trkpt lat="42.90684" lon="0.13867">
        <ele>1858.4</ele>
        <time>2020-12-05T17:20:53.948Z</time>
      </trkpt>
      <trkpt lat="42.90684" lon="0.13867">
        <ele>1858.4</ele>
        <time>2020-12-05T17:20:54.947Z</time>
      </trkpt>
      <trkpt lat="42.90684" lon="0.13867">
        <ele>1858.4</ele>
        <time>2020-12-05T17:20:55.949Z</time>
      </trkpt>
      <trkpt lat="42.90684" lon="0.13867">
        <ele>1858.4</ele>
        <time>2020-12-05T17:20:56.948Z</time>
      </trkpt>
      <trkpt lat="42.90696" lon="0.13863">
        <ele>1859.4</ele>
        <time>2020-12-05T17:20:57.947Z</time>
      </trkpt>
      <trkpt lat="42.90696" lon="0.13863">
        <ele>1859.4</ele>
        <time>2020-12-05T17:20:58.948Z</time>
      </trkpt>
      <trkpt lat="42.90696" lon="0.13863">
        <ele>1859.4</ele>
        <time>2020-12-05T17:20:59.948Z</time>
      </trkpt>
      <trkpt lat="42.90699" lon="0.13862">
        <ele>1859.6</ele>
        <time>2020-12-05T17:21:00.948Z</time>
      </trkpt>
      <trkpt lat="42.90699" lon="0.13862">
        <ele>1859.6</ele>
        <time>2020-12-05T17:21:01.947Z</time>
      </trkpt>
      <trkpt lat="42.90699" lon="0.13862">
        <ele>1859.6</ele>
        <time>2020-12-05T17:21:02.948Z</time>
      </trkpt>
      <trkpt lat="42.90699" lon="0.13862">
        <ele>1859.6</ele>
        <time>2020-12-05T17:21:03.947Z</time>
      </trkpt>
      <trkpt lat="42.90699" lon="0.13862">
        <ele>1859.6</ele>
        <time>2020-12-05T17:21:04.948Z</time>
      </trkpt>
      <trkpt lat="42.90699" lon="0.13862">
        <ele>1859.6</ele>
        <time>2020-12-05T17:21:05.947Z</time>
      </trkpt>
      <trkpt lat="42.90699" lon="0.13862">
        <ele>1859.6</ele>
        <time>2020-12-05T17:21:06.949Z</time>
      </trkpt>
      <trkpt lat="42.90699" lon="0.13862">
        <ele>1859.6</ele>
        <time>2020-12-05T17:21:07.948Z</time>
      </trkpt>
      <trkpt lat="42.90699" lon="0.13862">
        <ele>1859.6</ele>
        <time>2020-12-05T17:21:08.948Z</time>
      </trkpt>
      <trkpt lat="42.90699" lon="0.13862">
        <ele>1859.6</ele>
        <time>2020-12-05T17:21:09.948Z</time>
      </trkpt>
      <trkpt lat="42.90713" lon="0.13863">
        <ele>1860.8</ele>
        <time>2020-12-05T17:21:10.948Z</time>
      </trkpt>
      <trkpt lat="42.90713" lon="0.13863">
        <ele>1860.8</ele>
        <time>2020-12-05T17:21:11.948Z</time>
      </trkpt>
      <trkpt lat="42.90713" lon="0.13863">
        <ele>1860.8</ele>
        <time>2020-12-05T17:21:12.947Z</time>
      </trkpt>
      <trkpt lat="42.90713" lon="0.13863">
        <ele>1860.8</ele>
        <time>2020-12-05T17:21:13.948Z</time>
      </trkpt>
      <trkpt lat="42.90713" lon="0.13863">
        <ele>1860.8</ele>
        <time>2020-12-05T17:21:14.949Z</time>
      </trkpt>
      <trkpt lat="42.90713" lon="0.13863">
        <ele>1860.8</ele>
        <time>2020-12-05T17:21:15.947Z</time>
      </trkpt>
      <trkpt lat="42.90713" lon="0.13863">
        <ele>1860.8</ele>
        <time>2020-12-05T17:21:16.947Z</time>
      </trkpt>
      <trkpt lat="42.90713" lon="0.13863">
        <ele>1860.8</ele>
        <time>2020-12-05T17:21:17.948Z</time>
      </trkpt>
      <trkpt lat="42.90726" lon="0.13864">
        <ele>1861.8</ele>
        <time>2020-12-05T17:21:18.949Z</time>
      </trkpt>
      <trkpt lat="42.90726" lon="0.13864">
        <ele>1861.8</ele>
        <time>2020-12-05T17:21:19.947Z</time>
      </trkpt>
      <trkpt lat="42.90726" lon="0.13864">
        <ele>1861.8</ele>
        <time>2020-12-05T17:21:20.948Z</time>
      </trkpt>
      <trkpt lat="42.90726" lon="0.13864">
        <ele>1861.8</ele>
        <time>2020-12-05T17:21:21.948Z</time>
      </trkpt>
      <trkpt lat="42.90726" lon="0.13864">
        <ele>1861.8</ele>
        <time>2020-12-05T17:21:22.948Z</time>
      </trkpt>
      <trkpt lat="42.90726" lon="0.13864">
        <ele>1861.8</ele>
        <time>2020-12-05T17:21:23.949Z</time>
      </trkpt>
      <trkpt lat="42.90736" lon="0.13862">
        <ele>1863</ele>
        <time>2020-12-05T17:21:24.948Z</time>
      </trkpt>
      <trkpt lat="42.90736" lon="0.13862">
        <ele>1863</ele>
        <time>2020-12-05T17:21:25.948Z</time>
      </trkpt>
      <trkpt lat="42.90736" lon="0.13862">
        <ele>1863</ele>
        <time>2020-12-05T17:21:26.948Z</time>
      </trkpt>
      <trkpt lat="42.90736" lon="0.13862">
        <ele>1863</ele>
        <time>2020-12-05T17:21:27.948Z</time>
      </trkpt>
      <trkpt lat="42.90736" lon="0.13862">
        <ele>1863</ele>
        <time>2020-12-05T17:21:28.948Z</time>
      </trkpt>
      <trkpt lat="42.90736" lon="0.13862">
        <ele>1863</ele>
        <time>2020-12-05T17:21:29.947Z</time>
      </trkpt>
      <trkpt lat="42.90736" lon="0.13862">
        <ele>1863</ele>
        <time>2020-12-05T17:21:30.948Z</time>
      </trkpt>
      <trkpt lat="42.90736" lon="0.13862">
        <ele>1863</ele>
        <time>2020-12-05T17:21:31.949Z</time>
      </trkpt>
      <trkpt lat="42.90736" lon="0.13862">
        <ele>1863</ele>
        <time>2020-12-05T17:21:32.949Z</time>
      </trkpt>
      <trkpt lat="42.90736" lon="0.13862">
        <ele>1863</ele>
        <time>2020-12-05T17:21:33.947Z</time>
      </trkpt>
      <trkpt lat="42.9075" lon="0.13855">
        <ele>1864</ele>
        <time>2020-12-05T17:21:34.949Z</time>
      </trkpt>
      <trkpt lat="42.9075" lon="0.13855">
        <ele>1864</ele>
        <time>2020-12-05T17:21:35.949Z</time>
      </trkpt>
      <trkpt lat="42.90753" lon="0.13853">
        <ele>1864.8</ele>
        <time>2020-12-05T17:21:36.948Z</time>
      </trkpt>
      <trkpt lat="42.90753" lon="0.13853">
        <ele>1864.8</ele>
        <time>2020-12-05T17:21:37.948Z</time>
      </trkpt>
      <trkpt lat="42.90756" lon="0.1385">
        <ele>1865</ele>
        <time>2020-12-05T17:21:38.947Z</time>
      </trkpt>
      <trkpt lat="42.90756" lon="0.1385">
        <ele>1865</ele>
        <time>2020-12-05T17:21:39.948Z</time>
      </trkpt>
      <trkpt lat="42.90756" lon="0.1385">
        <ele>1865</ele>
        <time>2020-12-05T17:21:40.947Z</time>
      </trkpt>
      <trkpt lat="42.90756" lon="0.1385">
        <ele>1865</ele>
        <time>2020-12-05T17:21:41.947Z</time>
      </trkpt>
      <trkpt lat="42.90756" lon="0.1385">
        <ele>1865</ele>
        <time>2020-12-05T17:21:42.947Z</time>
      </trkpt>
      <trkpt lat="42.90756" lon="0.1385">
        <ele>1865</ele>
        <time>2020-12-05T17:21:43.948Z</time>
      </trkpt>
      <trkpt lat="42.90756" lon="0.1385">
        <ele>1865</ele>
        <time>2020-12-05T17:21:44.949Z</time>
      </trkpt>
      <trkpt lat="42.90756" lon="0.1385">
        <ele>1865</ele>
        <time>2020-12-05T17:21:45.948Z</time>
      </trkpt>
      <trkpt lat="42.90766" lon="0.13837">
        <ele>1866.2</ele>
        <time>2020-12-05T17:21:46.948Z</time>
      </trkpt>
      <trkpt lat="42.90766" lon="0.13837">
        <ele>1866.2</ele>
        <time>2020-12-05T17:21:47.949Z</time>
      </trkpt>
      <trkpt lat="42.90768" lon="0.13834">
        <ele>1866.4</ele>
        <time>2020-12-05T17:21:48.949Z</time>
      </trkpt>
      <trkpt lat="42.90768" lon="0.13834">
        <ele>1866.4</ele>
        <time>2020-12-05T17:21:49.947Z</time>
      </trkpt>
      <trkpt lat="42.90768" lon="0.13834">
        <ele>1866.4</ele>
        <time>2020-12-05T17:21:50.947Z</time>
      </trkpt>
      <trkpt lat="42.90768" lon="0.13834">
        <ele>1866.4</ele>
        <time>2020-12-05T17:21:51.947Z</time>
      </trkpt>
      <trkpt lat="42.90768" lon="0.13834">
        <ele>1866.4</ele>
        <time>2020-12-05T17:21:52.948Z</time>
      </trkpt>
      <trkpt lat="42.90768" lon="0.13834">
        <ele>1866.4</ele>
        <time>2020-12-05T17:21:53.947Z</time>
      </trkpt>
      <trkpt lat="42.90768" lon="0.13834">
        <ele>1866.4</ele>
        <time>2020-12-05T17:21:54.947Z</time>
      </trkpt>
      <trkpt lat="42.90768" lon="0.13834">
        <ele>1866.4</ele>
        <time>2020-12-05T17:21:55.947Z</time>
      </trkpt>
      <trkpt lat="42.90768" lon="0.13834">
        <ele>1866.4</ele>
        <time>2020-12-05T17:21:56.948Z</time>
      </trkpt>
      <trkpt lat="42.90778" lon="0.1382">
        <ele>1867.4</ele>
        <time>2020-12-05T17:21:57.947Z</time>
      </trkpt>
      <trkpt lat="42.90778" lon="0.1382">
        <ele>1867.4</ele>
        <time>2020-12-05T17:21:58.947Z</time>
      </trkpt>
      <trkpt lat="42.90778" lon="0.1382">
        <ele>1867.4</ele>
        <time>2020-12-05T17:21:59.947Z</time>
      </trkpt>
      <trkpt lat="42.90778" lon="0.1382">
        <ele>1867.4</ele>
        <time>2020-12-05T17:22:00.948Z</time>
      </trkpt>
      <trkpt lat="42.90778" lon="0.1382">
        <ele>1867.4</ele>
        <time>2020-12-05T17:22:01.948Z</time>
      </trkpt>
      <trkpt lat="42.90778" lon="0.1382">
        <ele>1867.4</ele>
        <time>2020-12-05T17:22:02.949Z</time>
      </trkpt>
      <trkpt lat="42.90778" lon="0.1382">
        <ele>1867.4</ele>
        <time>2020-12-05T17:22:03.948Z</time>
      </trkpt>
      <trkpt lat="42.90786" lon="0.13813">
        <ele>1868.4</ele>
        <time>2020-12-05T17:22:04.949Z</time>
      </trkpt>
      <trkpt lat="42.90786" lon="0.13813">
        <ele>1868.4</ele>
        <time>2020-12-05T17:22:05.949Z</time>
      </trkpt>
      <trkpt lat="42.90786" lon="0.13813">
        <ele>1868.4</ele>
        <time>2020-12-05T17:22:06.947Z</time>
      </trkpt>
      <trkpt lat="42.90786" lon="0.13813">
        <ele>1868.4</ele>
        <time>2020-12-05T17:22:07.948Z</time>
      </trkpt>
      <trkpt lat="42.90786" lon="0.13813">
        <ele>1868.4</ele>
        <time>2020-12-05T17:22:08.947Z</time>
      </trkpt>
      <trkpt lat="42.90786" lon="0.13813">
        <ele>1868.4</ele>
        <time>2020-12-05T17:22:09.949Z</time>
      </trkpt>
      <trkpt lat="42.90786" lon="0.13813">
        <ele>1868.4</ele>
        <time>2020-12-05T17:22:10.947Z</time>
      </trkpt>
      <trkpt lat="42.90795" lon="0.13805">
        <ele>1869.4</ele>
        <time>2020-12-05T17:22:11.947Z</time>
      </trkpt>
      <trkpt lat="42.90795" lon="0.13805">
        <ele>1869.4</ele>
        <time>2020-12-05T17:22:12.949Z</time>
      </trkpt>
      <trkpt lat="42.90795" lon="0.13805">
        <ele>1869.4</ele>
        <time>2020-12-05T17:22:13.948Z</time>
      </trkpt>
      <trkpt lat="42.90795" lon="0.13805">
        <ele>1869.4</ele>
        <time>2020-12-05T17:22:14.948Z</time>
      </trkpt>
      <trkpt lat="42.90795" lon="0.13805">
        <ele>1869.4</ele>
        <time>2020-12-05T17:22:15.949Z</time>
      </trkpt>
      <trkpt lat="42.90795" lon="0.13805">
        <ele>1869.4</ele>
        <time>2020-12-05T17:22:16.947Z</time>
      </trkpt>
      <trkpt lat="42.90795" lon="0.13805">
        <ele>1869.4</ele>
        <time>2020-12-05T17:22:17.948Z</time>
      </trkpt>
      <trkpt lat="42.90795" lon="0.13805">
        <ele>1869.4</ele>
        <time>2020-12-05T17:22:18.947Z</time>
      </trkpt>
      <trkpt lat="42.90795" lon="0.13805">
        <ele>1869.4</ele>
        <time>2020-12-05T17:22:19.947Z</time>
      </trkpt>
      <trkpt lat="42.90795" lon="0.13805">
        <ele>1869.4</ele>
        <time>2020-12-05T17:22:20.948Z</time>
      </trkpt>
      <trkpt lat="42.90808" lon="0.13796">
        <ele>1870.6</ele>
        <time>2020-12-05T17:22:21.947Z</time>
      </trkpt>
      <trkpt lat="42.90808" lon="0.13796">
        <ele>1870.6</ele>
        <time>2020-12-05T17:22:22.949Z</time>
      </trkpt>
      <trkpt lat="42.90808" lon="0.13796">
        <ele>1870.6</ele>
        <time>2020-12-05T17:22:23.948Z</time>
      </trkpt>
      <trkpt lat="42.90808" lon="0.13796">
        <ele>1870.6</ele>
        <time>2020-12-05T17:22:24.947Z</time>
      </trkpt>
      <trkpt lat="42.90808" lon="0.13796">
        <ele>1870.6</ele>
        <time>2020-12-05T17:22:25.947Z</time>
      </trkpt>
      <trkpt lat="42.90808" lon="0.13796">
        <ele>1870.6</ele>
        <time>2020-12-05T17:22:26.948Z</time>
      </trkpt>
      <trkpt lat="42.90808" lon="0.13796">
        <ele>1870.6</ele>
        <time>2020-12-05T17:22:27.949Z</time>
      </trkpt>
      <trkpt lat="42.90808" lon="0.13796">
        <ele>1870.6</ele>
        <time>2020-12-05T17:22:28.948Z</time>
      </trkpt>
      <trkpt lat="42.90808" lon="0.13796">
        <ele>1870.6</ele>
        <time>2020-12-05T17:22:29.947Z</time>
      </trkpt>
      <trkpt lat="42.90822" lon="0.13789">
        <ele>1871.4</ele>
        <time>2020-12-05T17:22:30.947Z</time>
      </trkpt>
      <trkpt lat="42.90822" lon="0.13789">
        <ele>1871.4</ele>
        <time>2020-12-05T17:22:31.949Z</time>
      </trkpt>
      <trkpt lat="42.90822" lon="0.13789">
        <ele>1871.4</ele>
        <time>2020-12-05T17:22:32.948Z</time>
      </trkpt>
      <trkpt lat="42.90822" lon="0.13789">
        <ele>1871.4</ele>
        <time>2020-12-05T17:22:33.947Z</time>
      </trkpt>
      <trkpt lat="42.90822" lon="0.13789">
        <ele>1871.4</ele>
        <time>2020-12-05T17:22:34.948Z</time>
      </trkpt>
      <trkpt lat="42.90822" lon="0.13789">
        <ele>1871.4</ele>
        <time>2020-12-05T17:22:35.949Z</time>
      </trkpt>
      <trkpt lat="42.90822" lon="0.13789">
        <ele>1871.4</ele>
        <time>2020-12-05T17:22:36.947Z</time>
      </trkpt>
      <trkpt lat="42.90832" lon="0.13785">
        <ele>1872.4</ele>
        <time>2020-12-05T17:22:37.947Z</time>
      </trkpt>
      <trkpt lat="42.90832" lon="0.13785">
        <ele>1872.4</ele>
        <time>2020-12-05T17:22:38.947Z</time>
      </trkpt>
      <trkpt lat="42.90835" lon="0.13784">
        <ele>1872.6</ele>
        <time>2020-12-05T17:22:39.948Z</time>
      </trkpt>
      <trkpt lat="42.90835" lon="0.13784">
        <ele>1872.6</ele>
        <time>2020-12-05T17:22:40.947Z</time>
      </trkpt>
      <trkpt lat="42.90835" lon="0.13784">
        <ele>1872.6</ele>
        <time>2020-12-05T17:22:41.948Z</time>
      </trkpt>
      <trkpt lat="42.90835" lon="0.13784">
        <ele>1872.6</ele>
        <time>2020-12-05T17:22:42.948Z</time>
      </trkpt>
      <trkpt lat="42.90835" lon="0.13784">
        <ele>1872.6</ele>
        <time>2020-12-05T17:22:43.949Z</time>
      </trkpt>
      <trkpt lat="42.90835" lon="0.13784">
        <ele>1872.6</ele>
        <time>2020-12-05T17:22:44.947Z</time>
      </trkpt>
      <trkpt lat="42.90845" lon="0.13783">
        <ele>1873.6</ele>
        <time>2020-12-05T17:22:45.948Z</time>
      </trkpt>
      <trkpt lat="42.90845" lon="0.13783">
        <ele>1873.6</ele>
        <time>2020-12-05T17:22:46.948Z</time>
      </trkpt>
      <trkpt lat="42.90845" lon="0.13783">
        <ele>1873.6</ele>
        <time>2020-12-05T17:22:47.949Z</time>
      </trkpt>
      <trkpt lat="42.90845" lon="0.13783">
        <ele>1873.6</ele>
        <time>2020-12-05T17:22:48.948Z</time>
      </trkpt>
      <trkpt lat="42.90845" lon="0.13783">
        <ele>1873.6</ele>
        <time>2020-12-05T17:22:49.948Z</time>
      </trkpt>
      <trkpt lat="42.90845" lon="0.13783">
        <ele>1873.6</ele>
        <time>2020-12-05T17:22:50.947Z</time>
      </trkpt>
      <trkpt lat="42.90845" lon="0.13783">
        <ele>1873.6</ele>
        <time>2020-12-05T17:22:51.948Z</time>
      </trkpt>
      <trkpt lat="42.90856" lon="0.13783">
        <ele>1874.6</ele>
        <time>2020-12-05T17:22:52.948Z</time>
      </trkpt>
      <trkpt lat="42.90856" lon="0.13783">
        <ele>1874.6</ele>
        <time>2020-12-05T17:22:53.948Z</time>
      </trkpt>
      <trkpt lat="42.90859" lon="0.13784">
        <ele>1874.8</ele>
        <time>2020-12-05T17:22:54.947Z</time>
      </trkpt>
      <trkpt lat="42.90859" lon="0.13784">
        <ele>1874.8</ele>
        <time>2020-12-05T17:22:55.947Z</time>
      </trkpt>
      <trkpt lat="42.90859" lon="0.13784">
        <ele>1874.8</ele>
        <time>2020-12-05T17:22:56.948Z</time>
      </trkpt>
      <trkpt lat="42.90859" lon="0.13784">
        <ele>1874.8</ele>
        <time>2020-12-05T17:22:57.948Z</time>
      </trkpt>
      <trkpt lat="42.90859" lon="0.13784">
        <ele>1874.8</ele>
        <time>2020-12-05T17:22:58.947Z</time>
      </trkpt>
      <trkpt lat="42.90859" lon="0.13784">
        <ele>1874.8</ele>
        <time>2020-12-05T17:22:59.947Z</time>
      </trkpt>
      <trkpt lat="42.90859" lon="0.13784">
        <ele>1874.8</ele>
        <time>2020-12-05T17:23:00.95Z</time>
      </trkpt>
      <trkpt lat="42.90859" lon="0.13784">
        <ele>1874.8</ele>
        <time>2020-12-05T17:23:01.948Z</time>
      </trkpt>
      <trkpt lat="42.90859" lon="0.13784">
        <ele>1874.8</ele>
        <time>2020-12-05T17:23:02.948Z</time>
      </trkpt>
      <trkpt lat="42.90872" lon="0.13786">
        <ele>1876</ele>
        <time>2020-12-05T17:23:03.949Z</time>
      </trkpt>
      <trkpt lat="42.90872" lon="0.13786">
        <ele>1876</ele>
        <time>2020-12-05T17:23:04.947Z</time>
      </trkpt>
      <trkpt lat="42.90872" lon="0.13786">
        <ele>1876</ele>
        <time>2020-12-05T17:23:05.948Z</time>
      </trkpt>
      <trkpt lat="42.90872" lon="0.13786">
        <ele>1876</ele>
        <time>2020-12-05T17:23:06.947Z</time>
      </trkpt>
      <trkpt lat="42.90879" lon="0.13786">
        <ele>1876.6</ele>
        <time>2020-12-05T17:23:07.947Z</time>
      </trkpt>
      <trkpt lat="42.90879" lon="0.13786">
        <ele>1876.6</ele>
        <time>2020-12-05T17:23:08.949Z</time>
      </trkpt>
      <trkpt lat="42.90879" lon="0.13786">
        <ele>1876.6</ele>
        <time>2020-12-05T17:23:09.949Z</time>
      </trkpt>
      <trkpt lat="42.90879" lon="0.13786">
        <ele>1876.6</ele>
        <time>2020-12-05T17:23:10.947Z</time>
      </trkpt>
      <trkpt lat="42.90886" lon="0.13787">
        <ele>1877.2</ele>
        <time>2020-12-05T17:23:11.948Z</time>
      </trkpt>
      <trkpt lat="42.90886" lon="0.13787">
        <ele>1877.2</ele>
        <time>2020-12-05T17:23:12.947Z</time>
      </trkpt>
      <trkpt lat="42.90886" lon="0.13787">
        <ele>1877.2</ele>
        <time>2020-12-05T17:23:13.948Z</time>
      </trkpt>
      <trkpt lat="42.90886" lon="0.13787">
        <ele>1877.2</ele>
        <time>2020-12-05T17:23:14.949Z</time>
      </trkpt>
      <trkpt lat="42.90886" lon="0.13787">
        <ele>1877.2</ele>
        <time>2020-12-05T17:23:15.947Z</time>
      </trkpt>
      <trkpt lat="42.90886" lon="0.13787">
        <ele>1877.2</ele>
        <time>2020-12-05T17:23:16.948Z</time>
      </trkpt>
      <trkpt lat="42.90886" lon="0.13787">
        <ele>1877.2</ele>
        <time>2020-12-05T17:23:17.95Z</time>
      </trkpt>
      <trkpt lat="42.90886" lon="0.13787">
        <ele>1877.2</ele>
        <time>2020-12-05T17:23:18.947Z</time>
      </trkpt>
      <trkpt lat="42.90886" lon="0.13787">
        <ele>1877.2</ele>
        <time>2020-12-05T17:23:19.949Z</time>
      </trkpt>
      <trkpt lat="42.90899" lon="0.13792">
        <ele>1878.4</ele>
        <time>2020-12-05T17:23:20.947Z</time>
      </trkpt>
      <trkpt lat="42.90899" lon="0.13792">
        <ele>1878.4</ele>
        <time>2020-12-05T17:23:21.949Z</time>
      </trkpt>
      <trkpt lat="42.90899" lon="0.13792">
        <ele>1878.4</ele>
        <time>2020-12-05T17:23:22.948Z</time>
      </trkpt>
      <trkpt lat="42.90899" lon="0.13792">
        <ele>1878.4</ele>
        <time>2020-12-05T17:23:23.948Z</time>
      </trkpt>
      <trkpt lat="42.90899" lon="0.13792">
        <ele>1878.4</ele>
        <time>2020-12-05T17:23:24.947Z</time>
      </trkpt>
      <trkpt lat="42.90899" lon="0.13792">
        <ele>1878.4</ele>
        <time>2020-12-05T17:23:25.948Z</time>
      </trkpt>
      <trkpt lat="42.90899" lon="0.13792">
        <ele>1878.4</ele>
        <time>2020-12-05T17:23:26.947Z</time>
      </trkpt>
      <trkpt lat="42.90899" lon="0.13792">
        <ele>1878.4</ele>
        <time>2020-12-05T17:23:27.947Z</time>
      </trkpt>
      <trkpt lat="42.90899" lon="0.13792">
        <ele>1878.4</ele>
        <time>2020-12-05T17:23:28.947Z</time>
      </trkpt>
      <trkpt lat="42.90912" lon="0.13797">
        <ele>1879.4</ele>
        <time>2020-12-05T17:23:29.948Z</time>
      </trkpt>
      <trkpt lat="42.90912" lon="0.13797">
        <ele>1879.4</ele>
        <time>2020-12-05T17:23:30.95Z</time>
      </trkpt>
      <trkpt lat="42.90912" lon="0.13797">
        <ele>1879.4</ele>
        <time>2020-12-05T17:23:31.949Z</time>
      </trkpt>
      <trkpt lat="42.90912" lon="0.13797">
        <ele>1879.4</ele>
        <time>2020-12-05T17:23:32.948Z</time>
      </trkpt>
      <trkpt lat="42.90919" lon="0.13799">
        <ele>1880.2</ele>
        <time>2020-12-05T17:23:33.948Z</time>
      </trkpt>
      <trkpt lat="42.90919" lon="0.13799">
        <ele>1880.2</ele>
        <time>2020-12-05T17:23:34.948Z</time>
      </trkpt>
      <trkpt lat="42.90919" lon="0.13799">
        <ele>1880.2</ele>
        <time>2020-12-05T17:23:35.949Z</time>
      </trkpt>
      <trkpt lat="42.90919" lon="0.13799">
        <ele>1880.2</ele>
        <time>2020-12-05T17:23:36.947Z</time>
      </trkpt>
      <trkpt lat="42.90919" lon="0.13799">
        <ele>1880.2</ele>
        <time>2020-12-05T17:23:37.947Z</time>
      </trkpt>
      <trkpt lat="42.90925" lon="0.13801">
        <ele>1880.6</ele>
        <time>2020-12-05T17:23:38.949Z</time>
      </trkpt>
      <trkpt lat="42.90925" lon="0.13801">
        <ele>1880.6</ele>
        <time>2020-12-05T17:23:39.949Z</time>
      </trkpt>
      <trkpt lat="42.90925" lon="0.13801">
        <ele>1880.6</ele>
        <time>2020-12-05T17:23:40.947Z</time>
      </trkpt>
      <trkpt lat="42.90925" lon="0.13801">
        <ele>1880.6</ele>
        <time>2020-12-05T17:23:41.948Z</time>
      </trkpt>
      <trkpt lat="42.90925" lon="0.13801">
        <ele>1880.6</ele>
        <time>2020-12-05T17:23:42.947Z</time>
      </trkpt>
      <trkpt lat="42.90925" lon="0.13801">
        <ele>1880.6</ele>
        <time>2020-12-05T17:23:43.949Z</time>
      </trkpt>
      <trkpt lat="42.90925" lon="0.13801">
        <ele>1880.6</ele>
        <time>2020-12-05T17:23:44.948Z</time>
      </trkpt>
      <trkpt lat="42.90936" lon="0.13803">
        <ele>1881.8</ele>
        <time>2020-12-05T17:23:45.947Z</time>
      </trkpt>
      <trkpt lat="42.90936" lon="0.13803">
        <ele>1881.8</ele>
        <time>2020-12-05T17:23:46.947Z</time>
      </trkpt>
      <trkpt lat="42.90936" lon="0.13803">
        <ele>1881.8</ele>
        <time>2020-12-05T17:23:47.948Z</time>
      </trkpt>
      <trkpt lat="42.90936" lon="0.13803">
        <ele>1881.8</ele>
        <time>2020-12-05T17:23:48.947Z</time>
      </trkpt>
      <trkpt lat="42.90943" lon="0.13804">
        <ele>1882.8</ele>
        <time>2020-12-05T17:23:49.949Z</time>
      </trkpt>
      <trkpt lat="42.90943" lon="0.13804">
        <ele>1882.8</ele>
        <time>2020-12-05T17:23:50.947Z</time>
      </trkpt>
      <trkpt lat="42.90946" lon="0.13805">
        <ele>1883.2</ele>
        <time>2020-12-05T17:23:51.947Z</time>
      </trkpt>
      <trkpt lat="42.90946" lon="0.13805">
        <ele>1883.2</ele>
        <time>2020-12-05T17:23:52.949Z</time>
      </trkpt>
      <trkpt lat="42.90946" lon="0.13805">
        <ele>1883.2</ele>
        <time>2020-12-05T17:23:53.949Z</time>
      </trkpt>
      <trkpt lat="42.90946" lon="0.13805">
        <ele>1883.2</ele>
        <time>2020-12-05T17:23:54.948Z</time>
      </trkpt>
      <trkpt lat="42.90946" lon="0.13805">
        <ele>1883.2</ele>
        <time>2020-12-05T17:23:55.947Z</time>
      </trkpt>
      <trkpt lat="42.90946" lon="0.13805">
        <ele>1883.2</ele>
        <time>2020-12-05T17:23:56.948Z</time>
      </trkpt>
      <trkpt lat="42.90956" lon="0.13807">
        <ele>1884.2</ele>
        <time>2020-12-05T17:23:57.948Z</time>
      </trkpt>
      <trkpt lat="42.90956" lon="0.13807">
        <ele>1884.2</ele>
        <time>2020-12-05T17:23:58.948Z</time>
      </trkpt>
      <trkpt lat="42.90956" lon="0.13807">
        <ele>1884.2</ele>
        <time>2020-12-05T17:23:59.947Z</time>
      </trkpt>
      <trkpt lat="42.90956" lon="0.13807">
        <ele>1884.2</ele>
        <time>2020-12-05T17:24:00.947Z</time>
      </trkpt>
      <trkpt lat="42.90956" lon="0.13807">
        <ele>1884.2</ele>
        <time>2020-12-05T17:24:01.948Z</time>
      </trkpt>
      <trkpt lat="42.90956" lon="0.13807">
        <ele>1884.2</ele>
        <time>2020-12-05T17:24:02.947Z</time>
      </trkpt>
      <trkpt lat="42.90956" lon="0.13807">
        <ele>1884.2</ele>
        <time>2020-12-05T17:24:03.948Z</time>
      </trkpt>
      <trkpt lat="42.90956" lon="0.13807">
        <ele>1884.2</ele>
        <time>2020-12-05T17:24:04.948Z</time>
      </trkpt>
      <trkpt lat="42.90967" lon="0.13808">
        <ele>1885.2</ele>
        <time>2020-12-05T17:24:05.947Z</time>
      </trkpt>
      <trkpt lat="42.90967" lon="0.13808">
        <ele>1885.2</ele>
        <time>2020-12-05T17:24:06.947Z</time>
      </trkpt>
      <trkpt lat="42.90967" lon="0.13808">
        <ele>1885.2</ele>
        <time>2020-12-05T17:24:07.949Z</time>
      </trkpt>
      <trkpt lat="42.90967" lon="0.13808">
        <ele>1885.2</ele>
        <time>2020-12-05T17:24:08.949Z</time>
      </trkpt>
      <trkpt lat="42.90967" lon="0.13808">
        <ele>1885.2</ele>
        <time>2020-12-05T17:24:09.947Z</time>
      </trkpt>
      <trkpt lat="42.90967" lon="0.13808">
        <ele>1885.2</ele>
        <time>2020-12-05T17:24:10.948Z</time>
      </trkpt>
      <trkpt lat="42.90967" lon="0.13808">
        <ele>1885.2</ele>
        <time>2020-12-05T17:24:11.948Z</time>
      </trkpt>
      <trkpt lat="42.90967" lon="0.13808">
        <ele>1885.2</ele>
        <time>2020-12-05T17:24:12.949Z</time>
      </trkpt>
      <trkpt lat="42.90967" lon="0.13808">
        <ele>1885.2</ele>
        <time>2020-12-05T17:24:13.947Z</time>
      </trkpt>
      <trkpt lat="42.90967" lon="0.13808">
        <ele>1885.2</ele>
        <time>2020-12-05T17:24:14.947Z</time>
      </trkpt>
      <trkpt lat="42.9098" lon="0.13807">
        <ele>1886.2</ele>
        <time>2020-12-05T17:24:15.947Z</time>
      </trkpt>
      <trkpt lat="42.9098" lon="0.13807">
        <ele>1886.2</ele>
        <time>2020-12-05T17:24:16.948Z</time>
      </trkpt>
      <trkpt lat="42.9098" lon="0.13807">
        <ele>1886.2</ele>
        <time>2020-12-05T17:24:17.949Z</time>
      </trkpt>
      <trkpt lat="42.9098" lon="0.13807">
        <ele>1886.2</ele>
        <time>2020-12-05T17:24:18.947Z</time>
      </trkpt>
      <trkpt lat="42.9098" lon="0.13807">
        <ele>1886.2</ele>
        <time>2020-12-05T17:24:19.948Z</time>
      </trkpt>
      <trkpt lat="42.9098" lon="0.13807">
        <ele>1886.2</ele>
        <time>2020-12-05T17:24:20.947Z</time>
      </trkpt>
      <trkpt lat="42.9098" lon="0.13807">
        <ele>1886.2</ele>
        <time>2020-12-05T17:24:21.948Z</time>
      </trkpt>
      <trkpt lat="42.90992" lon="0.13807">
        <ele>1887</ele>
        <time>2020-12-05T17:24:22.948Z</time>
      </trkpt>
      <trkpt lat="42.90992" lon="0.13807">
        <ele>1887</ele>
        <time>2020-12-05T17:24:23.949Z</time>
      </trkpt>
      <trkpt lat="42.90992" lon="0.13807">
        <ele>1887</ele>
        <time>2020-12-05T17:24:24.947Z</time>
      </trkpt>
      <trkpt lat="42.90995" lon="0.13807">
        <ele>1887.2</ele>
        <time>2020-12-05T17:24:25.949Z</time>
      </trkpt>
      <trkpt lat="42.90995" lon="0.13807">
        <ele>1887.2</ele>
        <time>2020-12-05T17:24:26.949Z</time>
      </trkpt>
      <trkpt lat="42.90995" lon="0.13807">
        <ele>1887.2</ele>
        <time>2020-12-05T17:24:27.948Z</time>
      </trkpt>
      <trkpt lat="42.90995" lon="0.13807">
        <ele>1887.2</ele>
        <time>2020-12-05T17:24:28.947Z</time>
      </trkpt>
      <trkpt lat="42.90995" lon="0.13807">
        <ele>1887.2</ele>
        <time>2020-12-05T17:24:29.949Z</time>
      </trkpt>
      <trkpt lat="42.90995" lon="0.13807">
        <ele>1887.2</ele>
        <time>2020-12-05T17:24:30.949Z</time>
      </trkpt>
      <trkpt lat="42.90995" lon="0.13807">
        <ele>1887.2</ele>
        <time>2020-12-05T17:24:31.948Z</time>
      </trkpt>
      <trkpt lat="42.91009" lon="0.13809">
        <ele>1888.4</ele>
        <time>2020-12-05T17:24:32.947Z</time>
      </trkpt>
      <trkpt lat="42.91009" lon="0.13809">
        <ele>1888.4</ele>
        <time>2020-12-05T17:24:33.949Z</time>
      </trkpt>
      <trkpt lat="42.91012" lon="0.13809">
        <ele>1888.6</ele>
        <time>2020-12-05T17:24:34.949Z</time>
      </trkpt>
      <trkpt lat="42.91012" lon="0.13809">
        <ele>1888.6</ele>
        <time>2020-12-05T17:24:35.947Z</time>
      </trkpt>
      <trkpt lat="42.91012" lon="0.13809">
        <ele>1888.6</ele>
        <time>2020-12-05T17:24:36.949Z</time>
      </trkpt>
      <trkpt lat="42.91012" lon="0.13809">
        <ele>1888.6</ele>
        <time>2020-12-05T17:24:37.948Z</time>
      </trkpt>
      <trkpt lat="42.91012" lon="0.13809">
        <ele>1888.6</ele>
        <time>2020-12-05T17:24:38.947Z</time>
      </trkpt>
      <trkpt lat="42.91012" lon="0.13809">
        <ele>1888.6</ele>
        <time>2020-12-05T17:24:39.949Z</time>
      </trkpt>
      <trkpt lat="42.91012" lon="0.13809">
        <ele>1888.6</ele>
        <time>2020-12-05T17:24:40.948Z</time>
      </trkpt>
      <trkpt lat="42.91026" lon="0.13809">
        <ele>1889.6</ele>
        <time>2020-12-05T17:24:41.947Z</time>
      </trkpt>
      <trkpt lat="42.91026" lon="0.13809">
        <ele>1889.6</ele>
        <time>2020-12-05T17:24:42.948Z</time>
      </trkpt>
      <trkpt lat="42.91026" lon="0.13809">
        <ele>1889.6</ele>
        <time>2020-12-05T17:24:43.948Z</time>
      </trkpt>
      <trkpt lat="42.91026" lon="0.13809">
        <ele>1889.6</ele>
        <time>2020-12-05T17:24:44.948Z</time>
      </trkpt>
      <trkpt lat="42.91033" lon="0.13808">
        <ele>1890.4</ele>
        <time>2020-12-05T17:24:45.947Z</time>
      </trkpt>
      <trkpt lat="42.91033" lon="0.13808">
        <ele>1890.4</ele>
        <time>2020-12-05T17:24:46.947Z</time>
      </trkpt>
      <trkpt lat="42.91037" lon="0.13808">
        <ele>1890.8</ele>
        <time>2020-12-05T17:24:47.949Z</time>
      </trkpt>
      <trkpt lat="42.91037" lon="0.13808">
        <ele>1890.8</ele>
        <time>2020-12-05T17:24:48.949Z</time>
      </trkpt>
      <trkpt lat="42.91037" lon="0.13808">
        <ele>1890.8</ele>
        <time>2020-12-05T17:24:49.947Z</time>
      </trkpt>
      <trkpt lat="42.91037" lon="0.13808">
        <ele>1890.8</ele>
        <time>2020-12-05T17:24:50.947Z</time>
      </trkpt>
      <trkpt lat="42.91037" lon="0.13808">
        <ele>1890.8</ele>
        <time>2020-12-05T17:24:51.948Z</time>
      </trkpt>
      <trkpt lat="42.91037" lon="0.13808">
        <ele>1890.8</ele>
        <time>2020-12-05T17:24:52.948Z</time>
      </trkpt>
      <trkpt lat="42.91048" lon="0.13808">
        <ele>1891.6</ele>
        <time>2020-12-05T17:24:53.947Z</time>
      </trkpt>
      <trkpt lat="42.91048" lon="0.13808">
        <ele>1891.6</ele>
        <time>2020-12-05T17:24:54.947Z</time>
      </trkpt>
      <trkpt lat="42.91048" lon="0.13808">
        <ele>1891.6</ele>
        <time>2020-12-05T17:24:55.95Z</time>
      </trkpt>
      <trkpt lat="42.91055" lon="0.13809">
        <ele>1892.2</ele>
        <time>2020-12-05T17:24:56.948Z</time>
      </trkpt>
      <trkpt lat="42.91055" lon="0.13809">
        <ele>1892.2</ele>
        <time>2020-12-05T17:24:57.947Z</time>
      </trkpt>
      <trkpt lat="42.91055" lon="0.13809">
        <ele>1892.2</ele>
        <time>2020-12-05T17:24:58.948Z</time>
      </trkpt>
      <trkpt lat="42.91055" lon="0.13809">
        <ele>1892.2</ele>
        <time>2020-12-05T17:24:59.947Z</time>
      </trkpt>
      <trkpt lat="42.91055" lon="0.13809">
        <ele>1892.2</ele>
        <time>2020-12-05T17:25:00.947Z</time>
      </trkpt>
      <trkpt lat="42.91055" lon="0.13809">
        <ele>1892.2</ele>
        <time>2020-12-05T17:25:01.949Z</time>
      </trkpt>
      <trkpt lat="42.91064" lon="0.13816">
        <ele>1892.8</ele>
        <time>2020-12-05T17:25:02.947Z</time>
      </trkpt>
      <trkpt lat="42.91064" lon="0.13816">
        <ele>1892.8</ele>
        <time>2020-12-05T17:25:03.947Z</time>
      </trkpt>
      <trkpt lat="42.91067" lon="0.1382">
        <ele>1893.2</ele>
        <time>2020-12-05T17:25:04.949Z</time>
      </trkpt>
      <trkpt lat="42.91067" lon="0.1382">
        <ele>1893.2</ele>
        <time>2020-12-05T17:25:05.948Z</time>
      </trkpt>
      <trkpt lat="42.91067" lon="0.1382">
        <ele>1893.2</ele>
        <time>2020-12-05T17:25:06.947Z</time>
      </trkpt>
      <trkpt lat="42.91067" lon="0.1382">
        <ele>1893.2</ele>
        <time>2020-12-05T17:25:07.947Z</time>
      </trkpt>
      <trkpt lat="42.91067" lon="0.1382">
        <ele>1893.2</ele>
        <time>2020-12-05T17:25:08.947Z</time>
      </trkpt>
      <trkpt lat="42.91067" lon="0.1382">
        <ele>1893.2</ele>
        <time>2020-12-05T17:25:09.948Z</time>
      </trkpt>
      <trkpt lat="42.91074" lon="0.13832">
        <ele>1894</ele>
        <time>2020-12-05T17:25:10.948Z</time>
      </trkpt>
      <trkpt lat="42.91074" lon="0.13832">
        <ele>1894</ele>
        <time>2020-12-05T17:25:11.947Z</time>
      </trkpt>
      <trkpt lat="42.91074" lon="0.13832">
        <ele>1894</ele>
        <time>2020-12-05T17:25:12.949Z</time>
      </trkpt>
      <trkpt lat="42.91074" lon="0.13832">
        <ele>1894</ele>
        <time>2020-12-05T17:25:13.949Z</time>
      </trkpt>
      <trkpt lat="42.91074" lon="0.13832">
        <ele>1894</ele>
        <time>2020-12-05T17:25:14.948Z</time>
      </trkpt>
      <trkpt lat="42.91074" lon="0.13832">
        <ele>1894</ele>
        <time>2020-12-05T17:25:15.948Z</time>
      </trkpt>
      <trkpt lat="42.91081" lon="0.13845">
        <ele>1894.8</ele>
        <time>2020-12-05T17:25:16.949Z</time>
      </trkpt>
      <trkpt lat="42.91081" lon="0.13845">
        <ele>1894.8</ele>
        <time>2020-12-05T17:25:17.948Z</time>
      </trkpt>
      <trkpt lat="42.91081" lon="0.13845">
        <ele>1894.8</ele>
        <time>2020-12-05T17:25:18.948Z</time>
      </trkpt>
      <trkpt lat="42.91081" lon="0.13845">
        <ele>1894.8</ele>
        <time>2020-12-05T17:25:19.95Z</time>
      </trkpt>
      <trkpt lat="42.91081" lon="0.13845">
        <ele>1894.8</ele>
        <time>2020-12-05T17:25:20.95Z</time>
      </trkpt>
      <trkpt lat="42.91081" lon="0.13845">
        <ele>1894.8</ele>
        <time>2020-12-05T17:25:21.95Z</time>
      </trkpt>
      <trkpt lat="42.91081" lon="0.13845">
        <ele>1894.8</ele>
        <time>2020-12-05T17:25:22.947Z</time>
      </trkpt>
      <trkpt lat="42.91081" lon="0.13845">
        <ele>1894.8</ele>
        <time>2020-12-05T17:25:23.947Z</time>
      </trkpt>
      <trkpt lat="42.91081" lon="0.13845">
        <ele>1894.8</ele>
        <time>2020-12-05T17:25:24.947Z</time>
      </trkpt>
      <trkpt lat="42.91086" lon="0.13853">
        <ele>1895</ele>
        <time>2020-12-05T17:25:25.948Z</time>
      </trkpt>
      <trkpt lat="42.91086" lon="0.13853">
        <ele>1895</ele>
        <time>2020-12-05T17:25:26.948Z</time>
      </trkpt>
      <trkpt lat="42.91086" lon="0.13853">
        <ele>1895</ele>
        <time>2020-12-05T17:25:27.947Z</time>
      </trkpt>
      <trkpt lat="42.91086" lon="0.13853">
        <ele>1895</ele>
        <time>2020-12-05T17:25:28.947Z</time>
      </trkpt>
      <trkpt lat="42.91086" lon="0.13853">
        <ele>1895</ele>
        <time>2020-12-05T17:25:29.95Z</time>
      </trkpt>
      <trkpt lat="42.91086" lon="0.13853">
        <ele>1895</ele>
        <time>2020-12-05T17:25:30.947Z</time>
      </trkpt>
      <trkpt lat="42.91086" lon="0.13853">
        <ele>1895</ele>
        <time>2020-12-05T17:25:31.947Z</time>
      </trkpt>
      <trkpt lat="42.91086" lon="0.13853">
        <ele>1895</ele>
        <time>2020-12-05T17:25:32.947Z</time>
      </trkpt>
      <trkpt lat="42.91094" lon="0.13861">
        <ele>1895.8</ele>
        <time>2020-12-05T17:25:33.948Z</time>
      </trkpt>
      <trkpt lat="42.91094" lon="0.13861">
        <ele>1895.8</ele>
        <time>2020-12-05T17:25:34.949Z</time>
      </trkpt>
      <trkpt lat="42.91094" lon="0.13861">
        <ele>1895.8</ele>
        <time>2020-12-05T17:25:35.948Z</time>
      </trkpt>
      <trkpt lat="42.91094" lon="0.13861">
        <ele>1895.8</ele>
        <time>2020-12-05T17:25:36.948Z</time>
      </trkpt>
      <trkpt lat="42.91094" lon="0.13861">
        <ele>1895.8</ele>
        <time>2020-12-05T17:25:37.948Z</time>
      </trkpt>
      <trkpt lat="42.91098" lon="0.13861">
        <ele>1895.8</ele>
        <time>2020-12-05T17:25:38.948Z</time>
      </trkpt>
      <trkpt lat="42.91098" lon="0.13861">
        <ele>1895.8</ele>
        <time>2020-12-05T17:25:39.948Z</time>
      </trkpt>
      <trkpt lat="42.91098" lon="0.13861">
        <ele>1895.8</ele>
        <time>2020-12-05T17:25:40.947Z</time>
      </trkpt>
      <trkpt lat="42.91102" lon="0.13859">
        <ele>1896.2</ele>
        <time>2020-12-05T17:25:41.948Z</time>
      </trkpt>
      <trkpt lat="42.91102" lon="0.13859">
        <ele>1896.2</ele>
        <time>2020-12-05T17:25:42.949Z</time>
      </trkpt>
      <trkpt lat="42.91102" lon="0.13859">
        <ele>1896.2</ele>
        <time>2020-12-05T17:25:43.948Z</time>
      </trkpt>
      <trkpt lat="42.91102" lon="0.13859">
        <ele>1896.2</ele>
        <time>2020-12-05T17:25:44.948Z</time>
      </trkpt>
      <trkpt lat="42.91102" lon="0.13859">
        <ele>1896.2</ele>
        <time>2020-12-05T17:25:45.949Z</time>
      </trkpt>
      <trkpt lat="42.9111" lon="0.13852">
        <ele>1896.8</ele>
        <time>2020-12-05T17:25:46.947Z</time>
      </trkpt>
      <trkpt lat="42.9111" lon="0.13852">
        <ele>1896.8</ele>
        <time>2020-12-05T17:25:47.947Z</time>
      </trkpt>
      <trkpt lat="42.9111" lon="0.13852">
        <ele>1896.8</ele>
        <time>2020-12-05T17:25:48.947Z</time>
      </trkpt>
      <trkpt lat="42.9111" lon="0.13852">
        <ele>1896.8</ele>
        <time>2020-12-05T17:25:49.949Z</time>
      </trkpt>
      <trkpt lat="42.9111" lon="0.13852">
        <ele>1896.8</ele>
        <time>2020-12-05T17:25:50.947Z</time>
      </trkpt>
      <trkpt lat="42.9111" lon="0.13852">
        <ele>1896.8</ele>
        <time>2020-12-05T17:25:51.949Z</time>
      </trkpt>
      <trkpt lat="42.9111" lon="0.13852">
        <ele>1896.8</ele>
        <time>2020-12-05T17:25:52.947Z</time>
      </trkpt>
      <trkpt lat="42.9111" lon="0.13852">
        <ele>1896.8</ele>
        <time>2020-12-05T17:25:53.948Z</time>
      </trkpt>
      <trkpt lat="42.91117" lon="0.13841">
        <ele>1897.6</ele>
        <time>2020-12-05T17:25:54.949Z</time>
      </trkpt>
      <trkpt lat="42.91117" lon="0.13841">
        <ele>1897.6</ele>
        <time>2020-12-05T17:25:55.947Z</time>
      </trkpt>
      <trkpt lat="42.91117" lon="0.13841">
        <ele>1897.6</ele>
        <time>2020-12-05T17:25:56.947Z</time>
      </trkpt>
      <trkpt lat="42.91117" lon="0.13841">
        <ele>1897.6</ele>
        <time>2020-12-05T17:25:57.947Z</time>
      </trkpt>
      <trkpt lat="42.91117" lon="0.13841">
        <ele>1897.6</ele>
        <time>2020-12-05T17:25:58.947Z</time>
      </trkpt>
      <trkpt lat="42.91117" lon="0.13841">
        <ele>1897.6</ele>
        <time>2020-12-05T17:25:59.948Z</time>
      </trkpt>
      <trkpt lat="42.91117" lon="0.13841">
        <ele>1897.6</ele>
        <time>2020-12-05T17:26:00.948Z</time>
      </trkpt>
      <trkpt lat="42.91124" lon="0.13832">
        <ele>1898.2</ele>
        <time>2020-12-05T17:26:01.947Z</time>
      </trkpt>
      <trkpt lat="42.91124" lon="0.13832">
        <ele>1898.2</ele>
        <time>2020-12-05T17:26:02.947Z</time>
      </trkpt>
      <trkpt lat="42.91124" lon="0.13832">
        <ele>1898.2</ele>
        <time>2020-12-05T17:26:03.947Z</time>
      </trkpt>
      <trkpt lat="42.91127" lon="0.13827">
        <ele>1898.6</ele>
        <time>2020-12-05T17:26:04.947Z</time>
      </trkpt>
      <trkpt lat="42.91127" lon="0.13827">
        <ele>1898.6</ele>
        <time>2020-12-05T17:26:05.948Z</time>
      </trkpt>
      <trkpt lat="42.91127" lon="0.13827">
        <ele>1898.6</ele>
        <time>2020-12-05T17:26:06.949Z</time>
      </trkpt>
      <trkpt lat="42.91131" lon="0.13822">
        <ele>1898.6</ele>
        <time>2020-12-05T17:26:07.947Z</time>
      </trkpt>
      <trkpt lat="42.91131" lon="0.13822">
        <ele>1898.6</ele>
        <time>2020-12-05T17:26:08.948Z</time>
      </trkpt>
      <trkpt lat="42.91131" lon="0.13822">
        <ele>1898.6</ele>
        <time>2020-12-05T17:26:09.948Z</time>
      </trkpt>
      <trkpt lat="42.91131" lon="0.13822">
        <ele>1898.6</ele>
        <time>2020-12-05T17:26:10.947Z</time>
      </trkpt>
      <trkpt lat="42.91131" lon="0.13822">
        <ele>1898.6</ele>
        <time>2020-12-05T17:26:11.948Z</time>
      </trkpt>
      <trkpt lat="42.91131" lon="0.13822">
        <ele>1898.6</ele>
        <time>2020-12-05T17:26:12.947Z</time>
      </trkpt>
      <trkpt lat="42.91131" lon="0.13822">
        <ele>1898.6</ele>
        <time>2020-12-05T17:26:13.947Z</time>
      </trkpt>
      <trkpt lat="42.91131" lon="0.13822">
        <ele>1898.6</ele>
        <time>2020-12-05T17:26:14.947Z</time>
      </trkpt>
      <trkpt lat="42.91131" lon="0.13822">
        <ele>1898.6</ele>
        <time>2020-12-05T17:26:15.949Z</time>
      </trkpt>
      <trkpt lat="42.91131" lon="0.13822">
        <ele>1898.6</ele>
        <time>2020-12-05T17:26:16.948Z</time>
      </trkpt>
      <trkpt lat="42.91131" lon="0.13822">
        <ele>1898.6</ele>
        <time>2020-12-05T17:26:17.948Z</time>
      </trkpt>
      <trkpt lat="42.91131" lon="0.13822">
        <ele>1898.6</ele>
        <time>2020-12-05T17:26:18.948Z</time>
      </trkpt>
      <trkpt lat="42.91154" lon="0.13796">
        <ele>1899.6</ele>
        <time>2020-12-05T17:26:19.949Z</time>
      </trkpt>
      <trkpt lat="42.91158" lon="0.13794">
        <ele>1899.6</ele>
        <time>2020-12-05T17:26:20.948Z</time>
      </trkpt>
      <trkpt lat="42.91158" lon="0.13794">
        <ele>1899.6</ele>
        <time>2020-12-05T17:26:21.95Z</time>
      </trkpt>
      <trkpt lat="42.91158" lon="0.13794">
        <ele>1899.6</ele>
        <time>2020-12-05T17:26:22.947Z</time>
      </trkpt>
      <trkpt lat="42.91158" lon="0.13794">
        <ele>1899.6</ele>
        <time>2020-12-05T17:26:23.947Z</time>
      </trkpt>
      <trkpt lat="42.91158" lon="0.13794">
        <ele>1899.6</ele>
        <time>2020-12-05T17:26:24.948Z</time>
      </trkpt>
      <trkpt lat="42.91158" lon="0.13794">
        <ele>1899.6</ele>
        <time>2020-12-05T17:26:25.948Z</time>
      </trkpt>
      <trkpt lat="42.91172" lon="0.13789">
        <ele>1900</ele>
        <time>2020-12-05T17:26:26.948Z</time>
      </trkpt>
      <trkpt lat="42.91172" lon="0.13789">
        <ele>1900</ele>
        <time>2020-12-05T17:26:27.949Z</time>
      </trkpt>
      <trkpt lat="42.91172" lon="0.13789">
        <ele>1900</ele>
        <time>2020-12-05T17:26:28.948Z</time>
      </trkpt>
      <trkpt lat="42.91172" lon="0.13789">
        <ele>1900</ele>
        <time>2020-12-05T17:26:29.947Z</time>
      </trkpt>
      <trkpt lat="42.91183" lon="0.13789">
        <ele>1900.2</ele>
        <time>2020-12-05T17:26:30.949Z</time>
      </trkpt>
      <trkpt lat="42.91183" lon="0.13789">
        <ele>1900.2</ele>
        <time>2020-12-05T17:26:31.948Z</time>
      </trkpt>
      <trkpt lat="42.91183" lon="0.13789">
        <ele>1900.2</ele>
        <time>2020-12-05T17:26:32.947Z</time>
      </trkpt>
      <trkpt lat="42.91183" lon="0.13789">
        <ele>1900.2</ele>
        <time>2020-12-05T17:26:33.948Z</time>
      </trkpt>
      <trkpt lat="42.91183" lon="0.13789">
        <ele>1900.2</ele>
        <time>2020-12-05T17:26:34.948Z</time>
      </trkpt>
      <trkpt lat="42.91183" lon="0.13789">
        <ele>1900.2</ele>
        <time>2020-12-05T17:26:35.948Z</time>
      </trkpt>
      <trkpt lat="42.91199" lon="0.1379">
        <ele>1900.4</ele>
        <time>2020-12-05T17:26:36.949Z</time>
      </trkpt>
      <trkpt lat="42.91199" lon="0.1379">
        <ele>1900.4</ele>
        <time>2020-12-05T17:26:37.947Z</time>
      </trkpt>
      <trkpt lat="42.91204" lon="0.1379">
        <ele>1900.6</ele>
        <time>2020-12-05T17:26:38.948Z</time>
      </trkpt>
      <trkpt lat="42.91204" lon="0.1379">
        <ele>1900.6</ele>
        <time>2020-12-05T17:26:39.948Z</time>
      </trkpt>
      <trkpt lat="42.91204" lon="0.1379">
        <ele>1900.6</ele>
        <time>2020-12-05T17:26:40.947Z</time>
      </trkpt>
      <trkpt lat="42.91204" lon="0.1379">
        <ele>1900.6</ele>
        <time>2020-12-05T17:26:41.949Z</time>
      </trkpt>
      <trkpt lat="42.91204" lon="0.1379">
        <ele>1900.6</ele>
        <time>2020-12-05T17:26:42.948Z</time>
      </trkpt>
      <trkpt lat="42.91204" lon="0.1379">
        <ele>1900.6</ele>
        <time>2020-12-05T17:26:43.948Z</time>
      </trkpt>
      <trkpt lat="42.91204" lon="0.1379">
        <ele>1900.6</ele>
        <time>2020-12-05T17:26:44.947Z</time>
      </trkpt>
      <trkpt lat="42.91204" lon="0.1379">
        <ele>1900.6</ele>
        <time>2020-12-05T17:26:45.949Z</time>
      </trkpt>
      <trkpt lat="42.91204" lon="0.1379">
        <ele>1900.6</ele>
        <time>2020-12-05T17:26:46.948Z</time>
      </trkpt>
      <trkpt lat="42.91226" lon="0.13785">
        <ele>1901.4</ele>
        <time>2020-12-05T17:26:47.95Z</time>
      </trkpt>
      <trkpt lat="42.91226" lon="0.13785">
        <ele>1901.4</ele>
        <time>2020-12-05T17:26:48.949Z</time>
      </trkpt>
      <trkpt lat="42.91231" lon="0.13783">
        <ele>1901.4</ele>
        <time>2020-12-05T17:26:49.948Z</time>
      </trkpt>
      <trkpt lat="42.91231" lon="0.13783">
        <ele>1901.4</ele>
        <time>2020-12-05T17:26:50.948Z</time>
      </trkpt>
      <trkpt lat="42.91231" lon="0.13783">
        <ele>1901.4</ele>
        <time>2020-12-05T17:26:51.947Z</time>
      </trkpt>
      <trkpt lat="42.91231" lon="0.13783">
        <ele>1901.4</ele>
        <time>2020-12-05T17:26:52.948Z</time>
      </trkpt>
      <trkpt lat="42.91231" lon="0.13783">
        <ele>1901.4</ele>
        <time>2020-12-05T17:26:53.947Z</time>
      </trkpt>
      <trkpt lat="42.91231" lon="0.13783">
        <ele>1901.4</ele>
        <time>2020-12-05T17:26:54.949Z</time>
      </trkpt>
      <trkpt lat="42.91231" lon="0.13783">
        <ele>1901.4</ele>
        <time>2020-12-05T17:26:55.948Z</time>
      </trkpt>
      <trkpt lat="42.91231" lon="0.13783">
        <ele>1901.4</ele>
        <time>2020-12-05T17:26:56.947Z</time>
      </trkpt>
      <trkpt lat="42.91231" lon="0.13783">
        <ele>1901.4</ele>
        <time>2020-12-05T17:26:57.948Z</time>
      </trkpt>
      <trkpt lat="42.91252" lon="0.13771">
        <ele>1902</ele>
        <time>2020-12-05T17:26:58.947Z</time>
      </trkpt>
      <trkpt lat="42.91252" lon="0.13771">
        <ele>1902</ele>
        <time>2020-12-05T17:26:59.947Z</time>
      </trkpt>
      <trkpt lat="42.91252" lon="0.13771">
        <ele>1902</ele>
        <time>2020-12-05T17:27:00.948Z</time>
      </trkpt>
      <trkpt lat="42.91252" lon="0.13771">
        <ele>1902</ele>
        <time>2020-12-05T17:27:01.947Z</time>
      </trkpt>
      <trkpt lat="42.9126" lon="0.13762">
        <ele>1902.4</ele>
        <time>2020-12-05T17:27:02.947Z</time>
      </trkpt>
      <trkpt lat="42.9126" lon="0.13762">
        <ele>1902.4</ele>
        <time>2020-12-05T17:27:03.95Z</time>
      </trkpt>
      <trkpt lat="42.9126" lon="0.13762">
        <ele>1902.4</ele>
        <time>2020-12-05T17:27:04.949Z</time>
      </trkpt>
      <trkpt lat="42.9126" lon="0.13762">
        <ele>1902.4</ele>
        <time>2020-12-05T17:27:05.947Z</time>
      </trkpt>
      <trkpt lat="42.9126" lon="0.13762">
        <ele>1902.4</ele>
        <time>2020-12-05T17:27:06.949Z</time>
      </trkpt>
      <trkpt lat="42.9126" lon="0.13762">
        <ele>1902.4</ele>
        <time>2020-12-05T17:27:07.948Z</time>
      </trkpt>
      <trkpt lat="42.9126" lon="0.13762">
        <ele>1902.4</ele>
        <time>2020-12-05T17:27:08.947Z</time>
      </trkpt>
      <trkpt lat="42.91272" lon="0.13746">
        <ele>1902.8</ele>
        <time>2020-12-05T17:27:09.948Z</time>
      </trkpt>
      <trkpt lat="42.91272" lon="0.13746">
        <ele>1902.8</ele>
        <time>2020-12-05T17:27:10.948Z</time>
      </trkpt>
      <trkpt lat="42.91272" lon="0.13746">
        <ele>1902.8</ele>
        <time>2020-12-05T17:27:11.949Z</time>
      </trkpt>
      <trkpt lat="42.91272" lon="0.13746">
        <ele>1902.8</ele>
        <time>2020-12-05T17:27:12.948Z</time>
      </trkpt>
      <trkpt lat="42.91272" lon="0.13746">
        <ele>1902.8</ele>
        <time>2020-12-05T17:27:13.949Z</time>
      </trkpt>
      <trkpt lat="42.91272" lon="0.13746">
        <ele>1902.8</ele>
        <time>2020-12-05T17:27:14.947Z</time>
      </trkpt>
      <trkpt lat="42.91272" lon="0.13746">
        <ele>1902.8</ele>
        <time>2020-12-05T17:27:15.948Z</time>
      </trkpt>
      <trkpt lat="42.91272" lon="0.13746">
        <ele>1902.8</ele>
        <time>2020-12-05T17:27:16.949Z</time>
      </trkpt>
      <trkpt lat="42.91272" lon="0.13746">
        <ele>1902.8</ele>
        <time>2020-12-05T17:27:17.947Z</time>
      </trkpt>
      <trkpt lat="42.91272" lon="0.13746">
        <ele>1902.8</ele>
        <time>2020-12-05T17:27:18.948Z</time>
      </trkpt>
      <trkpt lat="42.91272" lon="0.13746">
        <ele>1902.8</ele>
        <time>2020-12-05T17:27:19.947Z</time>
      </trkpt>
      <trkpt lat="42.91272" lon="0.13746">
        <ele>1902.8</ele>
        <time>2020-12-05T17:27:20.948Z</time>
      </trkpt>
      <trkpt lat="42.91272" lon="0.13746">
        <ele>1902.8</ele>
        <time>2020-12-05T17:27:21.947Z</time>
      </trkpt>
      <trkpt lat="42.91272" lon="0.13746">
        <ele>1902.8</ele>
        <time>2020-12-05T17:27:22.948Z</time>
      </trkpt>
      <trkpt lat="42.91291" lon="0.13707">
        <ele>1903.8</ele>
        <time>2020-12-05T17:27:23.949Z</time>
      </trkpt>
      <trkpt lat="42.91291" lon="0.13707">
        <ele>1903.8</ele>
        <time>2020-12-05T17:27:24.949Z</time>
      </trkpt>
      <trkpt lat="42.91294" lon="0.137">
        <ele>1904</ele>
        <time>2020-12-05T17:27:25.949Z</time>
      </trkpt>
      <trkpt lat="42.91294" lon="0.137">
        <ele>1904</ele>
        <time>2020-12-05T17:27:26.948Z</time>
      </trkpt>
      <trkpt lat="42.91294" lon="0.137">
        <ele>1904</ele>
        <time>2020-12-05T17:27:27.949Z</time>
      </trkpt>
      <trkpt lat="42.91294" lon="0.137">
        <ele>1904</ele>
        <time>2020-12-05T17:27:28.947Z</time>
      </trkpt>
      <trkpt lat="42.91294" lon="0.137">
        <ele>1904</ele>
        <time>2020-12-05T17:27:29.947Z</time>
      </trkpt>
      <trkpt lat="42.91302" lon="0.13689">
        <ele>1904.2</ele>
        <time>2020-12-05T17:27:30.949Z</time>
      </trkpt>
      <trkpt lat="42.91302" lon="0.13689">
        <ele>1904.2</ele>
        <time>2020-12-05T17:27:31.947Z</time>
      </trkpt>
      <trkpt lat="42.91302" lon="0.13689">
        <ele>1904.2</ele>
        <time>2020-12-05T17:27:32.947Z</time>
      </trkpt>
      <trkpt lat="42.91302" lon="0.13689">
        <ele>1904.2</ele>
        <time>2020-12-05T17:27:33.949Z</time>
      </trkpt>
      <trkpt lat="42.91311" lon="0.13682">
        <ele>1904.4</ele>
        <time>2020-12-05T17:27:34.948Z</time>
      </trkpt>
      <trkpt lat="42.91311" lon="0.13682">
        <ele>1904.4</ele>
        <time>2020-12-05T17:27:35.947Z</time>
      </trkpt>
      <trkpt lat="42.91311" lon="0.13682">
        <ele>1904.4</ele>
        <time>2020-12-05T17:27:36.949Z</time>
      </trkpt>
      <trkpt lat="42.91311" lon="0.13682">
        <ele>1904.4</ele>
        <time>2020-12-05T17:27:37.948Z</time>
      </trkpt>
      <trkpt lat="42.91311" lon="0.13682">
        <ele>1904.4</ele>
        <time>2020-12-05T17:27:38.949Z</time>
      </trkpt>
      <trkpt lat="42.91311" lon="0.13682">
        <ele>1904.4</ele>
        <time>2020-12-05T17:27:39.948Z</time>
      </trkpt>
      <trkpt lat="42.91311" lon="0.13682">
        <ele>1904.4</ele>
        <time>2020-12-05T17:27:40.947Z</time>
      </trkpt>
      <trkpt lat="42.91311" lon="0.13682">
        <ele>1904.4</ele>
        <time>2020-12-05T17:27:41.949Z</time>
      </trkpt>
      <trkpt lat="42.9133" lon="0.1368">
        <ele>1904.8</ele>
        <time>2020-12-05T17:27:42.948Z</time>
      </trkpt>
      <trkpt lat="42.9133" lon="0.1368">
        <ele>1904.8</ele>
        <time>2020-12-05T17:27:43.947Z</time>
      </trkpt>
      <trkpt lat="42.9133" lon="0.1368">
        <ele>1904.8</ele>
        <time>2020-12-05T17:27:44.947Z</time>
      </trkpt>
      <trkpt lat="42.91336" lon="0.13689">
        <ele>1905</ele>
        <time>2020-12-05T17:27:45.947Z</time>
      </trkpt>
      <trkpt lat="42.91336" lon="0.13689">
        <ele>1905</ele>
        <time>2020-12-05T17:27:46.948Z</time>
      </trkpt>
      <trkpt lat="42.91338" lon="0.13694">
        <ele>1905.2</ele>
        <time>2020-12-05T17:27:47.948Z</time>
      </trkpt>
      <trkpt lat="42.91338" lon="0.13694">
        <ele>1905.2</ele>
        <time>2020-12-05T17:27:48.947Z</time>
      </trkpt>
      <trkpt lat="42.91338" lon="0.13694">
        <ele>1905.2</ele>
        <time>2020-12-05T17:27:49.947Z</time>
      </trkpt>
      <trkpt lat="42.91338" lon="0.13694">
        <ele>1905.2</ele>
        <time>2020-12-05T17:27:50.948Z</time>
      </trkpt>
      <trkpt lat="42.91338" lon="0.13694">
        <ele>1905.2</ele>
        <time>2020-12-05T17:27:51.948Z</time>
      </trkpt>
      <trkpt lat="42.91338" lon="0.1371">
        <ele>1906</ele>
        <time>2020-12-05T17:27:52.948Z</time>
      </trkpt>
      <trkpt lat="42.91336" lon="0.13714">
        <ele>1906.2</ele>
        <time>2020-12-05T17:27:53.949Z</time>
      </trkpt>
      <trkpt lat="42.91336" lon="0.13714">
        <ele>1906.2</ele>
        <time>2020-12-05T17:27:54.948Z</time>
      </trkpt>
      <trkpt lat="42.91336" lon="0.13714">
        <ele>1906.2</ele>
        <time>2020-12-05T17:27:55.947Z</time>
      </trkpt>
      <trkpt lat="42.91336" lon="0.13714">
        <ele>1906.2</ele>
        <time>2020-12-05T17:27:56.947Z</time>
      </trkpt>
      <trkpt lat="42.91336" lon="0.13714">
        <ele>1906.2</ele>
        <time>2020-12-05T17:27:57.949Z</time>
      </trkpt>
      <trkpt lat="42.91327" lon="0.13723">
        <ele>1907</ele>
        <time>2020-12-05T17:27:58.949Z</time>
      </trkpt>
      <trkpt lat="42.91324" lon="0.13726">
        <ele>1907.2</ele>
        <time>2020-12-05T17:27:59.948Z</time>
      </trkpt>
      <trkpt lat="42.91324" lon="0.13726">
        <ele>1907.2</ele>
        <time>2020-12-05T17:28:00.948Z</time>
      </trkpt>
      <trkpt lat="42.91324" lon="0.13726">
        <ele>1907.2</ele>
        <time>2020-12-05T17:28:01.949Z</time>
      </trkpt>
      <trkpt lat="42.91324" lon="0.13726">
        <ele>1907.2</ele>
        <time>2020-12-05T17:28:02.948Z</time>
      </trkpt>
      <trkpt lat="42.91324" lon="0.13726">
        <ele>1907.2</ele>
        <time>2020-12-05T17:28:03.949Z</time>
      </trkpt>
      <trkpt lat="42.91324" lon="0.13726">
        <ele>1907.2</ele>
        <time>2020-12-05T17:28:04.948Z</time>
      </trkpt>
      <trkpt lat="42.91324" lon="0.13726">
        <ele>1907.2</ele>
        <time>2020-12-05T17:28:05.948Z</time>
      </trkpt>
      <trkpt lat="42.91324" lon="0.13726">
        <ele>1907.2</ele>
        <time>2020-12-05T17:28:06.948Z</time>
      </trkpt>
      <trkpt lat="42.91315" lon="0.13731">
        <ele>1908.8</ele>
        <time>2020-12-05T17:28:07.948Z</time>
      </trkpt>
      <trkpt lat="42.91315" lon="0.13731">
        <ele>1908.8</ele>
        <time>2020-12-05T17:28:08.949Z</time>
      </trkpt>
      <trkpt lat="42.91312" lon="0.13733">
        <ele>1909.8</ele>
        <time>2020-12-05T17:28:09.948Z</time>
      </trkpt>
      <trkpt lat="42.91312" lon="0.13733">
        <ele>1909.8</ele>
        <time>2020-12-05T17:28:10.949Z</time>
      </trkpt>
      <trkpt lat="42.91312" lon="0.13733">
        <ele>1909.8</ele>
        <time>2020-12-05T17:28:11.949Z</time>
      </trkpt>
      <trkpt lat="42.91312" lon="0.13733">
        <ele>1909.8</ele>
        <time>2020-12-05T17:28:12.948Z</time>
      </trkpt>
      <trkpt lat="42.91312" lon="0.13733">
        <ele>1909.8</ele>
        <time>2020-12-05T17:28:13.948Z</time>
      </trkpt>
      <trkpt lat="42.91312" lon="0.13733">
        <ele>1909.8</ele>
        <time>2020-12-05T17:28:14.948Z</time>
      </trkpt>
      <trkpt lat="42.91306" lon="0.13736">
        <ele>1910.6</ele>
        <time>2020-12-05T17:28:15.948Z</time>
      </trkpt>
      <trkpt lat="42.91306" lon="0.13736">
        <ele>1910.6</ele>
        <time>2020-12-05T17:28:16.948Z</time>
      </trkpt>
      <trkpt lat="42.91303" lon="0.13738">
        <ele>1911</ele>
        <time>2020-12-05T17:28:17.949Z</time>
      </trkpt>
      <trkpt lat="42.91303" lon="0.13738">
        <ele>1911</ele>
        <time>2020-12-05T17:28:18.949Z</time>
      </trkpt>
      <trkpt lat="42.91303" lon="0.13738">
        <ele>1911</ele>
        <time>2020-12-05T17:28:19.948Z</time>
      </trkpt>
      <trkpt lat="42.91303" lon="0.13738">
        <ele>1911</ele>
        <time>2020-12-05T17:28:20.95Z</time>
      </trkpt>
      <trkpt lat="42.91303" lon="0.13738">
        <ele>1911</ele>
        <time>2020-12-05T17:28:21.948Z</time>
      </trkpt>
      <trkpt lat="42.91303" lon="0.13738">
        <ele>1911</ele>
        <time>2020-12-05T17:28:22.949Z</time>
      </trkpt>
      <trkpt lat="42.91295" lon="0.13745">
        <ele>1912</ele>
        <time>2020-12-05T17:28:23.947Z</time>
      </trkpt>
      <trkpt lat="42.91295" lon="0.13745">
        <ele>1912</ele>
        <time>2020-12-05T17:28:24.947Z</time>
      </trkpt>
      <trkpt lat="42.91295" lon="0.13745">
        <ele>1912</ele>
        <time>2020-12-05T17:28:25.947Z</time>
      </trkpt>
      <trkpt lat="42.91295" lon="0.13745">
        <ele>1912</ele>
        <time>2020-12-05T17:28:26.947Z</time>
      </trkpt>
      <trkpt lat="42.91295" lon="0.13745">
        <ele>1912</ele>
        <time>2020-12-05T17:28:27.948Z</time>
      </trkpt>
      <trkpt lat="42.9129" lon="0.13751">
        <ele>1912.6</ele>
        <time>2020-12-05T17:28:28.948Z</time>
      </trkpt>
      <trkpt lat="42.9129" lon="0.13751">
        <ele>1912.6</ele>
        <time>2020-12-05T17:28:29.949Z</time>
      </trkpt>
      <trkpt lat="42.9129" lon="0.13751">
        <ele>1912.6</ele>
        <time>2020-12-05T17:28:30.948Z</time>
      </trkpt>
      <trkpt lat="42.9129" lon="0.13751">
        <ele>1912.6</ele>
        <time>2020-12-05T17:28:31.949Z</time>
      </trkpt>
      <trkpt lat="42.9129" lon="0.13751">
        <ele>1912.6</ele>
        <time>2020-12-05T17:28:32.95Z</time>
      </trkpt>
      <trkpt lat="42.91286" lon="0.13758">
        <ele>1913.2</ele>
        <time>2020-12-05T17:28:33.948Z</time>
      </trkpt>
      <trkpt lat="42.91286" lon="0.13758">
        <ele>1913.2</ele>
        <time>2020-12-05T17:28:34.948Z</time>
      </trkpt>
      <trkpt lat="42.91286" lon="0.13758">
        <ele>1913.2</ele>
        <time>2020-12-05T17:28:35.949Z</time>
      </trkpt>
      <trkpt lat="42.91286" lon="0.13758">
        <ele>1913.2</ele>
        <time>2020-12-05T17:28:36.947Z</time>
      </trkpt>
      <trkpt lat="42.91286" lon="0.13758">
        <ele>1913.2</ele>
        <time>2020-12-05T17:28:37.948Z</time>
      </trkpt>
      <trkpt lat="42.91286" lon="0.13758">
        <ele>1913.2</ele>
        <time>2020-12-05T17:28:38.948Z</time>
      </trkpt>
      <trkpt lat="42.9128" lon="0.13769">
        <ele>1914.6</ele>
        <time>2020-12-05T17:28:39.948Z</time>
      </trkpt>
      <trkpt lat="42.9128" lon="0.13769">
        <ele>1914.6</ele>
        <time>2020-12-05T17:28:40.947Z</time>
      </trkpt>
      <trkpt lat="42.9128" lon="0.13769">
        <ele>1914.6</ele>
        <time>2020-12-05T17:28:41.947Z</time>
      </trkpt>
      <trkpt lat="42.9128" lon="0.13769">
        <ele>1914.6</ele>
        <time>2020-12-05T17:28:42.949Z</time>
      </trkpt>
      <trkpt lat="42.9128" lon="0.13769">
        <ele>1914.6</ele>
        <time>2020-12-05T17:28:43.947Z</time>
      </trkpt>
      <trkpt lat="42.9128" lon="0.13769">
        <ele>1914.6</ele>
        <time>2020-12-05T17:28:44.947Z</time>
      </trkpt>
      <trkpt lat="42.91276" lon="0.13778">
        <ele>1915.2</ele>
        <time>2020-12-05T17:28:45.95Z</time>
      </trkpt>
      <trkpt lat="42.91276" lon="0.13778">
        <ele>1915.2</ele>
        <time>2020-12-05T17:28:46.948Z</time>
      </trkpt>
      <trkpt lat="42.91274" lon="0.13782">
        <ele>1915.6</ele>
        <time>2020-12-05T17:28:47.948Z</time>
      </trkpt>
      <trkpt lat="42.91274" lon="0.13782">
        <ele>1915.6</ele>
        <time>2020-12-05T17:28:48.949Z</time>
      </trkpt>
      <trkpt lat="42.91274" lon="0.13782">
        <ele>1915.6</ele>
        <time>2020-12-05T17:28:49.947Z</time>
      </trkpt>
      <trkpt lat="42.91274" lon="0.13782">
        <ele>1915.6</ele>
        <time>2020-12-05T17:28:50.947Z</time>
      </trkpt>
      <trkpt lat="42.91274" lon="0.13782">
        <ele>1915.6</ele>
        <time>2020-12-05T17:28:51.951Z</time>
      </trkpt>
      <trkpt lat="42.91274" lon="0.13782">
        <ele>1915.6</ele>
        <time>2020-12-05T17:28:52.948Z</time>
      </trkpt>
      <trkpt lat="42.91274" lon="0.13782">
        <ele>1915.6</ele>
        <time>2020-12-05T17:28:53.948Z</time>
      </trkpt>
      <trkpt lat="42.91274" lon="0.13782">
        <ele>1915.6</ele>
        <time>2020-12-05T17:28:54.948Z</time>
      </trkpt>
      <trkpt lat="42.91265" lon="0.13793">
        <ele>1916.6</ele>
        <time>2020-12-05T17:28:55.948Z</time>
      </trkpt>
      <trkpt lat="42.91265" lon="0.13793">
        <ele>1916.6</ele>
        <time>2020-12-05T17:28:56.948Z</time>
      </trkpt>
      <trkpt lat="42.91265" lon="0.13793">
        <ele>1916.6</ele>
        <time>2020-12-05T17:28:57.949Z</time>
      </trkpt>
      <trkpt lat="42.91263" lon="0.13796">
        <ele>1917</ele>
        <time>2020-12-05T17:28:58.949Z</time>
      </trkpt>
      <trkpt lat="42.91263" lon="0.13796">
        <ele>1917</ele>
        <time>2020-12-05T17:28:59.948Z</time>
      </trkpt>
      <trkpt lat="42.91263" lon="0.13796">
        <ele>1917</ele>
        <time>2020-12-05T17:29:00.949Z</time>
      </trkpt>
      <trkpt lat="42.91263" lon="0.13796">
        <ele>1917</ele>
        <time>2020-12-05T17:29:01.948Z</time>
      </trkpt>
      <trkpt lat="42.91263" lon="0.13796">
        <ele>1917</ele>
        <time>2020-12-05T17:29:02.947Z</time>
      </trkpt>
      <trkpt lat="42.91263" lon="0.13796">
        <ele>1917</ele>
        <time>2020-12-05T17:29:03.947Z</time>
      </trkpt>
      <trkpt lat="42.91257" lon="0.13806">
        <ele>1917.8</ele>
        <time>2020-12-05T17:29:04.948Z</time>
      </trkpt>
      <trkpt lat="42.91257" lon="0.13806">
        <ele>1917.8</ele>
        <time>2020-12-05T17:29:05.948Z</time>
      </trkpt>
      <trkpt lat="42.91257" lon="0.13806">
        <ele>1917.8</ele>
        <time>2020-12-05T17:29:06.948Z</time>
      </trkpt>
      <trkpt lat="42.91257" lon="0.13806">
        <ele>1917.8</ele>
        <time>2020-12-05T17:29:07.948Z</time>
      </trkpt>
      <trkpt lat="42.91257" lon="0.13806">
        <ele>1917.8</ele>
        <time>2020-12-05T17:29:08.947Z</time>
      </trkpt>
      <trkpt lat="42.91257" lon="0.13806">
        <ele>1917.8</ele>
        <time>2020-12-05T17:29:09.947Z</time>
      </trkpt>
      <trkpt lat="42.91249" lon="0.13816">
        <ele>1918.6</ele>
        <time>2020-12-05T17:29:10.947Z</time>
      </trkpt>
      <trkpt lat="42.91249" lon="0.13816">
        <ele>1918.6</ele>
        <time>2020-12-05T17:29:11.948Z</time>
      </trkpt>
      <trkpt lat="42.91249" lon="0.13816">
        <ele>1918.6</ele>
        <time>2020-12-05T17:29:12.948Z</time>
      </trkpt>
      <trkpt lat="42.91247" lon="0.13819">
        <ele>1919</ele>
        <time>2020-12-05T17:29:13.947Z</time>
      </trkpt>
      <trkpt lat="42.91247" lon="0.13819">
        <ele>1919</ele>
        <time>2020-12-05T17:29:14.948Z</time>
      </trkpt>
      <trkpt lat="42.91247" lon="0.13819">
        <ele>1919</ele>
        <time>2020-12-05T17:29:15.949Z</time>
      </trkpt>
      <trkpt lat="42.91247" lon="0.13819">
        <ele>1919</ele>
        <time>2020-12-05T17:29:16.948Z</time>
      </trkpt>
      <trkpt lat="42.91247" lon="0.13819">
        <ele>1919</ele>
        <time>2020-12-05T17:29:17.948Z</time>
      </trkpt>
      <trkpt lat="42.91247" lon="0.13819">
        <ele>1919</ele>
        <time>2020-12-05T17:29:18.948Z</time>
      </trkpt>
      <trkpt lat="42.91247" lon="0.13819">
        <ele>1919</ele>
        <time>2020-12-05T17:29:19.948Z</time>
      </trkpt>
      <trkpt lat="42.91238" lon="0.13826">
        <ele>1920</ele>
        <time>2020-12-05T17:29:20.949Z</time>
      </trkpt>
      <trkpt lat="42.91238" lon="0.13826">
        <ele>1920</ele>
        <time>2020-12-05T17:29:21.949Z</time>
      </trkpt>
      <trkpt lat="42.91238" lon="0.13826">
        <ele>1920</ele>
        <time>2020-12-05T17:29:22.947Z</time>
      </trkpt>
      <trkpt lat="42.91238" lon="0.13826">
        <ele>1920</ele>
        <time>2020-12-05T17:29:23.948Z</time>
      </trkpt>
      <trkpt lat="42.91238" lon="0.13826">
        <ele>1920</ele>
        <time>2020-12-05T17:29:24.948Z</time>
      </trkpt>
      <trkpt lat="42.91238" lon="0.13826">
        <ele>1920</ele>
        <time>2020-12-05T17:29:25.947Z</time>
      </trkpt>
      <trkpt lat="42.91229" lon="0.13831">
        <ele>1920.8</ele>
        <time>2020-12-05T17:29:26.949Z</time>
      </trkpt>
      <trkpt lat="42.91229" lon="0.13831">
        <ele>1920.8</ele>
        <time>2020-12-05T17:29:27.948Z</time>
      </trkpt>
      <trkpt lat="42.91229" lon="0.13831">
        <ele>1920.8</ele>
        <time>2020-12-05T17:29:28.947Z</time>
      </trkpt>
      <trkpt lat="42.91229" lon="0.13831">
        <ele>1920.8</ele>
        <time>2020-12-05T17:29:29.948Z</time>
      </trkpt>
      <trkpt lat="42.91223" lon="0.13834">
        <ele>1921.2</ele>
        <time>2020-12-05T17:29:30.948Z</time>
      </trkpt>
      <trkpt lat="42.91223" lon="0.13834">
        <ele>1921.2</ele>
        <time>2020-12-05T17:29:31.947Z</time>
      </trkpt>
      <trkpt lat="42.91223" lon="0.13834">
        <ele>1921.2</ele>
        <time>2020-12-05T17:29:32.948Z</time>
      </trkpt>
      <trkpt lat="42.91223" lon="0.13834">
        <ele>1921.2</ele>
        <time>2020-12-05T17:29:33.949Z</time>
      </trkpt>
      <trkpt lat="42.91223" lon="0.13834">
        <ele>1921.2</ele>
        <time>2020-12-05T17:29:34.949Z</time>
      </trkpt>
      <trkpt lat="42.91223" lon="0.13834">
        <ele>1921.2</ele>
        <time>2020-12-05T17:29:35.949Z</time>
      </trkpt>
      <trkpt lat="42.91223" lon="0.13834">
        <ele>1921.2</ele>
        <time>2020-12-05T17:29:36.947Z</time>
      </trkpt>
      <trkpt lat="42.91214" lon="0.13839">
        <ele>1922.4</ele>
        <time>2020-12-05T17:29:37.949Z</time>
      </trkpt>
      <trkpt lat="42.91214" lon="0.13839">
        <ele>1922.4</ele>
        <time>2020-12-05T17:29:38.948Z</time>
      </trkpt>
      <trkpt lat="42.91214" lon="0.13839">
        <ele>1922.4</ele>
        <time>2020-12-05T17:29:39.947Z</time>
      </trkpt>
      <trkpt lat="42.91214" lon="0.13839">
        <ele>1922.4</ele>
        <time>2020-12-05T17:29:40.948Z</time>
      </trkpt>
      <trkpt lat="42.91208" lon="0.13841">
        <ele>1923</ele>
        <time>2020-12-05T17:29:41.95Z</time>
      </trkpt>
      <trkpt lat="42.91208" lon="0.13841">
        <ele>1923</ele>
        <time>2020-12-05T17:29:42.948Z</time>
      </trkpt>
      <trkpt lat="42.91208" lon="0.13841">
        <ele>1923</ele>
        <time>2020-12-05T17:29:43.947Z</time>
      </trkpt>
      <trkpt lat="42.91208" lon="0.13841">
        <ele>1923</ele>
        <time>2020-12-05T17:29:44.947Z</time>
      </trkpt>
      <trkpt lat="42.91202" lon="0.13843">
        <ele>1923.6</ele>
        <time>2020-12-05T17:29:45.95Z</time>
      </trkpt>
      <trkpt lat="42.91202" lon="0.13843">
        <ele>1923.6</ele>
        <time>2020-12-05T17:29:46.949Z</time>
      </trkpt>
      <trkpt lat="42.91202" lon="0.13843">
        <ele>1923.6</ele>
        <time>2020-12-05T17:29:47.947Z</time>
      </trkpt>
      <trkpt lat="42.91202" lon="0.13843">
        <ele>1923.6</ele>
        <time>2020-12-05T17:29:48.949Z</time>
      </trkpt>
      <trkpt lat="42.91202" lon="0.13843">
        <ele>1923.6</ele>
        <time>2020-12-05T17:29:49.949Z</time>
      </trkpt>
      <trkpt lat="42.91202" lon="0.13843">
        <ele>1923.6</ele>
        <time>2020-12-05T17:29:50.948Z</time>
      </trkpt>
      <trkpt lat="42.91202" lon="0.13843">
        <ele>1923.6</ele>
        <time>2020-12-05T17:29:51.948Z</time>
      </trkpt>
      <trkpt lat="42.91202" lon="0.13843">
        <ele>1923.6</ele>
        <time>2020-12-05T17:29:52.949Z</time>
      </trkpt>
      <trkpt lat="42.91202" lon="0.13843">
        <ele>1923.6</ele>
        <time>2020-12-05T17:29:53.948Z</time>
      </trkpt>
      <trkpt lat="42.9119" lon="0.13845">
        <ele>1924.8</ele>
        <time>2020-12-05T17:29:54.948Z</time>
      </trkpt>
      <trkpt lat="42.9119" lon="0.13845">
        <ele>1924.8</ele>
        <time>2020-12-05T17:29:55.948Z</time>
      </trkpt>
      <trkpt lat="42.91187" lon="0.13846">
        <ele>1925</ele>
        <time>2020-12-05T17:29:56.948Z</time>
      </trkpt>
      <trkpt lat="42.91187" lon="0.13846">
        <ele>1925</ele>
        <time>2020-12-05T17:29:57.949Z</time>
      </trkpt>
      <trkpt lat="42.91187" lon="0.13846">
        <ele>1925</ele>
        <time>2020-12-05T17:29:58.948Z</time>
      </trkpt>
      <trkpt lat="42.91187" lon="0.13846">
        <ele>1925</ele>
        <time>2020-12-05T17:29:59.948Z</time>
      </trkpt>
      <trkpt lat="42.91187" lon="0.13846">
        <ele>1925</ele>
        <time>2020-12-05T17:30:00.95Z</time>
      </trkpt>
      <trkpt lat="42.91187" lon="0.13846">
        <ele>1925</ele>
        <time>2020-12-05T17:30:01.948Z</time>
      </trkpt>
      <trkpt lat="42.91179" lon="0.13849">
        <ele>1925.8</ele>
        <time>2020-12-05T17:30:02.948Z</time>
      </trkpt>
      <trkpt lat="42.91179" lon="0.13849">
        <ele>1925.8</ele>
        <time>2020-12-05T17:30:03.948Z</time>
      </trkpt>
      <trkpt lat="42.91179" lon="0.13849">
        <ele>1925.8</ele>
        <time>2020-12-05T17:30:04.948Z</time>
      </trkpt>
      <trkpt lat="42.91179" lon="0.13849">
        <ele>1925.8</ele>
        <time>2020-12-05T17:30:05.947Z</time>
      </trkpt>
      <trkpt lat="42.91179" lon="0.13849">
        <ele>1925.8</ele>
        <time>2020-12-05T17:30:06.948Z</time>
      </trkpt>
      <trkpt lat="42.91179" lon="0.13849">
        <ele>1925.8</ele>
        <time>2020-12-05T17:30:07.947Z</time>
      </trkpt>
      <trkpt lat="42.9117" lon="0.13854">
        <ele>1927</ele>
        <time>2020-12-05T17:30:08.948Z</time>
      </trkpt>
      <trkpt lat="42.9117" lon="0.13854">
        <ele>1927</ele>
        <time>2020-12-05T17:30:09.948Z</time>
      </trkpt>
      <trkpt lat="42.9117" lon="0.13854">
        <ele>1927</ele>
        <time>2020-12-05T17:30:10.947Z</time>
      </trkpt>
      <trkpt lat="42.9117" lon="0.13854">
        <ele>1927</ele>
        <time>2020-12-05T17:30:11.949Z</time>
      </trkpt>
      <trkpt lat="42.9117" lon="0.13854">
        <ele>1927</ele>
        <time>2020-12-05T17:30:12.948Z</time>
      </trkpt>
      <trkpt lat="42.9117" lon="0.13854">
        <ele>1927</ele>
        <time>2020-12-05T17:30:13.95Z</time>
      </trkpt>
      <trkpt lat="42.91163" lon="0.13862">
        <ele>1928</ele>
        <time>2020-12-05T17:30:14.947Z</time>
      </trkpt>
      <trkpt lat="42.91163" lon="0.13862">
        <ele>1928</ele>
        <time>2020-12-05T17:30:15.948Z</time>
      </trkpt>
      <trkpt lat="42.91163" lon="0.13862">
        <ele>1928</ele>
        <time>2020-12-05T17:30:16.948Z</time>
      </trkpt>
      <trkpt lat="42.91163" lon="0.13862">
        <ele>1928</ele>
        <time>2020-12-05T17:30:17.947Z</time>
      </trkpt>
      <trkpt lat="42.91163" lon="0.13862">
        <ele>1928</ele>
        <time>2020-12-05T17:30:18.947Z</time>
      </trkpt>
      <trkpt lat="42.91163" lon="0.13862">
        <ele>1928</ele>
        <time>2020-12-05T17:30:19.947Z</time>
      </trkpt>
      <trkpt lat="42.91157" lon="0.13872">
        <ele>1929</ele>
        <time>2020-12-05T17:30:20.948Z</time>
      </trkpt>
      <trkpt lat="42.91157" lon="0.13872">
        <ele>1929</ele>
        <time>2020-12-05T17:30:21.948Z</time>
      </trkpt>
      <trkpt lat="42.91157" lon="0.13872">
        <ele>1929</ele>
        <time>2020-12-05T17:30:22.947Z</time>
      </trkpt>
      <trkpt lat="42.91157" lon="0.13872">
        <ele>1929</ele>
        <time>2020-12-05T17:30:23.949Z</time>
      </trkpt>
      <trkpt lat="42.91157" lon="0.13872">
        <ele>1929</ele>
        <time>2020-12-05T17:30:24.949Z</time>
      </trkpt>
      <trkpt lat="42.91157" lon="0.13872">
        <ele>1929</ele>
        <time>2020-12-05T17:30:25.947Z</time>
      </trkpt>
      <trkpt lat="42.91157" lon="0.13872">
        <ele>1929</ele>
        <time>2020-12-05T17:30:26.947Z</time>
      </trkpt>
      <trkpt lat="42.91157" lon="0.13872">
        <ele>1929</ele>
        <time>2020-12-05T17:30:27.948Z</time>
      </trkpt>
      <trkpt lat="42.91157" lon="0.13872">
        <ele>1929</ele>
        <time>2020-12-05T17:30:28.95Z</time>
      </trkpt>
      <trkpt lat="42.91157" lon="0.13872">
        <ele>1929</ele>
        <time>2020-12-05T17:30:29.947Z</time>
      </trkpt>
      <trkpt lat="42.91157" lon="0.13872">
        <ele>1929</ele>
        <time>2020-12-05T17:30:30.949Z</time>
      </trkpt>
      <trkpt lat="42.91147" lon="0.13889">
        <ele>1930.2</ele>
        <time>2020-12-05T17:30:31.948Z</time>
      </trkpt>
      <trkpt lat="42.91147" lon="0.13889">
        <ele>1930.2</ele>
        <time>2020-12-05T17:30:32.948Z</time>
      </trkpt>
      <trkpt lat="42.91147" lon="0.13889">
        <ele>1930.2</ele>
        <time>2020-12-05T17:30:33.948Z</time>
      </trkpt>
      <trkpt lat="42.91147" lon="0.13889">
        <ele>1930.2</ele>
        <time>2020-12-05T17:30:34.948Z</time>
      </trkpt>
      <trkpt lat="42.91144" lon="0.13896">
        <ele>1930.6</ele>
        <time>2020-12-05T17:30:35.948Z</time>
      </trkpt>
      <trkpt lat="42.91144" lon="0.13896">
        <ele>1930.6</ele>
        <time>2020-12-05T17:30:36.95Z</time>
      </trkpt>
      <trkpt lat="42.91144" lon="0.13896">
        <ele>1930.6</ele>
        <time>2020-12-05T17:30:37.948Z</time>
      </trkpt>
      <trkpt lat="42.91144" lon="0.13896">
        <ele>1930.6</ele>
        <time>2020-12-05T17:30:38.948Z</time>
      </trkpt>
      <trkpt lat="42.9114" lon="0.13903">
        <ele>1931.4</ele>
        <time>2020-12-05T17:30:39.949Z</time>
      </trkpt>
      <trkpt lat="42.9114" lon="0.13903">
        <ele>1931.4</ele>
        <time>2020-12-05T17:30:40.948Z</time>
      </trkpt>
      <trkpt lat="42.9114" lon="0.13903">
        <ele>1931.4</ele>
        <time>2020-12-05T17:30:41.948Z</time>
      </trkpt>
      <trkpt lat="42.9114" lon="0.13903">
        <ele>1931.4</ele>
        <time>2020-12-05T17:30:42.948Z</time>
      </trkpt>
      <trkpt lat="42.9114" lon="0.13903">
        <ele>1931.4</ele>
        <time>2020-12-05T17:30:43.947Z</time>
      </trkpt>
      <trkpt lat="42.9114" lon="0.13903">
        <ele>1931.4</ele>
        <time>2020-12-05T17:30:44.948Z</time>
      </trkpt>
      <trkpt lat="42.9114" lon="0.13903">
        <ele>1931.4</ele>
        <time>2020-12-05T17:30:45.95Z</time>
      </trkpt>
      <trkpt lat="42.9114" lon="0.13903">
        <ele>1931.4</ele>
        <time>2020-12-05T17:30:46.948Z</time>
      </trkpt>
      <trkpt lat="42.91134" lon="0.13918">
        <ele>1932.6</ele>
        <time>2020-12-05T17:30:47.948Z</time>
      </trkpt>
      <trkpt lat="42.91134" lon="0.13918">
        <ele>1932.6</ele>
        <time>2020-12-05T17:30:48.947Z</time>
      </trkpt>
      <trkpt lat="42.91134" lon="0.13918">
        <ele>1932.6</ele>
        <time>2020-12-05T17:30:49.947Z</time>
      </trkpt>
      <trkpt lat="42.91134" lon="0.13918">
        <ele>1932.6</ele>
        <time>2020-12-05T17:30:50.947Z</time>
      </trkpt>
      <trkpt lat="42.91134" lon="0.13918">
        <ele>1932.6</ele>
        <time>2020-12-05T17:30:51.947Z</time>
      </trkpt>
      <trkpt lat="42.91134" lon="0.13918">
        <ele>1932.6</ele>
        <time>2020-12-05T17:30:52.947Z</time>
      </trkpt>
      <trkpt lat="42.91134" lon="0.13918">
        <ele>1932.6</ele>
        <time>2020-12-05T17:30:53.947Z</time>
      </trkpt>
      <trkpt lat="42.91134" lon="0.13918">
        <ele>1932.6</ele>
        <time>2020-12-05T17:30:54.947Z</time>
      </trkpt>
      <trkpt lat="42.91134" lon="0.13918">
        <ele>1932.6</ele>
        <time>2020-12-05T17:30:55.948Z</time>
      </trkpt>
      <trkpt lat="42.91128" lon="0.13933">
        <ele>1933.8</ele>
        <time>2020-12-05T17:30:56.948Z</time>
      </trkpt>
      <trkpt lat="42.91128" lon="0.13933">
        <ele>1933.8</ele>
        <time>2020-12-05T17:30:57.947Z</time>
      </trkpt>
      <trkpt lat="42.91128" lon="0.13933">
        <ele>1933.8</ele>
        <time>2020-12-05T17:30:58.947Z</time>
      </trkpt>
      <trkpt lat="42.91128" lon="0.13933">
        <ele>1933.8</ele>
        <time>2020-12-05T17:30:59.947Z</time>
      </trkpt>
      <trkpt lat="42.91125" lon="0.13942">
        <ele>1935</ele>
        <time>2020-12-05T17:31:00.947Z</time>
      </trkpt>
      <trkpt lat="42.91125" lon="0.13942">
        <ele>1935</ele>
        <time>2020-12-05T17:31:01.948Z</time>
      </trkpt>
      <trkpt lat="42.91125" lon="0.13942">
        <ele>1935</ele>
        <time>2020-12-05T17:31:02.947Z</time>
      </trkpt>
      <trkpt lat="42.91125" lon="0.13942">
        <ele>1935</ele>
        <time>2020-12-05T17:31:03.947Z</time>
      </trkpt>
      <trkpt lat="42.91125" lon="0.13942">
        <ele>1935</ele>
        <time>2020-12-05T17:31:04.949Z</time>
      </trkpt>
      <trkpt lat="42.91125" lon="0.13942">
        <ele>1935</ele>
        <time>2020-12-05T17:31:05.947Z</time>
      </trkpt>
      <trkpt lat="42.9112" lon="0.1395">
        <ele>1935.8</ele>
        <time>2020-12-05T17:31:06.949Z</time>
      </trkpt>
      <trkpt lat="42.9112" lon="0.1395">
        <ele>1935.8</ele>
        <time>2020-12-05T17:31:07.948Z</time>
      </trkpt>
      <trkpt lat="42.9112" lon="0.1395">
        <ele>1935.8</ele>
        <time>2020-12-05T17:31:08.948Z</time>
      </trkpt>
      <trkpt lat="42.9112" lon="0.1395">
        <ele>1935.8</ele>
        <time>2020-12-05T17:31:09.949Z</time>
      </trkpt>
      <trkpt lat="42.9112" lon="0.1395">
        <ele>1935.8</ele>
        <time>2020-12-05T17:31:10.949Z</time>
      </trkpt>
      <trkpt lat="42.91112" lon="0.13956">
        <ele>1937.2</ele>
        <time>2020-12-05T17:31:11.948Z</time>
      </trkpt>
      <trkpt lat="42.91112" lon="0.13956">
        <ele>1937.2</ele>
        <time>2020-12-05T17:31:12.948Z</time>
      </trkpt>
      <trkpt lat="42.91112" lon="0.13956">
        <ele>1937.2</ele>
        <time>2020-12-05T17:31:13.947Z</time>
      </trkpt>
      <trkpt lat="42.91112" lon="0.13956">
        <ele>1937.2</ele>
        <time>2020-12-05T17:31:14.947Z</time>
      </trkpt>
      <trkpt lat="42.91112" lon="0.13956">
        <ele>1937.2</ele>
        <time>2020-12-05T17:31:15.95Z</time>
      </trkpt>
      <trkpt lat="42.91106" lon="0.13957">
        <ele>1938.4</ele>
        <time>2020-12-05T17:31:16.948Z</time>
      </trkpt>
      <trkpt lat="42.91106" lon="0.13957">
        <ele>1938.4</ele>
        <time>2020-12-05T17:31:17.949Z</time>
      </trkpt>
      <trkpt lat="42.91106" lon="0.13957">
        <ele>1938.4</ele>
        <time>2020-12-05T17:31:18.947Z</time>
      </trkpt>
      <trkpt lat="42.91106" lon="0.13957">
        <ele>1938.4</ele>
        <time>2020-12-05T17:31:19.947Z</time>
      </trkpt>
      <trkpt lat="42.91106" lon="0.13957">
        <ele>1938.4</ele>
        <time>2020-12-05T17:31:20.948Z</time>
      </trkpt>
      <trkpt lat="42.91106" lon="0.13957">
        <ele>1938.4</ele>
        <time>2020-12-05T17:31:21.947Z</time>
      </trkpt>
      <trkpt lat="42.91106" lon="0.13957">
        <ele>1938.4</ele>
        <time>2020-12-05T17:31:22.948Z</time>
      </trkpt>
      <trkpt lat="42.91092" lon="0.13956">
        <ele>1939.4</ele>
        <time>2020-12-05T17:31:23.948Z</time>
      </trkpt>
      <trkpt lat="42.91092" lon="0.13956">
        <ele>1939.4</ele>
        <time>2020-12-05T17:31:24.949Z</time>
      </trkpt>
      <trkpt lat="42.91092" lon="0.13956">
        <ele>1939.4</ele>
        <time>2020-12-05T17:31:25.95Z</time>
      </trkpt>
      <trkpt lat="42.91092" lon="0.13956">
        <ele>1939.4</ele>
        <time>2020-12-05T17:31:26.948Z</time>
      </trkpt>
      <trkpt lat="42.91092" lon="0.13956">
        <ele>1939.4</ele>
        <time>2020-12-05T17:31:27.948Z</time>
      </trkpt>
      <trkpt lat="42.91092" lon="0.13956">
        <ele>1939.4</ele>
        <time>2020-12-05T17:31:28.947Z</time>
      </trkpt>
      <trkpt lat="42.91092" lon="0.13956">
        <ele>1939.4</ele>
        <time>2020-12-05T17:31:29.949Z</time>
      </trkpt>
      <trkpt lat="42.91092" lon="0.13956">
        <ele>1939.4</ele>
        <time>2020-12-05T17:31:30.948Z</time>
      </trkpt>
      <trkpt lat="42.91092" lon="0.13956">
        <ele>1939.4</ele>
        <time>2020-12-05T17:31:31.949Z</time>
      </trkpt>
      <trkpt lat="42.91092" lon="0.13956">
        <ele>1939.4</ele>
        <time>2020-12-05T17:31:32.948Z</time>
      </trkpt>
      <trkpt lat="42.91078" lon="0.13953">
        <ele>1940.4</ele>
        <time>2020-12-05T17:31:33.947Z</time>
      </trkpt>
      <trkpt lat="42.91078" lon="0.13953">
        <ele>1940.4</ele>
        <time>2020-12-05T17:31:34.949Z</time>
      </trkpt>
      <trkpt lat="42.91078" lon="0.13953">
        <ele>1940.4</ele>
        <time>2020-12-05T17:31:35.947Z</time>
      </trkpt>
      <trkpt lat="42.91078" lon="0.13953">
        <ele>1940.4</ele>
        <time>2020-12-05T17:31:36.949Z</time>
      </trkpt>
      <trkpt lat="42.91078" lon="0.13953">
        <ele>1940.4</ele>
        <time>2020-12-05T17:31:37.948Z</time>
      </trkpt>
      <trkpt lat="42.91078" lon="0.13953">
        <ele>1940.4</ele>
        <time>2020-12-05T17:31:38.947Z</time>
      </trkpt>
      <trkpt lat="42.91078" lon="0.13953">
        <ele>1940.4</ele>
        <time>2020-12-05T17:31:39.948Z</time>
      </trkpt>
      <trkpt lat="42.91078" lon="0.13953">
        <ele>1940.4</ele>
        <time>2020-12-05T17:31:40.948Z</time>
      </trkpt>
      <trkpt lat="42.91078" lon="0.13953">
        <ele>1940.4</ele>
        <time>2020-12-05T17:31:41.947Z</time>
      </trkpt>
      <trkpt lat="42.91065" lon="0.13948">
        <ele>1940.8</ele>
        <time>2020-12-05T17:31:42.948Z</time>
      </trkpt>
      <trkpt lat="42.91065" lon="0.13948">
        <ele>1940.8</ele>
        <time>2020-12-05T17:31:43.949Z</time>
      </trkpt>
      <trkpt lat="42.91065" lon="0.13948">
        <ele>1940.8</ele>
        <time>2020-12-05T17:31:44.947Z</time>
      </trkpt>
      <trkpt lat="42.91059" lon="0.13946">
        <ele>1941.4</ele>
        <time>2020-12-05T17:31:45.949Z</time>
      </trkpt>
      <trkpt lat="42.91059" lon="0.13946">
        <ele>1941.4</ele>
        <time>2020-12-05T17:31:46.948Z</time>
      </trkpt>
      <trkpt lat="42.91059" lon="0.13946">
        <ele>1941.4</ele>
        <time>2020-12-05T17:31:47.949Z</time>
      </trkpt>
      <trkpt lat="42.91059" lon="0.13946">
        <ele>1941.4</ele>
        <time>2020-12-05T17:31:48.948Z</time>
      </trkpt>
      <trkpt lat="42.91059" lon="0.13946">
        <ele>1941.4</ele>
        <time>2020-12-05T17:31:49.948Z</time>
      </trkpt>
      <trkpt lat="42.91059" lon="0.13946">
        <ele>1941.4</ele>
        <time>2020-12-05T17:31:50.947Z</time>
      </trkpt>
      <trkpt lat="42.91059" lon="0.13946">
        <ele>1941.4</ele>
        <time>2020-12-05T17:31:51.949Z</time>
      </trkpt>
      <trkpt lat="42.91059" lon="0.13946">
        <ele>1941.4</ele>
        <time>2020-12-05T17:31:52.948Z</time>
      </trkpt>
      <trkpt lat="42.91059" lon="0.13946">
        <ele>1941.4</ele>
        <time>2020-12-05T17:31:53.95Z</time>
      </trkpt>
      <trkpt lat="42.91048" lon="0.13941">
        <ele>1943</ele>
        <time>2020-12-05T17:31:54.947Z</time>
      </trkpt>
      <trkpt lat="42.91048" lon="0.13941">
        <ele>1943</ele>
        <time>2020-12-05T17:31:55.947Z</time>
      </trkpt>
      <trkpt lat="42.91048" lon="0.13941">
        <ele>1943</ele>
        <time>2020-12-05T17:31:56.949Z</time>
      </trkpt>
      <trkpt lat="42.91042" lon="0.1394">
        <ele>1943.6</ele>
        <time>2020-12-05T17:31:57.948Z</time>
      </trkpt>
      <trkpt lat="42.91042" lon="0.1394">
        <ele>1943.6</ele>
        <time>2020-12-05T17:31:58.949Z</time>
      </trkpt>
      <trkpt lat="42.91039" lon="0.1394">
        <ele>1943.8</ele>
        <time>2020-12-05T17:31:59.947Z</time>
      </trkpt>
      <trkpt lat="42.91039" lon="0.1394">
        <ele>1943.8</ele>
        <time>2020-12-05T17:32:00.948Z</time>
      </trkpt>
      <trkpt lat="42.91039" lon="0.1394">
        <ele>1943.8</ele>
        <time>2020-12-05T17:32:01.948Z</time>
      </trkpt>
      <trkpt lat="42.91039" lon="0.1394">
        <ele>1943.8</ele>
        <time>2020-12-05T17:32:02.949Z</time>
      </trkpt>
      <trkpt lat="42.91039" lon="0.1394">
        <ele>1943.8</ele>
        <time>2020-12-05T17:32:03.948Z</time>
      </trkpt>
      <trkpt lat="42.91039" lon="0.1394">
        <ele>1943.8</ele>
        <time>2020-12-05T17:32:04.948Z</time>
      </trkpt>
      <trkpt lat="42.9103" lon="0.13939">
        <ele>1945</ele>
        <time>2020-12-05T17:32:05.947Z</time>
      </trkpt>
      <trkpt lat="42.9103" lon="0.13939">
        <ele>1945</ele>
        <time>2020-12-05T17:32:06.95Z</time>
      </trkpt>
      <trkpt lat="42.9103" lon="0.13939">
        <ele>1945</ele>
        <time>2020-12-05T17:32:07.949Z</time>
      </trkpt>
      <trkpt lat="42.9103" lon="0.13939">
        <ele>1945</ele>
        <time>2020-12-05T17:32:08.949Z</time>
      </trkpt>
      <trkpt lat="42.9103" lon="0.13939">
        <ele>1945</ele>
        <time>2020-12-05T17:32:09.947Z</time>
      </trkpt>
      <trkpt lat="42.9103" lon="0.13939">
        <ele>1945</ele>
        <time>2020-12-05T17:32:10.95Z</time>
      </trkpt>
      <trkpt lat="42.91021" lon="0.13939">
        <ele>1945.8</ele>
        <time>2020-12-05T17:32:11.947Z</time>
      </trkpt>
      <trkpt lat="42.91021" lon="0.13939">
        <ele>1945.8</ele>
        <time>2020-12-05T17:32:12.948Z</time>
      </trkpt>
      <trkpt lat="42.91021" lon="0.13939">
        <ele>1945.8</ele>
        <time>2020-12-05T17:32:13.949Z</time>
      </trkpt>
      <trkpt lat="42.91021" lon="0.13939">
        <ele>1945.8</ele>
        <time>2020-12-05T17:32:14.947Z</time>
      </trkpt>
      <trkpt lat="42.91021" lon="0.13939">
        <ele>1945.8</ele>
        <time>2020-12-05T17:32:15.948Z</time>
      </trkpt>
      <trkpt lat="42.91021" lon="0.13939">
        <ele>1945.8</ele>
        <time>2020-12-05T17:32:16.948Z</time>
      </trkpt>
      <trkpt lat="42.91021" lon="0.13939">
        <ele>1945.8</ele>
        <time>2020-12-05T17:32:17.948Z</time>
      </trkpt>
      <trkpt lat="42.91021" lon="0.13939">
        <ele>1945.8</ele>
        <time>2020-12-05T17:32:18.95Z</time>
      </trkpt>
      <trkpt lat="42.9101" lon="0.13937">
        <ele>1947</ele>
        <time>2020-12-05T17:32:19.949Z</time>
      </trkpt>
      <trkpt lat="42.9101" lon="0.13937">
        <ele>1947</ele>
        <time>2020-12-05T17:32:20.949Z</time>
      </trkpt>
      <trkpt lat="42.9101" lon="0.13937">
        <ele>1947</ele>
        <time>2020-12-05T17:32:21.948Z</time>
      </trkpt>
      <trkpt lat="42.9101" lon="0.13937">
        <ele>1947</ele>
        <time>2020-12-05T17:32:22.949Z</time>
      </trkpt>
      <trkpt lat="42.9101" lon="0.13937">
        <ele>1947</ele>
        <time>2020-12-05T17:32:23.948Z</time>
      </trkpt>
      <trkpt lat="42.9101" lon="0.13937">
        <ele>1947</ele>
        <time>2020-12-05T17:32:24.947Z</time>
      </trkpt>
      <trkpt lat="42.91001" lon="0.13938">
        <ele>1948</ele>
        <time>2020-12-05T17:32:25.947Z</time>
      </trkpt>
      <trkpt lat="42.91001" lon="0.13938">
        <ele>1948</ele>
        <time>2020-12-05T17:32:26.947Z</time>
      </trkpt>
      <trkpt lat="42.90998" lon="0.13938">
        <ele>1948.4</ele>
        <time>2020-12-05T17:32:27.948Z</time>
      </trkpt>
      <trkpt lat="42.90998" lon="0.13938">
        <ele>1948.4</ele>
        <time>2020-12-05T17:32:28.949Z</time>
      </trkpt>
      <trkpt lat="42.90998" lon="0.13938">
        <ele>1948.4</ele>
        <time>2020-12-05T17:32:29.948Z</time>
      </trkpt>
      <trkpt lat="42.90998" lon="0.13938">
        <ele>1948.4</ele>
        <time>2020-12-05T17:32:30.949Z</time>
      </trkpt>
      <trkpt lat="42.90998" lon="0.13938">
        <ele>1948.4</ele>
        <time>2020-12-05T17:32:31.948Z</time>
      </trkpt>
      <trkpt lat="42.90998" lon="0.13938">
        <ele>1948.4</ele>
        <time>2020-12-05T17:32:32.949Z</time>
      </trkpt>
      <trkpt lat="42.90998" lon="0.13938">
        <ele>1948.4</ele>
        <time>2020-12-05T17:32:33.948Z</time>
      </trkpt>
      <trkpt lat="42.90998" lon="0.13938">
        <ele>1948.4</ele>
        <time>2020-12-05T17:32:34.947Z</time>
      </trkpt>
      <trkpt lat="42.90986" lon="0.13939">
        <ele>1949.2</ele>
        <time>2020-12-05T17:32:35.948Z</time>
      </trkpt>
      <trkpt lat="42.90986" lon="0.13939">
        <ele>1949.2</ele>
        <time>2020-12-05T17:32:36.95Z</time>
      </trkpt>
      <trkpt lat="42.90986" lon="0.13939">
        <ele>1949.2</ele>
        <time>2020-12-05T17:32:37.948Z</time>
      </trkpt>
      <trkpt lat="42.90983" lon="0.1394">
        <ele>1949.6</ele>
        <time>2020-12-05T17:32:38.948Z</time>
      </trkpt>
      <trkpt lat="42.90983" lon="0.1394">
        <ele>1949.6</ele>
        <time>2020-12-05T17:32:39.948Z</time>
      </trkpt>
      <trkpt lat="42.90983" lon="0.1394">
        <ele>1949.6</ele>
        <time>2020-12-05T17:32:40.948Z</time>
      </trkpt>
      <trkpt lat="42.90983" lon="0.1394">
        <ele>1949.6</ele>
        <time>2020-12-05T17:32:41.948Z</time>
      </trkpt>
      <trkpt lat="42.90977" lon="0.13939">
        <ele>1950.4</ele>
        <time>2020-12-05T17:32:42.948Z</time>
      </trkpt>
      <trkpt lat="42.90977" lon="0.13939">
        <ele>1950.4</ele>
        <time>2020-12-05T17:32:43.947Z</time>
      </trkpt>
      <trkpt lat="42.90977" lon="0.13939">
        <ele>1950.4</ele>
        <time>2020-12-05T17:32:44.948Z</time>
      </trkpt>
      <trkpt lat="42.90977" lon="0.13939">
        <ele>1950.4</ele>
        <time>2020-12-05T17:32:45.948Z</time>
      </trkpt>
      <trkpt lat="42.90977" lon="0.13939">
        <ele>1950.4</ele>
        <time>2020-12-05T17:32:46.948Z</time>
      </trkpt>
      <trkpt lat="42.90977" lon="0.13939">
        <ele>1950.4</ele>
        <time>2020-12-05T17:32:47.948Z</time>
      </trkpt>
      <trkpt lat="42.90968" lon="0.13937">
        <ele>1951.2</ele>
        <time>2020-12-05T17:32:48.947Z</time>
      </trkpt>
      <trkpt lat="42.90968" lon="0.13937">
        <ele>1951.2</ele>
        <time>2020-12-05T17:32:49.949Z</time>
      </trkpt>
      <trkpt lat="42.90965" lon="0.13936">
        <ele>1951.4</ele>
        <time>2020-12-05T17:32:50.95Z</time>
      </trkpt>
      <trkpt lat="42.90965" lon="0.13936">
        <ele>1951.4</ele>
        <time>2020-12-05T17:32:51.947Z</time>
      </trkpt>
      <trkpt lat="42.90965" lon="0.13936">
        <ele>1951.4</ele>
        <time>2020-12-05T17:32:52.947Z</time>
      </trkpt>
      <trkpt lat="42.90965" lon="0.13936">
        <ele>1951.4</ele>
        <time>2020-12-05T17:32:53.949Z</time>
      </trkpt>
      <trkpt lat="42.90965" lon="0.13936">
        <ele>1951.4</ele>
        <time>2020-12-05T17:32:54.947Z</time>
      </trkpt>
      <trkpt lat="42.90956" lon="0.13934">
        <ele>1952.4</ele>
        <time>2020-12-05T17:32:55.948Z</time>
      </trkpt>
      <trkpt lat="42.90956" lon="0.13934">
        <ele>1952.4</ele>
        <time>2020-12-05T17:32:56.947Z</time>
      </trkpt>
      <trkpt lat="42.90956" lon="0.13934">
        <ele>1952.4</ele>
        <time>2020-12-05T17:32:57.949Z</time>
      </trkpt>
      <trkpt lat="42.90956" lon="0.13934">
        <ele>1952.4</ele>
        <time>2020-12-05T17:32:58.948Z</time>
      </trkpt>
      <trkpt lat="42.90956" lon="0.13934">
        <ele>1952.4</ele>
        <time>2020-12-05T17:32:59.947Z</time>
      </trkpt>
      <trkpt lat="42.90956" lon="0.13934">
        <ele>1952.4</ele>
        <time>2020-12-05T17:33:00.949Z</time>
      </trkpt>
      <trkpt lat="42.90956" lon="0.13934">
        <ele>1952.4</ele>
        <time>2020-12-05T17:33:01.948Z</time>
      </trkpt>
      <trkpt lat="42.90956" lon="0.13934">
        <ele>1952.4</ele>
        <time>2020-12-05T17:33:02.949Z</time>
      </trkpt>
      <trkpt lat="42.90944" lon="0.13931">
        <ele>1953.6</ele>
        <time>2020-12-05T17:33:03.947Z</time>
      </trkpt>
      <trkpt lat="42.90944" lon="0.13931">
        <ele>1953.6</ele>
        <time>2020-12-05T17:33:04.948Z</time>
      </trkpt>
      <trkpt lat="42.90944" lon="0.13931">
        <ele>1953.6</ele>
        <time>2020-12-05T17:33:05.949Z</time>
      </trkpt>
      <trkpt lat="42.90944" lon="0.13931">
        <ele>1953.6</ele>
        <time>2020-12-05T17:33:06.949Z</time>
      </trkpt>
      <trkpt lat="42.90944" lon="0.13931">
        <ele>1953.6</ele>
        <time>2020-12-05T17:33:07.948Z</time>
      </trkpt>
      <trkpt lat="42.90944" lon="0.13931">
        <ele>1953.6</ele>
        <time>2020-12-05T17:33:08.948Z</time>
      </trkpt>
      <trkpt lat="42.90944" lon="0.13931">
        <ele>1953.6</ele>
        <time>2020-12-05T17:33:09.948Z</time>
      </trkpt>
      <trkpt lat="42.90944" lon="0.13931">
        <ele>1953.6</ele>
        <time>2020-12-05T17:33:10.947Z</time>
      </trkpt>
      <trkpt lat="42.90933" lon="0.13932">
        <ele>1954.4</ele>
        <time>2020-12-05T17:33:11.947Z</time>
      </trkpt>
      <trkpt lat="42.90933" lon="0.13932">
        <ele>1954.4</ele>
        <time>2020-12-05T17:33:12.947Z</time>
      </trkpt>
      <trkpt lat="42.90933" lon="0.13932">
        <ele>1954.4</ele>
        <time>2020-12-05T17:33:13.948Z</time>
      </trkpt>
      <trkpt lat="42.90927" lon="0.13934">
        <ele>1955.4</ele>
        <time>2020-12-05T17:33:14.947Z</time>
      </trkpt>
      <trkpt lat="42.90927" lon="0.13934">
        <ele>1955.4</ele>
        <time>2020-12-05T17:33:15.949Z</time>
      </trkpt>
      <trkpt lat="42.90927" lon="0.13934">
        <ele>1955.4</ele>
        <time>2020-12-05T17:33:16.948Z</time>
      </trkpt>
      <trkpt lat="42.90924" lon="0.13935">
        <ele>1955.8</ele>
        <time>2020-12-05T17:33:17.949Z</time>
      </trkpt>
      <trkpt lat="42.90924" lon="0.13935">
        <ele>1955.8</ele>
        <time>2020-12-05T17:33:18.949Z</time>
      </trkpt>
      <trkpt lat="42.90924" lon="0.13935">
        <ele>1955.8</ele>
        <time>2020-12-05T17:33:19.948Z</time>
      </trkpt>
      <trkpt lat="42.90924" lon="0.13935">
        <ele>1955.8</ele>
        <time>2020-12-05T17:33:20.948Z</time>
      </trkpt>
      <trkpt lat="42.90924" lon="0.13935">
        <ele>1955.8</ele>
        <time>2020-12-05T17:33:21.947Z</time>
      </trkpt>
      <trkpt lat="42.90916" lon="0.13936">
        <ele>1956.6</ele>
        <time>2020-12-05T17:33:22.948Z</time>
      </trkpt>
      <trkpt lat="42.90916" lon="0.13936">
        <ele>1956.6</ele>
        <time>2020-12-05T17:33:23.947Z</time>
      </trkpt>
      <trkpt lat="42.90916" lon="0.13936">
        <ele>1956.6</ele>
        <time>2020-12-05T17:33:24.947Z</time>
      </trkpt>
      <trkpt lat="42.90916" lon="0.13936">
        <ele>1956.6</ele>
        <time>2020-12-05T17:33:25.948Z</time>
      </trkpt>
      <trkpt lat="42.90916" lon="0.13936">
        <ele>1956.6</ele>
        <time>2020-12-05T17:33:26.947Z</time>
      </trkpt>
      <trkpt lat="42.90916" lon="0.13936">
        <ele>1956.6</ele>
        <time>2020-12-05T17:33:27.947Z</time>
      </trkpt>
      <trkpt lat="42.90916" lon="0.13936">
        <ele>1956.6</ele>
        <time>2020-12-05T17:33:28.949Z</time>
      </trkpt>
      <trkpt lat="42.90916" lon="0.13936">
        <ele>1956.6</ele>
        <time>2020-12-05T17:33:29.949Z</time>
      </trkpt>
      <trkpt lat="42.90908" lon="0.13939">
        <ele>1957.4</ele>
        <time>2020-12-05T17:33:30.947Z</time>
      </trkpt>
      <trkpt lat="42.90908" lon="0.13939">
        <ele>1957.4</ele>
        <time>2020-12-05T17:33:31.949Z</time>
      </trkpt>
      <trkpt lat="42.90908" lon="0.13939">
        <ele>1957.4</ele>
        <time>2020-12-05T17:33:32.947Z</time>
      </trkpt>
      <trkpt lat="42.90908" lon="0.13939">
        <ele>1957.4</ele>
        <time>2020-12-05T17:33:33.947Z</time>
      </trkpt>
      <trkpt lat="42.90903" lon="0.13942">
        <ele>1958</ele>
        <time>2020-12-05T17:33:34.948Z</time>
      </trkpt>
      <trkpt lat="42.90903" lon="0.13942">
        <ele>1958</ele>
        <time>2020-12-05T17:33:35.947Z</time>
      </trkpt>
      <trkpt lat="42.90903" lon="0.13942">
        <ele>1958</ele>
        <time>2020-12-05T17:33:36.948Z</time>
      </trkpt>
      <trkpt lat="42.90903" lon="0.13942">
        <ele>1958</ele>
        <time>2020-12-05T17:33:37.948Z</time>
      </trkpt>
      <trkpt lat="42.90897" lon="0.13947">
        <ele>1958.8</ele>
        <time>2020-12-05T17:33:38.947Z</time>
      </trkpt>
      <trkpt lat="42.90897" lon="0.13947">
        <ele>1958.8</ele>
        <time>2020-12-05T17:33:39.949Z</time>
      </trkpt>
      <trkpt lat="42.90897" lon="0.13947">
        <ele>1958.8</ele>
        <time>2020-12-05T17:33:40.949Z</time>
      </trkpt>
      <trkpt lat="42.90897" lon="0.13947">
        <ele>1958.8</ele>
        <time>2020-12-05T17:33:41.948Z</time>
      </trkpt>
      <trkpt lat="42.90897" lon="0.13947">
        <ele>1958.8</ele>
        <time>2020-12-05T17:33:42.949Z</time>
      </trkpt>
      <trkpt lat="42.90897" lon="0.13947">
        <ele>1958.8</ele>
        <time>2020-12-05T17:33:43.948Z</time>
      </trkpt>
      <trkpt lat="42.90897" lon="0.13947">
        <ele>1958.8</ele>
        <time>2020-12-05T17:33:44.949Z</time>
      </trkpt>
      <trkpt lat="42.90888" lon="0.13954">
        <ele>1959.8</ele>
        <time>2020-12-05T17:33:45.95Z</time>
      </trkpt>
      <trkpt lat="42.90888" lon="0.13954">
        <ele>1959.8</ele>
        <time>2020-12-05T17:33:46.948Z</time>
      </trkpt>
      <trkpt lat="42.90886" lon="0.13956">
        <ele>1960.2</ele>
        <time>2020-12-05T17:33:47.948Z</time>
      </trkpt>
      <trkpt lat="42.90886" lon="0.13956">
        <ele>1960.2</ele>
        <time>2020-12-05T17:33:48.948Z</time>
      </trkpt>
      <trkpt lat="42.90886" lon="0.13956">
        <ele>1960.2</ele>
        <time>2020-12-05T17:33:49.948Z</time>
      </trkpt>
      <trkpt lat="42.90886" lon="0.13956">
        <ele>1960.2</ele>
        <time>2020-12-05T17:33:50.949Z</time>
      </trkpt>
      <trkpt lat="42.90886" lon="0.13956">
        <ele>1960.2</ele>
        <time>2020-12-05T17:33:51.949Z</time>
      </trkpt>
      <trkpt lat="42.90886" lon="0.13956">
        <ele>1960.2</ele>
        <time>2020-12-05T17:33:52.948Z</time>
      </trkpt>
      <trkpt lat="42.90879" lon="0.13963">
        <ele>1960.8</ele>
        <time>2020-12-05T17:33:53.95Z</time>
      </trkpt>
      <trkpt lat="42.90879" lon="0.13963">
        <ele>1960.8</ele>
        <time>2020-12-05T17:33:54.948Z</time>
      </trkpt>
      <trkpt lat="42.90879" lon="0.13963">
        <ele>1960.8</ele>
        <time>2020-12-05T17:33:55.948Z</time>
      </trkpt>
      <trkpt lat="42.90879" lon="0.13963">
        <ele>1960.8</ele>
        <time>2020-12-05T17:33:56.948Z</time>
      </trkpt>
      <trkpt lat="42.90879" lon="0.13963">
        <ele>1960.8</ele>
        <time>2020-12-05T17:33:57.948Z</time>
      </trkpt>
      <trkpt lat="42.90879" lon="0.13963">
        <ele>1960.8</ele>
        <time>2020-12-05T17:33:58.948Z</time>
      </trkpt>
      <trkpt lat="42.90879" lon="0.13963">
        <ele>1960.8</ele>
        <time>2020-12-05T17:33:59.947Z</time>
      </trkpt>
      <trkpt lat="42.90879" lon="0.13963">
        <ele>1960.8</ele>
        <time>2020-12-05T17:34:00.947Z</time>
      </trkpt>
      <trkpt lat="42.90879" lon="0.13963">
        <ele>1960.8</ele>
        <time>2020-12-05T17:34:01.95Z</time>
      </trkpt>
      <trkpt lat="42.90872" lon="0.13973">
        <ele>1961.4</ele>
        <time>2020-12-05T17:34:02.948Z</time>
      </trkpt>
      <trkpt lat="42.90872" lon="0.13973">
        <ele>1961.4</ele>
        <time>2020-12-05T17:34:03.948Z</time>
      </trkpt>
      <trkpt lat="42.90872" lon="0.13973">
        <ele>1961.4</ele>
        <time>2020-12-05T17:34:04.947Z</time>
      </trkpt>
      <trkpt lat="42.90872" lon="0.13973">
        <ele>1961.4</ele>
        <time>2020-12-05T17:34:05.949Z</time>
      </trkpt>
      <trkpt lat="42.90872" lon="0.13973">
        <ele>1961.4</ele>
        <time>2020-12-05T17:34:06.949Z</time>
      </trkpt>
      <trkpt lat="42.90868" lon="0.1398">
        <ele>1962</ele>
        <time>2020-12-05T17:34:07.947Z</time>
      </trkpt>
      <trkpt lat="42.90868" lon="0.1398">
        <ele>1962</ele>
        <time>2020-12-05T17:34:08.948Z</time>
      </trkpt>
      <trkpt lat="42.90868" lon="0.1398">
        <ele>1962</ele>
        <time>2020-12-05T17:34:09.949Z</time>
      </trkpt>
      <trkpt lat="42.90868" lon="0.1398">
        <ele>1962</ele>
        <time>2020-12-05T17:34:10.948Z</time>
      </trkpt>
      <trkpt lat="42.90868" lon="0.1398">
        <ele>1962</ele>
        <time>2020-12-05T17:34:11.947Z</time>
      </trkpt>
      <trkpt lat="42.90868" lon="0.1398">
        <ele>1962</ele>
        <time>2020-12-05T17:34:12.949Z</time>
      </trkpt>
      <trkpt lat="42.90868" lon="0.1398">
        <ele>1962</ele>
        <time>2020-12-05T17:34:13.949Z</time>
      </trkpt>
      <trkpt lat="42.90868" lon="0.1398">
        <ele>1962</ele>
        <time>2020-12-05T17:34:14.948Z</time>
      </trkpt>
      <trkpt lat="42.90868" lon="0.1398">
        <ele>1962</ele>
        <time>2020-12-05T17:34:15.949Z</time>
      </trkpt>
      <trkpt lat="42.90858" lon="0.13993">
        <ele>1963</ele>
        <time>2020-12-05T17:34:16.949Z</time>
      </trkpt>
      <trkpt lat="42.90858" lon="0.13993">
        <ele>1963</ele>
        <time>2020-12-05T17:34:17.947Z</time>
      </trkpt>
      <trkpt lat="42.90858" lon="0.13993">
        <ele>1963</ele>
        <time>2020-12-05T17:34:18.95Z</time>
      </trkpt>
      <trkpt lat="42.90858" lon="0.13993">
        <ele>1963</ele>
        <time>2020-12-05T17:34:19.948Z</time>
      </trkpt>
      <trkpt lat="42.90858" lon="0.13993">
        <ele>1963</ele>
        <time>2020-12-05T17:34:20.947Z</time>
      </trkpt>
      <trkpt lat="42.90854" lon="0.14">
        <ele>1964</ele>
        <time>2020-12-05T17:34:21.947Z</time>
      </trkpt>
      <trkpt lat="42.90854" lon="0.14">
        <ele>1964</ele>
        <time>2020-12-05T17:34:22.948Z</time>
      </trkpt>
      <trkpt lat="42.90854" lon="0.14">
        <ele>1964</ele>
        <time>2020-12-05T17:34:23.948Z</time>
      </trkpt>
      <trkpt lat="42.90854" lon="0.14">
        <ele>1964</ele>
        <time>2020-12-05T17:34:24.947Z</time>
      </trkpt>
      <trkpt lat="42.90854" lon="0.14">
        <ele>1964</ele>
        <time>2020-12-05T17:34:25.948Z</time>
      </trkpt>
      <trkpt lat="42.90854" lon="0.14">
        <ele>1964</ele>
        <time>2020-12-05T17:34:26.948Z</time>
      </trkpt>
      <trkpt lat="42.90854" lon="0.14">
        <ele>1964</ele>
        <time>2020-12-05T17:34:27.949Z</time>
      </trkpt>
      <trkpt lat="42.90854" lon="0.14">
        <ele>1964</ele>
        <time>2020-12-05T17:34:28.949Z</time>
      </trkpt>
      <trkpt lat="42.90854" lon="0.14">
        <ele>1964</ele>
        <time>2020-12-05T17:34:29.948Z</time>
      </trkpt>
      <trkpt lat="42.90845" lon="0.14012">
        <ele>1965</ele>
        <time>2020-12-05T17:34:30.95Z</time>
      </trkpt>
      <trkpt lat="42.90845" lon="0.14012">
        <ele>1965</ele>
        <time>2020-12-05T17:34:31.948Z</time>
      </trkpt>
      <trkpt lat="42.90842" lon="0.14014">
        <ele>1965.4</ele>
        <time>2020-12-05T17:34:32.948Z</time>
      </trkpt>
      <trkpt lat="42.90842" lon="0.14014">
        <ele>1965.4</ele>
        <time>2020-12-05T17:34:33.948Z</time>
      </trkpt>
      <trkpt lat="42.90842" lon="0.14014">
        <ele>1965.4</ele>
        <time>2020-12-05T17:34:34.947Z</time>
      </trkpt>
      <trkpt lat="42.90842" lon="0.14014">
        <ele>1965.4</ele>
        <time>2020-12-05T17:34:35.948Z</time>
      </trkpt>
      <trkpt lat="42.90842" lon="0.14014">
        <ele>1965.4</ele>
        <time>2020-12-05T17:34:36.949Z</time>
      </trkpt>
      <trkpt lat="42.90842" lon="0.14014">
        <ele>1965.4</ele>
        <time>2020-12-05T17:34:37.949Z</time>
      </trkpt>
      <trkpt lat="42.90833" lon="0.14019">
        <ele>1966.4</ele>
        <time>2020-12-05T17:34:38.949Z</time>
      </trkpt>
      <trkpt lat="42.90833" lon="0.14019">
        <ele>1966.4</ele>
        <time>2020-12-05T17:34:39.948Z</time>
      </trkpt>
      <trkpt lat="42.90833" lon="0.14019">
        <ele>1966.4</ele>
        <time>2020-12-05T17:34:40.948Z</time>
      </trkpt>
      <trkpt lat="42.90833" lon="0.14019">
        <ele>1966.4</ele>
        <time>2020-12-05T17:34:41.948Z</time>
      </trkpt>
      <trkpt lat="42.90833" lon="0.14019">
        <ele>1966.4</ele>
        <time>2020-12-05T17:34:42.948Z</time>
      </trkpt>
      <trkpt lat="42.90833" lon="0.14019">
        <ele>1966.4</ele>
        <time>2020-12-05T17:34:43.948Z</time>
      </trkpt>
      <trkpt lat="42.90833" lon="0.14019">
        <ele>1966.4</ele>
        <time>2020-12-05T17:34:44.948Z</time>
      </trkpt>
      <trkpt lat="42.90833" lon="0.14019">
        <ele>1966.4</ele>
        <time>2020-12-05T17:34:45.948Z</time>
      </trkpt>
      <trkpt lat="42.90823" lon="0.14025">
        <ele>1967.6</ele>
        <time>2020-12-05T17:34:46.947Z</time>
      </trkpt>
      <trkpt lat="42.90823" lon="0.14025">
        <ele>1967.6</ele>
        <time>2020-12-05T17:34:47.947Z</time>
      </trkpt>
      <trkpt lat="42.90823" lon="0.14025">
        <ele>1967.6</ele>
        <time>2020-12-05T17:34:48.947Z</time>
      </trkpt>
      <trkpt lat="42.90823" lon="0.14025">
        <ele>1967.6</ele>
        <time>2020-12-05T17:34:49.948Z</time>
      </trkpt>
      <trkpt lat="42.90823" lon="0.14025">
        <ele>1967.6</ele>
        <time>2020-12-05T17:34:50.947Z</time>
      </trkpt>
      <trkpt lat="42.90823" lon="0.14025">
        <ele>1967.6</ele>
        <time>2020-12-05T17:34:51.947Z</time>
      </trkpt>
      <trkpt lat="42.90823" lon="0.14025">
        <ele>1967.6</ele>
        <time>2020-12-05T17:34:52.947Z</time>
      </trkpt>
      <trkpt lat="42.90823" lon="0.14025">
        <ele>1967.6</ele>
        <time>2020-12-05T17:34:53.948Z</time>
      </trkpt>
      <trkpt lat="42.90813" lon="0.14037">
        <ele>1968.8</ele>
        <time>2020-12-05T17:34:54.948Z</time>
      </trkpt>
      <trkpt lat="42.90813" lon="0.14037">
        <ele>1968.8</ele>
        <time>2020-12-05T17:34:55.947Z</time>
      </trkpt>
      <trkpt lat="42.90813" lon="0.14037">
        <ele>1968.8</ele>
        <time>2020-12-05T17:34:56.949Z</time>
      </trkpt>
      <trkpt lat="42.90813" lon="0.14037">
        <ele>1968.8</ele>
        <time>2020-12-05T17:34:57.947Z</time>
      </trkpt>
      <trkpt lat="42.90808" lon="0.14042">
        <ele>1969.4</ele>
        <time>2020-12-05T17:34:58.947Z</time>
      </trkpt>
      <trkpt lat="42.90808" lon="0.14042">
        <ele>1969.4</ele>
        <time>2020-12-05T17:34:59.948Z</time>
      </trkpt>
      <trkpt lat="42.90808" lon="0.14042">
        <ele>1969.4</ele>
        <time>2020-12-05T17:35:00.947Z</time>
      </trkpt>
      <trkpt lat="42.90808" lon="0.14042">
        <ele>1969.4</ele>
        <time>2020-12-05T17:35:01.947Z</time>
      </trkpt>
      <trkpt lat="42.90804" lon="0.14047">
        <ele>1970</ele>
        <time>2020-12-05T17:35:02.948Z</time>
      </trkpt>
      <trkpt lat="42.90804" lon="0.14047">
        <ele>1970</ele>
        <time>2020-12-05T17:35:03.947Z</time>
      </trkpt>
      <trkpt lat="42.90804" lon="0.14047">
        <ele>1970</ele>
        <time>2020-12-05T17:35:04.947Z</time>
      </trkpt>
      <trkpt lat="42.90804" lon="0.14047">
        <ele>1970</ele>
        <time>2020-12-05T17:35:05.948Z</time>
      </trkpt>
      <trkpt lat="42.90804" lon="0.14047">
        <ele>1970</ele>
        <time>2020-12-05T17:35:06.948Z</time>
      </trkpt>
      <trkpt lat="42.90804" lon="0.14047">
        <ele>1970</ele>
        <time>2020-12-05T17:35:07.948Z</time>
      </trkpt>
      <trkpt lat="42.90804" lon="0.14047">
        <ele>1970</ele>
        <time>2020-12-05T17:35:08.948Z</time>
      </trkpt>
      <trkpt lat="42.90804" lon="0.14047">
        <ele>1970</ele>
        <time>2020-12-05T17:35:09.947Z</time>
      </trkpt>
      <trkpt lat="42.90795" lon="0.14059">
        <ele>1971.4</ele>
        <time>2020-12-05T17:35:10.95Z</time>
      </trkpt>
      <trkpt lat="42.90795" lon="0.14059">
        <ele>1971.4</ele>
        <time>2020-12-05T17:35:11.948Z</time>
      </trkpt>
      <trkpt lat="42.90793" lon="0.14062">
        <ele>1971.6</ele>
        <time>2020-12-05T17:35:12.948Z</time>
      </trkpt>
      <trkpt lat="42.90793" lon="0.14062">
        <ele>1971.6</ele>
        <time>2020-12-05T17:35:13.948Z</time>
      </trkpt>
      <trkpt lat="42.90793" lon="0.14062">
        <ele>1971.6</ele>
        <time>2020-12-05T17:35:14.951Z</time>
      </trkpt>
      <trkpt lat="42.90793" lon="0.14062">
        <ele>1971.6</ele>
        <time>2020-12-05T17:35:15.947Z</time>
      </trkpt>
      <trkpt lat="42.90793" lon="0.14062">
        <ele>1971.6</ele>
        <time>2020-12-05T17:35:16.947Z</time>
      </trkpt>
      <trkpt lat="42.90793" lon="0.14062">
        <ele>1971.6</ele>
        <time>2020-12-05T17:35:17.948Z</time>
      </trkpt>
      <trkpt lat="42.90786" lon="0.14071">
        <ele>1972.2</ele>
        <time>2020-12-05T17:35:18.95Z</time>
      </trkpt>
      <trkpt lat="42.90786" lon="0.14071">
        <ele>1972.2</ele>
        <time>2020-12-05T17:35:19.949Z</time>
      </trkpt>
      <trkpt lat="42.90786" lon="0.14071">
        <ele>1972.2</ele>
        <time>2020-12-05T17:35:20.947Z</time>
      </trkpt>
      <trkpt lat="42.90786" lon="0.14071">
        <ele>1972.2</ele>
        <time>2020-12-05T17:35:21.947Z</time>
      </trkpt>
      <trkpt lat="42.90786" lon="0.14071">
        <ele>1972.2</ele>
        <time>2020-12-05T17:35:22.95Z</time>
      </trkpt>
      <trkpt lat="42.90786" lon="0.14071">
        <ele>1972.2</ele>
        <time>2020-12-05T17:35:23.948Z</time>
      </trkpt>
      <trkpt lat="42.90786" lon="0.14071">
        <ele>1972.2</ele>
        <time>2020-12-05T17:35:24.948Z</time>
      </trkpt>
      <trkpt lat="42.90779" lon="0.14079">
        <ele>1973.2</ele>
        <time>2020-12-05T17:35:25.947Z</time>
      </trkpt>
      <trkpt lat="42.90779" lon="0.14079">
        <ele>1973.2</ele>
        <time>2020-12-05T17:35:26.948Z</time>
      </trkpt>
      <trkpt lat="42.90777" lon="0.14081">
        <ele>1973.4</ele>
        <time>2020-12-05T17:35:27.948Z</time>
      </trkpt>
      <trkpt lat="42.90777" lon="0.14081">
        <ele>1973.4</ele>
        <time>2020-12-05T17:35:28.949Z</time>
      </trkpt>
      <trkpt lat="42.90777" lon="0.14081">
        <ele>1973.4</ele>
        <time>2020-12-05T17:35:29.949Z</time>
      </trkpt>
      <trkpt lat="42.90777" lon="0.14081">
        <ele>1973.4</ele>
        <time>2020-12-05T17:35:30.947Z</time>
      </trkpt>
      <trkpt lat="42.90777" lon="0.14081">
        <ele>1973.4</ele>
        <time>2020-12-05T17:35:31.948Z</time>
      </trkpt>
      <trkpt lat="42.90777" lon="0.14081">
        <ele>1973.4</ele>
        <time>2020-12-05T17:35:32.947Z</time>
      </trkpt>
      <trkpt lat="42.9077" lon="0.1409">
        <ele>1974.4</ele>
        <time>2020-12-05T17:35:33.947Z</time>
      </trkpt>
      <trkpt lat="42.9077" lon="0.1409">
        <ele>1974.4</ele>
        <time>2020-12-05T17:35:34.947Z</time>
      </trkpt>
      <trkpt lat="42.9077" lon="0.1409">
        <ele>1974.4</ele>
        <time>2020-12-05T17:35:35.949Z</time>
      </trkpt>
      <trkpt lat="42.9077" lon="0.1409">
        <ele>1974.4</ele>
        <time>2020-12-05T17:35:36.947Z</time>
      </trkpt>
      <trkpt lat="42.9077" lon="0.1409">
        <ele>1974.4</ele>
        <time>2020-12-05T17:35:37.948Z</time>
      </trkpt>
      <trkpt lat="42.9077" lon="0.1409">
        <ele>1974.4</ele>
        <time>2020-12-05T17:35:38.947Z</time>
      </trkpt>
      <trkpt lat="42.9077" lon="0.1409">
        <ele>1974.4</ele>
        <time>2020-12-05T17:35:39.948Z</time>
      </trkpt>
      <trkpt lat="42.90763" lon="0.141">
        <ele>1975.2</ele>
        <time>2020-12-05T17:35:40.947Z</time>
      </trkpt>
      <trkpt lat="42.90763" lon="0.141">
        <ele>1975.2</ele>
        <time>2020-12-05T17:35:41.949Z</time>
      </trkpt>
      <trkpt lat="42.90763" lon="0.141">
        <ele>1975.2</ele>
        <time>2020-12-05T17:35:42.948Z</time>
      </trkpt>
      <trkpt lat="42.90761" lon="0.14103">
        <ele>1975.6</ele>
        <time>2020-12-05T17:35:43.949Z</time>
      </trkpt>
      <trkpt lat="42.90761" lon="0.14103">
        <ele>1975.6</ele>
        <time>2020-12-05T17:35:44.949Z</time>
      </trkpt>
      <trkpt lat="42.90761" lon="0.14103">
        <ele>1975.6</ele>
        <time>2020-12-05T17:35:45.948Z</time>
      </trkpt>
      <trkpt lat="42.90761" lon="0.14103">
        <ele>1975.6</ele>
        <time>2020-12-05T17:35:46.948Z</time>
      </trkpt>
      <trkpt lat="42.90761" lon="0.14103">
        <ele>1975.6</ele>
        <time>2020-12-05T17:35:47.947Z</time>
      </trkpt>
      <trkpt lat="42.90755" lon="0.14112">
        <ele>1976.6</ele>
        <time>2020-12-05T17:35:48.947Z</time>
      </trkpt>
      <trkpt lat="42.90755" lon="0.14112">
        <ele>1976.6</ele>
        <time>2020-12-05T17:35:49.948Z</time>
      </trkpt>
      <trkpt lat="42.90755" lon="0.14112">
        <ele>1976.6</ele>
        <time>2020-12-05T17:35:50.949Z</time>
      </trkpt>
      <trkpt lat="42.90755" lon="0.14112">
        <ele>1976.6</ele>
        <time>2020-12-05T17:35:51.947Z</time>
      </trkpt>
      <trkpt lat="42.90755" lon="0.14112">
        <ele>1976.6</ele>
        <time>2020-12-05T17:35:52.949Z</time>
      </trkpt>
      <trkpt lat="42.90755" lon="0.14112">
        <ele>1976.6</ele>
        <time>2020-12-05T17:35:53.947Z</time>
      </trkpt>
      <trkpt lat="42.90749" lon="0.14121">
        <ele>1978</ele>
        <time>2020-12-05T17:35:54.948Z</time>
      </trkpt>
      <trkpt lat="42.90749" lon="0.14121">
        <ele>1978</ele>
        <time>2020-12-05T17:35:55.948Z</time>
      </trkpt>
      <trkpt lat="42.90749" lon="0.14121">
        <ele>1978</ele>
        <time>2020-12-05T17:35:56.948Z</time>
      </trkpt>
      <trkpt lat="42.90749" lon="0.14121">
        <ele>1978</ele>
        <time>2020-12-05T17:35:57.947Z</time>
      </trkpt>
      <trkpt lat="42.90749" lon="0.14121">
        <ele>1978</ele>
        <time>2020-12-05T17:35:58.948Z</time>
      </trkpt>
      <trkpt lat="42.90749" lon="0.14121">
        <ele>1978</ele>
        <time>2020-12-05T17:35:59.948Z</time>
      </trkpt>
      <trkpt lat="42.90749" lon="0.14121">
        <ele>1978</ele>
        <time>2020-12-05T17:36:00.947Z</time>
      </trkpt>
      <trkpt lat="42.90749" lon="0.14121">
        <ele>1978</ele>
        <time>2020-12-05T17:36:01.949Z</time>
      </trkpt>
      <trkpt lat="42.90749" lon="0.14121">
        <ele>1978</ele>
        <time>2020-12-05T17:36:02.947Z</time>
      </trkpt>
      <trkpt lat="42.9074" lon="0.14134">
        <ele>1979.4</ele>
        <time>2020-12-05T17:36:03.948Z</time>
      </trkpt>
      <trkpt lat="42.9074" lon="0.14134">
        <ele>1979.4</ele>
        <time>2020-12-05T17:36:04.949Z</time>
      </trkpt>
      <trkpt lat="42.9074" lon="0.14134">
        <ele>1979.4</ele>
        <time>2020-12-05T17:36:05.947Z</time>
      </trkpt>
      <trkpt lat="42.9074" lon="0.14134">
        <ele>1979.4</ele>
        <time>2020-12-05T17:36:06.949Z</time>
      </trkpt>
      <trkpt lat="42.9074" lon="0.14134">
        <ele>1979.4</ele>
        <time>2020-12-05T17:36:07.948Z</time>
      </trkpt>
      <trkpt lat="42.9074" lon="0.14134">
        <ele>1979.4</ele>
        <time>2020-12-05T17:36:08.948Z</time>
      </trkpt>
      <trkpt lat="42.9074" lon="0.14134">
        <ele>1979.4</ele>
        <time>2020-12-05T17:36:09.949Z</time>
      </trkpt>
      <trkpt lat="42.9074" lon="0.14134">
        <ele>1979.4</ele>
        <time>2020-12-05T17:36:10.948Z</time>
      </trkpt>
      <trkpt lat="42.9074" lon="0.14134">
        <ele>1979.4</ele>
        <time>2020-12-05T17:36:11.948Z</time>
      </trkpt>
      <trkpt lat="42.9074" lon="0.14134">
        <ele>1979.4</ele>
        <time>2020-12-05T17:36:12.948Z</time>
      </trkpt>
      <trkpt lat="42.90732" lon="0.14148">
        <ele>1980.2</ele>
        <time>2020-12-05T17:36:13.948Z</time>
      </trkpt>
      <trkpt lat="42.90732" lon="0.14148">
        <ele>1980.2</ele>
        <time>2020-12-05T17:36:14.948Z</time>
      </trkpt>
      <trkpt lat="42.90731" lon="0.14152">
        <ele>1980.4</ele>
        <time>2020-12-05T17:36:15.947Z</time>
      </trkpt>
      <trkpt lat="42.90731" lon="0.14152">
        <ele>1980.4</ele>
        <time>2020-12-05T17:36:16.948Z</time>
      </trkpt>
      <trkpt lat="42.90731" lon="0.14152">
        <ele>1980.4</ele>
        <time>2020-12-05T17:36:17.948Z</time>
      </trkpt>
      <trkpt lat="42.90731" lon="0.14152">
        <ele>1980.4</ele>
        <time>2020-12-05T17:36:18.948Z</time>
      </trkpt>
      <trkpt lat="42.90731" lon="0.14152">
        <ele>1980.4</ele>
        <time>2020-12-05T17:36:19.947Z</time>
      </trkpt>
      <trkpt lat="42.90731" lon="0.14152">
        <ele>1980.4</ele>
        <time>2020-12-05T17:36:20.95Z</time>
      </trkpt>
      <trkpt lat="42.90731" lon="0.14152">
        <ele>1980.4</ele>
        <time>2020-12-05T17:36:21.948Z</time>
      </trkpt>
      <trkpt lat="42.90731" lon="0.14152">
        <ele>1980.4</ele>
        <time>2020-12-05T17:36:22.947Z</time>
      </trkpt>
      <trkpt lat="42.90731" lon="0.14152">
        <ele>1980.4</ele>
        <time>2020-12-05T17:36:23.947Z</time>
      </trkpt>
      <trkpt lat="42.90726" lon="0.14169">
        <ele>1981.4</ele>
        <time>2020-12-05T17:36:24.947Z</time>
      </trkpt>
      <trkpt lat="42.90726" lon="0.14169">
        <ele>1981.4</ele>
        <time>2020-12-05T17:36:25.948Z</time>
      </trkpt>
      <trkpt lat="42.90726" lon="0.14169">
        <ele>1981.4</ele>
        <time>2020-12-05T17:36:26.948Z</time>
      </trkpt>
      <trkpt lat="42.90726" lon="0.14169">
        <ele>1981.4</ele>
        <time>2020-12-05T17:36:27.947Z</time>
      </trkpt>
      <trkpt lat="42.90724" lon="0.14177">
        <ele>1982.2</ele>
        <time>2020-12-05T17:36:28.948Z</time>
      </trkpt>
      <trkpt lat="42.90724" lon="0.14177">
        <ele>1982.2</ele>
        <time>2020-12-05T17:36:29.948Z</time>
      </trkpt>
      <trkpt lat="42.90723" lon="0.14181">
        <ele>1982.6</ele>
        <time>2020-12-05T17:36:30.948Z</time>
      </trkpt>
      <trkpt lat="42.90723" lon="0.14181">
        <ele>1982.6</ele>
        <time>2020-12-05T17:36:31.95Z</time>
      </trkpt>
      <trkpt lat="42.90723" lon="0.14181">
        <ele>1982.6</ele>
        <time>2020-12-05T17:36:32.948Z</time>
      </trkpt>
      <trkpt lat="42.90723" lon="0.14181">
        <ele>1982.6</ele>
        <time>2020-12-05T17:36:33.947Z</time>
      </trkpt>
      <trkpt lat="42.90723" lon="0.14181">
        <ele>1982.6</ele>
        <time>2020-12-05T17:36:34.947Z</time>
      </trkpt>
      <trkpt lat="42.90723" lon="0.14181">
        <ele>1982.6</ele>
        <time>2020-12-05T17:36:35.948Z</time>
      </trkpt>
      <trkpt lat="42.90723" lon="0.14181">
        <ele>1982.6</ele>
        <time>2020-12-05T17:36:36.947Z</time>
      </trkpt>
      <trkpt lat="42.90723" lon="0.14181">
        <ele>1982.6</ele>
        <time>2020-12-05T17:36:37.947Z</time>
      </trkpt>
      <trkpt lat="42.90723" lon="0.14181">
        <ele>1982.6</ele>
        <time>2020-12-05T17:36:38.948Z</time>
      </trkpt>
      <trkpt lat="42.90723" lon="0.14181">
        <ele>1982.6</ele>
        <time>2020-12-05T17:36:39.947Z</time>
      </trkpt>
      <trkpt lat="42.90719" lon="0.14197">
        <ele>1984</ele>
        <time>2020-12-05T17:36:40.948Z</time>
      </trkpt>
      <trkpt lat="42.90719" lon="0.14197">
        <ele>1984</ele>
        <time>2020-12-05T17:36:41.947Z</time>
      </trkpt>
      <trkpt lat="42.90719" lon="0.14197">
        <ele>1984</ele>
        <time>2020-12-05T17:36:42.947Z</time>
      </trkpt>
      <trkpt lat="42.90719" lon="0.14197">
        <ele>1984</ele>
        <time>2020-12-05T17:36:43.948Z</time>
      </trkpt>
      <trkpt lat="42.90719" lon="0.14197">
        <ele>1984</ele>
        <time>2020-12-05T17:36:44.947Z</time>
      </trkpt>
      <trkpt lat="42.90719" lon="0.14197">
        <ele>1984</ele>
        <time>2020-12-05T17:36:45.947Z</time>
      </trkpt>
      <trkpt lat="42.90717" lon="0.14208">
        <ele>1985</ele>
        <time>2020-12-05T17:36:46.948Z</time>
      </trkpt>
      <trkpt lat="42.90717" lon="0.14208">
        <ele>1985</ele>
        <time>2020-12-05T17:36:47.947Z</time>
      </trkpt>
      <trkpt lat="42.90716" lon="0.14213">
        <ele>1985.2</ele>
        <time>2020-12-05T17:36:48.948Z</time>
      </trkpt>
      <trkpt lat="42.90716" lon="0.14213">
        <ele>1985.2</ele>
        <time>2020-12-05T17:36:49.949Z</time>
      </trkpt>
      <trkpt lat="42.90716" lon="0.14213">
        <ele>1985.2</ele>
        <time>2020-12-05T17:36:50.947Z</time>
      </trkpt>
      <trkpt lat="42.90716" lon="0.14213">
        <ele>1985.2</ele>
        <time>2020-12-05T17:36:51.947Z</time>
      </trkpt>
      <trkpt lat="42.90716" lon="0.14213">
        <ele>1985.2</ele>
        <time>2020-12-05T17:36:52.947Z</time>
      </trkpt>
      <trkpt lat="42.90716" lon="0.14213">
        <ele>1985.2</ele>
        <time>2020-12-05T17:36:53.947Z</time>
      </trkpt>
      <trkpt lat="42.90716" lon="0.14213">
        <ele>1985.2</ele>
        <time>2020-12-05T17:36:54.948Z</time>
      </trkpt>
      <trkpt lat="42.90716" lon="0.14213">
        <ele>1985.2</ele>
        <time>2020-12-05T17:36:55.948Z</time>
      </trkpt>
      <trkpt lat="42.90716" lon="0.14213">
        <ele>1985.2</ele>
        <time>2020-12-05T17:36:56.948Z</time>
      </trkpt>
      <trkpt lat="42.90713" lon="0.14229">
        <ele>1986.4</ele>
        <time>2020-12-05T17:36:57.948Z</time>
      </trkpt>
      <trkpt lat="42.90713" lon="0.14229">
        <ele>1986.4</ele>
        <time>2020-12-05T17:36:58.947Z</time>
      </trkpt>
      <trkpt lat="42.90713" lon="0.14229">
        <ele>1986.4</ele>
        <time>2020-12-05T17:36:59.947Z</time>
      </trkpt>
      <trkpt lat="42.90713" lon="0.14229">
        <ele>1986.4</ele>
        <time>2020-12-05T17:37:00.948Z</time>
      </trkpt>
      <trkpt lat="42.90712" lon="0.14236">
        <ele>1987.4</ele>
        <time>2020-12-05T17:37:01.948Z</time>
      </trkpt>
      <trkpt lat="42.90712" lon="0.14236">
        <ele>1987.4</ele>
        <time>2020-12-05T17:37:02.95Z</time>
      </trkpt>
      <trkpt lat="42.90712" lon="0.1424">
        <ele>1987.6</ele>
        <time>2020-12-05T17:37:03.948Z</time>
      </trkpt>
      <trkpt lat="42.90712" lon="0.1424">
        <ele>1987.6</ele>
        <time>2020-12-05T17:37:04.949Z</time>
      </trkpt>
      <trkpt lat="42.90712" lon="0.1424">
        <ele>1987.6</ele>
        <time>2020-12-05T17:37:05.948Z</time>
      </trkpt>
      <trkpt lat="42.90712" lon="0.1424">
        <ele>1987.6</ele>
        <time>2020-12-05T17:37:06.947Z</time>
      </trkpt>
      <trkpt lat="42.90712" lon="0.1424">
        <ele>1987.6</ele>
        <time>2020-12-05T17:37:07.947Z</time>
      </trkpt>
      <trkpt lat="42.90712" lon="0.1424">
        <ele>1987.6</ele>
        <time>2020-12-05T17:37:08.95Z</time>
      </trkpt>
      <trkpt lat="42.90712" lon="0.1424">
        <ele>1987.6</ele>
        <time>2020-12-05T17:37:09.95Z</time>
      </trkpt>
      <trkpt lat="42.90712" lon="0.1424">
        <ele>1987.6</ele>
        <time>2020-12-05T17:37:10.948Z</time>
      </trkpt>
      <trkpt lat="42.90712" lon="0.14256">
        <ele>1988.8</ele>
        <time>2020-12-05T17:37:11.948Z</time>
      </trkpt>
      <trkpt lat="42.90712" lon="0.14256">
        <ele>1988.8</ele>
        <time>2020-12-05T17:37:12.948Z</time>
      </trkpt>
      <trkpt lat="42.90712" lon="0.14256">
        <ele>1988.8</ele>
        <time>2020-12-05T17:37:13.948Z</time>
      </trkpt>
      <trkpt lat="42.90714" lon="0.14263">
        <ele>1989.4</ele>
        <time>2020-12-05T17:37:14.948Z</time>
      </trkpt>
      <trkpt lat="42.90714" lon="0.14263">
        <ele>1989.4</ele>
        <time>2020-12-05T17:37:15.948Z</time>
      </trkpt>
      <trkpt lat="42.90714" lon="0.14263">
        <ele>1989.4</ele>
        <time>2020-12-05T17:37:16.949Z</time>
      </trkpt>
      <trkpt lat="42.90714" lon="0.14263">
        <ele>1989.4</ele>
        <time>2020-12-05T17:37:17.948Z</time>
      </trkpt>
      <trkpt lat="42.90715" lon="0.1427">
        <ele>1990</ele>
        <time>2020-12-05T17:37:18.949Z</time>
      </trkpt>
      <trkpt lat="42.90715" lon="0.1427">
        <ele>1990</ele>
        <time>2020-12-05T17:37:19.948Z</time>
      </trkpt>
      <trkpt lat="42.90715" lon="0.1427">
        <ele>1990</ele>
        <time>2020-12-05T17:37:20.948Z</time>
      </trkpt>
      <trkpt lat="42.90715" lon="0.1427">
        <ele>1990</ele>
        <time>2020-12-05T17:37:21.947Z</time>
      </trkpt>
      <trkpt lat="42.90715" lon="0.1427">
        <ele>1990</ele>
        <time>2020-12-05T17:37:22.949Z</time>
      </trkpt>
      <trkpt lat="42.90715" lon="0.1427">
        <ele>1990</ele>
        <time>2020-12-05T17:37:23.948Z</time>
      </trkpt>
      <trkpt lat="42.90715" lon="0.1427">
        <ele>1990</ele>
        <time>2020-12-05T17:37:24.948Z</time>
      </trkpt>
      <trkpt lat="42.90715" lon="0.1427">
        <ele>1990</ele>
        <time>2020-12-05T17:37:25.948Z</time>
      </trkpt>
      <trkpt lat="42.90721" lon="0.14283">
        <ele>1991</ele>
        <time>2020-12-05T17:37:26.947Z</time>
      </trkpt>
      <trkpt lat="42.90721" lon="0.14283">
        <ele>1991</ele>
        <time>2020-12-05T17:37:27.949Z</time>
      </trkpt>
      <trkpt lat="42.90721" lon="0.14283">
        <ele>1991</ele>
        <time>2020-12-05T17:37:28.948Z</time>
      </trkpt>
      <trkpt lat="42.90721" lon="0.14283">
        <ele>1991</ele>
        <time>2020-12-05T17:37:29.95Z</time>
      </trkpt>
      <trkpt lat="42.90721" lon="0.14283">
        <ele>1991</ele>
        <time>2020-12-05T17:37:30.949Z</time>
      </trkpt>
      <trkpt lat="42.90725" lon="0.14288">
        <ele>1992</ele>
        <time>2020-12-05T17:37:31.948Z</time>
      </trkpt>
      <trkpt lat="42.90725" lon="0.14288">
        <ele>1992</ele>
        <time>2020-12-05T17:37:32.948Z</time>
      </trkpt>
      <trkpt lat="42.90725" lon="0.14288">
        <ele>1992</ele>
        <time>2020-12-05T17:37:33.947Z</time>
      </trkpt>
      <trkpt lat="42.90725" lon="0.14288">
        <ele>1992</ele>
        <time>2020-12-05T17:37:34.948Z</time>
      </trkpt>
      <trkpt lat="42.90725" lon="0.14288">
        <ele>1992</ele>
        <time>2020-12-05T17:37:35.948Z</time>
      </trkpt>
      <trkpt lat="42.90725" lon="0.14288">
        <ele>1992</ele>
        <time>2020-12-05T17:37:36.947Z</time>
      </trkpt>
      <trkpt lat="42.90725" lon="0.14288">
        <ele>1992</ele>
        <time>2020-12-05T17:37:37.949Z</time>
      </trkpt>
      <trkpt lat="42.90732" lon="0.14301">
        <ele>1993.2</ele>
        <time>2020-12-05T17:37:38.949Z</time>
      </trkpt>
      <trkpt lat="42.90732" lon="0.14301">
        <ele>1993.2</ele>
        <time>2020-12-05T17:37:39.947Z</time>
      </trkpt>
      <trkpt lat="42.90732" lon="0.14301">
        <ele>1993.2</ele>
        <time>2020-12-05T17:37:40.947Z</time>
      </trkpt>
      <trkpt lat="42.90733" lon="0.14305">
        <ele>1993.6</ele>
        <time>2020-12-05T17:37:41.948Z</time>
      </trkpt>
      <trkpt lat="42.90733" lon="0.14305">
        <ele>1993.6</ele>
        <time>2020-12-05T17:37:42.947Z</time>
      </trkpt>
      <trkpt lat="42.90733" lon="0.14305">
        <ele>1993.6</ele>
        <time>2020-12-05T17:37:43.949Z</time>
      </trkpt>
      <trkpt lat="42.90733" lon="0.14305">
        <ele>1993.6</ele>
        <time>2020-12-05T17:37:44.948Z</time>
      </trkpt>
      <trkpt lat="42.90734" lon="0.14313">
        <ele>1994.4</ele>
        <time>2020-12-05T17:37:45.949Z</time>
      </trkpt>
      <trkpt lat="42.90734" lon="0.14313">
        <ele>1994.4</ele>
        <time>2020-12-05T17:37:46.948Z</time>
      </trkpt>
      <trkpt lat="42.90734" lon="0.14313">
        <ele>1994.4</ele>
        <time>2020-12-05T17:37:47.95Z</time>
      </trkpt>
      <trkpt lat="42.90734" lon="0.14313">
        <ele>1994.4</ele>
        <time>2020-12-05T17:37:48.947Z</time>
      </trkpt>
      <trkpt lat="42.90734" lon="0.14313">
        <ele>1994.4</ele>
        <time>2020-12-05T17:37:49.948Z</time>
      </trkpt>
      <trkpt lat="42.90736" lon="0.14325">
        <ele>1995.4</ele>
        <time>2020-12-05T17:37:50.948Z</time>
      </trkpt>
      <trkpt lat="42.90736" lon="0.14325">
        <ele>1995.4</ele>
        <time>2020-12-05T17:37:51.948Z</time>
      </trkpt>
      <trkpt lat="42.90736" lon="0.14325">
        <ele>1995.4</ele>
        <time>2020-12-05T17:37:52.947Z</time>
      </trkpt>
      <trkpt lat="42.90736" lon="0.14325">
        <ele>1995.4</ele>
        <time>2020-12-05T17:37:53.947Z</time>
      </trkpt>
      <trkpt lat="42.90736" lon="0.14325">
        <ele>1995.4</ele>
        <time>2020-12-05T17:37:54.948Z</time>
      </trkpt>
      <trkpt lat="42.90737" lon="0.14333">
        <ele>1996.2</ele>
        <time>2020-12-05T17:37:55.949Z</time>
      </trkpt>
      <trkpt lat="42.90737" lon="0.14333">
        <ele>1996.2</ele>
        <time>2020-12-05T17:37:56.948Z</time>
      </trkpt>
      <trkpt lat="42.90737" lon="0.14333">
        <ele>1996.2</ele>
        <time>2020-12-05T17:37:57.949Z</time>
      </trkpt>
      <trkpt lat="42.90737" lon="0.1434">
        <ele>1996.6</ele>
        <time>2020-12-05T17:37:58.948Z</time>
      </trkpt>
      <trkpt lat="42.90737" lon="0.1434">
        <ele>1996.6</ele>
        <time>2020-12-05T17:37:59.949Z</time>
      </trkpt>
      <trkpt lat="42.90737" lon="0.1434">
        <ele>1996.6</ele>
        <time>2020-12-05T17:38:00.947Z</time>
      </trkpt>
      <trkpt lat="42.90737" lon="0.1434">
        <ele>1996.6</ele>
        <time>2020-12-05T17:38:01.948Z</time>
      </trkpt>
      <trkpt lat="42.90737" lon="0.1434">
        <ele>1996.6</ele>
        <time>2020-12-05T17:38:02.948Z</time>
      </trkpt>
      <trkpt lat="42.90737" lon="0.1434">
        <ele>1996.6</ele>
        <time>2020-12-05T17:38:03.947Z</time>
      </trkpt>
      <trkpt lat="42.90737" lon="0.1434">
        <ele>1996.6</ele>
        <time>2020-12-05T17:38:04.948Z</time>
      </trkpt>
      <trkpt lat="42.90737" lon="0.1434">
        <ele>1996.6</ele>
        <time>2020-12-05T17:38:05.947Z</time>
      </trkpt>
      <trkpt lat="42.90736" lon="0.14356">
        <ele>1997.4</ele>
        <time>2020-12-05T17:38:06.948Z</time>
      </trkpt>
      <trkpt lat="42.90736" lon="0.14356">
        <ele>1997.4</ele>
        <time>2020-12-05T17:38:07.948Z</time>
      </trkpt>
      <trkpt lat="42.90735" lon="0.1436">
        <ele>1997.6</ele>
        <time>2020-12-05T17:38:08.948Z</time>
      </trkpt>
      <trkpt lat="42.90735" lon="0.1436">
        <ele>1997.6</ele>
        <time>2020-12-05T17:38:09.949Z</time>
      </trkpt>
      <trkpt lat="42.90735" lon="0.1436">
        <ele>1997.6</ele>
        <time>2020-12-05T17:38:10.948Z</time>
      </trkpt>
      <trkpt lat="42.90735" lon="0.1436">
        <ele>1997.6</ele>
        <time>2020-12-05T17:38:11.947Z</time>
      </trkpt>
      <trkpt lat="42.90735" lon="0.1436">
        <ele>1997.6</ele>
        <time>2020-12-05T17:38:12.948Z</time>
      </trkpt>
      <trkpt lat="42.90735" lon="0.1436">
        <ele>1997.6</ele>
        <time>2020-12-05T17:38:13.948Z</time>
      </trkpt>
      <trkpt lat="42.90735" lon="0.1436">
        <ele>1997.6</ele>
        <time>2020-12-05T17:38:14.948Z</time>
      </trkpt>
      <trkpt lat="42.90735" lon="0.1436">
        <ele>1997.6</ele>
        <time>2020-12-05T17:38:15.947Z</time>
      </trkpt>
      <trkpt lat="42.90735" lon="0.14376">
        <ele>1998.6</ele>
        <time>2020-12-05T17:38:16.947Z</time>
      </trkpt>
      <trkpt lat="42.90735" lon="0.14376">
        <ele>1998.6</ele>
        <time>2020-12-05T17:38:17.947Z</time>
      </trkpt>
      <trkpt lat="42.90735" lon="0.14376">
        <ele>1998.6</ele>
        <time>2020-12-05T17:38:18.948Z</time>
      </trkpt>
      <trkpt lat="42.90735" lon="0.14376">
        <ele>1998.6</ele>
        <time>2020-12-05T17:38:19.95Z</time>
      </trkpt>
      <trkpt lat="42.90735" lon="0.14376">
        <ele>1998.6</ele>
        <time>2020-12-05T17:38:20.948Z</time>
      </trkpt>
      <trkpt lat="42.90735" lon="0.14376">
        <ele>1998.6</ele>
        <time>2020-12-05T17:38:21.949Z</time>
      </trkpt>
      <trkpt lat="42.90733" lon="0.14388">
        <ele>1999.4</ele>
        <time>2020-12-05T17:38:22.95Z</time>
      </trkpt>
      <trkpt lat="42.90733" lon="0.14388">
        <ele>1999.4</ele>
        <time>2020-12-05T17:38:23.949Z</time>
      </trkpt>
      <trkpt lat="42.90732" lon="0.14392">
        <ele>1999.8</ele>
        <time>2020-12-05T17:38:24.948Z</time>
      </trkpt>
      <trkpt lat="42.90732" lon="0.14392">
        <ele>1999.8</ele>
        <time>2020-12-05T17:38:25.948Z</time>
      </trkpt>
      <trkpt lat="42.90732" lon="0.14392">
        <ele>1999.8</ele>
        <time>2020-12-05T17:38:26.948Z</time>
      </trkpt>
      <trkpt lat="42.90732" lon="0.14392">
        <ele>1999.8</ele>
        <time>2020-12-05T17:38:27.947Z</time>
      </trkpt>
      <trkpt lat="42.90727" lon="0.14396">
        <ele>2000.8</ele>
        <time>2020-12-05T17:38:28.949Z</time>
      </trkpt>
      <trkpt lat="42.90727" lon="0.14396">
        <ele>2000.8</ele>
        <time>2020-12-05T17:38:29.947Z</time>
      </trkpt>
      <trkpt lat="42.90727" lon="0.14396">
        <ele>2000.8</ele>
        <time>2020-12-05T17:38:30.949Z</time>
      </trkpt>
      <trkpt lat="42.90723" lon="0.144">
        <ele>2001.2</ele>
        <time>2020-12-05T17:38:31.948Z</time>
      </trkpt>
      <trkpt lat="42.90723" lon="0.144">
        <ele>2001.2</ele>
        <time>2020-12-05T17:38:32.948Z</time>
      </trkpt>
      <trkpt lat="42.90723" lon="0.144">
        <ele>2001.2</ele>
        <time>2020-12-05T17:38:33.947Z</time>
      </trkpt>
      <trkpt lat="42.90723" lon="0.144">
        <ele>2001.2</ele>
        <time>2020-12-05T17:38:34.949Z</time>
      </trkpt>
      <trkpt lat="42.90718" lon="0.14403">
        <ele>2001.6</ele>
        <time>2020-12-05T17:38:35.947Z</time>
      </trkpt>
      <trkpt lat="42.90718" lon="0.14403">
        <ele>2001.6</ele>
        <time>2020-12-05T17:38:36.949Z</time>
      </trkpt>
      <trkpt lat="42.90718" lon="0.14403">
        <ele>2001.6</ele>
        <time>2020-12-05T17:38:37.947Z</time>
      </trkpt>
      <trkpt lat="42.90718" lon="0.14403">
        <ele>2001.6</ele>
        <time>2020-12-05T17:38:38.949Z</time>
      </trkpt>
      <trkpt lat="42.90718" lon="0.14403">
        <ele>2001.6</ele>
        <time>2020-12-05T17:38:39.95Z</time>
      </trkpt>
      <trkpt lat="42.90718" lon="0.14403">
        <ele>2001.6</ele>
        <time>2020-12-05T17:38:40.947Z</time>
      </trkpt>
      <trkpt lat="42.90718" lon="0.14403">
        <ele>2001.6</ele>
        <time>2020-12-05T17:38:41.948Z</time>
      </trkpt>
      <trkpt lat="42.90718" lon="0.14403">
        <ele>2001.6</ele>
        <time>2020-12-05T17:38:42.948Z</time>
      </trkpt>
      <trkpt lat="42.90718" lon="0.14403">
        <ele>2001.6</ele>
        <time>2020-12-05T17:38:43.948Z</time>
      </trkpt>
      <trkpt lat="42.90707" lon="0.14413">
        <ele>2002.8</ele>
        <time>2020-12-05T17:38:44.947Z</time>
      </trkpt>
      <trkpt lat="42.90707" lon="0.14413">
        <ele>2002.8</ele>
        <time>2020-12-05T17:38:45.947Z</time>
      </trkpt>
      <trkpt lat="42.90707" lon="0.14413">
        <ele>2002.8</ele>
        <time>2020-12-05T17:38:46.95Z</time>
      </trkpt>
      <trkpt lat="42.90707" lon="0.14413">
        <ele>2002.8</ele>
        <time>2020-12-05T17:38:47.95Z</time>
      </trkpt>
      <trkpt lat="42.90707" lon="0.14413">
        <ele>2002.8</ele>
        <time>2020-12-05T17:38:48.948Z</time>
      </trkpt>
      <trkpt lat="42.90707" lon="0.14413">
        <ele>2002.8</ele>
        <time>2020-12-05T17:38:49.949Z</time>
      </trkpt>
      <trkpt lat="42.90707" lon="0.14413">
        <ele>2002.8</ele>
        <time>2020-12-05T17:38:50.948Z</time>
      </trkpt>
      <trkpt lat="42.90707" lon="0.14413">
        <ele>2002.8</ele>
        <time>2020-12-05T17:38:51.948Z</time>
      </trkpt>
      <trkpt lat="42.90699" lon="0.14424">
        <ele>2004.2</ele>
        <time>2020-12-05T17:38:52.949Z</time>
      </trkpt>
      <trkpt lat="42.90699" lon="0.14424">
        <ele>2004.2</ele>
        <time>2020-12-05T17:38:53.947Z</time>
      </trkpt>
      <trkpt lat="42.90699" lon="0.14424">
        <ele>2004.2</ele>
        <time>2020-12-05T17:38:54.947Z</time>
      </trkpt>
      <trkpt lat="42.90694" lon="0.14428">
        <ele>2004.6</ele>
        <time>2020-12-05T17:38:55.95Z</time>
      </trkpt>
      <trkpt lat="42.90694" lon="0.14428">
        <ele>2004.6</ele>
        <time>2020-12-05T17:38:56.949Z</time>
      </trkpt>
      <trkpt lat="42.90694" lon="0.14428">
        <ele>2004.6</ele>
        <time>2020-12-05T17:38:57.948Z</time>
      </trkpt>
      <trkpt lat="42.90694" lon="0.14428">
        <ele>2004.6</ele>
        <time>2020-12-05T17:38:58.95Z</time>
      </trkpt>
      <trkpt lat="42.90694" lon="0.14428">
        <ele>2004.6</ele>
        <time>2020-12-05T17:38:59.949Z</time>
      </trkpt>
      <trkpt lat="42.90694" lon="0.14428">
        <ele>2004.6</ele>
        <time>2020-12-05T17:39:00.947Z</time>
      </trkpt>
      <trkpt lat="42.90694" lon="0.14428">
        <ele>2004.6</ele>
        <time>2020-12-05T17:39:01.948Z</time>
      </trkpt>
      <trkpt lat="42.90694" lon="0.14428">
        <ele>2004.6</ele>
        <time>2020-12-05T17:39:02.949Z</time>
      </trkpt>
      <trkpt lat="42.90694" lon="0.14428">
        <ele>2004.6</ele>
        <time>2020-12-05T17:39:03.947Z</time>
      </trkpt>
      <trkpt lat="42.90683" lon="0.14435">
        <ele>2005.2</ele>
        <time>2020-12-05T17:39:04.949Z</time>
      </trkpt>
      <trkpt lat="42.90683" lon="0.14435">
        <ele>2005.2</ele>
        <time>2020-12-05T17:39:05.947Z</time>
      </trkpt>
      <trkpt lat="42.90683" lon="0.14435">
        <ele>2005.2</ele>
        <time>2020-12-05T17:39:06.948Z</time>
      </trkpt>
      <trkpt lat="42.90683" lon="0.14435">
        <ele>2005.2</ele>
        <time>2020-12-05T17:39:07.95Z</time>
      </trkpt>
      <trkpt lat="42.90683" lon="0.14435">
        <ele>2005.2</ele>
        <time>2020-12-05T17:39:08.947Z</time>
      </trkpt>
      <trkpt lat="42.90683" lon="0.14435">
        <ele>2005.2</ele>
        <time>2020-12-05T17:39:09.949Z</time>
      </trkpt>
      <trkpt lat="42.90674" lon="0.1444">
        <ele>2006.2</ele>
        <time>2020-12-05T17:39:10.947Z</time>
      </trkpt>
      <trkpt lat="42.90674" lon="0.1444">
        <ele>2006.2</ele>
        <time>2020-12-05T17:39:11.948Z</time>
      </trkpt>
      <trkpt lat="42.90674" lon="0.1444">
        <ele>2006.2</ele>
        <time>2020-12-05T17:39:12.949Z</time>
      </trkpt>
      <trkpt lat="42.90671" lon="0.14442">
        <ele>2006.6</ele>
        <time>2020-12-05T17:39:13.949Z</time>
      </trkpt>
      <trkpt lat="42.90671" lon="0.14442">
        <ele>2006.6</ele>
        <time>2020-12-05T17:39:14.948Z</time>
      </trkpt>
      <trkpt lat="42.90671" lon="0.14442">
        <ele>2006.6</ele>
        <time>2020-12-05T17:39:15.947Z</time>
      </trkpt>
      <trkpt lat="42.90671" lon="0.14442">
        <ele>2006.6</ele>
        <time>2020-12-05T17:39:16.948Z</time>
      </trkpt>
      <trkpt lat="42.90671" lon="0.14442">
        <ele>2006.6</ele>
        <time>2020-12-05T17:39:17.95Z</time>
      </trkpt>
      <trkpt lat="42.90671" lon="0.14442">
        <ele>2006.6</ele>
        <time>2020-12-05T17:39:18.948Z</time>
      </trkpt>
      <trkpt lat="42.90662" lon="0.14445">
        <ele>2007.6</ele>
        <time>2020-12-05T17:39:19.947Z</time>
      </trkpt>
      <trkpt lat="42.90662" lon="0.14445">
        <ele>2007.6</ele>
        <time>2020-12-05T17:39:20.949Z</time>
      </trkpt>
      <trkpt lat="42.90662" lon="0.14445">
        <ele>2007.6</ele>
        <time>2020-12-05T17:39:21.95Z</time>
      </trkpt>
      <trkpt lat="42.90662" lon="0.14445">
        <ele>2007.6</ele>
        <time>2020-12-05T17:39:22.947Z</time>
      </trkpt>
      <trkpt lat="42.90662" lon="0.14445">
        <ele>2007.6</ele>
        <time>2020-12-05T17:39:23.949Z</time>
      </trkpt>
      <trkpt lat="42.90662" lon="0.14445">
        <ele>2007.6</ele>
        <time>2020-12-05T17:39:24.949Z</time>
      </trkpt>
      <trkpt lat="42.90662" lon="0.14445">
        <ele>2007.6</ele>
        <time>2020-12-05T17:39:25.947Z</time>
      </trkpt>
      <trkpt lat="42.90662" lon="0.14445">
        <ele>2007.6</ele>
        <time>2020-12-05T17:39:26.948Z</time>
      </trkpt>
      <trkpt lat="42.90662" lon="0.14445">
        <ele>2007.6</ele>
        <time>2020-12-05T17:39:27.947Z</time>
      </trkpt>
      <trkpt lat="42.9065" lon="0.14453">
        <ele>2008.6</ele>
        <time>2020-12-05T17:39:28.949Z</time>
      </trkpt>
      <trkpt lat="42.9065" lon="0.14453">
        <ele>2008.6</ele>
        <time>2020-12-05T17:39:29.95Z</time>
      </trkpt>
      <trkpt lat="42.9065" lon="0.14453">
        <ele>2008.6</ele>
        <time>2020-12-05T17:39:30.948Z</time>
      </trkpt>
      <trkpt lat="42.9065" lon="0.14453">
        <ele>2008.6</ele>
        <time>2020-12-05T17:39:31.948Z</time>
      </trkpt>
      <trkpt lat="42.9065" lon="0.14453">
        <ele>2008.6</ele>
        <time>2020-12-05T17:39:32.949Z</time>
      </trkpt>
      <trkpt lat="42.9065" lon="0.14453">
        <ele>2008.6</ele>
        <time>2020-12-05T17:39:33.949Z</time>
      </trkpt>
      <trkpt lat="42.9065" lon="0.14453">
        <ele>2008.6</ele>
        <time>2020-12-05T17:39:34.95Z</time>
      </trkpt>
      <trkpt lat="42.9065" lon="0.14453">
        <ele>2008.6</ele>
        <time>2020-12-05T17:39:35.947Z</time>
      </trkpt>
      <trkpt lat="42.9065" lon="0.14453">
        <ele>2008.6</ele>
        <time>2020-12-05T17:39:36.947Z</time>
      </trkpt>
      <trkpt lat="42.9065" lon="0.14453">
        <ele>2008.6</ele>
        <time>2020-12-05T17:39:37.948Z</time>
      </trkpt>
      <trkpt lat="42.90637" lon="0.14461">
        <ele>2010</ele>
        <time>2020-12-05T17:39:38.948Z</time>
      </trkpt>
      <trkpt lat="42.90637" lon="0.14461">
        <ele>2010</ele>
        <time>2020-12-05T17:39:39.948Z</time>
      </trkpt>
      <trkpt lat="42.90637" lon="0.14461">
        <ele>2010</ele>
        <time>2020-12-05T17:39:40.947Z</time>
      </trkpt>
      <trkpt lat="42.90637" lon="0.14461">
        <ele>2010</ele>
        <time>2020-12-05T17:39:41.947Z</time>
      </trkpt>
      <trkpt lat="42.90637" lon="0.14461">
        <ele>2010</ele>
        <time>2020-12-05T17:39:42.948Z</time>
      </trkpt>
      <trkpt lat="42.90637" lon="0.14461">
        <ele>2010</ele>
        <time>2020-12-05T17:39:43.95Z</time>
      </trkpt>
      <trkpt lat="42.90629" lon="0.14467">
        <ele>2010.6</ele>
        <time>2020-12-05T17:39:44.947Z</time>
      </trkpt>
      <trkpt lat="42.90629" lon="0.14467">
        <ele>2010.6</ele>
        <time>2020-12-05T17:39:45.949Z</time>
      </trkpt>
      <trkpt lat="42.90627" lon="0.1447">
        <ele>2010.8</ele>
        <time>2020-12-05T17:39:46.948Z</time>
      </trkpt>
      <trkpt lat="42.90627" lon="0.1447">
        <ele>2010.8</ele>
        <time>2020-12-05T17:39:47.948Z</time>
      </trkpt>
      <trkpt lat="42.90627" lon="0.1447">
        <ele>2010.8</ele>
        <time>2020-12-05T17:39:48.948Z</time>
      </trkpt>
      <trkpt lat="42.90627" lon="0.1447">
        <ele>2010.8</ele>
        <time>2020-12-05T17:39:49.948Z</time>
      </trkpt>
      <trkpt lat="42.90627" lon="0.1447">
        <ele>2010.8</ele>
        <time>2020-12-05T17:39:50.947Z</time>
      </trkpt>
      <trkpt lat="42.90627" lon="0.1447">
        <ele>2010.8</ele>
        <time>2020-12-05T17:39:51.95Z</time>
      </trkpt>
      <trkpt lat="42.90621" lon="0.14478">
        <ele>2012</ele>
        <time>2020-12-05T17:39:52.949Z</time>
      </trkpt>
      <trkpt lat="42.90621" lon="0.14478">
        <ele>2012</ele>
        <time>2020-12-05T17:39:53.949Z</time>
      </trkpt>
      <trkpt lat="42.90621" lon="0.14478">
        <ele>2012</ele>
        <time>2020-12-05T17:39:54.948Z</time>
      </trkpt>
      <trkpt lat="42.90621" lon="0.14478">
        <ele>2012</ele>
        <time>2020-12-05T17:39:55.95Z</time>
      </trkpt>
      <trkpt lat="42.90617" lon="0.14485">
        <ele>2012.6</ele>
        <time>2020-12-05T17:39:56.949Z</time>
      </trkpt>
      <trkpt lat="42.90617" lon="0.14485">
        <ele>2012.6</ele>
        <time>2020-12-05T17:39:57.949Z</time>
      </trkpt>
      <trkpt lat="42.90617" lon="0.14485">
        <ele>2012.6</ele>
        <time>2020-12-05T17:39:58.947Z</time>
      </trkpt>
      <trkpt lat="42.90616" lon="0.14489">
        <ele>2013</ele>
        <time>2020-12-05T17:39:59.949Z</time>
      </trkpt>
      <trkpt lat="42.90616" lon="0.14489">
        <ele>2013</ele>
        <time>2020-12-05T17:40:00.949Z</time>
      </trkpt>
      <trkpt lat="42.90616" lon="0.14489">
        <ele>2013</ele>
        <time>2020-12-05T17:40:01.947Z</time>
      </trkpt>
      <trkpt lat="42.90616" lon="0.14489">
        <ele>2013</ele>
        <time>2020-12-05T17:40:02.948Z</time>
      </trkpt>
      <trkpt lat="42.90616" lon="0.14489">
        <ele>2013</ele>
        <time>2020-12-05T17:40:03.948Z</time>
      </trkpt>
      <trkpt lat="42.90616" lon="0.14489">
        <ele>2013</ele>
        <time>2020-12-05T17:40:04.947Z</time>
      </trkpt>
      <trkpt lat="42.90612" lon="0.145">
        <ele>2014</ele>
        <time>2020-12-05T17:40:05.949Z</time>
      </trkpt>
      <trkpt lat="42.90612" lon="0.145">
        <ele>2014</ele>
        <time>2020-12-05T17:40:06.947Z</time>
      </trkpt>
      <trkpt lat="42.90612" lon="0.145">
        <ele>2014</ele>
        <time>2020-12-05T17:40:07.947Z</time>
      </trkpt>
      <trkpt lat="42.90612" lon="0.145">
        <ele>2014</ele>
        <time>2020-12-05T17:40:08.95Z</time>
      </trkpt>
      <trkpt lat="42.90612" lon="0.145">
        <ele>2014</ele>
        <time>2020-12-05T17:40:09.948Z</time>
      </trkpt>
      <trkpt lat="42.90612" lon="0.145">
        <ele>2014</ele>
        <time>2020-12-05T17:40:10.948Z</time>
      </trkpt>
      <trkpt lat="42.90608" lon="0.14512">
        <ele>2015</ele>
        <time>2020-12-05T17:40:11.947Z</time>
      </trkpt>
      <trkpt lat="42.90608" lon="0.14512">
        <ele>2015</ele>
        <time>2020-12-05T17:40:12.948Z</time>
      </trkpt>
      <trkpt lat="42.90606" lon="0.14515">
        <ele>2015.2</ele>
        <time>2020-12-05T17:40:13.948Z</time>
      </trkpt>
      <trkpt lat="42.90606" lon="0.14515">
        <ele>2015.2</ele>
        <time>2020-12-05T17:40:14.948Z</time>
      </trkpt>
      <trkpt lat="42.90606" lon="0.14515">
        <ele>2015.2</ele>
        <time>2020-12-05T17:40:15.947Z</time>
      </trkpt>
      <trkpt lat="42.90606" lon="0.14515">
        <ele>2015.2</ele>
        <time>2020-12-05T17:40:16.948Z</time>
      </trkpt>
      <trkpt lat="42.90606" lon="0.14515">
        <ele>2015.2</ele>
        <time>2020-12-05T17:40:17.949Z</time>
      </trkpt>
      <trkpt lat="42.90606" lon="0.14515">
        <ele>2015.2</ele>
        <time>2020-12-05T17:40:18.947Z</time>
      </trkpt>
      <trkpt lat="42.90606" lon="0.14515">
        <ele>2015.2</ele>
        <time>2020-12-05T17:40:19.947Z</time>
      </trkpt>
      <trkpt lat="42.90601" lon="0.14529">
        <ele>2016.4</ele>
        <time>2020-12-05T17:40:20.947Z</time>
      </trkpt>
      <trkpt lat="42.906" lon="0.14533">
        <ele>2017.2</ele>
        <time>2020-12-05T17:40:21.949Z</time>
      </trkpt>
      <trkpt lat="42.906" lon="0.14533">
        <ele>2017.2</ele>
        <time>2020-12-05T17:40:22.949Z</time>
      </trkpt>
      <trkpt lat="42.906" lon="0.14533">
        <ele>2017.2</ele>
        <time>2020-12-05T17:40:23.947Z</time>
      </trkpt>
      <trkpt lat="42.906" lon="0.14533">
        <ele>2017.2</ele>
        <time>2020-12-05T17:40:24.948Z</time>
      </trkpt>
      <trkpt lat="42.906" lon="0.14533">
        <ele>2017.2</ele>
        <time>2020-12-05T17:40:25.948Z</time>
      </trkpt>
      <trkpt lat="42.90598" lon="0.14541">
        <ele>2017.4</ele>
        <time>2020-12-05T17:40:26.948Z</time>
      </trkpt>
      <trkpt lat="42.90598" lon="0.14541">
        <ele>2017.4</ele>
        <time>2020-12-05T17:40:27.948Z</time>
      </trkpt>
      <trkpt lat="42.90598" lon="0.14541">
        <ele>2017.4</ele>
        <time>2020-12-05T17:40:28.947Z</time>
      </trkpt>
      <trkpt lat="42.90598" lon="0.14541">
        <ele>2017.4</ele>
        <time>2020-12-05T17:40:29.947Z</time>
      </trkpt>
      <trkpt lat="42.90598" lon="0.14541">
        <ele>2017.4</ele>
        <time>2020-12-05T17:40:30.948Z</time>
      </trkpt>
      <trkpt lat="42.90598" lon="0.14541">
        <ele>2017.4</ele>
        <time>2020-12-05T17:40:31.949Z</time>
      </trkpt>
      <trkpt lat="42.90598" lon="0.14541">
        <ele>2017.4</ele>
        <time>2020-12-05T17:40:32.948Z</time>
      </trkpt>
      <trkpt lat="42.90598" lon="0.14541">
        <ele>2017.4</ele>
        <time>2020-12-05T17:40:33.949Z</time>
      </trkpt>
      <trkpt lat="42.90598" lon="0.14541">
        <ele>2017.4</ele>
        <time>2020-12-05T17:40:34.948Z</time>
      </trkpt>
      <trkpt lat="42.90598" lon="0.14541">
        <ele>2017.4</ele>
        <time>2020-12-05T17:40:35.949Z</time>
      </trkpt>
      <trkpt lat="42.90598" lon="0.14541">
        <ele>2017.4</ele>
        <time>2020-12-05T17:40:36.947Z</time>
      </trkpt>
      <trkpt lat="42.90594" lon="0.14557">
        <ele>2018.4</ele>
        <time>2020-12-05T17:40:37.948Z</time>
      </trkpt>
      <trkpt lat="42.90594" lon="0.14557">
        <ele>2018.4</ele>
        <time>2020-12-05T17:40:38.948Z</time>
      </trkpt>
      <trkpt lat="42.90593" lon="0.14561">
        <ele>2018.4</ele>
        <time>2020-12-05T17:40:39.948Z</time>
      </trkpt>
      <trkpt lat="42.90593" lon="0.14561">
        <ele>2018.4</ele>
        <time>2020-12-05T17:40:40.947Z</time>
      </trkpt>
      <trkpt lat="42.90593" lon="0.14561">
        <ele>2018.4</ele>
        <time>2020-12-05T17:40:41.947Z</time>
      </trkpt>
      <trkpt lat="42.90593" lon="0.14561">
        <ele>2018.4</ele>
        <time>2020-12-05T17:40:42.951Z</time>
      </trkpt>
      <trkpt lat="42.90593" lon="0.14561">
        <ele>2018.4</ele>
        <time>2020-12-05T17:40:43.948Z</time>
      </trkpt>
      <trkpt lat="42.9059" lon="0.1457">
        <ele>2019.6</ele>
        <time>2020-12-05T17:40:44.948Z</time>
      </trkpt>
      <trkpt lat="42.9059" lon="0.1457">
        <ele>2019.6</ele>
        <time>2020-12-05T17:40:45.947Z</time>
      </trkpt>
      <trkpt lat="42.9059" lon="0.1457">
        <ele>2019.6</ele>
        <time>2020-12-05T17:40:46.95Z</time>
      </trkpt>
      <trkpt lat="42.9059" lon="0.1457">
        <ele>2019.6</ele>
        <time>2020-12-05T17:40:47.947Z</time>
      </trkpt>
      <trkpt lat="42.9059" lon="0.1457">
        <ele>2019.6</ele>
        <time>2020-12-05T17:40:48.947Z</time>
      </trkpt>
      <trkpt lat="42.90586" lon="0.14579">
        <ele>2020.4</ele>
        <time>2020-12-05T17:40:49.948Z</time>
      </trkpt>
      <trkpt lat="42.90586" lon="0.14579">
        <ele>2020.4</ele>
        <time>2020-12-05T17:40:50.947Z</time>
      </trkpt>
      <trkpt lat="42.90584" lon="0.14583">
        <ele>2020.8</ele>
        <time>2020-12-05T17:40:51.948Z</time>
      </trkpt>
      <trkpt lat="42.90584" lon="0.14583">
        <ele>2020.8</ele>
        <time>2020-12-05T17:40:52.949Z</time>
      </trkpt>
      <trkpt lat="42.90584" lon="0.14583">
        <ele>2020.8</ele>
        <time>2020-12-05T17:40:53.947Z</time>
      </trkpt>
      <trkpt lat="42.90584" lon="0.14583">
        <ele>2020.8</ele>
        <time>2020-12-05T17:40:54.947Z</time>
      </trkpt>
      <trkpt lat="42.90584" lon="0.14583">
        <ele>2020.8</ele>
        <time>2020-12-05T17:40:55.949Z</time>
      </trkpt>
      <trkpt lat="42.90584" lon="0.14583">
        <ele>2020.8</ele>
        <time>2020-12-05T17:40:56.949Z</time>
      </trkpt>
      <trkpt lat="42.90584" lon="0.14583">
        <ele>2020.8</ele>
        <time>2020-12-05T17:40:57.949Z</time>
      </trkpt>
      <trkpt lat="42.90584" lon="0.14583">
        <ele>2020.8</ele>
        <time>2020-12-05T17:40:58.947Z</time>
      </trkpt>
      <trkpt lat="42.90579" lon="0.14596">
        <ele>2022</ele>
        <time>2020-12-05T17:40:59.948Z</time>
      </trkpt>
      <trkpt lat="42.90579" lon="0.14596">
        <ele>2022</ele>
        <time>2020-12-05T17:41:00.947Z</time>
      </trkpt>
      <trkpt lat="42.90579" lon="0.14596">
        <ele>2022</ele>
        <time>2020-12-05T17:41:01.949Z</time>
      </trkpt>
      <trkpt lat="42.90579" lon="0.14596">
        <ele>2022</ele>
        <time>2020-12-05T17:41:02.947Z</time>
      </trkpt>
      <trkpt lat="42.90579" lon="0.14596">
        <ele>2022</ele>
        <time>2020-12-05T17:41:03.949Z</time>
      </trkpt>
      <trkpt lat="42.90574" lon="0.14605">
        <ele>2023.2</ele>
        <time>2020-12-05T17:41:04.947Z</time>
      </trkpt>
      <trkpt lat="42.90574" lon="0.14605">
        <ele>2023.2</ele>
        <time>2020-12-05T17:41:05.947Z</time>
      </trkpt>
      <trkpt lat="42.90574" lon="0.14605">
        <ele>2023.2</ele>
        <time>2020-12-05T17:41:06.948Z</time>
      </trkpt>
      <trkpt lat="42.90574" lon="0.14605">
        <ele>2023.2</ele>
        <time>2020-12-05T17:41:07.948Z</time>
      </trkpt>
      <trkpt lat="42.90574" lon="0.14605">
        <ele>2023.2</ele>
        <time>2020-12-05T17:41:08.948Z</time>
      </trkpt>
      <trkpt lat="42.90574" lon="0.14605">
        <ele>2023.2</ele>
        <time>2020-12-05T17:41:09.947Z</time>
      </trkpt>
      <trkpt lat="42.90574" lon="0.14605">
        <ele>2023.2</ele>
        <time>2020-12-05T17:41:10.948Z</time>
      </trkpt>
      <trkpt lat="42.90569" lon="0.14616">
        <ele>2024.4</ele>
        <time>2020-12-05T17:41:11.948Z</time>
      </trkpt>
      <trkpt lat="42.90567" lon="0.14619">
        <ele>2024.4</ele>
        <time>2020-12-05T17:41:12.95Z</time>
      </trkpt>
      <trkpt lat="42.90567" lon="0.14619">
        <ele>2024.4</ele>
        <time>2020-12-05T17:41:13.948Z</time>
      </trkpt>
      <trkpt lat="42.90567" lon="0.14619">
        <ele>2024.4</ele>
        <time>2020-12-05T17:41:14.947Z</time>
      </trkpt>
      <trkpt lat="42.90567" lon="0.14619">
        <ele>2024.4</ele>
        <time>2020-12-05T17:41:15.948Z</time>
      </trkpt>
      <trkpt lat="42.90567" lon="0.14619">
        <ele>2024.4</ele>
        <time>2020-12-05T17:41:16.948Z</time>
      </trkpt>
      <trkpt lat="42.90567" lon="0.14619">
        <ele>2024.4</ele>
        <time>2020-12-05T17:41:17.948Z</time>
      </trkpt>
      <trkpt lat="42.90567" lon="0.14619">
        <ele>2024.4</ele>
        <time>2020-12-05T17:41:18.949Z</time>
      </trkpt>
      <trkpt lat="42.90561" lon="0.1463">
        <ele>2025.4</ele>
        <time>2020-12-05T17:41:19.947Z</time>
      </trkpt>
      <trkpt lat="42.90561" lon="0.1463">
        <ele>2025.4</ele>
        <time>2020-12-05T17:41:20.948Z</time>
      </trkpt>
      <trkpt lat="42.90561" lon="0.1463">
        <ele>2025.4</ele>
        <time>2020-12-05T17:41:21.949Z</time>
      </trkpt>
      <trkpt lat="42.90561" lon="0.1463">
        <ele>2025.4</ele>
        <time>2020-12-05T17:41:22.947Z</time>
      </trkpt>
      <trkpt lat="42.90561" lon="0.1463">
        <ele>2025.4</ele>
        <time>2020-12-05T17:41:23.95Z</time>
      </trkpt>
      <trkpt lat="42.90561" lon="0.1463">
        <ele>2025.4</ele>
        <time>2020-12-05T17:41:24.948Z</time>
      </trkpt>
      <trkpt lat="42.90556" lon="0.1464">
        <ele>2026.6</ele>
        <time>2020-12-05T17:41:25.95Z</time>
      </trkpt>
      <trkpt lat="42.90556" lon="0.1464">
        <ele>2026.6</ele>
        <time>2020-12-05T17:41:26.947Z</time>
      </trkpt>
      <trkpt lat="42.90556" lon="0.1464">
        <ele>2026.6</ele>
        <time>2020-12-05T17:41:27.948Z</time>
      </trkpt>
      <trkpt lat="42.90554" lon="0.14643">
        <ele>2026.8</ele>
        <time>2020-12-05T17:41:28.949Z</time>
      </trkpt>
      <trkpt lat="42.90554" lon="0.14643">
        <ele>2026.8</ele>
        <time>2020-12-05T17:41:29.95Z</time>
      </trkpt>
      <trkpt lat="42.90554" lon="0.14643">
        <ele>2026.8</ele>
        <time>2020-12-05T17:41:30.947Z</time>
      </trkpt>
      <trkpt lat="42.90554" lon="0.14643">
        <ele>2026.8</ele>
        <time>2020-12-05T17:41:31.949Z</time>
      </trkpt>
      <trkpt lat="42.90554" lon="0.14643">
        <ele>2026.8</ele>
        <time>2020-12-05T17:41:32.947Z</time>
      </trkpt>
      <trkpt lat="42.90554" lon="0.14643">
        <ele>2026.8</ele>
        <time>2020-12-05T17:41:33.947Z</time>
      </trkpt>
      <trkpt lat="42.90554" lon="0.14643">
        <ele>2026.8</ele>
        <time>2020-12-05T17:41:34.947Z</time>
      </trkpt>
      <trkpt lat="42.90554" lon="0.14643">
        <ele>2026.8</ele>
        <time>2020-12-05T17:41:35.949Z</time>
      </trkpt>
      <trkpt lat="42.90542" lon="0.14649">
        <ele>2027.6</ele>
        <time>2020-12-05T17:41:36.949Z</time>
      </trkpt>
      <trkpt lat="42.90542" lon="0.14649">
        <ele>2027.6</ele>
        <time>2020-12-05T17:41:37.95Z</time>
      </trkpt>
      <trkpt lat="42.90538" lon="0.1465">
        <ele>2027.8</ele>
        <time>2020-12-05T17:41:38.948Z</time>
      </trkpt>
      <trkpt lat="42.90538" lon="0.1465">
        <ele>2027.8</ele>
        <time>2020-12-05T17:41:39.947Z</time>
      </trkpt>
      <trkpt lat="42.90538" lon="0.1465">
        <ele>2027.8</ele>
        <time>2020-12-05T17:41:40.948Z</time>
      </trkpt>
      <trkpt lat="42.90538" lon="0.1465">
        <ele>2027.8</ele>
        <time>2020-12-05T17:41:41.948Z</time>
      </trkpt>
      <trkpt lat="42.90538" lon="0.1465">
        <ele>2027.8</ele>
        <time>2020-12-05T17:41:42.95Z</time>
      </trkpt>
      <trkpt lat="42.90538" lon="0.1465">
        <ele>2027.8</ele>
        <time>2020-12-05T17:41:43.948Z</time>
      </trkpt>
      <trkpt lat="42.90538" lon="0.1465">
        <ele>2027.8</ele>
        <time>2020-12-05T17:41:44.947Z</time>
      </trkpt>
      <trkpt lat="42.90538" lon="0.1465">
        <ele>2027.8</ele>
        <time>2020-12-05T17:41:45.949Z</time>
      </trkpt>
      <trkpt lat="42.90538" lon="0.1465">
        <ele>2027.8</ele>
        <time>2020-12-05T17:41:46.949Z</time>
      </trkpt>
      <trkpt lat="42.90538" lon="0.1465">
        <ele>2027.8</ele>
        <time>2020-12-05T17:41:47.947Z</time>
      </trkpt>
      <trkpt lat="42.90524" lon="0.14656">
        <ele>2028.8</ele>
        <time>2020-12-05T17:41:48.948Z</time>
      </trkpt>
      <trkpt lat="42.90524" lon="0.14656">
        <ele>2028.8</ele>
        <time>2020-12-05T17:41:49.947Z</time>
      </trkpt>
      <trkpt lat="42.90524" lon="0.14656">
        <ele>2028.8</ele>
        <time>2020-12-05T17:41:50.95Z</time>
      </trkpt>
      <trkpt lat="42.90524" lon="0.14656">
        <ele>2028.8</ele>
        <time>2020-12-05T17:41:51.949Z</time>
      </trkpt>
      <trkpt lat="42.90524" lon="0.14656">
        <ele>2028.8</ele>
        <time>2020-12-05T17:41:52.948Z</time>
      </trkpt>
      <trkpt lat="42.90518" lon="0.1466">
        <ele>2029.6</ele>
        <time>2020-12-05T17:41:53.948Z</time>
      </trkpt>
      <trkpt lat="42.90518" lon="0.1466">
        <ele>2029.6</ele>
        <time>2020-12-05T17:41:54.948Z</time>
      </trkpt>
      <trkpt lat="42.90515" lon="0.14662">
        <ele>2030</ele>
        <time>2020-12-05T17:41:55.948Z</time>
      </trkpt>
      <trkpt lat="42.90515" lon="0.14662">
        <ele>2030</ele>
        <time>2020-12-05T17:41:56.947Z</time>
      </trkpt>
      <trkpt lat="42.90515" lon="0.14662">
        <ele>2030</ele>
        <time>2020-12-05T17:41:57.947Z</time>
      </trkpt>
      <trkpt lat="42.90515" lon="0.14662">
        <ele>2030</ele>
        <time>2020-12-05T17:41:58.947Z</time>
      </trkpt>
      <trkpt lat="42.90513" lon="0.14669">
        <ele>2030.2</ele>
        <time>2020-12-05T17:41:59.947Z</time>
      </trkpt>
      <trkpt lat="42.90513" lon="0.14672">
        <ele>2030.4</ele>
        <time>2020-12-05T17:42:00.948Z</time>
      </trkpt>
      <trkpt lat="42.90513" lon="0.14672">
        <ele>2030.4</ele>
        <time>2020-12-05T17:42:01.947Z</time>
      </trkpt>
      <trkpt lat="42.90513" lon="0.14672">
        <ele>2030.4</ele>
        <time>2020-12-05T17:42:02.948Z</time>
      </trkpt>
      <trkpt lat="42.90513" lon="0.14672">
        <ele>2030.4</ele>
        <time>2020-12-05T17:42:03.948Z</time>
      </trkpt>
      <trkpt lat="42.90513" lon="0.14672">
        <ele>2030.4</ele>
        <time>2020-12-05T17:42:04.95Z</time>
      </trkpt>
      <trkpt lat="42.90518" lon="0.14677">
        <ele>2031</ele>
        <time>2020-12-05T17:42:05.948Z</time>
      </trkpt>
      <trkpt lat="42.90521" lon="0.14678">
        <ele>2031.2</ele>
        <time>2020-12-05T17:42:06.948Z</time>
      </trkpt>
      <trkpt lat="42.90521" lon="0.14678">
        <ele>2031.2</ele>
        <time>2020-12-05T17:42:07.95Z</time>
      </trkpt>
      <trkpt lat="42.90521" lon="0.14678">
        <ele>2031.2</ele>
        <time>2020-12-05T17:42:08.948Z</time>
      </trkpt>
      <trkpt lat="42.90521" lon="0.14678">
        <ele>2031.2</ele>
        <time>2020-12-05T17:42:09.948Z</time>
      </trkpt>
      <trkpt lat="42.90526" lon="0.14676">
        <ele>2031.6</ele>
        <time>2020-12-05T17:42:10.948Z</time>
      </trkpt>
      <trkpt lat="42.90529" lon="0.14675">
        <ele>2032.2</ele>
        <time>2020-12-05T17:42:11.949Z</time>
      </trkpt>
      <trkpt lat="42.90529" lon="0.14675">
        <ele>2032.2</ele>
        <time>2020-12-05T17:42:12.947Z</time>
      </trkpt>
      <trkpt lat="42.90529" lon="0.14675">
        <ele>2032.2</ele>
        <time>2020-12-05T17:42:13.948Z</time>
      </trkpt>
      <trkpt lat="42.90529" lon="0.14675">
        <ele>2032.2</ele>
        <time>2020-12-05T17:42:14.948Z</time>
      </trkpt>
      <trkpt lat="42.90529" lon="0.14675">
        <ele>2032.2</ele>
        <time>2020-12-05T17:42:15.948Z</time>
      </trkpt>
      <trkpt lat="42.90535" lon="0.14674">
        <ele>2032.8</ele>
        <time>2020-12-05T17:42:16.95Z</time>
      </trkpt>
      <trkpt lat="42.90535" lon="0.14674">
        <ele>2032.8</ele>
        <time>2020-12-05T17:42:17.948Z</time>
      </trkpt>
      <trkpt lat="42.90537" lon="0.14674">
        <ele>2033.2</ele>
        <time>2020-12-05T17:42:18.95Z</time>
      </trkpt>
      <trkpt lat="42.90537" lon="0.14674">
        <ele>2033.2</ele>
        <time>2020-12-05T17:42:19.947Z</time>
      </trkpt>
      <trkpt lat="42.90537" lon="0.14674">
        <ele>2033.2</ele>
        <time>2020-12-05T17:42:20.948Z</time>
      </trkpt>
      <trkpt lat="42.90543" lon="0.14673">
        <ele>2034.2</ele>
        <time>2020-12-05T17:42:21.947Z</time>
      </trkpt>
      <trkpt lat="42.90543" lon="0.14673">
        <ele>2034.2</ele>
        <time>2020-12-05T17:42:22.947Z</time>
      </trkpt>
      <trkpt lat="42.90543" lon="0.14673">
        <ele>2034.2</ele>
        <time>2020-12-05T17:42:23.947Z</time>
      </trkpt>
      <trkpt lat="42.90543" lon="0.14673">
        <ele>2034.2</ele>
        <time>2020-12-05T17:42:24.95Z</time>
      </trkpt>
      <trkpt lat="42.90543" lon="0.14673">
        <ele>2034.2</ele>
        <time>2020-12-05T17:42:25.948Z</time>
      </trkpt>
      <trkpt lat="42.90543" lon="0.14673">
        <ele>2034.2</ele>
        <time>2020-12-05T17:42:26.948Z</time>
      </trkpt>
      <trkpt lat="42.90551" lon="0.14669">
        <ele>2035.2</ele>
        <time>2020-12-05T17:42:27.949Z</time>
      </trkpt>
      <trkpt lat="42.90554" lon="0.14668">
        <ele>2035.6</ele>
        <time>2020-12-05T17:42:28.947Z</time>
      </trkpt>
      <trkpt lat="42.90554" lon="0.14668">
        <ele>2035.6</ele>
        <time>2020-12-05T17:42:29.948Z</time>
      </trkpt>
      <trkpt lat="42.90554" lon="0.14668">
        <ele>2035.6</ele>
        <time>2020-12-05T17:42:30.948Z</time>
      </trkpt>
      <trkpt lat="42.90554" lon="0.14668">
        <ele>2035.6</ele>
        <time>2020-12-05T17:42:31.947Z</time>
      </trkpt>
      <trkpt lat="42.90554" lon="0.14668">
        <ele>2035.6</ele>
        <time>2020-12-05T17:42:32.95Z</time>
      </trkpt>
      <trkpt lat="42.90561" lon="0.14664">
        <ele>2036.4</ele>
        <time>2020-12-05T17:42:33.948Z</time>
      </trkpt>
      <trkpt lat="42.90561" lon="0.14664">
        <ele>2036.4</ele>
        <time>2020-12-05T17:42:34.947Z</time>
      </trkpt>
      <trkpt lat="42.90561" lon="0.14664">
        <ele>2036.4</ele>
        <time>2020-12-05T17:42:35.949Z</time>
      </trkpt>
      <trkpt lat="42.90561" lon="0.14664">
        <ele>2036.4</ele>
        <time>2020-12-05T17:42:36.947Z</time>
      </trkpt>
      <trkpt lat="42.90561" lon="0.14664">
        <ele>2036.4</ele>
        <time>2020-12-05T17:42:37.948Z</time>
      </trkpt>
      <trkpt lat="42.90561" lon="0.14664">
        <ele>2036.4</ele>
        <time>2020-12-05T17:42:38.95Z</time>
      </trkpt>
      <trkpt lat="42.90561" lon="0.14664">
        <ele>2036.4</ele>
        <time>2020-12-05T17:42:39.947Z</time>
      </trkpt>
      <trkpt lat="42.90571" lon="0.14659">
        <ele>2037.2</ele>
        <time>2020-12-05T17:42:40.949Z</time>
      </trkpt>
      <trkpt lat="42.90571" lon="0.14659">
        <ele>2037.2</ele>
        <time>2020-12-05T17:42:41.948Z</time>
      </trkpt>
      <trkpt lat="42.90571" lon="0.14659">
        <ele>2037.2</ele>
        <time>2020-12-05T17:42:42.948Z</time>
      </trkpt>
      <trkpt lat="42.90571" lon="0.14659">
        <ele>2037.2</ele>
        <time>2020-12-05T17:42:43.95Z</time>
      </trkpt>
      <trkpt lat="42.90576" lon="0.14654">
        <ele>2038</ele>
        <time>2020-12-05T17:42:44.948Z</time>
      </trkpt>
      <trkpt lat="42.90576" lon="0.14654">
        <ele>2038</ele>
        <time>2020-12-05T17:42:45.948Z</time>
      </trkpt>
      <trkpt lat="42.90579" lon="0.14652">
        <ele>2038.4</ele>
        <time>2020-12-05T17:42:46.949Z</time>
      </trkpt>
      <trkpt lat="42.90579" lon="0.14652">
        <ele>2038.4</ele>
        <time>2020-12-05T17:42:47.947Z</time>
      </trkpt>
      <trkpt lat="42.90579" lon="0.14652">
        <ele>2038.4</ele>
        <time>2020-12-05T17:42:48.948Z</time>
      </trkpt>
      <trkpt lat="42.90579" lon="0.14652">
        <ele>2038.4</ele>
        <time>2020-12-05T17:42:49.949Z</time>
      </trkpt>
      <trkpt lat="42.90579" lon="0.14652">
        <ele>2038.4</ele>
        <time>2020-12-05T17:42:50.95Z</time>
      </trkpt>
      <trkpt lat="42.90579" lon="0.14652">
        <ele>2038.4</ele>
        <time>2020-12-05T17:42:51.948Z</time>
      </trkpt>
      <trkpt lat="42.90579" lon="0.14652">
        <ele>2038.4</ele>
        <time>2020-12-05T17:42:52.948Z</time>
      </trkpt>
      <trkpt lat="42.90579" lon="0.14652">
        <ele>2038.4</ele>
        <time>2020-12-05T17:42:53.948Z</time>
      </trkpt>
      <trkpt lat="42.90579" lon="0.14652">
        <ele>2038.4</ele>
        <time>2020-12-05T17:42:54.948Z</time>
      </trkpt>
      <trkpt lat="42.90579" lon="0.14652">
        <ele>2038.4</ele>
        <time>2020-12-05T17:42:55.949Z</time>
      </trkpt>
      <trkpt lat="42.90579" lon="0.14652">
        <ele>2038.4</ele>
        <time>2020-12-05T17:42:56.948Z</time>
      </trkpt>
      <trkpt lat="42.90588" lon="0.1464">
        <ele>2039.6</ele>
        <time>2020-12-05T17:42:57.951Z</time>
      </trkpt>
      <trkpt lat="42.90588" lon="0.1464">
        <ele>2039.6</ele>
        <time>2020-12-05T17:42:58.948Z</time>
      </trkpt>
      <trkpt lat="42.9059" lon="0.14637">
        <ele>2039.8</ele>
        <time>2020-12-05T17:42:59.949Z</time>
      </trkpt>
      <trkpt lat="42.9059" lon="0.14637">
        <ele>2039.8</ele>
        <time>2020-12-05T17:43:00.947Z</time>
      </trkpt>
      <trkpt lat="42.9059" lon="0.14637">
        <ele>2039.8</ele>
        <time>2020-12-05T17:43:01.949Z</time>
      </trkpt>
      <trkpt lat="42.9059" lon="0.14637">
        <ele>2039.8</ele>
        <time>2020-12-05T17:43:02.948Z</time>
      </trkpt>
      <trkpt lat="42.9059" lon="0.14637">
        <ele>2039.8</ele>
        <time>2020-12-05T17:43:03.949Z</time>
      </trkpt>
      <trkpt lat="42.9059" lon="0.14637">
        <ele>2039.8</ele>
        <time>2020-12-05T17:43:04.947Z</time>
      </trkpt>
      <trkpt lat="42.90596" lon="0.14628">
        <ele>2041</ele>
        <time>2020-12-05T17:43:05.947Z</time>
      </trkpt>
      <trkpt lat="42.90596" lon="0.14628">
        <ele>2041</ele>
        <time>2020-12-05T17:43:06.947Z</time>
      </trkpt>
      <trkpt lat="42.90596" lon="0.14628">
        <ele>2041</ele>
        <time>2020-12-05T17:43:07.948Z</time>
      </trkpt>
      <trkpt lat="42.90596" lon="0.14628">
        <ele>2041</ele>
        <time>2020-12-05T17:43:08.948Z</time>
      </trkpt>
      <trkpt lat="42.90596" lon="0.14628">
        <ele>2041</ele>
        <time>2020-12-05T17:43:09.949Z</time>
      </trkpt>
      <trkpt lat="42.90596" lon="0.14628">
        <ele>2041</ele>
        <time>2020-12-05T17:43:10.948Z</time>
      </trkpt>
      <trkpt lat="42.90596" lon="0.14628">
        <ele>2041</ele>
        <time>2020-12-05T17:43:11.949Z</time>
      </trkpt>
      <trkpt lat="42.90596" lon="0.14628">
        <ele>2041</ele>
        <time>2020-12-05T17:43:12.948Z</time>
      </trkpt>
      <trkpt lat="42.90606" lon="0.14618">
        <ele>2042</ele>
        <time>2020-12-05T17:43:13.947Z</time>
      </trkpt>
      <trkpt lat="42.90606" lon="0.14618">
        <ele>2042</ele>
        <time>2020-12-05T17:43:14.947Z</time>
      </trkpt>
      <trkpt lat="42.90606" lon="0.14618">
        <ele>2042</ele>
        <time>2020-12-05T17:43:15.95Z</time>
      </trkpt>
      <trkpt lat="42.90606" lon="0.14618">
        <ele>2042</ele>
        <time>2020-12-05T17:43:16.948Z</time>
      </trkpt>
      <trkpt lat="42.90606" lon="0.14618">
        <ele>2042</ele>
        <time>2020-12-05T17:43:17.947Z</time>
      </trkpt>
      <trkpt lat="42.90613" lon="0.14609">
        <ele>2043</ele>
        <time>2020-12-05T17:43:18.947Z</time>
      </trkpt>
      <trkpt lat="42.90613" lon="0.14609">
        <ele>2043</ele>
        <time>2020-12-05T17:43:19.948Z</time>
      </trkpt>
      <trkpt lat="42.90613" lon="0.14609">
        <ele>2043</ele>
        <time>2020-12-05T17:43:20.948Z</time>
      </trkpt>
      <trkpt lat="42.90613" lon="0.14609">
        <ele>2043</ele>
        <time>2020-12-05T17:43:21.947Z</time>
      </trkpt>
      <trkpt lat="42.90613" lon="0.14609">
        <ele>2043</ele>
        <time>2020-12-05T17:43:22.947Z</time>
      </trkpt>
      <trkpt lat="42.90613" lon="0.14609">
        <ele>2043</ele>
        <time>2020-12-05T17:43:23.949Z</time>
      </trkpt>
      <trkpt lat="42.90613" lon="0.14609">
        <ele>2043</ele>
        <time>2020-12-05T17:43:24.949Z</time>
      </trkpt>
      <trkpt lat="42.9062" lon="0.14601">
        <ele>2044.4</ele>
        <time>2020-12-05T17:43:25.947Z</time>
      </trkpt>
      <trkpt lat="42.9062" lon="0.14601">
        <ele>2044.4</ele>
        <time>2020-12-05T17:43:26.947Z</time>
      </trkpt>
      <trkpt lat="42.9062" lon="0.14601">
        <ele>2044.4</ele>
        <time>2020-12-05T17:43:27.948Z</time>
      </trkpt>
      <trkpt lat="42.9062" lon="0.14601">
        <ele>2044.4</ele>
        <time>2020-12-05T17:43:28.948Z</time>
      </trkpt>
      <trkpt lat="42.9062" lon="0.14601">
        <ele>2044.4</ele>
        <time>2020-12-05T17:43:29.949Z</time>
      </trkpt>
      <trkpt lat="42.9062" lon="0.14601">
        <ele>2044.4</ele>
        <time>2020-12-05T17:43:30.947Z</time>
      </trkpt>
      <trkpt lat="42.9062" lon="0.14601">
        <ele>2044.4</ele>
        <time>2020-12-05T17:43:31.949Z</time>
      </trkpt>
      <trkpt lat="42.9062" lon="0.14601">
        <ele>2044.4</ele>
        <time>2020-12-05T17:43:32.948Z</time>
      </trkpt>
      <trkpt lat="42.90631" lon="0.14591">
        <ele>2045.6</ele>
        <time>2020-12-05T17:43:33.949Z</time>
      </trkpt>
      <trkpt lat="42.90633" lon="0.1459">
        <ele>2046</ele>
        <time>2020-12-05T17:43:34.948Z</time>
      </trkpt>
      <trkpt lat="42.90633" lon="0.1459">
        <ele>2046</ele>
        <time>2020-12-05T17:43:35.949Z</time>
      </trkpt>
      <trkpt lat="42.90633" lon="0.1459">
        <ele>2046</ele>
        <time>2020-12-05T17:43:36.95Z</time>
      </trkpt>
      <trkpt lat="42.90633" lon="0.1459">
        <ele>2046</ele>
        <time>2020-12-05T17:43:37.947Z</time>
      </trkpt>
      <trkpt lat="42.90633" lon="0.1459">
        <ele>2046</ele>
        <time>2020-12-05T17:43:38.947Z</time>
      </trkpt>
      <trkpt lat="42.90639" lon="0.14586">
        <ele>2046.6</ele>
        <time>2020-12-05T17:43:39.947Z</time>
      </trkpt>
      <trkpt lat="42.90639" lon="0.14586">
        <ele>2046.6</ele>
        <time>2020-12-05T17:43:40.948Z</time>
      </trkpt>
      <trkpt lat="42.90639" lon="0.14586">
        <ele>2046.6</ele>
        <time>2020-12-05T17:43:41.947Z</time>
      </trkpt>
      <trkpt lat="42.90639" lon="0.14586">
        <ele>2046.6</ele>
        <time>2020-12-05T17:43:42.947Z</time>
      </trkpt>
      <trkpt lat="42.90639" lon="0.14586">
        <ele>2046.6</ele>
        <time>2020-12-05T17:43:43.948Z</time>
      </trkpt>
      <trkpt lat="42.90639" lon="0.14586">
        <ele>2046.6</ele>
        <time>2020-12-05T17:43:44.948Z</time>
      </trkpt>
      <trkpt lat="42.90639" lon="0.14586">
        <ele>2046.6</ele>
        <time>2020-12-05T17:43:45.95Z</time>
      </trkpt>
      <trkpt lat="42.90651" lon="0.14579">
        <ele>2048</ele>
        <time>2020-12-05T17:43:46.949Z</time>
      </trkpt>
      <trkpt lat="42.90651" lon="0.14579">
        <ele>2048</ele>
        <time>2020-12-05T17:43:47.948Z</time>
      </trkpt>
      <trkpt lat="42.90651" lon="0.14579">
        <ele>2048</ele>
        <time>2020-12-05T17:43:48.947Z</time>
      </trkpt>
      <trkpt lat="42.90651" lon="0.14579">
        <ele>2048</ele>
        <time>2020-12-05T17:43:49.947Z</time>
      </trkpt>
      <trkpt lat="42.90651" lon="0.14579">
        <ele>2048</ele>
        <time>2020-12-05T17:43:51.448Z</time>
      </trkpt>
      <trkpt lat="42.90651" lon="0.14579">
        <ele>2048</ele>
        <time>2020-12-05T17:43:51.949Z</time>
      </trkpt>
      <trkpt lat="42.90651" lon="0.14579">
        <ele>2048</ele>
        <time>2020-12-05T17:43:53.949Z</time>
      </trkpt>
      <trkpt lat="42.90651" lon="0.14579">
        <ele>2048</ele>
        <time>2020-12-05T17:43:54.951Z</time>
      </trkpt>
      <trkpt lat="42.90651" lon="0.14579">
        <ele>2048</ele>
        <time>2020-12-05T17:43:55.947Z</time>
      </trkpt>
      <trkpt lat="42.90662" lon="0.1457">
        <ele>2049</ele>
        <time>2020-12-05T17:43:56.95Z</time>
      </trkpt>
      <trkpt lat="42.90662" lon="0.1457">
        <ele>2049</ele>
        <time>2020-12-05T17:43:57.949Z</time>
      </trkpt>
      <trkpt lat="42.90662" lon="0.1457">
        <ele>2049</ele>
        <time>2020-12-05T17:43:58.947Z</time>
      </trkpt>
      <trkpt lat="42.90665" lon="0.14565">
        <ele>2049.6</ele>
        <time>2020-12-05T17:43:59.948Z</time>
      </trkpt>
      <trkpt lat="42.90665" lon="0.14565">
        <ele>2049.6</ele>
        <time>2020-12-05T17:44:00.947Z</time>
      </trkpt>
      <trkpt lat="42.90665" lon="0.14565">
        <ele>2049.6</ele>
        <time>2020-12-05T17:44:01.948Z</time>
      </trkpt>
      <trkpt lat="42.90665" lon="0.14565">
        <ele>2049.6</ele>
        <time>2020-12-05T17:44:02.948Z</time>
      </trkpt>
      <trkpt lat="42.90669" lon="0.1456">
        <ele>2050.2</ele>
        <time>2020-12-05T17:44:03.948Z</time>
      </trkpt>
      <trkpt lat="42.90669" lon="0.1456">
        <ele>2050.2</ele>
        <time>2020-12-05T17:44:04.948Z</time>
      </trkpt>
      <trkpt lat="42.90669" lon="0.1456">
        <ele>2050.2</ele>
        <time>2020-12-05T17:44:05.947Z</time>
      </trkpt>
      <trkpt lat="42.90669" lon="0.1456">
        <ele>2050.2</ele>
        <time>2020-12-05T17:44:06.948Z</time>
      </trkpt>
      <trkpt lat="42.90669" lon="0.1456">
        <ele>2050.2</ele>
        <time>2020-12-05T17:44:07.95Z</time>
      </trkpt>
      <trkpt lat="42.90669" lon="0.1456">
        <ele>2050.2</ele>
        <time>2020-12-05T17:44:08.949Z</time>
      </trkpt>
      <trkpt lat="42.90669" lon="0.1456">
        <ele>2050.2</ele>
        <time>2020-12-05T17:44:09.947Z</time>
      </trkpt>
      <trkpt lat="42.90676" lon="0.14549">
        <ele>2051.4</ele>
        <time>2020-12-05T17:44:10.947Z</time>
      </trkpt>
      <trkpt lat="42.90676" lon="0.14549">
        <ele>2051.4</ele>
        <time>2020-12-05T17:44:11.947Z</time>
      </trkpt>
      <trkpt lat="42.90676" lon="0.14549">
        <ele>2051.4</ele>
        <time>2020-12-05T17:44:12.947Z</time>
      </trkpt>
      <trkpt lat="42.90676" lon="0.14549">
        <ele>2051.4</ele>
        <time>2020-12-05T17:44:13.948Z</time>
      </trkpt>
      <trkpt lat="42.90676" lon="0.14549">
        <ele>2051.4</ele>
        <time>2020-12-05T17:44:14.949Z</time>
      </trkpt>
      <trkpt lat="42.90676" lon="0.14549">
        <ele>2051.4</ele>
        <time>2020-12-05T17:44:15.947Z</time>
      </trkpt>
      <trkpt lat="42.90676" lon="0.14549">
        <ele>2051.4</ele>
        <time>2020-12-05T17:44:16.95Z</time>
      </trkpt>
      <trkpt lat="42.90684" lon="0.14538">
        <ele>2052.4</ele>
        <time>2020-12-05T17:44:17.949Z</time>
      </trkpt>
      <trkpt lat="42.90684" lon="0.14538">
        <ele>2052.4</ele>
        <time>2020-12-05T17:44:18.949Z</time>
      </trkpt>
      <trkpt lat="42.90684" lon="0.14538">
        <ele>2052.4</ele>
        <time>2020-12-05T17:44:19.949Z</time>
      </trkpt>
      <trkpt lat="42.90684" lon="0.14538">
        <ele>2052.4</ele>
        <time>2020-12-05T17:44:20.948Z</time>
      </trkpt>
      <trkpt lat="42.90684" lon="0.14538">
        <ele>2052.4</ele>
        <time>2020-12-05T17:44:21.947Z</time>
      </trkpt>
      <trkpt lat="42.90691" lon="0.14533">
        <ele>2053.6</ele>
        <time>2020-12-05T17:44:22.95Z</time>
      </trkpt>
      <trkpt lat="42.90691" lon="0.14533">
        <ele>2053.6</ele>
        <time>2020-12-05T17:44:23.948Z</time>
      </trkpt>
      <trkpt lat="42.90691" lon="0.14533">
        <ele>2053.6</ele>
        <time>2020-12-05T17:44:24.947Z</time>
      </trkpt>
      <trkpt lat="42.90691" lon="0.14533">
        <ele>2053.6</ele>
        <time>2020-12-05T17:44:25.95Z</time>
      </trkpt>
      <trkpt lat="42.90691" lon="0.14533">
        <ele>2053.6</ele>
        <time>2020-12-05T17:44:26.948Z</time>
      </trkpt>
      <trkpt lat="42.90691" lon="0.14533">
        <ele>2053.6</ele>
        <time>2020-12-05T17:44:27.948Z</time>
      </trkpt>
      <trkpt lat="42.90698" lon="0.14529">
        <ele>2054.8</ele>
        <time>2020-12-05T17:44:28.95Z</time>
      </trkpt>
      <trkpt lat="42.90698" lon="0.14529">
        <ele>2054.8</ele>
        <time>2020-12-05T17:44:29.949Z</time>
      </trkpt>
      <trkpt lat="42.90698" lon="0.14529">
        <ele>2054.8</ele>
        <time>2020-12-05T17:44:30.948Z</time>
      </trkpt>
      <trkpt lat="42.90698" lon="0.14529">
        <ele>2054.8</ele>
        <time>2020-12-05T17:44:31.948Z</time>
      </trkpt>
      <trkpt lat="42.90705" lon="0.14525">
        <ele>2055.6</ele>
        <time>2020-12-05T17:44:32.948Z</time>
      </trkpt>
      <trkpt lat="42.90705" lon="0.14525">
        <ele>2055.6</ele>
        <time>2020-12-05T17:44:33.949Z</time>
      </trkpt>
      <trkpt lat="42.90708" lon="0.14524">
        <ele>2056</ele>
        <time>2020-12-05T17:44:34.947Z</time>
      </trkpt>
      <trkpt lat="42.90708" lon="0.14524">
        <ele>2056</ele>
        <time>2020-12-05T17:44:35.949Z</time>
      </trkpt>
      <trkpt lat="42.90708" lon="0.14524">
        <ele>2056</ele>
        <time>2020-12-05T17:44:36.948Z</time>
      </trkpt>
      <trkpt lat="42.90708" lon="0.14524">
        <ele>2056</ele>
        <time>2020-12-05T17:44:37.948Z</time>
      </trkpt>
      <trkpt lat="42.90708" lon="0.14524">
        <ele>2056</ele>
        <time>2020-12-05T17:44:38.948Z</time>
      </trkpt>
      <trkpt lat="42.90708" lon="0.14524">
        <ele>2056</ele>
        <time>2020-12-05T17:44:39.949Z</time>
      </trkpt>
      <trkpt lat="42.90717" lon="0.14521">
        <ele>2057.2</ele>
        <time>2020-12-05T17:44:40.949Z</time>
      </trkpt>
      <trkpt lat="42.90717" lon="0.14521">
        <ele>2057.2</ele>
        <time>2020-12-05T17:44:41.948Z</time>
      </trkpt>
      <trkpt lat="42.90717" lon="0.14521">
        <ele>2057.2</ele>
        <time>2020-12-05T17:44:42.948Z</time>
      </trkpt>
      <trkpt lat="42.90717" lon="0.14521">
        <ele>2057.2</ele>
        <time>2020-12-05T17:44:43.948Z</time>
      </trkpt>
      <trkpt lat="42.90717" lon="0.14521">
        <ele>2057.2</ele>
        <time>2020-12-05T17:44:44.948Z</time>
      </trkpt>
      <trkpt lat="42.90724" lon="0.14519">
        <ele>2058.4</ele>
        <time>2020-12-05T17:44:45.947Z</time>
      </trkpt>
      <trkpt lat="42.90724" lon="0.14519">
        <ele>2058.4</ele>
        <time>2020-12-05T17:44:46.948Z</time>
      </trkpt>
      <trkpt lat="42.90724" lon="0.14519">
        <ele>2058.4</ele>
        <time>2020-12-05T17:44:47.947Z</time>
      </trkpt>
      <trkpt lat="42.90724" lon="0.14519">
        <ele>2058.4</ele>
        <time>2020-12-05T17:44:48.948Z</time>
      </trkpt>
      <trkpt lat="42.90724" lon="0.14519">
        <ele>2058.4</ele>
        <time>2020-12-05T17:44:49.948Z</time>
      </trkpt>
      <trkpt lat="42.90724" lon="0.14519">
        <ele>2058.4</ele>
        <time>2020-12-05T17:44:50.948Z</time>
      </trkpt>
      <trkpt lat="42.90724" lon="0.14519">
        <ele>2058.4</ele>
        <time>2020-12-05T17:44:51.948Z</time>
      </trkpt>
      <trkpt lat="42.90732" lon="0.14518">
        <ele>2059.8</ele>
        <time>2020-12-05T17:44:52.948Z</time>
      </trkpt>
      <trkpt lat="42.90732" lon="0.14518">
        <ele>2059.8</ele>
        <time>2020-12-05T17:44:53.947Z</time>
      </trkpt>
      <trkpt lat="42.90732" lon="0.14518">
        <ele>2059.8</ele>
        <time>2020-12-05T17:44:54.949Z</time>
      </trkpt>
      <trkpt lat="42.90732" lon="0.14518">
        <ele>2059.8</ele>
        <time>2020-12-05T17:44:55.947Z</time>
      </trkpt>
      <trkpt lat="42.90732" lon="0.14518">
        <ele>2059.8</ele>
        <time>2020-12-05T17:44:56.947Z</time>
      </trkpt>
      <trkpt lat="42.9074" lon="0.14518">
        <ele>2060.8</ele>
        <time>2020-12-05T17:44:57.948Z</time>
      </trkpt>
      <trkpt lat="42.9074" lon="0.14518">
        <ele>2060.8</ele>
        <time>2020-12-05T17:44:58.95Z</time>
      </trkpt>
      <trkpt lat="42.9074" lon="0.14518">
        <ele>2060.8</ele>
        <time>2020-12-05T17:44:59.947Z</time>
      </trkpt>
      <trkpt lat="42.9074" lon="0.14518">
        <ele>2060.8</ele>
        <time>2020-12-05T17:45:00.947Z</time>
      </trkpt>
      <trkpt lat="42.9074" lon="0.14518">
        <ele>2060.8</ele>
        <time>2020-12-05T17:45:01.949Z</time>
      </trkpt>
      <trkpt lat="42.9074" lon="0.14518">
        <ele>2060.8</ele>
        <time>2020-12-05T17:45:02.947Z</time>
      </trkpt>
      <trkpt lat="42.9074" lon="0.14518">
        <ele>2060.8</ele>
        <time>2020-12-05T17:45:03.95Z</time>
      </trkpt>
      <trkpt lat="42.90751" lon="0.14518">
        <ele>2062</ele>
        <time>2020-12-05T17:45:04.947Z</time>
      </trkpt>
      <trkpt lat="42.90751" lon="0.14518">
        <ele>2062</ele>
        <time>2020-12-05T17:45:05.947Z</time>
      </trkpt>
      <trkpt lat="42.90751" lon="0.14518">
        <ele>2062</ele>
        <time>2020-12-05T17:45:06.949Z</time>
      </trkpt>
      <trkpt lat="42.90751" lon="0.14518">
        <ele>2062</ele>
        <time>2020-12-05T17:45:07.949Z</time>
      </trkpt>
      <trkpt lat="42.90751" lon="0.14518">
        <ele>2062</ele>
        <time>2020-12-05T17:45:08.95Z</time>
      </trkpt>
      <trkpt lat="42.90751" lon="0.14518">
        <ele>2062</ele>
        <time>2020-12-05T17:45:09.948Z</time>
      </trkpt>
      <trkpt lat="42.9076" lon="0.14522">
        <ele>2062.8</ele>
        <time>2020-12-05T17:45:10.948Z</time>
      </trkpt>
      <trkpt lat="42.9076" lon="0.14522">
        <ele>2062.8</ele>
        <time>2020-12-05T17:45:11.949Z</time>
      </trkpt>
      <trkpt lat="42.90763" lon="0.14523">
        <ele>2063.2</ele>
        <time>2020-12-05T17:45:12.949Z</time>
      </trkpt>
      <trkpt lat="42.90763" lon="0.14523">
        <ele>2063.2</ele>
        <time>2020-12-05T17:45:13.947Z</time>
      </trkpt>
      <trkpt lat="42.90763" lon="0.14523">
        <ele>2063.2</ele>
        <time>2020-12-05T17:45:14.95Z</time>
      </trkpt>
      <trkpt lat="42.90763" lon="0.14523">
        <ele>2063.2</ele>
        <time>2020-12-05T17:45:15.948Z</time>
      </trkpt>
      <trkpt lat="42.90768" lon="0.14525">
        <ele>2064.4</ele>
        <time>2020-12-05T17:45:16.949Z</time>
      </trkpt>
      <trkpt lat="42.90768" lon="0.14525">
        <ele>2064.4</ele>
        <time>2020-12-05T17:45:17.948Z</time>
      </trkpt>
      <trkpt lat="42.90768" lon="0.14525">
        <ele>2064.4</ele>
        <time>2020-12-05T17:45:18.949Z</time>
      </trkpt>
      <trkpt lat="42.90768" lon="0.14525">
        <ele>2064.4</ele>
        <time>2020-12-05T17:45:19.95Z</time>
      </trkpt>
      <trkpt lat="42.90768" lon="0.14525">
        <ele>2064.4</ele>
        <time>2020-12-05T17:45:20.948Z</time>
      </trkpt>
      <trkpt lat="42.90768" lon="0.14525">
        <ele>2064.4</ele>
        <time>2020-12-05T17:45:21.947Z</time>
      </trkpt>
      <trkpt lat="42.90777" lon="0.14527">
        <ele>2065.6</ele>
        <time>2020-12-05T17:45:22.948Z</time>
      </trkpt>
      <trkpt lat="42.90777" lon="0.14527">
        <ele>2065.6</ele>
        <time>2020-12-05T17:45:23.949Z</time>
      </trkpt>
      <trkpt lat="42.90777" lon="0.14527">
        <ele>2065.6</ele>
        <time>2020-12-05T17:45:24.947Z</time>
      </trkpt>
      <trkpt lat="42.90777" lon="0.14527">
        <ele>2065.6</ele>
        <time>2020-12-05T17:45:25.948Z</time>
      </trkpt>
      <trkpt lat="42.90777" lon="0.14527">
        <ele>2065.6</ele>
        <time>2020-12-05T17:45:26.947Z</time>
      </trkpt>
      <trkpt lat="42.90786" lon="0.14526">
        <ele>2066.4</ele>
        <time>2020-12-05T17:45:27.948Z</time>
      </trkpt>
      <trkpt lat="42.90786" lon="0.14526">
        <ele>2066.4</ele>
        <time>2020-12-05T17:45:28.949Z</time>
      </trkpt>
      <trkpt lat="42.90786" lon="0.14526">
        <ele>2066.4</ele>
        <time>2020-12-05T17:45:29.95Z</time>
      </trkpt>
      <trkpt lat="42.90786" lon="0.14526">
        <ele>2066.4</ele>
        <time>2020-12-05T17:45:30.947Z</time>
      </trkpt>
      <trkpt lat="42.90786" lon="0.14526">
        <ele>2066.4</ele>
        <time>2020-12-05T17:45:31.948Z</time>
      </trkpt>
      <trkpt lat="42.90786" lon="0.14526">
        <ele>2066.4</ele>
        <time>2020-12-05T17:45:32.947Z</time>
      </trkpt>
      <trkpt lat="42.90786" lon="0.14526">
        <ele>2066.4</ele>
        <time>2020-12-05T17:45:33.949Z</time>
      </trkpt>
      <trkpt lat="42.90795" lon="0.14522">
        <ele>2067.8</ele>
        <time>2020-12-05T17:45:34.947Z</time>
      </trkpt>
      <trkpt lat="42.90795" lon="0.14522">
        <ele>2067.8</ele>
        <time>2020-12-05T17:45:35.947Z</time>
      </trkpt>
      <trkpt lat="42.90795" lon="0.14522">
        <ele>2067.8</ele>
        <time>2020-12-05T17:45:36.947Z</time>
      </trkpt>
      <trkpt lat="42.90795" lon="0.14522">
        <ele>2067.8</ele>
        <time>2020-12-05T17:45:37.947Z</time>
      </trkpt>
      <trkpt lat="42.90795" lon="0.14522">
        <ele>2067.8</ele>
        <time>2020-12-05T17:45:38.948Z</time>
      </trkpt>
      <trkpt lat="42.90795" lon="0.14522">
        <ele>2067.8</ele>
        <time>2020-12-05T17:45:39.947Z</time>
      </trkpt>
      <trkpt lat="42.90805" lon="0.14519">
        <ele>2068.8</ele>
        <time>2020-12-05T17:45:40.948Z</time>
      </trkpt>
      <trkpt lat="42.90805" lon="0.14519">
        <ele>2068.8</ele>
        <time>2020-12-05T17:45:41.948Z</time>
      </trkpt>
      <trkpt lat="42.90805" lon="0.14519">
        <ele>2068.8</ele>
        <time>2020-12-05T17:45:42.948Z</time>
      </trkpt>
      <trkpt lat="42.90805" lon="0.14519">
        <ele>2068.8</ele>
        <time>2020-12-05T17:45:43.95Z</time>
      </trkpt>
      <trkpt lat="42.90805" lon="0.14519">
        <ele>2068.8</ele>
        <time>2020-12-05T17:45:44.949Z</time>
      </trkpt>
      <trkpt lat="42.90805" lon="0.14519">
        <ele>2068.8</ele>
        <time>2020-12-05T17:45:45.948Z</time>
      </trkpt>
      <trkpt lat="42.90811" lon="0.14519">
        <ele>2069.2</ele>
        <time>2020-12-05T17:45:46.948Z</time>
      </trkpt>
      <trkpt lat="42.90811" lon="0.14519">
        <ele>2069.2</ele>
        <time>2020-12-05T17:45:47.949Z</time>
      </trkpt>
      <trkpt lat="42.90811" lon="0.14519">
        <ele>2069.2</ele>
        <time>2020-12-05T17:45:48.949Z</time>
      </trkpt>
      <trkpt lat="42.90811" lon="0.14519">
        <ele>2069.2</ele>
        <time>2020-12-05T17:45:49.948Z</time>
      </trkpt>
      <trkpt lat="42.90811" lon="0.14519">
        <ele>2069.2</ele>
        <time>2020-12-05T17:45:50.95Z</time>
      </trkpt>
      <trkpt lat="42.90811" lon="0.14519">
        <ele>2069.2</ele>
        <time>2020-12-05T17:45:51.95Z</time>
      </trkpt>
      <trkpt lat="42.90811" lon="0.14519">
        <ele>2069.2</ele>
        <time>2020-12-05T17:45:52.948Z</time>
      </trkpt>
      <trkpt lat="42.90811" lon="0.14519">
        <ele>2069.2</ele>
        <time>2020-12-05T17:45:53.947Z</time>
      </trkpt>
      <trkpt lat="42.9082" lon="0.14522">
        <ele>2069.8</ele>
        <time>2020-12-05T17:45:54.949Z</time>
      </trkpt>
      <trkpt lat="42.9082" lon="0.14522">
        <ele>2069.8</ele>
        <time>2020-12-05T17:45:55.947Z</time>
      </trkpt>
      <trkpt lat="42.9082" lon="0.14522">
        <ele>2069.8</ele>
        <time>2020-12-05T17:45:56.947Z</time>
      </trkpt>
      <trkpt lat="42.90826" lon="0.14523">
        <ele>2070.8</ele>
        <time>2020-12-05T17:45:57.948Z</time>
      </trkpt>
      <trkpt lat="42.90827" lon="0.14523">
        <ele>2071</ele>
        <time>2020-12-05T17:45:58.95Z</time>
      </trkpt>
      <trkpt lat="42.90827" lon="0.14523">
        <ele>2071</ele>
        <time>2020-12-05T17:45:59.95Z</time>
      </trkpt>
      <trkpt lat="42.90827" lon="0.14523">
        <ele>2071</ele>
        <time>2020-12-05T17:46:00.948Z</time>
      </trkpt>
    </trkseg>
  </trk>
</gpx>